<?xml version="1.0" encoding="UTF-8"?>
<gpx version="1.1" creator=" " xmlns="http://www.topografix.com/GPX/1/1" xmlns:xsi="http://www.w3.org/2001/XMLSchema-instance" xsi:schemaLocation="http://www.topografix.com/GPX/1/1 http://www.topografix.com/GPX/1/1/gpx.xsd">
<metadata>
<name>Reisenbacher Grund</name>
<desc></desc>
<link href="">
<text>  </text>
</link>
<time>2024-05-10T08:54:58Z</time>
</metadata>
<trk>
<trkseg>
<trkpt lat="49.52329630963504" lon="9.32136339135468">
<ele>332</ele>
</trkpt>
<trkpt lat="49.52329630963504" lon="9.32136339135468">
<ele>332</ele>
<time>2024-05-10T08:54:58Z</time>
</trkpt>
<trkpt lat="49.523292537778616" lon="9.32136531919241">
<ele>332</ele>
<time>2024-05-10T08:54:59Z</time>
</trkpt>
<trkpt lat="49.523292537778616" lon="9.321366241201758">
<ele>332</ele>
<time>2024-05-10T08:55:02Z</time>
</trkpt>
<trkpt lat="49.523292537778616" lon="9.321368169039488">
<ele>332</ele>
<time>2024-05-10T08:55:04Z</time>
</trkpt>
<trkpt lat="49.523292537778616" lon="9.321370096877216">
<ele>332</ele>
<time>2024-05-10T08:55:06Z</time>
</trkpt>
<trkpt lat="49.523292537778616" lon="9.321372024714949">
<ele>332</ele>
<time>2024-05-10T08:55:09Z</time>
</trkpt>
<trkpt lat="49.523292537778616" lon="9.321370096877216">
<ele>332.2</ele>
<time>2024-05-10T08:55:10Z</time>
</trkpt>
<trkpt lat="49.52329630963504" lon="9.321372024714949">
<ele>332.2</ele>
<time>2024-05-10T08:55:12Z</time>
</trkpt>
<trkpt lat="49.5233001653105" lon="9.321372024714949">
<ele>332.4</ele>
<time>2024-05-10T08:55:13Z</time>
</trkpt>
<trkpt lat="49.5233001653105" lon="9.321370096877216">
<ele>332.6</ele>
<time>2024-05-10T08:55:15Z</time>
</trkpt>
<trkpt lat="49.5233001653105" lon="9.321372024714949">
<ele>332.8</ele>
<time>2024-05-10T08:55:16Z</time>
</trkpt>
<trkpt lat="49.5233001653105" lon="9.321370096877216">
<ele>333</ele>
<time>2024-05-10T08:55:17Z</time>
</trkpt>
<trkpt lat="49.5233001653105" lon="9.321368169039488">
<ele>333.2</ele>
<time>2024-05-10T08:55:20Z</time>
</trkpt>
<trkpt lat="49.5233001653105" lon="9.32136531919241">
<ele>333.4</ele>
<time>2024-05-10T08:55:24Z</time>
</trkpt>
<trkpt lat="49.5233001653105" lon="9.32136339135468">
<ele>333.6</ele>
<time>2024-05-10T08:55:27Z</time>
</trkpt>
<trkpt lat="49.52330393716693" lon="9.32136146351695">
<ele>333.8</ele>
<time>2024-05-10T08:55:29Z</time>
</trkpt>
<trkpt lat="49.52330393716693" lon="9.321358613669872">
<ele>334</ele>
<time>2024-05-10T08:55:30Z</time>
</trkpt>
<trkpt lat="49.52330779284239" lon="9.321354841813443">
<ele>334</ele>
<time>2024-05-10T08:55:31Z</time>
</trkpt>
<trkpt lat="49.52330779284239" lon="9.321352913975716">
<ele>334.2</ele>
<time>2024-05-10T08:55:32Z</time>
</trkpt>
<trkpt lat="49.52330779284239" lon="9.321351991966369">
<ele>334.2</ele>
<time>2024-05-10T08:55:33Z</time>
</trkpt>
<trkpt lat="49.52330779284239" lon="9.321350064128636">
<ele>334.4</ele>
<time>2024-05-10T08:55:34Z</time>
</trkpt>
<trkpt lat="49.52330779284239" lon="9.321348136290908">
<ele>334.4</ele>
<time>2024-05-10T08:55:36Z</time>
</trkpt>
<trkpt lat="49.52330393716693" lon="9.321346208453178">
<ele>334.4</ele>
<time>2024-05-10T08:55:38Z</time>
</trkpt>
<trkpt lat="49.52330393716693" lon="9.32134528644383">
<ele>334.4</ele>
<time>2024-05-10T08:55:39Z</time>
</trkpt>
<trkpt lat="49.52330393716693" lon="9.321341514587402">
<ele>334.4</ele>
<time>2024-05-10T08:55:41Z</time>
</trkpt>
<trkpt lat="49.5233001653105" lon="9.321339586749671">
<ele>334.4</ele>
<time>2024-05-10T08:55:43Z</time>
</trkpt>
<trkpt lat="49.5233001653105" lon="9.321338580921292">
<ele>334.4</ele>
<time>2024-05-10T08:55:45Z</time>
</trkpt>
<trkpt lat="49.5233001653105" lon="9.321336736902596">
<ele>334.4</ele>
<time>2024-05-10T08:55:46Z</time>
</trkpt>
<trkpt lat="49.5233001653105" lon="9.321334809064863">
<ele>334.2</ele>
<time>2024-05-10T08:55:48Z</time>
</trkpt>
<trkpt lat="49.5233001653105" lon="9.321332881227136">
<ele>334.2</ele>
<time>2024-05-10T08:55:49Z</time>
</trkpt>
<trkpt lat="49.5233001653105" lon="9.321331959217789">
<ele>334</ele>
<time>2024-05-10T08:55:53Z</time>
</trkpt>
<trkpt lat="49.52329630963504" lon="9.321331959217789">
<ele>334</ele>
<time>2024-05-10T08:55:56Z</time>
</trkpt>
<trkpt lat="49.52329630963504" lon="9.321330031380056">
<ele>334</ele>
<time>2024-05-10T08:55:57Z</time>
</trkpt>
<trkpt lat="49.52329630963504" lon="9.321328103542328">
<ele>333.8</ele>
<time>2024-05-10T08:56:02Z</time>
</trkpt>
<trkpt lat="49.5233001653105" lon="9.321326175704598">
<ele>333.6</ele>
<time>2024-05-10T08:56:12Z</time>
</trkpt>
<trkpt lat="49.5233001653105" lon="9.32132525369525">
<ele>333.6</ele>
<time>2024-05-10T08:56:15Z</time>
</trkpt>
<trkpt lat="49.52330779284239" lon="9.321318548172712">
<ele>333.4</ele>
<time>2024-05-10T08:56:16Z</time>
</trkpt>
<trkpt lat="49.523315420374274" lon="9.32128711603582">
<ele>333.4</ele>
<time>2024-05-10T08:56:17Z</time>
</trkpt>
<trkpt lat="49.52332304790616" lon="9.321260377764702">
<ele>333.2</ele>
<time>2024-05-10T08:56:18Z</time>
</trkpt>
<trkpt lat="49.52334207482636" lon="9.321238500997424">
<ele>333</ele>
<time>2024-05-10T08:56:19Z</time>
</trkpt>
<trkpt lat="49.52336495742202" lon="9.32122508995235">
<ele>333</ele>
<time>2024-05-10T08:56:20Z</time>
</trkpt>
<trkpt lat="49.52338406816125" lon="9.321213690564036">
<ele>332.8</ele>
<time>2024-05-10T08:56:21Z</time>
</trkpt>
<trkpt lat="49.52340309508145" lon="9.32120505720377">
<ele>332.8</ele>
<time>2024-05-10T08:56:22Z</time>
</trkpt>
<trkpt lat="49.52342597767711" lon="9.321198435500264">
<ele>332.8</ele>
<time>2024-05-10T08:56:23Z</time>
</trkpt>
<trkpt lat="49.523452715948224" lon="9.321194579824803">
<ele>332.8</ele>
<time>2024-05-10T08:56:24Z</time>
</trkpt>
<trkpt lat="49.52348322607577" lon="9.32118510827422">
<ele>332.8</ele>
<time>2024-05-10T08:56:25Z</time>
</trkpt>
<trkpt lat="49.52351373620331" lon="9.321174547076224">
<ele>332.8</ele>
<time>2024-05-10T08:56:26Z</time>
</trkpt>
<trkpt lat="49.52354810200632" lon="9.321161219850184">
<ele>333</ele>
<time>2024-05-10T08:56:27Z</time>
</trkpt>
<trkpt lat="49.52358238399029" lon="9.321151664480569">
<ele>333</ele>
<time>2024-05-10T08:56:28Z</time>
</trkpt>
<trkpt lat="49.52362060546875" lon="9.321140265092254">
<ele>333</ele>
<time>2024-05-10T08:56:29Z</time>
</trkpt>
<trkpt lat="49.52365488745272" lon="9.32112501002848">
<ele>333.2</ele>
<time>2024-05-10T08:56:30Z</time>
</trkpt>
<trkpt lat="49.52369688078761" lon="9.32110975496471">
<ele>333.2</ele>
<time>2024-05-10T08:56:31Z</time>
</trkpt>
<trkpt lat="49.52373501844704" lon="9.321100199595094">
<ele>333.2</ele>
<time>2024-05-10T08:56:32Z</time>
</trkpt>
<trkpt lat="49.5237769279629" lon="9.32108972221613">
<ele>333.2</ele>
<time>2024-05-10T08:56:33Z</time>
</trkpt>
<trkpt lat="49.52381892129779" lon="9.321078239008784">
<ele>333.2</ele>
<time>2024-05-10T08:56:34Z</time>
</trkpt>
<trkpt lat="49.52386091463268" lon="9.321064911782742">
<ele>333.2</ele>
<time>2024-05-10T08:56:35Z</time>
</trkpt>
<trkpt lat="49.523902824148536" lon="9.32104873470962">
<ele>333.2</ele>
<time>2024-05-10T08:56:36Z</time>
</trkpt>
<trkpt lat="49.523940961807966" lon="9.32102870196104">
<ele>333.2</ele>
<time>2024-05-10T08:56:37Z</time>
</trkpt>
<trkpt lat="49.52397918328643" lon="9.32100959122181">
<ele>333.2</ele>
<time>2024-05-10T08:56:38Z</time>
</trkpt>
<trkpt lat="49.524021092802286" lon="9.32098955847323">
<ele>333.2</ele>
<time>2024-05-10T08:56:39Z</time>
</trkpt>
<trkpt lat="49.52405923046172" lon="9.3209686037153">
<ele>333.2</ele>
<time>2024-05-10T08:56:40Z</time>
</trkpt>
<trkpt lat="49.524101223796606" lon="9.320944715291262">
<ele>333.2</ele>
<time>2024-05-10T08:56:41Z</time>
</trkpt>
<trkpt lat="49.524143217131495" lon="9.320919988676906">
<ele>333.2</ele>
<time>2024-05-10T08:56:42Z</time>
</trkpt>
<trkpt lat="49.52418512664735" lon="9.320893250405788">
<ele>333.2</ele>
<time>2024-05-10T08:56:43Z</time>
</trkpt>
<trkpt lat="49.524223264306784" lon="9.320857962593436">
<ele>333.2</ele>
<time>2024-05-10T08:56:44Z</time>
</trkpt>
<trkpt lat="49.52426525764167" lon="9.320821752771735">
<ele>333.2</ele>
<time>2024-05-10T08:56:45Z</time>
</trkpt>
<trkpt lat="49.52430725097656" lon="9.320786464959385">
<ele>333.2</ele>
<time>2024-05-10T08:56:46Z</time>
</trkpt>
<trkpt lat="49.52434916049242" lon="9.320753021165729">
<ele>333.2</ele>
<time>2024-05-10T08:56:47Z</time>
</trkpt>
<trkpt lat="49.52438729815185" lon="9.320718739181755">
<ele>333.2</ele>
<time>2024-05-10T08:56:48Z</time>
</trkpt>
<trkpt lat="49.52442543581128" lon="9.320674818009138">
<ele>333.2</ele>
<time>2024-05-10T08:56:49Z</time>
</trkpt>
<trkpt lat="49.52446357347071" lon="9.320630058646202">
<ele>333</ele>
<time>2024-05-10T08:56:50Z</time>
</trkpt>
<trkpt lat="49.5245055668056" lon="9.320581359788775">
<ele>333</ele>
<time>2024-05-10T08:56:51Z</time>
</trkpt>
<trkpt lat="49.52454370446503" lon="9.320527967065573">
<ele>332.8</ele>
<time>2024-05-10T08:56:52Z</time>
</trkpt>
<trkpt lat="49.52458569779992" lon="9.320471724495292">
<ele>332.8</ele>
<time>2024-05-10T08:56:53Z</time>
</trkpt>
<trkpt lat="49.52462383545935" lon="9.320420259609818">
<ele>332.6</ele>
<time>2024-05-10T08:56:54Z</time>
</trkpt>
<trkpt lat="49.52466197311878" lon="9.320363011211157">
<ele>332.6</ele>
<time>2024-05-10T08:56:55Z</time>
</trkpt>
<trkpt lat="49.52470011077821" lon="9.32030006311834">
<ele>332.4</ele>
<time>2024-05-10T08:56:56Z</time>
</trkpt>
<trkpt lat="49.52473824843764" lon="9.320233343169091">
<ele>332.4</ele>
<time>2024-05-10T08:56:57Z</time>
</trkpt>
<trkpt lat="49.524776386097074" lon="9.320170395076277">
<ele>332.2</ele>
<time>2024-05-10T08:56:58Z</time>
</trkpt>
<trkpt lat="49.52481075190008" lon="9.320103591307998">
<ele>332</ele>
<time>2024-05-10T08:56:59Z</time>
</trkpt>
<trkpt lat="49.52484511770308" lon="9.320033015683292">
<ele>331.8</ele>
<time>2024-05-10T08:57:00Z</time>
</trkpt>
<trkpt lat="49.52488325536251" lon="9.319966295734048">
<ele>331.8</ele>
<time>2024-05-10T08:57:01Z</time>
</trkpt>
<trkpt lat="49.524913765490055" lon="9.319891864433885">
<ele>331.8</ele>
<time>2024-05-10T08:57:02Z</time>
</trkpt>
<trkpt lat="49.52494804747403" lon="9.319816511124372">
<ele>331.8</ele>
<time>2024-05-10T08:57:03Z</time>
</trkpt>
<trkpt lat="49.52498241327703" lon="9.319747863337398">
<ele>331.6</ele>
<time>2024-05-10T08:57:04Z</time>
</trkpt>
<trkpt lat="49.52501677908003" lon="9.319676365703344">
<ele>331.6</ele>
<time>2024-05-10T08:57:05Z</time>
</trkpt>
<trkpt lat="49.525051061064005" lon="9.319604868069291">
<ele>331.4</ele>
<time>2024-05-10T08:57:06Z</time>
</trkpt>
<trkpt lat="49.52508157119155" lon="9.319530436769128">
<ele>331.4</ele>
<time>2024-05-10T08:57:07Z</time>
</trkpt>
<trkpt lat="49.52511593699455" lon="9.319455083459616">
<ele>331.2</ele>
<time>2024-05-10T08:57:08Z</time>
</trkpt>
<trkpt lat="49.52515021897853" lon="9.319377886131406">
<ele>331.2</ele>
<time>2024-05-10T08:57:09Z</time>
</trkpt>
<trkpt lat="49.52518458478153" lon="9.31930630467832">
<ele>331</ele>
<time>2024-05-10T08:57:10Z</time>
</trkpt>
<trkpt lat="49.52521509490907" lon="9.31923002935946">
<ele>331</ele>
<time>2024-05-10T08:57:11Z</time>
</trkpt>
<trkpt lat="49.5252532325685" lon="9.319160459563136">
<ele>330.8</ele>
<time>2024-05-10T08:57:12Z</time>
</trkpt>
<trkpt lat="49.52528374269605" lon="9.319086950272322">
<ele>330.6</ele>
<time>2024-05-10T08:57:13Z</time>
</trkpt>
<trkpt lat="49.52531810849905" lon="9.319009752944112">
<ele>330.6</ele>
<time>2024-05-10T08:57:14Z</time>
</trkpt>
<trkpt lat="49.52535247430205" lon="9.31893154978752">
<ele>330.6</ele>
<time>2024-05-10T08:57:15Z</time>
</trkpt>
<trkpt lat="49.525386756286025" lon="9.318849490955472">
<ele>330.6</ele>
<time>2024-05-10T08:57:16Z</time>
</trkpt>
<trkpt lat="49.52541349455714" lon="9.318768437951803">
<ele>330.6</ele>
<time>2024-05-10T08:57:17Z</time>
</trkpt>
<trkpt lat="49.52544400468469" lon="9.318679757416248">
<ele>330.6</ele>
<time>2024-05-10T08:57:18Z</time>
</trkpt>
<trkpt lat="49.52547065913677" lon="9.318593004718425">
<ele>330.4</ele>
<time>2024-05-10T08:57:19Z</time>
</trkpt>
<trkpt lat="49.52550116926432" lon="9.318505246192217">
<ele>330.2</ele>
<time>2024-05-10T08:57:20Z</time>
</trkpt>
<trkpt lat="49.525527907535434" lon="9.318418493494391">
<ele>330</ele>
<time>2024-05-10T08:57:21Z</time>
</trkpt>
<trkpt lat="49.52555464580655" lon="9.318327885121109">
<ele>330</ele>
<time>2024-05-10T08:57:22Z</time>
</trkpt>
<trkpt lat="49.52558130025864" lon="9.318236270919442">
<ele>329.8</ele>
<time>2024-05-10T08:57:23Z</time>
</trkpt>
<trkpt lat="49.52560041099787" lon="9.318146668374538">
<ele>329.6</ele>
<time>2024-05-10T08:57:24Z</time>
</trkpt>
<trkpt lat="49.52561943791807" lon="9.318064609542487">
<ele>329.4</ele>
<time>2024-05-10T08:57:25Z</time>
</trkpt>
<trkpt lat="49.5256385486573" lon="9.317979784682391">
<ele>329.4</ele>
<time>2024-05-10T08:57:26Z</time>
</trkpt>
<trkpt lat="49.52566143125296" lon="9.31788825429976">
<ele>329.2</ele>
<time>2024-05-10T08:57:27Z</time>
</trkpt>
<trkpt lat="49.52568054199219" lon="9.317796640098097">
<ele>329</ele>
<time>2024-05-10T08:57:28Z</time>
</trkpt>
<trkpt lat="49.52570719644427" lon="9.317703181877732">
<ele>329</ele>
<time>2024-05-10T08:57:29Z</time>
</trkpt>
<trkpt lat="49.52573007903993" lon="9.317607879638672">
<ele>328.8</ele>
<time>2024-05-10T08:57:30Z</time>
</trkpt>
<trkpt lat="49.52575681731105" lon="9.317515343427658">
<ele>328.6</ele>
<time>2024-05-10T08:57:31Z</time>
</trkpt>
<trkpt lat="49.525783471763134" lon="9.317424735054374">
<ele>328.4</ele>
<time>2024-05-10T08:57:32Z</time>
</trkpt>
<trkpt lat="49.52581021003425" lon="9.317335048690438">
<ele>328.2</ele>
<time>2024-05-10T08:57:33Z</time>
</trkpt>
<trkpt lat="49.52583309262991" lon="9.317243518307803">
<ele>328</ele>
<time>2024-05-10T08:57:34Z</time>
</trkpt>
<trkpt lat="49.52585983090103" lon="9.317151987925172">
<ele>327.8</ele>
<time>2024-05-10T08:57:35Z</time>
</trkpt>
<trkpt lat="49.52588648535311" lon="9.317065235227346">
<ele>327.6</ele>
<time>2024-05-10T08:57:36Z</time>
</trkpt>
<trkpt lat="49.52591699548066" lon="9.316981248557568">
<ele>327.4</ele>
<time>2024-05-10T08:57:37Z</time>
</trkpt>
<trkpt lat="49.525943733751774" lon="9.316889718174934">
<ele>327.2</ele>
<time>2024-05-10T08:57:38Z</time>
</trkpt>
<trkpt lat="49.52597038820386" lon="9.3167981877923">
<ele>327</ele>
<time>2024-05-10T08:57:39Z</time>
</trkpt>
<trkpt lat="49.52600089833141" lon="9.31670472957194">
<ele>327</ele>
<time>2024-05-10T08:57:40Z</time>
</trkpt>
<trkpt lat="49.52603149227798" lon="9.316615043208005">
<ele>326.8</ele>
<time>2024-05-10T08:57:41Z</time>
</trkpt>
<trkpt lat="49.52606577426195" lon="9.316528290510178">
<ele>326.8</ele>
<time>2024-05-10T08:57:42Z</time>
</trkpt>
<trkpt lat="49.526096284389496" lon="9.31644530966878">
<ele>326.6</ele>
<time>2024-05-10T08:57:43Z</time>
</trkpt>
<trkpt lat="49.526134422048926" lon="9.316361406818032">
<ele>326.6</ele>
<time>2024-05-10T08:57:44Z</time>
</trkpt>
<trkpt lat="49.52617255970836" lon="9.316286975517867">
<ele>326.4</ele>
<time>2024-05-10T08:57:45Z</time>
</trkpt>
<trkpt lat="49.52620692551136" lon="9.31620977818966">
<ele>326.2</ele>
<time>2024-05-10T08:57:46Z</time>
</trkpt>
<trkpt lat="49.52624506317079" lon="9.316133419051766">
<ele>326.2</ele>
<time>2024-05-10T08:57:47Z</time>
</trkpt>
<trkpt lat="49.52628320083022" lon="9.316056221723557">
<ele>326</ele>
<time>2024-05-10T08:57:48Z</time>
</trkpt>
<trkpt lat="49.52632133848965" lon="9.315983718261124">
<ele>326</ele>
<time>2024-05-10T08:57:49Z</time>
</trkpt>
<trkpt lat="49.52635947614908" lon="9.315913142636418">
<ele>325.8</ele>
<time>2024-05-10T08:57:50Z</time>
</trkpt>
<trkpt lat="49.526393841952085" lon="9.315845416858792">
<ele>325.8</ele>
<time>2024-05-10T08:57:51Z</time>
</trkpt>
<trkpt lat="49.52642820775509" lon="9.315783474594356">
<ele>325.8</ele>
<time>2024-05-10T08:57:52Z</time>
</trkpt>
<trkpt lat="49.52646634541452" lon="9.315726226195691">
<ele>325.6</ele>
<time>2024-05-10T08:57:53Z</time>
</trkpt>
<trkpt lat="49.52650062739849" lon="9.315665205940604">
<ele>325.6</ele>
<time>2024-05-10T08:57:54Z</time>
</trkpt>
<trkpt lat="49.526531137526035" lon="9.315603179857137">
<ele>325.6</ele>
<time>2024-05-10T08:57:55Z</time>
</trkpt>
<trkpt lat="49.52655787579715" lon="9.31553645990789">
<ele>325.6</ele>
<time>2024-05-10T08:57:56Z</time>
</trkpt>
<trkpt lat="49.52658461406827" lon="9.315469739958644">
<ele>325.6</ele>
<time>2024-05-10T08:57:57Z</time>
</trkpt>
<trkpt lat="49.52660749666393" lon="9.315404864028096">
<ele>325.4</ele>
<time>2024-05-10T08:57:58Z</time>
</trkpt>
<trkpt lat="49.52663415111601" lon="9.31533806025982">
<ele>325.4</ele>
<time>2024-05-10T08:57:59Z</time>
</trkpt>
<trkpt lat="49.52666466124356" lon="9.315270418301225">
<ele>325.4</ele>
<time>2024-05-10T08:58:00Z</time>
</trkpt>
<trkpt lat="49.526687543839216" lon="9.31519984267652">
<ele>325.2</ele>
<time>2024-05-10T08:58:01Z</time>
</trkpt>
<trkpt lat="49.52670665457845" lon="9.315128261223435">
<ele>325.2</ele>
<time>2024-05-10T08:58:02Z</time>
</trkpt>
<trkpt lat="49.526729537174106" lon="9.315056763589382">
<ele>325.2</ele>
<time>2024-05-10T08:58:03Z</time>
</trkpt>
<trkpt lat="49.52675241976976" lon="9.314986187964678">
<ele>325</ele>
<time>2024-05-10T08:58:04Z</time>
</trkpt>
<trkpt lat="49.526771530508995" lon="9.314918462187052">
<ele>325</ele>
<time>2024-05-10T08:58:05Z</time>
</trkpt>
<trkpt lat="49.52679818496108" lon="9.314849814400077">
<ele>324.8</ele>
<time>2024-05-10T08:58:06Z</time>
</trkpt>
<trkpt lat="49.52682106755674" lon="9.314783094450831">
<ele>324.8</ele>
<time>2024-05-10T08:58:07Z</time>
</trkpt>
<trkpt lat="49.5268439501524" lon="9.314713440835476">
<ele>324.8</ele>
<time>2024-05-10T08:58:08Z</time>
</trkpt>
<trkpt lat="49.526866832748055" lon="9.314642865210772">
<ele>324.8</ele>
<time>2024-05-10T08:58:09Z</time>
</trkpt>
<trkpt lat="49.526889799162745" lon="9.314573211595416">
<ele>324.8</ele>
<time>2024-05-10T08:58:10Z</time>
</trkpt>
<trkpt lat="49.5269126817584" lon="9.314503641799092">
<ele>324.8</ele>
<time>2024-05-10T08:58:11Z</time>
</trkpt>
<trkpt lat="49.5269317086786" lon="9.314433066174388">
<ele>324.8</ele>
<time>2024-05-10T08:58:12Z</time>
</trkpt>
<trkpt lat="49.526950819417834" lon="9.314363412559032">
<ele>324.8</ele>
<time>2024-05-10T08:58:13Z</time>
</trkpt>
<trkpt lat="49.526969846338034" lon="9.314292836934328">
<ele>324.8</ele>
<time>2024-05-10T08:58:14Z</time>
</trkpt>
<trkpt lat="49.52699272893369" lon="9.314223267138004">
<ele>325</ele>
<time>2024-05-10T08:58:15Z</time>
</trkpt>
<trkpt lat="49.52701561152935" lon="9.314156463369727">
<ele>325</ele>
<time>2024-05-10T08:58:16Z</time>
</trkpt>
<trkpt lat="49.52703472226858" lon="9.314088821411133">
<ele>325</ele>
<time>2024-05-10T08:58:17Z</time>
</trkpt>
<trkpt lat="49.5270614605397" lon="9.314022939652205">
<ele>325</ele>
<time>2024-05-10T08:58:18Z</time>
</trkpt>
<trkpt lat="49.52708434313536" lon="9.31395621970296">
<ele>325</ele>
<time>2024-05-10T08:58:19Z</time>
</trkpt>
<trkpt lat="49.527107225731015" lon="9.313890421763062">
<ele>324.8</ele>
<time>2024-05-10T08:58:20Z</time>
</trkpt>
<trkpt lat="49.52713010832667" lon="9.313824623823166">
<ele>324.8</ele>
<time>2024-05-10T08:58:21Z</time>
</trkpt>
<trkpt lat="49.52715299092233" lon="9.313763603568075">
<ele>324.8</ele>
<time>2024-05-10T08:58:22Z</time>
</trkpt>
<trkpt lat="49.52717587351799" lon="9.31369872763753">
<ele>324.6</ele>
<time>2024-05-10T08:58:23Z</time>
</trkpt>
<trkpt lat="49.52719875611365" lon="9.313634857535362">
<ele>324.6</ele>
<time>2024-05-10T08:58:24Z</time>
</trkpt>
<trkpt lat="49.52721778303385" lon="9.313568053767083">
<ele>324.6</ele>
<time>2024-05-10T08:58:25Z</time>
</trkpt>
<trkpt lat="49.52723312191665" lon="9.31350133381784">
<ele>324.6</ele>
<time>2024-05-10T08:58:26Z</time>
</trkpt>
<trkpt lat="49.52725600451231" lon="9.31344031356275">
<ele>324.6</ele>
<time>2024-05-10T08:58:27Z</time>
</trkpt>
<trkpt lat="49.52727503143251" lon="9.313373509794474">
<ele>324.4</ele>
<time>2024-05-10T08:58:28Z</time>
</trkpt>
<trkpt lat="49.52729414217174" lon="9.313306789845228">
<ele>324.2</ele>
<time>2024-05-10T08:58:29Z</time>
</trkpt>
<trkpt lat="49.52731316909194" lon="9.31324191391468">
<ele>324</ele>
<time>2024-05-10T08:58:30Z</time>
</trkpt>
<trkpt lat="49.52733990736306" lon="9.313175193965437">
<ele>324</ele>
<time>2024-05-10T08:58:31Z</time>
</trkpt>
<trkpt lat="49.52735893428326" lon="9.313111240044236">
<ele>323.8</ele>
<time>2024-05-10T08:58:32Z</time>
</trkpt>
<trkpt lat="49.527381816878915" lon="9.31304452009499">
<ele>323.6</ele>
<time>2024-05-10T08:58:33Z</time>
</trkpt>
<trkpt lat="49.527400927618146" lon="9.312981572002172">
<ele>323.6</ele>
<time>2024-05-10T08:58:34Z</time>
</trkpt>
<trkpt lat="49.52742381021381" lon="9.312919545918705">
<ele>323.4</ele>
<time>2024-05-10T08:58:35Z</time>
</trkpt>
<trkpt lat="49.527442920953035" lon="9.31284997612238">
<ele>323.4</ele>
<time>2024-05-10T08:58:36Z</time>
</trkpt>
<trkpt lat="49.52745054848492" lon="9.312774622812867">
<ele>323.2</ele>
<time>2024-05-10T08:58:37Z</time>
</trkpt>
<trkpt lat="49.52745054848492" lon="9.31270781904459">
<ele>323.2</ele>
<time>2024-05-10T08:58:38Z</time>
</trkpt>
<trkpt lat="49.52744669280946" lon="9.31264872662723">
<ele>323.2</ele>
<time>2024-05-10T08:58:39Z</time>
</trkpt>
<trkpt lat="49.52745054848492" lon="9.31258862838149">
<ele>323</ele>
<time>2024-05-10T08:58:40Z</time>
</trkpt>
<trkpt lat="49.527465803548694" lon="9.312535235658288">
<ele>322.8</ele>
<time>2024-05-10T08:58:41Z</time>
</trkpt>
<trkpt lat="49.527481058612466" lon="9.3124932423234">
<ele>322.8</ele>
<time>2024-05-10T08:58:42Z</time>
</trkpt>
<trkpt lat="49.52749631367624" lon="9.312458038330078">
<ele>322.6</ele>
<time>2024-05-10T08:58:43Z</time>
</trkpt>
<trkpt lat="49.52751156874001" lon="9.312428450211884">
<ele>322.6</ele>
<time>2024-05-10T08:58:44Z</time>
</trkpt>
<trkpt lat="49.527519196271896" lon="9.31239509023726">
<ele>322.6</ele>
<time>2024-05-10T08:58:45Z</time>
</trkpt>
<trkpt lat="49.52752682380378" lon="9.312368351966144">
<ele>322.4</ele>
<time>2024-05-10T08:58:46Z</time>
</trkpt>
<trkpt lat="49.52753059566021" lon="9.312350247055292">
<ele>322.4</ele>
<time>2024-05-10T08:58:47Z</time>
</trkpt>
<trkpt lat="49.52752682380378" lon="9.312324514612556">
<ele>322.4</ele>
<time>2024-05-10T08:58:48Z</time>
</trkpt>
<trkpt lat="49.52752682380378" lon="9.31231688708067">
<ele>322.2</ele>
<time>2024-05-10T08:58:49Z</time>
</trkpt>
<trkpt lat="49.52752682380378" lon="9.31231495924294">
<ele>322.2</ele>
<time>2024-05-10T08:58:50Z</time>
</trkpt>
<trkpt lat="49.52752682380378" lon="9.31231303140521">
<ele>322</ele>
<time>2024-05-10T08:58:51Z</time>
</trkpt>
<trkpt lat="49.52752682380378" lon="9.312312109395862">
<ele>321.8</ele>
<time>2024-05-10T08:58:52Z</time>
</trkpt>
<trkpt lat="49.52753059566021" lon="9.312312109395862">
<ele>321.8</ele>
<time>2024-05-10T08:58:54Z</time>
</trkpt>
<trkpt lat="49.52753059566021" lon="9.31231303140521">
<ele>321.6</ele>
<time>2024-05-10T08:58:56Z</time>
</trkpt>
<trkpt lat="49.52753445133567" lon="9.312310181558132">
<ele>321.6</ele>
<time>2024-05-10T08:58:57Z</time>
</trkpt>
<trkpt lat="49.52753445133567" lon="9.312308253720404">
<ele>321.4</ele>
<time>2024-05-10T08:58:58Z</time>
</trkpt>
<trkpt lat="49.527538223192096" lon="9.312301632016895">
<ele>321.4</ele>
<time>2024-05-10T08:58:59Z</time>
</trkpt>
<trkpt lat="49.52754970639944" lon="9.312308253720404">
<ele>321.4</ele>
<time>2024-05-10T08:59:00Z</time>
</trkpt>
<trkpt lat="49.52754970639944" lon="9.312312109395862">
<ele>321.2</ele>
<time>2024-05-10T08:59:01Z</time>
</trkpt>
<trkpt lat="49.52755733393133" lon="9.31231688708067">
<ele>321.2</ele>
<time>2024-05-10T08:59:02Z</time>
</trkpt>
<trkpt lat="49.52755347825587" lon="9.312330214306712">
<ele>321.2</ele>
<time>2024-05-10T08:59:03Z</time>
</trkpt>
<trkpt lat="49.52754970639944" lon="9.31233691982925">
<ele>321.2</ele>
<time>2024-05-10T08:59:04Z</time>
</trkpt>
<trkpt lat="49.527538223192096" lon="9.312343541532757">
<ele>321.2</ele>
<time>2024-05-10T08:59:05Z</time>
</trkpt>
<trkpt lat="49.52753059566021" lon="9.31235116906464">
<ele>321.2</ele>
<time>2024-05-10T08:59:06Z</time>
</trkpt>
<trkpt lat="49.52753059566021" lon="9.31235309690237">
<ele>321.2</ele>
<time>2024-05-10T08:59:07Z</time>
</trkpt>
<trkpt lat="49.52752296812832" lon="9.312356868758798">
<ele>321.2</ele>
<time>2024-05-10T08:59:09Z</time>
</trkpt>
<trkpt lat="49.52751156874001" lon="9.3123550247401">
<ele>321.2</ele>
<time>2024-05-10T08:59:10Z</time>
</trkpt>
<trkpt lat="49.527500085532665" lon="9.3123550247401">
<ele>321.2</ele>
<time>2024-05-10T08:59:11Z</time>
</trkpt>
<trkpt lat="49.52749245800078" lon="9.312364496290684">
<ele>321.2</ele>
<time>2024-05-10T08:59:12Z</time>
</trkpt>
<trkpt lat="49.52748483046889" lon="9.312376901507378">
<ele>321.2</ele>
<time>2024-05-10T08:59:13Z</time>
</trkpt>
<trkpt lat="49.527481058612466" lon="9.312379835173488">
<ele>321</ele>
<time>2024-05-10T08:59:14Z</time>
</trkpt>
<trkpt lat="49.527481058612466" lon="9.312381679192184">
<ele>321</ele>
<time>2024-05-10T08:59:15Z</time>
</trkpt>
<trkpt lat="49.52747343108058" lon="9.31237505748868">
<ele>321</ele>
<time>2024-05-10T08:59:16Z</time>
</trkpt>
<trkpt lat="49.527465803548694" lon="9.31237505748868">
<ele>320.8</ele>
<time>2024-05-10T08:59:17Z</time>
</trkpt>
<trkpt lat="49.527465803548694" lon="9.312376901507378">
<ele>320.8</ele>
<time>2024-05-10T08:59:18Z</time>
</trkpt>
<trkpt lat="49.527465803548694" lon="9.312377907335758">
<ele>320.6</ele>
<time>2024-05-10T08:59:20Z</time>
</trkpt>
<trkpt lat="49.527465803548694" lon="9.312379835173488">
<ele>320.6</ele>
<time>2024-05-10T08:59:21Z</time>
</trkpt>
<trkpt lat="49.527465803548694" lon="9.312381679192184">
<ele>320.6</ele>
<time>2024-05-10T08:59:22Z</time>
</trkpt>
<trkpt lat="49.527465803548694" lon="9.312383607029917">
<ele>320.6</ele>
<time>2024-05-10T08:59:23Z</time>
</trkpt>
<trkpt lat="49.527465803548694" lon="9.312384529039264">
<ele>320.4</ele>
<time>2024-05-10T08:59:24Z</time>
</trkpt>
<trkpt lat="49.527465803548694" lon="9.312388384714724">
<ele>320.4</ele>
<time>2024-05-10T08:59:26Z</time>
</trkpt>
<trkpt lat="49.527465803548694" lon="9.312390312552452">
<ele>320.4</ele>
<time>2024-05-10T08:59:28Z</time>
</trkpt>
<trkpt lat="49.527461947873235" lon="9.312388384714724">
<ele>320.4</ele>
<time>2024-05-10T08:59:32Z</time>
</trkpt>
<trkpt lat="49.527461947873235" lon="9.312390312552452">
<ele>320.4</ele>
<time>2024-05-10T08:59:34Z</time>
</trkpt>
<trkpt lat="49.527461947873235" lon="9.312388384714724">
<ele>320.4</ele>
<time>2024-05-10T08:59:35Z</time>
</trkpt>
<trkpt lat="49.527461947873235" lon="9.312390312552452">
<ele>320.4</ele>
<time>2024-05-10T08:59:36Z</time>
</trkpt>
<trkpt lat="49.52745817601681" lon="9.312388384714724">
<ele>320.4</ele>
<time>2024-05-10T08:59:38Z</time>
</trkpt>
<trkpt lat="49.527465803548694" lon="9.312381679192184">
<ele>320.4</ele>
<time>2024-05-10T08:59:39Z</time>
</trkpt>
<trkpt lat="49.52746957540512" lon="9.312370279803872">
<ele>320.4</ele>
<time>2024-05-10T08:59:40Z</time>
</trkpt>
<trkpt lat="49.52747343108058" lon="9.312357874587178">
<ele>320.4</ele>
<time>2024-05-10T08:59:41Z</time>
</trkpt>
<trkpt lat="49.52748483046889" lon="9.312339769676328">
<ele>320.4</ele>
<time>2024-05-10T08:59:42Z</time>
</trkpt>
<trkpt lat="49.52750771306455" lon="9.312305403873324">
<ele>320.4</ele>
<time>2024-05-10T08:59:43Z</time>
</trkpt>
<trkpt lat="49.527538223192096" lon="9.312268188223245">
<ele>320.2</ele>
<time>2024-05-10T08:59:44Z</time>
</trkpt>
<trkpt lat="49.5275725889951" lon="9.31219861842692">
<ele>320.2</ele>
<time>2024-05-10T08:59:45Z</time>
</trkpt>
<trkpt lat="49.52761458232999" lon="9.31213852018118">
<ele>320</ele>
<time>2024-05-10T08:59:46Z</time>
</trkpt>
<trkpt lat="49.527660347521305" lon="9.312046989798546">
<ele>320</ele>
<time>2024-05-10T08:59:47Z</time>
</trkpt>
<trkpt lat="49.52770988456905" lon="9.311960153281689">
<ele>319.8</ele>
<time>2024-05-10T08:59:48Z</time>
</trkpt>
<trkpt lat="49.52776336111128" lon="9.311871472746134">
<ele>319.8</ele>
<time>2024-05-10T08:59:49Z</time>
</trkpt>
<trkpt lat="49.52781289815903" lon="9.311777092516422">
<ele>319.6</ele>
<time>2024-05-10T08:59:50Z</time>
</trkpt>
<trkpt lat="49.52786629088223" lon="9.311676928773522">
<ele>319.4</ele>
<time>2024-05-10T08:59:51Z</time>
</trkpt>
<trkpt lat="49.52793502248824" lon="9.311586320400238">
<ele>319.2</ele>
<time>2024-05-10T08:59:52Z</time>
</trkpt>
<trkpt lat="49.52799981459975" lon="9.311492862179875">
<ele>319</ele>
<time>2024-05-10T08:59:53Z</time>
</trkpt>
<trkpt lat="49.528072318062186" lon="9.31140510365367">
<ele>318.6</ele>
<time>2024-05-10T08:59:54Z</time>
</trkpt>
<trkpt lat="49.528137193992734" lon="9.31130787357688">
<ele>318.2</ele>
<time>2024-05-10T08:59:55Z</time>
</trkpt>
<trkpt lat="49.52819821424782" lon="9.311209637671707">
<ele>318</ele>
<time>2024-05-10T08:59:56Z</time>
</trkpt>
<trkpt lat="49.52826309017837" lon="9.311115257441998">
<ele>317.6</ele>
<time>2024-05-10T08:59:57Z</time>
</trkpt>
<trkpt lat="49.528320254758" lon="9.311024649068711">
<ele>317</ele>
<time>2024-05-10T08:59:58Z</time>
</trkpt>
<trkpt lat="49.52838127501309" lon="9.31094828993082">
<ele>316.4</ele>
<time>2024-05-10T08:59:59Z</time>
</trkpt>
<trkpt lat="49.52844615094364" lon="9.310868242755532">
<ele>315.8</ele>
<time>2024-05-10T09:00:00Z</time>
</trkpt>
<trkpt lat="49.528511026874185" lon="9.31079288944602">
<ele>315.2</ele>
<time>2024-05-10T09:00:01Z</time>
</trkpt>
<trkpt lat="49.5285758189857" lon="9.31071468628943">
<ele>314.6</ele>
<time>2024-05-10T09:00:02Z</time>
</trkpt>
<trkpt lat="49.52864069491625" lon="9.310640254989266">
<ele>314.2</ele>
<time>2024-05-10T09:00:03Z</time>
</trkpt>
<trkpt lat="49.5287055708468" lon="9.310546796768904">
<ele>313.6</ele>
<time>2024-05-10T09:00:04Z</time>
</trkpt>
<trkpt lat="49.52875896357" lon="9.310451494529843">
<ele>313</ele>
<time>2024-05-10T09:00:05Z</time>
</trkpt>
<trkpt lat="49.52881621196866" lon="9.310364658012986">
<ele>312.4</ele>
<time>2024-05-10T09:00:06Z</time>
</trkpt>
<trkpt lat="49.52886960469186" lon="9.310288382694123">
<ele>311.8</ele>
<time>2024-05-10T09:00:07Z</time>
</trkpt>
<trkpt lat="49.528922997415066" lon="9.310211101546884">
<ele>311.4</ele>
<time>2024-05-10T09:00:08Z</time>
</trkpt>
<trkpt lat="49.52897261828184" lon="9.310145303606989">
<ele>311</ele>
<time>2024-05-10T09:00:09Z</time>
</trkpt>
<trkpt lat="49.52902601100504" lon="9.310091910883784">
<ele>310.6</ele>
<time>2024-05-10T09:00:10Z</time>
</trkpt>
<trkpt lat="49.52907177619636" lon="9.310034746304154">
<ele>310.2</ele>
<time>2024-05-10T09:00:11Z</time>
</trkpt>
<trkpt lat="49.52910991385579" lon="9.309976575896144">
<ele>309.8</ele>
<time>2024-05-10T09:00:12Z</time>
</trkpt>
<trkpt lat="49.52913665212691" lon="9.309921255335212">
<ele>309.2</ele>
<time>2024-05-10T09:00:13Z</time>
</trkpt>
<trkpt lat="49.529163306578994" lon="9.309867778792976">
<ele>309</ele>
<time>2024-05-10T09:00:14Z</time>
</trkpt>
<trkpt lat="49.52918618917465" lon="9.309829641133549">
<ele>308.6</ele>
<time>2024-05-10T09:00:15Z</time>
</trkpt>
<trkpt lat="49.529201444238424" lon="9.309800136834385">
<ele>308.2</ele>
<time>2024-05-10T09:00:16Z</time>
</trkpt>
<trkpt lat="49.5292166993022" lon="9.30976962670684">
<ele>307.8</ele>
<time>2024-05-10T09:00:17Z</time>
</trkpt>
<trkpt lat="49.52923195436597" lon="9.309736182913184">
<ele>307.6</ele>
<time>2024-05-10T09:00:18Z</time>
</trkpt>
<trkpt lat="49.52924720942974" lon="9.3097095284611">
<ele>307.2</ele>
<time>2024-05-10T09:00:19Z</time>
</trkpt>
<trkpt lat="49.52926246449351" lon="9.30968279018998">
<ele>307</ele>
<time>2024-05-10T09:00:20Z</time>
</trkpt>
<trkpt lat="49.52927394770086" lon="9.309657979756594">
<ele>306.8</ele>
<time>2024-05-10T09:00:21Z</time>
</trkpt>
<trkpt lat="49.5292854309082" lon="9.309635097160935">
<ele>306.6</ele>
<time>2024-05-10T09:00:22Z</time>
</trkpt>
<trkpt lat="49.529281575232744" lon="9.309624619781973">
<ele>306.2</ele>
<time>2024-05-10T09:00:23Z</time>
</trkpt>
<trkpt lat="49.529281575232744" lon="9.309619842097163">
<ele>306</ele>
<time>2024-05-10T09:00:24Z</time>
</trkpt>
<trkpt lat="49.529281575232744" lon="9.309615064412355">
<ele>305.8</ele>
<time>2024-05-10T09:00:26Z</time>
</trkpt>
<trkpt lat="49.529281575232744" lon="9.309613220393658">
<ele>305.6</ele>
<time>2024-05-10T09:00:27Z</time>
</trkpt>
<trkpt lat="49.529281575232744" lon="9.309611292555928">
<ele>305.4</ele>
<time>2024-05-10T09:00:28Z</time>
</trkpt>
<trkpt lat="49.529281575232744" lon="9.309610286727548">
<ele>305.2</ele>
<time>2024-05-10T09:00:31Z</time>
</trkpt>
<trkpt lat="49.529281575232744" lon="9.30960651487112">
<ele>305</ele>
<time>2024-05-10T09:00:32Z</time>
</trkpt>
<trkpt lat="49.529281575232744" lon="9.309604587033393">
<ele>304.8</ele>
<time>2024-05-10T09:00:33Z</time>
</trkpt>
<trkpt lat="49.529281575232744" lon="9.309603665024042">
<ele>304.6</ele>
<time>2024-05-10T09:00:35Z</time>
</trkpt>
<trkpt lat="49.529281575232744" lon="9.309601737186313">
<ele>304.6</ele>
<time>2024-05-10T09:00:36Z</time>
</trkpt>
<trkpt lat="49.529281575232744" lon="9.309599809348583">
<ele>304.4</ele>
<time>2024-05-10T09:00:37Z</time>
</trkpt>
<trkpt lat="49.52928920276463" lon="9.309590337798">
<ele>304.2</ele>
<time>2024-05-10T09:00:38Z</time>
</trkpt>
<trkpt lat="49.52929683029651" lon="9.309571227058768">
<ele>304.2</ele>
<time>2024-05-10T09:00:39Z</time>
</trkpt>
<trkpt lat="49.52930831350386" lon="9.30955027230084">
<ele>304</ele>
<time>2024-05-10T09:00:40Z</time>
</trkpt>
<trkpt lat="49.52932734042406" lon="9.309519762173297">
<ele>304</ele>
<time>2024-05-10T09:00:41Z</time>
</trkpt>
<trkpt lat="49.52934645116329" lon="9.30948631837964">
<ele>304</ele>
<time>2024-05-10T09:00:42Z</time>
</trkpt>
<trkpt lat="49.52936933375895" lon="9.309459663927557">
<ele>304</ele>
<time>2024-05-10T09:00:43Z</time>
</trkpt>
<trkpt lat="49.52939221635461" lon="9.309432003647087">
<ele>304</ele>
<time>2024-05-10T09:00:44Z</time>
</trkpt>
<trkpt lat="49.52941509895027" lon="9.309398643672466">
<ele>304.2</ele>
<time>2024-05-10T09:00:45Z</time>
</trkpt>
<trkpt lat="49.529437981545925" lon="9.309366205707192">
<ele>304.2</ele>
<time>2024-05-10T09:00:46Z</time>
</trkpt>
<trkpt lat="49.52945709228515" lon="9.309334689751267">
<ele>304.2</ele>
<time>2024-05-10T09:00:47Z</time>
</trkpt>
<trkpt lat="49.52947234734893" lon="9.309298479929566">
<ele>304.2</ele>
<time>2024-05-10T09:00:48Z</time>
</trkpt>
<trkpt lat="49.52949137426913" lon="9.3092536367476">
<ele>304.2</ele>
<time>2024-05-10T09:00:49Z</time>
</trkpt>
<trkpt lat="49.52950285747647" lon="9.309206949546931">
<ele>304.4</ele>
<time>2024-05-10T09:00:50Z</time>
</trkpt>
<trkpt lat="49.529518112540245" lon="9.309162106364964">
<ele>304.4</ele>
<time>2024-05-10T09:00:51Z</time>
</trkpt>
<trkpt lat="49.52952951192856" lon="9.309116341173649">
<ele>304.4</ele>
<time>2024-05-10T09:00:52Z</time>
</trkpt>
<trkpt lat="49.529537139460444" lon="9.309068648144605">
<ele>304.4</ele>
<time>2024-05-10T09:00:53Z</time>
</trkpt>
<trkpt lat="49.529537139460444" lon="9.309022882953286">
<ele>304.4</ele>
<time>2024-05-10T09:00:54Z</time>
</trkpt>
<trkpt lat="49.52953336760402" lon="9.308982817456126">
<ele>304.6</ele>
<time>2024-05-10T09:00:55Z</time>
</trkpt>
<trkpt lat="49.52952951192856" lon="9.308946607634423">
<ele>304.6</ele>
<time>2024-05-10T09:00:56Z</time>
</trkpt>
<trkpt lat="49.52952574007213" lon="9.308908386155965">
<ele>304.6</ele>
<time>2024-05-10T09:00:57Z</time>
</trkpt>
<trkpt lat="49.52952188439667" lon="9.308866476640103">
<ele>304.6</ele>
<time>2024-05-10T09:00:58Z</time>
</trkpt>
<trkpt lat="49.52951048500836" lon="9.308824483305216">
<ele>304.6</ele>
<time>2024-05-10T09:00:59Z</time>
</trkpt>
<trkpt lat="49.52949137426913" lon="9.308788273483517">
<ele>304.6</ele>
<time>2024-05-10T09:01:00Z</time>
</trkpt>
<trkpt lat="49.52947611920536" lon="9.308751979842782">
<ele>304.6</ele>
<time>2024-05-10T09:01:01Z</time>
</trkpt>
<trkpt lat="49.52945709228515" lon="9.308712920174004">
<ele>304.6</ele>
<time>2024-05-10T09:01:02Z</time>
</trkpt>
<trkpt lat="49.529437981545925" lon="9.308678554371">
<ele>304.6</ele>
<time>2024-05-10T09:01:03Z</time>
</trkpt>
<trkpt lat="49.529418870806694" lon="9.308636644855142">
<ele>304.6</ele>
<time>2024-05-10T09:01:04Z</time>
</trkpt>
<trkpt lat="49.52940747141838" lon="9.308594651520252">
<ele>304.6</ele>
<time>2024-05-10T09:01:05Z</time>
</trkpt>
<trkpt lat="49.52939221635461" lon="9.308551736176014">
<ele>304.8</ele>
<time>2024-05-10T09:01:06Z</time>
</trkpt>
<trkpt lat="49.52937310561538" lon="9.308509826660156">
<ele>304.8</ele>
<time>2024-05-10T09:01:07Z</time>
</trkpt>
<trkpt lat="49.52935407869518" lon="9.308469761162996">
<ele>304.8</ele>
<time>2024-05-10T09:01:08Z</time>
</trkpt>
<trkpt lat="49.529338823631406" lon="9.308431623503566">
<ele>304.8</ele>
<time>2024-05-10T09:01:09Z</time>
</trkpt>
<trkpt lat="49.529319712892175" lon="9.308391558006406">
<ele>304.8</ele>
<time>2024-05-10T09:01:10Z</time>
</trkpt>
<trkpt lat="49.5293044578284" lon="9.308353420346975">
<ele>305</ele>
<time>2024-05-10T09:01:11Z</time>
</trkpt>
<trkpt lat="49.5292854309082" lon="9.308318132534623">
<ele>305.2</ele>
<time>2024-05-10T09:01:12Z</time>
</trkpt>
<trkpt lat="49.52927394770086" lon="9.308273289352655">
<ele>305.4</ele>
<time>2024-05-10T09:01:13Z</time>
</trkpt>
<trkpt lat="49.52926632016897" lon="9.308230374008415">
<ele>305.6</ele>
<time>2024-05-10T09:01:14Z</time>
</trkpt>
<trkpt lat="49.52925483696163" lon="9.308190308511255">
<ele>305.8</ele>
<time>2024-05-10T09:01:15Z</time>
</trkpt>
<trkpt lat="49.529243437573314" lon="9.308151165023446">
<ele>306</ele>
<time>2024-05-10T09:01:16Z</time>
</trkpt>
<trkpt lat="49.52923195436597" lon="9.308110177516935">
<ele>306</ele>
<time>2024-05-10T09:01:17Z</time>
</trkpt>
<trkpt lat="49.529220554977655" lon="9.30806533433497">
<ele>306.2</ele>
<time>2024-05-10T09:01:18Z</time>
</trkpt>
<trkpt lat="49.52920529991388" lon="9.308023424819112">
<ele>306.2</ele>
<time>2024-05-10T09:01:19Z</time>
</trkpt>
<trkpt lat="49.52919004485011" lon="9.30798528715968">
<ele>306.2</ele>
<time>2024-05-10T09:01:20Z</time>
</trkpt>
<trkpt lat="49.529182417318225" lon="9.30794614367187">
<ele>306.4</ele>
<time>2024-05-10T09:01:21Z</time>
</trkpt>
<trkpt lat="49.529182417318225" lon="9.307896606624126">
<ele>306.6</ele>
<time>2024-05-10T09:01:22Z</time>
</trkpt>
<trkpt lat="49.52918618917465" lon="9.307843130081892">
<ele>306.8</ele>
<time>2024-05-10T09:01:23Z</time>
</trkpt>
<trkpt lat="49.529182417318225" lon="9.307784959673882">
<ele>307</ele>
<time>2024-05-10T09:01:24Z</time>
</trkpt>
<trkpt lat="49.52917478978634" lon="9.3077287171036">
<ele>307.2</ele>
<time>2024-05-10T09:01:25Z</time>
</trkpt>
<trkpt lat="49.52917093411088" lon="9.30767146870494">
<ele>307.4</ele>
<time>2024-05-10T09:01:26Z</time>
</trkpt>
<trkpt lat="49.529163306578994" lon="9.307615226134658">
<ele>307.6</ele>
<time>2024-05-10T09:01:27Z</time>
</trkpt>
<trkpt lat="49.529163306578994" lon="9.307559905573726">
<ele>307.8</ele>
<time>2024-05-10T09:01:28Z</time>
</trkpt>
<trkpt lat="49.52915567904711" lon="9.307504585012794">
<ele>308</ele>
<time>2024-05-10T09:01:29Z</time>
</trkpt>
<trkpt lat="49.52915190719068" lon="9.30745119228959">
<ele>308.2</ele>
<time>2024-05-10T09:01:30Z</time>
</trkpt>
<trkpt lat="49.52914805151522" lon="9.30739494971931">
<ele>308.4</ele>
<time>2024-05-10T09:01:31Z</time>
</trkpt>
<trkpt lat="49.529144279658794" lon="9.307345328852534">
<ele>308.8</ele>
<time>2024-05-10T09:01:32Z</time>
</trkpt>
<trkpt lat="49.52913665212691" lon="9.30729285813868">
<ele>309</ele>
<time>2024-05-10T09:01:33Z</time>
</trkpt>
<trkpt lat="49.529121397063136" lon="9.307239465415478">
<ele>309.2</ele>
<time>2024-05-10T09:01:34Z</time>
</trkpt>
<trkpt lat="49.52910991385579" lon="9.307191772386432">
<ele>309.6</ele>
<time>2024-05-10T09:01:35Z</time>
</trkpt>
<trkpt lat="49.529098430648446" lon="9.307140307500958">
<ele>309.8</ele>
<time>2024-05-10T09:01:36Z</time>
</trkpt>
<trkpt lat="49.52908703126013" lon="9.307093620300291">
<ele>309.8</ele>
<time>2024-05-10T09:01:37Z</time>
</trkpt>
<trkpt lat="49.52907554805279" lon="9.307042993605137">
<ele>310.2</ele>
<time>2024-05-10T09:01:38Z</time>
</trkpt>
<trkpt lat="49.529064148664474" lon="9.306996306404471">
<ele>310.4</ele>
<time>2024-05-10T09:01:39Z</time>
</trkpt>
<trkpt lat="49.52904503792524" lon="9.306955318897964">
<ele>310.8</ele>
<time>2024-05-10T09:01:40Z</time>
</trkpt>
<trkpt lat="49.52903741039336" lon="9.306909553706646">
<ele>311</ele>
<time>2024-05-10T09:01:41Z</time>
</trkpt>
<trkpt lat="49.52902978286147" lon="9.3068618606776">
<ele>311.2</ele>
<time>2024-05-10T09:01:42Z</time>
</trkpt>
<trkpt lat="49.52902601100504" lon="9.306811317801476">
<ele>311.4</ele>
<time>2024-05-10T09:01:43Z</time>
</trkpt>
<trkpt lat="49.52901838347316" lon="9.30676362477243">
<ele>311.6</ele>
<time>2024-05-10T09:01:44Z</time>
</trkpt>
<trkpt lat="49.5290145277977" lon="9.306717859581113">
<ele>311.8</ele>
<time>2024-05-10T09:01:45Z</time>
</trkpt>
<trkpt lat="49.52900690026581" lon="9.306674944236876">
<ele>312</ele>
<time>2024-05-10T09:01:46Z</time>
</trkpt>
<trkpt lat="49.52899927273393" lon="9.306636806577444">
<ele>312</ele>
<time>2024-05-10T09:01:47Z</time>
</trkpt>
<trkpt lat="49.5289955008775" lon="9.306601518765092">
<ele>312.2</ele>
<time>2024-05-10T09:01:48Z</time>
</trkpt>
<trkpt lat="49.52898787334561" lon="9.30656623095274">
<ele>312.6</ele>
<time>2024-05-10T09:01:49Z</time>
</trkpt>
<trkpt lat="49.52897639013827" lon="9.306531865149736">
<ele>312.8</ele>
<time>2024-05-10T09:01:50Z</time>
</trkpt>
<trkpt lat="49.52897261828184" lon="9.30648802779615">
<ele>313.2</ele>
<time>2024-05-10T09:01:51Z</time>
</trkpt>
<trkpt lat="49.52896876260638" lon="9.306445112451913">
<ele>313.4</ele>
<time>2024-05-10T09:01:52Z</time>
</trkpt>
<trkpt lat="49.52895736321807" lon="9.306403119117022">
<ele>313.6</ele>
<time>2024-05-10T09:01:53Z</time>
</trkpt>
<trkpt lat="49.52894588001072" lon="9.306364981457593">
<ele>313.8</ele>
<time>2024-05-10T09:01:54Z</time>
</trkpt>
<trkpt lat="49.52893062494695" lon="9.30632877163589">
<ele>314</ele>
<time>2024-05-10T09:01:55Z</time>
</trkpt>
<trkpt lat="49.52891536988318" lon="9.30628870613873">
<ele>314.4</ele>
<time>2024-05-10T09:01:56Z</time>
</trkpt>
<trkpt lat="49.52890011481941" lon="9.30624671280384">
<ele>314.6</ele>
<time>2024-05-10T09:01:57Z</time>
</trkpt>
<trkpt lat="49.528884859755635" lon="9.30620857514441">
<ele>314.8</ele>
<time>2024-05-10T09:01:58Z</time>
</trkpt>
<trkpt lat="49.5288657490164" lon="9.306171359494328">
<ele>314.8</ele>
<time>2024-05-10T09:01:59Z</time>
</trkpt>
<trkpt lat="49.52885812148452" lon="9.306124672293665">
<ele>315</ele>
<time>2024-05-10T09:02:00Z</time>
</trkpt>
<trkpt lat="49.528846722096205" lon="9.306083600968122">
<ele>315.2</ele>
<time>2024-05-10T09:02:01Z</time>
</trkpt>
<trkpt lat="49.52883909456432" lon="9.306037835776806">
<ele>315.4</ele>
<time>2024-05-10T09:02:02Z</time>
</trkpt>
<trkpt lat="49.528827611356974" lon="9.306005397811532">
<ele>315.6</ele>
<time>2024-05-10T09:02:03Z</time>
</trkpt>
<trkpt lat="49.52881621196866" lon="9.305965416133404">
<ele>315.6</ele>
<time>2024-05-10T09:02:04Z</time>
</trkpt>
<trkpt lat="49.528808584436774" lon="9.305919567123055">
<ele>315.8</ele>
<time>2024-05-10T09:02:05Z</time>
</trkpt>
<trkpt lat="49.528793329373" lon="9.30587480776012">
<ele>315.6</ele>
<time>2024-05-10T09:02:06Z</time>
</trkpt>
<trkpt lat="49.52877421863377" lon="9.30583474226296">
<ele>315.6</ele>
<time>2024-05-10T09:02:07Z</time>
</trkpt>
<trkpt lat="49.52875133603811" lon="9.305796604603527">
<ele>315.8</ele>
<time>2024-05-10T09:02:08Z</time>
</trkpt>
<trkpt lat="49.528728453442454" lon="9.30575176142156">
<ele>315.8</ele>
<time>2024-05-10T09:02:09Z</time>
</trkpt>
<trkpt lat="49.52871319837868" lon="9.305706918239594">
<ele>316</ele>
<time>2024-05-10T09:02:10Z</time>
</trkpt>
<trkpt lat="49.52869408763945" lon="9.305666852742434">
<ele>316.2</ele>
<time>2024-05-10T09:02:11Z</time>
</trkpt>
<trkpt lat="49.52867506071925" lon="9.30563156493008">
<ele>316.4</ele>
<time>2024-05-10T09:02:12Z</time>
</trkpt>
<trkpt lat="49.52865980565548" lon="9.30559342727065">
<ele>316.6</ele>
<time>2024-05-10T09:02:13Z</time>
</trkpt>
<trkpt lat="49.528648322448134" lon="9.305546740069984">
<ele>316.8</ele>
<time>2024-05-10T09:02:14Z</time>
</trkpt>
<trkpt lat="49.52863692305982" lon="9.305501896888018">
<ele>317</ele>
<time>2024-05-10T09:02:15Z</time>
</trkpt>
<trkpt lat="49.52862166799605" lon="9.30545805953443">
<ele>317</ele>
<time>2024-05-10T09:02:16Z</time>
</trkpt>
<trkpt lat="49.52860641293228" lon="9.30541799403727">
<ele>317.2</ele>
<time>2024-05-10T09:02:17Z</time>
</trkpt>
<trkpt lat="49.52859492972493" lon="9.305381700396538">
<ele>317.2</ele>
<time>2024-05-10T09:02:18Z</time>
</trkpt>
<trkpt lat="49.52858344651759" lon="9.305344568565488">
<ele>317.4</ele>
<time>2024-05-10T09:02:19Z</time>
</trkpt>
<trkpt lat="49.5285758189857" lon="9.305308274924757">
<ele>317.6</ele>
<time>2024-05-10T09:02:20Z</time>
</trkpt>
<trkpt lat="49.52856441959739" lon="9.305272987112405">
<ele>317.8</ele>
<time>2024-05-10T09:02:21Z</time>
</trkpt>
<trkpt lat="49.52855293639004" lon="9.305238705128431">
<ele>318</ele>
<time>2024-05-10T09:02:22Z</time>
</trkpt>
<trkpt lat="49.52853768132627" lon="9.30520148947835">
<ele>318.2</ele>
<time>2024-05-10T09:02:23Z</time>
</trkpt>
<trkpt lat="49.52851865440607" lon="9.305165279656649">
<ele>318.4</ele>
<time>2024-05-10T09:02:24Z</time>
</trkpt>
<trkpt lat="49.5285033993423" lon="9.305128064006569">
<ele>318.6</ele>
<time>2024-05-10T09:02:25Z</time>
</trkpt>
<trkpt lat="49.528488144278526" lon="9.305091854184866">
<ele>318.8</ele>
<time>2024-05-10T09:02:26Z</time>
</trkpt>
<trkpt lat="49.528472889214754" lon="9.305049860849977">
<ele>319</ele>
<time>2024-05-10T09:02:27Z</time>
</trkpt>
<trkpt lat="49.52845763415098" lon="9.305013651028275">
<ele>319.2</ele>
<time>2024-05-10T09:02:28Z</time>
</trkpt>
<trkpt lat="49.52843852341175" lon="9.304973585531116">
<ele>319.4</ele>
<time>2024-05-10T09:02:29Z</time>
</trkpt>
<trkpt lat="49.52841941267252" lon="9.304933520033956">
<ele>319.6</ele>
<time>2024-05-10T09:02:30Z</time>
</trkpt>
<trkpt lat="49.52840038575232" lon="9.304895382374523">
<ele>319.8</ele>
<time>2024-05-10T09:02:31Z</time>
</trkpt>
<trkpt lat="49.52838513068855" lon="9.304853389039636">
<ele>320</ele>
<time>2024-05-10T09:02:32Z</time>
</trkpt>
<trkpt lat="49.52836601994932" lon="9.30480670183897">
<ele>320</ele>
<time>2024-05-10T09:02:33Z</time>
</trkpt>
<trkpt lat="49.52834699302912" lon="9.304759930819271">
<ele>320</ele>
<time>2024-05-10T09:02:34Z</time>
</trkpt>
<trkpt lat="49.52832788228989" lon="9.304717015475036">
<ele>320</ele>
<time>2024-05-10T09:02:35Z</time>
</trkpt>
<trkpt lat="49.52830499969423" lon="9.304677955806255">
<ele>320</ele>
<time>2024-05-10T09:02:36Z</time>
</trkpt>
<trkpt lat="49.52828597277403" lon="9.304639734327791">
<ele>320.2</ele>
<time>2024-05-10T09:02:37Z</time>
</trkpt>
<trkpt lat="49.52825923450291" lon="9.304599752649665">
<ele>320.2</ele>
<time>2024-05-10T09:02:38Z</time>
</trkpt>
<trkpt lat="49.52823635190725" lon="9.304561614990234">
<ele>320.2</ele>
<time>2024-05-10T09:02:39Z</time>
</trkpt>
<trkpt lat="49.528213469311595" lon="9.304523393511772">
<ele>320.2</ele>
<time>2024-05-10T09:02:40Z</time>
</trkpt>
<trkpt lat="49.52819058671594" lon="9.304483411833644">
<ele>320.4</ele>
<time>2024-05-10T09:02:41Z</time>
</trkpt>
<trkpt lat="49.52816007658839" lon="9.304441418498756">
<ele>320.6</ele>
<time>2024-05-10T09:02:42Z</time>
</trkpt>
<trkpt lat="49.528133338317275" lon="9.304400430992246">
<ele>320.6</ele>
<time>2024-05-10T09:02:43Z</time>
</trkpt>
<trkpt lat="49.52810282818973" lon="9.304360365495086">
<ele>320.8</ele>
<time>2024-05-10T09:02:44Z</time>
</trkpt>
<trkpt lat="49.52807994559407" lon="9.304320299997926">
<ele>321</ele>
<time>2024-05-10T09:02:45Z</time>
</trkpt>
<trkpt lat="49.528053207322955" lon="9.304281156510116">
<ele>321</ele>
<time>2024-05-10T09:02:46Z</time>
</trkpt>
<trkpt lat="49.52802655287087" lon="9.304240169003606">
<ele>320.8</ele>
<time>2024-05-10T09:02:47Z</time>
</trkpt>
<trkpt lat="49.527996042743325" lon="9.304198259487748">
<ele>321</ele>
<time>2024-05-10T09:02:48Z</time>
</trkpt>
<trkpt lat="49.52796553261578" lon="9.304158193990588">
<ele>321</ele>
<time>2024-05-10T09:02:49Z</time>
</trkpt>
<trkpt lat="49.52793502248824" lon="9.3041162006557">
<ele>321</ele>
<time>2024-05-10T09:02:50Z</time>
</trkpt>
<trkpt lat="49.52790828421712" lon="9.304078062996268">
<ele>321.2</ele>
<time>2024-05-10T09:02:51Z</time>
</trkpt>
<trkpt lat="49.527877774089575" lon="9.304037997499108">
<ele>321.2</ele>
<time>2024-05-10T09:02:52Z</time>
</trkpt>
<trkpt lat="49.52784726396203" lon="9.303997932001948">
<ele>321.2</ele>
<time>2024-05-10T09:02:53Z</time>
</trkpt>
<trkpt lat="49.527816753834486" lon="9.30395694449544">
<ele>321.4</ele>
<time>2024-05-10T09:02:54Z</time>
</trkpt>
<trkpt lat="49.52779001556337" lon="9.303919728845358">
<ele>321.6</ele>
<time>2024-05-10T09:02:55Z</time>
</trkpt>
<trkpt lat="49.5277557335794" lon="9.303883519023657">
<ele>321.6</ele>
<time>2024-05-10T09:02:56Z</time>
</trkpt>
<trkpt lat="49.52772513963282" lon="9.303848231211305">
<ele>321.8</ele>
<time>2024-05-10T09:02:57Z</time>
</trkpt>
<trkpt lat="49.52769462950528" lon="9.303814871236682">
<ele>321.8</ele>
<time>2024-05-10T09:02:58Z</time>
</trkpt>
<trkpt lat="49.527660347521305" lon="9.30377857759595">
<ele>321.8</ele>
<time>2024-05-10T09:02:59Z</time>
</trkpt>
<trkpt lat="49.52762983739376" lon="9.30373851209879">
<ele>321.8</ele>
<time>2024-05-10T09:03:00Z</time>
</trkpt>
<trkpt lat="49.52759547159076" lon="9.30370138026774">
<ele>321.8</ele>
<time>2024-05-10T09:03:01Z</time>
</trkpt>
<trkpt lat="49.52755733393133" lon="9.30366039276123">
<ele>321.8</ele>
<time>2024-05-10T09:03:02Z</time>
</trkpt>
<trkpt lat="49.52751534059644" lon="9.303623177111149">
<ele>321.8</ele>
<time>2024-05-10T09:03:03Z</time>
</trkpt>
<trkpt lat="49.52747720293701" lon="9.303591661155224">
<ele>321.8</ele>
<time>2024-05-10T09:03:04Z</time>
</trkpt>
<trkpt lat="49.527439065277576" lon="9.303553523495792">
<ele>321.8</ele>
<time>2024-05-10T09:03:05Z</time>
</trkpt>
<trkpt lat="49.527400927618146" lon="9.303509686142206">
<ele>321.8</ele>
<time>2024-05-10T09:03:06Z</time>
</trkpt>
<trkpt lat="49.52736656181514" lon="9.30346006527543">
<ele>321.8</ele>
<time>2024-05-10T09:03:07Z</time>
</trkpt>
<trkpt lat="49.527324652299285" lon="9.303406672552228">
<ele>321.8</ele>
<time>2024-05-10T09:03:08Z</time>
</trkpt>
<trkpt lat="49.527286514639854" lon="9.303351351991296">
<ele>321.6</ele>
<time>2024-05-10T09:03:09Z</time>
</trkpt>
<trkpt lat="49.52725214883685" lon="9.303297959268091">
<ele>321.4</ele>
<time>2024-05-10T09:03:10Z</time>
</trkpt>
<trkpt lat="49.52721778303385" lon="9.303237861022351">
<ele>321.4</ele>
<time>2024-05-10T09:03:11Z</time>
</trkpt>
<trkpt lat="49.52718350104987" lon="9.303179690614344">
<ele>321.2</ele>
<time>2024-05-10T09:03:12Z</time>
</trkpt>
<trkpt lat="49.527145363390446" lon="9.30312629789114">
<ele>321</ele>
<time>2024-05-10T09:03:13Z</time>
</trkpt>
<trkpt lat="49.52711099758744" lon="9.303071899339557">
<ele>321</ele>
<time>2024-05-10T09:03:14Z</time>
</trkpt>
<trkpt lat="49.52707671560347" lon="9.303012806922196">
<ele>320.8</ele>
<time>2024-05-10T09:03:15Z</time>
</trkpt>
<trkpt lat="49.52704234980047" lon="9.302956564351916">
<ele>320.6</ele>
<time>2024-05-10T09:03:16Z</time>
</trkpt>
<trkpt lat="49.527007983997464" lon="9.302901243790984">
<ele>320.6</ele>
<time>2024-05-10T09:03:17Z</time>
</trkpt>
<trkpt lat="49.52697747386992" lon="9.302856400609016">
<ele>320.4</ele>
<time>2024-05-10T09:03:18Z</time>
</trkpt>
<trkpt lat="49.526946963742375" lon="9.302813485264778">
<ele>320.4</ele>
<time>2024-05-10T09:03:19Z</time>
</trkpt>
<trkpt lat="49.52692408114672" lon="9.302762020379305">
<ele>320.4</ele>
<time>2024-05-10T09:03:20Z</time>
</trkpt>
<trkpt lat="49.52690505422652" lon="9.302704771980643">
<ele>320.6</ele>
<time>2024-05-10T09:03:21Z</time>
</trkpt>
<trkpt lat="49.5268783159554" lon="9.30265137925744">
<ele>320.6</ele>
<time>2024-05-10T09:03:22Z</time>
</trkpt>
<trkpt lat="49.52685157768428" lon="9.302601758390663">
<ele>320.6</ele>
<time>2024-05-10T09:03:23Z</time>
</trkpt>
<trkpt lat="49.526828695088625" lon="9.302559848874807">
<ele>320.8</ele>
<time>2024-05-10T09:03:24Z</time>
</trkpt>
<trkpt lat="49.526809668168426" lon="9.30251500569284">
<ele>320.8</ele>
<time>2024-05-10T09:03:25Z</time>
</trkpt>
<trkpt lat="49.52678678557277" lon="9.30247301235795">
<ele>321</ele>
<time>2024-05-10T09:03:26Z</time>
</trkpt>
<trkpt lat="49.526771530508995" lon="9.30243294686079">
<ele>321</ele>
<time>2024-05-10T09:03:27Z</time>
</trkpt>
<trkpt lat="49.52674479223788" lon="9.30239866487682">
<ele>321</ele>
<time>2024-05-10T09:03:28Z</time>
</trkpt>
<trkpt lat="49.52672576531768" lon="9.302368154749274">
<ele>321</ele>
<time>2024-05-10T09:03:29Z</time>
</trkpt>
<trkpt lat="49.52670665457845" lon="9.30233186110854">
<ele>321.2</ele>
<time>2024-05-10T09:03:30Z</time>
</trkpt>
<trkpt lat="49.5266951713711" lon="9.302291795611382">
<ele>321.2</ele>
<time>2024-05-10T09:03:31Z</time>
</trkpt>
<trkpt lat="49.52667991630733" lon="9.302247958257794">
<ele>321.4</ele>
<time>2024-05-10T09:03:32Z</time>
</trkpt>
<trkpt lat="49.52666466124356" lon="9.302209820598364">
<ele>321.4</ele>
<time>2024-05-10T09:03:33Z</time>
</trkpt>
<trkpt lat="49.5266417786479" lon="9.302189787849784">
<ele>321.8</ele>
<time>2024-05-10T09:03:34Z</time>
</trkpt>
<trkpt lat="49.526630379259586" lon="9.30215642787516">
<ele>322</ele>
<time>2024-05-10T09:03:35Z</time>
</trkpt>
<trkpt lat="49.526615124195814" lon="9.302123067900538">
<ele>322.2</ele>
<time>2024-05-10T09:03:36Z</time>
</trkpt>
<trkpt lat="49.52659601345658" lon="9.302083002403378">
<ele>322.4</ele>
<time>2024-05-10T09:03:37Z</time>
</trkpt>
<trkpt lat="49.526573130860925" lon="9.302048636600375">
<ele>322.4</ele>
<time>2024-05-10T09:03:38Z</time>
</trkpt>
<trkpt lat="49.52654647640884" lon="9.302009576931596">
<ele>322.6</ele>
<time>2024-05-10T09:03:39Z</time>
</trkpt>
<trkpt lat="49.52652350999415" lon="9.301971355453134">
<ele>322.6</ele>
<time>2024-05-10T09:03:40Z</time>
</trkpt>
<trkpt lat="49.526496855542064" lon="9.301928440108895">
<ele>322.6</ele>
<time>2024-05-10T09:03:41Z</time>
</trkpt>
<trkpt lat="49.52647011727095" lon="9.301891308277844">
<ele>322.6</ele>
<time>2024-05-10T09:03:42Z</time>
</trkpt>
<trkpt lat="49.52644346281886" lon="9.301853170618417">
<ele>322.6</ele>
<time>2024-05-10T09:03:43Z</time>
</trkpt>
<trkpt lat="49.52640909701586" lon="9.30182165466249">
<ele>322.6</ele>
<time>2024-05-10T09:03:44Z</time>
</trkpt>
<trkpt lat="49.526374815031886" lon="9.301788294687867">
<ele>322.6</ele>
<time>2024-05-10T09:03:45Z</time>
</trkpt>
<trkpt lat="49.52634807676077" lon="9.301753006875517">
<ele>322.4</ele>
<time>2024-05-10T09:03:46Z</time>
</trkpt>
<trkpt lat="49.52632133848965" lon="9.301719646900892">
<ele>322.4</ele>
<time>2024-05-10T09:03:47Z</time>
</trkpt>
<trkpt lat="49.52630608342588" lon="9.30168335326016">
<ele>322.4</ele>
<time>2024-05-10T09:03:48Z</time>
</trkpt>
<trkpt lat="49.52628320083022" lon="9.301649993285537">
<ele>322.4</ele>
<time>2024-05-10T09:03:49Z</time>
</trkpt>
<trkpt lat="49.52626031823456" lon="9.301616633310914">
<ele>322.4</ele>
<time>2024-05-10T09:03:50Z</time>
</trkpt>
<trkpt lat="49.52623366378248" lon="9.30158704519272">
<ele>322.6</ele>
<time>2024-05-10T09:03:51Z</time>
</trkpt>
<trkpt lat="49.52621078118682" lon="9.301560390740631">
<ele>322.8</ele>
<time>2024-05-10T09:03:52Z</time>
</trkpt>
<trkpt lat="49.52618781477213" lon="9.301534574478865">
<ele>323</ele>
<time>2024-05-10T09:03:53Z</time>
</trkpt>
<trkpt lat="49.52617255970836" lon="9.30150792002678">
<ele>323</ele>
<time>2024-05-10T09:03:54Z</time>
</trkpt>
<trkpt lat="49.52616116032005" lon="9.301478331908584">
<ele>323.2</ele>
<time>2024-05-10T09:03:55Z</time>
</trkpt>
<trkpt lat="49.5261496771127" lon="9.301456371322274">
<ele>323.4</ele>
<time>2024-05-10T09:03:56Z</time>
</trkpt>
<trkpt lat="49.52614204958081" lon="9.30142879486084">
<ele>323.4</ele>
<time>2024-05-10T09:03:57Z</time>
</trkpt>
<trkpt lat="49.5261306501925" lon="9.301402978599072">
<ele>323.6</ele>
<time>2024-05-10T09:03:58Z</time>
</trkpt>
<trkpt lat="49.52611539512873" lon="9.301376324146986">
<ele>323.6</ele>
<time>2024-05-10T09:03:59Z</time>
</trkpt>
<trkpt lat="49.52610776759684" lon="9.301361991092564">
<ele>323.8</ele>
<time>2024-05-10T09:04:00Z</time>
</trkpt>
<trkpt lat="49.52608865685761" lon="9.30132670328021">
<ele>323.8</ele>
<time>2024-05-10T09:04:01Z</time>
</trkpt>
<trkpt lat="49.52607340179384" lon="9.301298120990396">
<ele>324</ele>
<time>2024-05-10T09:04:02Z</time>
</trkpt>
<trkpt lat="49.52605051919818" lon="9.301269454881549">
<ele>324</ele>
<time>2024-05-10T09:04:03Z</time>
</trkpt>
<trkpt lat="49.52603526413441" lon="9.30124657228589">
<ele>324.2</ele>
<time>2024-05-10T09:04:04Z</time>
</trkpt>
<trkpt lat="49.52602763660252" lon="9.301219917833803">
<ele>324.4</ele>
<time>2024-05-10T09:04:05Z</time>
</trkpt>
<trkpt lat="49.526020009070635" lon="9.301186557859182">
<ele>324.4</ele>
<time>2024-05-10T09:04:06Z</time>
</trkpt>
<trkpt lat="49.52600852586329" lon="9.301153114065528">
<ele>324.8</ele>
<time>2024-05-10T09:04:07Z</time>
</trkpt>
<trkpt lat="49.52600089833141" lon="9.301114976406096">
<ele>325</ele>
<time>2024-05-10T09:04:08Z</time>
</trkpt>
<trkpt lat="49.52598949894309" lon="9.301076838746669">
<ele>325.2</ele>
<time>2024-05-10T09:04:09Z</time>
</trkpt>
<trkpt lat="49.52597038820386" lon="9.301038701087236">
<ele>325.2</ele>
<time>2024-05-10T09:04:10Z</time>
</trkpt>
<trkpt lat="49.52595513314009" lon="9.300998635590076">
<ele>325.4</ele>
<time>2024-05-10T09:04:11Z</time>
</trkpt>
<trkpt lat="49.525939878076315" lon="9.300958570092916">
<ele>325.6</ele>
<time>2024-05-10T09:04:12Z</time>
</trkpt>
<trkpt lat="49.525928478688" lon="9.300920432433486">
<ele>325.8</ele>
<time>2024-05-10T09:04:13Z</time>
</trkpt>
<trkpt lat="49.52591322362423" lon="9.300878522917628">
<ele>326</ele>
<time>2024-05-10T09:04:14Z</time>
</trkpt>
<trkpt lat="49.52589796856046" lon="9.30083460174501">
<ele>326.2</ele>
<time>2024-05-10T09:04:15Z</time>
</trkpt>
<trkpt lat="49.525878857821226" lon="9.300791686400771">
<ele>326.4</ele>
<time>2024-05-10T09:04:16Z</time>
</trkpt>
<trkpt lat="49.525863602757454" lon="9.30075447075069">
<ele>326.6</ele>
<time>2024-05-10T09:04:17Z</time>
</trkpt>
<trkpt lat="49.52584072016179" lon="9.300720188766718">
<ele>326.8</ele>
<time>2024-05-10T09:04:18Z</time>
</trkpt>
<trkpt lat="49.52581783756614" lon="9.300684900954366">
<ele>327.2</ele>
<time>2024-05-10T09:04:19Z</time>
</trkpt>
<trkpt lat="49.525798726826906" lon="9.300648607313631">
<ele>327.4</ele>
<time>2024-05-10T09:04:20Z</time>
</trkpt>
<trkpt lat="49.52577584423125" lon="9.300609547644854">
<ele>327.6</ele>
<time>2024-05-10T09:04:21Z</time>
</trkpt>
<trkpt lat="49.52575681731105" lon="9.30057618767023">
<ele>327.8</ele>
<time>2024-05-10T09:04:22Z</time>
</trkpt>
<trkpt lat="49.52573007903993" lon="9.300539894029498">
<ele>328</ele>
<time>2024-05-10T09:04:23Z</time>
</trkpt>
<trkpt lat="49.52570719644427" lon="9.300503684207795">
<ele>328.2</ele>
<time>2024-05-10T09:04:24Z</time>
</trkpt>
<trkpt lat="49.52568054199219" lon="9.300466468557715">
<ele>328.2</ele>
<time>2024-05-10T09:04:25Z</time>
</trkpt>
<trkpt lat="49.5256575755775" lon="9.300430258736014">
<ele>328.4</ele>
<time>2024-05-10T09:04:26Z</time>
</trkpt>
<trkpt lat="49.52563469298184" lon="9.300394970923662">
<ele>328.4</ele>
<time>2024-05-10T09:04:27Z</time>
</trkpt>
<trkpt lat="49.52561181038618" lon="9.30035876110196">
<ele>328.6</ele>
<time>2024-05-10T09:04:28Z</time>
</trkpt>
<trkpt lat="49.52558892779052" lon="9.300325317308308">
<ele>328.8</ele>
<time>2024-05-10T09:04:29Z</time>
</trkpt>
<trkpt lat="49.525566045194864" lon="9.300288185477257">
<ele>328.8</ele>
<time>2024-05-10T09:04:30Z</time>
</trkpt>
<trkpt lat="49.525543162599206" lon="9.300256669521332">
<ele>329</ele>
<time>2024-05-10T09:04:31Z</time>
</trkpt>
<trkpt lat="49.52552028000355" lon="9.300228087231517">
<ele>328.8</ele>
<time>2024-05-10T09:04:32Z</time>
</trkpt>
<trkpt lat="49.525505024939775" lon="9.300193721428514">
<ele>329</ele>
<time>2024-05-10T09:04:33Z</time>
</trkpt>
<trkpt lat="49.52547828666866" lon="9.300156589597464">
<ele>329</ele>
<time>2024-05-10T09:04:34Z</time>
</trkpt>
<trkpt lat="49.525447776541114" lon="9.300113674253224">
<ele>329.2</ele>
<time>2024-05-10T09:04:35Z</time>
</trkpt>
<trkpt lat="49.52541726641357" lon="9.3000649753958">
<ele>329.2</ele>
<time>2024-05-10T09:04:36Z</time>
</trkpt>
<trkpt lat="49.52539061196149" lon="9.300020216032864">
<ele>329.4</ele>
<time>2024-05-10T09:04:37Z</time>
</trkpt>
<trkpt lat="49.52536387369037" lon="9.299973445013164">
<ele>329.2</ele>
<time>2024-05-10T09:04:38Z</time>
</trkpt>
<trkpt lat="49.52533336356282" lon="9.299929607659578">
<ele>329.2</ele>
<time>2024-05-10T09:04:39Z</time>
</trkpt>
<trkpt lat="49.525306625291705" lon="9.299879986792805">
<ele>329</ele>
<time>2024-05-10T09:04:40Z</time>
</trkpt>
<trkpt lat="49.52527234330773" lon="9.299831371754408">
<ele>329</ele>
<time>2024-05-10T09:04:41Z</time>
</trkpt>
<trkpt lat="49.52523797750473" lon="9.299781750887632">
<ele>329</ele>
<time>2024-05-10T09:04:42Z</time>
</trkpt>
<trkpt lat="49.525207467377186" lon="9.299733135849236">
<ele>329</ele>
<time>2024-05-10T09:04:43Z</time>
</trkpt>
<trkpt lat="49.52517695724964" lon="9.299690220505">
<ele>329</ele>
<time>2024-05-10T09:04:44Z</time>
</trkpt>
<trkpt lat="49.52514259144664" lon="9.29965015500784">
<ele>328.8</ele>
<time>2024-05-10T09:04:45Z</time>
</trkpt>
<trkpt lat="49.52511970885098" lon="9.299612939357758">
<ele>328.8</ele>
<time>2024-05-10T09:04:46Z</time>
</trkpt>
<trkpt lat="49.525093054398894" lon="9.299581507220864">
<ele>328.8</ele>
<time>2024-05-10T09:04:47Z</time>
</trkpt>
<trkpt lat="49.52507017180323" lon="9.299554768949749">
<ele>328.8</ele>
<time>2024-05-10T09:04:48Z</time>
</trkpt>
<trkpt lat="49.525054916739464" lon="9.299528114497662">
<ele>328.8</ele>
<time>2024-05-10T09:04:49Z</time>
</trkpt>
<trkpt lat="49.52503580600023" lon="9.299499448388817">
<ele>328.8</ele>
<time>2024-05-10T09:04:50Z</time>
</trkpt>
<trkpt lat="49.525012923404574" lon="9.299469944089653">
<ele>329</ele>
<time>2024-05-10T09:04:51Z</time>
</trkpt>
<trkpt lat="49.52499004080891" lon="9.299433650448918">
<ele>329</ele>
<time>2024-05-10T09:04:52Z</time>
</trkpt>
<trkpt lat="49.524970930069685" lon="9.299396434798837">
<ele>329</ele>
<time>2024-05-10T09:04:53Z</time>
</trkpt>
<trkpt lat="49.5249442756176" lon="9.299356453120708">
<ele>329</ele>
<time>2024-05-10T09:04:54Z</time>
</trkpt>
<trkpt lat="49.52492139302194" lon="9.299320159479976">
<ele>329</ele>
<time>2024-05-10T09:04:55Z</time>
</trkpt>
<trkpt lat="49.52489851042628" lon="9.299276322126389">
<ele>329.2</ele>
<time>2024-05-10T09:04:56Z</time>
</trkpt>
<trkpt lat="49.524875627830625" lon="9.29923533461988">
<ele>329.2</ele>
<time>2024-05-10T09:04:57Z</time>
</trkpt>
<trkpt lat="49.524852745234966" lon="9.29919334128499">
<ele>329.4</ele>
<time>2024-05-10T09:04:58Z</time>
</trkpt>
<trkpt lat="49.52482986263931" lon="9.29915520362556">
<ele>329.4</ele>
<time>2024-05-10T09:04:59Z</time>
</trkpt>
<trkpt lat="49.52479926869273" lon="9.299117987975478">
<ele>329.6</ele>
<time>2024-05-10T09:05:00Z</time>
</trkpt>
<trkpt lat="49.524772614240646" lon="9.299081778153775">
<ele>329.6</ele>
<time>2024-05-10T09:05:01Z</time>
</trkpt>
<trkpt lat="49.5247421041131" lon="9.299044562503695">
<ele>329.8</ele>
<time>2024-05-10T09:05:02Z</time>
</trkpt>
<trkpt lat="49.524715365841985" lon="9.299013130366802">
<ele>329.8</ele>
<time>2024-05-10T09:05:03Z</time>
</trkpt>
<trkpt lat="49.5246887113899" lon="9.298984464257956">
<ele>330</ele>
<time>2024-05-10T09:05:04Z</time>
</trkpt>
<trkpt lat="49.52466960065067" lon="9.298953032121062">
<ele>330</ele>
<time>2024-05-10T09:05:05Z</time>
</trkpt>
<trkpt lat="49.52463909052312" lon="9.298925371840596">
<ele>330.2</ele>
<time>2024-05-10T09:05:06Z</time>
</trkpt>
<trkpt lat="49.52460858039558" lon="9.29889963939786">
<ele>330.2</ele>
<time>2024-05-10T09:05:07Z</time>
</trkpt>
<trkpt lat="49.52458569779992" lon="9.2988786008209">
<ele>330.4</ele>
<time>2024-05-10T09:05:08Z</time>
</trkpt>
<trkpt lat="49.52456658706069" lon="9.298863345757129">
<ele>330.4</ele>
<time>2024-05-10T09:05:09Z</time>
</trkpt>
<trkpt lat="49.52455133199692" lon="9.298851946368814">
<ele>330.2</ele>
<time>2024-05-10T09:05:10Z</time>
</trkpt>
<trkpt lat="49.524536076933146" lon="9.29883853532374">
<ele>330.2</ele>
<time>2024-05-10T09:05:11Z</time>
</trkpt>
<trkpt lat="49.524517050012946" lon="9.298825208097696">
<ele>330.2</ele>
<time>2024-05-10T09:05:12Z</time>
</trkpt>
<trkpt lat="49.524501794949174" lon="9.298805175349116">
<ele>330.2</ele>
<time>2024-05-10T09:05:13Z</time>
</trkpt>
<trkpt lat="49.52448268420994" lon="9.29878137074411">
<ele>330.2</ele>
<time>2024-05-10T09:05:14Z</time>
</trkpt>
<trkpt lat="49.52446742914617" lon="9.29876133799553">
<ele>330</ele>
<time>2024-05-10T09:05:15Z</time>
</trkpt>
<trkpt lat="49.52444454655051" lon="9.298745077103376">
<ele>330</ele>
<time>2024-05-10T09:05:16Z</time>
</trkpt>
<trkpt lat="49.524421663954854" lon="9.298731749877334">
<ele>330</ele>
<time>2024-05-10T09:05:17Z</time>
</trkpt>
<trkpt lat="49.52440640889108" lon="9.2987232003361">
<ele>330</ele>
<time>2024-05-10T09:05:18Z</time>
</trkpt>
<trkpt lat="49.52439492568374" lon="9.298714566975832">
<ele>329.8</ele>
<time>2024-05-10T09:05:19Z</time>
</trkpt>
<trkpt lat="49.524379670619965" lon="9.29870316758752">
<ele>329.8</ele>
<time>2024-05-10T09:05:20Z</time>
</trkpt>
<trkpt lat="49.52436441555619" lon="9.298691684380174">
<ele>329.6</ele>
<time>2024-05-10T09:05:21Z</time>
</trkpt>
<trkpt lat="49.52434916049242" lon="9.29868028499186">
<ele>329.4</ele>
<time>2024-05-10T09:05:22Z</time>
</trkpt>
<trkpt lat="49.52433390542865" lon="9.298666873946786">
<ele>329.2</ele>
<time>2024-05-10T09:05:23Z</time>
</trkpt>
<trkpt lat="49.52432627789676" lon="9.298651618883014">
<ele>329.2</ele>
<time>2024-05-10T09:05:24Z</time>
</trkpt>
<trkpt lat="49.52431487850845" lon="9.298629742115736">
<ele>329</ele>
<time>2024-05-10T09:05:25Z</time>
</trkpt>
<trkpt lat="49.52430725097656" lon="9.298609709367156">
<ele>328.8</ele>
<time>2024-05-10T09:05:26Z</time>
</trkpt>
<trkpt lat="49.524299539625645" lon="9.298586826771498">
<ele>328.8</ele>
<time>2024-05-10T09:05:27Z</time>
</trkpt>
<trkpt lat="49.52429576776922" lon="9.29856201633811">
<ele>328.6</ele>
<time>2024-05-10T09:05:28Z</time>
</trkpt>
<trkpt lat="49.52429576776922" lon="9.298538127914073">
<ele>328.6</ele>
<time>2024-05-10T09:05:29Z</time>
</trkpt>
<trkpt lat="49.524299539625645" lon="9.298516251146792">
<ele>328.6</ele>
<time>2024-05-10T09:05:30Z</time>
</trkpt>
<trkpt lat="49.524303395301104" lon="9.298491440713406">
<ele>328.4</ele>
<time>2024-05-10T09:05:31Z</time>
</trkpt>
<trkpt lat="49.524303395301104" lon="9.29846378043294">
<ele>328.4</ele>
<time>2024-05-10T09:05:32Z</time>
</trkpt>
<trkpt lat="49.52430725097656" lon="9.298437042161822">
<ele>328.4</ele>
<time>2024-05-10T09:05:33Z</time>
</trkpt>
<trkpt lat="49.52431102283299" lon="9.298410387709737">
<ele>328.4</ele>
<time>2024-05-10T09:05:34Z</time>
</trkpt>
<trkpt lat="49.52431102283299" lon="9.298381805419922">
<ele>328.4</ele>
<time>2024-05-10T09:05:35Z</time>
</trkpt>
<trkpt lat="49.52431102283299" lon="9.298357916995885">
<ele>328.4</ele>
<time>2024-05-10T09:05:36Z</time>
</trkpt>
<trkpt lat="49.52431487850845" lon="9.298337884247305">
<ele>328.4</ele>
<time>2024-05-10T09:05:37Z</time>
</trkpt>
<trkpt lat="49.52431487850845" lon="9.298315001651645">
<ele>328.6</ele>
<time>2024-05-10T09:05:38Z</time>
</trkpt>
<trkpt lat="49.52431487850845" lon="9.298293041065335">
<ele>328.6</ele>
<time>2024-05-10T09:05:39Z</time>
</trkpt>
<trkpt lat="49.52431487850845" lon="9.298270158469675">
<ele>328.6</ele>
<time>2024-05-10T09:05:40Z</time>
</trkpt>
<trkpt lat="49.52431487850845" lon="9.29824635386467">
<ele>328.8</ele>
<time>2024-05-10T09:05:41Z</time>
</trkpt>
<trkpt lat="49.52431102283299" lon="9.298221543431282">
<ele>328.8</ele>
<time>2024-05-10T09:05:42Z</time>
</trkpt>
<trkpt lat="49.52431102283299" lon="9.298198660835624">
<ele>329</ele>
<time>2024-05-10T09:05:43Z</time>
</trkpt>
<trkpt lat="49.52430725097656" lon="9.298176700249314">
<ele>329.2</ele>
<time>2024-05-10T09:05:44Z</time>
</trkpt>
<trkpt lat="49.524303395301104" lon="9.298159517347813">
<ele>329.4</ele>
<time>2024-05-10T09:05:45Z</time>
</trkpt>
<trkpt lat="49.524303395301104" lon="9.298139568418264">
<ele>329.6</ele>
<time>2024-05-10T09:05:46Z</time>
</trkpt>
<trkpt lat="49.524303395301104" lon="9.298121379688382">
<ele>329.8</ele>
<time>2024-05-10T09:05:47Z</time>
</trkpt>
<trkpt lat="49.524299539625645" lon="9.298103274777532">
<ele>330</ele>
<time>2024-05-10T09:05:48Z</time>
</trkpt>
<trkpt lat="49.524299539625645" lon="9.298083242028952">
<ele>330.2</ele>
<time>2024-05-10T09:05:49Z</time>
</trkpt>
<trkpt lat="49.524299539625645" lon="9.298061365261674">
<ele>330.4</ele>
<time>2024-05-10T09:05:50Z</time>
</trkpt>
<trkpt lat="49.52429576776922" lon="9.298038482666016">
<ele>330.4</ele>
<time>2024-05-10T09:05:51Z</time>
</trkpt>
<trkpt lat="49.52429576776922" lon="9.298016522079706">
<ele>330.6</ele>
<time>2024-05-10T09:05:52Z</time>
</trkpt>
<trkpt lat="49.52429576776922" lon="9.297993639484048">
<ele>330.6</ele>
<time>2024-05-10T09:05:53Z</time>
</trkpt>
<trkpt lat="49.52429576776922" lon="9.297969751060007">
<ele>330.8</ele>
<time>2024-05-10T09:05:54Z</time>
</trkpt>
<trkpt lat="49.52429191209376" lon="9.29794686846435">
<ele>330.8</ele>
<time>2024-05-10T09:05:55Z</time>
</trkpt>
<trkpt lat="49.52428814023733" lon="9.297924991697071">
<ele>330.8</ele>
<time>2024-05-10T09:05:56Z</time>
</trkpt>
<trkpt lat="49.52428814023733" lon="9.297900181263683">
<ele>331</ele>
<time>2024-05-10T09:05:57Z</time>
</trkpt>
<trkpt lat="49.52428814023733" lon="9.297880148515103">
<ele>331</ele>
<time>2024-05-10T09:05:58Z</time>
</trkpt>
<trkpt lat="49.52428428456187" lon="9.297856260091066">
<ele>331</ele>
<time>2024-05-10T09:05:59Z</time>
</trkpt>
<trkpt lat="49.524280512705445" lon="9.297833377495408">
<ele>331.2</ele>
<time>2024-05-10T09:06:00Z</time>
</trkpt>
<trkpt lat="49.524280512705445" lon="9.2978095728904">
<ele>331.4</ele>
<time>2024-05-10T09:06:01Z</time>
</trkpt>
<trkpt lat="49.524276657029986" lon="9.297782834619284">
<ele>331.4</ele>
<time>2024-05-10T09:06:02Z</time>
</trkpt>
<trkpt lat="49.524276657029986" lon="9.297758024185896">
<ele>331.6</ele>
<time>2024-05-10T09:06:03Z</time>
</trkpt>
<trkpt lat="49.524276657029986" lon="9.297726592049004">
<ele>331.8</ele>
<time>2024-05-10T09:06:04Z</time>
</trkpt>
<trkpt lat="49.524276657029986" lon="9.297699853777884">
<ele>332</ele>
<time>2024-05-10T09:06:05Z</time>
</trkpt>
<trkpt lat="49.52427288517356" lon="9.29767127148807">
<ele>332.2</ele>
<time>2024-05-10T09:06:06Z</time>
</trkpt>
<trkpt lat="49.52427288517356" lon="9.297644533216952">
<ele>332.4</ele>
<time>2024-05-10T09:06:07Z</time>
</trkpt>
<trkpt lat="49.5242690294981" lon="9.297617878764868">
<ele>332.6</ele>
<time>2024-05-10T09:06:08Z</time>
</trkpt>
<trkpt lat="49.524261401966214" lon="9.29759306833148">
<ele>332.6</ele>
<time>2024-05-10T09:06:09Z</time>
</trkpt>
<trkpt lat="49.524261401966214" lon="9.297570185735822">
<ele>332.8</ele>
<time>2024-05-10T09:06:10Z</time>
</trkpt>
<trkpt lat="49.52425763010979" lon="9.297546381130816">
<ele>333</ele>
<time>2024-05-10T09:06:11Z</time>
</trkpt>
<trkpt lat="49.52425377443433" lon="9.297523498535156">
<ele>333.2</ele>
<time>2024-05-10T09:06:12Z</time>
</trkpt>
<trkpt lat="49.5242500025779" lon="9.297499610111116">
<ele>333.4</ele>
<time>2024-05-10T09:06:13Z</time>
</trkpt>
<trkpt lat="49.52424614690244" lon="9.29747479967773">
<ele>333.4</ele>
<time>2024-05-10T09:06:14Z</time>
</trkpt>
<trkpt lat="49.52423851937056" lon="9.297452922910452">
<ele>333.6</ele>
<time>2024-05-10T09:06:15Z</time>
</trkpt>
<trkpt lat="49.52423474751413" lon="9.297428112477064">
<ele>333.8</ele>
<time>2024-05-10T09:06:16Z</time>
</trkpt>
<trkpt lat="49.52422711998224" lon="9.297407073900104">
<ele>334</ele>
<time>2024-05-10T09:06:17Z</time>
</trkpt>
<trkpt lat="49.52421949245036" lon="9.297381341457369">
<ele>334.2</ele>
<time>2024-05-10T09:06:18Z</time>
</trkpt>
<trkpt lat="49.5242156367749" lon="9.2973536811769">
<ele>334.4</ele>
<time>2024-05-10T09:06:19Z</time>
</trkpt>
<trkpt lat="49.52421186491847" lon="9.297327948734164">
<ele>334.4</ele>
<time>2024-05-10T09:06:20Z</time>
</trkpt>
<trkpt lat="49.524204237386584" lon="9.297303138300776">
<ele>334.6</ele>
<time>2024-05-10T09:06:21Z</time>
</trkpt>
<trkpt lat="49.5241966098547" lon="9.297276483848693">
<ele>334.8</ele>
<time>2024-05-10T09:06:22Z</time>
</trkpt>
<trkpt lat="49.52419275417924" lon="9.297249745577574">
<ele>335</ele>
<time>2024-05-10T09:06:23Z</time>
</trkpt>
<trkpt lat="49.52418512664735" lon="9.297224935144186">
<ele>335</ele>
<time>2024-05-10T09:06:24Z</time>
</trkpt>
<trkpt lat="49.524181354790926" lon="9.2971982806921">
<ele>335.2</ele>
<time>2024-05-10T09:06:25Z</time>
</trkpt>
<trkpt lat="49.52417372725904" lon="9.297173470258713">
<ele>335.4</ele>
<time>2024-05-10T09:06:26Z</time>
</trkpt>
<trkpt lat="49.524166099727154" lon="9.297146731987596">
<ele>335.4</ele>
<time>2024-05-10T09:06:27Z</time>
</trkpt>
<trkpt lat="49.52415461651981" lon="9.297124855220318">
<ele>335.6</ele>
<time>2024-05-10T09:06:28Z</time>
</trkpt>
<trkpt lat="49.52414698898792" lon="9.297102894634008">
<ele>335.8</ele>
<time>2024-05-10T09:06:29Z</time>
</trkpt>
<trkpt lat="49.52413558959961" lon="9.29707808420062">
<ele>336</ele>
<time>2024-05-10T09:06:30Z</time>
</trkpt>
<trkpt lat="49.52412787824869" lon="9.297055201604962">
<ele>336.2</ele>
<time>2024-05-10T09:06:31Z</time>
</trkpt>
<trkpt lat="49.52411647886038" lon="9.297028463333843">
<ele>336.4</ele>
<time>2024-05-10T09:06:32Z</time>
</trkpt>
<trkpt lat="49.52410885132849" lon="9.297003736719487">
<ele>336.6</ele>
<time>2024-05-10T09:06:33Z</time>
</trkpt>
<trkpt lat="49.52410885132849" lon="9.29697984829545">
<ele>336.6</ele>
<time>2024-05-10T09:06:34Z</time>
</trkpt>
<trkpt lat="49.52409736812115" lon="9.296951266005635">
<ele>336.8</ele>
<time>2024-05-10T09:06:35Z</time>
</trkpt>
<trkpt lat="49.52408974058926" lon="9.29692167788744">
<ele>337</ele>
<time>2024-05-10T09:06:36Z</time>
</trkpt>
<trkpt lat="49.524082113057375" lon="9.296891167759895">
<ele>337</ele>
<time>2024-05-10T09:06:37Z</time>
</trkpt>
<trkpt lat="49.52407448552549" lon="9.29686543531716">
<ele>337</ele>
<time>2024-05-10T09:06:38Z</time>
</trkpt>
<trkpt lat="49.5240668579936" lon="9.296836853027344">
<ele>337.2</ele>
<time>2024-05-10T09:06:39Z</time>
</trkpt>
<trkpt lat="49.52405545860529" lon="9.296814892441034">
<ele>337.4</ele>
<time>2024-05-10T09:06:40Z</time>
</trkpt>
<trkpt lat="49.5240478310734" lon="9.296792009845376">
<ele>337.4</ele>
<time>2024-05-10T09:06:41Z</time>
</trkpt>
<trkpt lat="49.52404020354152" lon="9.296770049259068">
<ele>337.6</ele>
<time>2024-05-10T09:06:42Z</time>
</trkpt>
<trkpt lat="49.52402872033417" lon="9.29674523882568">
<ele>338</ele>
<time>2024-05-10T09:06:43Z</time>
</trkpt>
<trkpt lat="49.5240134652704" lon="9.296719506382942">
<ele>338.2</ele>
<time>2024-05-10T09:06:44Z</time>
</trkpt>
<trkpt lat="49.524005837738514" lon="9.296693773940206">
<ele>338.4</ele>
<time>2024-05-10T09:06:45Z</time>
</trkpt>
<trkpt lat="49.52399821020663" lon="9.296669885516168">
<ele>338.6</ele>
<time>2024-05-10T09:06:46Z</time>
</trkpt>
<trkpt lat="49.523986810818315" lon="9.296647002920508">
<ele>338.8</ele>
<time>2024-05-10T09:06:47Z</time>
</trkpt>
<trkpt lat="49.52397918328643" lon="9.296621270477772">
<ele>339</ele>
<time>2024-05-10T09:06:48Z</time>
</trkpt>
<trkpt lat="49.52397155575454" lon="9.296596460044384">
<ele>339</ele>
<time>2024-05-10T09:06:49Z</time>
</trkpt>
<trkpt lat="49.5239600725472" lon="9.29656695574522">
<ele>339.2</ele>
<time>2024-05-10T09:06:50Z</time>
</trkpt>
<trkpt lat="49.52394858933985" lon="9.296536445617676">
<ele>339.4</ele>
<time>2024-05-10T09:06:51Z</time>
</trkpt>
<trkpt lat="49.52393718995154" lon="9.29650970734656">
<ele>339.6</ele>
<time>2024-05-10T09:06:52Z</time>
</trkpt>
<trkpt lat="49.52392956241965" lon="9.296482047066092">
<ele>339.8</ele>
<time>2024-05-10T09:06:53Z</time>
</trkpt>
<trkpt lat="49.52392193488777" lon="9.296451536938548">
<ele>340</ele>
<time>2024-05-10T09:06:54Z</time>
</trkpt>
<trkpt lat="49.52391807921231" lon="9.296421948820353">
<ele>340.4</ele>
<time>2024-05-10T09:06:55Z</time>
</trkpt>
<trkpt lat="49.52391430735588" lon="9.296393366530538">
<ele>340.6</ele>
<time>2024-05-10T09:06:56Z</time>
</trkpt>
<trkpt lat="49.523906679823995" lon="9.29636662825942">
<ele>340.8</ele>
<time>2024-05-10T09:06:57Z</time>
</trkpt>
<trkpt lat="49.523902824148536" lon="9.296341817826033">
<ele>341</ele>
<time>2024-05-10T09:06:58Z</time>
</trkpt>
<trkpt lat="49.52389905229211" lon="9.296318013221024">
<ele>341.2</ele>
<time>2024-05-10T09:06:59Z</time>
</trkpt>
<trkpt lat="49.52389519661665" lon="9.296291274949908">
<ele>341.4</ele>
<time>2024-05-10T09:07:00Z</time>
</trkpt>
<trkpt lat="49.52389142476022" lon="9.296264620497825">
<ele>341.6</ele>
<time>2024-05-10T09:07:01Z</time>
</trkpt>
<trkpt lat="49.52388756908476" lon="9.296236960217357">
<ele>341.8</ele>
<time>2024-05-10T09:07:02Z</time>
</trkpt>
<trkpt lat="49.52388756908476" lon="9.296213071793318">
<ele>342</ele>
<time>2024-05-10T09:07:03Z</time>
</trkpt>
<trkpt lat="49.52388756908476" lon="9.296186417341232">
<ele>342.2</ele>
<time>2024-05-10T09:07:04Z</time>
</trkpt>
<trkpt lat="49.52388756908476" lon="9.296159679070117">
<ele>342.4</ele>
<time>2024-05-10T09:07:05Z</time>
</trkpt>
<trkpt lat="49.52388756908476" lon="9.296130174770951">
<ele>342.6</ele>
<time>2024-05-10T09:07:06Z</time>
</trkpt>
<trkpt lat="49.523883797228336" lon="9.296101508662105">
<ele>342.8</ele>
<time>2024-05-10T09:07:07Z</time>
</trkpt>
<trkpt lat="49.523883797228336" lon="9.29607200436294">
<ele>343</ele>
<time>2024-05-10T09:07:08Z</time>
</trkpt>
<trkpt lat="49.523883797228336" lon="9.296039566397669">
<ele>343.2</ele>
<time>2024-05-10T09:07:09Z</time>
</trkpt>
<trkpt lat="49.52388756908476" lon="9.29601282812655">
<ele>343.6</ele>
<time>2024-05-10T09:07:10Z</time>
</trkpt>
<trkpt lat="49.52389142476022" lon="9.295985167846084">
<ele>343.8</ele>
<time>2024-05-10T09:07:11Z</time>
</trkpt>
<trkpt lat="49.52389142476022" lon="9.295956585556269">
<ele>344</ele>
<time>2024-05-10T09:07:12Z</time>
</trkpt>
<trkpt lat="49.52389519661665" lon="9.295929847285151">
<ele>344.2</ele>
<time>2024-05-10T09:07:13Z</time>
</trkpt>
<trkpt lat="49.52389905229211" lon="9.295903192833066">
<ele>344.4</ele>
<time>2024-05-10T09:07:14Z</time>
</trkpt>
<trkpt lat="49.523902824148536" lon="9.29587360471487">
<ele>344.8</ele>
<time>2024-05-10T09:07:15Z</time>
</trkpt>
<trkpt lat="49.52391045168042" lon="9.295843094587326">
<ele>345</ele>
<time>2024-05-10T09:07:16Z</time>
</trkpt>
<trkpt lat="49.52391807921231" lon="9.29581350646913">
<ele>345.2</ele>
<time>2024-05-10T09:07:17Z</time>
</trkpt>
<trkpt lat="49.52392193488777" lon="9.295784924179316">
<ele>345.6</ele>
<time>2024-05-10T09:07:18Z</time>
</trkpt>
<trkpt lat="49.52392956241965" lon="9.29575340822339">
<ele>345.8</ele>
<time>2024-05-10T09:07:19Z</time>
</trkpt>
<trkpt lat="49.52393718995154" lon="9.295724825933576">
<ele>346.2</ele>
<time>2024-05-10T09:07:20Z</time>
</trkpt>
<trkpt lat="49.523944817483425" lon="9.29569523781538">
<ele>346.4</ele>
<time>2024-05-10T09:07:21Z</time>
</trkpt>
<trkpt lat="49.52394858933985" lon="9.295664727687836">
<ele>346.8</ele>
<time>2024-05-10T09:07:22Z</time>
</trkpt>
<trkpt lat="49.5239600725472" lon="9.29563706740737">
<ele>347.2</ele>
<time>2024-05-10T09:07:23Z</time>
</trkpt>
<trkpt lat="49.52396770007908" lon="9.295606557279823">
<ele>347.4</ele>
<time>2024-05-10T09:07:24Z</time>
</trkpt>
<trkpt lat="49.52397532761097" lon="9.29557696916163">
<ele>347.8</ele>
<time>2024-05-10T09:07:25Z</time>
</trkpt>
<trkpt lat="49.523986810818315" lon="9.295548386871817">
<ele>348</ele>
<time>2024-05-10T09:07:26Z</time>
</trkpt>
<trkpt lat="49.5239944383502" lon="9.295523576438429">
<ele>348.2</ele>
<time>2024-05-10T09:07:27Z</time>
</trkpt>
<trkpt lat="49.524005837738514" lon="9.29549784399569">
<ele>348.6</ele>
<time>2024-05-10T09:07:28Z</time>
</trkpt>
<trkpt lat="49.5240134652704" lon="9.295470183715224">
<ele>348.8</ele>
<time>2024-05-10T09:07:29Z</time>
</trkpt>
<trkpt lat="49.524024948477745" lon="9.295445373281837">
<ele>349</ele>
<time>2024-05-10T09:07:30Z</time>
</trkpt>
<trkpt lat="49.52403634786606" lon="9.295416790992022">
<ele>349.4</ele>
<time>2024-05-10T09:07:31Z</time>
</trkpt>
<trkpt lat="49.524043975397944" lon="9.295388208702208">
<ele>349.6</ele>
<time>2024-05-10T09:07:32Z</time>
</trkpt>
<trkpt lat="49.52405545860529" lon="9.29535954259336">
<ele>350</ele>
<time>2024-05-10T09:07:33Z</time>
</trkpt>
<trkpt lat="49.5240668579936" lon="9.295332888141274">
<ele>350.2</ele>
<time>2024-05-10T09:07:34Z</time>
</trkpt>
<trkpt lat="49.52407834120095" lon="9.295305227860808">
<ele>350.4</ele>
<time>2024-05-10T09:07:35Z</time>
</trkpt>
<trkpt lat="49.52408974058926" lon="9.295278489589691">
<ele>350.6</ele>
<time>2024-05-10T09:07:36Z</time>
</trkpt>
<trkpt lat="49.524101223796606" lon="9.295247979462149">
<ele>351</ele>
<time>2024-05-10T09:07:37Z</time>
</trkpt>
<trkpt lat="49.52411262318492" lon="9.29522132501006">
<ele>351.2</ele>
<time>2024-05-10T09:07:38Z</time>
</trkpt>
<trkpt lat="49.524124106392264" lon="9.295191736891866">
<ele>351.4</ele>
<time>2024-05-10T09:07:39Z</time>
</trkpt>
<trkpt lat="49.52413936145604" lon="9.295164998620749">
<ele>351.6</ele>
<time>2024-05-10T09:07:40Z</time>
</trkpt>
<trkpt lat="49.52415084466338" lon="9.295136416330934">
<ele>352</ele>
<time>2024-05-10T09:07:41Z</time>
</trkpt>
<trkpt lat="49.524162244051695" lon="9.295104900375009">
<ele>352.2</ele>
<time>2024-05-10T09:07:42Z</time>
</trkpt>
<trkpt lat="49.52417372725904" lon="9.295076318085194">
<ele>352.6</ele>
<time>2024-05-10T09:07:43Z</time>
</trkpt>
<trkpt lat="49.52418512664735" lon="9.295046729966998">
<ele>352.8</ele>
<time>2024-05-10T09:07:44Z</time>
</trkpt>
<trkpt lat="49.5241966098547" lon="9.295016219839454">
<ele>353.2</ele>
<time>2024-05-10T09:07:45Z</time>
</trkpt>
<trkpt lat="49.524204237386584" lon="9.294988559558988">
<ele>353.4</ele>
<time>2024-05-10T09:07:46Z</time>
</trkpt>
<trkpt lat="49.5242156367749" lon="9.294959977269173">
<ele>353.6</ele>
<time>2024-05-10T09:07:47Z</time>
</trkpt>
<trkpt lat="49.52422711998224" lon="9.294930389150975">
<ele>353.8</ele>
<time>2024-05-10T09:07:48Z</time>
</trkpt>
<trkpt lat="49.52423851937056" lon="9.294899879023433">
<ele>354</ele>
<time>2024-05-10T09:07:49Z</time>
</trkpt>
<trkpt lat="49.52425377443433" lon="9.294873224571347">
<ele>354.2</ele>
<time>2024-05-10T09:07:50Z</time>
</trkpt>
<trkpt lat="49.524261401966214" lon="9.294843636453152">
<ele>354.4</ele>
<time>2024-05-10T09:07:51Z</time>
</trkpt>
<trkpt lat="49.52427288517356" lon="9.294816898182034">
<ele>354.6</ele>
<time>2024-05-10T09:07:52Z</time>
</trkpt>
<trkpt lat="49.52428814023733" lon="9.29478638805449">
<ele>354.8</ele>
<time>2024-05-10T09:07:53Z</time>
</trkpt>
<trkpt lat="49.524299539625645" lon="9.294756883755326">
<ele>355</ele>
<time>2024-05-10T09:07:54Z</time>
</trkpt>
<trkpt lat="49.52431102283299" lon="9.2947253677994">
<ele>355.2</ele>
<time>2024-05-10T09:07:55Z</time>
</trkpt>
<trkpt lat="49.524322506040335" lon="9.294694857671857">
<ele>355.4</ele>
<time>2024-05-10T09:07:56Z</time>
</trkpt>
<trkpt lat="49.52433390542865" lon="9.29466526955366">
<ele>355.6</ele>
<time>2024-05-10T09:07:57Z</time>
</trkpt>
<trkpt lat="49.52434916049242" lon="9.294634759426115">
<ele>355.8</ele>
<time>2024-05-10T09:07:58Z</time>
</trkpt>
<trkpt lat="49.524356788024306" lon="9.29461187683046">
<ele>356</ele>
<time>2024-05-10T09:07:59Z</time>
</trkpt>
<trkpt lat="49.52437204308808" lon="9.294583294540644">
<ele>356.4</ele>
<time>2024-05-10T09:08:00Z</time>
</trkpt>
<trkpt lat="49.52439115382731" lon="9.294554628431795">
<ele>356.6</ele>
<time>2024-05-10T09:08:01Z</time>
</trkpt>
<trkpt lat="49.52440640889108" lon="9.294533673673868">
<ele>356.8</ele>
<time>2024-05-10T09:08:02Z</time>
</trkpt>
<trkpt lat="49.524417808279395" lon="9.294500313699244">
<ele>357.2</ele>
<time>2024-05-10T09:08:03Z</time>
</trkpt>
<trkpt lat="49.52442929148674" lon="9.294466953724625">
<ele>357.4</ele>
<time>2024-05-10T09:08:04Z</time>
</trkpt>
<trkpt lat="49.52444069087505" lon="9.294440215453506">
<ele>357.6</ele>
<time>2024-05-10T09:08:05Z</time>
</trkpt>
<trkpt lat="49.524459801614285" lon="9.294418254867196">
<ele>358</ele>
<time>2024-05-10T09:08:06Z</time>
</trkpt>
<trkpt lat="49.52447505667806" lon="9.29439160041511">
<ele>358.2</ele>
<time>2024-05-10T09:08:07Z</time>
</trkpt>
<trkpt lat="49.52448268420994" lon="9.294356312602758">
<ele>358.6</ele>
<time>2024-05-10T09:08:08Z</time>
</trkpt>
<trkpt lat="49.52449031174183" lon="9.294320102781056">
<ele>358.8</ele>
<time>2024-05-10T09:08:09Z</time>
</trkpt>
<trkpt lat="49.524501794949174" lon="9.29428950883448">
<ele>359</ele>
<time>2024-05-10T09:08:10Z</time>
</trkpt>
<trkpt lat="49.52451319433749" lon="9.29425329901278">
<ele>359.2</ele>
<time>2024-05-10T09:08:11Z</time>
</trkpt>
<trkpt lat="49.52452082186937" lon="9.29421323351562">
<ele>359.4</ele>
<time>2024-05-10T09:08:12Z</time>
</trkpt>
<trkpt lat="49.52453230507672" lon="9.29417509585619">
<ele>359.6</ele>
<time>2024-05-10T09:08:13Z</time>
</trkpt>
<trkpt lat="49.52453993260861" lon="9.294131258502604">
<ele>359.8</ele>
<time>2024-05-10T09:08:14Z</time>
</trkpt>
<trkpt lat="49.52453993260861" lon="9.294084487482904">
<ele>360.2</ele>
<time>2024-05-10T09:08:15Z</time>
</trkpt>
<trkpt lat="49.52454756014049" lon="9.294043499976397">
<ele>360.4</ele>
<time>2024-05-10T09:08:16Z</time>
</trkpt>
<trkpt lat="49.52455518767238" lon="9.294003434479237">
<ele>360.6</ele>
<time>2024-05-10T09:08:17Z</time>
</trkpt>
<trkpt lat="49.52456658706069" lon="9.293965296819806">
<ele>360.8</ele>
<time>2024-05-10T09:08:18Z</time>
</trkpt>
<trkpt lat="49.524574214592576" lon="9.293926237151029">
<ele>361.2</ele>
<time>2024-05-10T09:08:19Z</time>
</trkpt>
<trkpt lat="49.52458184212446" lon="9.293891871348023">
<ele>361.4</ele>
<time>2024-05-10T09:08:20Z</time>
</trkpt>
<trkpt lat="49.52459332533181" lon="9.293856583535671">
<ele>361.6</ele>
<time>2024-05-10T09:08:21Z</time>
</trkpt>
<trkpt lat="49.52460472472012" lon="9.293814590200782">
<ele>361.8</ele>
<time>2024-05-10T09:08:22Z</time>
</trkpt>
<trkpt lat="49.52461235225201" lon="9.293776452541351">
<ele>362</ele>
<time>2024-05-10T09:08:23Z</time>
</trkpt>
<trkpt lat="49.52462383545935" lon="9.293741164729">
<ele>362.4</ele>
<time>2024-05-10T09:08:24Z</time>
</trkpt>
<trkpt lat="49.52463146299124" lon="9.293708726763724">
<ele>362.6</ele>
<time>2024-05-10T09:08:25Z</time>
</trkpt>
<trkpt lat="49.52464286237955" lon="9.293675366789104">
<ele>362.8</ele>
<time>2024-05-10T09:08:26Z</time>
</trkpt>
<trkpt lat="49.52465057373047" lon="9.293635301291944">
<ele>363.2</ele>
<time>2024-05-10T09:08:27Z</time>
</trkpt>
<trkpt lat="49.524658201262355" lon="9.293596241623163">
<ele>363.4</ele>
<time>2024-05-10T09:08:28Z</time>
</trkpt>
<trkpt lat="49.52466960065067" lon="9.293556176126003">
<ele>363.6</ele>
<time>2024-05-10T09:08:29Z</time>
</trkpt>
<trkpt lat="49.524677228182554" lon="9.293515188619494">
<ele>363.8</ele>
<time>2024-05-10T09:08:30Z</time>
</trkpt>
<trkpt lat="49.52468485571444" lon="9.293477972969413">
<ele>364</ele>
<time>2024-05-10T09:08:31Z</time>
</trkpt>
<trkpt lat="49.5246887113899" lon="9.293441763147712">
<ele>364.2</ele>
<time>2024-05-10T09:08:32Z</time>
</trkpt>
<trkpt lat="49.524692483246326" lon="9.29340454749763">
<ele>364.4</ele>
<time>2024-05-10T09:08:33Z</time>
</trkpt>
<trkpt lat="49.524696338921785" lon="9.293368337675927">
<ele>364.6</ele>
<time>2024-05-10T09:08:34Z</time>
</trkpt>
<trkpt lat="49.52470011077821" lon="9.293333049863575">
<ele>364.8</ele>
<time>2024-05-10T09:08:35Z</time>
</trkpt>
<trkpt lat="49.5247077383101" lon="9.29330346174538">
<ele>365.2</ele>
<time>2024-05-10T09:08:36Z</time>
</trkpt>
<trkpt lat="49.52471159398556" lon="9.293271945789456">
<ele>365.4</ele>
<time>2024-05-10T09:08:37Z</time>
</trkpt>
<trkpt lat="49.52471159398556" lon="9.293236657977104">
<ele>365.6</ele>
<time>2024-05-10T09:08:38Z</time>
</trkpt>
<trkpt lat="49.52471159398556" lon="9.293201370164752">
<ele>365.8</ele>
<time>2024-05-10T09:08:39Z</time>
</trkpt>
<trkpt lat="49.52471159398556" lon="9.29316708818078">
<ele>365.8</ele>
<time>2024-05-10T09:08:40Z</time>
</trkpt>
<trkpt lat="49.52471159398556" lon="9.293133728206158">
<ele>366</ele>
<time>2024-05-10T09:08:41Z</time>
</trkpt>
<trkpt lat="49.524715365841985" lon="9.293096512556076">
<ele>366.2</ele>
<time>2024-05-10T09:08:42Z</time>
</trkpt>
<trkpt lat="49.524715365841985" lon="9.293060302734377">
<ele>366.4</ele>
<time>2024-05-10T09:08:43Z</time>
</trkpt>
<trkpt lat="49.524715365841985" lon="9.293022081255913">
<ele>366.6</ele>
<time>2024-05-10T09:08:44Z</time>
</trkpt>
<trkpt lat="49.524715365841985" lon="9.292983021587132">
<ele>366.8</ele>
<time>2024-05-10T09:08:45Z</time>
</trkpt>
<trkpt lat="49.524715365841985" lon="9.292946811765432">
<ele>367</ele>
<time>2024-05-10T09:08:46Z</time>
</trkpt>
<trkpt lat="49.52471922151744" lon="9.29290859028697">
<ele>367.2</ele>
<time>2024-05-10T09:08:47Z</time>
</trkpt>
<trkpt lat="49.52472299337387" lon="9.29287145845592">
<ele>367.2</ele>
<time>2024-05-10T09:08:48Z</time>
</trkpt>
<trkpt lat="49.52472684904933" lon="9.29283139295876">
<ele>367.4</ele>
<time>2024-05-10T09:08:49Z</time>
</trkpt>
<trkpt lat="49.52472684904933" lon="9.29279325529933">
<ele>367.6</ele>
<time>2024-05-10T09:08:50Z</time>
</trkpt>
<trkpt lat="49.52473062090576" lon="9.292756961658595">
<ele>367.6</ele>
<time>2024-05-10T09:08:51Z</time>
</trkpt>
<trkpt lat="49.52473062090576" lon="9.292721673846245">
<ele>367.8</ele>
<time>2024-05-10T09:08:52Z</time>
</trkpt>
<trkpt lat="49.52473824843764" lon="9.292688313871622">
<ele>368</ele>
<time>2024-05-10T09:08:53Z</time>
</trkpt>
<trkpt lat="49.5247421041131" lon="9.292656881734729">
<ele>368.2</ele>
<time>2024-05-10T09:08:54Z</time>
</trkpt>
<trkpt lat="49.52474973164499" lon="9.292626371607184">
<ele>368.4</ele>
<time>2024-05-10T09:08:55Z</time>
</trkpt>
<trkpt lat="49.52474973164499" lon="9.29259485565126">
<ele>368.6</ele>
<time>2024-05-10T09:08:56Z</time>
</trkpt>
<trkpt lat="49.52474973164499" lon="9.292558645829558">
<ele>368.6</ele>
<time>2024-05-10T09:08:57Z</time>
</trkpt>
<trkpt lat="49.524757359176874" lon="9.292525285854936">
<ele>368.8</ele>
<time>2024-05-10T09:08:58Z</time>
</trkpt>
<trkpt lat="49.52476498670876" lon="9.292488070204854">
<ele>369</ele>
<time>2024-05-10T09:08:59Z</time>
</trkpt>
<trkpt lat="49.52476498670876" lon="9.29245177656412">
<ele>369.2</ele>
<time>2024-05-10T09:09:00Z</time>
</trkpt>
<trkpt lat="49.52476875856519" lon="9.292421266436577">
<ele>369.2</ele>
<time>2024-05-10T09:09:01Z</time>
</trkpt>
<trkpt lat="49.524772614240646" lon="9.292391762137411">
<ele>369.4</ele>
<time>2024-05-10T09:09:02Z</time>
</trkpt>
<trkpt lat="49.52476498670876" lon="9.292366951704023">
<ele>369.6</ele>
<time>2024-05-10T09:09:03Z</time>
</trkpt>
<trkpt lat="49.52476875856519" lon="9.29233644157648">
<ele>369.8</ele>
<time>2024-05-10T09:09:04Z</time>
</trkpt>
<trkpt lat="49.52476498670876" lon="9.292309703305364">
<ele>370</ele>
<time>2024-05-10T09:09:05Z</time>
</trkpt>
<trkpt lat="49.52476875856519" lon="9.29227827116847">
<ele>370.2</ele>
<time>2024-05-10T09:09:06Z</time>
</trkpt>
<trkpt lat="49.524772614240646" lon="9.292248683050277">
<ele>370.4</ele>
<time>2024-05-10T09:09:07Z</time>
</trkpt>
<trkpt lat="49.52478024177253" lon="9.292216245085">
<ele>370.6</ele>
<time>2024-05-10T09:09:08Z</time>
</trkpt>
<trkpt lat="49.52478786930442" lon="9.29218196310103">
<ele>370.8</ele>
<time>2024-05-10T09:09:09Z</time>
</trkpt>
<trkpt lat="49.524791641160846" lon="9.292155224829912">
<ele>371</ele>
<time>2024-05-10T09:09:10Z</time>
</trkpt>
<trkpt lat="49.524795496836305" lon="9.292117087170482">
<ele>371.2</ele>
<time>2024-05-10T09:09:11Z</time>
</trkpt>
<trkpt lat="49.524795496836305" lon="9.29207794368267">
<ele>371.6</ele>
<time>2024-05-10T09:09:12Z</time>
</trkpt>
<trkpt lat="49.52480312436819" lon="9.29203980602324">
<ele>371.8</ele>
<time>2024-05-10T09:09:13Z</time>
</trkpt>
<trkpt lat="49.52480312436819" lon="9.292011223733423">
<ele>372</ele>
<time>2024-05-10T09:09:14Z</time>
</trkpt>
<trkpt lat="49.52481075190008" lon="9.29198163561523">
<ele>372</ele>
<time>2024-05-10T09:09:15Z</time>
</trkpt>
<trkpt lat="49.52481837943196" lon="9.29194157011807">
<ele>372.2</ele>
<time>2024-05-10T09:09:16Z</time>
</trkpt>
<trkpt lat="49.52482600696385" lon="9.291906282305716">
<ele>372.4</ele>
<time>2024-05-10T09:09:17Z</time>
</trkpt>
<trkpt lat="49.52482986263931" lon="9.291872922331097">
<ele>372.6</ele>
<time>2024-05-10T09:09:18Z</time>
</trkpt>
<trkpt lat="49.524837490171194" lon="9.291839562356472">
<ele>372.8</ele>
<time>2024-05-10T09:09:19Z</time>
</trkpt>
<trkpt lat="49.52484511770308" lon="9.291799496859312">
<ele>373</ele>
<time>2024-05-10T09:09:20Z</time>
</trkpt>
<trkpt lat="49.524852745234966" lon="9.291758509352803">
<ele>373.2</ele>
<time>2024-05-10T09:09:21Z</time>
</trkpt>
<trkpt lat="49.52486037276685" lon="9.291718443855643">
<ele>373.4</ele>
<time>2024-05-10T09:09:22Z</time>
</trkpt>
<trkpt lat="49.524871772155166" lon="9.291681228205562">
<ele>373.6</ele>
<time>2024-05-10T09:09:23Z</time>
</trkpt>
<trkpt lat="49.52488325536251" lon="9.29164501838386">
<ele>373.8</ele>
<time>2024-05-10T09:09:24Z</time>
</trkpt>
<trkpt lat="49.5248908828944" lon="9.29160688072443">
<ele>374</ele>
<time>2024-05-10T09:09:25Z</time>
</trkpt>
<trkpt lat="49.52489851042628" lon="9.291562959551811">
<ele>374.2</ele>
<time>2024-05-10T09:09:26Z</time>
</trkpt>
<trkpt lat="49.52490228228271" lon="9.291518200188875">
<ele>374.4</ele>
<time>2024-05-10T09:09:27Z</time>
</trkpt>
<trkpt lat="49.52490228228271" lon="9.291471429169178">
<ele>374.4</ele>
<time>2024-05-10T09:09:28Z</time>
</trkpt>
<trkpt lat="49.52490990981459" lon="9.29142851382494">
<ele>374.6</ele>
<time>2024-05-10T09:09:29Z</time>
</trkpt>
<trkpt lat="49.524913765490055" lon="9.29139037616551">
<ele>374.8</ele>
<time>2024-05-10T09:09:30Z</time>
</trkpt>
<trkpt lat="49.52491753734648" lon="9.29134838283062">
<ele>375</ele>
<time>2024-05-10T09:09:31Z</time>
</trkpt>
<trkpt lat="49.52492139302194" lon="9.291308401152492">
<ele>375.2</ele>
<time>2024-05-10T09:09:32Z</time>
</trkpt>
<trkpt lat="49.52492516487837" lon="9.291268335655332">
<ele>375.4</ele>
<time>2024-05-10T09:09:33Z</time>
</trkpt>
<trkpt lat="49.524932792410254" lon="9.29123304784298">
<ele>375.4</ele>
<time>2024-05-10T09:09:34Z</time>
</trkpt>
<trkpt lat="49.52494041994214" lon="9.291199604049323">
<ele>375.6</ele>
<time>2024-05-10T09:09:35Z</time>
</trkpt>
<trkpt lat="49.524951903149486" lon="9.291168171912432">
<ele>375.8</ele>
<time>2024-05-10T09:09:36Z</time>
</trkpt>
<trkpt lat="49.52495567500591" lon="9.29113196209073">
<ele>376</ele>
<time>2024-05-10T09:09:37Z</time>
</trkpt>
<trkpt lat="49.5249633025378" lon="9.291094746440647">
<ele>376.2</ele>
<time>2024-05-10T09:09:38Z</time>
</trkpt>
<trkpt lat="49.524970930069685" lon="9.291061386466026">
<ele>376.4</ele>
<time>2024-05-10T09:09:39Z</time>
</trkpt>
<trkpt lat="49.524970930069685" lon="9.291023248806596">
<ele>376.4</ele>
<time>2024-05-10T09:09:40Z</time>
</trkpt>
<trkpt lat="49.524970930069685" lon="9.29098980501294">
<ele>376.6</ele>
<time>2024-05-10T09:09:41Z</time>
</trkpt>
<trkpt lat="49.524974785745144" lon="9.29095359519124">
<ele>376.8</ele>
<time>2024-05-10T09:09:42Z</time>
</trkpt>
<trkpt lat="49.52498241327703" lon="9.290918307378888">
<ele>377</ele>
<time>2024-05-10T09:09:43Z</time>
</trkpt>
<trkpt lat="49.524993896484375" lon="9.290878241881728">
<ele>377</ele>
<time>2024-05-10T09:09:44Z</time>
</trkpt>
<trkpt lat="49.52500152401626" lon="9.290840104222298">
<ele>377.2</ele>
<time>2024-05-10T09:09:45Z</time>
</trkpt>
<trkpt lat="49.52500529587269" lon="9.29079526104033">
<ele>377.2</ele>
<time>2024-05-10T09:09:46Z</time>
</trkpt>
<trkpt lat="49.52501677908003" lon="9.29075519554317">
<ele>377.4</ele>
<time>2024-05-10T09:09:47Z</time>
</trkpt>
<trkpt lat="49.52502055093646" lon="9.29071806371212">
<ele>377.6</ele>
<time>2024-05-10T09:09:48Z</time>
</trkpt>
<trkpt lat="49.52502055093646" lon="9.290681770071387">
<ele>377.8</ele>
<time>2024-05-10T09:09:49Z</time>
</trkpt>
<trkpt lat="49.52502440661192" lon="9.29063986055553">
<ele>378</ele>
<time>2024-05-10T09:09:50Z</time>
</trkpt>
<trkpt lat="49.52502817846835" lon="9.290593089535832">
<ele>378.2</ele>
<time>2024-05-10T09:09:51Z</time>
</trkpt>
<trkpt lat="49.525032034143806" lon="9.290548246353865">
<ele>378.2</ele>
<time>2024-05-10T09:09:52Z</time>
</trkpt>
<trkpt lat="49.52503966167569" lon="9.290506336838009">
<ele>378.4</ele>
<time>2024-05-10T09:09:53Z</time>
</trkpt>
<trkpt lat="49.52504343353212" lon="9.290463421493769">
<ele>378.6</ele>
<time>2024-05-10T09:09:54Z</time>
</trkpt>
<trkpt lat="49.525054916739464" lon="9.29041950032115">
<ele>378.8</ele>
<time>2024-05-10T09:09:55Z</time>
</trkpt>
<trkpt lat="49.525054916739464" lon="9.290376584976912">
<ele>378.8</ele>
<time>2024-05-10T09:09:56Z</time>
</trkpt>
<trkpt lat="49.52506254427135" lon="9.290336603298783">
<ele>379</ele>
<time>2024-05-10T09:09:57Z</time>
</trkpt>
<trkpt lat="49.52506631612778" lon="9.290291760116816">
<ele>379.2</ele>
<time>2024-05-10T09:09:58Z</time>
</trkpt>
<trkpt lat="49.52507017180323" lon="9.290244989097118">
<ele>379.2</ele>
<time>2024-05-10T09:09:59Z</time>
</trkpt>
<trkpt lat="49.52508157119155" lon="9.290200229734182">
<ele>379.4</ele>
<time>2024-05-10T09:10:00Z</time>
</trkpt>
<trkpt lat="49.52508542686701" lon="9.290155386552216">
<ele>379.6</ele>
<time>2024-05-10T09:10:01Z</time>
</trkpt>
<trkpt lat="49.525093054398894" lon="9.290108615532516">
<ele>379.6</ele>
<time>2024-05-10T09:10:02Z</time>
</trkpt>
<trkpt lat="49.52510068193078" lon="9.290058072656391">
<ele>379.8</ele>
<time>2024-05-10T09:10:03Z</time>
</trkpt>
<trkpt lat="49.52510445378721" lon="9.290010379627349">
<ele>379.8</ele>
<time>2024-05-10T09:10:04Z</time>
</trkpt>
<trkpt lat="49.525112081319094" lon="9.289959836751224">
<ele>380</ele>
<time>2024-05-10T09:10:05Z</time>
</trkpt>
<trkpt lat="49.52511970885098" lon="9.289911221712828">
<ele>380</ele>
<time>2024-05-10T09:10:06Z</time>
</trkpt>
<trkpt lat="49.525127336382866" lon="9.289861600846052">
<ele>380</ele>
<time>2024-05-10T09:10:07Z</time>
</trkpt>
<trkpt lat="49.52513496391475" lon="9.289812985807655">
<ele>380.2</ele>
<time>2024-05-10T09:10:08Z</time>
</trkpt>
<trkpt lat="49.52514259144664" lon="9.289763448759912">
<ele>380.2</ele>
<time>2024-05-10T09:10:09Z</time>
</trkpt>
<trkpt lat="49.5251464471221" lon="9.289714749902489">
<ele>380.4</ele>
<time>2024-05-10T09:10:10Z</time>
</trkpt>
<trkpt lat="49.52515407465398" lon="9.289665212854745">
<ele>380.6</ele>
<time>2024-05-10T09:10:11Z</time>
</trkpt>
<trkpt lat="49.52516555786133" lon="9.289616513997316">
<ele>380.6</ele>
<time>2024-05-10T09:10:12Z</time>
</trkpt>
<trkpt lat="49.525173185393214" lon="9.289566976949573">
<ele>380.8</ele>
<time>2024-05-10T09:10:13Z</time>
</trkpt>
<trkpt lat="49.52517695724964" lon="9.289518278092146">
<ele>381</ele>
<time>2024-05-10T09:10:14Z</time>
</trkpt>
<trkpt lat="49.525188440456986" lon="9.289466813206673">
<ele>381</ele>
<time>2024-05-10T09:10:15Z</time>
</trkpt>
<trkpt lat="49.525192212313414" lon="9.289416270330548">
<ele>381</ele>
<time>2024-05-10T09:10:16Z</time>
</trkpt>
<trkpt lat="49.5251998398453" lon="9.289364805445077">
<ele>381.2</ele>
<time>2024-05-10T09:10:17Z</time>
</trkpt>
<trkpt lat="49.525207467377186" lon="9.28931132890284">
<ele>381.2</ele>
<time>2024-05-10T09:10:18Z</time>
</trkpt>
<trkpt lat="49.52521509490907" lon="9.289259864017367">
<ele>381.2</ele>
<time>2024-05-10T09:10:19Z</time>
</trkpt>
<trkpt lat="49.52521895058453" lon="9.289208399131894">
<ele>381.2</ele>
<time>2024-05-10T09:10:20Z</time>
</trkpt>
<trkpt lat="49.52522272244096" lon="9.28915685042739">
<ele>381.2</ele>
<time>2024-05-10T09:10:21Z</time>
</trkpt>
<trkpt lat="49.52523034997285" lon="9.289106307551265">
<ele>381.4</ele>
<time>2024-05-10T09:10:22Z</time>
</trkpt>
<trkpt lat="49.5252342056483" lon="9.28905861452222">
<ele>381.4</ele>
<time>2024-05-10T09:10:23Z</time>
</trkpt>
<trkpt lat="49.52524183318019" lon="9.289012849330902">
<ele>381.4</ele>
<time>2024-05-10T09:10:24Z</time>
</trkpt>
<trkpt lat="49.525249460712075" lon="9.288968006148934">
<ele>381.4</ele>
<time>2024-05-10T09:10:25Z</time>
</trkpt>
<trkpt lat="49.5252532325685" lon="9.28891654126346">
<ele>381.4</ele>
<time>2024-05-10T09:10:26Z</time>
</trkpt>
<trkpt lat="49.52526471577585" lon="9.288865076377988">
<ele>381.4</ele>
<time>2024-05-10T09:10:27Z</time>
</trkpt>
<trkpt lat="49.525268487632275" lon="9.288808749988675">
<ele>381.2</ele>
<time>2024-05-10T09:10:28Z</time>
</trkpt>
<trkpt lat="49.52527997083962" lon="9.288751585409043">
<ele>381.2</ele>
<time>2024-05-10T09:10:29Z</time>
</trkpt>
<trkpt lat="49.525287598371506" lon="9.288693415001037">
<ele>381.2</ele>
<time>2024-05-10T09:10:30Z</time>
</trkpt>
<trkpt lat="49.52529522590339" lon="9.288633316755297">
<ele>381.2</ele>
<time>2024-05-10T09:10:31Z</time>
</trkpt>
<trkpt lat="49.52530285343528" lon="9.288573218509557">
<ele>381.2</ele>
<time>2024-05-10T09:10:32Z</time>
</trkpt>
<trkpt lat="49.52531048096717" lon="9.288515048101544">
<ele>381.2</ele>
<time>2024-05-10T09:10:33Z</time>
</trkpt>
<trkpt lat="49.52531810849905" lon="9.288457799702885">
<ele>381.2</ele>
<time>2024-05-10T09:10:34Z</time>
</trkpt>
<trkpt lat="49.52532188035548" lon="9.288398707285523">
<ele>381.2</ele>
<time>2024-05-10T09:10:35Z</time>
</trkpt>
<trkpt lat="49.52533336356282" lon="9.288336681202054">
<ele>381.2</ele>
<time>2024-05-10T09:10:36Z</time>
</trkpt>
<trkpt lat="49.52534484677017" lon="9.288272811099889">
<ele>381.2</ele>
<time>2024-05-10T09:10:37Z</time>
</trkpt>
<trkpt lat="49.52535624615848" lon="9.28820793516934">
<ele>381.2</ele>
<time>2024-05-10T09:10:38Z</time>
</trkpt>
<trkpt lat="49.52536387369037" lon="9.28814691491425">
<ele>381.2</ele>
<time>2024-05-10T09:10:39Z</time>
</trkpt>
<trkpt lat="49.52537150122225" lon="9.288078267127275">
<ele>381.2</ele>
<time>2024-05-10T09:10:40Z</time>
</trkpt>
<trkpt lat="49.52537912875414" lon="9.288013391196728">
<ele>381.2</ele>
<time>2024-05-10T09:10:41Z</time>
</trkpt>
<trkpt lat="49.52539061196149" lon="9.28794952109456">
<ele>381.2</ele>
<time>2024-05-10T09:10:42Z</time>
</trkpt>
<trkpt lat="49.52539823949337" lon="9.287886573001742">
<ele>381.2</ele>
<time>2024-05-10T09:10:43Z</time>
</trkpt>
<trkpt lat="49.5254020113498" lon="9.287826474756002">
<ele>381.2</ele>
<time>2024-05-10T09:10:44Z</time>
</trkpt>
<trkpt lat="49.52540963888168" lon="9.287764532491565">
<ele>381.2</ele>
<time>2024-05-10T09:10:45Z</time>
</trkpt>
<trkpt lat="49.52541349455714" lon="9.287705356255174">
<ele>381.2</ele>
<time>2024-05-10T09:10:46Z</time>
</trkpt>
<trkpt lat="49.525424893945456" lon="9.287646263837814">
<ele>381.2</ele>
<time>2024-05-10T09:10:47Z</time>
</trkpt>
<trkpt lat="49.52543252147734" lon="9.287586165592074">
<ele>381.2</ele>
<time>2024-05-10T09:10:48Z</time>
</trkpt>
<trkpt lat="49.5254363771528" lon="9.287523217499256">
<ele>381.2</ele>
<time>2024-05-10T09:10:49Z</time>
</trkpt>
<trkpt lat="49.52544400468469" lon="9.287458341568708">
<ele>381.2</ele>
<time>2024-05-10T09:10:50Z</time>
</trkpt>
<trkpt lat="49.52545163221657" lon="9.287398327142">
<ele>381.2</ele>
<time>2024-05-10T09:10:51Z</time>
</trkpt>
<trkpt lat="49.52545925974846" lon="9.28733822889626">
<ele>381.2</ele>
<time>2024-05-10T09:10:52Z</time>
</trkpt>
<trkpt lat="49.52547065913677" lon="9.28727620281279">
<ele>381.2</ele>
<time>2024-05-10T09:10:53Z</time>
</trkpt>
<trkpt lat="49.52548214234412" lon="9.28721803240478">
<ele>381.2</ele>
<time>2024-05-10T09:10:54Z</time>
</trkpt>
<trkpt lat="49.525489769876" lon="9.28715793415904">
<ele>381.2</ele>
<time>2024-05-10T09:10:55Z</time>
</trkpt>
<trkpt lat="49.52549354173243" lon="9.28709976375103">
<ele>381.4</ele>
<time>2024-05-10T09:10:56Z</time>
</trkpt>
<trkpt lat="49.52550116926432" lon="9.287046371027827">
<ele>381.4</ele>
<time>2024-05-10T09:10:57Z</time>
</trkpt>
<trkpt lat="49.525508880615234" lon="9.286990128457546">
<ele>381.4</ele>
<time>2024-05-10T09:10:58Z</time>
</trkpt>
<trkpt lat="49.52552413567901" lon="9.286932880058885">
<ele>381.4</ele>
<time>2024-05-10T09:10:59Z</time>
</trkpt>
<trkpt lat="49.52553553506732" lon="9.286874709650874">
<ele>381.4</ele>
<time>2024-05-10T09:11:00Z</time>
</trkpt>
<trkpt lat="49.525543162599206" lon="9.286814611405134">
<ele>381.6</ele>
<time>2024-05-10T09:11:01Z</time>
</trkpt>
<trkpt lat="49.525547018274665" lon="9.286751747131348">
<ele>381.6</ele>
<time>2024-05-10T09:11:02Z</time>
</trkpt>
<trkpt lat="49.52555079013109" lon="9.286689721047878">
<ele>381.6</ele>
<time>2024-05-10T09:11:03Z</time>
</trkpt>
<trkpt lat="49.52555464580655" lon="9.286623001098633">
<ele>381.6</ele>
<time>2024-05-10T09:11:04Z</time>
</trkpt>
<trkpt lat="49.52555464580655" lon="9.286558125168083">
<ele>381.6</ele>
<time>2024-05-10T09:11:05Z</time>
</trkpt>
<trkpt lat="49.52555464580655" lon="9.286495177075269">
<ele>381.6</ele>
<time>2024-05-10T09:11:06Z</time>
</trkpt>
<trkpt lat="49.52555841766298" lon="9.286433150991796">
<ele>381.6</ele>
<time>2024-05-10T09:11:07Z</time>
</trkpt>
<trkpt lat="49.52555841766298" lon="9.28637120872736">
<ele>381.6</ele>
<time>2024-05-10T09:11:08Z</time>
</trkpt>
<trkpt lat="49.525566045194864" lon="9.286310188472273">
<ele>381.6</ele>
<time>2024-05-10T09:11:09Z</time>
</trkpt>
<trkpt lat="49.525566045194864" lon="9.286246234551072">
<ele>381.6</ele>
<time>2024-05-10T09:11:10Z</time>
</trkpt>
<trkpt lat="49.52556990087032" lon="9.286186136305332">
<ele>381.6</ele>
<time>2024-05-10T09:11:11Z</time>
</trkpt>
<trkpt lat="49.52557752840221" lon="9.286127965897322">
<ele>381.6</ele>
<time>2024-05-10T09:11:12Z</time>
</trkpt>
<trkpt lat="49.52558130025864" lon="9.286067951470612">
<ele>381.6</ele>
<time>2024-05-10T09:11:13Z</time>
</trkpt>
<trkpt lat="49.525585155934095" lon="9.2860116250813">
<ele>381.6</ele>
<time>2024-05-10T09:11:14Z</time>
</trkpt>
<trkpt lat="49.525585155934095" lon="9.285958232358098">
<ele>381.6</ele>
<time>2024-05-10T09:11:15Z</time>
</trkpt>
<trkpt lat="49.525585155934095" lon="9.285906767472625">
<ele>381.6</ele>
<time>2024-05-10T09:11:16Z</time>
</trkpt>
<trkpt lat="49.52558892779052" lon="9.2858562245965">
<ele>381.6</ele>
<time>2024-05-10T09:11:17Z</time>
</trkpt>
<trkpt lat="49.52559278346598" lon="9.285808531567454">
<ele>381.6</ele>
<time>2024-05-10T09:11:18Z</time>
</trkpt>
<trkpt lat="49.52559655532241" lon="9.28575991652906">
<ele>381.6</ele>
<time>2024-05-10T09:11:19Z</time>
</trkpt>
<trkpt lat="49.52559655532241" lon="9.285713145509362">
<ele>381.6</ele>
<time>2024-05-10T09:11:20Z</time>
</trkpt>
<trkpt lat="49.52559655532241" lon="9.285666458308697">
<ele>381.6</ele>
<time>2024-05-10T09:11:21Z</time>
</trkpt>
<trkpt lat="49.52560041099787" lon="9.285619687289">
<ele>381.6</ele>
<time>2024-05-10T09:11:22Z</time>
</trkpt>
<trkpt lat="49.52560041099787" lon="9.285574844107032">
<ele>381.6</ele>
<time>2024-05-10T09:11:23Z</time>
</trkpt>
<trkpt lat="49.525604182854295" lon="9.285530084744096">
<ele>381.6</ele>
<time>2024-05-10T09:11:24Z</time>
</trkpt>
<trkpt lat="49.525608038529754" lon="9.28548138588667">
<ele>381.6</ele>
<time>2024-05-10T09:11:25Z</time>
</trkpt>
<trkpt lat="49.52561181038618" lon="9.285433692857625">
<ele>381.6</ele>
<time>2024-05-10T09:11:26Z</time>
</trkpt>
<trkpt lat="49.52561181038618" lon="9.285385077819228">
<ele>381.6</ele>
<time>2024-05-10T09:11:27Z</time>
</trkpt>
<trkpt lat="49.52561566606164" lon="9.285334534943104">
<ele>381.6</ele>
<time>2024-05-10T09:11:28Z</time>
</trkpt>
<trkpt lat="49.52561943791807" lon="9.28528307005763">
<ele>381.8</ele>
<time>2024-05-10T09:11:29Z</time>
</trkpt>
<trkpt lat="49.525623293593526" lon="9.285233449190857">
<ele>381.8</ele>
<time>2024-05-10T09:11:30Z</time>
</trkpt>
<trkpt lat="49.525623293593526" lon="9.285181984305382">
<ele>381.8</ele>
<time>2024-05-10T09:11:31Z</time>
</trkpt>
<trkpt lat="49.525623293593526" lon="9.285131441429256">
<ele>382</ele>
<time>2024-05-10T09:11:32Z</time>
</trkpt>
<trkpt lat="49.525623293593526" lon="9.285083748400211">
<ele>382</ele>
<time>2024-05-10T09:11:33Z</time>
</trkpt>
<trkpt lat="49.52562706544995" lon="9.285033205524089">
<ele>382</ele>
<time>2024-05-10T09:11:34Z</time>
</trkpt>
<trkpt lat="49.52562706544995" lon="9.28498643450439">
<ele>382.2</ele>
<time>2024-05-10T09:11:35Z</time>
</trkpt>
<trkpt lat="49.52562706544995" lon="9.284938741475344">
<ele>382.2</ele>
<time>2024-05-10T09:11:36Z</time>
</trkpt>
<trkpt lat="49.52563092112541" lon="9.28488819859922">
<ele>382.2</ele>
<time>2024-05-10T09:11:37Z</time>
</trkpt>
<trkpt lat="49.52563469298184" lon="9.284841511398554">
<ele>382.2</ele>
<time>2024-05-10T09:11:38Z</time>
</trkpt>
<trkpt lat="49.52563469298184" lon="9.28479289636016">
<ele>382.2</ele>
<time>2024-05-10T09:11:39Z</time>
</trkpt>
<trkpt lat="49.5256385486573" lon="9.284743275493383">
<ele>382.4</ele>
<time>2024-05-10T09:11:40Z</time>
</trkpt>
<trkpt lat="49.525642320513725" lon="9.28468988277018">
<ele>382.4</ele>
<time>2024-05-10T09:11:41Z</time>
</trkpt>
<trkpt lat="49.525646176189184" lon="9.284634562209249">
<ele>382.4</ele>
<time>2024-05-10T09:11:42Z</time>
</trkpt>
<trkpt lat="49.52564994804561" lon="9.284576391801238">
<ele>382.4</ele>
<time>2024-05-10T09:11:43Z</time>
</trkpt>
<trkpt lat="49.52564994804561" lon="9.284516293555498">
<ele>382.4</ele>
<time>2024-05-10T09:11:44Z</time>
</trkpt>
<trkpt lat="49.52564994804561" lon="9.28445527330041">
<ele>382.4</ele>
<time>2024-05-10T09:11:45Z</time>
</trkpt>
<trkpt lat="49.52564994804561" lon="9.28439517505467">
<ele>382.4</ele>
<time>2024-05-10T09:11:46Z</time>
</trkpt>
<trkpt lat="49.52565380372107" lon="9.28433507680893">
<ele>382.4</ele>
<time>2024-05-10T09:11:47Z</time>
</trkpt>
<trkpt lat="49.5256575755775" lon="9.284271206706762">
<ele>382.4</ele>
<time>2024-05-10T09:11:48Z</time>
</trkpt>
<trkpt lat="49.5256575755775" lon="9.284205408766866">
<ele>382.4</ele>
<time>2024-05-10T09:11:49Z</time>
</trkpt>
<trkpt lat="49.52566143125296" lon="9.2841415386647">
<ele>382.4</ele>
<time>2024-05-10T09:11:50Z</time>
</trkpt>
<trkpt lat="49.525665203109384" lon="9.284072807058692">
<ele>382.4</ele>
<time>2024-05-10T09:11:51Z</time>
</trkpt>
<trkpt lat="49.52567283064127" lon="9.284007009118795">
<ele>382.4</ele>
<time>2024-05-10T09:11:52Z</time>
</trkpt>
<trkpt lat="49.52567668631673" lon="9.28394028916955">
<ele>382.6</ele>
<time>2024-05-10T09:11:53Z</time>
</trkpt>
<trkpt lat="49.52568054199219" lon="9.283873485401273">
<ele>382.6</ele>
<time>2024-05-10T09:11:54Z</time>
</trkpt>
<trkpt lat="49.525688169524074" lon="9.283804837614298">
<ele>382.6</ele>
<time>2024-05-10T09:11:55Z</time>
</trkpt>
<trkpt lat="49.5256919413805" lon="9.283736189827325">
<ele>382.6</ele>
<time>2024-05-10T09:11:56Z</time>
</trkpt>
<trkpt lat="49.52569956891239" lon="9.28366469219327">
<ele>382.6</ele>
<time>2024-05-10T09:11:57Z</time>
</trkpt>
<trkpt lat="49.52571105211973" lon="9.283591266721489">
<ele>382.6</ele>
<time>2024-05-10T09:11:58Z</time>
</trkpt>
<trkpt lat="49.52571867965162" lon="9.283516835421324">
<ele>382.6</ele>
<time>2024-05-10T09:11:59Z</time>
</trkpt>
<trkpt lat="49.525726307183504" lon="9.283438632264732">
<ele>382.4</ele>
<time>2024-05-10T09:12:00Z</time>
</trkpt>
<trkpt lat="49.52574156224728" lon="9.283361434936523">
<ele>382.4</ele>
<time>2024-05-10T09:12:01Z</time>
</trkpt>
<trkpt lat="49.52575681731105" lon="9.28328700363636">
<ele>382.4</ele>
<time>2024-05-10T09:12:02Z</time>
</trkpt>
<trkpt lat="49.52577584423125" lon="9.283213578164576">
<ele>382.4</ele>
<time>2024-05-10T09:12:03Z</time>
</trkpt>
<trkpt lat="49.52579495497048" lon="9.283142080530524">
<ele>382.4</ele>
<time>2024-05-10T09:12:04Z</time>
</trkpt>
<trkpt lat="49.52581398189068" lon="9.283073348924518">
<ele>382.4</ele>
<time>2024-05-10T09:12:05Z</time>
</trkpt>
<trkpt lat="49.52583686448634" lon="9.283001851290464">
<ele>382.4</ele>
<time>2024-05-10T09:12:06Z</time>
</trkpt>
<trkpt lat="49.52585983090103" lon="9.28293127566576">
<ele>382.4</ele>
<time>2024-05-10T09:12:07Z</time>
</trkpt>
<trkpt lat="49.52588648535311" lon="9.282864555716516">
<ele>382.4</ele>
<time>2024-05-10T09:12:08Z</time>
</trkpt>
<trkpt lat="49.52591322362423" lon="9.282796829938889">
<ele>382.4</ele>
<time>2024-05-10T09:12:09Z</time>
</trkpt>
<trkpt lat="49.52593610621989" lon="9.282728182151914">
<ele>382.4</ele>
<time>2024-05-10T09:12:10Z</time>
</trkpt>
<trkpt lat="49.525958988815546" lon="9.282663306221366">
<ele>382.4</ele>
<time>2024-05-10T09:12:11Z</time>
</trkpt>
<trkpt lat="49.52598564326763" lon="9.28259365260601">
<ele>382.6</ele>
<time>2024-05-10T09:12:12Z</time>
</trkpt>
<trkpt lat="49.52600852586329" lon="9.282529782503843">
<ele>382.6</ele>
<time>2024-05-10T09:12:13Z</time>
</trkpt>
<trkpt lat="49.52603526413441" lon="9.282463062554598">
<ele>382.8</ele>
<time>2024-05-10T09:12:14Z</time>
</trkpt>
<trkpt lat="49.52606200240552" lon="9.28239818662405">
<ele>382.8</ele>
<time>2024-05-10T09:12:15Z</time>
</trkpt>
<trkpt lat="49.52608488500118" lon="9.28233616054058">
<ele>382.8</ele>
<time>2024-05-10T09:12:16Z</time>
</trkpt>
<trkpt lat="49.52611153945327" lon="9.282273212447762">
<ele>383</ele>
<time>2024-05-10T09:12:17Z</time>
</trkpt>
<trkpt lat="49.526134422048926" lon="9.282215042039752">
<ele>383</ele>
<time>2024-05-10T09:12:18Z</time>
</trkpt>
<trkpt lat="49.526157304644585" lon="9.282153099775314">
<ele>383.2</ele>
<time>2024-05-10T09:12:19Z</time>
</trkpt>
<trkpt lat="49.5261840429157" lon="9.282090151682496">
<ele>383.2</ele>
<time>2024-05-10T09:12:20Z</time>
</trkpt>
<trkpt lat="49.52621078118682" lon="9.282028125599028">
<ele>383.4</ele>
<time>2024-05-10T09:12:21Z</time>
</trkpt>
<trkpt lat="49.52623366378248" lon="9.281965177506208">
<ele>383.6</ele>
<time>2024-05-10T09:12:22Z</time>
</trkpt>
<trkpt lat="49.52626417391002" lon="9.28190323524177">
<ele>383.6</ele>
<time>2024-05-10T09:12:23Z</time>
</trkpt>
<trkpt lat="49.52628705650568" lon="9.28184313699603">
<ele>383.8</ele>
<time>2024-05-10T09:12:24Z</time>
</trkpt>
<trkpt lat="49.526317566633224" lon="9.28178303875029">
<ele>384</ele>
<time>2024-05-10T09:12:25Z</time>
</trkpt>
<trkpt lat="49.52634422108531" lon="9.281722940504553">
<ele>384.2</ele>
<time>2024-05-10T09:12:26Z</time>
</trkpt>
<trkpt lat="49.526374815031886" lon="9.281662926077844">
<ele>384.4</ele>
<time>2024-05-10T09:12:27Z</time>
</trkpt>
<trkpt lat="49.52640532515943" lon="9.281604755669832">
<ele>384.4</ele>
<time>2024-05-10T09:12:28Z</time>
</trkpt>
<trkpt lat="49.526435835286975" lon="9.281544657424092">
<ele>384.4</ele>
<time>2024-05-10T09:12:29Z</time>
</trkpt>
<trkpt lat="49.52647011727095" lon="9.281484559178352">
<ele>384.4</ele>
<time>2024-05-10T09:12:30Z</time>
</trkpt>
<trkpt lat="49.52650062739849" lon="9.281421611085534">
<ele>384.4</ele>
<time>2024-05-10T09:12:31Z</time>
</trkpt>
<trkpt lat="49.526534993201494" lon="9.281361512839794">
<ele>384.4</ele>
<time>2024-05-10T09:12:32Z</time>
</trkpt>
<trkpt lat="49.526576986536384" lon="9.281301498413086">
<ele>384.4</ele>
<time>2024-05-10T09:12:33Z</time>
</trkpt>
<trkpt lat="49.52661889605224" lon="9.281234694644809">
<ele>384.2</ele>
<time>2024-05-10T09:12:34Z</time>
</trkpt>
<trkpt lat="49.52666466124356" lon="9.28116981871426">
<ele>384</ele>
<time>2024-05-10T09:12:35Z</time>
</trkpt>
<trkpt lat="49.52670279890299" lon="9.28109161555767">
<ele>384</ele>
<time>2024-05-10T09:12:36Z</time>
</trkpt>
<trkpt lat="49.52674102038145" lon="9.281006790697576">
<ele>383.8</ele>
<time>2024-05-10T09:12:37Z</time>
</trkpt>
<trkpt lat="49.52678292989731" lon="9.280911404639482">
<ele>383.6</ele>
<time>2024-05-10T09:12:38Z</time>
</trkpt>
<trkpt lat="49.52682106755674" lon="9.280808391049504">
<ele>383.4</ele>
<time>2024-05-10T09:12:39Z</time>
</trkpt>
<trkpt lat="49.52685920521617" lon="9.280703533440828">
<ele>383.2</ele>
<time>2024-05-10T09:12:40Z</time>
</trkpt>
<trkpt lat="49.526889799162745" lon="9.280594820156692">
<ele>382.8</ele>
<time>2024-05-10T09:12:41Z</time>
</trkpt>
<trkpt lat="49.52691645361483" lon="9.28048132918775">
<ele>382.4</ele>
<time>2024-05-10T09:12:42Z</time>
</trkpt>
<trkpt lat="49.52693933621049" lon="9.280360210686922">
<ele>382</ele>
<time>2024-05-10T09:12:43Z</time>
</trkpt>
<trkpt lat="49.52695459127426" lon="9.280235236510634">
<ele>381.6</ele>
<time>2024-05-10T09:12:44Z</time>
</trkpt>
<trkpt lat="49.52697370201349" lon="9.280108418315647">
<ele>381.2</ele>
<time>2024-05-10T09:12:45Z</time>
</trkpt>
<trkpt lat="49.52699272893369" lon="9.27998537197709">
<ele>380.6</ele>
<time>2024-05-10T09:12:46Z</time>
</trkpt>
<trkpt lat="49.52701183967292" lon="9.279866181313992">
<ele>380.2</ele>
<time>2024-05-10T09:12:47Z</time>
</trkpt>
<trkpt lat="49.52703849412501" lon="9.27974791266024">
<ele>379.6</ele>
<time>2024-05-10T09:12:48Z</time>
</trkpt>
<trkpt lat="49.5270614605397" lon="9.27962964400649">
<ele>378.8</ele>
<time>2024-05-10T09:12:49Z</time>
</trkpt>
<trkpt lat="49.52709574252367" lon="9.279516153037548">
<ele>378.2</ele>
<time>2024-05-10T09:12:50Z</time>
</trkpt>
<trkpt lat="49.52713773585856" lon="9.279403667896986">
<ele>377.4</ele>
<time>2024-05-10T09:12:51Z</time>
</trkpt>
<trkpt lat="49.5271872729063" lon="9.279288249090314">
<ele>376.6</ele>
<time>2024-05-10T09:12:52Z</time>
</trkpt>
<trkpt lat="49.52724074944854" lon="9.279169980436563">
<ele>375.8</ele>
<time>2024-05-10T09:12:53Z</time>
</trkpt>
<trkpt lat="49.527305541560054" lon="9.279053639620544">
<ele>375</ele>
<time>2024-05-10T09:12:54Z</time>
</trkpt>
<trkpt lat="49.52737418934703" lon="9.278931599110363">
<ele>374.2</ele>
<time>2024-05-10T09:12:55Z</time>
</trkpt>
<trkpt lat="49.52744669280946" lon="9.27880184724927">
<ele>373.4</ele>
<time>2024-05-10T09:12:56Z</time>
</trkpt>
<trkpt lat="49.527519196271896" lon="9.278650218620896">
<ele>372.6</ele>
<time>2024-05-10T09:12:57Z</time>
</trkpt>
<trkpt lat="49.52759169973433" lon="9.278483334928753">
<ele>371.8</ele>
<time>2024-05-10T09:12:58Z</time>
</trkpt>
<trkpt lat="49.52766411937773" lon="9.278309745714068">
<ele>370.8</ele>
<time>2024-05-10T09:12:59Z</time>
</trkpt>
<trkpt lat="49.527736622840166" lon="9.278124757111073">
<ele>369.6</ele>
<time>2024-05-10T09:13:00Z</time>
</trkpt>
<trkpt lat="49.5278091263026" lon="9.277943540364504">
<ele>368.4</ele>
<time>2024-05-10T09:13:01Z</time>
</trkpt>
<trkpt lat="49.52788540162146" lon="9.277750002220271">
<ele>367</ele>
<time>2024-05-10T09:13:02Z</time>
</trkpt>
<trkpt lat="49.527957905083895" lon="9.277551602572204">
<ele>365.6</ele>
<time>2024-05-10T09:13:03Z</time>
</trkpt>
<trkpt lat="49.5280303247273" lon="9.27735798060894">
<ele>364.2</ele>
<time>2024-05-10T09:13:04Z</time>
</trkpt>
<trkpt lat="49.52810668386519" lon="9.277186319231989">
<ele>362.8</ele>
<time>2024-05-10T09:13:05Z</time>
</trkpt>
<trkpt lat="49.52817533165216" lon="9.277034690603614">
<ele>361.4</ele>
<time>2024-05-10T09:13:06Z</time>
</trkpt>
<trkpt lat="49.52824012376368" lon="9.276921199634671">
<ele>360</ele>
<time>2024-05-10T09:13:07Z</time>
</trkpt>
<trkpt lat="49.5283012278378" lon="9.276816342025995">
<ele>358.6</ele>
<time>2024-05-10T09:13:08Z</time>
</trkpt>
<trkpt lat="49.52835462056101" lon="9.276718106120825">
<ele>357.2</ele>
<time>2024-05-10T09:13:09Z</time>
</trkpt>
<trkpt lat="49.52840415760875" lon="9.27664845250547">
<ele>356.2</ele>
<time>2024-05-10T09:13:10Z</time>
</trkpt>
<trkpt lat="49.528450006619096" lon="9.276581732556224">
<ele>355</ele>
<time>2024-05-10T09:13:11Z</time>
</trkpt>
<trkpt lat="49.528488144278526" lon="9.276523562148212">
<ele>354</ele>
<time>2024-05-10T09:13:12Z</time>
</trkpt>
<trkpt lat="49.52852628193796" lon="9.27647016942501">
<ele>353.2</ele>
<time>2024-05-10T09:13:13Z</time>
</trkpt>
<trkpt lat="49.5285567920655" lon="9.276423398405312">
<ele>352.4</ele>
<time>2024-05-10T09:13:14Z</time>
</trkpt>
<trkpt lat="49.52859107404947" lon="9.276381488889456">
<ele>351.8</ele>
<time>2024-05-10T09:13:15Z</time>
</trkpt>
<trkpt lat="49.52862166799605" lon="9.276341423392296">
<ele>351.2</ele>
<time>2024-05-10T09:13:16Z</time>
</trkpt>
<trkpt lat="49.528648322448134" lon="9.276305129751565">
<ele>350.8</ele>
<time>2024-05-10T09:13:17Z</time>
</trkpt>
<trkpt lat="49.52867120504379" lon="9.27627176977694">
<ele>350.6</ele>
<time>2024-05-10T09:13:18Z</time>
</trkpt>
<trkpt lat="49.52869408763945" lon="9.276240337640049">
<ele>350.4</ele>
<time>2024-05-10T09:13:19Z</time>
</trkpt>
<trkpt lat="49.52871697023511" lon="9.276205049827697">
<ele>350.2</ele>
<time>2024-05-10T09:13:20Z</time>
</trkpt>
<trkpt lat="49.52873985283077" lon="9.27617160603404">
<ele>350.2</ele>
<time>2024-05-10T09:13:21Z</time>
</trkpt>
<trkpt lat="49.528762735426426" lon="9.276138246059418">
<ele>350.2</ele>
<time>2024-05-10T09:13:22Z</time>
</trkpt>
<trkpt lat="49.52878570184112" lon="9.276102036237717">
<ele>350.2</ele>
<time>2024-05-10T09:13:23Z</time>
</trkpt>
<trkpt lat="49.528808584436774" lon="9.276069598272445">
<ele>350.4</ele>
<time>2024-05-10T09:13:24Z</time>
</trkpt>
<trkpt lat="49.52883146703243" lon="9.27603523246944">
<ele>350.6</ele>
<time>2024-05-10T09:13:25Z</time>
</trkpt>
<trkpt lat="49.52885434962809" lon="9.275999944657087">
<ele>351</ele>
<time>2024-05-10T09:13:26Z</time>
</trkpt>
<trkpt lat="49.52887723222375" lon="9.275964656844735">
<ele>351.2</ele>
<time>2024-05-10T09:13:27Z</time>
</trkpt>
<trkpt lat="49.52890011481941" lon="9.275928447023034">
<ele>351.6</ele>
<time>2024-05-10T09:13:28Z</time>
</trkpt>
<trkpt lat="49.52891914173961" lon="9.275895087048411">
<ele>352</ele>
<time>2024-05-10T09:13:29Z</time>
</trkpt>
<trkpt lat="49.52893825247884" lon="9.275861727073789">
<ele>352.2</ele>
<time>2024-05-10T09:13:30Z</time>
</trkpt>
<trkpt lat="49.52895736321807" lon="9.275828283280134">
<ele>352.6</ele>
<time>2024-05-10T09:13:31Z</time>
</trkpt>
<trkpt lat="49.52897261828184" lon="9.275794923305511">
<ele>353</ele>
<time>2024-05-10T09:13:32Z</time>
</trkpt>
<trkpt lat="49.52899164520204" lon="9.275765419006348">
<ele>353.4</ele>
<time>2024-05-10T09:13:33Z</time>
</trkpt>
<trkpt lat="49.52901075594127" lon="9.275734825059772">
<ele>353.8</ele>
<time>2024-05-10T09:13:34Z</time>
</trkpt>
<trkpt lat="49.52902978286147" lon="9.275703392922878">
<ele>354.2</ele>
<time>2024-05-10T09:13:35Z</time>
</trkpt>
<trkpt lat="49.52905266545713" lon="9.275670032948256">
<ele>354.6</ele>
<time>2024-05-10T09:13:36Z</time>
</trkpt>
<trkpt lat="49.52907177619636" lon="9.27563851699233">
<ele>354.8</ele>
<time>2024-05-10T09:13:37Z</time>
</trkpt>
<trkpt lat="49.52909080311656" lon="9.275607084855436">
<ele>355.2</ele>
<time>2024-05-10T09:13:38Z</time>
</trkpt>
<trkpt lat="49.52912902459502" lon="9.275545058771968">
<ele>355.6</ele>
<time>2024-05-10T09:13:40Z</time>
</trkpt>
<trkpt lat="49.52914805151522" lon="9.275513626635076">
<ele>355.8</ele>
<time>2024-05-10T09:13:41Z</time>
</trkpt>
<trkpt lat="49.529163306578994" lon="9.275478338822722">
<ele>356.2</ele>
<time>2024-05-10T09:13:42Z</time>
</trkpt>
<trkpt lat="49.52918618917465" lon="9.275446822866796">
<ele>356.6</ele>
<time>2024-05-10T09:13:43Z</time>
</trkpt>
<trkpt lat="49.529201444238424" lon="9.275415390729904">
<ele>357</ele>
<time>2024-05-10T09:13:44Z</time>
</trkpt>
<trkpt lat="49.529220554977655" lon="9.27538680844009">
<ele>357.4</ele>
<time>2024-05-10T09:13:45Z</time>
</trkpt>
<trkpt lat="49.52923581004143" lon="9.27536292001605">
<ele>357.8</ele>
<time>2024-05-10T09:13:46Z</time>
</trkpt>
<trkpt lat="49.52924720942974" lon="9.27534196525812">
<ele>358.2</ele>
<time>2024-05-10T09:13:47Z</time>
</trkpt>
<trkpt lat="49.529258692637086" lon="9.275316232815385">
<ele>358.6</ele>
<time>2024-05-10T09:13:48Z</time>
</trkpt>
<trkpt lat="49.5292700920254" lon="9.275296200066805">
<ele>359</ele>
<time>2024-05-10T09:13:49Z</time>
</trkpt>
<trkpt lat="49.529281575232744" lon="9.275276167318223">
<ele>359.4</ele>
<time>2024-05-10T09:13:50Z</time>
</trkpt>
<trkpt lat="49.52929683029651" lon="9.275258062407374">
<ele>359.8</ele>
<time>2024-05-10T09:13:51Z</time>
</trkpt>
<trkpt lat="49.52930831350386" lon="9.275235095992684">
<ele>360.2</ele>
<time>2024-05-10T09:13:52Z</time>
</trkpt>
<trkpt lat="49.52931594103575" lon="9.275211291387675">
<ele>360.6</ele>
<time>2024-05-10T09:13:53Z</time>
</trkpt>
<trkpt lat="49.52932734042406" lon="9.27518648095429">
<ele>361</ele>
<time>2024-05-10T09:13:54Z</time>
</trkpt>
<trkpt lat="49.52934259548783" lon="9.275161670520902">
<ele>361.2</ele>
<time>2024-05-10T09:13:55Z</time>
</trkpt>
<trkpt lat="49.52935407869518" lon="9.275135016068816">
<ele>361.6</ele>
<time>2024-05-10T09:13:56Z</time>
</trkpt>
<trkpt lat="49.529361706227064" lon="9.2751082777977">
<ele>362</ele>
<time>2024-05-10T09:13:57Z</time>
</trkpt>
<trkpt lat="49.52937310561538" lon="9.27508539520204">
<ele>362.4</ele>
<time>2024-05-10T09:13:58Z</time>
</trkpt>
<trkpt lat="49.52939598821104" lon="9.275038708001375">
<ele>362.6</ele>
<time>2024-05-10T09:14:00Z</time>
</trkpt>
<trkpt lat="49.52940747141838" lon="9.275016747415066">
<ele>363</ele>
<time>2024-05-10T09:14:01Z</time>
</trkpt>
<trkpt lat="49.52942272648215" lon="9.274994786828756">
<ele>363.4</ele>
<time>2024-05-10T09:14:02Z</time>
</trkpt>
<trkpt lat="49.529434125870466" lon="9.27497291006148">
<ele>363.6</ele>
<time>2024-05-10T09:14:03Z</time>
</trkpt>
<trkpt lat="49.52944560907781" lon="9.2749528773129">
<ele>364</ele>
<time>2024-05-10T09:14:04Z</time>
</trkpt>
<trkpt lat="49.5294532366097" lon="9.27493284456432">
<ele>364.2</ele>
<time>2024-05-10T09:14:05Z</time>
</trkpt>
<trkpt lat="49.52946849167347" lon="9.274911805987358">
<ele>364.4</ele>
<time>2024-05-10T09:14:06Z</time>
</trkpt>
<trkpt lat="49.529479974880815" lon="9.274888001382353">
<ele>364.8</ele>
<time>2024-05-10T09:14:07Z</time>
</trkpt>
<trkpt lat="49.52949522994459" lon="9.274867046624422">
<ele>365</ele>
<time>2024-05-10T09:14:08Z</time>
</trkpt>
<trkpt lat="49.5295066293329" lon="9.274847013875842">
<ele>365.4</ele>
<time>2024-05-10T09:14:09Z</time>
</trkpt>
<trkpt lat="49.529518112540245" lon="9.274827903136613">
<ele>365.6</ele>
<time>2024-05-10T09:14:10Z</time>
</trkpt>
<trkpt lat="49.52952951192856" lon="9.274807870388033">
<ele>366</ele>
<time>2024-05-10T09:14:11Z</time>
</trkpt>
<trkpt lat="49.5295409951359" lon="9.274787837639453">
<ele>366.2</ele>
<time>2024-05-10T09:14:12Z</time>
</trkpt>
<trkpt lat="49.52955239452422" lon="9.274766882881522">
<ele>366.6</ele>
<time>2024-05-10T09:14:13Z</time>
</trkpt>
<trkpt lat="49.52956387773156" lon="9.274744922295213">
<ele>366.8</ele>
<time>2024-05-10T09:14:14Z</time>
</trkpt>
<trkpt lat="49.529575277119875" lon="9.274724889546633">
<ele>367</ele>
<time>2024-05-10T09:14:15Z</time>
</trkpt>
<trkpt lat="49.52958676032722" lon="9.274704856798053">
<ele>367.2</ele>
<time>2024-05-10T09:14:16Z</time>
</trkpt>
<trkpt lat="49.52959815971553" lon="9.274682980030777">
<ele>367.2</ele>
<time>2024-05-10T09:14:17Z</time>
</trkpt>
<trkpt lat="49.52960964292288" lon="9.274661941453816">
<ele>367.4</ele>
<time>2024-05-10T09:14:18Z</time>
</trkpt>
<trkpt lat="49.52962104231119" lon="9.274641908705236">
<ele>367.6</ele>
<time>2024-05-10T09:14:19Z</time>
</trkpt>
<trkpt lat="49.529636381193995" lon="9.274620031937957">
<ele>368</ele>
<time>2024-05-10T09:14:20Z</time>
</trkpt>
<trkpt lat="49.52964400872588" lon="9.274598071351647">
<ele>368.2</ele>
<time>2024-05-10T09:14:21Z</time>
</trkpt>
<trkpt lat="49.529655408114195" lon="9.274576110765338">
<ele>368.4</ele>
<time>2024-05-10T09:14:22Z</time>
</trkpt>
<trkpt lat="49.52966689132154" lon="9.27455322816968">
<ele>368.6</ele>
<time>2024-05-10T09:14:23Z</time>
</trkpt>
<trkpt lat="49.52967829070985" lon="9.27453034557402">
<ele>368.8</ele>
<time>2024-05-10T09:14:24Z</time>
</trkpt>
<trkpt lat="49.5296897739172" lon="9.274508468806744">
<ele>369</ele>
<time>2024-05-10T09:14:25Z</time>
</trkpt>
<trkpt lat="49.52970117330551" lon="9.274486508220434">
<ele>369.2</ele>
<time>2024-05-10T09:14:26Z</time>
</trkpt>
<trkpt lat="49.52971265651286" lon="9.274464547634125">
<ele>369.4</ele>
<time>2024-05-10T09:14:27Z</time>
</trkpt>
<trkpt lat="49.52972028404474" lon="9.274441665038466">
<ele>369.6</ele>
<time>2024-05-10T09:14:28Z</time>
</trkpt>
<trkpt lat="49.529731683433056" lon="9.274419704452155">
<ele>370</ele>
<time>2024-05-10T09:14:29Z</time>
</trkpt>
<trkpt lat="49.5297431666404" lon="9.274398749694228">
<ele>370.2</ele>
<time>2024-05-10T09:14:30Z</time>
</trkpt>
<trkpt lat="49.529754566028714" lon="9.274373017251492">
<ele>370.6</ele>
<time>2024-05-10T09:14:31Z</time>
</trkpt>
<trkpt lat="49.52976604923606" lon="9.274348206818104">
<ele>371</ele>
<time>2024-05-10T09:14:32Z</time>
</trkpt>
<trkpt lat="49.529773676767945" lon="9.274321552366018">
<ele>371.2</ele>
<time>2024-05-10T09:14:33Z</time>
</trkpt>
<trkpt lat="49.52978507615626" lon="9.27429674193263">
<ele>371.6</ele>
<time>2024-05-10T09:14:34Z</time>
</trkpt>
<trkpt lat="49.529792703688145" lon="9.274271931499245">
<ele>371.8</ele>
<time>2024-05-10T09:14:35Z</time>
</trkpt>
<trkpt lat="49.52980418689549" lon="9.274248043075204">
<ele>372</ele>
<time>2024-05-10T09:14:36Z</time>
</trkpt>
<trkpt lat="49.529815670102835" lon="9.274225160479546">
<ele>372.4</ele>
<time>2024-05-10T09:14:37Z</time>
</trkpt>
<trkpt lat="49.52982329763472" lon="9.274201355874538">
<ele>372.6</ele>
<time>2024-05-10T09:14:38Z</time>
</trkpt>
<trkpt lat="49.529834697023034" lon="9.27418040111661">
<ele>372.8</ele>
<time>2024-05-10T09:14:39Z</time>
</trkpt>
<trkpt lat="49.52984232455492" lon="9.2741584405303">
<ele>373.2</ele>
<time>2024-05-10T09:14:40Z</time>
</trkpt>
<trkpt lat="49.529849952086806" lon="9.274131702259185">
<ele>373.4</ele>
<time>2024-05-10T09:14:41Z</time>
</trkpt>
<trkpt lat="49.52985757961869" lon="9.274106975644829">
<ele>373.8</ele>
<time>2024-05-10T09:14:42Z</time>
</trkpt>
<trkpt lat="49.52986520715058" lon="9.27408115938306">
<ele>374.2</ele>
<time>2024-05-10T09:14:43Z</time>
</trkpt>
<trkpt lat="49.52987669035792" lon="9.27406020462513">
<ele>374.4</ele>
<time>2024-05-10T09:14:44Z</time>
</trkpt>
<trkpt lat="49.52988431788981" lon="9.27404017187655">
<ele>374.8</ele>
<time>2024-05-10T09:14:45Z</time>
</trkpt>
<trkpt lat="49.529891945421696" lon="9.274015361443162">
<ele>375.2</ele>
<time>2024-05-10T09:14:46Z</time>
</trkpt>
<trkpt lat="49.52990334481001" lon="9.273993484675884">
<ele>375.4</ele>
<time>2024-05-10T09:14:47Z</time>
</trkpt>
<trkpt lat="49.529914828017354" lon="9.273969596251844">
<ele>375.8</ele>
<time>2024-05-10T09:14:48Z</time>
</trkpt>
<trkpt lat="49.52992622740567" lon="9.273948641493917">
<ele>376</ele>
<time>2024-05-10T09:14:49Z</time>
</trkpt>
<trkpt lat="49.52994148246944" lon="9.273924753069878">
<ele>376.4</ele>
<time>2024-05-10T09:14:50Z</time>
</trkpt>
<trkpt lat="49.529952965676785" lon="9.27390187047422">
<ele>376.8</ele>
<time>2024-05-10T09:14:51Z</time>
</trkpt>
<trkpt lat="49.5299643650651" lon="9.273879993706942">
<ele>377.2</ele>
<time>2024-05-10T09:14:52Z</time>
</trkpt>
<trkpt lat="49.52997584827244" lon="9.273857111111283">
<ele>377.4</ele>
<time>2024-05-10T09:14:53Z</time>
</trkpt>
<trkpt lat="49.53000258654356" lon="9.273811262100937">
<ele>377.8</ele>
<time>2024-05-10T09:14:55Z</time>
</trkpt>
<trkpt lat="49.53001398593187" lon="9.273788379505277">
<ele>378</ele>
<time>2024-05-10T09:14:56Z</time>
</trkpt>
<trkpt lat="49.53002546913922" lon="9.27376457490027">
<ele>378.4</ele>
<time>2024-05-10T09:14:57Z</time>
</trkpt>
<trkpt lat="49.53004072420299" lon="9.273741692304611">
<ele>378.6</ele>
<time>2024-05-10T09:14:58Z</time>
</trkpt>
<trkpt lat="49.530052123591304" lon="9.273716881871223">
<ele>378.8</ele>
<time>2024-05-10T09:14:59Z</time>
</trkpt>
<trkpt lat="49.53006360679865" lon="9.273694921284914">
<ele>379</ele>
<time>2024-05-10T09:15:00Z</time>
</trkpt>
<trkpt lat="49.53007886186242" lon="9.273674888536334">
<ele>379.2</ele>
<time>2024-05-10T09:15:01Z</time>
</trkpt>
<trkpt lat="49.530090261250734" lon="9.273654855787754">
<ele>379.6</ele>
<time>2024-05-10T09:15:02Z</time>
</trkpt>
<trkpt lat="49.53010174445808" lon="9.273634906858206">
<ele>379.8</ele>
<time>2024-05-10T09:15:03Z</time>
</trkpt>
<trkpt lat="49.530128398910165" lon="9.273594841361046">
<ele>380</ele>
<time>2024-05-10T09:15:05Z</time>
</trkpt>
<trkpt lat="49.53014373779297" lon="9.273576736450195">
<ele>380.2</ele>
<time>2024-05-10T09:15:06Z</time>
</trkpt>
<trkpt lat="49.53015513718128" lon="9.273556703701615">
<ele>380.4</ele>
<time>2024-05-10T09:15:07Z</time>
</trkpt>
<trkpt lat="49.530170392245054" lon="9.273538514971731">
<ele>380.6</ele>
<time>2024-05-10T09:15:08Z</time>
</trkpt>
<trkpt lat="49.5301818754524" lon="9.273518482223151">
<ele>380.8</ele>
<time>2024-05-10T09:15:09Z</time>
</trkpt>
<trkpt lat="49.53019327484071" lon="9.273500377312304">
<ele>381</ele>
<time>2024-05-10T09:15:10Z</time>
</trkpt>
<trkpt lat="49.53020475804806" lon="9.2734831944108">
<ele>381.2</ele>
<time>2024-05-10T09:15:11Z</time>
</trkpt>
<trkpt lat="49.53022001311183" lon="9.27346508949995">
<ele>381.4</ele>
<time>2024-05-10T09:15:12Z</time>
</trkpt>
<trkpt lat="49.53023141250014" lon="9.27344799041748">
<ele>381.6</ele>
<time>2024-05-10T09:15:13Z</time>
</trkpt>
<trkpt lat="49.53024289570749" lon="9.273433657363055">
<ele>381.8</ele>
<time>2024-05-10T09:15:14Z</time>
</trkpt>
<trkpt lat="49.5302542950958" lon="9.273414546623826">
<ele>382</ele>
<time>2024-05-10T09:15:15Z</time>
</trkpt>
<trkpt lat="49.530265778303146" lon="9.273400297388434">
<ele>382.2</ele>
<time>2024-05-10T09:15:16Z</time>
</trkpt>
<trkpt lat="49.53027717769146" lon="9.273385042324662">
<ele>382.4</ele>
<time>2024-05-10T09:15:17Z</time>
</trkpt>
<trkpt lat="49.530288660898805" lon="9.27336685359478">
<ele>382.6</ele>
<time>2024-05-10T09:15:18Z</time>
</trkpt>
<trkpt lat="49.53030006028712" lon="9.27334782667458">
<ele>382.8</ele>
<time>2024-05-10T09:15:19Z</time>
</trkpt>
<trkpt lat="49.53031539916992" lon="9.27332972176373">
<ele>383</ele>
<time>2024-05-10T09:15:20Z</time>
</trkpt>
<trkpt lat="49.530326798558235" lon="9.273311533033848">
<ele>383</ele>
<time>2024-05-10T09:15:21Z</time>
</trkpt>
<trkpt lat="49.53033828176558" lon="9.2732915841043">
<ele>383.2</ele>
<time>2024-05-10T09:15:22Z</time>
</trkpt>
<trkpt lat="49.53034968115389" lon="9.273273395374416">
<ele>383.4</ele>
<time>2024-05-10T09:15:23Z</time>
</trkpt>
<trkpt lat="49.53037256374955" lon="9.273235257714989">
<ele>383.6</ele>
<time>2024-05-10T09:15:25Z</time>
</trkpt>
<trkpt lat="49.53038781881333" lon="9.273215224966409">
<ele>383.8</ele>
<time>2024-05-10T09:15:26Z</time>
</trkpt>
<trkpt lat="49.530403073877096" lon="9.273196198046207">
<ele>384</ele>
<time>2024-05-10T09:15:27Z</time>
</trkpt>
<trkpt lat="49.53041832894087" lon="9.273176165297627">
<ele>384</ele>
<time>2024-05-10T09:15:28Z</time>
</trkpt>
<trkpt lat="49.53042981214821" lon="9.273157054558396">
<ele>384.2</ele>
<time>2024-05-10T09:15:29Z</time>
</trkpt>
<trkpt lat="49.530445067211986" lon="9.27313517779112">
<ele>384.4</ele>
<time>2024-05-10T09:15:30Z</time>
</trkpt>
<trkpt lat="49.5304564666003" lon="9.27311321720481">
<ele>384.6</ele>
<time>2024-05-10T09:15:31Z</time>
</trkpt>
<trkpt lat="49.53047172166407" lon="9.27309033460915">
<ele>384.8</ele>
<time>2024-05-10T09:15:32Z</time>
</trkpt>
<trkpt lat="49.530483204871416" lon="9.273070301860573">
<ele>385.2</ele>
<time>2024-05-10T09:15:33Z</time>
</trkpt>
<trkpt lat="49.53049845993519" lon="9.273046413436532">
<ele>385.4</ele>
<time>2024-05-10T09:15:34Z</time>
</trkpt>
<trkpt lat="49.53050994314253" lon="9.273023530840874">
<ele>385.6</ele>
<time>2024-05-10T09:15:35Z</time>
</trkpt>
<trkpt lat="49.530525198206306" lon="9.272998804226518">
<ele>386</ele>
<time>2024-05-10T09:15:36Z</time>
</trkpt>
<trkpt lat="49.53054045327008" lon="9.27297491580248">
<ele>386.2</ele>
<time>2024-05-10T09:15:37Z</time>
</trkpt>
<trkpt lat="49.53055185265839" lon="9.27295295521617">
<ele>386.6</ele>
<time>2024-05-10T09:15:38Z</time>
</trkpt>
<trkpt lat="49.53056710772216" lon="9.27293200045824">
<ele>386.8</ele>
<time>2024-05-10T09:15:39Z</time>
</trkpt>
<trkpt lat="49.530582362785935" lon="9.272906268015504">
<ele>387.2</ele>
<time>2024-05-10T09:15:40Z</time>
</trkpt>
<trkpt lat="49.53059384599328" lon="9.272881457582116">
<ele>387.6</ele>
<time>2024-05-10T09:15:41Z</time>
</trkpt>
<trkpt lat="49.530605245381594" lon="9.27285480313003">
<ele>387.8</ele>
<time>2024-05-10T09:15:42Z</time>
</trkpt>
<trkpt lat="49.53061672858894" lon="9.272827142849565">
<ele>388.2</ele>
<time>2024-05-10T09:15:43Z</time>
</trkpt>
<trkpt lat="49.53062812797725" lon="9.272800404578447">
<ele>388.4</ele>
<time>2024-05-10T09:15:44Z</time>
</trkpt>
<trkpt lat="49.5306396111846" lon="9.272771822288632">
<ele>388.8</ele>
<time>2024-05-10T09:15:45Z</time>
</trkpt>
<trkpt lat="49.53065486624837" lon="9.272743156179786">
<ele>389</ele>
<time>2024-05-10T09:15:46Z</time>
</trkpt>
<trkpt lat="49.530662493780255" lon="9.27271457388997">
<ele>389.4</ele>
<time>2024-05-10T09:15:47Z</time>
</trkpt>
<trkpt lat="49.5306739769876" lon="9.272689763456585">
<ele>389.6</ele>
<time>2024-05-10T09:15:48Z</time>
</trkpt>
<trkpt lat="49.53069685958326" lon="9.272643076255918">
<ele>390</ele>
<time>2024-05-10T09:15:50Z</time>
</trkpt>
<trkpt lat="49.53070825897157" lon="9.2726163379848">
<ele>390.2</ele>
<time>2024-05-10T09:15:51Z</time>
</trkpt>
<trkpt lat="49.53071974217892" lon="9.272589683532717">
<ele>390.6</ele>
<time>2024-05-10T09:15:52Z</time>
</trkpt>
<trkpt lat="49.53073114156723" lon="9.272562023252249">
<ele>390.8</ele>
<time>2024-05-10T09:15:53Z</time>
</trkpt>
<trkpt lat="49.530742624774575" lon="9.272535284981132">
<ele>391.2</ele>
<time>2024-05-10T09:15:54Z</time>
</trkpt>
<trkpt lat="49.53075402416289" lon="9.272511480376124">
<ele>391.4</ele>
<time>2024-05-10T09:15:55Z</time>
</trkpt>
<trkpt lat="49.53076550737023" lon="9.272486669942737">
<ele>391.8</ele>
<time>2024-05-10T09:15:56Z</time>
</trkpt>
<trkpt lat="49.53077690675855" lon="9.272466637194157">
<ele>392</ele>
<time>2024-05-10T09:15:57Z</time>
</trkpt>
<trkpt lat="49.53078453429043" lon="9.272446604445577">
<ele>392.4</ele>
<time>2024-05-10T09:15:58Z</time>
</trkpt>
<trkpt lat="49.53079601749778" lon="9.272423721849918">
<ele>392.6</ele>
<time>2024-05-10T09:15:59Z</time>
</trkpt>
<trkpt lat="49.530803645029664" lon="9.27239983342588">
<ele>392.8</ele>
<time>2024-05-10T09:16:00Z</time>
</trkpt>
<trkpt lat="49.53081504441798" lon="9.27237695083022">
<ele>393.2</ele>
<time>2024-05-10T09:16:01Z</time>
</trkpt>
<trkpt lat="49.53082652762532" lon="9.272353146225214">
<ele>393.4</ele>
<time>2024-05-10T09:16:02Z</time>
</trkpt>
<trkpt lat="49.53083415515721" lon="9.272331185638905">
<ele>393.6</ele>
<time>2024-05-10T09:16:03Z</time>
</trkpt>
<trkpt lat="49.530841782689095" lon="9.272306375205517">
<ele>393.8</ele>
<time>2024-05-10T09:16:04Z</time>
</trkpt>
<trkpt lat="49.53084941022098" lon="9.27228349260986">
<ele>394</ele>
<time>2024-05-10T09:16:05Z</time>
</trkpt>
<trkpt lat="49.530860893428326" lon="9.27226345986128">
<ele>394.2</ele>
<time>2024-05-10T09:16:06Z</time>
</trkpt>
<trkpt lat="49.53087229281664" lon="9.27223864942789">
<ele>394.4</ele>
<time>2024-05-10T09:16:07Z</time>
</trkpt>
<trkpt lat="49.530879920348525" lon="9.272214844822884">
<ele>394.6</ele>
<time>2024-05-10T09:16:08Z</time>
</trkpt>
<trkpt lat="49.53089140355587" lon="9.272188106551766">
<ele>394.8</ele>
<time>2024-05-10T09:16:09Z</time>
</trkpt>
<trkpt lat="49.53089903108776" lon="9.27216337993741">
<ele>395</ele>
<time>2024-05-10T09:16:10Z</time>
</trkpt>
<trkpt lat="49.53090665861964" lon="9.272139491513371">
<ele>395</ele>
<time>2024-05-10T09:16:11Z</time>
</trkpt>
<trkpt lat="49.530918058007956" lon="9.272114681079984">
<ele>395.2</ele>
<time>2024-05-10T09:16:12Z</time>
</trkpt>
<trkpt lat="49.53092568553984" lon="9.272088026627898">
<ele>395.4</ele>
<time>2024-05-10T09:16:13Z</time>
</trkpt>
<trkpt lat="49.53093331307173" lon="9.27206514403224">
<ele>395.6</ele>
<time>2024-05-10T09:16:14Z</time>
</trkpt>
<trkpt lat="49.53094479627907" lon="9.272040333598852">
<ele>395.8</ele>
<time>2024-05-10T09:16:15Z</time>
</trkpt>
<trkpt lat="49.53095242381096" lon="9.272013595327737">
<ele>396</ele>
<time>2024-05-10T09:16:16Z</time>
</trkpt>
<trkpt lat="49.530960051342845" lon="9.271989790722728">
<ele>396.2</ele>
<time>2024-05-10T09:16:17Z</time>
</trkpt>
<trkpt lat="49.53096767887473" lon="9.27196498028934">
<ele>396.4</ele>
<time>2024-05-10T09:16:18Z</time>
</trkpt>
<trkpt lat="49.53097907826304" lon="9.271938242018225">
<ele>396.6</ele>
<time>2024-05-10T09:16:19Z</time>
</trkpt>
<trkpt lat="49.53098670579493" lon="9.271913515403869">
<ele>396.8</ele>
<time>2024-05-10T09:16:20Z</time>
</trkpt>
<trkpt lat="49.530998189002275" lon="9.271881999447942">
<ele>397</ele>
<time>2024-05-10T09:16:21Z</time>
</trkpt>
<trkpt lat="49.53100967220962" lon="9.271851489320396">
<ele>397.2</ele>
<time>2024-05-10T09:16:22Z</time>
</trkpt>
<trkpt lat="49.53102492727339" lon="9.271824834868312">
<ele>397.6</ele>
<time>2024-05-10T09:16:23Z</time>
</trkpt>
<trkpt lat="49.531040182337165" lon="9.271796168759463">
<ele>397.8</ele>
<time>2024-05-10T09:16:24Z</time>
</trkpt>
<trkpt lat="49.53105158172548" lon="9.27176658064127">
<ele>398</ele>
<time>2024-05-10T09:16:25Z</time>
</trkpt>
<trkpt lat="49.53106306493282" lon="9.271733220666649">
<ele>398.4</ele>
<time>2024-05-10T09:16:26Z</time>
</trkpt>
<trkpt lat="49.53107446432114" lon="9.271701788529754">
<ele>398.4</ele>
<time>2024-05-10T09:16:27Z</time>
</trkpt>
<trkpt lat="49.53108971938491" lon="9.271670272573829">
<ele>398.6</ele>
<time>2024-05-10T09:16:28Z</time>
</trkpt>
<trkpt lat="49.531101202592254" lon="9.271637834608557">
<ele>398.8</ele>
<time>2024-05-10T09:16:29Z</time>
</trkpt>
<trkpt lat="49.53111260198057" lon="9.271604474633932">
<ele>399</ele>
<time>2024-05-10T09:16:30Z</time>
</trkpt>
<trkpt lat="49.53112408518791" lon="9.271572036668658">
<ele>399.2</ele>
<time>2024-05-10T09:16:31Z</time>
</trkpt>
<trkpt lat="49.53113934025168" lon="9.271538676694036">
<ele>399.4</ele>
<time>2024-05-10T09:16:32Z</time>
</trkpt>
<trkpt lat="49.53115073964" lon="9.271505316719413">
<ele>399.6</ele>
<time>2024-05-10T09:16:33Z</time>
</trkpt>
<trkpt lat="49.53116599470377" lon="9.27147195674479">
<ele>399.8</ele>
<time>2024-05-10T09:16:34Z</time>
</trkpt>
<trkpt lat="49.531177477911115" lon="9.271438596770167">
<ele>400</ele>
<time>2024-05-10T09:16:35Z</time>
</trkpt>
<trkpt lat="49.53118896111846" lon="9.271405152976511">
<ele>400.2</ele>
<time>2024-05-10T09:16:36Z</time>
</trkpt>
<trkpt lat="49.53120421618223" lon="9.27137179300189">
<ele>400.4</ele>
<time>2024-05-10T09:16:37Z</time>
</trkpt>
<trkpt lat="49.531215615570545" lon="9.271340360864995">
<ele>400.6</ele>
<time>2024-05-10T09:16:38Z</time>
</trkpt>
<trkpt lat="49.53122709877789" lon="9.271307922899725">
<ele>400.8</ele>
<time>2024-05-10T09:16:39Z</time>
</trkpt>
<trkpt lat="49.531234726309776" lon="9.271278334781528">
<ele>401.2</ele>
<time>2024-05-10T09:16:40Z</time>
</trkpt>
<trkpt lat="49.53124998137355" lon="9.271247824653983">
<ele>401.4</ele>
<time>2024-05-10T09:16:41Z</time>
</trkpt>
<trkpt lat="49.53126138076186" lon="9.27121639251709">
<ele>401.4</ele>
<time>2024-05-10T09:16:42Z</time>
</trkpt>
<trkpt lat="49.53127286396921" lon="9.271182948723435">
<ele>401.8</ele>
<time>2024-05-10T09:16:43Z</time>
</trkpt>
<trkpt lat="49.53128426335752" lon="9.271149588748813">
<ele>402</ele>
<time>2024-05-10T09:16:44Z</time>
</trkpt>
<trkpt lat="49.531291890889406" lon="9.27111522294581">
<ele>402.2</ele>
<time>2024-05-10T09:16:45Z</time>
</trkpt>
<trkpt lat="49.53130337409675" lon="9.27107809111476">
<ele>402.4</ele>
<time>2024-05-10T09:16:46Z</time>
</trkpt>
<trkpt lat="49.531314773485065" lon="9.271043725311756">
<ele>402.6</ele>
<time>2024-05-10T09:16:47Z</time>
</trkpt>
<trkpt lat="49.53132240101695" lon="9.271006509661674">
<ele>402.8</ele>
<time>2024-05-10T09:16:48Z</time>
</trkpt>
<trkpt lat="49.53133002854884" lon="9.270970299839972">
<ele>403</ele>
<time>2024-05-10T09:16:49Z</time>
</trkpt>
<trkpt lat="49.53134151175618" lon="9.27093501202762">
<ele>403.2</ele>
<time>2024-05-10T09:16:50Z</time>
</trkpt>
<trkpt lat="49.53135299496353" lon="9.270901652053">
<ele>403.4</ele>
<time>2024-05-10T09:16:51Z</time>
</trkpt>
<trkpt lat="49.53136439435184" lon="9.270870136097074">
<ele>403.6</ele>
<time>2024-05-10T09:16:52Z</time>
</trkpt>
<trkpt lat="49.531372021883726" lon="9.27083484828472">
<ele>403.8</ele>
<time>2024-05-10T09:16:53Z</time>
</trkpt>
<trkpt lat="49.53138350509107" lon="9.270803416147828">
<ele>404</ele>
<time>2024-05-10T09:16:54Z</time>
</trkpt>
<trkpt lat="49.53139113262296" lon="9.270768128335476">
<ele>404.2</ele>
<time>2024-05-10T09:16:55Z</time>
</trkpt>
<trkpt lat="49.53140253201127" lon="9.270732840523124">
<ele>404.4</ele>
<time>2024-05-10T09:16:56Z</time>
</trkpt>
<trkpt lat="49.53141015954316" lon="9.27070040255785">
<ele>404.6</ele>
<time>2024-05-10T09:16:57Z</time>
</trkpt>
<trkpt lat="49.53141778707504" lon="9.270665114745498">
<ele>404.8</ele>
<time>2024-05-10T09:16:58Z</time>
</trkpt>
<trkpt lat="49.5314216427505" lon="9.270631754770877">
<ele>405</ele>
<time>2024-05-10T09:16:59Z</time>
</trkpt>
<trkpt lat="49.53142927028239" lon="9.270596466958525">
<ele>405.2</ele>
<time>2024-05-10T09:17:00Z</time>
</trkpt>
<trkpt lat="49.531436897814274" lon="9.270560257136822">
<ele>405.4</ele>
<time>2024-05-10T09:17:01Z</time>
</trkpt>
<trkpt lat="49.53144452534616" lon="9.27052304148674">
<ele>405.6</ele>
<time>2024-05-10T09:17:02Z</time>
</trkpt>
<trkpt lat="49.531452152878046" lon="9.27048683166504">
<ele>405.8</ele>
<time>2024-05-10T09:17:03Z</time>
</trkpt>
<trkpt lat="49.53145978040993" lon="9.270449616014956">
<ele>406</ele>
<time>2024-05-10T09:17:04Z</time>
</trkpt>
<trkpt lat="49.531471179798245" lon="9.270413322374225">
<ele>406</ele>
<time>2024-05-10T09:17:05Z</time>
</trkpt>
<trkpt lat="49.53147880733013" lon="9.270375184714794">
<ele>406.2</ele>
<time>2024-05-10T09:17:06Z</time>
</trkpt>
<trkpt lat="49.53148643486202" lon="9.270338052883744">
<ele>406.4</ele>
<time>2024-05-10T09:17:07Z</time>
</trkpt>
<trkpt lat="49.53149029053748" lon="9.270299831405282">
<ele>406.6</ele>
<time>2024-05-10T09:17:08Z</time>
</trkpt>
<trkpt lat="49.53149791806936" lon="9.270261693745852">
<ele>406.8</ele>
<time>2024-05-10T09:17:09Z</time>
</trkpt>
<trkpt lat="49.53150554560125" lon="9.27022355608642">
<ele>407</ele>
<time>2024-05-10T09:17:10Z</time>
</trkpt>
<trkpt lat="49.531513173133135" lon="9.27018349058926">
<ele>407.2</ele>
<time>2024-05-10T09:17:11Z</time>
</trkpt>
<trkpt lat="49.53152080066502" lon="9.27014535292983">
<ele>407.4</ele>
<time>2024-05-10T09:17:12Z</time>
</trkpt>
<trkpt lat="49.53152842819691" lon="9.270106293261051">
<ele>407.6</ele>
<time>2024-05-10T09:17:13Z</time>
</trkpt>
<trkpt lat="49.53153605572879" lon="9.27006815560162">
<ele>408</ele>
<time>2024-05-10T09:17:14Z</time>
</trkpt>
<trkpt lat="49.53154368326068" lon="9.27003001794219">
<ele>408.2</ele>
<time>2024-05-10T09:17:15Z</time>
</trkpt>
<trkpt lat="49.531551310792565" lon="9.269991796463728">
<ele>408.4</ele>
<time>2024-05-10T09:17:16Z</time>
</trkpt>
<trkpt lat="49.53155893832445" lon="9.269953658804296">
<ele>408.6</ele>
<time>2024-05-10T09:17:17Z</time>
</trkpt>
<trkpt lat="49.53156656585634" lon="9.269914599135518">
<ele>409</ele>
<time>2024-05-10T09:17:18Z</time>
</trkpt>
<trkpt lat="49.5315704215318" lon="9.269876461476088">
<ele>409.2</ele>
<time>2024-05-10T09:17:19Z</time>
</trkpt>
<trkpt lat="49.531574193388224" lon="9.269840167835357">
<ele>409.4</ele>
<time>2024-05-10T09:17:20Z</time>
</trkpt>
<trkpt lat="49.53157804906368" lon="9.269803036004305">
<ele>409.6</ele>
<time>2024-05-10T09:17:21Z</time>
</trkpt>
<trkpt lat="49.53158182092011" lon="9.26976959221065">
<ele>410</ele>
<time>2024-05-10T09:17:22Z</time>
</trkpt>
<trkpt lat="49.53158567659557" lon="9.269740087911488">
<ele>410.2</ele>
<time>2024-05-10T09:17:23Z</time>
</trkpt>
<trkpt lat="49.531593304127455" lon="9.269706644117832">
<ele>410.4</ele>
<time>2024-05-10T09:17:24Z</time>
</trkpt>
<trkpt lat="49.53160093165934" lon="9.269671440124512">
<ele>410.6</ele>
<time>2024-05-10T09:17:25Z</time>
</trkpt>
<trkpt lat="49.53160855919123" lon="9.269637996330856">
<ele>410.8</ele>
<time>2024-05-10T09:17:26Z</time>
</trkpt>
<trkpt lat="49.531612331047654" lon="9.269601786509156">
<ele>411</ele>
<time>2024-05-10T09:17:27Z</time>
</trkpt>
<trkpt lat="49.53161995857954" lon="9.269566498696804">
<ele>411.2</ele>
<time>2024-05-10T09:17:28Z</time>
</trkpt>
<trkpt lat="49.531627586111426" lon="9.269531210884452">
<ele>411.4</ele>
<time>2024-05-10T09:17:29Z</time>
</trkpt>
<trkpt lat="49.53163521364331" lon="9.269496845081449">
<ele>411.4</ele>
<time>2024-05-10T09:17:30Z</time>
</trkpt>
<trkpt lat="49.5316428411752" lon="9.269461557269096">
<ele>411.6</ele>
<time>2024-05-10T09:17:31Z</time>
</trkpt>
<trkpt lat="49.53164669685066" lon="9.269426269456744">
<ele>411.6</ele>
<time>2024-05-10T09:17:32Z</time>
</trkpt>
<trkpt lat="49.531654324382544" lon="9.26939290948212">
<ele>411.8</ele>
<time>2024-05-10T09:17:33Z</time>
</trkpt>
<trkpt lat="49.53166195191443" lon="9.26935669966042">
<ele>411.8</ele>
<time>2024-05-10T09:17:34Z</time>
</trkpt>
<trkpt lat="49.53167335130274" lon="9.26931948401034">
<ele>412</ele>
<time>2024-05-10T09:17:35Z</time>
</trkpt>
<trkpt lat="49.53168097883463" lon="9.269285202026367">
<ele>412.2</ele>
<time>2024-05-10T09:17:36Z</time>
</trkpt>
<trkpt lat="49.53168483451009" lon="9.269249914214017">
<ele>412.2</ele>
<time>2024-05-10T09:17:37Z</time>
</trkpt>
<trkpt lat="49.531692462041974" lon="9.269214626401665">
<ele>412.4</ele>
<time>2024-05-10T09:17:38Z</time>
</trkpt>
<trkpt lat="49.53170008957386" lon="9.26917833276093">
<ele>412.6</ele>
<time>2024-05-10T09:17:39Z</time>
</trkpt>
<trkpt lat="49.531707717105746" lon="9.269144972786307">
<ele>412.6</ele>
<time>2024-05-10T09:17:40Z</time>
</trkpt>
<trkpt lat="49.53171534463763" lon="9.269108762964606">
<ele>412.8</ele>
<time>2024-05-10T09:17:41Z</time>
</trkpt>
<trkpt lat="49.53172297216952" lon="9.269073475152254">
<ele>413</ele>
<time>2024-05-10T09:17:42Z</time>
</trkpt>
<trkpt lat="49.531730599701405" lon="9.269036259502172">
<ele>413.2</ele>
<time>2024-05-10T09:17:43Z</time>
</trkpt>
<trkpt lat="49.53173822723329" lon="9.26900189369917">
<ele>413.6</ele>
<time>2024-05-10T09:17:44Z</time>
</trkpt>
<trkpt lat="49.53174208290875" lon="9.26896476186812">
<ele>413.6</ele>
<time>2024-05-10T09:17:45Z</time>
</trkpt>
<trkpt lat="49.53175348229706" lon="9.268930396065116">
<ele>413.8</ele>
<time>2024-05-10T09:17:46Z</time>
</trkpt>
<trkpt lat="49.53176110982895" lon="9.268893180415034">
<ele>414</ele>
<time>2024-05-10T09:17:47Z</time>
</trkpt>
<trkpt lat="49.53177636489272" lon="9.26882361061871">
<ele>414.2</ele>
<time>2024-05-10T09:17:49Z</time>
</trkpt>
<trkpt lat="49.53178399242461" lon="9.268788322806358">
<ele>414.4</ele>
<time>2024-05-10T09:17:50Z</time>
</trkpt>
<trkpt lat="49.53179161995649" lon="9.268756806850432">
<ele>414.6</ele>
<time>2024-05-10T09:17:51Z</time>
</trkpt>
<trkpt lat="49.53179924748838" lon="9.26872344687581">
<ele>414.8</ele>
<time>2024-05-10T09:17:52Z</time>
</trkpt>
<trkpt lat="49.531806875020266" lon="9.268690086901188">
<ele>415</ele>
<time>2024-05-10T09:17:53Z</time>
</trkpt>
<trkpt lat="49.53181450255215" lon="9.268652871251106">
<ele>415.2</ele>
<time>2024-05-10T09:17:54Z</time>
</trkpt>
<trkpt lat="49.53182213008404" lon="9.268614733591676">
<ele>415.4</ele>
<time>2024-05-10T09:17:55Z</time>
</trkpt>
<trkpt lat="49.53182975761592" lon="9.268580367788672">
<ele>415.6</ele>
<time>2024-05-10T09:17:56Z</time>
</trkpt>
<trkpt lat="49.53183738514781" lon="9.26854507997632">
<ele>415.8</ele>
<time>2024-05-10T09:17:57Z</time>
</trkpt>
<trkpt lat="49.53184124082327" lon="9.268509792163968">
<ele>416</ele>
<time>2024-05-10T09:17:58Z</time>
</trkpt>
<trkpt lat="49.531845012679696" lon="9.268474504351616">
<ele>416.2</ele>
<time>2024-05-10T09:17:59Z</time>
</trkpt>
<trkpt lat="49.53185264021158" lon="9.268440222367644">
<ele>416.4</ele>
<time>2024-05-10T09:18:00Z</time>
</trkpt>
<trkpt lat="49.53185649588704" lon="9.268404934555292">
<ele>416.6</ele>
<time>2024-05-10T09:18:01Z</time>
</trkpt>
<trkpt lat="49.53186412341893" lon="9.26836964674294">
<ele>416.8</ele>
<time>2024-05-10T09:18:02Z</time>
</trkpt>
<trkpt lat="49.53187175095081" lon="9.268336286768315">
<ele>417</ele>
<time>2024-05-10T09:18:03Z</time>
</trkpt>
<trkpt lat="49.5318793784827" lon="9.268296221271155">
<ele>417.2</ele>
<time>2024-05-10T09:18:04Z</time>
</trkpt>
<trkpt lat="49.53188323415816" lon="9.268257077783346">
<ele>417.4</ele>
<time>2024-05-10T09:18:05Z</time>
</trkpt>
<trkpt lat="49.53189086169005" lon="9.268215168267488">
<ele>417.4</ele>
<time>2024-05-10T09:18:06Z</time>
</trkpt>
<trkpt lat="49.53189463354647" lon="9.268175102770329">
<ele>417.6</ele>
<time>2024-05-10T09:18:07Z</time>
</trkpt>
<trkpt lat="49.53190226107836" lon="9.268136965110898">
<ele>417.8</ele>
<time>2024-05-10T09:18:08Z</time>
</trkpt>
<trkpt lat="49.53190988861024" lon="9.268097821623089">
<ele>418</ele>
<time>2024-05-10T09:18:09Z</time>
</trkpt>
<trkpt lat="49.5319137442857" lon="9.268059683963656">
<ele>418.2</ele>
<time>2024-05-10T09:18:10Z</time>
</trkpt>
<trkpt lat="49.53191751614213" lon="9.268019618466496">
<ele>418.4</ele>
<time>2024-05-10T09:18:11Z</time>
</trkpt>
<trkpt lat="49.531925143674016" lon="9.267981480807066">
<ele>418.6</ele>
<time>2024-05-10T09:18:12Z</time>
</trkpt>
<trkpt lat="49.531928999349475" lon="9.267939487472177">
<ele>418.8</ele>
<time>2024-05-10T09:18:13Z</time>
</trkpt>
<trkpt lat="49.5319327712059" lon="9.267900427803395">
<ele>419</ele>
<time>2024-05-10T09:18:14Z</time>
</trkpt>
<trkpt lat="49.53194039873779" lon="9.267860362306235">
<ele>419.2</ele>
<time>2024-05-10T09:18:15Z</time>
</trkpt>
<trkpt lat="49.53194425441325" lon="9.267821302637458">
<ele>419.4</ele>
<time>2024-05-10T09:18:16Z</time>
</trkpt>
<trkpt lat="49.53195188194513" lon="9.267783164978027">
<ele>419.6</ele>
<time>2024-05-10T09:18:17Z</time>
</trkpt>
<trkpt lat="49.53195950947702" lon="9.267744943499563">
<ele>419.8</ele>
<time>2024-05-10T09:18:18Z</time>
</trkpt>
<trkpt lat="49.53196328133345" lon="9.267708733677864">
<ele>420</ele>
<time>2024-05-10T09:18:19Z</time>
</trkpt>
<trkpt lat="49.531967137008905" lon="9.267669674009085">
<ele>420.4</ele>
<time>2024-05-10T09:18:20Z</time>
</trkpt>
<trkpt lat="49.53197090886533" lon="9.26763623021543">
<ele>420.6</ele>
<time>2024-05-10T09:18:21Z</time>
</trkpt>
<trkpt lat="49.53197476454079" lon="9.267602870240808">
<ele>420.8</ele>
<time>2024-05-10T09:18:22Z</time>
</trkpt>
<trkpt lat="49.53197853639722" lon="9.267569510266185">
<ele>421</ele>
<time>2024-05-10T09:18:23Z</time>
</trkpt>
<trkpt lat="49.53198239207268" lon="9.267531372606754">
<ele>421.2</ele>
<time>2024-05-10T09:18:24Z</time>
</trkpt>
<trkpt lat="49.531986163929105" lon="9.267491307109594">
<ele>421.6</ele>
<time>2024-05-10T09:18:25Z</time>
</trkpt>
<trkpt lat="49.53199001960456" lon="9.267453169450164">
<ele>421.8</ele>
<time>2024-05-10T09:18:26Z</time>
</trkpt>
<trkpt lat="49.53199379146099" lon="9.267415031790732">
<ele>422</ele>
<time>2024-05-10T09:18:27Z</time>
</trkpt>
<trkpt lat="49.53199764713645" lon="9.267376894131305">
<ele>422.2</ele>
<time>2024-05-10T09:18:28Z</time>
</trkpt>
<trkpt lat="49.53200141899288" lon="9.26733967848122">
<ele>422.4</ele>
<time>2024-05-10T09:18:29Z</time>
</trkpt>
<trkpt lat="49.53200904652476" lon="9.26730154082179">
<ele>422.8</ele>
<time>2024-05-10T09:18:30Z</time>
</trkpt>
<trkpt lat="49.53201290220022" lon="9.2672595474869">
<ele>423</ele>
<time>2024-05-10T09:18:31Z</time>
</trkpt>
<trkpt lat="49.53201667405665" lon="9.26721948198974">
<ele>423.2</ele>
<time>2024-05-10T09:18:32Z</time>
</trkpt>
<trkpt lat="49.53202052973211" lon="9.26718134433031">
<ele>423.4</ele>
<time>2024-05-10T09:18:33Z</time>
</trkpt>
<trkpt lat="49.532028157263994" lon="9.26714320667088">
<ele>423.6</ele>
<time>2024-05-10T09:18:34Z</time>
</trkpt>
<trkpt lat="49.532028157263994" lon="9.267107918858528">
<ele>423.8</ele>
<time>2024-05-10T09:18:35Z</time>
</trkpt>
<trkpt lat="49.53203578479588" lon="9.267067853361368">
<ele>424.2</ele>
<time>2024-05-10T09:18:36Z</time>
</trkpt>
<trkpt lat="49.53203964047134" lon="9.267028793692589">
<ele>424.4</ele>
<time>2024-05-10T09:18:37Z</time>
</trkpt>
<trkpt lat="49.532047268003225" lon="9.266988728195429">
<ele>424.6</ele>
<time>2024-05-10T09:18:38Z</time>
</trkpt>
<trkpt lat="49.53205489553511" lon="9.266948662698267">
<ele>424.8</ele>
<time>2024-05-10T09:18:39Z</time>
</trkpt>
<trkpt lat="49.53205866739154" lon="9.266913374885917">
<ele>425</ele>
<time>2024-05-10T09:18:40Z</time>
</trkpt>
<trkpt lat="49.532062523067" lon="9.266876159235837">
<ele>425.2</ele>
<time>2024-05-10T09:18:41Z</time>
</trkpt>
<trkpt lat="49.53207015059888" lon="9.266846654936671">
<ele>425.2</ele>
<time>2024-05-10T09:18:42Z</time>
</trkpt>
<trkpt lat="49.53207392245531" lon="9.266817988827825">
<ele>425.4</ele>
<time>2024-05-10T09:18:43Z</time>
</trkpt>
<trkpt lat="49.53207777813077" lon="9.26679032854736">
<ele>425.6</ele>
<time>2024-05-10T09:18:44Z</time>
</trkpt>
<trkpt lat="49.5320815499872" lon="9.266756968572736">
<ele>425.8</ele>
<time>2024-05-10T09:18:45Z</time>
</trkpt>
<trkpt lat="49.532085405662656" lon="9.266719752922654">
<ele>426</ele>
<time>2024-05-10T09:18:46Z</time>
</trkpt>
<trkpt lat="49.53208917751908" lon="9.266683543100951">
<ele>426</ele>
<time>2024-05-10T09:18:47Z</time>
</trkpt>
<trkpt lat="49.53209680505097" lon="9.266646327450871">
<ele>426.2</ele>
<time>2024-05-10T09:18:48Z</time>
</trkpt>
<trkpt lat="49.53210066072643" lon="9.26661011762917">
<ele>426.4</ele>
<time>2024-05-10T09:18:49Z</time>
</trkpt>
<trkpt lat="49.532104432582855" lon="9.26657197996974">
<ele>426.6</ele>
<time>2024-05-10T09:18:50Z</time>
</trkpt>
<trkpt lat="49.532108288258314" lon="9.266532836481929">
<ele>426.8</ele>
<time>2024-05-10T09:18:51Z</time>
</trkpt>
<trkpt lat="49.5321159157902" lon="9.26649184897542">
<ele>427</ele>
<time>2024-05-10T09:18:52Z</time>
</trkpt>
<trkpt lat="49.53211968764663" lon="9.26645178347826">
<ele>427.2</ele>
<time>2024-05-10T09:18:53Z</time>
</trkpt>
<trkpt lat="49.53212731517851" lon="9.266407946124671">
<ele>427.4</ele>
<time>2024-05-10T09:18:54Z</time>
</trkpt>
<trkpt lat="49.5321349427104" lon="9.266366958618164">
<ele>427.6</ele>
<time>2024-05-10T09:18:55Z</time>
</trkpt>
<trkpt lat="49.53213879838586" lon="9.266324965283276">
<ele>427.8</ele>
<time>2024-05-10T09:18:56Z</time>
</trkpt>
<trkpt lat="49.532146425917745" lon="9.266282971948383">
<ele>428</ele>
<time>2024-05-10T09:18:57Z</time>
</trkpt>
<trkpt lat="49.53215019777417" lon="9.266242906451224">
<ele>428.2</ele>
<time>2024-05-10T09:18:58Z</time>
</trkpt>
<trkpt lat="49.53216168098152" lon="9.266201918944716">
<ele>428.4</ele>
<time>2024-05-10T09:18:59Z</time>
</trkpt>
<trkpt lat="49.532165452837944" lon="9.266157075762749">
<ele>428.6</ele>
<time>2024-05-10T09:19:00Z</time>
</trkpt>
<trkpt lat="49.53217308036983" lon="9.266111310571432">
<ele>428.8</ele>
<time>2024-05-10T09:19:01Z</time>
</trkpt>
<trkpt lat="49.53218070790171" lon="9.266068395227194">
<ele>428.8</ele>
<time>2024-05-10T09:19:02Z</time>
</trkpt>
<trkpt lat="49.5321883354336" lon="9.266024557873608">
<ele>429</ele>
<time>2024-05-10T09:19:03Z</time>
</trkpt>
<trkpt lat="49.53219596296549" lon="9.26597971469164">
<ele>429.2</ele>
<time>2024-05-10T09:19:04Z</time>
</trkpt>
<trkpt lat="49.532203674316406" lon="9.265934871509671">
<ele>429.4</ele>
<time>2024-05-10T09:19:05Z</time>
</trkpt>
<trkpt lat="49.53221130184829" lon="9.265890112146735">
<ele>429.6</ele>
<time>2024-05-10T09:19:06Z</time>
</trkpt>
<trkpt lat="49.53221892938018" lon="9.265850046649575">
<ele>429.8</ele>
<time>2024-05-10T09:19:07Z</time>
</trkpt>
<trkpt lat="49.532226556912065" lon="9.265811908990145">
<ele>430</ele>
<time>2024-05-10T09:19:08Z</time>
</trkpt>
<trkpt lat="49.53223418444395" lon="9.265771843492985">
<ele>430.2</ele>
<time>2024-05-10T09:19:09Z</time>
</trkpt>
<trkpt lat="49.53224181197584" lon="9.265731777995825">
<ele>430.2</ele>
<time>2024-05-10T09:19:10Z</time>
</trkpt>
<trkpt lat="49.53225321136415" lon="9.265694562345743">
<ele>430.4</ele>
<time>2024-05-10T09:19:11Z</time>
</trkpt>
<trkpt lat="49.53226083889603" lon="9.265656424686313">
<ele>430.6</ele>
<time>2024-05-10T09:19:12Z</time>
</trkpt>
<trkpt lat="49.53226846642792" lon="9.265618287026882">
<ele>430.8</ele>
<time>2024-05-10T09:19:13Z</time>
</trkpt>
<trkpt lat="49.53227609395981" lon="9.26558207720518">
<ele>431</ele>
<time>2024-05-10T09:19:14Z</time>
</trkpt>
<trkpt lat="49.532283721491694" lon="9.26554201170802">
<ele>431.2</ele>
<time>2024-05-10T09:19:15Z</time>
</trkpt>
<trkpt lat="49.53229520469904" lon="9.26550286822021">
<ele>431.4</ele>
<time>2024-05-10T09:19:16Z</time>
</trkpt>
<trkpt lat="49.53230660408735" lon="9.26546280272305">
<ele>431.6</ele>
<time>2024-05-10T09:19:17Z</time>
</trkpt>
<trkpt lat="49.53231423161924" lon="9.26542374305427">
<ele>431.6</ele>
<time>2024-05-10T09:19:18Z</time>
</trkpt>
<trkpt lat="49.532321859151125" lon="9.26538174971938">
<ele>431.8</ele>
<time>2024-05-10T09:19:19Z</time>
</trkpt>
<trkpt lat="49.53233334235847" lon="9.26534361205995">
<ele>432</ele>
<time>2024-05-10T09:19:20Z</time>
</trkpt>
<trkpt lat="49.53234474174678" lon="9.265299774706364">
<ele>432.2</ele>
<time>2024-05-10T09:19:21Z</time>
</trkpt>
<trkpt lat="49.53235236927867" lon="9.265258787199857">
<ele>432.4</ele>
<time>2024-05-10T09:19:22Z</time>
</trkpt>
<trkpt lat="49.532363852486014" lon="9.265216793864964">
<ele>432.6</ele>
<time>2024-05-10T09:19:23Z</time>
</trkpt>
<trkpt lat="49.5323714800179" lon="9.265176728367804">
<ele>432.8</ele>
<time>2024-05-10T09:19:24Z</time>
</trkpt>
<trkpt lat="49.53238673508167" lon="9.265139512717724">
<ele>433</ele>
<time>2024-05-10T09:19:25Z</time>
</trkpt>
<trkpt lat="49.53239436261356" lon="9.265105230733752">
<ele>433.2</ele>
<time>2024-05-10T09:19:26Z</time>
</trkpt>
<trkpt lat="49.532405845820904" lon="9.265071786940098">
<ele>433.2</ele>
<time>2024-05-10T09:19:27Z</time>
</trkpt>
<trkpt lat="49.53241347335279" lon="9.265034655109048">
<ele>433.4</ele>
<time>2024-05-10T09:19:28Z</time>
</trkpt>
<trkpt lat="49.5324248727411" lon="9.265000289306045">
<ele>433.6</ele>
<time>2024-05-10T09:19:29Z</time>
</trkpt>
<trkpt lat="49.53243635594845" lon="9.264961229637263">
<ele>433.8</ele>
<time>2024-05-10T09:19:30Z</time>
</trkpt>
<trkpt lat="49.53244775533676" lon="9.264926863834262">
<ele>434</ele>
<time>2024-05-10T09:19:31Z</time>
</trkpt>
<trkpt lat="49.53245538286865" lon="9.26489157602191">
<ele>434.2</ele>
<time>2024-05-10T09:19:32Z</time>
</trkpt>
<trkpt lat="49.53246686607599" lon="9.264856288209558">
<ele>434.4</ele>
<time>2024-05-10T09:19:33Z</time>
</trkpt>
<trkpt lat="49.532478265464306" lon="9.264820078387856">
<ele>434.6</ele>
<time>2024-05-10T09:19:34Z</time>
</trkpt>
<trkpt lat="49.53248974867165" lon="9.264782862737777">
<ele>434.8</ele>
<time>2024-05-10T09:19:35Z</time>
</trkpt>
<trkpt lat="49.53250114805997" lon="9.264744725078344">
<ele>435</ele>
<time>2024-05-10T09:19:36Z</time>
</trkpt>
<trkpt lat="49.53251263126731" lon="9.264704659581184">
<ele>435.2</ele>
<time>2024-05-10T09:19:37Z</time>
</trkpt>
<trkpt lat="49.532520258799195" lon="9.264666521921754">
<ele>435.4</ele>
<time>2024-05-10T09:19:38Z</time>
</trkpt>
<trkpt lat="49.53253165818751" lon="9.264626456424594">
<ele>435.4</ele>
<time>2024-05-10T09:19:39Z</time>
</trkpt>
<trkpt lat="49.532543141394854" lon="9.264586390927434">
<ele>435.6</ele>
<time>2024-05-10T09:19:40Z</time>
</trkpt>
<trkpt lat="49.5325546246022" lon="9.264546325430274">
<ele>435.6</ele>
<time>2024-05-10T09:19:41Z</time>
</trkpt>
<trkpt lat="49.53256987966597" lon="9.264510115608571">
<ele>435.8</ele>
<time>2024-05-10T09:19:42Z</time>
</trkpt>
<trkpt lat="49.53258127905429" lon="9.264472899958491">
<ele>436</ele>
<time>2024-05-10T09:19:43Z</time>
</trkpt>
<trkpt lat="49.532596534118056" lon="9.26443669013679">
<ele>436.2</ele>
<time>2024-05-10T09:19:44Z</time>
</trkpt>
<trkpt lat="49.5326080173254" lon="9.264401402324438">
<ele>436.4</ele>
<time>2024-05-10T09:19:45Z</time>
</trkpt>
<trkpt lat="49.532619416713715" lon="9.264365192502735">
<ele>436.4</ele>
<time>2024-05-10T09:19:46Z</time>
</trkpt>
<trkpt lat="49.53263089992106" lon="9.264326971024277">
<ele>436.6</ele>
<time>2024-05-10T09:19:47Z</time>
</trkpt>
<trkpt lat="49.53264229930937" lon="9.264291683211924">
<ele>436.8</ele>
<time>2024-05-10T09:19:48Z</time>
</trkpt>
<trkpt lat="49.53265378251672" lon="9.264254551380873">
<ele>436.8</ele>
<time>2024-05-10T09:19:49Z</time>
</trkpt>
<trkpt lat="49.53266518190503" lon="9.264216413721442">
<ele>437</ele>
<time>2024-05-10T09:19:50Z</time>
</trkpt>
<trkpt lat="49.532676665112376" lon="9.264178276062012">
<ele>437.2</ele>
<time>2024-05-10T09:19:51Z</time>
</trkpt>
<trkpt lat="49.53268806450069" lon="9.264136282727122">
<ele>437.4</ele>
<time>2024-05-10T09:19:52Z</time>
</trkpt>
<trkpt lat="49.532699547708035" lon="9.264095295220612">
<ele>437.6</ele>
<time>2024-05-10T09:19:53Z</time>
</trkpt>
<trkpt lat="49.53271094709635" lon="9.264055229723454">
<ele>437.6</ele>
<time>2024-05-10T09:19:54Z</time>
</trkpt>
<trkpt lat="49.53272243030369" lon="9.264015164226294">
<ele>437.8</ele>
<time>2024-05-10T09:19:55Z</time>
</trkpt>
<trkpt lat="49.53273391351104" lon="9.263977948576212">
<ele>438</ele>
<time>2024-05-10T09:19:56Z</time>
</trkpt>
<trkpt lat="49.53274916857481" lon="9.26393981091678">
<ele>438.4</ele>
<time>2024-05-10T09:19:57Z</time>
</trkpt>
<trkpt lat="49.53276056796312" lon="9.26389974541962">
<ele>438.6</ele>
<time>2024-05-10T09:19:58Z</time>
</trkpt>
<trkpt lat="49.53277205117047" lon="9.263861607760193">
<ele>438.8</ele>
<time>2024-05-10T09:19:59Z</time>
</trkpt>
<trkpt lat="49.53278730623424" lon="9.263821542263033">
<ele>439</ele>
<time>2024-05-10T09:20:00Z</time>
</trkpt>
<trkpt lat="49.53279493376613" lon="9.263781476765873">
<ele>439.2</ele>
<time>2024-05-10T09:20:01Z</time>
</trkpt>
<trkpt lat="49.5328101888299" lon="9.26374333910644">
<ele>439.4</ele>
<time>2024-05-10T09:20:02Z</time>
</trkpt>
<trkpt lat="49.53282158821821" lon="9.26370327360928">
<ele>439.6</ele>
<time>2024-05-10T09:20:03Z</time>
</trkpt>
<trkpt lat="49.532836843281984" lon="9.26366513594985">
<ele>440</ele>
<time>2024-05-10T09:20:04Z</time>
</trkpt>
<trkpt lat="49.53284832648933" lon="9.26362699829042">
<ele>440.2</ele>
<time>2024-05-10T09:20:05Z</time>
</trkpt>
<trkpt lat="49.53285972587764" lon="9.263585088774562">
<ele>440.4</ele>
<time>2024-05-10T09:20:06Z</time>
</trkpt>
<trkpt lat="49.53287120908499" lon="9.2635468672961">
<ele>440.6</ele>
<time>2024-05-10T09:20:07Z</time>
</trkpt>
<trkpt lat="49.53288646414876" lon="9.263506885617971">
<ele>440.8</ele>
<time>2024-05-10T09:20:08Z</time>
</trkpt>
<trkpt lat="49.532897947356105" lon="9.263464892283082">
<ele>441</ele>
<time>2024-05-10T09:20:09Z</time>
</trkpt>
<trkpt lat="49.53290557488799" lon="9.263421976938844">
<ele>441.2</ele>
<time>2024-05-10T09:20:10Z</time>
</trkpt>
<trkpt lat="49.532916974276304" lon="9.263378139585257">
<ele>441.2</ele>
<time>2024-05-10T09:20:11Z</time>
</trkpt>
<trkpt lat="49.53292845748365" lon="9.263336146250367">
<ele>441.4</ele>
<time>2024-05-10T09:20:12Z</time>
</trkpt>
<trkpt lat="49.53294371254742" lon="9.263297002762556">
<ele>441.6</ele>
<time>2024-05-10T09:20:13Z</time>
</trkpt>
<trkpt lat="49.532955111935735" lon="9.263255093246698">
<ele>441.6</ele>
<time>2024-05-10T09:20:14Z</time>
</trkpt>
<trkpt lat="49.53296273946762" lon="9.263217877596617">
<ele>441.8</ele>
<time>2024-05-10T09:20:15Z</time>
</trkpt>
<trkpt lat="49.532974222674966" lon="9.263179739937186">
<ele>442</ele>
<time>2024-05-10T09:20:16Z</time>
</trkpt>
<trkpt lat="49.53298185020685" lon="9.263139674440026">
<ele>442</ele>
<time>2024-05-10T09:20:17Z</time>
</trkpt>
<trkpt lat="49.532993249595165" lon="9.263101536780596">
<ele>442.2</ele>
<time>2024-05-10T09:20:18Z</time>
</trkpt>
<trkpt lat="49.53300473280251" lon="9.263063399121163">
<ele>442.4</ele>
<time>2024-05-10T09:20:19Z</time>
</trkpt>
<trkpt lat="49.533016132190824" lon="9.263025261461737">
<ele>442.6</ele>
<time>2024-05-10T09:20:20Z</time>
</trkpt>
<trkpt lat="49.53302761539817" lon="9.262987123802304">
<ele>442.8</ele>
<time>2024-05-10T09:20:21Z</time>
</trkpt>
<trkpt lat="49.53303901478648" lon="9.262949908152224">
<ele>443</ele>
<time>2024-05-10T09:20:22Z</time>
</trkpt>
<trkpt lat="49.53305049799383" lon="9.262911770492792">
<ele>443.2</ele>
<time>2024-05-10T09:20:23Z</time>
</trkpt>
<trkpt lat="49.53305812552571" lon="9.262873632833362">
<ele>443.4</ele>
<time>2024-05-10T09:20:24Z</time>
</trkpt>
<trkpt lat="49.533073380589485" lon="9.26283448934555">
<ele>443.8</ele>
<time>2024-05-10T09:20:25Z</time>
</trkpt>
<trkpt lat="49.53308486379683" lon="9.262795429676771">
<ele>444</ele>
<time>2024-05-10T09:20:26Z</time>
</trkpt>
<trkpt lat="49.53309626318514" lon="9.26275628618896">
<ele>444.4</ele>
<time>2024-05-10T09:20:27Z</time>
</trkpt>
<trkpt lat="49.53310774639249" lon="9.2627162206918">
<ele>444.6</ele>
<time>2024-05-10T09:20:28Z</time>
</trkpt>
<trkpt lat="49.533115373924375" lon="9.262676239013672">
<ele>444.8</ele>
<time>2024-05-10T09:20:29Z</time>
</trkpt>
<trkpt lat="49.53313825652003" lon="9.2625970300287">
<ele>445</ele>
<time>2024-05-10T09:20:31Z</time>
</trkpt>
<trkpt lat="49.533149655908346" lon="9.26255981437862">
<ele>445.4</ele>
<time>2024-05-10T09:20:32Z</time>
</trkpt>
<trkpt lat="49.53315728344023" lon="9.262521676719189">
<ele>445.6</ele>
<time>2024-05-10T09:20:33Z</time>
</trkpt>
<trkpt lat="49.53316876664758" lon="9.262481611222029">
<ele>446</ele>
<time>2024-05-10T09:20:34Z</time>
</trkpt>
<trkpt lat="49.53318016603589" lon="9.262443473562598">
<ele>446.2</ele>
<time>2024-05-10T09:20:35Z</time>
</trkpt>
<trkpt lat="49.53318779356778" lon="9.262406341731548">
<ele>446.4</ele>
<time>2024-05-10T09:20:36Z</time>
</trkpt>
<trkpt lat="49.53320304863155" lon="9.262371975928543">
<ele>446.6</ele>
<time>2024-05-10T09:20:37Z</time>
</trkpt>
<trkpt lat="49.533214531838894" lon="9.262336688116193">
<ele>446.8</ele>
<time>2024-05-10T09:20:38Z</time>
</trkpt>
<trkpt lat="49.53322593122721" lon="9.26230140030384">
<ele>447</ele>
<time>2024-05-10T09:20:39Z</time>
</trkpt>
<trkpt lat="49.53323741443455" lon="9.262267034500836">
<ele>447.2</ele>
<time>2024-05-10T09:20:40Z</time>
</trkpt>
<trkpt lat="49.5332488976419" lon="9.262233674526216">
<ele>447.4</ele>
<time>2024-05-10T09:20:41Z</time>
</trkpt>
<trkpt lat="49.53325652517378" lon="9.262198386713862">
<ele>447.6</ele>
<time>2024-05-10T09:20:42Z</time>
</trkpt>
<trkpt lat="49.53326415270567" lon="9.26216309890151">
<ele>447.8</ele>
<time>2024-05-10T09:20:43Z</time>
</trkpt>
<trkpt lat="49.53327555209398" lon="9.262127811089158">
<ele>448</ele>
<time>2024-05-10T09:20:44Z</time>
</trkpt>
<trkpt lat="49.53328703530133" lon="9.262091601267455">
<ele>448.2</ele>
<time>2024-05-10T09:20:45Z</time>
</trkpt>
<trkpt lat="49.53329843468964" lon="9.262056313455105">
<ele>448.4</ele>
<time>2024-05-10T09:20:46Z</time>
</trkpt>
<trkpt lat="49.53330606222153" lon="9.262022953480482">
<ele>448.6</ele>
<time>2024-05-10T09:20:47Z</time>
</trkpt>
<trkpt lat="49.533309917896986" lon="9.261996215209363">
<ele>448.8</ele>
<time>2024-05-10T09:20:48Z</time>
</trkpt>
<trkpt lat="49.5333213172853" lon="9.2619685549289">
<ele>449</ele>
<time>2024-05-10T09:20:49Z</time>
</trkpt>
<trkpt lat="49.533328944817185" lon="9.261938044801354">
<ele>449.2</ele>
<time>2024-05-10T09:20:50Z</time>
</trkpt>
<trkpt lat="49.53334042802453" lon="9.26190845668316">
<ele>449.4</ele>
<time>2024-05-10T09:20:51Z</time>
</trkpt>
<trkpt lat="49.53334805555642" lon="9.261871324852107">
<ele>449.6</ele>
<time>2024-05-10T09:20:52Z</time>
</trkpt>
<trkpt lat="49.53335945494473" lon="9.261835031211376">
<ele>449.6</ele>
<time>2024-05-10T09:20:53Z</time>
</trkpt>
<trkpt lat="49.533367082476616" lon="9.261794965714216">
<ele>449.8</ele>
<time>2024-05-10T09:20:54Z</time>
</trkpt>
<trkpt lat="49.53337856568396" lon="9.261754984036088">
<ele>449.8</ele>
<time>2024-05-10T09:20:55Z</time>
</trkpt>
<trkpt lat="49.533389965072274" lon="9.261718690395355">
<ele>450</ele>
<time>2024-05-10T09:20:56Z</time>
</trkpt>
<trkpt lat="49.53340144827962" lon="9.261679630726576">
<ele>450</ele>
<time>2024-05-10T09:20:57Z</time>
</trkpt>
<trkpt lat="49.53341293148696" lon="9.261639565229416">
<ele>450.2</ele>
<time>2024-05-10T09:20:58Z</time>
</trkpt>
<trkpt lat="49.53342433087528" lon="9.261601427569984">
<ele>450.4</ele>
<time>2024-05-10T09:20:59Z</time>
</trkpt>
<trkpt lat="49.53343581408262" lon="9.261561362072824">
<ele>450.6</ele>
<time>2024-05-10T09:21:00Z</time>
</trkpt>
<trkpt lat="49.53344344161451" lon="9.261525152251124">
<ele>450.8</ele>
<time>2024-05-10T09:21:01Z</time>
</trkpt>
<trkpt lat="49.53345869667828" lon="9.261486930772662">
<ele>451</ele>
<time>2024-05-10T09:21:02Z</time>
</trkpt>
<trkpt lat="49.533470096066594" lon="9.261447871103885">
<ele>451.2</ele>
<time>2024-05-10T09:21:03Z</time>
</trkpt>
<trkpt lat="49.53348157927394" lon="9.261409733444452">
<ele>451.4</ele>
<time>2024-05-10T09:21:04Z</time>
</trkpt>
<trkpt lat="49.53349297866225" lon="9.261371595785022">
<ele>451.6</ele>
<time>2024-05-10T09:21:05Z</time>
</trkpt>
<trkpt lat="49.5335044618696" lon="9.261333458125591">
<ele>452</ele>
<time>2024-05-10T09:21:06Z</time>
</trkpt>
<trkpt lat="49.53351586125791" lon="9.261295236647127">
<ele>452.2</ele>
<time>2024-05-10T09:21:07Z</time>
</trkpt>
<trkpt lat="49.53353111632168" lon="9.261255254969">
<ele>452.4</ele>
<time>2024-05-10T09:21:08Z</time>
</trkpt>
<trkpt lat="49.53353874385357" lon="9.26121711730957">
<ele>452.6</ele>
<time>2024-05-10T09:21:09Z</time>
</trkpt>
<trkpt lat="49.533550227060914" lon="9.261179901659489">
<ele>452.8</ele>
<time>2024-05-10T09:21:10Z</time>
</trkpt>
<trkpt lat="49.53356162644923" lon="9.261141764000058">
<ele>453</ele>
<time>2024-05-10T09:21:11Z</time>
</trkpt>
<trkpt lat="49.53357310965657" lon="9.261101698502898">
<ele>453.2</ele>
<time>2024-05-10T09:21:12Z</time>
</trkpt>
<trkpt lat="49.53358459286392" lon="9.261063560843468">
<ele>453.4</ele>
<time>2024-05-10T09:21:13Z</time>
</trkpt>
<trkpt lat="49.53359599225223" lon="9.261021567508578">
<ele>453.6</ele>
<time>2024-05-10T09:21:14Z</time>
</trkpt>
<trkpt lat="49.533607475459576" lon="9.260983429849148">
<ele>453.8</ele>
<time>2024-05-10T09:21:15Z</time>
</trkpt>
<trkpt lat="49.53361887484789" lon="9.260945292189716">
<ele>453.8</ele>
<time>2024-05-10T09:21:16Z</time>
</trkpt>
<trkpt lat="49.533630358055234" lon="9.260905226692556">
<ele>454</ele>
<time>2024-05-10T09:21:17Z</time>
</trkpt>
<trkpt lat="49.53364175744355" lon="9.260863233357668">
<ele>454.2</ele>
<time>2024-05-10T09:21:18Z</time>
</trkpt>
<trkpt lat="49.53365324065089" lon="9.26082132384181">
<ele>454.4</ele>
<time>2024-05-10T09:21:19Z</time>
</trkpt>
<trkpt lat="49.533668495714664" lon="9.26078025251627">
<ele>454.6</ele>
<time>2024-05-10T09:21:20Z</time>
</trkpt>
<trkpt lat="49.53367989510298" lon="9.260734487324951">
<ele>454.6</ele>
<time>2024-05-10T09:21:21Z</time>
</trkpt>
<trkpt lat="49.53369137831032" lon="9.260689727962015">
<ele>454.8</ele>
<time>2024-05-10T09:21:22Z</time>
</trkpt>
<trkpt lat="49.533706633374095" lon="9.26064488478005">
<ele>455.2</ele>
<time>2024-05-10T09:21:23Z</time>
</trkpt>
<trkpt lat="49.53371803276241" lon="9.260598113760352">
<ele>455.4</ele>
<time>2024-05-10T09:21:24Z</time>
</trkpt>
<trkpt lat="49.53372951596975" lon="9.260553354397416">
<ele>455.6</ele>
<time>2024-05-10T09:21:25Z</time>
</trkpt>
<trkpt lat="49.53374091535807" lon="9.260508511215448">
<ele>455.8</ele>
<time>2024-05-10T09:21:26Z</time>
</trkpt>
<trkpt lat="49.53375239856541" lon="9.26046459004283">
<ele>456</ele>
<time>2024-05-10T09:21:27Z</time>
</trkpt>
<trkpt lat="49.5337600260973" lon="9.260419830679892">
<ele>456.2</ele>
<time>2024-05-10T09:21:28Z</time>
</trkpt>
<trkpt lat="49.53377150930464" lon="9.260374987497926">
<ele>456.2</ele>
<time>2024-05-10T09:21:29Z</time>
</trkpt>
<trkpt lat="49.53378290869296" lon="9.260330144315958">
<ele>456.4</ele>
<time>2024-05-10T09:21:30Z</time>
</trkpt>
<trkpt lat="49.5337943919003" lon="9.26028630696237">
<ele>456.6</ele>
<time>2024-05-10T09:21:31Z</time>
</trkpt>
<trkpt lat="49.533805791288614" lon="9.260241463780403">
<ele>456.8</ele>
<time>2024-05-10T09:21:32Z</time>
</trkpt>
<trkpt lat="49.53381727449596" lon="9.260196620598435">
<ele>457</ele>
<time>2024-05-10T09:21:33Z</time>
</trkpt>
<trkpt lat="49.533824902027845" lon="9.260153705254195">
<ele>457.2</ele>
<time>2024-05-10T09:21:34Z</time>
</trkpt>
<trkpt lat="49.53383630141616" lon="9.26010794006288">
<ele>457.4</ele>
<time>2024-05-10T09:21:35Z</time>
</trkpt>
<trkpt lat="49.533847784623504" lon="9.260066952556372">
<ele>457.6</ele>
<time>2024-05-10T09:21:36Z</time>
</trkpt>
<trkpt lat="49.53385541215539" lon="9.260023115202785">
<ele>457.8</ele>
<time>2024-05-10T09:21:37Z</time>
</trkpt>
<trkpt lat="49.5338668115437" lon="9.259983049705625">
<ele>458</ele>
<time>2024-05-10T09:21:38Z</time>
</trkpt>
<trkpt lat="49.53387443907559" lon="9.259941978380084">
<ele>458.2</ele>
<time>2024-05-10T09:21:39Z</time>
</trkpt>
<trkpt lat="49.533882066607475" lon="9.259898141026497">
<ele>458.6</ele>
<time>2024-05-10T09:21:40Z</time>
</trkpt>
<trkpt lat="49.53388969413936" lon="9.25985522568226">
<ele>458.6</ele>
<time>2024-05-10T09:21:41Z</time>
</trkpt>
<trkpt lat="49.53389732167125" lon="9.259811388328671">
<ele>458.8</ele>
<time>2024-05-10T09:21:42Z</time>
</trkpt>
<trkpt lat="49.533904949203134" lon="9.259766545146704">
<ele>459</ele>
<time>2024-05-10T09:21:43Z</time>
</trkpt>
<trkpt lat="49.53391643241048" lon="9.259723629802464">
<ele>459.2</ele>
<time>2024-05-10T09:21:44Z</time>
</trkpt>
<trkpt lat="49.533924059942365" lon="9.259677864611149">
<ele>459.4</ele>
<time>2024-05-10T09:21:45Z</time>
</trkpt>
<trkpt lat="49.53393168747425" lon="9.259632099419832">
<ele>459.6</ele>
<time>2024-05-10T09:21:46Z</time>
</trkpt>
<trkpt lat="49.53393931500614" lon="9.259583400562406">
<ele>460</ele>
<time>2024-05-10T09:21:47Z</time>
</trkpt>
<trkpt lat="49.53394694253802" lon="9.25953285768628">
<ele>460.2</ele>
<time>2024-05-10T09:21:48Z</time>
</trkpt>
<trkpt lat="49.53395842574537" lon="9.259483320638536">
<ele>460.4</ele>
<time>2024-05-10T09:21:49Z</time>
</trkpt>
<trkpt lat="49.533966053277254" lon="9.259433699771762">
<ele>460.6</ele>
<time>2024-05-10T09:21:50Z</time>
</trkpt>
<trkpt lat="49.53396982513368" lon="9.259385084733369">
<ele>460.8</ele>
<time>2024-05-10T09:21:51Z</time>
</trkpt>
<trkpt lat="49.533981308341026" lon="9.259333536028862">
<ele>461</ele>
<time>2024-05-10T09:21:52Z</time>
</trkpt>
<trkpt lat="49.53398508019745" lon="9.259282071143389">
<ele>461.2</ele>
<time>2024-05-10T09:21:53Z</time>
</trkpt>
<trkpt lat="49.53399270772934" lon="9.259229600429537">
<ele>461.4</ele>
<time>2024-05-10T09:21:54Z</time>
</trkpt>
<trkpt lat="49.5339965634048" lon="9.259176207706332">
<ele>461.6</ele>
<time>2024-05-10T09:21:55Z</time>
</trkpt>
<trkpt lat="49.534004190936685" lon="9.25912474282086">
<ele>461.8</ele>
<time>2024-05-10T09:21:56Z</time>
</trkpt>
<trkpt lat="49.53401181846857" lon="9.259073194116354">
<ele>462</ele>
<time>2024-05-10T09:21:57Z</time>
</trkpt>
<trkpt lat="49.534015590325" lon="9.25902457907796">
<ele>462.2</ele>
<time>2024-05-10T09:21:58Z</time>
</trkpt>
<trkpt lat="49.53401944600046" lon="9.258973114192486">
<ele>462.4</ele>
<time>2024-05-10T09:21:59Z</time>
</trkpt>
<trkpt lat="49.53402321785688" lon="9.25892156548798">
<ele>462.6</ele>
<time>2024-05-10T09:22:00Z</time>
</trkpt>
<trkpt lat="49.53402707353234" lon="9.258870100602508">
<ele>462.8</ele>
<time>2024-05-10T09:22:01Z</time>
</trkpt>
<trkpt lat="49.53403084538877" lon="9.258814780041575">
<ele>463</ele>
<time>2024-05-10T09:22:02Z</time>
</trkpt>
<trkpt lat="49.53403470106423" lon="9.258760381489992">
<ele>463</ele>
<time>2024-05-10T09:22:03Z</time>
</trkpt>
<trkpt lat="49.534038472920656" lon="9.25870506092906">
<ele>463.2</ele>
<time>2024-05-10T09:22:04Z</time>
</trkpt>
<trkpt lat="49.534042328596115" lon="9.25864789634943">
<ele>463.4</ele>
<time>2024-05-10T09:22:05Z</time>
</trkpt>
<trkpt lat="49.534042328596115" lon="9.258591569960116">
<ele>463.4</ele>
<time>2024-05-10T09:22:06Z</time>
</trkpt>
<trkpt lat="49.53404610045254" lon="9.258533399552109">
<ele>463.6</ele>
<time>2024-05-10T09:22:07Z</time>
</trkpt>
<trkpt lat="49.534049956128" lon="9.2584733851254">
<ele>463.6</ele>
<time>2024-05-10T09:22:08Z</time>
</trkpt>
<trkpt lat="49.534049956128" lon="9.258417058736086">
<ele>463.8</ele>
<time>2024-05-10T09:22:09Z</time>
</trkpt>
<trkpt lat="49.534049956128" lon="9.258361738175154">
<ele>463.8</ele>
<time>2024-05-10T09:22:10Z</time>
</trkpt>
<trkpt lat="49.534049956128" lon="9.258304573595524">
<ele>464</ele>
<time>2024-05-10T09:22:11Z</time>
</trkpt>
<trkpt lat="49.534049956128" lon="9.258245397359133">
<ele>464</ele>
<time>2024-05-10T09:22:12Z</time>
</trkpt>
<trkpt lat="49.534049956128" lon="9.258185382932425">
<ele>464</ele>
<time>2024-05-10T09:22:13Z</time>
</trkpt>
<trkpt lat="49.534049956128" lon="9.258123356848955">
<ele>464</ele>
<time>2024-05-10T09:22:15Z</time>
</trkpt>
<trkpt lat="49.534049956128" lon="9.2579984664917">
<ele>464.2</ele>
<time>2024-05-10T09:22:16Z</time>
</trkpt>
<trkpt lat="49.534049956128" lon="9.257933590561152">
<ele>464.2</ele>
<time>2024-05-10T09:22:17Z</time>
</trkpt>
<trkpt lat="49.534049956128" lon="9.257868714630604">
<ele>464.2</ele>
<time>2024-05-10T09:22:18Z</time>
</trkpt>
<trkpt lat="49.534049956128" lon="9.257802916690707">
<ele>464.2</ele>
<time>2024-05-10T09:22:19Z</time>
</trkpt>
<trkpt lat="49.53405372798443" lon="9.257736196741462">
<ele>464.2</ele>
<time>2024-05-10T09:22:20Z</time>
</trkpt>
<trkpt lat="49.53405372798443" lon="9.257671320810914">
<ele>464.2</ele>
<time>2024-05-10T09:22:21Z</time>
</trkpt>
<trkpt lat="49.53405758365989" lon="9.257606444880366">
<ele>464.2</ele>
<time>2024-05-10T09:22:22Z</time>
</trkpt>
<trkpt lat="49.534061355516315" lon="9.25754165276885">
<ele>464.2</ele>
<time>2024-05-10T09:22:23Z</time>
</trkpt>
<trkpt lat="49.534061355516315" lon="9.257476776838304">
<ele>464.2</ele>
<time>2024-05-10T09:22:24Z</time>
</trkpt>
<trkpt lat="49.534061355516315" lon="9.257408129051328">
<ele>464.2</ele>
<time>2024-05-10T09:22:25Z</time>
</trkpt>
<trkpt lat="49.534061355516315" lon="9.257340403273702">
<ele>464.4</ele>
<time>2024-05-10T09:22:26Z</time>
</trkpt>
<trkpt lat="49.534061355516315" lon="9.257269827648996">
<ele>464.4</ele>
<time>2024-05-10T09:22:27Z</time>
</trkpt>
<trkpt lat="49.53405758365989" lon="9.257198330014944">
<ele>464.6</ele>
<time>2024-05-10T09:22:28Z</time>
</trkpt>
<trkpt lat="49.53405372798443" lon="9.25712674856186">
<ele>464.6</ele>
<time>2024-05-10T09:22:29Z</time>
</trkpt>
<trkpt lat="49.534049956128" lon="9.257056172937157">
<ele>464.8</ele>
<time>2024-05-10T09:22:30Z</time>
</trkpt>
<trkpt lat="49.53404610045254" lon="9.256988447159529">
<ele>464.8</ele>
<time>2024-05-10T09:22:31Z</time>
</trkpt>
<trkpt lat="49.534038472920656" lon="9.256921727210283">
<ele>464.8</ele>
<time>2024-05-10T09:22:32Z</time>
</trkpt>
<trkpt lat="49.53402707353234" lon="9.256856851279736">
<ele>465</ele>
<time>2024-05-10T09:22:33Z</time>
</trkpt>
<trkpt lat="49.53401944600046" lon="9.256792981177568">
<ele>465</ele>
<time>2024-05-10T09:22:34Z</time>
</trkpt>
<trkpt lat="49.534015590325" lon="9.256738582625983">
<ele>465.2</ele>
<time>2024-05-10T09:22:35Z</time>
</trkpt>
<trkpt lat="49.53401181846857" lon="9.25668996758759">
<ele>465.4</ele>
<time>2024-05-10T09:22:36Z</time>
</trkpt>
<trkpt lat="49.534004190936685" lon="9.256638502702115">
<ele>465.4</ele>
<time>2024-05-10T09:22:37Z</time>
</trkpt>
<trkpt lat="49.53400796279311" lon="9.256586953997612">
<ele>465.6</ele>
<time>2024-05-10T09:22:38Z</time>
</trkpt>
<trkpt lat="49.534015590325" lon="9.25653356127441">
<ele>465.6</ele>
<time>2024-05-10T09:22:39Z</time>
</trkpt>
<trkpt lat="49.53402321785688" lon="9.256482096388936">
<ele>465.8</ele>
<time>2024-05-10T09:22:40Z</time>
</trkpt>
<trkpt lat="49.53402321785688" lon="9.256421998143196">
<ele>465.8</ele>
<time>2024-05-10T09:22:41Z</time>
</trkpt>
<trkpt lat="49.53403084538877" lon="9.2563562002033">
<ele>466</ele>
<time>2024-05-10T09:22:42Z</time>
</trkpt>
<trkpt lat="49.534038472920656" lon="9.256288474425672">
<ele>466</ele>
<time>2024-05-10T09:22:43Z</time>
</trkpt>
<trkpt lat="49.53404610045254" lon="9.25621312111616">
<ele>466</ele>
<time>2024-05-10T09:22:44Z</time>
</trkpt>
<trkpt lat="49.534049956128" lon="9.256150173023345">
<ele>466</ele>
<time>2024-05-10T09:22:45Z</time>
</trkpt>
<trkpt lat="49.53405758365989" lon="9.256086302921176">
<ele>466.2</ele>
<time>2024-05-10T09:22:46Z</time>
</trkpt>
<trkpt lat="49.534061355516315" lon="9.256028132513164">
<ele>466.2</ele>
<time>2024-05-10T09:22:47Z</time>
</trkpt>
<trkpt lat="49.534061355516315" lon="9.255963256582618">
<ele>466.4</ele>
<time>2024-05-10T09:22:48Z</time>
</trkpt>
<trkpt lat="49.53406521119177" lon="9.2559003084898">
<ele>466.4</ele>
<time>2024-05-10T09:22:49Z</time>
</trkpt>
<trkpt lat="49.5340689830482" lon="9.255838366225362">
<ele>466.4</ele>
<time>2024-05-10T09:22:50Z</time>
</trkpt>
<trkpt lat="49.53407661058009" lon="9.255775418132544">
<ele>466.4</ele>
<time>2024-05-10T09:22:51Z</time>
</trkpt>
<trkpt lat="49.534080466255546" lon="9.255708614364266">
<ele>466.4</ele>
<time>2024-05-10T09:22:52Z</time>
</trkpt>
<trkpt lat="49.53408423811197" lon="9.255638122558594">
<ele>466.4</ele>
<time>2024-05-10T09:22:53Z</time>
</trkpt>
<trkpt lat="49.53408809378743" lon="9.255570396780968">
<ele>466.2</ele>
<time>2024-05-10T09:22:54Z</time>
</trkpt>
<trkpt lat="49.53409194946289" lon="9.25550359301269">
<ele>466.2</ele>
<time>2024-05-10T09:22:55Z</time>
</trkpt>
<trkpt lat="49.53409194946289" lon="9.255439722910523">
<ele>466.2</ele>
<time>2024-05-10T09:22:56Z</time>
</trkpt>
<trkpt lat="49.53409194946289" lon="9.25536629743874">
<ele>466.2</ele>
<time>2024-05-10T09:22:57Z</time>
</trkpt>
<trkpt lat="49.53409572131932" lon="9.255292871966958">
<ele>466</ele>
<time>2024-05-10T09:22:58Z</time>
</trkpt>
<trkpt lat="49.53409572131932" lon="9.255225146189332">
<ele>466</ele>
<time>2024-05-10T09:22:59Z</time>
</trkpt>
<trkpt lat="49.53409957699478" lon="9.255161276087165">
<ele>466</ele>
<time>2024-05-10T09:23:00Z</time>
</trkpt>
<trkpt lat="49.5341033488512" lon="9.255088772624733">
<ele>466</ele>
<time>2024-05-10T09:23:01Z</time>
</trkpt>
<trkpt lat="49.53410720452666" lon="9.255015347152948">
<ele>466</ele>
<time>2024-05-10T09:23:02Z</time>
</trkpt>
<trkpt lat="49.53411483205855" lon="9.254936138167976">
<ele>466</ele>
<time>2024-05-10T09:23:03Z</time>
</trkpt>
<trkpt lat="49.53413008712232" lon="9.254861790686846">
<ele>465.8</ele>
<time>2024-05-10T09:23:04Z</time>
</trkpt>
<trkpt lat="49.534141486510634" lon="9.2547778878361">
<ele>465.8</ele>
<time>2024-05-10T09:23:05Z</time>
</trkpt>
<trkpt lat="49.53414534218609" lon="9.2546949069947">
<ele>465.6</ele>
<time>2024-05-10T09:23:06Z</time>
</trkpt>
<trkpt lat="49.53414911404252" lon="9.254606226459146">
<ele>465.6</ele>
<time>2024-05-10T09:23:07Z</time>
</trkpt>
<trkpt lat="49.53414911404252" lon="9.254520395770667">
<ele>465.4</ele>
<time>2024-05-10T09:23:08Z</time>
</trkpt>
<trkpt lat="49.53414911404252" lon="9.254433559253812">
<ele>465.4</ele>
<time>2024-05-10T09:23:09Z</time>
</trkpt>
<trkpt lat="49.53415674157441" lon="9.254342950880527">
<ele>465.2</ele>
<time>2024-05-10T09:23:10Z</time>
</trkpt>
<trkpt lat="49.534160597249866" lon="9.254249492660165">
<ele>465.2</ele>
<time>2024-05-10T09:23:11Z</time>
</trkpt>
<trkpt lat="49.53416436910629" lon="9.254157040268185">
<ele>465.2</ele>
<time>2024-05-10T09:23:12Z</time>
</trkpt>
<trkpt lat="49.534160597249866" lon="9.25405972637236">
<ele>465</ele>
<time>2024-05-10T09:23:13Z</time>
</trkpt>
<trkpt lat="49.53416436910629" lon="9.25396341830492">
<ele>465</ele>
<time>2024-05-10T09:23:14Z</time>
</trkpt>
<trkpt lat="49.53416436910629" lon="9.25386325456202">
<ele>464.8</ele>
<time>2024-05-10T09:23:15Z</time>
</trkpt>
<trkpt lat="49.53416436910629" lon="9.253761246800424">
<ele>464.6</ele>
<time>2024-05-10T09:23:16Z</time>
</trkpt>
<trkpt lat="49.53416436910629" lon="9.253656305372717">
<ele>464.4</ele>
<time>2024-05-10T09:23:17Z</time>
</trkpt>
<trkpt lat="49.534160597249866" lon="9.25354859791696">
<ele>464.2</ele>
<time>2024-05-10T09:23:18Z</time>
</trkpt>
<trkpt lat="49.53414911404252" lon="9.253444662317634">
<ele>464</ele>
<time>2024-05-10T09:23:19Z</time>
</trkpt>
<trkpt lat="49.534141486510634" lon="9.253336871042848">
<ele>463.8</ele>
<time>2024-05-10T09:23:20Z</time>
</trkpt>
<trkpt lat="49.53413008712232" lon="9.253228157758713">
<ele>463.6</ele>
<time>2024-05-10T09:23:21Z</time>
</trkpt>
<trkpt lat="49.53412623144686" lon="9.253120366483929">
<ele>463.4</ele>
<time>2024-05-10T09:23:22Z</time>
</trkpt>
<trkpt lat="49.534118603914976" lon="9.253007881343365">
<ele>463.4</ele>
<time>2024-05-10T09:23:23Z</time>
</trkpt>
<trkpt lat="49.53411097638309" lon="9.25289816223085">
<ele>463.2</ele>
<time>2024-05-10T09:23:24Z</time>
</trkpt>
<trkpt lat="49.53410720452666" lon="9.252783749252558">
<ele>463.2</ele>
<time>2024-05-10T09:23:25Z</time>
</trkpt>
<trkpt lat="49.5341033488512" lon="9.252666402608156">
<ele>463</ele>
<time>2024-05-10T09:23:26Z</time>
</trkpt>
<trkpt lat="49.53409572131932" lon="9.252550061792135">
<ele>462.8</ele>
<time>2024-05-10T09:23:27Z</time>
</trkpt>
<trkpt lat="49.53408809378743" lon="9.252434726804497">
<ele>462.6</ele>
<time>2024-05-10T09:23:28Z</time>
</trkpt>
<trkpt lat="49.53408423811197" lon="9.252318302169442">
<ele>462.4</ele>
<time>2024-05-10T09:23:29Z</time>
</trkpt>
<trkpt lat="49.53408423811197" lon="9.252200117334723">
<ele>462</ele>
<time>2024-05-10T09:23:30Z</time>
</trkpt>
<trkpt lat="49.53408809378743" lon="9.252079920843244">
<ele>461.6</ele>
<time>2024-05-10T09:23:31Z</time>
</trkpt>
<trkpt lat="49.53409194946289" lon="9.251956874504684">
<ele>461.4</ele>
<time>2024-05-10T09:23:32Z</time>
</trkpt>
<trkpt lat="49.53409572131932" lon="9.2518300563097">
<ele>461</ele>
<time>2024-05-10T09:23:33Z</time>
</trkpt>
<trkpt lat="49.5341033488512" lon="9.251700388267636">
<ele>460.8</ele>
<time>2024-05-10T09:23:34Z</time>
</trkpt>
<trkpt lat="49.53411483205855" lon="9.25157164223492">
<ele>460.4</ele>
<time>2024-05-10T09:23:35Z</time>
</trkpt>
<trkpt lat="49.53412623144686" lon="9.251440046355128">
<ele>460.2</ele>
<time>2024-05-10T09:23:36Z</time>
</trkpt>
<trkpt lat="49.53413771465421" lon="9.251308366656303">
<ele>459.8</ele>
<time>2024-05-10T09:23:37Z</time>
</trkpt>
<trkpt lat="49.53415296971798" lon="9.251174926757813">
<ele>459.6</ele>
<time>2024-05-10T09:23:38Z</time>
</trkpt>
<trkpt lat="49.53416822478175" lon="9.25103846937418">
<ele>459.2</ele>
<time>2024-05-10T09:23:39Z</time>
</trkpt>
<trkpt lat="49.53418347984552" lon="9.25090117380023">
<ele>459</ele>
<time>2024-05-10T09:23:40Z</time>
</trkpt>
<trkpt lat="49.53420250676572" lon="9.250755244866014">
<ele>458.6</ele>
<time>2024-05-10T09:23:41Z</time>
</trkpt>
<trkpt lat="49.534221617504954" lon="9.250613171607256">
<ele>458.2</ele>
<time>2024-05-10T09:23:42Z</time>
</trkpt>
<trkpt lat="49.53423301689327" lon="9.250479647889732">
<ele>457.8</ele>
<time>2024-05-10T09:23:43Z</time>
</trkpt>
<trkpt lat="49.53424827195704" lon="9.250318463891745">
<ele>457.6</ele>
<time>2024-05-10T09:23:44Z</time>
</trkpt>
<trkpt lat="49.534255899488926" lon="9.250162057578564">
<ele>457.2</ele>
<time>2024-05-10T09:23:45Z</time>
</trkpt>
<trkpt lat="49.53427501022816" lon="9.250021912157536">
<ele>457</ele>
<time>2024-05-10T09:23:46Z</time>
</trkpt>
<trkpt lat="49.53429026529193" lon="9.24987313337624">
<ele>456.6</ele>
<time>2024-05-10T09:23:47Z</time>
</trkpt>
<trkpt lat="49.534301748499274" lon="9.24971865490079">
<ele>456.2</ele>
<time>2024-05-10T09:23:48Z</time>
</trkpt>
<trkpt lat="49.53431314788759" lon="9.249567948281763">
<ele>455.8</ele>
<time>2024-05-10T09:23:49Z</time>
</trkpt>
<trkpt lat="49.534336030483246" lon="9.249446829780936">
<ele>455.4</ele>
<time>2024-05-10T09:23:50Z</time>
</trkpt>
<trkpt lat="49.53434365801513" lon="9.249275168403983">
<ele>455</ele>
<time>2024-05-10T09:23:51Z</time>
</trkpt>
<trkpt lat="49.53436654061079" lon="9.249110212549567">
<ele>454.4</ele>
<time>2024-05-10T09:23:52Z</time>
</trkpt>
<trkpt lat="49.53438179567456" lon="9.248938551172614">
<ele>453.8</ele>
<time>2024-05-10T09:23:53Z</time>
</trkpt>
<trkpt lat="49.534400906413794" lon="9.24876688979566">
<ele>453.2</ele>
<time>2024-05-10T09:23:55Z</time>
</trkpt>
<trkpt lat="49.53440467827022" lon="9.2483901232481">
<ele>452.6</ele>
<time>2024-05-10T09:23:56Z</time>
</trkpt>
<trkpt lat="49.53440853394568" lon="9.24821469001472">
<ele>451.8</ele>
<time>2024-05-10T09:23:57Z</time>
</trkpt>
<trkpt lat="49.534416161477566" lon="9.24803540110588">
<ele>450.8</ele>
<time>2024-05-10T09:23:58Z</time>
</trkpt>
<trkpt lat="49.53441230580211" lon="9.247871367260814">
<ele>449.8</ele>
<time>2024-05-10T09:23:59Z</time>
</trkpt>
<trkpt lat="49.534397050738335" lon="9.247731138020754">
<ele>449</ele>
<time>2024-05-10T09:24:00Z</time>
</trkpt>
<trkpt lat="49.534378023818135" lon="9.2475594766438">
<ele>448</ele>
<time>2024-05-10T09:24:01Z</time>
</trkpt>
<trkpt lat="49.534339886158705" lon="9.2474231030792">
<ele>446.8</ele>
<time>2024-05-10T09:24:02Z</time>
</trkpt>
<trkpt lat="49.53429026529193" lon="9.2472867295146">
<ele>445.8</ele>
<time>2024-05-10T09:24:03Z</time>
</trkpt>
<trkpt lat="49.5342521276325" lon="9.247137028723955">
<ele>444.8</ele>
<time>2024-05-10T09:24:04Z</time>
</trkpt>
<trkpt lat="49.534198734909296" lon="9.246999733150004">
<ele>443.8</ele>
<time>2024-05-10T09:24:05Z</time>
</trkpt>
<trkpt lat="49.53414534218609" lon="9.246856654062867">
<ele>442.8</ele>
<time>2024-05-10T09:24:06Z</time>
</trkpt>
<trkpt lat="49.53409957699478" lon="9.246726986020803">
<ele>442</ele>
<time>2024-05-10T09:24:07Z</time>
</trkpt>
<trkpt lat="49.53405372798443" lon="9.24659530632198">
<ele>441</ele>
<time>2024-05-10T09:24:08Z</time>
</trkpt>
<trkpt lat="49.5339965634048" lon="9.24647712148726">
<ele>440</ele>
<time>2024-05-10T09:24:09Z</time>
</trkpt>
<trkpt lat="49.53393554314971" lon="9.246343597769735">
<ele>439</ele>
<time>2024-05-10T09:24:10Z</time>
</trkpt>
<trkpt lat="49.53390880487859" lon="9.246230106800796">
<ele>438</ele>
<time>2024-05-10T09:24:11Z</time>
</trkpt>
<trkpt lat="49.53389732167125" lon="9.246111838147044">
<ele>437</ele>
<time>2024-05-10T09:24:12Z</time>
</trkpt>
<trkpt lat="49.533882066607475" lon="9.245994491502644">
<ele>436</ele>
<time>2024-05-10T09:24:13Z</time>
</trkpt>
<trkpt lat="49.53388969413936" lon="9.245876306667924">
<ele>435.2</ele>
<time>2024-05-10T09:24:14Z</time>
</trkpt>
<trkpt lat="49.533904949203134" lon="9.2457618098706">
<ele>434.2</ele>
<time>2024-05-10T09:24:15Z</time>
</trkpt>
<trkpt lat="49.53393554314971" lon="9.245651168748736">
<ele>433.4</ele>
<time>2024-05-10T09:24:16Z</time>
</trkpt>
<trkpt lat="49.533966053277254" lon="9.245543461292982">
<ele>432.8</ele>
<time>2024-05-10T09:24:17Z</time>
</trkpt>
<trkpt lat="49.5339965634048" lon="9.245439525693657">
<ele>432</ele>
<time>2024-05-10T09:24:18Z</time>
</trkpt>
<trkpt lat="49.53403470106423" lon="9.245343133807182">
<ele>431.4</ele>
<time>2024-05-10T09:24:19Z</time>
</trkpt>
<trkpt lat="49.53407661058009" lon="9.24524682573974">
<ele>431</ele>
<time>2024-05-10T09:24:20Z</time>
</trkpt>
<trkpt lat="49.53411097638309" lon="9.245158145204186">
<ele>430.4</ele>
<time>2024-05-10T09:24:21Z</time>
</trkpt>
<trkpt lat="49.53415296971798" lon="9.245079942047596">
<ele>430</ele>
<time>2024-05-10T09:24:22Z</time>
</trkpt>
<trkpt lat="49.53419110737741" lon="9.245004588738084">
<ele>429.6</ele>
<time>2024-05-10T09:24:23Z</time>
</trkpt>
<trkpt lat="49.53422538936138" lon="9.2449311632663">
<ele>429.2</ele>
<time>2024-05-10T09:24:24Z</time>
</trkpt>
<trkpt lat="49.534255899488926" lon="9.244850110262632">
<ele>429</ele>
<time>2024-05-10T09:24:25Z</time>
</trkpt>
<trkpt lat="49.534278865903616" lon="9.244766207411883">
<ele>428.8</ele>
<time>2024-05-10T09:24:26Z</time>
</trkpt>
<trkpt lat="49.534297892823815" lon="9.24467844888568">
<ele>428.6</ele>
<time>2024-05-10T09:24:27Z</time>
</trkpt>
<trkpt lat="49.53431314788759" lon="9.244587840512397">
<ele>428.4</ele>
<time>2024-05-10T09:24:28Z</time>
</trkpt>
<trkpt lat="49.53432840295136" lon="9.244491532444954">
<ele>428.4</ele>
<time>2024-05-10T09:24:29Z</time>
</trkpt>
<trkpt lat="49.534336030483246" lon="9.244389524683356">
<ele>428.2</ele>
<time>2024-05-10T09:24:30Z</time>
</trkpt>
<trkpt lat="49.534339886158705" lon="9.244295060634611">
<ele>428</ele>
<time>2024-05-10T09:24:31Z</time>
</trkpt>
<trkpt lat="49.53434365801513" lon="9.244206380099058">
<ele>427.8</ele>
<time>2024-05-10T09:24:32Z</time>
</trkpt>
<trkpt lat="49.53435128554702" lon="9.24412339925766">
<ele>427.4</ele>
<time>2024-05-10T09:24:33Z</time>
</trkpt>
<trkpt lat="49.53435128554702" lon="9.24404519610107">
<ele>427</ele>
<time>2024-05-10T09:24:34Z</time>
</trkpt>
<trkpt lat="49.53434365801513" lon="9.243960371240972">
<ele>426.8</ele>
<time>2024-05-10T09:24:35Z</time>
</trkpt>
<trkpt lat="49.53432840295136" lon="9.243876384571196">
<ele>426.4</ele>
<time>2024-05-10T09:24:36Z</time>
</trkpt>
<trkpt lat="49.534301748499274" lon="9.24378485418856">
<ele>426.2</ele>
<time>2024-05-10T09:24:37Z</time>
</trkpt>
<trkpt lat="49.53427501022816" lon="9.24368854612112">
<ele>426</ele>
<time>2024-05-10T09:24:38Z</time>
</trkpt>
<trkpt lat="49.53424827195704" lon="9.243586538359525">
<ele>425.8</ele>
<time>2024-05-10T09:24:39Z</time>
</trkpt>
<trkpt lat="49.53422538936138" lon="9.243485368788242">
<ele>425.6</ele>
<time>2024-05-10T09:24:40Z</time>
</trkpt>
<trkpt lat="49.53419487923384" lon="9.24337481148541">
<ele>425.2</ele>
<time>2024-05-10T09:24:41Z</time>
</trkpt>
<trkpt lat="49.53416822478175" lon="9.243267020210624">
<ele>425</ele>
<time>2024-05-10T09:24:42Z</time>
</trkpt>
<trkpt lat="49.534141486510634" lon="9.24315637908876">
<ele>424.6</ele>
<time>2024-05-10T09:24:43Z</time>
</trkpt>
<trkpt lat="49.5341033488512" lon="9.243040038272738">
<ele>424</ele>
<time>2024-05-10T09:24:44Z</time>
</trkpt>
<trkpt lat="49.5340689830482" lon="9.242921769618988">
<ele>423.4</ele>
<time>2024-05-10T09:24:45Z</time>
</trkpt>
<trkpt lat="49.534038472920656" lon="9.24279972910881">
<ele>422.8</ele>
<time>2024-05-10T09:24:46Z</time>
</trkpt>
<trkpt lat="49.53401181846857" lon="9.242676682770252">
<ele>422.4</ele>
<time>2024-05-10T09:24:47Z</time>
</trkpt>
<trkpt lat="49.53398893587291" lon="9.242551792412996">
<ele>421.8</ele>
<time>2024-05-10T09:24:48Z</time>
</trkpt>
<trkpt lat="49.53397368080914" lon="9.242428746074438">
<ele>421.4</ele>
<time>2024-05-10T09:24:49Z</time>
</trkpt>
<trkpt lat="49.53396982513368" lon="9.242302849888802">
<ele>421</ele>
<time>2024-05-10T09:24:50Z</time>
</trkpt>
<trkpt lat="49.533966053277254" lon="9.242190280929208">
<ele>420.6</ele>
<time>2024-05-10T09:24:51Z</time>
</trkpt>
<trkpt lat="49.533966053277254" lon="9.242096822708843">
<ele>420.2</ele>
<time>2024-05-10T09:24:52Z</time>
</trkpt>
<trkpt lat="49.533966053277254" lon="9.242018619552256">
<ele>420</ele>
<time>2024-05-10T09:24:53Z</time>
</trkpt>
<trkpt lat="49.53396982513368" lon="9.24195189960301">
<ele>419.8</ele>
<time>2024-05-10T09:24:54Z</time>
</trkpt>
<trkpt lat="49.53397368080914" lon="9.24189180135727">
<ele>419.8</ele>
<time>2024-05-10T09:24:55Z</time>
</trkpt>
<trkpt lat="49.53397745266557" lon="9.241838408634068">
<ele>419.6</ele>
<time>2024-05-10T09:24:56Z</time>
</trkpt>
<trkpt lat="49.53397745266557" lon="9.241789793595672">
<ele>419.4</ele>
<time>2024-05-10T09:24:57Z</time>
</trkpt>
<trkpt lat="49.533981308341026" lon="9.241744950413704">
<ele>419.4</ele>
<time>2024-05-10T09:24:58Z</time>
</trkpt>
<trkpt lat="49.53398508019745" lon="9.241700107231736">
<ele>419.2</ele>
<time>2024-05-10T09:24:59Z</time>
</trkpt>
<trkpt lat="49.53398508019745" lon="9.2416553478688">
<ele>419.2</ele>
<time>2024-05-10T09:25:00Z</time>
</trkpt>
<trkpt lat="49.53398508019745" lon="9.24161335453391">
<ele>419.2</ele>
<time>2024-05-10T09:25:01Z</time>
</trkpt>
<trkpt lat="49.53398508019745" lon="9.241568511351945">
<ele>419</ele>
<time>2024-05-10T09:25:02Z</time>
</trkpt>
<trkpt lat="49.53398893587291" lon="9.241519896313548">
<ele>419</ele>
<time>2024-05-10T09:25:03Z</time>
</trkpt>
<trkpt lat="49.53398893587291" lon="9.241470275446773">
<ele>419</ele>
<time>2024-05-10T09:25:04Z</time>
</trkpt>
<trkpt lat="49.53399270772934" lon="9.241423588246109">
<ele>419</ele>
<time>2024-05-10T09:25:05Z</time>
</trkpt>
<trkpt lat="49.53399270772934" lon="9.24137874506414">
<ele>419</ele>
<time>2024-05-10T09:25:06Z</time>
</trkpt>
<trkpt lat="49.53398893587291" lon="9.241332979872825">
<ele>419</ele>
<time>2024-05-10T09:25:07Z</time>
</trkpt>
<trkpt lat="49.53398508019745" lon="9.241290064528584">
<ele>419.2</ele>
<time>2024-05-10T09:25:08Z</time>
</trkpt>
<trkpt lat="49.53398508019745" lon="9.241245221346617">
<ele>419.2</ele>
<time>2024-05-10T09:25:09Z</time>
</trkpt>
<trkpt lat="49.53398508019745" lon="9.241200378164647">
<ele>419.4</ele>
<time>2024-05-10T09:25:10Z</time>
</trkpt>
<trkpt lat="49.53398508019745" lon="9.241156540811062">
<ele>419.6</ele>
<time>2024-05-10T09:25:11Z</time>
</trkpt>
<trkpt lat="49.53398508019745" lon="9.241109769791365">
<ele>419.8</ele>
<time>2024-05-10T09:25:12Z</time>
</trkpt>
<trkpt lat="49.53398508019745" lon="9.241065010428429">
<ele>420</ele>
<time>2024-05-10T09:25:13Z</time>
</trkpt>
<trkpt lat="49.533981308341026" lon="9.241016311571002">
<ele>420.2</ele>
<time>2024-05-10T09:25:14Z</time>
</trkpt>
<trkpt lat="49.53397745266557" lon="9.240964846685529">
<ele>420.4</ele>
<time>2024-05-10T09:25:15Z</time>
</trkpt>
<trkpt lat="49.53397368080914" lon="9.240913381800056">
<ele>420.6</ele>
<time>2024-05-10T09:25:16Z</time>
</trkpt>
<trkpt lat="49.53396982513368" lon="9.24086183309555">
<ele>420.8</ele>
<time>2024-05-10T09:25:17Z</time>
</trkpt>
<trkpt lat="49.533966053277254" lon="9.240808440372348">
<ele>421</ele>
<time>2024-05-10T09:25:18Z</time>
</trkpt>
<trkpt lat="49.53395842574537" lon="9.240755047649143">
<ele>421.2</ele>
<time>2024-05-10T09:25:19Z</time>
</trkpt>
<trkpt lat="49.53395842574537" lon="9.240701654925942">
<ele>421.2</ele>
<time>2024-05-10T09:25:20Z</time>
</trkpt>
<trkpt lat="49.53395079821348" lon="9.240650106221436">
<ele>421.4</ele>
<time>2024-05-10T09:25:21Z</time>
</trkpt>
<trkpt lat="49.5339431706816" lon="9.240594785660504">
<ele>421.6</ele>
<time>2024-05-10T09:25:22Z</time>
</trkpt>
<trkpt lat="49.53393554314971" lon="9.240539548918605">
<ele>421.6</ele>
<time>2024-05-10T09:25:23Z</time>
</trkpt>
<trkpt lat="49.533927915617824" lon="9.240487078204753">
<ele>421.8</ele>
<time>2024-05-10T09:25:24Z</time>
</trkpt>
<trkpt lat="49.53391643241048" lon="9.240433685481548">
<ele>422</ele>
<time>2024-05-10T09:25:25Z</time>
</trkpt>
<trkpt lat="49.53390880487859" lon="9.240380208939314">
<ele>422.2</ele>
<time>2024-05-10T09:25:26Z</time>
</trkpt>
<trkpt lat="49.533901177346706" lon="9.24032874405384">
<ele>422.4</ele>
<time>2024-05-10T09:25:27Z</time>
</trkpt>
<trkpt lat="49.53388969413936" lon="9.240276273339989">
<ele>422.6</ele>
<time>2024-05-10T09:25:28Z</time>
</trkpt>
<trkpt lat="49.533882066607475" lon="9.240224808454514">
<ele>422.6</ele>
<time>2024-05-10T09:25:29Z</time>
</trkpt>
<trkpt lat="49.53387443907559" lon="9.240175187587738">
<ele>422.8</ele>
<time>2024-05-10T09:25:30Z</time>
</trkpt>
<trkpt lat="49.53386303968728" lon="9.240123722702265">
<ele>423</ele>
<time>2024-05-10T09:25:31Z</time>
</trkpt>
<trkpt lat="49.53385155647993" lon="9.240070329979062">
<ele>423.2</ele>
<time>2024-05-10T09:25:32Z</time>
</trkpt>
<trkpt lat="49.53384015709162" lon="9.240017859265208">
<ele>423.4</ele>
<time>2024-05-10T09:25:33Z</time>
</trkpt>
<trkpt lat="49.53382867388427" lon="9.239965388551354">
<ele>423.4</ele>
<time>2024-05-10T09:25:34Z</time>
</trkpt>
<trkpt lat="49.53381727449596" lon="9.2399129178375">
<ele>423.6</ele>
<time>2024-05-10T09:25:35Z</time>
</trkpt>
<trkpt lat="49.533805791288614" lon="9.239863380789757">
<ele>423.6</ele>
<time>2024-05-10T09:25:36Z</time>
</trkpt>
<trkpt lat="49.5337943919003" lon="9.239811832085252">
<ele>423.8</ele>
<time>2024-05-10T09:25:37Z</time>
</trkpt>
<trkpt lat="49.533786764368415" lon="9.23976036719978">
<ele>423.8</ele>
<time>2024-05-10T09:25:38Z</time>
</trkpt>
<trkpt lat="49.53377913683653" lon="9.239707896485925">
<ele>423.8</ele>
<time>2024-05-10T09:25:39Z</time>
</trkpt>
<trkpt lat="49.533767653629184" lon="9.23966020345688">
<ele>424</ele>
<time>2024-05-10T09:25:40Z</time>
</trkpt>
<trkpt lat="49.53375625424087" lon="9.239611588418484">
<ele>424</ele>
<time>2024-05-10T09:25:41Z</time>
</trkpt>
<trkpt lat="49.533744771033525" lon="9.239562973380089">
<ele>424.2</ele>
<time>2024-05-10T09:25:42Z</time>
</trkpt>
<trkpt lat="49.53373328782618" lon="9.239513352513312">
<ele>424.2</ele>
<time>2024-05-10T09:25:43Z</time>
</trkpt>
<trkpt lat="49.533725660294294" lon="9.239464737474918">
<ele>424.4</ele>
<time>2024-05-10T09:25:44Z</time>
</trkpt>
<trkpt lat="49.53371426090598" lon="9.239413188770412">
<ele>424.6</ele>
<time>2024-05-10T09:25:45Z</time>
</trkpt>
<trkpt lat="49.533706633374095" lon="9.239364573732018">
<ele>424.6</ele>
<time>2024-05-10T09:25:46Z</time>
</trkpt>
<trkpt lat="49.53369515016675" lon="9.239314952865245">
<ele>424.6</ele>
<time>2024-05-10T09:25:47Z</time>
</trkpt>
<trkpt lat="49.53368375077844" lon="9.239268265664576">
<ele>424.8</ele>
<time>2024-05-10T09:25:48Z</time>
</trkpt>
<trkpt lat="49.53367612324655" lon="9.239219650626184">
<ele>424.8</ele>
<time>2024-05-10T09:25:49Z</time>
</trkpt>
<trkpt lat="49.533668495714664" lon="9.239171957597136">
<ele>425</ele>
<time>2024-05-10T09:25:50Z</time>
</trkpt>
<trkpt lat="49.53366086818278" lon="9.239123342558742">
<ele>425</ele>
<time>2024-05-10T09:25:51Z</time>
</trkpt>
<trkpt lat="49.53365324065089" lon="9.239074643701317">
<ele>425.2</ele>
<time>2024-05-10T09:25:52Z</time>
</trkpt>
<trkpt lat="49.53364175744355" lon="9.239025106653571">
<ele>425.2</ele>
<time>2024-05-10T09:25:53Z</time>
</trkpt>
<trkpt lat="49.533630358055234" lon="9.238974563777449">
<ele>425.4</ele>
<time>2024-05-10T09:25:54Z</time>
</trkpt>
<trkpt lat="49.53361887484789" lon="9.238923015072942">
<ele>425.4</ele>
<time>2024-05-10T09:25:55Z</time>
</trkpt>
<trkpt lat="49.533611247316" lon="9.23886962234974">
<ele>425.6</ele>
<time>2024-05-10T09:25:56Z</time>
</trkpt>
<trkpt lat="49.53359984792769" lon="9.238818157464266">
<ele>425.6</ele>
<time>2024-05-10T09:25:57Z</time>
</trkpt>
<trkpt lat="49.533588364720345" lon="9.238764680922031">
<ele>425.8</ele>
<time>2024-05-10T09:25:58Z</time>
</trkpt>
<trkpt lat="49.53357696533203" lon="9.238713216036558">
<ele>425.8</ele>
<time>2024-05-10T09:25:59Z</time>
</trkpt>
<trkpt lat="49.53356162644923" lon="9.238659823313355">
<ele>425.8</ele>
<time>2024-05-10T09:26:00Z</time>
</trkpt>
<trkpt lat="49.533550227060914" lon="9.23861020244658">
<ele>426</ele>
<time>2024-05-10T09:26:01Z</time>
</trkpt>
<trkpt lat="49.53354259952903" lon="9.238559659570456">
<ele>426.2</ele>
<time>2024-05-10T09:26:02Z</time>
</trkpt>
<trkpt lat="49.53353111632168" lon="9.238508194684982">
<ele>426.2</ele>
<time>2024-05-10T09:26:03Z</time>
</trkpt>
<trkpt lat="49.5335234887898" lon="9.238456645980476">
<ele>426.2</ele>
<time>2024-05-10T09:26:04Z</time>
</trkpt>
<trkpt lat="49.53351208940148" lon="9.238403253257276">
<ele>426.4</ele>
<time>2024-05-10T09:26:05Z</time>
</trkpt>
<trkpt lat="49.53350060619414" lon="9.23835371620953">
<ele>426.4</ele>
<time>2024-05-10T09:26:06Z</time>
</trkpt>
<trkpt lat="49.53349297866225" lon="9.238301245495675">
<ele>426.6</ele>
<time>2024-05-10T09:26:07Z</time>
</trkpt>
<trkpt lat="49.53348157927394" lon="9.238247852772474">
<ele>426.6</ele>
<time>2024-05-10T09:26:08Z</time>
</trkpt>
<trkpt lat="49.53347395174205" lon="9.2381982319057">
<ele>426.8</ele>
<time>2024-05-10T09:26:09Z</time>
</trkpt>
<trkpt lat="49.53345869667828" lon="9.238148611038923">
<ele>427</ele>
<time>2024-05-10T09:26:10Z</time>
</trkpt>
<trkpt lat="49.533451069146395" lon="9.238101923838258">
<ele>427</ele>
<time>2024-05-10T09:26:11Z</time>
</trkpt>
<trkpt lat="49.53343958593905" lon="9.238053308799865">
<ele>427.2</ele>
<time>2024-05-10T09:26:12Z</time>
</trkpt>
<trkpt lat="49.53342433087528" lon="9.23799991607666">
<ele>427.2</ele>
<time>2024-05-10T09:26:13Z</time>
</trkpt>
<trkpt lat="49.53341293148696" lon="9.237948367372155">
<ele>427.4</ele>
<time>2024-05-10T09:26:14Z</time>
</trkpt>
<trkpt lat="49.53340144827962" lon="9.237893046811225">
<ele>427.4</ele>
<time>2024-05-10T09:26:15Z</time>
</trkpt>
<trkpt lat="49.533389965072274" lon="9.237838732078671">
<ele>427.4</ele>
<time>2024-05-10T09:26:16Z</time>
</trkpt>
<trkpt lat="49.5333747100085" lon="9.237788189202549">
<ele>427.4</ele>
<time>2024-05-10T09:26:17Z</time>
</trkpt>
<trkpt lat="49.53336331062019" lon="9.237736640498042">
<ele>427.6</ele>
<time>2024-05-10T09:26:18Z</time>
</trkpt>
<trkpt lat="49.53335182741285" lon="9.237685175612569">
<ele>427.6</ele>
<time>2024-05-10T09:26:19Z</time>
</trkpt>
<trkpt lat="49.53334419988096" lon="9.237634632736444">
<ele>427.6</ele>
<time>2024-05-10T09:26:20Z</time>
</trkpt>
<trkpt lat="49.53333657234907" lon="9.237587861716747">
<ele>427.8</ele>
<time>2024-05-10T09:26:21Z</time>
</trkpt>
<trkpt lat="49.53332517296076" lon="9.2375401686877">
<ele>428</ele>
<time>2024-05-10T09:26:22Z</time>
</trkpt>
<trkpt lat="49.533309917896986" lon="9.237491553649306">
<ele>428.2</ele>
<time>2024-05-10T09:26:23Z</time>
</trkpt>
<trkpt lat="49.533294662833214" lon="9.237442938610911">
<ele>428.2</ele>
<time>2024-05-10T09:26:24Z</time>
</trkpt>
<trkpt lat="49.53328317962587" lon="9.237393317744136">
<ele>428.4</ele>
<time>2024-05-10T09:26:25Z</time>
</trkpt>
<trkpt lat="49.533271780237556" lon="9.237343780696392">
<ele>428.4</ele>
<time>2024-05-10T09:26:26Z</time>
</trkpt>
<trkpt lat="49.53326029703021" lon="9.237291309982538">
<ele>428.6</ele>
<time>2024-05-10T09:26:27Z</time>
</trkpt>
<trkpt lat="49.53324504196644" lon="9.237237917259336">
<ele>428.6</ele>
<time>2024-05-10T09:26:28Z</time>
</trkpt>
<trkpt lat="49.533233642578125" lon="9.237184524536133">
<ele>428.8</ele>
<time>2024-05-10T09:26:29Z</time>
</trkpt>
<trkpt lat="49.53321830369532" lon="9.237132975831628">
<ele>429</ele>
<time>2024-05-10T09:26:30Z</time>
</trkpt>
<trkpt lat="49.53320690430701" lon="9.237079583108423">
<ele>429.2</ele>
<time>2024-05-10T09:26:31Z</time>
</trkpt>
<trkpt lat="49.53318779356778" lon="9.23702996224165">
<ele>429.2</ele>
<time>2024-05-10T09:26:32Z</time>
</trkpt>
<trkpt lat="49.533172538504" lon="9.236978497356176">
<ele>429.6</ele>
<time>2024-05-10T09:26:33Z</time>
</trkpt>
<trkpt lat="49.53315728344023" lon="9.236927954480052">
<ele>429.8</ele>
<time>2024-05-10T09:26:34Z</time>
</trkpt>
<trkpt lat="49.53313825652003" lon="9.236881183460357">
<ele>430</ele>
<time>2024-05-10T09:26:35Z</time>
</trkpt>
<trkpt lat="49.53311151824891" lon="9.236829718574882">
<ele>430.2</ele>
<time>2024-05-10T09:26:36Z</time>
</trkpt>
<trkpt lat="49.5331001188606" lon="9.236780097708106">
<ele>430.4</ele>
<time>2024-05-10T09:26:37Z</time>
</trkpt>
<trkpt lat="49.53308486379683" lon="9.236731482669711">
<ele>430.4</ele>
<time>2024-05-10T09:26:38Z</time>
</trkpt>
<trkpt lat="49.53306960873306" lon="9.23669527284801">
<ele>430.6</ele>
<time>2024-05-10T09:26:39Z</time>
</trkpt>
<trkpt lat="49.53304664231837" lon="9.236650429666042">
<ele>430.8</ele>
<time>2024-05-10T09:26:40Z</time>
</trkpt>
<trkpt lat="49.53303138725459" lon="9.236603658646343">
<ele>430.8</ele>
<time>2024-05-10T09:26:41Z</time>
</trkpt>
<trkpt lat="49.53300850465894" lon="9.23655504360795">
<ele>430.8</ele>
<time>2024-05-10T09:26:42Z</time>
</trkpt>
<trkpt lat="49.53298562206328" lon="9.236503578722475">
<ele>431</ele>
<time>2024-05-10T09:26:43Z</time>
</trkpt>
<trkpt lat="49.53297799453139" lon="9.236448258161545">
<ele>431.2</ele>
<time>2024-05-10T09:26:44Z</time>
</trkpt>
<trkpt lat="49.53297036699951" lon="9.236394865438342">
<ele>431.2</ele>
<time>2024-05-10T09:26:45Z</time>
</trkpt>
<trkpt lat="49.532955111935735" lon="9.236343316733835">
<ele>431.4</ele>
<time>2024-05-10T09:26:46Z</time>
</trkpt>
<trkpt lat="49.53293985687196" lon="9.236293779686092">
<ele>431.6</ele>
<time>2024-05-10T09:26:47Z</time>
</trkpt>
<trkpt lat="49.53293222934008" lon="9.23624038696289">
<ele>431.6</ele>
<time>2024-05-10T09:26:48Z</time>
</trkpt>
<trkpt lat="49.53292082995176" lon="9.236186910420656">
<ele>431.8</ele>
<time>2024-05-10T09:26:49Z</time>
</trkpt>
<trkpt lat="49.53290934674442" lon="9.236136367544532">
<ele>431.8</ele>
<time>2024-05-10T09:26:50Z</time>
</trkpt>
<trkpt lat="49.532897947356105" lon="9.23608490265906">
<ele>431.8</ele>
<time>2024-05-10T09:26:51Z</time>
</trkpt>
<trkpt lat="49.532878836616874" lon="9.236033437773584">
<ele>432</ele>
<time>2024-05-10T09:26:52Z</time>
</trkpt>
<trkpt lat="49.5328635815531" lon="9.23598188906908">
<ele>432</ele>
<time>2024-05-10T09:26:53Z</time>
</trkpt>
<trkpt lat="49.53285209834576" lon="9.235926568508148">
<ele>432</ele>
<time>2024-05-10T09:26:54Z</time>
</trkpt>
<trkpt lat="49.53284069895744" lon="9.235871247947216">
<ele>432.2</ele>
<time>2024-05-10T09:26:55Z</time>
</trkpt>
<trkpt lat="49.5328292157501" lon="9.235819783061745">
<ele>432.2</ele>
<time>2024-05-10T09:26:56Z</time>
</trkpt>
<trkpt lat="49.5328101888299" lon="9.23576538451016">
<ele>432.4</ele>
<time>2024-05-10T09:26:57Z</time>
</trkpt>
<trkpt lat="49.532798705622554" lon="9.23570821993053">
<ele>432.6</ele>
<time>2024-05-10T09:26:58Z</time>
</trkpt>
<trkpt lat="49.53278730623424" lon="9.235652899369596">
<ele>432.6</ele>
<time>2024-05-10T09:26:59Z</time>
</trkpt>
<trkpt lat="49.53277205117047" lon="9.235594728961589">
<ele>432.6</ele>
<time>2024-05-10T09:27:00Z</time>
</trkpt>
<trkpt lat="49.532756796106696" lon="9.235533708706498">
<ele>432.6</ele>
<time>2024-05-10T09:27:01Z</time>
</trkpt>
<trkpt lat="49.53274154104293" lon="9.2354697547853">
<ele>432.6</ele>
<time>2024-05-10T09:27:02Z</time>
</trkpt>
<trkpt lat="49.53273005783558" lon="9.235413512215018">
<ele>432.6</ele>
<time>2024-05-10T09:27:03Z</time>
</trkpt>
<trkpt lat="49.53270717523992" lon="9.235356263816357">
<ele>432.6</ele>
<time>2024-05-10T09:27:04Z</time>
</trkpt>
<trkpt lat="49.53269192017615" lon="9.235301949083803">
<ele>432.8</ele>
<time>2024-05-10T09:27:05Z</time>
</trkpt>
<trkpt lat="49.53266903758049" lon="9.235241850838063">
<ele>432.8</ele>
<time>2024-05-10T09:27:06Z</time>
</trkpt>
<trkpt lat="49.53264229930937" lon="9.235179824754596">
<ele>433</ele>
<time>2024-05-10T09:27:07Z</time>
</trkpt>
<trkpt lat="49.53261564485729" lon="9.235119810327888">
<ele>433.2</ele>
<time>2024-05-10T09:27:08Z</time>
</trkpt>
<trkpt lat="49.53259276226163" lon="9.235059712082148">
<ele>433.2</ele>
<time>2024-05-10T09:27:09Z</time>
</trkpt>
<trkpt lat="49.5325736515224" lon="9.2349948361516">
<ele>433.4</ele>
<time>2024-05-10T09:27:10Z</time>
</trkpt>
<trkpt lat="49.532558396458626" lon="9.234932893887162">
<ele>433.4</ele>
<time>2024-05-10T09:27:11Z</time>
</trkpt>
<trkpt lat="49.532543141394854" lon="9.234873717650771">
<ele>433.6</ele>
<time>2024-05-10T09:27:12Z</time>
</trkpt>
<trkpt lat="49.53253165818751" lon="9.234811775386332">
<ele>433.6</ele>
<time>2024-05-10T09:27:13Z</time>
</trkpt>
<trkpt lat="49.532516403123736" lon="9.234749749302864">
<ele>433.8</ele>
<time>2024-05-10T09:27:14Z</time>
</trkpt>
<trkpt lat="49.53249737620354" lon="9.234686801210046">
<ele>434</ele>
<time>2024-05-10T09:27:15Z</time>
</trkpt>
<trkpt lat="49.532482121139765" lon="9.234626702964306">
<ele>434.2</ele>
<time>2024-05-10T09:27:16Z</time>
</trkpt>
<trkpt lat="49.532463010400534" lon="9.234568532556295">
<ele>434.4</ele>
<time>2024-05-10T09:27:17Z</time>
</trkpt>
<trkpt lat="49.53244775533676" lon="9.234508434310555">
<ele>434.4</ele>
<time>2024-05-10T09:27:18Z</time>
</trkpt>
<trkpt lat="49.53243635594845" lon="9.234451269730926">
<ele>434.6</ele>
<time>2024-05-10T09:27:19Z</time>
</trkpt>
<trkpt lat="49.5324248727411" lon="9.234393099322917">
<ele>434.8</ele>
<time>2024-05-10T09:27:20Z</time>
</trkpt>
<trkpt lat="49.53241347335279" lon="9.234334928914905">
<ele>434.8</ele>
<time>2024-05-10T09:27:21Z</time>
</trkpt>
<trkpt lat="49.532401990145445" lon="9.234276758506894">
<ele>435</ele>
<time>2024-05-10T09:27:22Z</time>
</trkpt>
<trkpt lat="49.53238673508167" lon="9.234214732423425">
<ele>435.2</ele>
<time>2024-05-10T09:27:23Z</time>
</trkpt>
<trkpt lat="49.53237910754979" lon="9.234153712168336">
<ele>435.4</ele>
<time>2024-05-10T09:27:24Z</time>
</trkpt>
<trkpt lat="49.53236762434244" lon="9.23408791422844">
<ele>435.6</ele>
<time>2024-05-10T09:27:25Z</time>
</trkpt>
<trkpt lat="49.532359996810555" lon="9.234023038297892">
<ele>435.8</ele>
<time>2024-05-10T09:27:26Z</time>
</trkpt>
<trkpt lat="49.53234474174678" lon="9.233958162367344">
<ele>436</ele>
<time>2024-05-10T09:27:27Z</time>
</trkpt>
<trkpt lat="49.5323371142149" lon="9.233895298093556">
<ele>436</ele>
<time>2024-05-10T09:27:28Z</time>
</trkpt>
<trkpt lat="49.53232948668301" lon="9.23383134417236">
<ele>436.2</ele>
<time>2024-05-10T09:27:29Z</time>
</trkpt>
<trkpt lat="49.532321859151125" lon="9.23377032391727">
<ele>436.2</ele>
<time>2024-05-10T09:27:30Z</time>
</trkpt>
<trkpt lat="49.53231423161924" lon="9.233706453815104">
<ele>436.2</ele>
<time>2024-05-10T09:27:31Z</time>
</trkpt>
<trkpt lat="49.53230660408735" lon="9.233646355569364">
<ele>436.4</ele>
<time>2024-05-10T09:27:32Z</time>
</trkpt>
<trkpt lat="49.532302832230926" lon="9.233588185161352">
<ele>436.4</ele>
<time>2024-05-10T09:27:33Z</time>
</trkpt>
<trkpt lat="49.53229520469904" lon="9.233528086915612">
<ele>436.4</ele>
<time>2024-05-10T09:27:34Z</time>
</trkpt>
<trkpt lat="49.53229134902358" lon="9.233471844345331">
<ele>436.4</ele>
<time>2024-05-10T09:27:35Z</time>
</trkpt>
<trkpt lat="49.53228757716715" lon="9.23341459594667">
<ele>436.6</ele>
<time>2024-05-10T09:27:36Z</time>
</trkpt>
<trkpt lat="49.532283721491694" lon="9.23335642553866">
<ele>436.6</ele>
<time>2024-05-10T09:27:37Z</time>
</trkpt>
<trkpt lat="49.53227994963527" lon="9.233300182968378">
<ele>436.8</ele>
<time>2024-05-10T09:27:38Z</time>
</trkpt>
<trkpt lat="49.53227609395981" lon="9.233242934569716">
<ele>436.8</ele>
<time>2024-05-10T09:27:39Z</time>
</trkpt>
<trkpt lat="49.53226846642792" lon="9.233182836323977">
<ele>437</ele>
<time>2024-05-10T09:27:40Z</time>
</trkpt>
<trkpt lat="49.532264694571495" lon="9.233124665915966">
<ele>437</ele>
<time>2024-05-10T09:27:41Z</time>
</trkpt>
<trkpt lat="49.53225706703961" lon="9.233071273192763">
<ele>437.2</ele>
<time>2024-05-10T09:27:42Z</time>
</trkpt>
<trkpt lat="49.53224943950772" lon="9.233015030622482">
<ele>437.2</ele>
<time>2024-05-10T09:27:43Z</time>
</trkpt>
<trkpt lat="49.53224181197584" lon="9.23295971006155">
<ele>437.2</ele>
<time>2024-05-10T09:27:44Z</time>
</trkpt>
<trkpt lat="49.53223795630038" lon="9.232903467491267">
<ele>437.4</ele>
<time>2024-05-10T09:27:45Z</time>
</trkpt>
<trkpt lat="49.53223032876849" lon="9.23284529708326">
<ele>437.4</ele>
<time>2024-05-10T09:27:46Z</time>
</trkpt>
<trkpt lat="49.532226556912065" lon="9.232788048684595">
<ele>437.6</ele>
<time>2024-05-10T09:27:47Z</time>
</trkpt>
<trkpt lat="49.53221892938018" lon="9.232727950438855">
<ele>437.6</ele>
<time>2024-05-10T09:27:48Z</time>
</trkpt>
<trkpt lat="49.53221507370472" lon="9.232671707868576">
<ele>437.8</ele>
<time>2024-05-10T09:27:49Z</time>
</trkpt>
<trkpt lat="49.532203674316406" lon="9.232618315145372">
<ele>438</ele>
<time>2024-05-10T09:27:50Z</time>
</trkpt>
<trkpt lat="49.532203674316406" lon="9.232566766440868">
<ele>438.2</ele>
<time>2024-05-10T09:27:51Z</time>
</trkpt>
<trkpt lat="49.53219596296549" lon="9.232511445879936">
<ele>438.4</ele>
<time>2024-05-10T09:27:52Z</time>
</trkpt>
<trkpt lat="49.53219219110906" lon="9.232458053156734">
<ele>438.8</ele>
<time>2024-05-10T09:27:53Z</time>
</trkpt>
<trkpt lat="49.53219219110906" lon="9.23240658827126">
<ele>439</ele>
<time>2024-05-10T09:27:54Z</time>
</trkpt>
<trkpt lat="49.5321883354336" lon="9.232356967404485">
<ele>439.2</ele>
<time>2024-05-10T09:27:55Z</time>
</trkpt>
<trkpt lat="49.532184563577175" lon="9.23230642452836">
<ele>439.6</ele>
<time>2024-05-10T09:27:56Z</time>
</trkpt>
<trkpt lat="49.53217693604529" lon="9.232253031805158">
<ele>439.8</ele>
<time>2024-05-10T09:27:57Z</time>
</trkpt>
<trkpt lat="49.53217308036983" lon="9.23218815587461">
<ele>440</ele>
<time>2024-05-10T09:27:58Z</time>
</trkpt>
<trkpt lat="49.5321693085134" lon="9.232125207781792">
<ele>440.4</ele>
<time>2024-05-10T09:27:59Z</time>
</trkpt>
<trkpt lat="49.53216168098152" lon="9.232060415670276">
<ele>440.4</ele>
<time>2024-05-10T09:28:00Z</time>
</trkpt>
<trkpt lat="49.53215782530606" lon="9.232000317424536">
<ele>440.6</ele>
<time>2024-05-10T09:28:01Z</time>
</trkpt>
<trkpt lat="49.53215019777417" lon="9.231938291341066">
<ele>440.8</ele>
<time>2024-05-10T09:28:02Z</time>
</trkpt>
<trkpt lat="49.532146425917745" lon="9.231882970780134">
<ele>441</ele>
<time>2024-05-10T09:28:03Z</time>
</trkpt>
<trkpt lat="49.5321349427104" lon="9.23177333548665">
<ele>441</ele>
<time>2024-05-10T09:28:05Z</time>
</trkpt>
<trkpt lat="49.53212731517851" lon="9.23171130940318">
<ele>441.2</ele>
<time>2024-05-10T09:28:06Z</time>
</trkpt>
<trkpt lat="49.5321159157902" lon="9.231657916679978">
<ele>441.4</ele>
<time>2024-05-10T09:28:07Z</time>
</trkpt>
<trkpt lat="49.532108288258314" lon="9.231597818434238">
<ele>441.6</ele>
<time>2024-05-10T09:28:08Z</time>
</trkpt>
<trkpt lat="49.53210066072643" lon="9.231539648026228">
<ele>441.8</ele>
<time>2024-05-10T09:28:09Z</time>
</trkpt>
<trkpt lat="49.53209680505097" lon="9.23147963359952">
<ele>441.8</ele>
<time>2024-05-10T09:28:10Z</time>
</trkpt>
<trkpt lat="49.53208917751908" lon="9.231423307210209">
<ele>442</ele>
<time>2024-05-10T09:28:11Z</time>
</trkpt>
<trkpt lat="49.532085405662656" lon="9.23136136494577">
<ele>442.2</ele>
<time>2024-05-10T09:28:12Z</time>
</trkpt>
<trkpt lat="49.53208917751908" lon="9.23130034469068">
<ele>442.2</ele>
<time>2024-05-10T09:28:13Z</time>
</trkpt>
<trkpt lat="49.5320815499872" lon="9.231236390769482">
<ele>442.4</ele>
<time>2024-05-10T09:28:14Z</time>
</trkpt>
<trkpt lat="49.53207777813077" lon="9.231175370514393">
<ele>442.6</ele>
<time>2024-05-10T09:28:15Z</time>
</trkpt>
<trkpt lat="49.53207392245531" lon="9.231118122115731">
<ele>442.6</ele>
<time>2024-05-10T09:28:16Z</time>
</trkpt>
<trkpt lat="49.53207015059888" lon="9.231056179851294">
<ele>442.6</ele>
<time>2024-05-10T09:28:17Z</time>
</trkpt>
<trkpt lat="49.532066294923425" lon="9.230998009443285">
<ele>442.6</ele>
<time>2024-05-10T09:28:18Z</time>
</trkpt>
<trkpt lat="49.532066294923425" lon="9.230937911197543">
<ele>442.6</ele>
<time>2024-05-10T09:28:19Z</time>
</trkpt>
<trkpt lat="49.532062523067" lon="9.230879740789533">
<ele>442.8</ele>
<time>2024-05-10T09:28:20Z</time>
</trkpt>
<trkpt lat="49.532062523067" lon="9.230819642543793">
<ele>442.8</ele>
<time>2024-05-10T09:28:21Z</time>
</trkpt>
<trkpt lat="49.53205489553511" lon="9.230758622288704">
<ele>443</ele>
<time>2024-05-10T09:28:22Z</time>
</trkpt>
<trkpt lat="49.53205103985965" lon="9.230696596205236">
<ele>443</ele>
<time>2024-05-10T09:28:23Z</time>
</trkpt>
<trkpt lat="49.532043412327766" lon="9.230633731931448">
<ele>443.2</ele>
<time>2024-05-10T09:28:24Z</time>
</trkpt>
<trkpt lat="49.532043412327766" lon="9.23056977801025">
<ele>443.2</ele>
<time>2024-05-10T09:28:25Z</time>
</trkpt>
<trkpt lat="49.53203964047134" lon="9.23050682991743">
<ele>443.4</ele>
<time>2024-05-10T09:28:26Z</time>
</trkpt>
<trkpt lat="49.53203578479588" lon="9.230442037805917">
<ele>443.4</ele>
<time>2024-05-10T09:28:27Z</time>
</trkpt>
<trkpt lat="49.53203201293945" lon="9.230376239866018">
<ele>443.4</ele>
<time>2024-05-10T09:28:28Z</time>
</trkpt>
<trkpt lat="49.532028157263994" lon="9.2303132917732">
<ele>443.6</ele>
<time>2024-05-10T09:28:29Z</time>
</trkpt>
<trkpt lat="49.532028157263994" lon="9.230248415842652">
<ele>443.6</ele>
<time>2024-05-10T09:28:30Z</time>
</trkpt>
<trkpt lat="49.53202052973211" lon="9.230183539912105">
<ele>443.6</ele>
<time>2024-05-10T09:28:31Z</time>
</trkpt>
<trkpt lat="49.53201667405665" lon="9.230112042278051">
<ele>443.8</ele>
<time>2024-05-10T09:28:32Z</time>
</trkpt>
<trkpt lat="49.53201290220022" lon="9.230043394491076">
<ele>444</ele>
<time>2024-05-10T09:28:33Z</time>
</trkpt>
<trkpt lat="49.53200904652476" lon="9.229978518560529">
<ele>444</ele>
<time>2024-05-10T09:28:34Z</time>
</trkpt>
<trkpt lat="49.532005274668336" lon="9.22991364262998">
<ele>444</ele>
<time>2024-05-10T09:28:35Z</time>
</trkpt>
<trkpt lat="49.53200141899288" lon="9.229844994843006">
<ele>444</ele>
<time>2024-05-10T09:28:36Z</time>
</trkpt>
<trkpt lat="49.53199379146099" lon="9.229775425046682">
<ele>444</ele>
<time>2024-05-10T09:28:37Z</time>
</trkpt>
<trkpt lat="49.53199001960456" lon="9.229709543287754">
<ele>444</ele>
<time>2024-05-10T09:28:38Z</time>
</trkpt>
<trkpt lat="49.53198239207268" lon="9.229644751176238">
<ele>444.2</ele>
<time>2024-05-10T09:28:39Z</time>
</trkpt>
<trkpt lat="49.53198239207268" lon="9.229571325704455">
<ele>444.2</ele>
<time>2024-05-10T09:28:40Z</time>
</trkpt>
<trkpt lat="49.53197853639722" lon="9.229497900232673">
<ele>444.2</ele>
<time>2024-05-10T09:28:41Z</time>
</trkpt>
<trkpt lat="49.53197476454079" lon="9.229428246617315">
<ele>444.2</ele>
<time>2024-05-10T09:28:42Z</time>
</trkpt>
<trkpt lat="49.531967137008905" lon="9.229354821145536">
<ele>444.4</ele>
<time>2024-05-10T09:28:43Z</time>
</trkpt>
<trkpt lat="49.53196328133345" lon="9.22928332351148">
<ele>444.4</ele>
<time>2024-05-10T09:28:44Z</time>
</trkpt>
<trkpt lat="49.53195565380156" lon="9.229211742058396">
<ele>444.6</ele>
<time>2024-05-10T09:28:45Z</time>
</trkpt>
<trkpt lat="49.531948026269674" lon="9.229141166433692">
<ele>444.8</ele>
<time>2024-05-10T09:28:46Z</time>
</trkpt>
<trkpt lat="49.53193662688136" lon="9.229076374322176">
<ele>445</ele>
<time>2024-05-10T09:28:47Z</time>
</trkpt>
<trkpt lat="49.531925143674016" lon="9.22900864854455">
<ele>445.2</ele>
<time>2024-05-10T09:28:48Z</time>
</trkpt>
<trkpt lat="49.53192137181759" lon="9.228942850604652">
<ele>445.4</ele>
<time>2024-05-10T09:28:49Z</time>
</trkpt>
<trkpt lat="49.5319137442857" lon="9.228883674368262">
<ele>445.6</ele>
<time>2024-05-10T09:28:50Z</time>
</trkpt>
<trkpt lat="49.53190988861024" lon="9.228821732103825">
<ele>445.6</ele>
<time>2024-05-10T09:28:51Z</time>
</trkpt>
<trkpt lat="49.5319137442857" lon="9.228756856173275">
<ele>445.8</ele>
<time>2024-05-10T09:28:52Z</time>
</trkpt>
<trkpt lat="49.53190988861024" lon="9.22869298607111">
<ele>446</ele>
<time>2024-05-10T09:28:53Z</time>
</trkpt>
<trkpt lat="49.53189848922193" lon="9.228630037978292">
<ele>446</ele>
<time>2024-05-10T09:28:54Z</time>
</trkpt>
<trkpt lat="49.53189086169005" lon="9.228565162047744">
<ele>446.2</ele>
<time>2024-05-10T09:28:55Z</time>
</trkpt>
<trkpt lat="49.53188323415816" lon="9.228501291945577">
<ele>446.4</ele>
<time>2024-05-10T09:28:56Z</time>
</trkpt>
<trkpt lat="49.53187560662627" lon="9.228436416015027">
<ele>446.6</ele>
<time>2024-05-10T09:28:57Z</time>
</trkpt>
<trkpt lat="49.53187175095081" lon="9.22837346792221">
<ele>446.8</ele>
<time>2024-05-10T09:28:58Z</time>
</trkpt>
<trkpt lat="49.53186412341893" lon="9.228306747972963">
<ele>446.8</ele>
<time>2024-05-10T09:28:59Z</time>
</trkpt>
<trkpt lat="49.53185649588704" lon="9.228242794051766">
<ele>447</ele>
<time>2024-05-10T09:29:00Z</time>
</trkpt>
<trkpt lat="49.531848868355155" lon="9.22817992977798">
<ele>447</ele>
<time>2024-05-10T09:29:01Z</time>
</trkpt>
<trkpt lat="49.53183738514781" lon="9.228116981685162">
<ele>447.2</ele>
<time>2024-05-10T09:29:02Z</time>
</trkpt>
<trkpt lat="49.5318259857595" lon="9.228048250079157">
<ele>447.2</ele>
<time>2024-05-10T09:29:03Z</time>
</trkpt>
<trkpt lat="49.53180310316384" lon="9.227914810180664">
<ele>447.2</ele>
<time>2024-05-10T09:29:05Z</time>
</trkpt>
<trkpt lat="49.53179161995649" lon="9.227854711934924">
<ele>447.4</ele>
<time>2024-05-10T09:29:06Z</time>
</trkpt>
<trkpt lat="49.53178399242461" lon="9.227798385545611">
<ele>447.6</ele>
<time>2024-05-10T09:29:07Z</time>
</trkpt>
<trkpt lat="49.53177636489272" lon="9.2277402151376">
<ele>447.6</ele>
<time>2024-05-10T09:29:08Z</time>
</trkpt>
<trkpt lat="49.53176496550441" lon="9.227675423026083">
<ele>447.8</ele>
<time>2024-05-10T09:29:09Z</time>
</trkpt>
<trkpt lat="49.53175348229706" lon="9.227615324780343">
<ele>448</ele>
<time>2024-05-10T09:29:10Z</time>
</trkpt>
<trkpt lat="49.53174585476518" lon="9.22754474915564">
<ele>448</ele>
<time>2024-05-10T09:29:11Z</time>
</trkpt>
<trkpt lat="49.53173822723329" lon="9.227477023378016">
<ele>448.2</ele>
<time>2024-05-10T09:29:12Z</time>
</trkpt>
<trkpt lat="49.53172682784498" lon="9.22740837559104">
<ele>448.2</ele>
<time>2024-05-10T09:29:13Z</time>
</trkpt>
<trkpt lat="49.531711572781205" lon="9.22734542749822">
<ele>448.2</ele>
<time>2024-05-10T09:29:14Z</time>
</trkpt>
<trkpt lat="49.53170008957386" lon="9.227279629558325">
<ele>448.4</ele>
<time>2024-05-10T09:29:15Z</time>
</trkpt>
<trkpt lat="49.531692462041974" lon="9.227214753627775">
<ele>448.4</ele>
<time>2024-05-10T09:29:16Z</time>
</trkpt>
<trkpt lat="49.5316772069782" lon="9.22715180553496">
<ele>448.6</ele>
<time>2024-05-10T09:29:17Z</time>
</trkpt>
<trkpt lat="49.53166572377086" lon="9.22708986327052">
<ele>448.6</ele>
<time>2024-05-10T09:29:18Z</time>
</trkpt>
<trkpt lat="49.53164669685066" lon="9.227024987339972">
<ele>448.8</ele>
<time>2024-05-10T09:29:19Z</time>
</trkpt>
<trkpt lat="49.53163521364331" lon="9.226962039247155">
<ele>448.8</ele>
<time>2024-05-10T09:29:20Z</time>
</trkpt>
<trkpt lat="49.531627586111426" lon="9.226898169144988">
<ele>449</ele>
<time>2024-05-10T09:29:21Z</time>
</trkpt>
<trkpt lat="49.53161995857954" lon="9.226838070899248">
<ele>449</ele>
<time>2024-05-10T09:29:22Z</time>
</trkpt>
<trkpt lat="49.53160855919123" lon="9.226768417283893">
<ele>449.2</ele>
<time>2024-05-10T09:29:23Z</time>
</trkpt>
<trkpt lat="49.53159707598388" lon="9.22669691964984">
<ele>449.4</ele>
<time>2024-05-10T09:29:24Z</time>
</trkpt>
<trkpt lat="49.53157804906368" lon="9.226626344025137">
<ele>449.4</ele>
<time>2024-05-10T09:29:25Z</time>
</trkpt>
<trkpt lat="49.53156656585634" lon="9.226556774228811">
<ele>449.4</ele>
<time>2024-05-10T09:29:26Z</time>
</trkpt>
<trkpt lat="49.531551310792565" lon="9.226483264937997">
<ele>449.4</ele>
<time>2024-05-10T09:29:27Z</time>
</trkpt>
<trkpt lat="49.53153991140425" lon="9.226414617151022">
<ele>449.4</ele>
<time>2024-05-10T09:29:28Z</time>
</trkpt>
<trkpt lat="49.53152842819691" lon="9.226343119516969">
<ele>449.6</ele>
<time>2024-05-10T09:29:29Z</time>
</trkpt>
<trkpt lat="49.531517028808594" lon="9.226269694045186">
<ele>449.6</ele>
<time>2024-05-10T09:29:30Z</time>
</trkpt>
<trkpt lat="49.53150168992579" lon="9.226196268573403">
<ele>449.6</ele>
<time>2024-05-10T09:29:31Z</time>
</trkpt>
<trkpt lat="49.53148643486202" lon="9.226124687120318">
<ele>449.6</ele>
<time>2024-05-10T09:29:32Z</time>
</trkpt>
<trkpt lat="49.531475035473704" lon="9.226051261648536">
<ele>449.8</ele>
<time>2024-05-10T09:29:33Z</time>
</trkpt>
<trkpt lat="49.53146355226636" lon="9.225979764014482">
<ele>449.8</ele>
<time>2024-05-10T09:29:34Z</time>
</trkpt>
<trkpt lat="49.531452152878046" lon="9.2259063385427">
<ele>450</ele>
<time>2024-05-10T09:29:35Z</time>
</trkpt>
<trkpt lat="49.531436897814274" lon="9.22583006322384">
<ele>450</ele>
<time>2024-05-10T09:29:36Z</time>
</trkpt>
<trkpt lat="49.53142541460693" lon="9.225758481770754">
<ele>450.2</ele>
<time>2024-05-10T09:29:37Z</time>
</trkpt>
<trkpt lat="49.53141778707504" lon="9.225683212280272">
<ele>450.2</ele>
<time>2024-05-10T09:29:38Z</time>
</trkpt>
<trkpt lat="49.53140638768673" lon="9.225605009123685">
<ele>450.2</ele>
<time>2024-05-10T09:29:39Z</time>
</trkpt>
<trkpt lat="49.53140638768673" lon="9.225533427670598">
<ele>450.4</ele>
<time>2024-05-10T09:29:40Z</time>
</trkpt>
<trkpt lat="49.53140638768673" lon="9.225466707721353">
<ele>450.4</ele>
<time>2024-05-10T09:29:41Z</time>
</trkpt>
<trkpt lat="49.53141015954316" lon="9.22539328224957">
<ele>450.6</ele>
<time>2024-05-10T09:29:42Z</time>
</trkpt>
<trkpt lat="49.53140253201127" lon="9.225317928940058">
<ele>450.6</ele>
<time>2024-05-10T09:29:43Z</time>
</trkpt>
<trkpt lat="49.53140253201127" lon="9.225257830694318">
<ele>450.8</ele>
<time>2024-05-10T09:29:44Z</time>
</trkpt>
<trkpt lat="49.53139876015484" lon="9.22519295476377">
<ele>450.8</ele>
<time>2024-05-10T09:29:45Z</time>
</trkpt>
<trkpt lat="49.531394904479384" lon="9.225126234814525">
<ele>451</ele>
<time>2024-05-10T09:29:46Z</time>
</trkpt>
<trkpt lat="49.53140253201127" lon="9.22505658119917">
<ele>451</ele>
<time>2024-05-10T09:29:47Z</time>
</trkpt>
<trkpt lat="49.53139876015484" lon="9.224985083565116">
<ele>451</ele>
<time>2024-05-10T09:29:48Z</time>
</trkpt>
<trkpt lat="49.53139113262296" lon="9.224914507940412">
<ele>451.2</ele>
<time>2024-05-10T09:29:49Z</time>
</trkpt>
<trkpt lat="49.5313872769475" lon="9.224844854325056">
<ele>451.2</ele>
<time>2024-05-10T09:29:50Z</time>
</trkpt>
<trkpt lat="49.53138350509107" lon="9.22477813437581">
<ele>451.4</ele>
<time>2024-05-10T09:29:51Z</time>
</trkpt>
<trkpt lat="49.53137964941561" lon="9.224713258445265">
<ele>451.6</ele>
<time>2024-05-10T09:29:52Z</time>
</trkpt>
<trkpt lat="49.531375877559185" lon="9.224648466333749">
<ele>451.8</ele>
<time>2024-05-10T09:29:53Z</time>
</trkpt>
<trkpt lat="49.5313682500273" lon="9.224584512412548">
<ele>452</ele>
<time>2024-05-10T09:29:54Z</time>
</trkpt>
<trkpt lat="49.53136062249541" lon="9.22452156431973">
<ele>452</ele>
<time>2024-05-10T09:29:55Z</time>
</trkpt>
<trkpt lat="49.53135299496353" lon="9.224459622055292">
<ele>452.4</ele>
<time>2024-05-10T09:29:56Z</time>
</trkpt>
<trkpt lat="49.53134913928807" lon="9.224398601800203">
<ele>452.6</ele>
<time>2024-05-10T09:29:57Z</time>
</trkpt>
<trkpt lat="49.53134151175618" lon="9.224333725869656">
<ele>452.8</ele>
<time>2024-05-10T09:29:58Z</time>
</trkpt>
<trkpt lat="49.53133765608072" lon="9.22426792792976">
<ele>453</ele>
<time>2024-05-10T09:29:59Z</time>
</trkpt>
<trkpt lat="49.53133002854884" lon="9.224201124161482">
<ele>453.2</ele>
<time>2024-05-10T09:30:00Z</time>
</trkpt>
<trkpt lat="49.53133002854884" lon="9.224136332049966">
<ele>453.4</ele>
<time>2024-05-10T09:30:01Z</time>
</trkpt>
<trkpt lat="49.53133002854884" lon="9.224073383957148">
<ele>453.6</ele>
<time>2024-05-10T09:30:02Z</time>
</trkpt>
<trkpt lat="49.53133002854884" lon="9.2240085080266">
<ele>453.8</ele>
<time>2024-05-10T09:30:03Z</time>
</trkpt>
<trkpt lat="49.53132625669241" lon="9.223943632096052">
<ele>454</ele>
<time>2024-05-10T09:30:04Z</time>
</trkpt>
<trkpt lat="49.53132240101695" lon="9.223881689831614">
<ele>454.2</ele>
<time>2024-05-10T09:30:05Z</time>
</trkpt>
<trkpt lat="49.53131862916052" lon="9.223819663748143">
<ele>454.4</ele>
<time>2024-05-10T09:30:06Z</time>
</trkpt>
<trkpt lat="49.531314773485065" lon="9.223761493340136">
<ele>454.6</ele>
<time>2024-05-10T09:30:07Z</time>
</trkpt>
<trkpt lat="49.53130714595318" lon="9.223698545247316">
<ele>454.8</ele>
<time>2024-05-10T09:30:08Z</time>
</trkpt>
<trkpt lat="49.53130337409675" lon="9.223631825298073">
<ele>455</ele>
<time>2024-05-10T09:30:09Z</time>
</trkpt>
<trkpt lat="49.53130337409675" lon="9.223569799214602">
<ele>455</ele>
<time>2024-05-10T09:30:10Z</time>
</trkpt>
<trkpt lat="49.53130337409675" lon="9.223506851121783">
<ele>455.2</ele>
<time>2024-05-10T09:30:11Z</time>
</trkpt>
<trkpt lat="49.53129951842129" lon="9.223442981019616">
<ele>455.2</ele>
<time>2024-05-10T09:30:12Z</time>
</trkpt>
<trkpt lat="49.53129951842129" lon="9.223378105089068">
<ele>455.4</ele>
<time>2024-05-10T09:30:13Z</time>
</trkpt>
<trkpt lat="49.531295746564865" lon="9.22331616282463">
<ele>455.4</ele>
<time>2024-05-10T09:30:14Z</time>
</trkpt>
<trkpt lat="49.53128811903298" lon="9.22325698658824">
<ele>455.6</ele>
<time>2024-05-10T09:30:15Z</time>
</trkpt>
<trkpt lat="49.53128811903298" lon="9.22319789417088">
<ele>455.8</ele>
<time>2024-05-10T09:30:16Z</time>
</trkpt>
<trkpt lat="49.53128426335752" lon="9.2231416516006">
<ele>456</ele>
<time>2024-05-10T09:30:17Z</time>
</trkpt>
<trkpt lat="49.53128049150109" lon="9.22308155335486">
<ele>456</ele>
<time>2024-05-10T09:30:18Z</time>
</trkpt>
<trkpt lat="49.53128049150109" lon="9.223016677424312">
<ele>456.2</ele>
<time>2024-05-10T09:30:19Z</time>
</trkpt>
<trkpt lat="49.53128049150109" lon="9.222949957475066">
<ele>456.4</ele>
<time>2024-05-10T09:30:20Z</time>
</trkpt>
<trkpt lat="49.53128049150109" lon="9.22288030385971">
<ele>456.6</ele>
<time>2024-05-10T09:30:21Z</time>
</trkpt>
<trkpt lat="49.531276635825634" lon="9.222807884216309">
<ele>456.6</ele>
<time>2024-05-10T09:30:22Z</time>
</trkpt>
<trkpt lat="49.53126900829375" lon="9.222740158438684">
<ele>456.8</ele>
<time>2024-05-10T09:30:23Z</time>
</trkpt>
<trkpt lat="49.53126900829375" lon="9.222673354670404">
<ele>456.8</ele>
<time>2024-05-10T09:30:25Z</time>
</trkpt>
<trkpt lat="49.53126900829375" lon="9.222536981105804">
<ele>456.8</ele>
<time>2024-05-10T09:30:26Z</time>
</trkpt>
<trkpt lat="49.53126900829375" lon="9.22247026115656">
<ele>457</ele>
<time>2024-05-10T09:30:27Z</time>
</trkpt>
<trkpt lat="49.53127286396921" lon="9.222401613369584">
<ele>457.2</ele>
<time>2024-05-10T09:30:28Z</time>
</trkpt>
<trkpt lat="49.53127286396921" lon="9.222334809601309">
<ele>457.4</ele>
<time>2024-05-10T09:30:29Z</time>
</trkpt>
<trkpt lat="49.531276635825634" lon="9.22226708382368">
<ele>457.6</ele>
<time>2024-05-10T09:30:30Z</time>
</trkpt>
<trkpt lat="49.53128049150109" lon="9.222200363874435">
<ele>457.6</ele>
<time>2024-05-10T09:30:31Z</time>
</trkpt>
<trkpt lat="49.53128426335752" lon="9.22213171608746">
<ele>457.8</ele>
<time>2024-05-10T09:30:32Z</time>
</trkpt>
<trkpt lat="49.53128811903298" lon="9.222066840156913">
<ele>458</ele>
<time>2024-05-10T09:30:33Z</time>
</trkpt>
<trkpt lat="49.531295746564865" lon="9.222000120207667">
<ele>458.2</ele>
<time>2024-05-10T09:30:34Z</time>
</trkpt>
<trkpt lat="49.53130337409675" lon="9.221936166286469">
<ele>458.2</ele>
<time>2024-05-10T09:30:35Z</time>
</trkpt>
<trkpt lat="49.53130714595318" lon="9.22187707386911">
<ele>458.4</ele>
<time>2024-05-10T09:30:36Z</time>
</trkpt>
<trkpt lat="49.531314773485065" lon="9.22181504778564">
<ele>458.6</ele>
<time>2024-05-10T09:30:37Z</time>
</trkpt>
<trkpt lat="49.53132240101695" lon="9.221751177683473">
<ele>458.8</ele>
<time>2024-05-10T09:30:38Z</time>
</trkpt>
<trkpt lat="49.53133002854884" lon="9.221688229590654">
<ele>459</ele>
<time>2024-05-10T09:30:39Z</time>
</trkpt>
<trkpt lat="49.531333884224296" lon="9.221625281497836">
<ele>459</ele>
<time>2024-05-10T09:30:40Z</time>
</trkpt>
<trkpt lat="49.53134151175618" lon="9.22155948355794">
<ele>459.2</ele>
<time>2024-05-10T09:30:41Z</time>
</trkpt>
<trkpt lat="49.53134913928807" lon="9.221493685618045">
<ele>459.2</ele>
<time>2024-05-10T09:30:42Z</time>
</trkpt>
<trkpt lat="49.531356766819954" lon="9.221426881849766">
<ele>459.4</ele>
<time>2024-05-10T09:30:43Z</time>
</trkpt>
<trkpt lat="49.53136439435184" lon="9.22135823406279">
<ele>459.4</ele>
<time>2024-05-10T09:30:44Z</time>
</trkpt>
<trkpt lat="49.531372021883726" lon="9.221289586275816">
<ele>459.4</ele>
<time>2024-05-10T09:30:45Z</time>
</trkpt>
<trkpt lat="49.53138350509107" lon="9.221220016479492">
<ele>459.4</ele>
<time>2024-05-10T09:30:46Z</time>
</trkpt>
<trkpt lat="49.53139113262296" lon="9.221151284873486">
<ele>459.4</ele>
<time>2024-05-10T09:30:47Z</time>
</trkpt>
<trkpt lat="49.53139876015484" lon="9.221081715077162">
<ele>459.4</ele>
<time>2024-05-10T09:30:48Z</time>
</trkpt>
<trkpt lat="49.53140253201127" lon="9.221012061461806">
<ele>459.4</ele>
<time>2024-05-10T09:30:49Z</time>
</trkpt>
<trkpt lat="49.53141015954316" lon="9.22094534151256">
<ele>459.4</ele>
<time>2024-05-10T09:30:50Z</time>
</trkpt>
<trkpt lat="49.53141778707504" lon="9.220876693725586">
<ele>459.4</ele>
<time>2024-05-10T09:30:51Z</time>
</trkpt>
<trkpt lat="49.53142541460693" lon="9.22080796211958">
<ele>459.4</ele>
<time>2024-05-10T09:30:52Z</time>
</trkpt>
<trkpt lat="49.531433042138815" lon="9.220738392323256">
<ele>459.4</ele>
<time>2024-05-10T09:30:53Z</time>
</trkpt>
<trkpt lat="49.531436897814274" lon="9.2206687387079">
<ele>459.4</ele>
<time>2024-05-10T09:30:54Z</time>
</trkpt>
<trkpt lat="49.53144829720259" lon="9.220596235245466">
<ele>459.4</ele>
<time>2024-05-10T09:30:55Z</time>
</trkpt>
<trkpt lat="49.53145978040993" lon="9.220521887764336">
<ele>459.2</ele>
<time>2024-05-10T09:30:56Z</time>
</trkpt>
<trkpt lat="49.531471179798245" lon="9.220443684607744">
<ele>459.2</ele>
<time>2024-05-10T09:30:57Z</time>
</trkpt>
<trkpt lat="49.531475035473704" lon="9.220370259135962">
<ele>459</ele>
<time>2024-05-10T09:30:58Z</time>
</trkpt>
<trkpt lat="49.53148266300559" lon="9.22029490582645">
<ele>458.8</ele>
<time>2024-05-10T09:30:59Z</time>
</trkpt>
<trkpt lat="49.53149029053748" lon="9.22021670266986">
<ele>458.8</ele>
<time>2024-05-10T09:31:00Z</time>
</trkpt>
<trkpt lat="49.53149791806936" lon="9.22013472765684">
<ele>458.8</ele>
<time>2024-05-10T09:31:01Z</time>
</trkpt>
<trkpt lat="49.53150554560125" lon="9.22005459666252">
<ele>458.6</ele>
<time>2024-05-10T09:31:02Z</time>
</trkpt>
<trkpt lat="49.531513173133135" lon="9.2199744656682">
<ele>458.6</ele>
<time>2024-05-10T09:31:03Z</time>
</trkpt>
<trkpt lat="49.531513173133135" lon="9.219893412664533">
<ele>458.6</ele>
<time>2024-05-10T09:31:04Z</time>
</trkpt>
<trkpt lat="49.53152080066502" lon="9.219815209507942">
<ele>458.4</ele>
<time>2024-05-10T09:31:05Z</time>
</trkpt>
<trkpt lat="49.53152842819691" lon="9.219737006351352">
<ele>458.4</ele>
<time>2024-05-10T09:31:06Z</time>
</trkpt>
<trkpt lat="49.531532283872366" lon="9.21965972520411">
<ele>458.4</ele>
<time>2024-05-10T09:31:07Z</time>
</trkpt>
<trkpt lat="49.53153605572879" lon="9.219588227570055">
<ele>458.4</ele>
<time>2024-05-10T09:31:08Z</time>
</trkpt>
<trkpt lat="49.53153991140425" lon="9.219518657773731">
<ele>458.6</ele>
<time>2024-05-10T09:31:09Z</time>
</trkpt>
<trkpt lat="49.53154368326068" lon="9.219451854005456">
<ele>458.6</ele>
<time>2024-05-10T09:31:10Z</time>
</trkpt>
<trkpt lat="49.53154753893614" lon="9.219386978074908">
<ele>458.8</ele>
<time>2024-05-10T09:31:11Z</time>
</trkpt>
<trkpt lat="49.531551310792565" lon="9.21932310797274">
<ele>458.8</ele>
<time>2024-05-10T09:31:12Z</time>
</trkpt>
<trkpt lat="49.531551310792565" lon="9.219263009727">
<ele>459</ele>
<time>2024-05-10T09:31:13Z</time>
</trkpt>
<trkpt lat="49.531555166468024" lon="9.219202995300291">
<ele>459.4</ele>
<time>2024-05-10T09:31:14Z</time>
</trkpt>
<trkpt lat="49.531555166468024" lon="9.21914474107325">
<ele>459.6</ele>
<time>2024-05-10T09:31:15Z</time>
</trkpt>
<trkpt lat="49.53155893832445" lon="9.219083720818162">
<ele>460</ele>
<time>2024-05-10T09:31:16Z</time>
</trkpt>
<trkpt lat="49.53156279399991" lon="9.219019850715997">
<ele>460.2</ele>
<time>2024-05-10T09:31:17Z</time>
</trkpt>
<trkpt lat="49.53156656585634" lon="9.218957824632524">
<ele>460.4</ele>
<time>2024-05-10T09:31:18Z</time>
</trkpt>
<trkpt lat="49.53156656585634" lon="9.218894876539707">
<ele>460.6</ele>
<time>2024-05-10T09:31:19Z</time>
</trkpt>
<trkpt lat="49.5315704215318" lon="9.21883293427527">
<ele>460.8</ele>
<time>2024-05-10T09:31:20Z</time>
</trkpt>
<trkpt lat="49.53157804906368" lon="9.21877191402018">
<ele>461</ele>
<time>2024-05-10T09:31:21Z</time>
</trkpt>
<trkpt lat="49.53157804906368" lon="9.21871181577444">
<ele>461.2</ele>
<time>2024-05-10T09:31:22Z</time>
</trkpt>
<trkpt lat="49.53158182092011" lon="9.2186517175287">
<ele>461.2</ele>
<time>2024-05-10T09:31:23Z</time>
</trkpt>
<trkpt lat="49.53158182092011" lon="9.21859161928296">
<ele>461.4</ele>
<time>2024-05-10T09:31:24Z</time>
</trkpt>
<trkpt lat="49.531589448452" lon="9.218529677018523">
<ele>461.6</ele>
<time>2024-05-10T09:31:25Z</time>
</trkpt>
<trkpt lat="49.531593304127455" lon="9.218466728925703">
<ele>461.8</ele>
<time>2024-05-10T09:31:26Z</time>
</trkpt>
<trkpt lat="49.53159707598388" lon="9.218402858823538">
<ele>462</ele>
<time>2024-05-10T09:31:27Z</time>
</trkpt>
<trkpt lat="49.53160093165934" lon="9.218341754749416">
<ele>462.2</ele>
<time>2024-05-10T09:31:28Z</time>
</trkpt>
<trkpt lat="49.53160855919123" lon="9.21827981248498">
<ele>462.2</ele>
<time>2024-05-10T09:31:29Z</time>
</trkpt>
<trkpt lat="49.53161618672311" lon="9.21821778640151">
<ele>462.4</ele>
<time>2024-05-10T09:31:30Z</time>
</trkpt>
<trkpt lat="49.531623814255" lon="9.218154838308692">
<ele>462.6</ele>
<time>2024-05-10T09:31:31Z</time>
</trkpt>
<trkpt lat="49.531631441786885" lon="9.218092896044254">
<ele>462.6</ele>
<time>2024-05-10T09:31:32Z</time>
</trkpt>
<trkpt lat="49.53163521364331" lon="9.218031875789164">
<ele>462.8</ele>
<time>2024-05-10T09:31:33Z</time>
</trkpt>
<trkpt lat="49.5316428411752" lon="9.217971777543426">
<ele>462.8</ele>
<time>2024-05-10T09:31:34Z</time>
</trkpt>
<trkpt lat="49.531650468707085" lon="9.217911679297686">
<ele>462.8</ele>
<time>2024-05-10T09:31:35Z</time>
</trkpt>
<trkpt lat="49.53165809623897" lon="9.217851581051946">
<ele>462.8</ele>
<time>2024-05-10T09:31:36Z</time>
</trkpt>
<trkpt lat="49.53166572377086" lon="9.217791482806206">
<ele>463</ele>
<time>2024-05-10T09:31:37Z</time>
</trkpt>
<trkpt lat="49.53167335130274" lon="9.217731468379498">
<ele>463</ele>
<time>2024-05-10T09:31:38Z</time>
</trkpt>
<trkpt lat="49.53168097883463" lon="9.217675141990185">
<ele>463.2</ele>
<time>2024-05-10T09:31:39Z</time>
</trkpt>
<trkpt lat="49.53168483451009" lon="9.217616971582174">
<ele>463.2</ele>
<time>2024-05-10T09:31:40Z</time>
</trkpt>
<trkpt lat="49.53169631771743" lon="9.217556873336434">
<ele>463.4</ele>
<time>2024-05-10T09:31:41Z</time>
</trkpt>
<trkpt lat="49.53170394524932" lon="9.217496858909726">
<ele>463.4</ele>
<time>2024-05-10T09:31:42Z</time>
</trkpt>
<trkpt lat="49.531711572781205" lon="9.217434832826257">
<ele>463.6</ele>
<time>2024-05-10T09:31:43Z</time>
</trkpt>
<trkpt lat="49.53172297216952" lon="9.217371884733438">
<ele>463.8</ele>
<time>2024-05-10T09:31:44Z</time>
</trkpt>
<trkpt lat="49.531730599701405" lon="9.217309942469">
<ele>464</ele>
<time>2024-05-10T09:31:45Z</time>
</trkpt>
<trkpt lat="49.53174208290875" lon="9.21724984422326">
<ele>464.2</ele>
<time>2024-05-10T09:31:46Z</time>
</trkpt>
<trkpt lat="49.53175348229706" lon="9.21719167381525">
<ele>464.4</ele>
<time>2024-05-10T09:31:47Z</time>
</trkpt>
<trkpt lat="49.53175733797252" lon="9.21713350340724">
<ele>464.6</ele>
<time>2024-05-10T09:31:48Z</time>
</trkpt>
<trkpt lat="49.53176496550441" lon="9.21707533299923">
<ele>464.6</ele>
<time>2024-05-10T09:31:49Z</time>
</trkpt>
<trkpt lat="49.53177636489272" lon="9.217020012438295">
<ele>464.8</ele>
<time>2024-05-10T09:31:50Z</time>
</trkpt>
<trkpt lat="49.531787848100066" lon="9.216963686048985">
<ele>464.8</ele>
<time>2024-05-10T09:31:51Z</time>
</trkpt>
<trkpt lat="49.53179547563195" lon="9.216910293325782">
<ele>465</ele>
<time>2024-05-10T09:31:52Z</time>
</trkpt>
<trkpt lat="49.531806875020266" lon="9.21685690060258">
<ele>465</ele>
<time>2024-05-10T09:31:53Z</time>
</trkpt>
<trkpt lat="49.53181835822761" lon="9.216803507879376">
<ele>465</ele>
<time>2024-05-10T09:31:54Z</time>
</trkpt>
<trkpt lat="49.5318259857595" lon="9.216748187318444">
<ele>465</ele>
<time>2024-05-10T09:31:55Z</time>
</trkpt>
<trkpt lat="49.53183361329138" lon="9.216691944748163">
<ele>465.2</ele>
<time>2024-05-10T09:31:56Z</time>
</trkpt>
<trkpt lat="49.531845012679696" lon="9.216634696349502">
<ele>465.2</ele>
<time>2024-05-10T09:31:57Z</time>
</trkpt>
<trkpt lat="49.53185264021158" lon="9.21657845377922">
<ele>465.2</ele>
<time>2024-05-10T09:31:58Z</time>
</trkpt>
<trkpt lat="49.5318603515625" lon="9.21651835553348">
<ele>465.2</ele>
<time>2024-05-10T09:31:59Z</time>
</trkpt>
<trkpt lat="49.531867979094386" lon="9.21646018512547">
<ele>465.2</ele>
<time>2024-05-10T09:32:00Z</time>
</trkpt>
<trkpt lat="49.53187560662627" lon="9.216402936726809">
<ele>465.2</ele>
<time>2024-05-10T09:32:01Z</time>
</trkpt>
<trkpt lat="49.53189086169005" lon="9.216344766318798">
<ele>465.2</ele>
<time>2024-05-10T09:32:02Z</time>
</trkpt>
<trkpt lat="49.53189848922193" lon="9.21628475189209">
<ele>465.2</ele>
<time>2024-05-10T09:32:03Z</time>
</trkpt>
<trkpt lat="49.53190611675382" lon="9.21622465364635">
<ele>465.2</ele>
<time>2024-05-10T09:32:04Z</time>
</trkpt>
<trkpt lat="49.5319137442857" lon="9.21616455540061">
<ele>465.2</ele>
<time>2024-05-10T09:32:05Z</time>
</trkpt>
<trkpt lat="49.531925143674016" lon="9.21610353514552">
<ele>465.4</ele>
<time>2024-05-10T09:32:06Z</time>
</trkpt>
<trkpt lat="49.5319327712059" lon="9.216041509062052">
<ele>465.4</ele>
<time>2024-05-10T09:32:07Z</time>
</trkpt>
<trkpt lat="49.53194425441325" lon="9.215979566797614">
<ele>465.6</ele>
<time>2024-05-10T09:32:08Z</time>
</trkpt>
<trkpt lat="49.53195565380156" lon="9.215916618704796">
<ele>465.6</ele>
<time>2024-05-10T09:32:09Z</time>
</trkpt>
<trkpt lat="49.531967137008905" lon="9.215851742774248">
<ele>465.6</ele>
<time>2024-05-10T09:32:10Z</time>
</trkpt>
<trkpt lat="49.53197476454079" lon="9.2157868668437">
<ele>465.6</ele>
<time>2024-05-10T09:32:11Z</time>
</trkpt>
<trkpt lat="49.531986163929105" lon="9.215722074732184">
<ele>465.8</ele>
<time>2024-05-10T09:32:12Z</time>
</trkpt>
<trkpt lat="49.53199379146099" lon="9.215658120810986">
<ele>465.8</ele>
<time>2024-05-10T09:32:13Z</time>
</trkpt>
<trkpt lat="49.53200141899288" lon="9.215598106384276">
<ele>466</ele>
<time>2024-05-10T09:32:14Z</time>
</trkpt>
<trkpt lat="49.53200904652476" lon="9.215537002310157">
<ele>466.2</ele>
<time>2024-05-10T09:32:15Z</time>
</trkpt>
<trkpt lat="49.53202052973211" lon="9.21547506004572">
<ele>466.4</ele>
<time>2024-05-10T09:32:16Z</time>
</trkpt>
<trkpt lat="49.532028157263994" lon="9.21541496179998">
<ele>466.4</ele>
<time>2024-05-10T09:32:17Z</time>
</trkpt>
<trkpt lat="49.53203964047134" lon="9.215348241850734">
<ele>466.6</ele>
<time>2024-05-10T09:32:18Z</time>
</trkpt>
<trkpt lat="49.532047268003225" lon="9.215283365920186">
<ele>466.6</ele>
<time>2024-05-10T09:32:19Z</time>
</trkpt>
<trkpt lat="49.53205866739154" lon="9.215216562151909">
<ele>466.8</ele>
<time>2024-05-10T09:32:20Z</time>
</trkpt>
<trkpt lat="49.532066294923425" lon="9.215151770040393">
<ele>466.8</ele>
<time>2024-05-10T09:32:21Z</time>
</trkpt>
<trkpt lat="49.53207777813077" lon="9.215086894109843">
<ele>466.8</ele>
<time>2024-05-10T09:32:22Z</time>
</trkpt>
<trkpt lat="49.532085405662656" lon="9.215022018179296">
<ele>467</ele>
<time>2024-05-10T09:32:23Z</time>
</trkpt>
<trkpt lat="49.53209680505097" lon="9.21495814807713">
<ele>467</ele>
<time>2024-05-10T09:32:24Z</time>
</trkpt>
<trkpt lat="49.532104432582855" lon="9.214895199984312">
<ele>467.2</ele>
<time>2024-05-10T09:32:25Z</time>
</trkpt>
<trkpt lat="49.532108288258314" lon="9.214835101738572">
<ele>467.2</ele>
<time>2024-05-10T09:32:26Z</time>
</trkpt>
<trkpt lat="49.5321159157902" lon="9.214776931330562">
<ele>467.4</ele>
<time>2024-05-10T09:32:27Z</time>
</trkpt>
<trkpt lat="49.53211968764663" lon="9.214714989066124">
<ele>467.4</ele>
<time>2024-05-10T09:32:28Z</time>
</trkpt>
<trkpt lat="49.532142570242286" lon="9.214590014889836">
<ele>467.4</ele>
<time>2024-05-10T09:32:30Z</time>
</trkpt>
<trkpt lat="49.53215405344963" lon="9.21452522277832">
<ele>467.6</ele>
<time>2024-05-10T09:32:31Z</time>
</trkpt>
<trkpt lat="49.53216168098152" lon="9.214460346847773">
<ele>467.6</ele>
<time>2024-05-10T09:32:32Z</time>
</trkpt>
<trkpt lat="49.532165452837944" lon="9.214391699060798">
<ele>467.6</ele>
<time>2024-05-10T09:32:33Z</time>
</trkpt>
<trkpt lat="49.53217308036983" lon="9.21432875096798">
<ele>467.6</ele>
<time>2024-05-10T09:32:34Z</time>
</trkpt>
<trkpt lat="49.53218070790171" lon="9.21426672488451">
<ele>467.6</ele>
<time>2024-05-10T09:32:35Z</time>
</trkpt>
<trkpt lat="49.5321883354336" lon="9.2142085544765">
<ele>467.6</ele>
<time>2024-05-10T09:32:36Z</time>
</trkpt>
<trkpt lat="49.53219981864095" lon="9.21414845623076">
<ele>467.8</ele>
<time>2024-05-10T09:32:37Z</time>
</trkpt>
<trkpt lat="49.53220744617283" lon="9.21409028582275">
<ele>467.8</ele>
<time>2024-05-10T09:32:38Z</time>
</trkpt>
<trkpt lat="49.53221507370472" lon="9.21403119340539">
<ele>467.8</ele>
<time>2024-05-10T09:32:39Z</time>
</trkpt>
<trkpt lat="49.532222701236606" lon="9.213974950835109">
<ele>468</ele>
<time>2024-05-10T09:32:40Z</time>
</trkpt>
<trkpt lat="49.53223032876849" lon="9.213914852589369">
<ele>468</ele>
<time>2024-05-10T09:32:41Z</time>
</trkpt>
<trkpt lat="49.53223795630038" lon="9.213856682181358">
<ele>468</ele>
<time>2024-05-10T09:32:42Z</time>
</trkpt>
<trkpt lat="49.532245583832264" lon="9.213800355792046">
<ele>468</ele>
<time>2024-05-10T09:32:43Z</time>
</trkpt>
<trkpt lat="49.53225321136415" lon="9.213741263374686">
<ele>468</ele>
<time>2024-05-10T09:32:44Z</time>
</trkpt>
<trkpt lat="49.532264694571495" lon="9.213681165128946">
<ele>468</ele>
<time>2024-05-10T09:32:45Z</time>
</trkpt>
<trkpt lat="49.53227232210338" lon="9.213618217036128">
<ele>468</ele>
<time>2024-05-10T09:32:46Z</time>
</trkpt>
<trkpt lat="49.53227994963527" lon="9.21355627477169">
<ele>468</ele>
<time>2024-05-10T09:32:47Z</time>
</trkpt>
<trkpt lat="49.532283721491694" lon="9.213493326678872">
<ele>468.2</ele>
<time>2024-05-10T09:32:48Z</time>
</trkpt>
<trkpt lat="49.53229134902358" lon="9.213426522910597">
<ele>468.2</ele>
<time>2024-05-10T09:32:49Z</time>
</trkpt>
<trkpt lat="49.53229520469904" lon="9.213356953114271">
<ele>468.4</ele>
<time>2024-05-10T09:32:50Z</time>
</trkpt>
<trkpt lat="49.532302832230926" lon="9.213283527642488">
<ele>468.4</ele>
<time>2024-05-10T09:32:51Z</time>
</trkpt>
<trkpt lat="49.53230660408735" lon="9.213205324485898">
<ele>468.6</ele>
<time>2024-05-10T09:32:52Z</time>
</trkpt>
<trkpt lat="49.53231045976281" lon="9.213127121329308">
<ele>468.6</ele>
<time>2024-05-10T09:32:53Z</time>
</trkpt>
<trkpt lat="49.53231423161924" lon="9.213045062497258">
<ele>468.6</ele>
<time>2024-05-10T09:32:54Z</time>
</trkpt>
<trkpt lat="49.5323180872947" lon="9.212961159646513">
<ele>468.6</ele>
<time>2024-05-10T09:32:55Z</time>
</trkpt>
<trkpt lat="49.5323180872947" lon="9.212876250967383">
<ele>468.4</ele>
<time>2024-05-10T09:32:56Z</time>
</trkpt>
<trkpt lat="49.5323180872947" lon="9.212791426107287">
<ele>468.4</ele>
<time>2024-05-10T09:32:57Z</time>
</trkpt>
<trkpt lat="49.5323180872947" lon="9.21270366758108">
<ele>468.2</ele>
<time>2024-05-10T09:32:58Z</time>
</trkpt>
<trkpt lat="49.5323180872947" lon="9.21261020936072">
<ele>468</ele>
<time>2024-05-10T09:32:59Z</time>
</trkpt>
<trkpt lat="49.5323180872947" lon="9.212518678978086">
<ele>467.8</ele>
<time>2024-05-10T09:33:00Z</time>
</trkpt>
<trkpt lat="49.53231423161924" lon="9.2124280706048">
<ele>467.6</ele>
<time>2024-05-10T09:33:01Z</time>
</trkpt>
<trkpt lat="49.53231423161924" lon="9.212338384240866">
<ele>467.4</ele>
<time>2024-05-10T09:33:02Z</time>
</trkpt>
<trkpt lat="49.5323180872947" lon="9.21225163154304">
<ele>467</ele>
<time>2024-05-10T09:33:03Z</time>
</trkpt>
<trkpt lat="49.532325714826584" lon="9.212162951007484">
<ele>466.8</ele>
<time>2024-05-10T09:33:04Z</time>
</trkpt>
<trkpt lat="49.53234474174678" lon="9.21207519248128">
<ele>466.4</ele>
<time>2024-05-10T09:33:05Z</time>
</trkpt>
<trkpt lat="49.532363852486014" lon="9.211993217468262">
<ele>466</ele>
<time>2024-05-10T09:33:06Z</time>
</trkpt>
<trkpt lat="49.532382963225245" lon="9.211911158636212">
<ele>465.8</ele>
<time>2024-05-10T09:33:07Z</time>
</trkpt>
<trkpt lat="49.53238673508167" lon="9.211828177794814">
<ele>465.4</ele>
<time>2024-05-10T09:33:08Z</time>
</trkpt>
<trkpt lat="49.532382963225245" lon="9.21173857524991">
<ele>465</ele>
<time>2024-05-10T09:33:09Z</time>
</trkpt>
<trkpt lat="49.532359996810555" lon="9.211649894714355">
<ele>464.6</ele>
<time>2024-05-10T09:33:10Z</time>
</trkpt>
<trkpt lat="49.53234096989035" lon="9.21155828051269">
<ele>464.2</ele>
<time>2024-05-10T09:33:11Z</time>
</trkpt>
<trkpt lat="49.532321859151125" lon="9.21146004460752">
<ele>463.8</ele>
<time>2024-05-10T09:33:12Z</time>
</trkpt>
<trkpt lat="49.532302832230926" lon="9.21136474236846">
<ele>463.4</ele>
<time>2024-05-10T09:33:13Z</time>
</trkpt>
<trkpt lat="49.53227609395981" lon="9.21116542071104">
<ele>463</ele>
<time>2024-05-10T09:33:15Z</time>
</trkpt>
<trkpt lat="49.532264694571495" lon="9.211059557273984">
<ele>462.6</ele>
<time>2024-05-10T09:33:16Z</time>
</trkpt>
<trkpt lat="49.53225321136415" lon="9.210953693836927">
<ele>462.2</ele>
<time>2024-05-10T09:33:17Z</time>
</trkpt>
<trkpt lat="49.53223795630038" lon="9.21084682457149">
<ele>462</ele>
<time>2024-05-10T09:33:18Z</time>
</trkpt>
<trkpt lat="49.532226556912065" lon="9.210738111287355">
<ele>461.6</ele>
<time>2024-05-10T09:33:19Z</time>
</trkpt>
<trkpt lat="49.53221507370472" lon="9.2106304038316">
<ele>461.2</ele>
<time>2024-05-10T09:33:20Z</time>
</trkpt>
<trkpt lat="49.532203674316406" lon="9.210517834872007">
<ele>460.6</ele>
<time>2024-05-10T09:33:21Z</time>
</trkpt>
<trkpt lat="49.53219981864095" lon="9.210406271740794">
<ele>460.2</ele>
<time>2024-05-10T09:33:22Z</time>
</trkpt>
<trkpt lat="49.53219596296549" lon="9.21029655262828">
<ele>459.6</ele>
<time>2024-05-10T09:33:23Z</time>
</trkpt>
<trkpt lat="49.53219596296549" lon="9.210180211812258">
<ele>459.2</ele>
<time>2024-05-10T09:33:24Z</time>
</trkpt>
<trkpt lat="49.53219981864095" lon="9.210062948986888">
<ele>458.6</ele>
<time>2024-05-10T09:33:25Z</time>
</trkpt>
<trkpt lat="49.532203674316406" lon="9.20994183048606">
<ele>458</ele>
<time>2024-05-10T09:33:26Z</time>
</trkpt>
<trkpt lat="49.53220744617283" lon="9.209816856309772">
<ele>457.4</ele>
<time>2024-05-10T09:33:27Z</time>
</trkpt>
<trkpt lat="49.53221507370472" lon="9.20968626625836">
<ele>456.6</ele>
<time>2024-05-10T09:33:28Z</time>
</trkpt>
<trkpt lat="49.532222701236606" lon="9.209556514397264">
<ele>456</ele>
<time>2024-05-10T09:33:29Z</time>
</trkpt>
<trkpt lat="49.53223418444395" lon="9.20942299067974">
<ele>455.4</ele>
<time>2024-05-10T09:33:30Z</time>
</trkpt>
<trkpt lat="49.532245583832264" lon="9.20928854495287">
<ele>454.6</ele>
<time>2024-05-10T09:33:31Z</time>
</trkpt>
<trkpt lat="49.53226846642792" lon="9.209153093397616">
<ele>454</ele>
<time>2024-05-10T09:33:32Z</time>
</trkpt>
<trkpt lat="49.53227994963527" lon="9.209018647670746">
<ele>453.4</ele>
<time>2024-05-10T09:33:33Z</time>
</trkpt>
<trkpt lat="49.53228757716715" lon="9.208881352096796">
<ele>452.8</ele>
<time>2024-05-10T09:33:34Z</time>
</trkpt>
<trkpt lat="49.53229897655547" lon="9.208746906369925">
<ele>452.2</ele>
<time>2024-05-10T09:33:35Z</time>
</trkpt>
<trkpt lat="49.53231045976281" lon="9.208611454814672">
<ele>451.8</ele>
<time>2024-05-10T09:33:36Z</time>
</trkpt>
<trkpt lat="49.532321859151125" lon="9.20847985893488">
<ele>451.2</ele>
<time>2024-05-10T09:33:37Z</time>
</trkpt>
<trkpt lat="49.53232948668301" lon="9.208348263055086">
<ele>450.6</ele>
<time>2024-05-10T09:33:38Z</time>
</trkpt>
<trkpt lat="49.5323371142149" lon="9.208219517022371">
<ele>450.2</ele>
<time>2024-05-10T09:33:39Z</time>
</trkpt>
<trkpt lat="49.53235236927867" lon="9.208096470683811">
<ele>449.8</ele>
<time>2024-05-10T09:33:40Z</time>
</trkpt>
<trkpt lat="49.532363852486014" lon="9.207973424345257">
<ele>449.6</ele>
<time>2024-05-10T09:33:41Z</time>
</trkpt>
<trkpt lat="49.53237910754979" lon="9.207851383835076">
<ele>449.2</ele>
<time>2024-05-10T09:33:42Z</time>
</trkpt>
<trkpt lat="49.53239436261356" lon="9.207731187343596">
<ele>448.8</ele>
<time>2024-05-10T09:33:43Z</time>
</trkpt>
<trkpt lat="49.532405845820904" lon="9.207616774365306">
<ele>448.6</ele>
<time>2024-05-10T09:33:44Z</time>
</trkpt>
<trkpt lat="49.53242110088467" lon="9.207501355558634">
<ele>448.4</ele>
<time>2024-05-10T09:33:45Z</time>
</trkpt>
<trkpt lat="49.53243635594845" lon="9.207387864589691">
<ele>448.2</ele>
<time>2024-05-10T09:33:46Z</time>
</trkpt>
<trkpt lat="49.53245161101222" lon="9.207276301458478">
<ele>448.2</ele>
<time>2024-05-10T09:33:47Z</time>
</trkpt>
<trkpt lat="49.532463010400534" lon="9.20717136003077">
<ele>448</ele>
<time>2024-05-10T09:33:48Z</time>
</trkpt>
<trkpt lat="49.532478265464306" lon="9.207068430259824">
<ele>448</ele>
<time>2024-05-10T09:33:49Z</time>
</trkpt>
<trkpt lat="49.53249352052808" lon="9.206970194354652">
<ele>448</ele>
<time>2024-05-10T09:33:50Z</time>
</trkpt>
<trkpt lat="49.53250500373542" lon="9.20687673613429">
<ele>448</ele>
<time>2024-05-10T09:33:51Z</time>
</trkpt>
<trkpt lat="49.532516403123736" lon="9.206789899617434">
<ele>448</ele>
<time>2024-05-10T09:33:52Z</time>
</trkpt>
<trkpt lat="49.53253165818751" lon="9.206703146919608">
<ele>448</ele>
<time>2024-05-10T09:33:53Z</time>
</trkpt>
<trkpt lat="49.532543141394854" lon="9.20661823824048">
<ele>448.2</ele>
<time>2024-05-10T09:33:54Z</time>
</trkpt>
<trkpt lat="49.532558396458626" lon="9.20654196292162">
<ele>448.4</ele>
<time>2024-05-10T09:33:55Z</time>
</trkpt>
<trkpt lat="49.53256987966597" lon="9.206468537449837">
<ele>448.6</ele>
<time>2024-05-10T09:33:56Z</time>
</trkpt>
<trkpt lat="49.53258513472974" lon="9.206399889662862">
<ele>448.6</ele>
<time>2024-05-10T09:33:57Z</time>
</trkpt>
<trkpt lat="49.532600389793515" lon="9.206335013732314">
<ele>448.8</ele>
<time>2024-05-10T09:33:58Z</time>
</trkpt>
<trkpt lat="49.532619416713715" lon="9.206278771162031">
<ele>449</ele>
<time>2024-05-10T09:33:59Z</time>
</trkpt>
<trkpt lat="49.53263467177749" lon="9.206228228285909">
<ele>449</ele>
<time>2024-05-10T09:34:00Z</time>
</trkpt>
<trkpt lat="49.53265378251672" lon="9.20618338510394">
<ele>449.2</ele>
<time>2024-05-10T09:34:01Z</time>
</trkpt>
<trkpt lat="49.53267280943692" lon="9.206139547750354">
<ele>449.2</ele>
<time>2024-05-10T09:34:02Z</time>
</trkpt>
<trkpt lat="49.532695692032576" lon="9.206100404262545">
<ele>449.6</ele>
<time>2024-05-10T09:34:03Z</time>
</trkpt>
<trkpt lat="49.532718658447266" lon="9.206061344593763">
<ele>449.8</ele>
<time>2024-05-10T09:34:04Z</time>
</trkpt>
<trkpt lat="49.53274916857481" lon="9.206029828637838">
<ele>450</ele>
<time>2024-05-10T09:34:05Z</time>
</trkpt>
<trkpt lat="49.532775823026896" lon="9.205996468663216">
<ele>450.2</ele>
<time>2024-05-10T09:34:06Z</time>
</trkpt>
<trkpt lat="49.532798705622554" lon="9.205958331003783">
<ele>450.4</ele>
<time>2024-05-10T09:34:07Z</time>
</trkpt>
<trkpt lat="49.532817816361785" lon="9.205915415659549">
<ele>450.8</ele>
<time>2024-05-10T09:34:08Z</time>
</trkpt>
<trkpt lat="49.53283307142556" lon="9.20586864463985">
<ele>451</ele>
<time>2024-05-10T09:34:09Z</time>
</trkpt>
<trkpt lat="49.53284447081387" lon="9.205818101763724">
<ele>451.2</ele>
<time>2024-05-10T09:34:10Z</time>
</trkpt>
<trkpt lat="49.53285209834576" lon="9.205764709040524">
<ele>451.6</ele>
<time>2024-05-10T09:34:11Z</time>
</trkpt>
<trkpt lat="49.532855954021215" lon="9.205708466470242">
<ele>451.8</ele>
<time>2024-05-10T09:34:12Z</time>
</trkpt>
<trkpt lat="49.53285209834576" lon="9.20565121807158">
<ele>452.2</ele>
<time>2024-05-10T09:34:13Z</time>
</trkpt>
<trkpt lat="49.53284832648933" lon="9.205596903339028">
<ele>452.4</ele>
<time>2024-05-10T09:34:14Z</time>
</trkpt>
<trkpt lat="49.532836843281984" lon="9.205546360462904">
<ele>452.8</ele>
<time>2024-05-10T09:34:15Z</time>
</trkpt>
<trkpt lat="49.53282158821821" lon="9.205503445118666">
<ele>453</ele>
<time>2024-05-10T09:34:16Z</time>
</trkpt>
<trkpt lat="49.5328101888299" lon="9.205465307459235">
<ele>453.2</ele>
<time>2024-05-10T09:34:17Z</time>
</trkpt>
<trkpt lat="49.53279107809067" lon="9.205423314124346">
<ele>453.6</ele>
<time>2024-05-10T09:34:18Z</time>
</trkpt>
<trkpt lat="49.532775823026896" lon="9.205385176464915">
<ele>453.8</ele>
<time>2024-05-10T09:34:19Z</time>
</trkpt>
<trkpt lat="49.53276442363858" lon="9.205345110967755">
<ele>454.2</ele>
<time>2024-05-10T09:34:20Z</time>
</trkpt>
<trkpt lat="49.53275294043124" lon="9.205307895317674">
<ele>454.4</ele>
<time>2024-05-10T09:34:21Z</time>
</trkpt>
<trkpt lat="49.53274154104293" lon="9.20527646318078">
<ele>454.6</ele>
<time>2024-05-10T09:34:22Z</time>
</trkpt>
<trkpt lat="49.53273391351104" lon="9.205253580585122">
<ele>454.8</ele>
<time>2024-05-10T09:34:23Z</time>
</trkpt>
<trkpt lat="49.53272628597915" lon="9.205229692161083">
<ele>454.8</ele>
<time>2024-05-10T09:34:24Z</time>
</trkpt>
<trkpt lat="49.53271480277181" lon="9.205206809565423">
<ele>455</ele>
<time>2024-05-10T09:34:25Z</time>
</trkpt>
<trkpt lat="49.53269192017615" lon="9.205148639157414">
<ele>455</ele>
<time>2024-05-10T09:34:27Z</time>
</trkpt>
<trkpt lat="49.532676665112376" lon="9.205111423507333">
<ele>455.2</ele>
<time>2024-05-10T09:34:28Z</time>
</trkpt>
<trkpt lat="49.532657554373145" lon="9.205073285847902">
<ele>455.2</ele>
<time>2024-05-10T09:34:29Z</time>
</trkpt>
<trkpt lat="49.5326270442456" lon="9.20499986037612">
<ele>455.2</ele>
<time>2024-05-10T09:34:31Z</time>
</trkpt>
<trkpt lat="49.53261178918183" lon="9.204964572563767">
<ele>455.4</ele>
<time>2024-05-10T09:34:32Z</time>
</trkpt>
<trkpt lat="49.532596534118056" lon="9.204928362742066">
<ele>455.4</ele>
<time>2024-05-10T09:34:33Z</time>
</trkpt>
<trkpt lat="49.53258513472974" lon="9.204890225082636">
<ele>455.4</ele>
<time>2024-05-10T09:34:34Z</time>
</trkpt>
<trkpt lat="49.5325736515224" lon="9.204852087423204">
<ele>455.4</ele>
<time>2024-05-10T09:34:35Z</time>
</trkpt>
<trkpt lat="49.53256602399051" lon="9.204812021926044">
<ele>455.2</ele>
<time>2024-05-10T09:34:36Z</time>
</trkpt>
<trkpt lat="49.53255076892674" lon="9.204772878438234">
<ele>455.2</ele>
<time>2024-05-10T09:34:37Z</time>
</trkpt>
<trkpt lat="49.53253551386297" lon="9.204734740778804">
<ele>455</ele>
<time>2024-05-10T09:34:38Z</time>
</trkpt>
<trkpt lat="49.53252403065562" lon="9.204700458794832">
<ele>455</ele>
<time>2024-05-10T09:34:39Z</time>
</trkpt>
<trkpt lat="49.53250500373542" lon="9.20466517098248">
<ele>455</ele>
<time>2024-05-10T09:34:40Z</time>
</trkpt>
<trkpt lat="49.53248974867165" lon="9.20462510548532">
<ele>455</ele>
<time>2024-05-10T09:34:41Z</time>
</trkpt>
<trkpt lat="49.53246686607599" lon="9.20458696782589">
<ele>455</ele>
<time>2024-05-10T09:34:42Z</time>
</trkpt>
<trkpt lat="49.532443983480334" lon="9.204551680013536">
<ele>455</ele>
<time>2024-05-10T09:34:43Z</time>
</trkpt>
<trkpt lat="49.5324248727411" lon="9.20452301390469">
<ele>455</ele>
<time>2024-05-10T09:34:44Z</time>
</trkpt>
<trkpt lat="49.53239821828902" lon="9.204500131309032">
<ele>454.8</ele>
<time>2024-05-10T09:34:45Z</time>
</trkpt>
<trkpt lat="49.53237533569336" lon="9.204475320875645">
<ele>454.8</ele>
<time>2024-05-10T09:34:46Z</time>
</trkpt>
<trkpt lat="49.532359996810555" lon="9.204455371946096">
<ele>454.8</ele>
<time>2024-05-10T09:34:47Z</time>
</trkpt>
<trkpt lat="49.53234474174678" lon="9.204436261206864">
<ele>454.6</ele>
<time>2024-05-10T09:34:48Z</time>
</trkpt>
<trkpt lat="49.53232948668301" lon="9.204418156296017">
<ele>454.6</ele>
<time>2024-05-10T09:34:49Z</time>
</trkpt>
<trkpt lat="49.532302832230926" lon="9.204391418024898">
<ele>454.6</ele>
<time>2024-05-10T09:34:50Z</time>
</trkpt>
<trkpt lat="49.53227994963527" lon="9.20436660759151">
<ele>454.4</ele>
<time>2024-05-10T09:34:51Z</time>
</trkpt>
<trkpt lat="49.53225706703961" lon="9.204341880977154">
<ele>454.4</ele>
<time>2024-05-10T09:34:52Z</time>
</trkpt>
<trkpt lat="49.53223418444395" lon="9.204317070543766">
<ele>454.6</ele>
<time>2024-05-10T09:34:53Z</time>
</trkpt>
<trkpt lat="49.53221507370472" lon="9.204295109957457">
<ele>454.6</ele>
<time>2024-05-10T09:34:54Z</time>
</trkpt>
<trkpt lat="49.53219596296549" lon="9.204273149371147">
<ele>454.8</ele>
<time>2024-05-10T09:34:55Z</time>
</trkpt>
<trkpt lat="49.53217693604529" lon="9.204250266775489">
<ele>455</ele>
<time>2024-05-10T09:34:56Z</time>
</trkpt>
<trkpt lat="49.53215782530606" lon="9.204228390008211">
<ele>455</ele>
<time>2024-05-10T09:34:57Z</time>
</trkpt>
<trkpt lat="49.532142570242286" lon="9.204204501584172">
<ele>455.2</ele>
<time>2024-05-10T09:34:58Z</time>
</trkpt>
<trkpt lat="49.53211968764663" lon="9.204177847132089">
<ele>455.2</ele>
<time>2024-05-10T09:34:59Z</time>
</trkpt>
<trkpt lat="49.53209680505097" lon="9.20415018685162">
<ele>455.4</ele>
<time>2024-05-10T09:35:00Z</time>
</trkpt>
<trkpt lat="49.53207392245531" lon="9.204121520742774">
<ele>455.4</ele>
<time>2024-05-10T09:35:01Z</time>
</trkpt>
<trkpt lat="49.53205103985965" lon="9.204094866290689">
<ele>455.6</ele>
<time>2024-05-10T09:35:02Z</time>
</trkpt>
<trkpt lat="49.532028157263994" lon="9.20407198369503">
<ele>455.6</ele>
<time>2024-05-10T09:35:03Z</time>
</trkpt>
<trkpt lat="49.531986163929105" lon="9.204021440818906">
<ele>455.6</ele>
<time>2024-05-10T09:35:05Z</time>
</trkpt>
<trkpt lat="49.531967137008905" lon="9.203996630385518">
<ele>455.6</ele>
<time>2024-05-10T09:35:06Z</time>
</trkpt>
<trkpt lat="49.531948026269674" lon="9.203976597636938">
<ele>455.6</ele>
<time>2024-05-10T09:35:07Z</time>
</trkpt>
<trkpt lat="49.531925143674016" lon="9.203948015347123">
<ele>455.6</ele>
<time>2024-05-10T09:35:08Z</time>
</trkpt>
<trkpt lat="49.531887006014585" lon="9.203903172165155">
<ele>455.6</ele>
<time>2024-05-10T09:35:10Z</time>
</trkpt>
<trkpt lat="49.53187175095081" lon="9.203881211578846">
<ele>455.6</ele>
<time>2024-05-10T09:35:11Z</time>
</trkpt>
<trkpt lat="49.53185264021158" lon="9.203858328983188">
<ele>455.4</ele>
<time>2024-05-10T09:35:12Z</time>
</trkpt>
<trkpt lat="49.53182975761592" lon="9.203836368396878">
<ele>455.4</ele>
<time>2024-05-10T09:35:13Z</time>
</trkpt>
<trkpt lat="49.53181450255215" lon="9.203811641782522">
<ele>455.4</ele>
<time>2024-05-10T09:35:14Z</time>
</trkpt>
<trkpt lat="49.53179547563195" lon="9.203786831349134">
<ele>455.4</ele>
<time>2024-05-10T09:35:15Z</time>
</trkpt>
<trkpt lat="49.53177636489272" lon="9.203760093078015">
<ele>455.4</ele>
<time>2024-05-10T09:35:16Z</time>
</trkpt>
<trkpt lat="49.53175348229706" lon="9.203733438625932">
<ele>455.4</ele>
<time>2024-05-10T09:35:17Z</time>
</trkpt>
<trkpt lat="49.531730599701405" lon="9.203704772517083">
<ele>455.4</ele>
<time>2024-05-10T09:35:18Z</time>
</trkpt>
<trkpt lat="49.53170008957386" lon="9.203678118065">
<ele>455.4</ele>
<time>2024-05-10T09:35:19Z</time>
</trkpt>
<trkpt lat="49.5316772069782" lon="9.203646602109076">
<ele>455.6</ele>
<time>2024-05-10T09:35:20Z</time>
</trkpt>
<trkpt lat="49.531654324382544" lon="9.203608464449644">
<ele>455.6</ele>
<time>2024-05-10T09:35:21Z</time>
</trkpt>
<trkpt lat="49.531623814255" lon="9.20351785607636">
<ele>455.6</ele>
<time>2024-05-10T09:35:23Z</time>
</trkpt>
<trkpt lat="49.531623814255" lon="9.203470163047314">
<ele>455.8</ele>
<time>2024-05-10T09:35:24Z</time>
</trkpt>
<trkpt lat="49.531627586111426" lon="9.203423475846648">
<ele>455.8</ele>
<time>2024-05-10T09:35:25Z</time>
</trkpt>
<trkpt lat="49.53163521364331" lon="9.20337863266468">
<ele>455.8</ele>
<time>2024-05-10T09:35:26Z</time>
</trkpt>
<trkpt lat="49.531654324382544" lon="9.203346194699408">
<ele>455.8</ele>
<time>2024-05-10T09:35:27Z</time>
</trkpt>
<trkpt lat="49.53167335130274" lon="9.203323312103748">
<ele>456</ele>
<time>2024-05-10T09:35:28Z</time>
</trkpt>
<trkpt lat="49.531711572781205" lon="9.20327846892178">
<ele>456</ele>
<time>2024-05-10T09:35:30Z</time>
</trkpt>
<trkpt lat="49.53173445537686" lon="9.203254664316772">
<ele>456.2</ele>
<time>2024-05-10T09:35:31Z</time>
</trkpt>
<trkpt lat="49.53175733797252" lon="9.203227926045656">
<ele>456.4</ele>
<time>2024-05-10T09:35:32Z</time>
</trkpt>
<trkpt lat="49.53177636489272" lon="9.20320026576519">
<ele>456.6</ele>
<time>2024-05-10T09:35:33Z</time>
</trkpt>
<trkpt lat="49.53180310316384" lon="9.203166905790567">
<ele>456.6</ele>
<time>2024-05-10T09:35:34Z</time>
</trkpt>
<trkpt lat="49.53182975761592" lon="9.203136395663025">
<ele>456.8</ele>
<time>2024-05-10T09:35:35Z</time>
</trkpt>
<trkpt lat="49.53185649588704" lon="9.20310496352613">
<ele>457</ele>
<time>2024-05-10T09:35:36Z</time>
</trkpt>
<trkpt lat="49.53188323415816" lon="9.203071519732475">
<ele>457</ele>
<time>2024-05-10T09:35:37Z</time>
</trkpt>
<trkpt lat="49.53190988861024" lon="9.203035309910774">
<ele>457.2</ele>
<time>2024-05-10T09:35:38Z</time>
</trkpt>
<trkpt lat="49.53193662688136" lon="9.203000022098422">
<ele>457.4</ele>
<time>2024-05-10T09:35:39Z</time>
</trkpt>
<trkpt lat="49.53195950947702" lon="9.20296280644834">
<ele>457.4</ele>
<time>2024-05-10T09:35:40Z</time>
</trkpt>
<trkpt lat="49.53198239207268" lon="9.20292374677956">
<ele>457.6</ele>
<time>2024-05-10T09:35:41Z</time>
</trkpt>
<trkpt lat="49.53200141899288" lon="9.202879825606942">
<ele>457.8</ele>
<time>2024-05-10T09:35:42Z</time>
</trkpt>
<trkpt lat="49.532024301588535" lon="9.202836910262704">
<ele>458</ele>
<time>2024-05-10T09:35:43Z</time>
</trkpt>
<trkpt lat="49.532047268003225" lon="9.202797850593925">
<ele>458.2</ele>
<time>2024-05-10T09:35:44Z</time>
</trkpt>
<trkpt lat="49.53207015059888" lon="9.202754935249686">
<ele>458.4</ele>
<time>2024-05-10T09:35:45Z</time>
</trkpt>
<trkpt lat="49.53209680505097" lon="9.202712941914797">
<ele>458.6</ele>
<time>2024-05-10T09:35:46Z</time>
</trkpt>
<trkpt lat="49.532123543322086" lon="9.20267002657056">
<ele>458.8</ele>
<time>2024-05-10T09:35:47Z</time>
</trkpt>
<trkpt lat="49.53215019777417" lon="9.202626189216971">
<ele>459</ele>
<time>2024-05-10T09:35:48Z</time>
</trkpt>
<trkpt lat="49.53217693604529" lon="9.202581346035004">
<ele>459</ele>
<time>2024-05-10T09:35:49Z</time>
</trkpt>
<trkpt lat="49.532203674316406" lon="9.202534658834338">
<ele>459.2</ele>
<time>2024-05-10T09:35:50Z</time>
</trkpt>
<trkpt lat="49.53223032876849" lon="9.20248788781464">
<ele>459.2</ele>
<time>2024-05-10T09:35:51Z</time>
</trkpt>
<trkpt lat="49.53225706703961" lon="9.202443044632671">
<ele>459.4</ele>
<time>2024-05-10T09:35:52Z</time>
</trkpt>
<trkpt lat="49.53228757716715" lon="9.202400129288437">
<ele>459.4</ele>
<time>2024-05-10T09:35:53Z</time>
</trkpt>
<trkpt lat="49.53234474174678" lon="9.202302899211643">
<ele>459.4</ele>
<time>2024-05-10T09:35:55Z</time>
</trkpt>
<trkpt lat="49.53237910754979" lon="9.2022552061826">
<ele>459.4</ele>
<time>2024-05-10T09:35:56Z</time>
</trkpt>
<trkpt lat="49.53241347335279" lon="9.202206591144204">
<ele>459.4</ele>
<time>2024-05-10T09:35:57Z</time>
</trkpt>
<trkpt lat="49.53245538286865" lon="9.2021550424397">
<ele>459.4</ele>
<time>2024-05-10T09:35:58Z</time>
</trkpt>
<trkpt lat="49.532539285719395" lon="9.202063512057066">
<ele>459.2</ele>
<time>2024-05-10T09:36:00Z</time>
</trkpt>
<trkpt lat="49.53258127905429" lon="9.202021518722177">
<ele>459.2</ele>
<time>2024-05-10T09:36:01Z</time>
</trkpt>
<trkpt lat="49.53263089992106" lon="9.201990086585283">
<ele>459</ele>
<time>2024-05-10T09:36:02Z</time>
</trkpt>
<trkpt lat="49.5326804369688" lon="9.20195865444839">
<ele>458.8</ele>
<time>2024-05-10T09:36:03Z</time>
</trkpt>
<trkpt lat="49.53273391351104" lon="9.201923366636038">
<ele>458.8</ele>
<time>2024-05-10T09:36:04Z</time>
</trkpt>
<trkpt lat="49.53278730623424" lon="9.201889922842383">
<ele>458.6</ele>
<time>2024-05-10T09:36:05Z</time>
</trkpt>
<trkpt lat="49.53284069895744" lon="9.201861340552568">
<ele>458.4</ele>
<time>2024-05-10T09:36:06Z</time>
</trkpt>
<trkpt lat="49.532894091680646" lon="9.201833680272102">
<ele>458.2</ele>
<time>2024-05-10T09:36:07Z</time>
</trkpt>
<trkpt lat="49.53294748440385" lon="9.201807947829366">
<ele>458.2</ele>
<time>2024-05-10T09:36:08Z</time>
</trkpt>
<trkpt lat="49.53300087712705" lon="9.201789842918515">
<ele>458</ele>
<time>2024-05-10T09:36:09Z</time>
</trkpt>
<trkpt lat="49.533054269850254" lon="9.201781209558249">
<ele>457.8</ele>
<time>2024-05-10T09:36:10Z</time>
</trkpt>
<trkpt lat="49.53310389071703" lon="9.201781209558249">
<ele>457.6</ele>
<time>2024-05-10T09:36:11Z</time>
</trkpt>
<trkpt lat="49.53316491097212" lon="9.201789842918515">
<ele>457.4</ele>
<time>2024-05-10T09:36:12Z</time>
</trkpt>
<trkpt lat="49.53322593122721" lon="9.20180032029748">
<ele>457.2</ele>
<time>2024-05-10T09:36:13Z</time>
</trkpt>
<trkpt lat="49.53328703530133" lon="9.201813647523522">
<ele>457</ele>
<time>2024-05-10T09:36:14Z</time>
</trkpt>
<trkpt lat="49.53334805555642" lon="9.201834602281451">
<ele>456.8</ele>
<time>2024-05-10T09:36:15Z</time>
</trkpt>
<trkpt lat="49.533409075811505" lon="9.20185656286776">
<ele>456.6</ele>
<time>2024-05-10T09:36:16Z</time>
</trkpt>
<trkpt lat="49.533470096066594" lon="9.201889922842383">
<ele>456.4</ele>
<time>2024-05-10T09:36:17Z</time>
</trkpt>
<trkpt lat="49.533527344465256" lon="9.201926216483116">
<ele>456.2</ele>
<time>2024-05-10T09:36:18Z</time>
</trkpt>
<trkpt lat="49.53357696533203" lon="9.201961504295468">
<ele>455.8</ele>
<time>2024-05-10T09:36:19Z</time>
</trkpt>
<trkpt lat="49.533626502379775" lon="9.202003413811326">
<ele>455.6</ele>
<time>2024-05-10T09:36:20Z</time>
</trkpt>
<trkpt lat="49.53367989510298" lon="9.202053034678102">
<ele>455.4</ele>
<time>2024-05-10T09:36:21Z</time>
</trkpt>
<trkpt lat="49.53373328782618" lon="9.202104499563577">
<ele>455</ele>
<time>2024-05-10T09:36:22Z</time>
</trkpt>
<trkpt lat="49.533786764368415" lon="9.202157892286776">
<ele>454.8</ele>
<time>2024-05-10T09:36:23Z</time>
</trkpt>
<trkpt lat="49.53384015709162" lon="9.20221514068544">
<ele>454.6</ele>
<time>2024-05-10T09:36:24Z</time>
</trkpt>
<trkpt lat="49.53389354981482" lon="9.20227523893118">
<ele>454.4</ele>
<time>2024-05-10T09:36:25Z</time>
</trkpt>
<trkpt lat="49.5339431706816" lon="9.202340114861729">
<ele>454.2</ele>
<time>2024-05-10T09:36:26Z</time>
</trkpt>
<trkpt lat="49.5339965634048" lon="9.202403062954543">
<ele>454</ele>
<time>2024-05-10T09:36:27Z</time>
</trkpt>
<trkpt lat="49.534042328596115" lon="9.20246785506606">
<ele>453.8</ele>
<time>2024-05-10T09:36:28Z</time>
</trkpt>
<trkpt lat="49.53408423811197" lon="9.202527031302452">
<ele>453.6</ele>
<time>2024-05-10T09:36:29Z</time>
</trkpt>
<trkpt lat="49.53412623144686" lon="9.202576568350196">
<ele>453.4</ele>
<time>2024-05-10T09:36:30Z</time>
</trkpt>
<trkpt lat="49.53416436910629" lon="9.202631888911128">
<ele>453.2</ele>
<time>2024-05-10T09:36:31Z</time>
</trkpt>
<trkpt lat="49.53420636244118" lon="9.202671954408288">
<ele>453.4</ele>
<time>2024-05-10T09:36:32Z</time>
</trkpt>
<trkpt lat="49.53424450010061" lon="9.202694837003946">
<ele>453.2</ele>
<time>2024-05-10T09:36:33Z</time>
</trkpt>
<trkpt lat="49.534278865903616" lon="9.20270531438291">
<ele>453.2</ele>
<time>2024-05-10T09:36:34Z</time>
</trkpt>
<trkpt lat="49.53429412096739" lon="9.20268821530044">
<ele>453</ele>
<time>2024-05-10T09:36:35Z</time>
</trkpt>
<trkpt lat="49.534301748499274" lon="9.202666254714131">
<ele>452.6</ele>
<time>2024-05-10T09:36:36Z</time>
</trkpt>
<trkpt lat="49.53431314788759" lon="9.202654771506786">
<ele>452.2</ele>
<time>2024-05-10T09:36:37Z</time>
</trkpt>
<trkpt lat="49.53431700356305" lon="9.202654771506786">
<ele>452</ele>
<time>2024-05-10T09:36:38Z</time>
</trkpt>
<trkpt lat="49.53431700356305" lon="9.202652927488089">
<ele>451.6</ele>
<time>2024-05-10T09:36:39Z</time>
</trkpt>
<trkpt lat="49.53431700356305" lon="9.202654771506786">
<ele>451.4</ele>
<time>2024-05-10T09:36:40Z</time>
</trkpt>
<trkpt lat="49.534320775419474" lon="9.202654771506786">
<ele>451.2</ele>
<time>2024-05-10T09:36:42Z</time>
</trkpt>
<trkpt lat="49.53432840295136" lon="9.202639516443014">
<ele>451</ele>
<time>2024-05-10T09:36:43Z</time>
</trkpt>
<trkpt lat="49.53435128554702" lon="9.202619483694434">
<ele>450.8</ele>
<time>2024-05-10T09:36:44Z</time>
</trkpt>
<trkpt lat="49.53436654061079" lon="9.202596601098776">
<ele>450.8</ele>
<time>2024-05-10T09:36:45Z</time>
</trkpt>
<trkpt lat="49.534378023818135" lon="9.202574724331498">
<ele>450.6</ele>
<time>2024-05-10T09:36:46Z</time>
</trkpt>
<trkpt lat="49.53439327888191" lon="9.202538430690764">
<ele>450.6</ele>
<time>2024-05-10T09:36:47Z</time>
</trkpt>
<trkpt lat="49.534416161477566" lon="9.202494593337178">
<ele>450.6</ele>
<time>2024-05-10T09:36:48Z</time>
</trkpt>
<trkpt lat="49.534439044073224" lon="9.20244782231748">
<ele>450.6</ele>
<time>2024-05-10T09:36:49Z</time>
</trkpt>
<trkpt lat="49.53446955420077" lon="9.202398285269735">
<ele>450.6</ele>
<time>2024-05-10T09:36:50Z</time>
</trkpt>
<trkpt lat="49.53449243679643" lon="9.202348664402962">
<ele>450.6</ele>
<time>2024-05-10T09:36:51Z</time>
</trkpt>
<trkpt lat="49.53451154753566" lon="9.202300049364569">
<ele>450.8</ele>
<time>2024-05-10T09:36:52Z</time>
</trkpt>
<trkpt lat="49.53453443013131" lon="9.202258056029676">
<ele>450.8</ele>
<time>2024-05-10T09:36:53Z</time>
</trkpt>
<trkpt lat="49.53454582951963" lon="9.202201813459396">
<ele>451</ele>
<time>2024-05-10T09:36:54Z</time>
</trkpt>
<trkpt lat="49.53456871211529" lon="9.202159820124509">
<ele>451</ele>
<time>2024-05-10T09:36:55Z</time>
</trkpt>
<trkpt lat="49.53458782285452" lon="9.20211497694254">
<ele>451.2</ele>
<time>2024-05-10T09:36:56Z</time>
</trkpt>
<trkpt lat="49.53460693359375" lon="9.202070217579603">
<ele>451.4</ele>
<time>2024-05-10T09:36:57Z</time>
</trkpt>
<trkpt lat="49.53462981618941" lon="9.202030152082443">
<ele>451.6</ele>
<time>2024-05-10T09:36:58Z</time>
</trkpt>
<trkpt lat="49.53464884310961" lon="9.201990086585283">
<ele>451.8</ele>
<time>2024-05-10T09:36:59Z</time>
</trkpt>
<trkpt lat="49.53466795384884" lon="9.201946249231696">
<ele>452</ele>
<time>2024-05-10T09:37:00Z</time>
</trkpt>
<trkpt lat="49.53468320891261" lon="9.201903333887458">
<ele>452.2</ele>
<time>2024-05-10T09:37:01Z</time>
</trkpt>
<trkpt lat="49.53470223583281" lon="9.201863268390298">
<ele>452.6</ele>
<time>2024-05-10T09:37:02Z</time>
</trkpt>
<trkpt lat="49.53472511842847" lon="9.20182035304606">
<ele>452.8</ele>
<time>2024-05-10T09:37:03Z</time>
</trkpt>
<trkpt lat="49.5347442291677" lon="9.201774587854745">
<ele>453</ele>
<time>2024-05-10T09:37:04Z</time>
</trkpt>
<trkpt lat="49.5347632560879" lon="9.201733516529202">
<ele>453.4</ele>
<time>2024-05-10T09:37:05Z</time>
</trkpt>
<trkpt lat="49.534789994359016" lon="9.201688757166266">
<ele>453.6</ele>
<time>2024-05-10T09:37:06Z</time>
</trkpt>
<trkpt lat="49.53480910509825" lon="9.201642908155918">
<ele>453.8</ele>
<time>2024-05-10T09:37:07Z</time>
</trkpt>
<trkpt lat="49.53482813201845" lon="9.20160192064941">
<ele>454</ele>
<time>2024-05-10T09:37:08Z</time>
</trkpt>
<trkpt lat="49.534851014614105" lon="9.20156185515225">
<ele>454.2</ele>
<time>2024-05-10T09:37:09Z</time>
</trkpt>
<trkpt lat="49.534870125353336" lon="9.2015247233212">
<ele>454.4</ele>
<time>2024-05-10T09:37:10Z</time>
</trkpt>
<trkpt lat="49.534893007948995" lon="9.201488429680468">
<ele>454.6</ele>
<time>2024-05-10T09:37:11Z</time>
</trkpt>
<trkpt lat="49.534912034869194" lon="9.201451297849417">
<ele>455</ele>
<time>2024-05-10T09:37:12Z</time>
</trkpt>
<trkpt lat="49.534931145608425" lon="9.201413076370956">
<ele>455.2</ele>
<time>2024-05-10T09:37:13Z</time>
</trkpt>
<trkpt lat="49.534950256347656" lon="9.201376866549252">
<ele>455.6</ele>
<time>2024-05-10T09:37:14Z</time>
</trkpt>
<trkpt lat="49.53496165573597" lon="9.2013415787369">
<ele>455.8</ele>
<time>2024-05-10T09:37:15Z</time>
</trkpt>
<trkpt lat="49.5349807664752" lon="9.20130151323974">
<ele>456</ele>
<time>2024-05-10T09:37:16Z</time>
</trkpt>
<trkpt lat="49.53499602153897" lon="9.20126144774258">
<ele>455.2</ele>
<time>2024-05-10T09:37:17Z</time>
</trkpt>
<trkpt lat="49.53501504845917" lon="9.20122331008315">
<ele>454.6</ele>
<time>2024-05-10T09:37:18Z</time>
</trkpt>
<trkpt lat="49.535030303522944" lon="9.20118517242372">
<ele>454.2</ele>
<time>2024-05-10T09:37:19Z</time>
</trkpt>
<trkpt lat="49.5350531861186" lon="9.20114703476429">
<ele>454.2</ele>
<time>2024-05-10T09:37:20Z</time>
</trkpt>
<trkpt lat="49.53507606871426" lon="9.2011050414294">
<ele>454.4</ele>
<time>2024-05-10T09:37:21Z</time>
</trkpt>
<trkpt lat="49.53509517945349" lon="9.201061204075812">
<ele>454.8</ele>
<time>2024-05-10T09:37:22Z</time>
</trkpt>
<trkpt lat="49.53511420637369" lon="9.201018288731577">
<ele>455</ele>
<time>2024-05-10T09:37:23Z</time>
</trkpt>
<trkpt lat="49.53512568958104" lon="9.200976295396686">
<ele>455.4</ele>
<time>2024-05-10T09:37:24Z</time>
</trkpt>
<trkpt lat="49.53514480032027" lon="9.200933380052447">
<ele>455.8</ele>
<time>2024-05-10T09:37:25Z</time>
</trkpt>
<trkpt lat="49.53516382724047" lon="9.20089147053659">
<ele>456.2</ele>
<time>2024-05-10T09:37:26Z</time>
</trkpt>
<trkpt lat="49.535186709836125" lon="9.2008494772017">
<ele>456.6</ele>
<time>2024-05-10T09:37:27Z</time>
</trkpt>
<trkpt lat="49.53520582057536" lon="9.200808489695191">
<ele>457</ele>
<time>2024-05-10T09:37:28Z</time>
</trkpt>
<trkpt lat="49.53522484749555" lon="9.200764652341604">
<ele>457.4</ele>
<time>2024-05-10T09:37:29Z</time>
</trkpt>
<trkpt lat="49.535247730091214" lon="9.200721736997366">
<ele>457.6</ele>
<time>2024-05-10T09:37:30Z</time>
</trkpt>
<trkpt lat="49.535266840830445" lon="9.200677815824749">
<ele>458</ele>
<time>2024-05-10T09:37:31Z</time>
</trkpt>
<trkpt lat="49.535289723426104" lon="9.200636828318238">
<ele>458.2</ele>
<time>2024-05-10T09:37:32Z</time>
</trkpt>
<trkpt lat="49.53530497848987" lon="9.20059005729854">
<ele>458.4</ele>
<time>2024-05-10T09:37:33Z</time>
</trkpt>
<trkpt lat="49.53532408922911" lon="9.200546219944954">
<ele>458.4</ele>
<time>2024-05-10T09:37:34Z</time>
</trkpt>
<trkpt lat="49.535346971824765" lon="9.200505232438443">
<ele>458.6</ele>
<time>2024-05-10T09:37:35Z</time>
</trkpt>
<trkpt lat="49.53536985442042" lon="9.200463239103556">
<ele>458.8</ele>
<time>2024-05-10T09:37:36Z</time>
</trkpt>
<trkpt lat="49.53538888134062" lon="9.200421329587698">
<ele>459</ele>
<time>2024-05-10T09:37:37Z</time>
</trkpt>
<trkpt lat="49.53541176393628" lon="9.200380258262156">
<ele>459.2</ele>
<time>2024-05-10T09:37:38Z</time>
</trkpt>
<trkpt lat="49.5354385022074" lon="9.2003383487463">
<ele>459.2</ele>
<time>2024-05-10T09:37:39Z</time>
</trkpt>
<trkpt lat="49.5354575291276" lon="9.20029543340206">
<ele>459.4</ele>
<time>2024-05-10T09:37:40Z</time>
</trkpt>
<trkpt lat="49.53548049554229" lon="9.200253440067172">
<ele>459.6</ele>
<time>2024-05-10T09:37:41Z</time>
</trkpt>
<trkpt lat="49.535503378137946" lon="9.200211446732284">
<ele>459.8</ele>
<time>2024-05-10T09:37:42Z</time>
</trkpt>
<trkpt lat="49.5355262607336" lon="9.200168531388044">
<ele>460</ele>
<time>2024-05-10T09:37:43Z</time>
</trkpt>
<trkpt lat="49.53554528765381" lon="9.200124694034455">
<ele>460.2</ele>
<time>2024-05-10T09:37:44Z</time>
</trkpt>
<trkpt lat="49.53556817024946" lon="9.200086556375028">
<ele>460.4</ele>
<time>2024-05-10T09:37:45Z</time>
</trkpt>
<trkpt lat="49.53559105284512" lon="9.200046490877869">
<ele>460.6</ele>
<time>2024-05-10T09:37:46Z</time>
</trkpt>
<trkpt lat="49.53561016358435" lon="9.200006425380709">
<ele>460.8</ele>
<time>2024-05-10T09:37:47Z</time>
</trkpt>
<trkpt lat="49.53562919050455" lon="9.199966359883549">
<ele>460.8</ele>
<time>2024-05-10T09:37:48Z</time>
</trkpt>
<trkpt lat="49.535644529387355" lon="9.199916822835805">
<ele>461</ele>
<time>2024-05-10T09:37:49Z</time>
</trkpt>
<trkpt lat="49.535663556307554" lon="9.199872901663184">
<ele>461.2</ele>
<time>2024-05-10T09:37:50Z</time>
</trkpt>
<trkpt lat="49.535682667046785" lon="9.199831914156675">
<ele>461.4</ele>
<time>2024-05-10T09:37:51Z</time>
</trkpt>
<trkpt lat="49.535701693966985" lon="9.199791848659515">
<ele>461.6</ele>
<time>2024-05-10T09:37:52Z</time>
</trkpt>
<trkpt lat="49.535720804706216" lon="9.199753711000085">
<ele>462</ele>
<time>2024-05-10T09:37:53Z</time>
</trkpt>
<trkpt lat="49.535739831626415" lon="9.199711717665195">
<ele>462.2</ele>
<time>2024-05-10T09:37:54Z</time>
</trkpt>
<trkpt lat="49.535758942365646" lon="9.199667880311608">
<ele>462.2</ele>
<time>2024-05-10T09:37:55Z</time>
</trkpt>
<trkpt lat="49.53577034175396" lon="9.199620187282562">
<ele>462.4</ele>
<time>2024-05-10T09:37:56Z</time>
</trkpt>
<trkpt lat="49.535777969285846" lon="9.199571572244167">
<ele>462.6</ele>
<time>2024-05-10T09:37:57Z</time>
</trkpt>
<trkpt lat="49.53578559681773" lon="9.199522957205772">
<ele>462.8</ele>
<time>2024-05-10T09:37:58Z</time>
</trkpt>
<trkpt lat="49.53579322434962" lon="9.199475264176726">
<ele>462.8</ele>
<time>2024-05-10T09:37:59Z</time>
</trkpt>
<trkpt lat="49.535800851881504" lon="9.19942849315703">
<ele>463</ele>
<time>2024-05-10T09:38:00Z</time>
</trkpt>
<trkpt lat="49.53580470755696" lon="9.199379878118634">
<ele>463.2</ele>
<time>2024-05-10T09:38:01Z</time>
</trkpt>
<trkpt lat="49.53581233508885" lon="9.19933025725186">
<ele>463.4</ele>
<time>2024-05-10T09:38:02Z</time>
</trkpt>
<trkpt lat="49.53581233508885" lon="9.199284492060542">
<ele>463.6</ele>
<time>2024-05-10T09:38:03Z</time>
</trkpt>
<trkpt lat="49.53581619076431" lon="9.199241576716304">
<ele>463.8</ele>
<time>2024-05-10T09:38:04Z</time>
</trkpt>
<trkpt lat="49.53581619076431" lon="9.199199667200446">
<ele>464.2</ele>
<time>2024-05-10T09:38:05Z</time>
</trkpt>
<trkpt lat="49.53581233508885" lon="9.199161529541016">
<ele>464.4</ele>
<time>2024-05-10T09:38:06Z</time>
</trkpt>
<trkpt lat="49.53580470755696" lon="9.199123308062552">
<ele>464.4</ele>
<time>2024-05-10T09:38:07Z</time>
</trkpt>
<trkpt lat="49.535800851881504" lon="9.199085170403125">
<ele>464.6</ele>
<time>2024-05-10T09:38:08Z</time>
</trkpt>
<trkpt lat="49.53579322434962" lon="9.199045104905965">
<ele>464.8</ele>
<time>2024-05-10T09:38:09Z</time>
</trkpt>
<trkpt lat="49.53578945249319" lon="9.199005123227836">
<ele>465</ele>
<time>2024-05-10T09:38:10Z</time>
</trkpt>
<trkpt lat="49.53578945249319" lon="9.198963129892944">
<ele>465.2</ele>
<time>2024-05-10T09:38:11Z</time>
</trkpt>
<trkpt lat="49.53579322434962" lon="9.198923064395784">
<ele>465.4</ele>
<time>2024-05-10T09:38:12Z</time>
</trkpt>
<trkpt lat="49.53579322434962" lon="9.198882076889277">
<ele>465.4</ele>
<time>2024-05-10T09:38:13Z</time>
</trkpt>
<trkpt lat="49.535781824961305" lon="9.198844861239197">
<ele>465.6</ele>
<time>2024-05-10T09:38:14Z</time>
</trkpt>
<trkpt lat="49.53577034175396" lon="9.198804795742037">
<ele>465.6</ele>
<time>2024-05-10T09:38:15Z</time>
</trkpt>
<trkpt lat="49.53576656989753" lon="9.198764730244877">
<ele>465.8</ele>
<time>2024-05-10T09:38:16Z</time>
</trkpt>
<trkpt lat="49.535758942365646" lon="9.198724664747717">
<ele>466</ele>
<time>2024-05-10T09:38:17Z</time>
</trkpt>
<trkpt lat="49.53575508669019" lon="9.198686527088284">
<ele>466.2</ele>
<time>2024-05-10T09:38:18Z</time>
</trkpt>
<trkpt lat="49.535739831626415" lon="9.198615029454231">
<ele>466.4</ele>
<time>2024-05-10T09:38:20Z</time>
</trkpt>
<trkpt lat="49.53573220409453" lon="9.19857781380415">
<ele>466.6</ele>
<time>2024-05-10T09:38:21Z</time>
</trkpt>
<trkpt lat="49.5357284322381" lon="9.198543531820178">
<ele>466.8</ele>
<time>2024-05-10T09:38:22Z</time>
</trkpt>
<trkpt lat="49.53572457656264" lon="9.198508244007826">
<ele>467</ele>
<time>2024-05-10T09:38:23Z</time>
</trkpt>
<trkpt lat="49.53570554964245" lon="9.198434818536043">
<ele>467.2</ele>
<time>2024-05-10T09:38:25Z</time>
</trkpt>
<trkpt lat="49.53569792211056" lon="9.19839852489531">
<ele>467.4</ele>
<time>2024-05-10T09:38:26Z</time>
</trkpt>
<trkpt lat="49.53569029457867" lon="9.19836038723588">
<ele>467.6</ele>
<time>2024-05-10T09:38:27Z</time>
</trkpt>
<trkpt lat="49.53568643890321" lon="9.198323171585798">
<ele>467.6</ele>
<time>2024-05-10T09:38:28Z</time>
</trkpt>
<trkpt lat="49.535678811371326" lon="9.198287883773446">
<ele>467.8</ele>
<time>2024-05-10T09:38:29Z</time>
</trkpt>
<trkpt lat="49.53567118383944" lon="9.198253601789474">
<ele>468</ele>
<time>2024-05-10T09:38:30Z</time>
</trkpt>
<trkpt lat="49.53565978445113" lon="9.198216386139393">
<ele>468.2</ele>
<time>2024-05-10T09:38:31Z</time>
</trkpt>
<trkpt lat="49.53564830124378" lon="9.19818210415542">
<ele>468.4</ele>
<time>2024-05-10T09:38:32Z</time>
</trkpt>
<trkpt lat="49.535640673711896" lon="9.19814488850534">
<ele>468.6</ele>
<time>2024-05-10T09:38:33Z</time>
</trkpt>
<trkpt lat="49.53562919050455" lon="9.198073307052256">
<ele>468.6</ele>
<time>2024-05-10T09:38:35Z</time>
</trkpt>
<trkpt lat="49.535621562972665" lon="9.198036175221205">
<ele>468.8</ele>
<time>2024-05-10T09:38:36Z</time>
</trkpt>
<trkpt lat="49.53561016358435" lon="9.1980018094182">
<ele>468.8</ele>
<time>2024-05-10T09:38:37Z</time>
</trkpt>
<trkpt lat="49.535602536052465" lon="9.19796459376812">
<ele>469</ele>
<time>2024-05-10T09:38:38Z</time>
</trkpt>
<trkpt lat="49.53559490852058" lon="9.197923606261613">
<ele>469</ele>
<time>2024-05-10T09:38:39Z</time>
</trkpt>
<trkpt lat="49.535583425313234" lon="9.197884546592832">
<ele>469.2</ele>
<time>2024-05-10T09:38:40Z</time>
</trkpt>
<trkpt lat="49.53556817024946" lon="9.197803493589165">
<ele>468.6</ele>
<time>2024-05-10T09:38:42Z</time>
</trkpt>
<trkpt lat="49.535560542717576" lon="9.197761500254272">
<ele>468.4</ele>
<time>2024-05-10T09:38:43Z</time>
</trkpt>
<trkpt lat="49.53554528765381" lon="9.197681369259952">
<ele>468.2</ele>
<time>2024-05-10T09:38:45Z</time>
</trkpt>
<trkpt lat="49.53553766012192" lon="9.197643231600525">
<ele>468.4</ele>
<time>2024-05-10T09:38:46Z</time>
</trkpt>
<trkpt lat="49.53553003259003" lon="9.197601238265634">
<ele>468.8</ele>
<time>2024-05-10T09:38:47Z</time>
</trkpt>
<trkpt lat="49.535522405058146" lon="9.197560250759125">
<ele>469.2</ele>
<time>2024-05-10T09:38:48Z</time>
</trkpt>
<trkpt lat="49.53551477752626" lon="9.197478275746109">
<ele>469.6</ele>
<time>2024-05-10T09:38:50Z</time>
</trkpt>
<trkpt lat="49.535503378137946" lon="9.197438210248947">
<ele>470</ele>
<time>2024-05-10T09:38:51Z</time>
</trkpt>
<trkpt lat="49.53549952246249" lon="9.197398144751787">
<ele>470.4</ele>
<time>2024-05-10T09:38:52Z</time>
</trkpt>
<trkpt lat="49.5354918949306" lon="9.197360007092357">
<ele>471</ele>
<time>2024-05-10T09:38:53Z</time>
</trkpt>
<trkpt lat="49.53547663986683" lon="9.197281803935766">
<ele>471.4</ele>
<time>2024-05-10T09:38:55Z</time>
</trkpt>
<trkpt lat="49.5354728680104" lon="9.197243666276336">
<ele>471.8</ele>
<time>2024-05-10T09:38:56Z</time>
</trkpt>
<trkpt lat="49.53546901233494" lon="9.197203600779176">
<ele>472.2</ele>
<time>2024-05-10T09:38:57Z</time>
</trkpt>
<trkpt lat="49.53546524047851" lon="9.197163535282016">
<ele>472.6</ele>
<time>2024-05-10T09:38:58Z</time>
</trkpt>
<trkpt lat="49.53546138480306" lon="9.197083404287696">
<ele>473</ele>
<time>2024-05-10T09:39:00Z</time>
</trkpt>
<trkpt lat="49.53546138480306" lon="9.19703864492476">
<ele>473.4</ele>
<time>2024-05-10T09:39:01Z</time>
</trkpt>
<trkpt lat="49.5354575291276" lon="9.196992795914412">
<ele>473.6</ele>
<time>2024-05-10T09:39:02Z</time>
</trkpt>
<trkpt lat="49.53545375727117" lon="9.196947030723097">
<ele>474</ele>
<time>2024-05-10T09:39:03Z</time>
</trkpt>
<trkpt lat="49.53544990159571" lon="9.19685835018754">
<ele>474.4</ele>
<time>2024-05-10T09:39:05Z</time>
</trkpt>
<trkpt lat="49.535446129739285" lon="9.196816440671682">
<ele>474.6</ele>
<time>2024-05-10T09:39:06Z</time>
</trkpt>
<trkpt lat="49.535446129739285" lon="9.196775369346142">
<ele>475</ele>
<time>2024-05-10T09:39:07Z</time>
</trkpt>
<trkpt lat="49.535446129739285" lon="9.196733459830284">
<ele>475.4</ele>
<time>2024-05-10T09:39:08Z</time>
</trkpt>
<trkpt lat="49.535446129739285" lon="9.196688616648316">
<ele>475.6</ele>
<time>2024-05-10T09:39:09Z</time>
</trkpt>
<trkpt lat="49.535446129739285" lon="9.19664477929473">
<ele>476</ele>
<time>2024-05-10T09:39:10Z</time>
</trkpt>
<trkpt lat="49.53544990159571" lon="9.196601863950493">
<ele>476.2</ele>
<time>2024-05-10T09:39:11Z</time>
</trkpt>
<trkpt lat="49.53544990159571" lon="9.196557942777872">
<ele>476.4</ele>
<time>2024-05-10T09:39:12Z</time>
</trkpt>
<trkpt lat="49.535446129739285" lon="9.196513099595904">
<ele>476.6</ele>
<time>2024-05-10T09:39:13Z</time>
</trkpt>
<trkpt lat="49.53544990159571" lon="9.196423497051">
<ele>476.6</ele>
<time>2024-05-10T09:39:15Z</time>
</trkpt>
<trkpt lat="49.53544990159571" lon="9.196379659697412">
<ele>476.8</ele>
<time>2024-05-10T09:39:16Z</time>
</trkpt>
<trkpt lat="49.53544990159571" lon="9.196334816515446">
<ele>477</ele>
<time>2024-05-10T09:39:17Z</time>
</trkpt>
<trkpt lat="49.53544990159571" lon="9.196289973333478">
<ele>477</ele>
<time>2024-05-10T09:39:18Z</time>
</trkpt>
<trkpt lat="49.53545375727117" lon="9.196201292797925">
<ele>477</ele>
<time>2024-05-10T09:39:20Z</time>
</trkpt>
<trkpt lat="49.53545375727117" lon="9.196156449615955">
<ele>477.2</ele>
<time>2024-05-10T09:39:21Z</time>
</trkpt>
<trkpt lat="49.53545375727117" lon="9.19610783457756">
<ele>477.4</ele>
<time>2024-05-10T09:39:22Z</time>
</trkpt>
<trkpt lat="49.53545375727117" lon="9.196062069386244">
<ele>477.4</ele>
<time>2024-05-10T09:39:23Z</time>
</trkpt>
<trkpt lat="49.53545375727117" lon="9.196013370528815">
<ele>477.6</ele>
<time>2024-05-10T09:39:24Z</time>
</trkpt>
<trkpt lat="49.53545375727117" lon="9.195964755490422">
<ele>477.8</ele>
<time>2024-05-10T09:39:25Z</time>
</trkpt>
<trkpt lat="49.53545375727117" lon="9.195917062461376">
<ele>477.8</ele>
<time>2024-05-10T09:39:26Z</time>
</trkpt>
<trkpt lat="49.53545375727117" lon="9.195864675566554">
<ele>478</ele>
<time>2024-05-10T09:39:27Z</time>
</trkpt>
<trkpt lat="49.53545375727117" lon="9.195813126862047">
<ele>478.2</ele>
<time>2024-05-10T09:39:28Z</time>
</trkpt>
<trkpt lat="49.53544990159571" lon="9.195761661976576">
<ele>478.4</ele>
<time>2024-05-10T09:39:29Z</time>
</trkpt>
<trkpt lat="49.53545375727117" lon="9.19571011327207">
<ele>478.6</ele>
<time>2024-05-10T09:39:30Z</time>
</trkpt>
<trkpt lat="49.53544990159571" lon="9.195656720548868">
<ele>478.8</ele>
<time>2024-05-10T09:39:31Z</time>
</trkpt>
<trkpt lat="49.53545375727117" lon="9.195605255663397">
<ele>479</ele>
<time>2024-05-10T09:39:32Z</time>
</trkpt>
<trkpt lat="49.5354575291276" lon="9.195549935102465">
<ele>479.2</ele>
<time>2024-05-10T09:39:33Z</time>
</trkpt>
<trkpt lat="49.5354575291276" lon="9.19549461454153">
<ele>479.4</ele>
<time>2024-05-10T09:39:34Z</time>
</trkpt>
<trkpt lat="49.53546138480306" lon="9.19543837197125">
<ele>479.4</ele>
<time>2024-05-10T09:39:35Z</time>
</trkpt>
<trkpt lat="49.53546138480306" lon="9.19538020156324">
<ele>479.6</ele>
<time>2024-05-10T09:39:36Z</time>
</trkpt>
<trkpt lat="49.53546138480306" lon="9.195322031155229">
<ele>479.8</ele>
<time>2024-05-10T09:39:37Z</time>
</trkpt>
<trkpt lat="49.53546524047851" lon="9.195264782756569">
<ele>480</ele>
<time>2024-05-10T09:39:38Z</time>
</trkpt>
<trkpt lat="49.53546901233494" lon="9.195210384204984">
<ele>480</ele>
<time>2024-05-10T09:39:39Z</time>
</trkpt>
<trkpt lat="49.53546901233494" lon="9.195155063644052">
<ele>480.2</ele>
<time>2024-05-10T09:39:40Z</time>
</trkpt>
<trkpt lat="49.5354728680104" lon="9.195099826902153">
<ele>480.2</ele>
<time>2024-05-10T09:39:41Z</time>
</trkpt>
<trkpt lat="49.53547663986683" lon="9.195045428350568">
<ele>480.4</ele>
<time>2024-05-10T09:39:42Z</time>
</trkpt>
<trkpt lat="49.53548049554229" lon="9.194992035627363">
<ele>480.4</ele>
<time>2024-05-10T09:39:43Z</time>
</trkpt>
<trkpt lat="49.535488123074174" lon="9.194938642904162">
<ele>480.6</ele>
<time>2024-05-10T09:39:44Z</time>
</trkpt>
<trkpt lat="49.5354918949306" lon="9.19488332234323">
<ele>480.6</ele>
<time>2024-05-10T09:39:45Z</time>
</trkpt>
<trkpt lat="49.53549952246249" lon="9.194831773638724">
<ele>480.6</ele>
<time>2024-05-10T09:39:46Z</time>
</trkpt>
<trkpt lat="49.53550714999437" lon="9.194780308753252">
<ele>480.6</ele>
<time>2024-05-10T09:39:47Z</time>
</trkpt>
<trkpt lat="49.53551477752626" lon="9.194727838039398">
<ele>480.8</ele>
<time>2024-05-10T09:39:48Z</time>
</trkpt>
<trkpt lat="49.535522405058146" lon="9.194678300991654">
<ele>480.8</ele>
<time>2024-05-10T09:39:49Z</time>
</trkpt>
<trkpt lat="49.53553003259003" lon="9.19462675228715">
<ele>480.8</ele>
<time>2024-05-10T09:39:50Z</time>
</trkpt>
<trkpt lat="49.53553766012192" lon="9.194575287401676">
<ele>481</ele>
<time>2024-05-10T09:39:51Z</time>
</trkpt>
<trkpt lat="49.53554528765381" lon="9.194519966840744">
<ele>481</ele>
<time>2024-05-10T09:39:52Z</time>
</trkpt>
<trkpt lat="49.53555291518569" lon="9.19446657411754">
<ele>481</ele>
<time>2024-05-10T09:39:53Z</time>
</trkpt>
<trkpt lat="49.535560542717576" lon="9.19441125355661">
<ele>481.2</ele>
<time>2024-05-10T09:39:54Z</time>
</trkpt>
<trkpt lat="49.53556817024946" lon="9.194357860833406">
<ele>481.2</ele>
<time>2024-05-10T09:39:55Z</time>
</trkpt>
<trkpt lat="49.53557579778135" lon="9.194305390119553">
<ele>481.2</ele>
<time>2024-05-10T09:39:56Z</time>
</trkpt>
<trkpt lat="49.535583425313234" lon="9.1942529194057">
<ele>481.2</ele>
<time>2024-05-10T09:39:57Z</time>
</trkpt>
<trkpt lat="49.53559105284512" lon="9.194199526682496">
<ele>481.4</ele>
<time>2024-05-10T09:39:58Z</time>
</trkpt>
<trkpt lat="49.53559868037701" lon="9.194145128130913">
<ele>481.4</ele>
<time>2024-05-10T09:39:59Z</time>
</trkpt>
<trkpt lat="49.53560630790889" lon="9.19409173540771">
<ele>481.6</ele>
<time>2024-05-10T09:40:00Z</time>
</trkpt>
<trkpt lat="49.53561016358435" lon="9.19403457082808">
<ele>481.8</ele>
<time>2024-05-10T09:40:01Z</time>
</trkpt>
<trkpt lat="49.535621562972665" lon="9.193978244438767">
<ele>481.8</ele>
<time>2024-05-10T09:40:02Z</time>
</trkpt>
<trkpt lat="49.53562919050455" lon="9.193920074030755">
<ele>482</ele>
<time>2024-05-10T09:40:03Z</time>
</trkpt>
<trkpt lat="49.53563690185547" lon="9.193859975785015">
<ele>482.2</ele>
<time>2024-05-10T09:40:04Z</time>
</trkpt>
<trkpt lat="49.53564830124378" lon="9.19379803352058">
<ele>482.4</ele>
<time>2024-05-10T09:40:05Z</time>
</trkpt>
<trkpt lat="49.53565592877567" lon="9.19373508542776">
<ele>482.4</ele>
<time>2024-05-10T09:40:06Z</time>
</trkpt>
<trkpt lat="49.535663556307554" lon="9.193671215325594">
<ele>482.6</ele>
<time>2024-05-10T09:40:07Z</time>
</trkpt>
<trkpt lat="49.5356750395149" lon="9.193608267232776">
<ele>482.8</ele>
<time>2024-05-10T09:40:08Z</time>
</trkpt>
<trkpt lat="49.535682667046785" lon="9.193545319139956">
<ele>483</ele>
<time>2024-05-10T09:40:09Z</time>
</trkpt>
<trkpt lat="49.5356940664351" lon="9.19347851537168">
<ele>483</ele>
<time>2024-05-10T09:40:10Z</time>
</trkpt>
<trkpt lat="49.535701693966985" lon="9.193414645269511">
<ele>483</ele>
<time>2024-05-10T09:40:11Z</time>
</trkpt>
<trkpt lat="49.53570932149887" lon="9.193351697176697">
<ele>483.2</ele>
<time>2024-05-10T09:40:12Z</time>
</trkpt>
<trkpt lat="49.535720804706216" lon="9.193286821246147">
<ele>483.2</ele>
<time>2024-05-10T09:40:13Z</time>
</trkpt>
<trkpt lat="49.5357284322381" lon="9.19322295114398">
<ele>483.4</ele>
<time>2024-05-10T09:40:14Z</time>
</trkpt>
<trkpt lat="49.535739831626415" lon="9.193158075213432">
<ele>483.4</ele>
<time>2024-05-10T09:40:15Z</time>
</trkpt>
<trkpt lat="49.5357474591583" lon="9.193097054958344">
<ele>483.6</ele>
<time>2024-05-10T09:40:16Z</time>
</trkpt>
<trkpt lat="49.53575508669019" lon="9.193033184856176">
<ele>483.6</ele>
<time>2024-05-10T09:40:17Z</time>
</trkpt>
<trkpt lat="49.53576656989753" lon="9.1929645370692">
<ele>483.8</ele>
<time>2024-05-10T09:40:18Z</time>
</trkpt>
<trkpt lat="49.535777969285846" lon="9.192892955616117">
<ele>484</ele>
<time>2024-05-10T09:40:19Z</time>
</trkpt>
<trkpt lat="49.53578945249319" lon="9.192821457982063">
<ele>484.2</ele>
<time>2024-05-10T09:40:20Z</time>
</trkpt>
<trkpt lat="49.53579708002508" lon="9.192753732204435">
<ele>484.2</ele>
<time>2024-05-10T09:40:21Z</time>
</trkpt>
<trkpt lat="49.53580856323242" lon="9.192681312561035">
<ele>484.4</ele>
<time>2024-05-10T09:40:22Z</time>
</trkpt>
<trkpt lat="49.535819962620735" lon="9.19260780327022">
<ele>484.4</ele>
<time>2024-05-10T09:40:23Z</time>
</trkpt>
<trkpt lat="49.53583144582808" lon="9.19253345578909">
<ele>484.4</ele>
<time>2024-05-10T09:40:24Z</time>
</trkpt>
<trkpt lat="49.53584284521639" lon="9.192458102479575">
<ele>484.6</ele>
<time>2024-05-10T09:40:25Z</time>
</trkpt>
<trkpt lat="49.53585432842374" lon="9.192381827160716">
<ele>484.6</ele>
<time>2024-05-10T09:40:26Z</time>
</trkpt>
<trkpt lat="49.53586572781205" lon="9.192303624004126">
<ele>484.8</ele>
<time>2024-05-10T09:40:27Z</time>
</trkpt>
<trkpt lat="49.5358772110194" lon="9.192223493009806">
<ele>484.8</ele>
<time>2024-05-10T09:40:28Z</time>
</trkpt>
<trkpt lat="49.53588861040771" lon="9.192143362015486">
<ele>485</ele>
<time>2024-05-10T09:40:29Z</time>
</trkpt>
<trkpt lat="49.53590386547148" lon="9.192065158858895">
<ele>485.2</ele>
<time>2024-05-10T09:40:30Z</time>
</trkpt>
<trkpt lat="49.535919120535254" lon="9.191985111683609">
<ele>485.2</ele>
<time>2024-05-10T09:40:31Z</time>
</trkpt>
<trkpt lat="49.53593437559903" lon="9.191906908527017">
<ele>485.4</ele>
<time>2024-05-10T09:40:32Z</time>
</trkpt>
<trkpt lat="49.5359496306628" lon="9.191824849694967">
<ele>485.4</ele>
<time>2024-05-10T09:40:33Z</time>
</trkpt>
<trkpt lat="49.53596488572657" lon="9.19174287468195">
<ele>485.4</ele>
<time>2024-05-10T09:40:34Z</time>
</trkpt>
<trkpt lat="49.535980224609375" lon="9.19166366569698">
<ele>485.6</ele>
<time>2024-05-10T09:40:35Z</time>
</trkpt>
<trkpt lat="49.53599547967315" lon="9.191586468368769">
<ele>485.6</ele>
<time>2024-05-10T09:40:36Z</time>
</trkpt>
<trkpt lat="49.53600687906146" lon="9.191508265212178">
<ele>485.6</ele>
<time>2024-05-10T09:40:37Z</time>
</trkpt>
<trkpt lat="49.53602213412523" lon="9.191428134217858">
<ele>485.6</ele>
<time>2024-05-10T09:40:38Z</time>
</trkpt>
<trkpt lat="49.536037389189005" lon="9.191348003223538">
<ele>485.6</ele>
<time>2024-05-10T09:40:39Z</time>
</trkpt>
<trkpt lat="49.53604887239635" lon="9.191269800066948">
<ele>485.6</ele>
<time>2024-05-10T09:40:40Z</time>
</trkpt>
<trkpt lat="49.53606412746012" lon="9.191191596910356">
<ele>485.6</ele>
<time>2024-05-10T09:40:41Z</time>
</trkpt>
<trkpt lat="49.536079382523894" lon="9.191115321591496">
<ele>485.8</ele>
<time>2024-05-10T09:40:42Z</time>
</trkpt>
<trkpt lat="49.53609463758767" lon="9.191038124263288">
<ele>486</ele>
<time>2024-05-10T09:40:43Z</time>
</trkpt>
<trkpt lat="49.53610989265144" lon="9.190961765125394">
<ele>486</ele>
<time>2024-05-10T09:40:44Z</time>
</trkpt>
<trkpt lat="49.53612514771521" lon="9.190886495634912">
<ele>486.2</ele>
<time>2024-05-10T09:40:45Z</time>
</trkpt>
<trkpt lat="49.53614040277898" lon="9.1908129863441">
<ele>486.2</ele>
<time>2024-05-10T09:40:46Z</time>
</trkpt>
<trkpt lat="49.53615188598633" lon="9.190736711025238">
<ele>486.4</ele>
<time>2024-05-10T09:40:47Z</time>
</trkpt>
<trkpt lat="49.5361671410501" lon="9.190661357715726">
<ele>486.4</ele>
<time>2024-05-10T09:40:48Z</time>
</trkpt>
<trkpt lat="49.53618239611387" lon="9.190587010234594">
<ele>486.6</ele>
<time>2024-05-10T09:40:49Z</time>
</trkpt>
<trkpt lat="49.536197651177645" lon="9.190511656925082">
<ele>486.6</ele>
<time>2024-05-10T09:40:50Z</time>
</trkpt>
<trkpt lat="49.53621667809784" lon="9.1904382314533">
<ele>486.6</ele>
<time>2024-05-10T09:40:51Z</time>
</trkpt>
<trkpt lat="49.53622816130519" lon="9.190364805981517">
<ele>486.8</ele>
<time>2024-05-10T09:40:52Z</time>
</trkpt>
<trkpt lat="49.53624718822539" lon="9.190293308347464">
<ele>486.8</ele>
<time>2024-05-10T09:40:53Z</time>
</trkpt>
<trkpt lat="49.53626244328916" lon="9.190223654732108">
<ele>487</ele>
<time>2024-05-10T09:40:54Z</time>
</trkpt>
<trkpt lat="49.53628155402839" lon="9.190153079107404">
<ele>487.2</ele>
<time>2024-05-10T09:40:55Z</time>
</trkpt>
<trkpt lat="49.53629680909216" lon="9.19008158147335">
<ele>487.2</ele>
<time>2024-05-10T09:40:56Z</time>
</trkpt>
<trkpt lat="49.53631583601236" lon="9.190006228163838">
<ele>487.4</ele>
<time>2024-05-10T09:40:57Z</time>
</trkpt>
<trkpt lat="49.536334946751595" lon="9.189931796863675">
<ele>487.6</ele>
<time>2024-05-10T09:40:58Z</time>
</trkpt>
<trkpt lat="49.53635782934725" lon="9.189854599535463">
<ele>487.8</ele>
<time>2024-05-10T09:40:59Z</time>
</trkpt>
<trkpt lat="49.53637694008648" lon="9.189776396378877">
<ele>488</ele>
<time>2024-05-10T09:41:00Z</time>
</trkpt>
<trkpt lat="49.53639596700668" lon="9.189698193222284">
<ele>488.2</ele>
<time>2024-05-10T09:41:01Z</time>
</trkpt>
<trkpt lat="49.536415077745914" lon="9.189619990065694">
<ele>488.2</ele>
<time>2024-05-10T09:41:02Z</time>
</trkpt>
<trkpt lat="49.536434104666114" lon="9.189539859071374">
<ele>488.4</ele>
<time>2024-05-10T09:41:03Z</time>
</trkpt>
<trkpt lat="49.536453215405345" lon="9.189463583752511">
<ele>488.4</ele>
<time>2024-05-10T09:41:04Z</time>
</trkpt>
<trkpt lat="49.536472242325544" lon="9.189385380595922">
<ele>488.6</ele>
<time>2024-05-10T09:41:05Z</time>
</trkpt>
<trkpt lat="49.536491353064775" lon="9.18930809944868">
<ele>488.6</ele>
<time>2024-05-10T09:41:06Z</time>
</trkpt>
<trkpt lat="49.53650660812855" lon="9.18923182412982">
<ele>488.6</ele>
<time>2024-05-10T09:41:07Z</time>
</trkpt>
<trkpt lat="49.53652571886778" lon="9.1891516931355">
<ele>488.8</ele>
<time>2024-05-10T09:41:08Z</time>
</trkpt>
<trkpt lat="49.53654474578798" lon="9.18907348997891">
<ele>488.8</ele>
<time>2024-05-10T09:41:09Z</time>
</trkpt>
<trkpt lat="49.53656385652721" lon="9.18899344280362">
<ele>489</ele>
<time>2024-05-10T09:41:10Z</time>
</trkpt>
<trkpt lat="49.53658673912287" lon="9.18891523964703">
<ele>489.2</ele>
<time>2024-05-10T09:41:11Z</time>
</trkpt>
<trkpt lat="49.536609621718526" lon="9.18883703649044">
<ele>489.2</ele>
<time>2024-05-10T09:41:12Z</time>
</trkpt>
<trkpt lat="49.536628648638725" lon="9.188754977658393">
<ele>489.4</ele>
<time>2024-05-10T09:41:13Z</time>
</trkpt>
<trkpt lat="49.536651531234384" lon="9.188670152798297">
<ele>489.4</ele>
<time>2024-05-10T09:41:14Z</time>
</trkpt>
<trkpt lat="49.536670641973615" lon="9.188586166128516">
<ele>489.4</ele>
<time>2024-05-10T09:41:15Z</time>
</trkpt>
<trkpt lat="49.53669352456927" lon="9.188503185287118">
<ele>489.4</ele>
<time>2024-05-10T09:41:16Z</time>
</trkpt>
<trkpt lat="49.53671640716493" lon="9.188418360427022">
<ele>489.6</ele>
<time>2024-05-10T09:41:17Z</time>
</trkpt>
<trkpt lat="49.53673551790416" lon="9.188331523910165">
<ele>489.6</ele>
<time>2024-05-10T09:41:18Z</time>
</trkpt>
<trkpt lat="49.53675840049982" lon="9.18824284337461">
<ele>489.6</ele>
<time>2024-05-10T09:41:19Z</time>
</trkpt>
<trkpt lat="49.53677742742002" lon="9.188153240829706">
<ele>489.6</ele>
<time>2024-05-10T09:41:20Z</time>
</trkpt>
<trkpt lat="49.53679653815925" lon="9.188061710447071">
<ele>489.6</ele>
<time>2024-05-10T09:41:21Z</time>
</trkpt>
<trkpt lat="49.53681556507945" lon="9.18796825222671">
<ele>489.6</ele>
<time>2024-05-10T09:41:22Z</time>
</trkpt>
<trkpt lat="49.53683467581868" lon="9.187876638025044">
<ele>489.6</ele>
<time>2024-05-10T09:41:23Z</time>
</trkpt>
<trkpt lat="49.53685755841434" lon="9.187783179804685">
<ele>489.6</ele>
<time>2024-05-10T09:41:24Z</time>
</trkpt>
<trkpt lat="49.53687666915357" lon="9.18768779374659">
<ele>489.6</ele>
<time>2024-05-10T09:41:25Z</time>
</trkpt>
<trkpt lat="49.53689192421734" lon="9.18759148567915">
<ele>489.6</ele>
<time>2024-05-10T09:41:26Z</time>
</trkpt>
<trkpt lat="49.53691095113754" lon="9.18749324977398">
<ele>489.4</ele>
<time>2024-05-10T09:41:27Z</time>
</trkpt>
<trkpt lat="49.536930061876774" lon="9.187395013868809">
<ele>489.4</ele>
<time>2024-05-10T09:41:28Z</time>
</trkpt>
<trkpt lat="49.536945316940546" lon="9.18729686178267">
<ele>489.4</ele>
<time>2024-05-10T09:41:29Z</time>
</trkpt>
<trkpt lat="49.53697582706809" lon="9.1870984621346">
<ele>489.2</ele>
<time>2024-05-10T09:41:31Z</time>
</trkpt>
<trkpt lat="49.5369872264564" lon="9.1869982983917">
<ele>489.2</ele>
<time>2024-05-10T09:41:32Z</time>
</trkpt>
<trkpt lat="49.537002481520176" lon="9.186898218467832">
<ele>489.2</ele>
<time>2024-05-10T09:41:33Z</time>
</trkpt>
<trkpt lat="49.53701396472752" lon="9.18679998256266">
<ele>489</ele>
<time>2024-05-10T09:41:34Z</time>
</trkpt>
<trkpt lat="49.537025447934866" lon="9.18669981881976">
<ele>488.8</ele>
<time>2024-05-10T09:41:35Z</time>
</trkpt>
<trkpt lat="49.53704070299864" lon="9.186598733067513">
<ele>488.8</ele>
<time>2024-05-10T09:41:36Z</time>
</trkpt>
<trkpt lat="49.53705210238695" lon="9.186498569324613">
<ele>488.6</ele>
<time>2024-05-10T09:41:37Z</time>
</trkpt>
<trkpt lat="49.5370635855943" lon="9.186400333419442">
<ele>488.4</ele>
<time>2024-05-10T09:41:38Z</time>
</trkpt>
<trkpt lat="49.53707498498261" lon="9.186300253495574">
<ele>488.2</ele>
<time>2024-05-10T09:41:39Z</time>
</trkpt>
<trkpt lat="49.537086468189955" lon="9.186202017590404">
<ele>488.2</ele>
<time>2024-05-10T09:41:40Z</time>
</trkpt>
<trkpt lat="49.53709786757827" lon="9.186102859675884">
<ele>488</ele>
<time>2024-05-10T09:41:41Z</time>
</trkpt>
<trkpt lat="49.53710935078561" lon="9.186004623770714">
<ele>488</ele>
<time>2024-05-10T09:41:42Z</time>
</trkpt>
<trkpt lat="49.537124605849385" lon="9.185908315703273">
<ele>488</ele>
<time>2024-05-10T09:41:43Z</time>
</trkpt>
<trkpt lat="49.5371360052377" lon="9.18581292964518">
<ele>487.8</ele>
<time>2024-05-10T09:41:44Z</time>
</trkpt>
<trkpt lat="49.53714748844504" lon="9.185718465596436">
<ele>487.8</ele>
<time>2024-05-10T09:41:45Z</time>
</trkpt>
<trkpt lat="49.53715888783336" lon="9.185621235519648">
<ele>487.8</ele>
<time>2024-05-10T09:41:46Z</time>
</trkpt>
<trkpt lat="49.53717414289713" lon="9.185528699308634">
<ele>487.8</ele>
<time>2024-05-10T09:41:47Z</time>
</trkpt>
<trkpt lat="49.537185626104474" lon="9.185433313250542">
<ele>487.8</ele>
<time>2024-05-10T09:41:48Z</time>
</trkpt>
<trkpt lat="49.537200881168246" lon="9.185341782867908">
<ele>487.8</ele>
<time>2024-05-10T09:41:49Z</time>
</trkpt>
<trkpt lat="49.537223763763905" lon="9.185255030170085">
<ele>487.8</ele>
<time>2024-05-10T09:41:50Z</time>
</trkpt>
<trkpt lat="49.53727338463068" lon="9.185079513117673">
<ele>487.8</ele>
<time>2024-05-10T09:41:52Z</time>
</trkpt>
<trkpt lat="49.537300039082766" lon="9.184987982735038">
<ele>487.8</ele>
<time>2024-05-10T09:41:53Z</time>
</trkpt>
<trkpt lat="49.537322921678424" lon="9.18490307405591">
<ele>487.8</ele>
<time>2024-05-10T09:41:54Z</time>
</trkpt>
<trkpt lat="49.53734580427408" lon="9.18482202105224">
<ele>487.8</ele>
<time>2024-05-10T09:41:55Z</time>
</trkpt>
<trkpt lat="49.53736877068877" lon="9.184741973876951">
<ele>487.8</ele>
<time>2024-05-10T09:41:56Z</time>
</trkpt>
<trkpt lat="49.53739165328443" lon="9.184664692729712">
<ele>487.8</ele>
<time>2024-05-10T09:41:57Z</time>
</trkpt>
<trkpt lat="49.53741830773651" lon="9.184590261429548">
<ele>487.8</ele>
<time>2024-05-10T09:41:58Z</time>
</trkpt>
<trkpt lat="49.537441190332174" lon="9.184514991939068">
<ele>488</ele>
<time>2024-05-10T09:41:59Z</time>
</trkpt>
<trkpt lat="49.537460301071405" lon="9.184443410485985">
<ele>488</ele>
<time>2024-05-10T09:42:00Z</time>
</trkpt>
<trkpt lat="49.537483183667064" lon="9.18437191285193">
<ele>488.2</ele>
<time>2024-05-10T09:42:01Z</time>
</trkpt>
<trkpt lat="49.53750983811915" lon="9.184303265064957">
<ele>488.4</ele>
<time>2024-05-10T09:42:02Z</time>
</trkpt>
<trkpt lat="49.537540432065725" lon="9.18423461727798">
<ele>488.4</ele>
<time>2024-05-10T09:42:03Z</time>
</trkpt>
<trkpt lat="49.53756708651781" lon="9.184166891500354">
<ele>488.6</ele>
<time>2024-05-10T09:42:04Z</time>
</trkpt>
<trkpt lat="49.53758996911347" lon="9.184093466028571">
<ele>488.6</ele>
<time>2024-05-10T09:42:05Z</time>
</trkpt>
<trkpt lat="49.537616707384586" lon="9.184020040556788">
<ele>488.8</ele>
<time>2024-05-10T09:42:06Z</time>
</trkpt>
<trkpt lat="49.537635734304786" lon="9.183950386941431">
<ele>489</ele>
<time>2024-05-10T09:42:07Z</time>
</trkpt>
<trkpt lat="49.53765861690045" lon="9.183879811316729">
<ele>489</ele>
<time>2024-05-10T09:42:08Z</time>
</trkpt>
<trkpt lat="49.5376814994961" lon="9.183811163529754">
<ele>489.2</ele>
<time>2024-05-10T09:42:09Z</time>
</trkpt>
<trkpt lat="49.53770446591079" lon="9.183743437752128">
<ele>489.4</ele>
<time>2024-05-10T09:42:10Z</time>
</trkpt>
<trkpt lat="49.53772734850645" lon="9.183676717802882">
<ele>489.6</ele>
<time>2024-05-10T09:42:11Z</time>
</trkpt>
<trkpt lat="49.53775023110211" lon="9.183611841872334">
<ele>490</ele>
<time>2024-05-10T09:42:12Z</time>
</trkpt>
<trkpt lat="49.53777311369777" lon="9.183546965941789">
<ele>490.2</ele>
<time>2024-05-10T09:42:13Z</time>
</trkpt>
<trkpt lat="49.53779214061797" lon="9.18348116800189">
<ele>490.6</ele>
<time>2024-05-10T09:42:14Z</time>
</trkpt>
<trkpt lat="49.537815023213625" lon="9.183415370061994">
<ele>490.8</ele>
<time>2024-05-10T09:42:15Z</time>
</trkpt>
<trkpt lat="49.537834133952856" lon="9.183348650112748">
<ele>491</ele>
<time>2024-05-10T09:42:16Z</time>
</trkpt>
<trkpt lat="49.537857016548514" lon="9.183279918506742">
<ele>491.2</ele>
<time>2024-05-10T09:42:17Z</time>
</trkpt>
<trkpt lat="49.537876127287745" lon="9.183211270719768">
<ele>491.4</ele>
<time>2024-05-10T09:42:18Z</time>
</trkpt>
<trkpt lat="49.537895154207945" lon="9.18314354494214">
<ele>491.6</ele>
<time>2024-05-10T09:42:19Z</time>
</trkpt>
<trkpt lat="49.537914264947176" lon="9.183072969317436">
<ele>491.8</ele>
<time>2024-05-10T09:42:20Z</time>
</trkpt>
<trkpt lat="49.537933291867375" lon="9.183003399521112">
<ele>492</ele>
<time>2024-05-10T09:42:21Z</time>
</trkpt>
<trkpt lat="49.53794854693115" lon="9.182931818068027">
<ele>492.4</ele>
<time>2024-05-10T09:42:22Z</time>
</trkpt>
<trkpt lat="49.53796380199492" lon="9.182858392596245">
<ele>492.6</ele>
<time>2024-05-10T09:42:23Z</time>
</trkpt>
<trkpt lat="49.53797905705869" lon="9.182784967124462">
<ele>493</ele>
<time>2024-05-10T09:42:24Z</time>
</trkpt>
<trkpt lat="49.537994312122464" lon="9.18270961381495">
<ele>493.2</ele>
<time>2024-05-10T09:42:25Z</time>
</trkpt>
<trkpt lat="49.53800956718624" lon="9.182635266333818">
<ele>493.6</ele>
<time>2024-05-10T09:42:26Z</time>
</trkpt>
<trkpt lat="49.53802482225001" lon="9.182561840862036">
<ele>493.8</ele>
<time>2024-05-10T09:42:27Z</time>
</trkpt>
<trkpt lat="49.53804016113281" lon="9.182491265237331">
<ele>494.2</ele>
<time>2024-05-10T09:42:28Z</time>
</trkpt>
<trkpt lat="49.538055416196585" lon="9.182426389306784">
<ele>494.4</ele>
<time>2024-05-10T09:42:29Z</time>
</trkpt>
<trkpt lat="49.5380668155849" lon="9.182365369051697">
<ele>494.6</ele>
<time>2024-05-10T09:42:30Z</time>
</trkpt>
<trkpt lat="49.53807829879224" lon="9.18229864910245">
<ele>495</ele>
<time>2024-05-10T09:42:31Z</time>
</trkpt>
<trkpt lat="49.538093553856015" lon="9.182233773171902">
<ele>495.2</ele>
<time>2024-05-10T09:42:32Z</time>
</trkpt>
<trkpt lat="49.53810495324433" lon="9.182167053222656">
<ele>495.4</ele>
<time>2024-05-10T09:42:33Z</time>
</trkpt>
<trkpt lat="49.53811643645167" lon="9.182101171463728">
<ele>495.6</ele>
<time>2024-05-10T09:42:34Z</time>
</trkpt>
<trkpt lat="49.53812783583999" lon="9.18203830718994">
<ele>495.6</ele>
<time>2024-05-10T09:42:35Z</time>
</trkpt>
<trkpt lat="49.53814309090376" lon="9.181976281106472">
<ele>495.8</ele>
<time>2024-05-10T09:42:36Z</time>
</trkpt>
<trkpt lat="49.53815834596753" lon="9.181913333013654">
<ele>496</ele>
<time>2024-05-10T09:42:37Z</time>
</trkpt>
<trkpt lat="49.53816982917488" lon="9.181850384920835">
<ele>496.2</ele>
<time>2024-05-10T09:42:38Z</time>
</trkpt>
<trkpt lat="49.53818508423865" lon="9.181786514818668">
<ele>496.2</ele>
<time>2024-05-10T09:42:39Z</time>
</trkpt>
<trkpt lat="49.53820033930242" lon="9.1817244887352">
<ele>496.4</ele>
<time>2024-05-10T09:42:40Z</time>
</trkpt>
<trkpt lat="49.53821945004165" lon="9.18166346848011">
<ele>496.6</ele>
<time>2024-05-10T09:42:41Z</time>
</trkpt>
<trkpt lat="49.538234705105424" lon="9.18160144239664">
<ele>496.6</ele>
<time>2024-05-10T09:42:42Z</time>
</trkpt>
<trkpt lat="49.5382499601692" lon="9.181539500132205">
<ele>496.8</ele>
<time>2024-05-10T09:42:43Z</time>
</trkpt>
<trkpt lat="49.53828047029674" lon="9.181420309469104">
<ele>497</ele>
<time>2024-05-10T09:42:45Z</time>
</trkpt>
<trkpt lat="49.53829949721694" lon="9.181360211223364">
<ele>497</ele>
<time>2024-05-10T09:42:46Z</time>
</trkpt>
<trkpt lat="49.53831475228071" lon="9.181298185139894">
<ele>497.2</ele>
<time>2024-05-10T09:42:47Z</time>
</trkpt>
<trkpt lat="49.53833000734448" lon="9.181235237047076">
<ele>497.4</ele>
<time>2024-05-10T09:42:48Z</time>
</trkpt>
<trkpt lat="49.53834526240826" lon="9.181171366944907">
<ele>497.4</ele>
<time>2024-05-10T09:42:49Z</time>
</trkpt>
<trkpt lat="49.53836437314749" lon="9.18110841885209">
<ele>497.6</ele>
<time>2024-05-10T09:42:50Z</time>
</trkpt>
<trkpt lat="49.53838348388672" lon="9.181048320606353">
<ele>497.8</ele>
<time>2024-05-10T09:42:51Z</time>
</trkpt>
<trkpt lat="49.53839873895049" lon="9.180988306179644">
<ele>498</ele>
<time>2024-05-10T09:42:52Z</time>
</trkpt>
<trkpt lat="49.53841776587069" lon="9.180930135771632">
<ele>498.2</ele>
<time>2024-05-10T09:42:53Z</time>
</trkpt>
<trkpt lat="49.53843302093446" lon="9.180868109688165">
<ele>498.4</ele>
<time>2024-05-10T09:42:54Z</time>
</trkpt>
<trkpt lat="49.538448275998235" lon="9.180803233757617">
<ele>498.4</ele>
<time>2024-05-10T09:42:55Z</time>
</trkpt>
<trkpt lat="49.53846353106201" lon="9.180741291493176">
<ele>498.6</ele>
<time>2024-05-10T09:42:56Z</time>
</trkpt>
<trkpt lat="49.53847878612578" lon="9.180680271238089">
<ele>498.6</ele>
<time>2024-05-10T09:42:57Z</time>
</trkpt>
<trkpt lat="49.53849789686501" lon="9.18061631731689">
<ele>498.8</ele>
<time>2024-05-10T09:42:58Z</time>
</trkpt>
<trkpt lat="49.53851692378521" lon="9.1805552970618">
<ele>499</ele>
<time>2024-05-10T09:42:59Z</time>
</trkpt>
<trkpt lat="49.53853980638087" lon="9.18049519881606">
<ele>499</ele>
<time>2024-05-10T09:43:00Z</time>
</trkpt>
<trkpt lat="49.53855514526367" lon="9.180433256551623">
<ele>499.2</ele>
<time>2024-05-10T09:43:01Z</time>
</trkpt>
<trkpt lat="49.53857417218387" lon="9.180373158305883">
<ele>499.2</ele>
<time>2024-05-10T09:43:02Z</time>
</trkpt>
<trkpt lat="49.53858942724764" lon="9.180313060060143">
<ele>499.4</ele>
<time>2024-05-10T09:43:03Z</time>
</trkpt>
<trkpt lat="49.538604682311416" lon="9.180252961814404">
<ele>499.4</ele>
<time>2024-05-10T09:43:04Z</time>
</trkpt>
<trkpt lat="49.53862379305065" lon="9.180194791406391">
<ele>499.6</ele>
<time>2024-05-10T09:43:05Z</time>
</trkpt>
<trkpt lat="49.53863904811442" lon="9.180138548836112">
<ele>499.8</ele>
<time>2024-05-10T09:43:06Z</time>
</trkpt>
<trkpt lat="49.53865807503462" lon="9.18008130043745">
<ele>499.8</ele>
<time>2024-05-10T09:43:07Z</time>
</trkpt>
<trkpt lat="49.53867718577385" lon="9.18002505786717">
<ele>499.8</ele>
<time>2024-05-10T09:43:08Z</time>
</trkpt>
<trkpt lat="49.53869244083762" lon="9.17996688745916">
<ele>500</ele>
<time>2024-05-10T09:43:09Z</time>
</trkpt>
<trkpt lat="49.538707695901394" lon="9.179908717051148">
<ele>500</ele>
<time>2024-05-10T09:43:10Z</time>
</trkpt>
<trkpt lat="49.538726806640625" lon="9.179851468652489">
<ele>500.2</ele>
<time>2024-05-10T09:43:11Z</time>
</trkpt>
<trkpt lat="49.5387420617044" lon="9.179796148091556">
<ele>500.4</ele>
<time>2024-05-10T09:43:12Z</time>
</trkpt>
<trkpt lat="49.53875731676817" lon="9.179739905521274">
<ele>500.6</ele>
<time>2024-05-10T09:43:13Z</time>
</trkpt>
<trkpt lat="49.53877257183194" lon="9.179683662950993">
<ele>500.8</ele>
<time>2024-05-10T09:43:14Z</time>
</trkpt>
<trkpt lat="49.53879159875214" lon="9.179626414552333">
<ele>501</ele>
<time>2024-05-10T09:43:15Z</time>
</trkpt>
<trkpt lat="49.53880685381591" lon="9.179573021829128">
<ele>501.2</ele>
<time>2024-05-10T09:43:16Z</time>
</trkpt>
<trkpt lat="49.538825964555144" lon="9.179521556943657">
<ele>501.4</ele>
<time>2024-05-10T09:43:17Z</time>
</trkpt>
<trkpt lat="49.53884121961892" lon="9.179466236382725">
<ele>501.6</ele>
<time>2024-05-10T09:43:18Z</time>
</trkpt>
<trkpt lat="49.53885647468269" lon="9.179413765668867">
<ele>501.8</ele>
<time>2024-05-10T09:43:19Z</time>
</trkpt>
<trkpt lat="49.53887172974646" lon="9.179358445107937">
<ele>501.8</ele>
<time>2024-05-10T09:43:20Z</time>
</trkpt>
<trkpt lat="49.53888698481023" lon="9.179306980222464">
<ele>502</ele>
<time>2024-05-10T09:43:21Z</time>
</trkpt>
<trkpt lat="49.538902239874005" lon="9.17925350368023">
<ele>502.2</ele>
<time>2024-05-10T09:43:22Z</time>
</trkpt>
<trkpt lat="49.53892135061323" lon="9.179200110957026">
<ele>502.4</ele>
<time>2024-05-10T09:43:23Z</time>
</trkpt>
<trkpt lat="49.53893660567701" lon="9.179146718233824">
<ele>502.4</ele>
<time>2024-05-10T09:43:24Z</time>
</trkpt>
<trkpt lat="49.53895186074078" lon="9.17909332551062">
<ele>502.6</ele>
<time>2024-05-10T09:43:25Z</time>
</trkpt>
<trkpt lat="49.53897088766098" lon="9.179039932787418">
<ele>503</ele>
<time>2024-05-10T09:43:26Z</time>
</trkpt>
<trkpt lat="49.53898999840021" lon="9.178984612226486">
<ele>503.2</ele>
<time>2024-05-10T09:43:27Z</time>
</trkpt>
<trkpt lat="49.53900525346398" lon="9.17893306352198">
<ele>503.4</ele>
<time>2024-05-10T09:43:28Z</time>
</trkpt>
<trkpt lat="49.53902050852776" lon="9.17887967079878">
<ele>503.6</ele>
<time>2024-05-10T09:43:29Z</time>
</trkpt>
<trkpt lat="49.53903190791607" lon="9.178825356066229">
<ele>503.8</ele>
<time>2024-05-10T09:43:30Z</time>
</trkpt>
<trkpt lat="49.53904716297984" lon="9.178770035505297">
<ele>504</ele>
<time>2024-05-10T09:43:31Z</time>
</trkpt>
<trkpt lat="49.53906241804361" lon="9.178716642782092">
<ele>504</ele>
<time>2024-05-10T09:43:32Z</time>
</trkpt>
<trkpt lat="49.539081528782845" lon="9.17866325005889">
<ele>504.2</ele>
<time>2024-05-10T09:43:33Z</time>
</trkpt>
<trkpt lat="49.53909678384662" lon="9.178607929497955">
<ele>504.4</ele>
<time>2024-05-10T09:43:34Z</time>
</trkpt>
<trkpt lat="49.53911589458585" lon="9.178554452955725">
<ele>504.6</ele>
<time>2024-05-10T09:43:35Z</time>
</trkpt>
<trkpt lat="49.53913492150605" lon="9.178500138223171">
<ele>504.6</ele>
<time>2024-05-10T09:43:36Z</time>
</trkpt>
<trkpt lat="49.53915017656982" lon="9.17844196781516">
<ele>504.8</ele>
<time>2024-05-10T09:43:37Z</time>
</trkpt>
<trkpt lat="49.53916543163359" lon="9.17838186956942">
<ele>505</ele>
<time>2024-05-10T09:43:38Z</time>
</trkpt>
<trkpt lat="49.53918068669736" lon="9.17832369916141">
<ele>505.2</ele>
<time>2024-05-10T09:43:39Z</time>
</trkpt>
<trkpt lat="49.539199797436595" lon="9.17826360091567">
<ele>505.4</ele>
<time>2024-05-10T09:43:40Z</time>
</trkpt>
<trkpt lat="49.53921505250037" lon="9.178204508498313">
<ele>505.6</ele>
<time>2024-05-10T09:43:41Z</time>
</trkpt>
<trkpt lat="49.53923030756414" lon="9.1781463380903">
<ele>505.8</ele>
<time>2024-05-10T09:43:42Z</time>
</trkpt>
<trkpt lat="49.53924941830337" lon="9.178091939538715">
<ele>505.8</ele>
<time>2024-05-10T09:43:43Z</time>
</trkpt>
<trkpt lat="49.53926467336714" lon="9.178034774959087">
<ele>506</ele>
<time>2024-05-10T09:43:44Z</time>
</trkpt>
<trkpt lat="49.53928370028734" lon="9.177976604551075">
<ele>506.2</ele>
<time>2024-05-10T09:43:45Z</time>
</trkpt>
<trkpt lat="49.53930281102657" lon="9.177918434143066">
<ele>506.4</ele>
<time>2024-05-10T09:43:46Z</time>
</trkpt>
<trkpt lat="49.53932183794677" lon="9.177856408059595">
<ele>506.6</ele>
<time>2024-05-10T09:43:47Z</time>
</trkpt>
<trkpt lat="49.539337093010545" lon="9.17779345996678">
<ele>506.6</ele>
<time>2024-05-10T09:43:48Z</time>
</trkpt>
<trkpt lat="49.53935234807432" lon="9.177728584036233">
<ele>506.8</ele>
<time>2024-05-10T09:43:49Z</time>
</trkpt>
<trkpt lat="49.53937145881355" lon="9.177663791924717">
<ele>506.8</ele>
<time>2024-05-10T09:43:50Z</time>
</trkpt>
<trkpt lat="49.53938285820186" lon="9.177595060318708">
<ele>506.8</ele>
<time>2024-05-10T09:43:51Z</time>
</trkpt>
<trkpt lat="49.539398113265634" lon="9.177524484694004">
<ele>506.8</ele>
<time>2024-05-10T09:43:52Z</time>
</trkpt>
<trkpt lat="49.53941345214844" lon="9.17745491489768">
<ele>507</ele>
<time>2024-05-10T09:43:53Z</time>
</trkpt>
<trkpt lat="49.53942485153675" lon="9.177386267110704">
<ele>507</ele>
<time>2024-05-10T09:43:54Z</time>
</trkpt>
<trkpt lat="49.53944396227598" lon="9.177320469170809">
<ele>507.2</ele>
<time>2024-05-10T09:43:55Z</time>
</trkpt>
<trkpt lat="49.539455361664295" lon="9.177253665402532">
<ele>507.4</ele>
<time>2024-05-10T09:43:56Z</time>
</trkpt>
<trkpt lat="49.53946684487164" lon="9.177187867462637">
<ele>507.4</ele>
<time>2024-05-10T09:43:57Z</time>
</trkpt>
<trkpt lat="49.53948209993541" lon="9.177120141685007">
<ele>507.4</ele>
<time>2024-05-10T09:43:58Z</time>
</trkpt>
<trkpt lat="49.539493499323726" lon="9.177053421735764">
<ele>507.6</ele>
<time>2024-05-10T09:43:59Z</time>
</trkpt>
<trkpt lat="49.53950498253107" lon="9.176986617967486">
<ele>507.6</ele>
<time>2024-05-10T09:44:00Z</time>
</trkpt>
<trkpt lat="49.53952023759484" lon="9.17692182585597">
<ele>507.6</ele>
<time>2024-05-10T09:44:01Z</time>
</trkpt>
<trkpt lat="49.53952786512673" lon="9.176856949925424">
<ele>507.8</ele>
<time>2024-05-10T09:44:02Z</time>
</trkpt>
<trkpt lat="49.53953926451504" lon="9.176792073994877">
<ele>507.8</ele>
<time>2024-05-10T09:44:03Z</time>
</trkpt>
<trkpt lat="49.53954689204693" lon="9.176728203892708">
<ele>507.8</ele>
<time>2024-05-10T09:44:04Z</time>
</trkpt>
<trkpt lat="49.53955837525427" lon="9.17666332796216">
<ele>508</ele>
<time>2024-05-10T09:44:05Z</time>
</trkpt>
<trkpt lat="49.53956977464259" lon="9.176598535850644">
<ele>508.2</ele>
<time>2024-05-10T09:44:06Z</time>
</trkpt>
<trkpt lat="49.53958125784993" lon="9.176533659920096">
<ele>508.2</ele>
<time>2024-05-10T09:44:07Z</time>
</trkpt>
<trkpt lat="49.53958888538182" lon="9.176466939970853">
<ele>508.2</ele>
<time>2024-05-10T09:44:08Z</time>
</trkpt>
<trkpt lat="49.53960036858916" lon="9.176402064040303">
<ele>508.4</ele>
<time>2024-05-10T09:44:09Z</time>
</trkpt>
<trkpt lat="49.539615623652935" lon="9.176336266100408">
<ele>508.6</ele>
<time>2024-05-10T09:44:10Z</time>
</trkpt>
<trkpt lat="49.53962702304125" lon="9.17626946233213">
<ele>508.6</ele>
<time>2024-05-10T09:44:11Z</time>
</trkpt>
<trkpt lat="49.53964227810502" lon="9.176203664392231">
<ele>508.8</ele>
<time>2024-05-10T09:44:12Z</time>
</trkpt>
<trkpt lat="49.539653761312366" lon="9.176136944442987">
<ele>508.8</ele>
<time>2024-05-10T09:44:13Z</time>
</trkpt>
<trkpt lat="49.539676643908024" lon="9.176005348563194">
<ele>509</ele>
<time>2024-05-10T09:44:15Z</time>
</trkpt>
<trkpt lat="49.53968804329634" lon="9.175939550623298">
<ele>509</ele>
<time>2024-05-10T09:44:16Z</time>
</trkpt>
<trkpt lat="49.53969952650368" lon="9.17587467469275">
<ele>509</ele>
<time>2024-05-10T09:44:17Z</time>
</trkpt>
<trkpt lat="49.539710925891995" lon="9.175811726599932">
<ele>509</ele>
<time>2024-05-10T09:44:18Z</time>
</trkpt>
<trkpt lat="49.53972240909934" lon="9.175746850669384">
<ele>509.2</ele>
<time>2024-05-10T09:44:19Z</time>
</trkpt>
<trkpt lat="49.539733808487654" lon="9.17568013072014">
<ele>509.4</ele>
<time>2024-05-10T09:44:20Z</time>
</trkpt>
<trkpt lat="49.53974143601954" lon="9.17561332695186">
<ele>509.4</ele>
<time>2024-05-10T09:44:21Z</time>
</trkpt>
<trkpt lat="49.539752919226885" lon="9.175546607002616">
<ele>509.6</ele>
<time>2024-05-10T09:44:22Z</time>
</trkpt>
<trkpt lat="49.53976440243423" lon="9.17547988705337">
<ele>509.8</ele>
<time>2024-05-10T09:44:23Z</time>
</trkpt>
<trkpt lat="49.53977580182254" lon="9.175413083285092">
<ele>509.8</ele>
<time>2024-05-10T09:44:24Z</time>
</trkpt>
<trkpt lat="49.53978728502989" lon="9.175348207354546">
<ele>509.8</ele>
<time>2024-05-10T09:44:25Z</time>
</trkpt>
<trkpt lat="49.539794912561774" lon="9.17528341524303">
<ele>509.8</ele>
<time>2024-05-10T09:44:26Z</time>
</trkpt>
<trkpt lat="49.53981016762555" lon="9.175218539312482">
<ele>510</ele>
<time>2024-05-10T09:44:27Z</time>
</trkpt>
<trkpt lat="49.53982156701386" lon="9.175153663381934">
<ele>510</ele>
<time>2024-05-10T09:44:28Z</time>
</trkpt>
<trkpt lat="49.539829194545746" lon="9.175091721117496">
<ele>510.2</ele>
<time>2024-05-10T09:44:29Z</time>
</trkpt>
<trkpt lat="49.53984067775309" lon="9.175028773024678">
<ele>510.2</ele>
<time>2024-05-10T09:44:30Z</time>
</trkpt>
<trkpt lat="49.53984830528498" lon="9.174966746941209">
<ele>510.4</ele>
<time>2024-05-10T09:44:31Z</time>
</trkpt>
<trkpt lat="49.53985593281686" lon="9.174904804676771">
<ele>510.4</ele>
<time>2024-05-10T09:44:32Z</time>
</trkpt>
<trkpt lat="49.539867332205176" lon="9.174843784421682">
<ele>510.6</ele>
<time>2024-05-10T09:44:33Z</time>
</trkpt>
<trkpt lat="49.53987495973706" lon="9.174779830500484">
<ele>510.8</ele>
<time>2024-05-10T09:44:34Z</time>
</trkpt>
<trkpt lat="49.53988644294441" lon="9.174717888236046">
<ele>511</ele>
<time>2024-05-10T09:44:35Z</time>
</trkpt>
<trkpt lat="49.53989784233272" lon="9.174656867980955">
<ele>511</ele>
<time>2024-05-10T09:44:36Z</time>
</trkpt>
<trkpt lat="49.539909325540066" lon="9.174592914059758">
<ele>511.2</ele>
<time>2024-05-10T09:44:37Z</time>
</trkpt>
<trkpt lat="49.53992072492838" lon="9.17452996596694">
<ele>511.4</ele>
<time>2024-05-10T09:44:38Z</time>
</trkpt>
<trkpt lat="49.53993220813573" lon="9.174465173855424">
<ele>511.6</ele>
<time>2024-05-10T09:44:39Z</time>
</trkpt>
<trkpt lat="49.53993983566761" lon="9.174400297924876">
<ele>511.8</ele>
<time>2024-05-10T09:44:40Z</time>
</trkpt>
<trkpt lat="49.539951318874955" lon="9.174335421994328">
<ele>512</ele>
<time>2024-05-10T09:44:41Z</time>
</trkpt>
<trkpt lat="49.53996271826327" lon="9.174269624054432">
<ele>512.2</ele>
<time>2024-05-10T09:44:42Z</time>
</trkpt>
<trkpt lat="49.53997797332704" lon="9.174204748123884">
<ele>512.4</ele>
<time>2024-05-10T09:44:43Z</time>
</trkpt>
<trkpt lat="49.53998560085893" lon="9.174139956012368">
<ele>512.4</ele>
<time>2024-05-10T09:44:44Z</time>
</trkpt>
<trkpt lat="49.53999322839081" lon="9.17407508008182">
<ele>512.599</ele>
<time>2024-05-10T09:44:45Z</time>
</trkpt>
<trkpt lat="49.54000471159816" lon="9.174011209979652">
<ele>512.599</ele>
<time>2024-05-10T09:44:46Z</time>
</trkpt>
<trkpt lat="49.54001233913005" lon="9.173948261886837">
<ele>512.599</ele>
<time>2024-05-10T09:44:47Z</time>
</trkpt>
<trkpt lat="49.54002373851836" lon="9.173886235803366">
<ele>512.8</ele>
<time>2024-05-10T09:44:48Z</time>
</trkpt>
<trkpt lat="49.54003136605024" lon="9.173825215548275">
<ele>512.8</ele>
<time>2024-05-10T09:44:49Z</time>
</trkpt>
<trkpt lat="49.54003899358213" lon="9.17376327328384">
<ele>513</ele>
<time>2024-05-10T09:44:50Z</time>
</trkpt>
<trkpt lat="49.540046621114016" lon="9.1737031750381">
<ele>513.2</ele>
<time>2024-05-10T09:44:51Z</time>
</trkpt>
<trkpt lat="49.540046621114016" lon="9.17364307679236">
<ele>513.2</ele>
<time>2024-05-10T09:44:52Z</time>
</trkpt>
<trkpt lat="49.5400542486459" lon="9.17358297854662">
<ele>513.4</ele>
<time>2024-05-10T09:44:53Z</time>
</trkpt>
<trkpt lat="49.54005810432136" lon="9.17352288030088">
<ele>513.599</ele>
<time>2024-05-10T09:44:54Z</time>
</trkpt>
<trkpt lat="49.54005810432136" lon="9.17346186004579">
<ele>513.599</ele>
<time>2024-05-10T09:44:55Z</time>
</trkpt>
<trkpt lat="49.54005810432136" lon="9.173396984115245">
<ele>513.8</ele>
<time>2024-05-10T09:44:56Z</time>
</trkpt>
<trkpt lat="49.54005810432136" lon="9.173331186175346">
<ele>514</ele>
<time>2024-05-10T09:44:57Z</time>
</trkpt>
<trkpt lat="49.54006573185325" lon="9.173268238082528">
<ele>514</ele>
<time>2024-05-10T09:44:58Z</time>
</trkpt>
<trkpt lat="49.54006573185325" lon="9.173201518133284">
<ele>514.2</ele>
<time>2024-05-10T09:44:59Z</time>
</trkpt>
<trkpt lat="49.54006573185325" lon="9.173132870346308">
<ele>514.2</ele>
<time>2024-05-10T09:45:00Z</time>
</trkpt>
<trkpt lat="49.54006573185325" lon="9.17306799441576">
<ele>514.2</ele>
<time>2024-05-10T09:45:01Z</time>
</trkpt>
<trkpt lat="49.54006573185325" lon="9.173005046322942">
<ele>514.2</ele>
<time>2024-05-10T09:45:02Z</time>
</trkpt>
<trkpt lat="49.54006573185325" lon="9.172943104058504">
<ele>514.4</ele>
<time>2024-05-10T09:45:03Z</time>
</trkpt>
<trkpt lat="49.540069503709674" lon="9.172880155965686">
<ele>514.4</ele>
<time>2024-05-10T09:45:04Z</time>
</trkpt>
<trkpt lat="49.540069503709674" lon="9.172818129882216">
<ele>514.599</ele>
<time>2024-05-10T09:45:05Z</time>
</trkpt>
<trkpt lat="49.540069503709674" lon="9.17275618761778">
<ele>514.599</ele>
<time>2024-05-10T09:45:06Z</time>
</trkpt>
<trkpt lat="49.54006573185325" lon="9.172697011381388">
<ele>514.599</ele>
<time>2024-05-10T09:45:07Z</time>
</trkpt>
<trkpt lat="49.54006573185325" lon="9.172636913135648">
<ele>514.8</ele>
<time>2024-05-10T09:45:08Z</time>
</trkpt>
<trkpt lat="49.54006187617779" lon="9.172579748556018">
<ele>515</ele>
<time>2024-05-10T09:45:09Z</time>
</trkpt>
<trkpt lat="49.54006187617779" lon="9.172523422166703">
<ele>515.2</ele>
<time>2024-05-10T09:45:10Z</time>
</trkpt>
<trkpt lat="49.54006187617779" lon="9.172468185424805">
<ele>515.2</ele>
<time>2024-05-10T09:45:11Z</time>
</trkpt>
<trkpt lat="49.54006187617779" lon="9.17241470888257">
<ele>515.4</ele>
<time>2024-05-10T09:45:12Z</time>
</trkpt>
<trkpt lat="49.54005810432136" lon="9.172361316159368">
<ele>515.599</ele>
<time>2024-05-10T09:45:13Z</time>
</trkpt>
<trkpt lat="49.54005810432136" lon="9.172309851273894">
<ele>515.599</ele>
<time>2024-05-10T09:45:14Z</time>
</trkpt>
<trkpt lat="49.54005810432136" lon="9.17225830256939">
<ele>515.599</ele>
<time>2024-05-10T09:45:15Z</time>
</trkpt>
<trkpt lat="49.5400542486459" lon="9.172206837683916">
<ele>515.8</ele>
<time>2024-05-10T09:45:16Z</time>
</trkpt>
<trkpt lat="49.5400542486459" lon="9.172151517122984">
<ele>515.8</ele>
<time>2024-05-10T09:45:17Z</time>
</trkpt>
<trkpt lat="49.54005810432136" lon="9.17210005223751">
<ele>516</ele>
<time>2024-05-10T09:45:18Z</time>
</trkpt>
<trkpt lat="49.54006187617779" lon="9.172048503533006">
<ele>516</ele>
<time>2024-05-10T09:45:19Z</time>
</trkpt>
<trkpt lat="49.54007335938513" lon="9.17200181633234">
<ele>516.2</ele>
<time>2024-05-10T09:45:20Z</time>
</trkpt>
<trkpt lat="49.54009624198079" lon="9.17195982299745">
<ele>516.2</ele>
<time>2024-05-10T09:45:21Z</time>
</trkpt>
<trkpt lat="49.540126752108335" lon="9.171933168545364">
<ele>516.4</ele>
<time>2024-05-10T09:45:22Z</time>
</trkpt>
<trkpt lat="49.54015349037945" lon="9.171908358111978">
<ele>516.4</ele>
<time>2024-05-10T09:45:23Z</time>
</trkpt>
<trkpt lat="49.540184000507" lon="9.17188446968794">
<ele>516.4</ele>
<time>2024-05-10T09:45:24Z</time>
</trkpt>
<trkpt lat="49.54021828249097" lon="9.171858737245202">
<ele>516.4</ele>
<time>2024-05-10T09:45:25Z</time>
</trkpt>
<trkpt lat="49.54024879261851" lon="9.171828227117658">
<ele>516.599</ele>
<time>2024-05-10T09:45:26Z</time>
</trkpt>
<trkpt lat="49.54027938656509" lon="9.171796794980764">
<ele>516.599</ele>
<time>2024-05-10T09:45:27Z</time>
</trkpt>
<trkpt lat="49.540306041017175" lon="9.17176527902484">
<ele>516.599</ele>
<time>2024-05-10T09:45:28Z</time>
</trkpt>
<trkpt lat="49.54033655114472" lon="9.171728063374758">
<ele>516.599</ele>
<time>2024-05-10T09:45:29Z</time>
</trkpt>
<trkpt lat="49.54036328941584" lon="9.171691853553057">
<ele>516.8</ele>
<time>2024-05-10T09:45:30Z</time>
</trkpt>
<trkpt lat="49.54038994386792" lon="9.171656565740705">
<ele>516.8</ele>
<time>2024-05-10T09:45:31Z</time>
</trkpt>
<trkpt lat="49.54041282646358" lon="9.171621277928352">
<ele>516.8</ele>
<time>2024-05-10T09:45:32Z</time>
</trkpt>
<trkpt lat="49.54043570905924" lon="9.171583140268922">
<ele>516.8</ele>
<time>2024-05-10T09:45:33Z</time>
</trkpt>
<trkpt lat="49.54045867547393" lon="9.17154693044722">
<ele>516.8</ele>
<time>2024-05-10T09:45:34Z</time>
</trkpt>
<trkpt lat="49.54048155806959" lon="9.17150971479714">
<ele>516.8</ele>
<time>2024-05-10T09:45:35Z</time>
</trkpt>
<trkpt lat="49.540504440665245" lon="9.171471577137709">
<ele>516.8</ele>
<time>2024-05-10T09:45:36Z</time>
</trkpt>
<trkpt lat="49.54052346758544" lon="9.171436289325356">
<ele>516.8</ele>
<time>2024-05-10T09:45:37Z</time>
</trkpt>
<trkpt lat="49.54054257832467" lon="9.171404773369431">
<ele>516.8</ele>
<time>2024-05-10T09:45:38Z</time>
</trkpt>
<trkpt lat="49.540561605244875" lon="9.171378118917346">
<ele>516.8</ele>
<time>2024-05-10T09:45:39Z</time>
</trkpt>
<trkpt lat="49.54057686030865" lon="9.171355236321688">
<ele>516.8</ele>
<time>2024-05-10T09:45:40Z</time>
</trkpt>
<trkpt lat="49.54059211537242" lon="9.17132849805057">
<ele>516.8</ele>
<time>2024-05-10T09:45:41Z</time>
</trkpt>
<trkpt lat="49.54060737043619" lon="9.171299915760756">
<ele>516.8</ele>
<time>2024-05-10T09:45:42Z</time>
</trkpt>
<trkpt lat="49.540622709318995" lon="9.17127032764256">
<ele>517</ele>
<time>2024-05-10T09:45:43Z</time>
</trkpt>
<trkpt lat="49.54063410870731" lon="9.171241745352743">
<ele>517</ele>
<time>2024-05-10T09:45:44Z</time>
</trkpt>
<trkpt lat="49.54064936377108" lon="9.1712112352252">
<ele>517.2</ele>
<time>2024-05-10T09:45:45Z</time>
</trkpt>
<trkpt lat="49.54066847451031" lon="9.171184496954083">
<ele>517.2</ele>
<time>2024-05-10T09:45:46Z</time>
</trkpt>
<trkpt lat="49.540679873898625" lon="9.171156836673616">
<ele>517.4</ele>
<time>2024-05-10T09:45:47Z</time>
</trkpt>
<trkpt lat="49.5406951289624" lon="9.17113303206861">
<ele>517.4</ele>
<time>2024-05-10T09:45:48Z</time>
</trkpt>
<trkpt lat="49.54070661216974" lon="9.171108221635222">
<ele>517.599</ele>
<time>2024-05-10T09:45:49Z</time>
</trkpt>
<trkpt lat="49.540718011558056" lon="9.171086261048911">
<ele>517.599</ele>
<time>2024-05-10T09:45:50Z</time>
</trkpt>
<trkpt lat="49.54073326662183" lon="9.171063378453256">
<ele>517.599</ele>
<time>2024-05-10T09:45:51Z</time>
</trkpt>
<trkpt lat="49.54074474982917" lon="9.171036640182136">
<ele>517.599</ele>
<time>2024-05-10T09:45:52Z</time>
</trkpt>
<trkpt lat="49.540756149217486" lon="9.17101283557713">
<ele>517.599</ele>
<time>2024-05-10T09:45:53Z</time>
</trkpt>
<trkpt lat="49.54077140428126" lon="9.170988025143744">
<ele>517.8</ele>
<time>2024-05-10T09:45:54Z</time>
</trkpt>
<trkpt lat="49.54078288748861" lon="9.170963214710357">
<ele>517.8</ele>
<time>2024-05-10T09:45:55Z</time>
</trkpt>
<trkpt lat="49.540798142552376" lon="9.17093656025827">
<ele>517.8</ele>
<time>2024-05-10T09:45:56Z</time>
</trkpt>
<trkpt lat="49.54080962575972" lon="9.170909821987152">
<ele>517.8</ele>
<time>2024-05-10T09:45:57Z</time>
</trkpt>
<trkpt lat="49.540821025148034" lon="9.170885011553764">
<ele>517.8</ele>
<time>2024-05-10T09:45:58Z</time>
</trkpt>
<trkpt lat="49.54083250835538" lon="9.17085835710168">
<ele>517.8</ele>
<time>2024-05-10T09:45:59Z</time>
</trkpt>
<trkpt lat="49.54084390774369" lon="9.17083639651537">
<ele>517.8</ele>
<time>2024-05-10T09:46:00Z</time>
</trkpt>
<trkpt lat="49.54085153527558" lon="9.170820219442248">
<ele>517.8</ele>
<time>2024-05-10T09:46:01Z</time>
</trkpt>
<trkpt lat="49.54086301848292" lon="9.170802114531398">
<ele>517.8</ele>
<time>2024-05-10T09:46:02Z</time>
</trkpt>
<trkpt lat="49.54087064601481" lon="9.170786775648594">
<ele>517.8</ele>
<time>2024-05-10T09:46:03Z</time>
</trkpt>
<trkpt lat="49.540878273546696" lon="9.170771520584822">
<ele>517.8</ele>
<time>2024-05-10T09:46:04Z</time>
</trkpt>
<trkpt lat="49.54088204540312" lon="9.1707553435117">
<ele>517.8</ele>
<time>2024-05-10T09:46:05Z</time>
</trkpt>
<trkpt lat="49.54088204540312" lon="9.17075819335878">
<ele>517.8</ele>
<time>2024-05-10T09:46:06Z</time>
</trkpt>
<trkpt lat="49.54088590107858" lon="9.170760121196508">
<ele>517.8</ele>
<time>2024-05-10T09:46:10Z</time>
</trkpt>
<trkpt lat="49.54088590107858" lon="9.170762971043589">
<ele>517.8</ele>
<time>2024-05-10T09:46:11Z</time>
</trkpt>
<trkpt lat="49.54088204540312" lon="9.170762049034238">
<ele>517.8</ele>
<time>2024-05-10T09:46:13Z</time>
</trkpt>
<trkpt lat="49.54088204540312" lon="9.170760121196508">
<ele>517.8</ele>
<time>2024-05-10T09:46:16Z</time>
</trkpt>
<trkpt lat="49.54088204540312" lon="9.170762049034238">
<ele>517.8</ele>
<time>2024-05-10T09:46:19Z</time>
</trkpt>
<trkpt lat="49.540878273546696" lon="9.170762049034238">
<ele>517.599</ele>
<time>2024-05-10T09:46:20Z</time>
</trkpt>
<trkpt lat="49.540878273546696" lon="9.170762971043589">
<ele>517.599</ele>
<time>2024-05-10T09:46:30Z</time>
</trkpt>
<trkpt lat="49.540878273546696" lon="9.170764898881316">
<ele>517.4</ele>
<time>2024-05-10T09:46:32Z</time>
</trkpt>
<trkpt lat="49.540878273546696" lon="9.170766826719046">
<ele>517.2</ele>
<time>2024-05-10T09:46:39Z</time>
</trkpt>
<trkpt lat="49.540878273546696" lon="9.170764898881316">
<ele>516.8</ele>
<time>2024-05-10T09:46:40Z</time>
</trkpt>
<trkpt lat="49.54088204540312" lon="9.170764898881316">
<ele>516.599</ele>
<time>2024-05-10T09:46:42Z</time>
</trkpt>
<trkpt lat="49.54088204540312" lon="9.170766826719046">
<ele>516.2</ele>
<time>2024-05-10T09:46:50Z</time>
</trkpt>
<trkpt lat="49.54088204540312" lon="9.170764898881316">
<ele>516</ele>
<time>2024-05-10T09:46:53Z</time>
</trkpt>
<trkpt lat="49.54088204540312" lon="9.170766826719046">
<ele>515.8</ele>
<time>2024-05-10T09:46:57Z</time>
</trkpt>
<trkpt lat="49.54088204540312" lon="9.170768670737743">
<ele>515.599</ele>
<time>2024-05-10T09:47:02Z</time>
</trkpt>
<trkpt lat="49.54088204540312" lon="9.170769676566124">
<ele>515.4</ele>
<time>2024-05-10T09:47:05Z</time>
</trkpt>
<trkpt lat="49.54088204540312" lon="9.170771520584822">
<ele>515.2</ele>
<time>2024-05-10T09:47:06Z</time>
</trkpt>
<trkpt lat="49.540878273546696" lon="9.170771520584822">
<ele>515.2</ele>
<time>2024-05-10T09:47:07Z</time>
</trkpt>
<trkpt lat="49.540878273546696" lon="9.170773448422551">
<ele>515</ele>
<time>2024-05-10T09:47:16Z</time>
</trkpt>
<trkpt lat="49.540878273546696" lon="9.17077537626028">
<ele>515</ele>
<time>2024-05-10T09:47:19Z</time>
</trkpt>
<trkpt lat="49.540878273546696" lon="9.17077629826963">
<ele>515</ele>
<time>2024-05-10T09:47:25Z</time>
</trkpt>
<trkpt lat="49.540878273546696" lon="9.17077537626028">
<ele>514.8</ele>
<time>2024-05-10T09:47:27Z</time>
</trkpt>
<trkpt lat="49.540878273546696" lon="9.170773448422551">
<ele>514.8</ele>
<time>2024-05-10T09:47:30Z</time>
</trkpt>
<trkpt lat="49.54087441787124" lon="9.170771520584822">
<ele>514.8</ele>
<time>2024-05-10T09:47:33Z</time>
</trkpt>
<trkpt lat="49.54087064601481" lon="9.170769676566124">
<ele>514.8</ele>
<time>2024-05-10T09:47:42Z</time>
</trkpt>
<trkpt lat="49.54087064601481" lon="9.170771520584822">
<ele>514.8</ele>
<time>2024-05-10T09:47:49Z</time>
</trkpt>
<trkpt lat="49.54087441787124" lon="9.170771520584822">
<ele>514.8</ele>
<time>2024-05-10T09:47:51Z</time>
</trkpt>
<trkpt lat="49.54087064601481" lon="9.170773448422551">
<ele>514.8</ele>
<time>2024-05-10T09:47:52Z</time>
</trkpt>
<trkpt lat="49.54087064601481" lon="9.170771520584822">
<ele>514.8</ele>
<time>2024-05-10T09:47:54Z</time>
</trkpt>
<trkpt lat="49.54087064601481" lon="9.170769676566124">
<ele>514.599</ele>
<time>2024-05-10T09:47:55Z</time>
</trkpt>
<trkpt lat="49.54087064601481" lon="9.170768670737743">
<ele>514.599</ele>
<time>2024-05-10T09:47:56Z</time>
</trkpt>
<trkpt lat="49.54087441787124" lon="9.170768670737743">
<ele>514.599</ele>
<time>2024-05-10T09:47:58Z</time>
</trkpt>
<trkpt lat="49.54087064601481" lon="9.170768670737743">
<ele>514.599</ele>
<time>2024-05-10T09:48:02Z</time>
</trkpt>
<trkpt lat="49.54087441787124" lon="9.170768670737743">
<ele>514.8</ele>
<time>2024-05-10T09:48:04Z</time>
</trkpt>
<trkpt lat="49.54087441787124" lon="9.170769676566124">
<ele>514.8</ele>
<time>2024-05-10T09:48:05Z</time>
</trkpt>
<trkpt lat="49.54087441787124" lon="9.170768670737743">
<ele>515</ele>
<time>2024-05-10T09:48:13Z</time>
</trkpt>
<trkpt lat="49.540878273546696" lon="9.170768670737743">
<ele>515.2</ele>
<time>2024-05-10T09:48:14Z</time>
</trkpt>
<trkpt lat="49.54087441787124" lon="9.170766826719046">
<ele>515.4</ele>
<time>2024-05-10T09:48:15Z</time>
</trkpt>
<trkpt lat="49.540878273546696" lon="9.170766826719046">
<ele>515.4</ele>
<time>2024-05-10T09:48:16Z</time>
</trkpt>
<trkpt lat="49.540878273546696" lon="9.170764898881316">
<ele>515.599</ele>
<time>2024-05-10T09:48:17Z</time>
</trkpt>
<trkpt lat="49.540878273546696" lon="9.170762971043589">
<ele>515.8</ele>
<time>2024-05-10T09:48:19Z</time>
</trkpt>
<trkpt lat="49.540878273546696" lon="9.170762049034238">
<ele>515.8</ele>
<time>2024-05-10T09:48:24Z</time>
</trkpt>
<trkpt lat="49.540878273546696" lon="9.170760121196508">
<ele>516</ele>
<time>2024-05-10T09:48:27Z</time>
</trkpt>
<trkpt lat="49.540878273546696" lon="9.17075819335878">
<ele>516</ele>
<time>2024-05-10T09:48:37Z</time>
</trkpt>
<trkpt lat="49.540878273546696" lon="9.17075626552105">
<ele>516.2</ele>
<time>2024-05-10T09:48:41Z</time>
</trkpt>
<trkpt lat="49.540878273546696" lon="9.1707553435117">
<ele>516.2</ele>
<time>2024-05-10T09:49:00Z</time>
</trkpt>
<trkpt lat="49.540878273546696" lon="9.17075626552105">
<ele>516.2</ele>
<time>2024-05-10T09:49:02Z</time>
</trkpt>
<trkpt lat="49.540878273546696" lon="9.17075819335878">
<ele>516.2</ele>
<time>2024-05-10T09:49:08Z</time>
</trkpt>
<trkpt lat="49.540878273546696" lon="9.170760121196508">
<ele>516.2</ele>
<time>2024-05-10T09:49:12Z</time>
</trkpt>
<trkpt lat="49.540878273546696" lon="9.17075819335878">
<ele>516.2</ele>
<time>2024-05-10T09:49:14Z</time>
</trkpt>
<trkpt lat="49.540878273546696" lon="9.170760121196508">
<ele>516</ele>
<time>2024-05-10T09:49:15Z</time>
</trkpt>
<trkpt lat="49.540878273546696" lon="9.170762049034238">
<ele>516</ele>
<time>2024-05-10T09:49:18Z</time>
</trkpt>
<trkpt lat="49.540878273546696" lon="9.170762971043589">
<ele>516</ele>
<time>2024-05-10T09:49:21Z</time>
</trkpt>
<trkpt lat="49.540878273546696" lon="9.170764898881316">
<ele>516</ele>
<time>2024-05-10T09:49:25Z</time>
</trkpt>
<trkpt lat="49.54087441787124" lon="9.170762971043589">
<ele>516</ele>
<time>2024-05-10T09:49:27Z</time>
</trkpt>
<trkpt lat="49.54087441787124" lon="9.170762049034238">
<ele>516</ele>
<time>2024-05-10T09:49:28Z</time>
</trkpt>
<trkpt lat="49.54087441787124" lon="9.170760121196508">
<ele>516</ele>
<time>2024-05-10T09:49:29Z</time>
</trkpt>
<trkpt lat="49.54087064601481" lon="9.170760121196508">
<ele>516</ele>
<time>2024-05-10T09:49:30Z</time>
</trkpt>
<trkpt lat="49.54087441787124" lon="9.170760121196508">
<ele>516</ele>
<time>2024-05-10T09:49:31Z</time>
</trkpt>
<trkpt lat="49.54087441787124" lon="9.170762049034238">
<ele>516</ele>
<time>2024-05-10T09:49:32Z</time>
</trkpt>
<trkpt lat="49.54087441787124" lon="9.170762971043589">
<ele>516</ele>
<time>2024-05-10T09:49:35Z</time>
</trkpt>
<trkpt lat="49.540878273546696" lon="9.170762971043589">
<ele>516</ele>
<time>2024-05-10T09:49:39Z</time>
</trkpt>
<trkpt lat="49.540878273546696" lon="9.170764898881316">
<ele>516</ele>
<time>2024-05-10T09:49:40Z</time>
</trkpt>
<trkpt lat="49.540878273546696" lon="9.170762971043589">
<ele>516.2</ele>
<time>2024-05-10T09:49:51Z</time>
</trkpt>
<trkpt lat="49.540878273546696" lon="9.170762049034238">
<ele>516.2</ele>
<time>2024-05-10T09:49:55Z</time>
</trkpt>
<trkpt lat="49.540878273546696" lon="9.170760121196508">
<ele>516.2</ele>
<time>2024-05-10T09:50:01Z</time>
</trkpt>
<trkpt lat="49.540878273546696" lon="9.17075819335878">
<ele>516.4</ele>
<time>2024-05-10T09:50:10Z</time>
</trkpt>
<trkpt lat="49.54088204540312" lon="9.17075626552105">
<ele>516.4</ele>
<time>2024-05-10T09:50:13Z</time>
</trkpt>
<trkpt lat="49.54088204540312" lon="9.17075819335878">
<ele>516.599</ele>
<time>2024-05-10T09:50:30Z</time>
</trkpt>
<trkpt lat="49.54088204540312" lon="9.170760121196508">
<ele>516.599</ele>
<time>2024-05-10T09:50:42Z</time>
</trkpt>
<trkpt lat="49.54088204540312" lon="9.17075819335878">
<ele>516.599</ele>
<time>2024-05-10T09:50:45Z</time>
</trkpt>
<trkpt lat="49.54088204540312" lon="9.17075626552105">
<ele>516.599</ele>
<time>2024-05-10T09:50:59Z</time>
</trkpt>
<trkpt lat="49.54088204540312" lon="9.1707553435117">
<ele>516.599</ele>
<time>2024-05-10T09:51:02Z</time>
</trkpt>
<trkpt lat="49.540878273546696" lon="9.1707553435117">
<ele>516.599</ele>
<time>2024-05-10T09:51:04Z</time>
</trkpt>
<trkpt lat="49.540878273546696" lon="9.170753415673971">
<ele>516.8</ele>
<time>2024-05-10T09:51:05Z</time>
</trkpt>
<trkpt lat="49.540878273546696" lon="9.170751571655272">
<ele>516.8</ele>
<time>2024-05-10T09:51:23Z</time>
</trkpt>
<trkpt lat="49.540878273546696" lon="9.170749643817544">
<ele>516.8</ele>
<time>2024-05-10T09:51:26Z</time>
</trkpt>
<trkpt lat="49.540878273546696" lon="9.170748637989163">
<ele>516.8</ele>
<time>2024-05-10T09:51:31Z</time>
</trkpt>
<trkpt lat="49.540878273546696" lon="9.170749643817544">
<ele>516.8</ele>
<time>2024-05-10T09:51:43Z</time>
</trkpt>
<trkpt lat="49.54088204540312" lon="9.170749643817544">
<ele>516.8</ele>
<time>2024-05-10T09:51:44Z</time>
</trkpt>
<trkpt lat="49.54088204540312" lon="9.170751571655272">
<ele>516.8</ele>
<time>2024-05-10T09:51:51Z</time>
</trkpt>
<trkpt lat="49.540878273546696" lon="9.170751571655272">
<ele>516.8</ele>
<time>2024-05-10T09:51:55Z</time>
</trkpt>
<trkpt lat="49.540878273546696" lon="9.170749643817544">
<ele>516.8</ele>
<time>2024-05-10T09:51:57Z</time>
</trkpt>
<trkpt lat="49.54088204540312" lon="9.170749643817544">
<ele>516.8</ele>
<time>2024-05-10T09:51:58Z</time>
</trkpt>
<trkpt lat="49.54088204540312" lon="9.170751571655272">
<ele>516.8</ele>
<time>2024-05-10T09:52:00Z</time>
</trkpt>
<trkpt lat="49.540878273546696" lon="9.170751571655272">
<ele>516.8</ele>
<time>2024-05-10T09:52:02Z</time>
</trkpt>
<trkpt lat="49.540878273546696" lon="9.170753415673971">
<ele>516.8</ele>
<time>2024-05-10T09:52:06Z</time>
</trkpt>
<trkpt lat="49.540878273546696" lon="9.1707553435117">
<ele>516.8</ele>
<time>2024-05-10T09:52:10Z</time>
</trkpt>
<trkpt lat="49.540878273546696" lon="9.170753415673971">
<ele>516.8</ele>
<time>2024-05-10T09:52:18Z</time>
</trkpt>
<trkpt lat="49.540878273546696" lon="9.170751571655272">
<ele>516.8</ele>
<time>2024-05-10T09:52:20Z</time>
</trkpt>
<trkpt lat="49.540878273546696" lon="9.170749643817544">
<ele>516.8</ele>
<time>2024-05-10T09:52:24Z</time>
</trkpt>
<trkpt lat="49.540878273546696" lon="9.170751571655272">
<ele>516.8</ele>
<time>2024-05-10T09:52:26Z</time>
</trkpt>
<trkpt lat="49.540878273546696" lon="9.170753415673971">
<ele>516.8</ele>
<time>2024-05-10T09:52:30Z</time>
</trkpt>
<trkpt lat="49.540878273546696" lon="9.170751571655272">
<ele>516.8</ele>
<time>2024-05-10T09:52:34Z</time>
</trkpt>
<trkpt lat="49.540878273546696" lon="9.170753415673971">
<ele>516.8</ele>
<time>2024-05-10T09:52:39Z</time>
</trkpt>
<trkpt lat="49.540878273546696" lon="9.1707553435117">
<ele>516.8</ele>
<time>2024-05-10T09:52:43Z</time>
</trkpt>
<trkpt lat="49.540878273546696" lon="9.170753415673971">
<ele>516.8</ele>
<time>2024-05-10T09:52:48Z</time>
</trkpt>
<trkpt lat="49.54087441787124" lon="9.170753415673971">
<ele>516.8</ele>
<time>2024-05-10T09:52:49Z</time>
</trkpt>
<trkpt lat="49.54087441787124" lon="9.170751571655272">
<ele>516.599</ele>
<time>2024-05-10T09:52:51Z</time>
</trkpt>
<trkpt lat="49.54087441787124" lon="9.170753415673971">
<ele>516.599</ele>
<time>2024-05-10T09:52:53Z</time>
</trkpt>
<trkpt lat="49.54087441787124" lon="9.1707553435117">
<ele>516.599</ele>
<time>2024-05-10T09:52:58Z</time>
</trkpt>
<trkpt lat="49.54087441787124" lon="9.170753415673971">
<ele>516.599</ele>
<time>2024-05-10T09:53:00Z</time>
</trkpt>
<trkpt lat="49.54087441787124" lon="9.170751571655272">
<ele>516.599</ele>
<time>2024-05-10T09:53:06Z</time>
</trkpt>
<trkpt lat="49.54087064601481" lon="9.170751571655272">
<ele>516.599</ele>
<time>2024-05-10T09:53:08Z</time>
</trkpt>
<trkpt lat="49.54087064601481" lon="9.170749643817544">
<ele>516.599</ele>
<time>2024-05-10T09:53:16Z</time>
</trkpt>
<trkpt lat="49.54087064601481" lon="9.170748637989163">
<ele>516.599</ele>
<time>2024-05-10T09:53:19Z</time>
</trkpt>
<trkpt lat="49.54087064601481" lon="9.170749643817544">
<ele>516.599</ele>
<time>2024-05-10T09:53:23Z</time>
</trkpt>
<trkpt lat="49.54087064601481" lon="9.170751571655272">
<ele>516.599</ele>
<time>2024-05-10T09:53:27Z</time>
</trkpt>
<trkpt lat="49.54086679033935" lon="9.170749643817544">
<ele>516.599</ele>
<time>2024-05-10T09:53:37Z</time>
</trkpt>
<trkpt lat="49.54086679033935" lon="9.170748637989163">
<ele>516.599</ele>
<time>2024-05-10T09:53:48Z</time>
</trkpt>
<trkpt lat="49.54087064601481" lon="9.170748637989163">
<ele>516.599</ele>
<time>2024-05-10T09:53:50Z</time>
</trkpt>
<trkpt lat="49.54087064601481" lon="9.170749643817544">
<ele>516.599</ele>
<time>2024-05-10T09:53:56Z</time>
</trkpt>
<trkpt lat="49.54087441787124" lon="9.170749643817544">
<ele>516.599</ele>
<time>2024-05-10T09:54:02Z</time>
</trkpt>
<trkpt lat="49.54087441787124" lon="9.170751571655272">
<ele>516.599</ele>
<time>2024-05-10T09:54:04Z</time>
</trkpt>
<trkpt lat="49.54087441787124" lon="9.170753415673971">
<ele>516.599</ele>
<time>2024-05-10T09:54:10Z</time>
</trkpt>
<trkpt lat="49.540878273546696" lon="9.170753415673971">
<ele>516.599</ele>
<time>2024-05-10T09:54:19Z</time>
</trkpt>
<trkpt lat="49.540878273546696" lon="9.1707553435117">
<ele>516.599</ele>
<time>2024-05-10T09:54:21Z</time>
</trkpt>
<trkpt lat="49.540878273546696" lon="9.170753415673971">
<ele>516.599</ele>
<time>2024-05-10T09:54:22Z</time>
</trkpt>
<trkpt lat="49.54087441787124" lon="9.170753415673971">
<ele>516.599</ele>
<time>2024-05-10T09:54:24Z</time>
</trkpt>
<trkpt lat="49.54087441787124" lon="9.170751571655272">
<ele>516.599</ele>
<time>2024-05-10T09:54:28Z</time>
</trkpt>
<trkpt lat="49.54087441787124" lon="9.170753415673971">
<ele>516.599</ele>
<time>2024-05-10T09:54:39Z</time>
</trkpt>
<trkpt lat="49.54087441787124" lon="9.1707553435117">
<ele>516.599</ele>
<time>2024-05-10T09:54:43Z</time>
</trkpt>
<trkpt lat="49.540878273546696" lon="9.1707553435117">
<ele>516.599</ele>
<time>2024-05-10T09:54:45Z</time>
</trkpt>
<trkpt lat="49.540878273546696" lon="9.170753415673971">
<ele>516.599</ele>
<time>2024-05-10T09:54:56Z</time>
</trkpt>
<trkpt lat="49.54087441787124" lon="9.170751571655272">
<ele>516.599</ele>
<time>2024-05-10T09:55:01Z</time>
</trkpt>
<trkpt lat="49.540878273546696" lon="9.170753415673971">
<ele>516.599</ele>
<time>2024-05-10T09:55:06Z</time>
</trkpt>
<trkpt lat="49.540878273546696" lon="9.170751571655272">
<ele>516.599</ele>
<time>2024-05-10T09:55:11Z</time>
</trkpt>
<trkpt lat="49.540878273546696" lon="9.170753415673971">
<ele>516.599</ele>
<time>2024-05-10T09:55:13Z</time>
</trkpt>
<trkpt lat="49.54088204540312" lon="9.170753415673971">
<ele>516.599</ele>
<time>2024-05-10T09:55:15Z</time>
</trkpt>
<trkpt lat="49.54088204540312" lon="9.1707553435117">
<ele>516.599</ele>
<time>2024-05-10T09:55:17Z</time>
</trkpt>
<trkpt lat="49.54088204540312" lon="9.17075626552105">
<ele>516.599</ele>
<time>2024-05-10T09:55:18Z</time>
</trkpt>
<trkpt lat="49.54088204540312" lon="9.17075819335878">
<ele>516.599</ele>
<time>2024-05-10T09:55:20Z</time>
</trkpt>
<trkpt lat="49.54088204540312" lon="9.170760121196508">
<ele>516.599</ele>
<time>2024-05-10T09:55:21Z</time>
</trkpt>
<trkpt lat="49.54088590107858" lon="9.170762049034238">
<ele>516.599</ele>
<time>2024-05-10T09:55:22Z</time>
</trkpt>
<trkpt lat="49.54088204540312" lon="9.170760121196508">
<ele>516.599</ele>
<time>2024-05-10T09:55:23Z</time>
</trkpt>
<trkpt lat="49.54088204540312" lon="9.17075819335878">
<ele>516.599</ele>
<time>2024-05-10T09:55:25Z</time>
</trkpt>
<trkpt lat="49.54088590107858" lon="9.17075819335878">
<ele>516.599</ele>
<time>2024-05-10T09:55:27Z</time>
</trkpt>
<trkpt lat="49.54088590107858" lon="9.170760121196508">
<ele>516.599</ele>
<time>2024-05-10T09:55:28Z</time>
</trkpt>
<trkpt lat="49.54088590107858" lon="9.170762049034238">
<ele>516.599</ele>
<time>2024-05-10T09:55:30Z</time>
</trkpt>
<trkpt lat="49.54088967293501" lon="9.170760121196508">
<ele>516.599</ele>
<time>2024-05-10T09:55:34Z</time>
</trkpt>
<trkpt lat="49.54089352861047" lon="9.1707553435117">
<ele>516.599</ele>
<time>2024-05-10T09:55:35Z</time>
</trkpt>
<trkpt lat="49.540897300466895" lon="9.170744866132736">
<ele>516.599</ele>
<time>2024-05-10T09:55:36Z</time>
</trkpt>
<trkpt lat="49.54090492799878" lon="9.17073531076312">
<ele>516.599</ele>
<time>2024-05-10T09:55:37Z</time>
</trkpt>
<trkpt lat="49.54092018306255" lon="9.170709578320384">
<ele>516.599</ele>
<time>2024-05-10T09:55:38Z</time>
</trkpt>
<trkpt lat="49.540935438126326" lon="9.170684767886996">
<ele>516.599</ele>
<time>2024-05-10T09:55:39Z</time>
</trkpt>
<trkpt lat="49.5409506931901" lon="9.170648558065295">
<ele>516.599</ele>
<time>2024-05-10T09:55:40Z</time>
</trkpt>
<trkpt lat="49.54096980392933" lon="9.170621819794178">
<ele>516.599</ele>
<time>2024-05-10T09:55:41Z</time>
</trkpt>
<trkpt lat="49.5409850589931" lon="9.170590387657285">
<ele>516.599</ele>
<time>2024-05-10T09:55:42Z</time>
</trkpt>
<trkpt lat="49.54100031405687" lon="9.170561721548438">
<ele>516.599</ele>
<time>2024-05-10T09:55:43Z</time>
</trkpt>
<trkpt lat="49.541019424796104" lon="9.170526433736086">
<ele>516.599</ele>
<time>2024-05-10T09:55:44Z</time>
</trkpt>
<trkpt lat="49.54103467985988" lon="9.170493073761463">
<ele>516.599</ele>
<time>2024-05-10T09:55:45Z</time>
</trkpt>
<trkpt lat="49.54105370678008" lon="9.170456863939762">
<ele>516.599</ele>
<time>2024-05-10T09:55:46Z</time>
</trkpt>
<trkpt lat="49.54107281751931" lon="9.17041964828968">
<ele>516.599</ele>
<time>2024-05-10T09:55:47Z</time>
</trkpt>
<trkpt lat="49.54109184443951" lon="9.170385282486675">
<ele>516.599</ele>
<time>2024-05-10T09:55:48Z</time>
</trkpt>
<trkpt lat="49.54111095517874" lon="9.170348150655627">
<ele>516.599</ele>
<time>2024-05-10T09:55:49Z</time>
</trkpt>
<trkpt lat="49.54113006591797" lon="9.170311857014894">
<ele>516.599</ele>
<time>2024-05-10T09:55:50Z</time>
</trkpt>
<trkpt lat="49.54115294851363" lon="9.170273719355464">
<ele>516.599</ele>
<time>2024-05-10T09:55:51Z</time>
</trkpt>
<trkpt lat="49.5411682035774" lon="9.170234659686685">
<ele>516.599</ele>
<time>2024-05-10T09:55:52Z</time>
</trkpt>
<trkpt lat="49.54119108617306" lon="9.170194594189525">
<ele>516.599</ele>
<time>2024-05-10T09:55:53Z</time>
</trkpt>
<trkpt lat="49.54121011309326" lon="9.170151678845286">
<ele>516.599</ele>
<time>2024-05-10T09:55:54Z</time>
</trkpt>
<trkpt lat="49.54122536815703" lon="9.170108763501048">
<ele>516.599</ele>
<time>2024-05-10T09:55:55Z</time>
</trkpt>
<trkpt lat="49.54124825075269" lon="9.17006492614746">
<ele>516.599</ele>
<time>2024-05-10T09:55:56Z</time>
</trkpt>
<trkpt lat="49.541271133348346" lon="9.170022932812572">
<ele>516.599</ele>
<time>2024-05-10T09:55:57Z</time>
</trkpt>
<trkpt lat="49.541294015944" lon="9.169980017468331">
<ele>516.599</ele>
<time>2024-05-10T09:55:58Z</time>
</trkpt>
<trkpt lat="49.54133600927889" lon="9.169897036626937">
<ele>516.599</ele>
<time>2024-05-10T09:56:00Z</time>
</trkpt>
<trkpt lat="49.541355120018125" lon="9.169853199273348">
<ele>516.8</ele>
<time>2024-05-10T09:56:01Z</time>
</trkpt>
<trkpt lat="49.5413703750819" lon="9.16980835609138">
<ele>516.8</ele>
<time>2024-05-10T09:56:02Z</time>
</trkpt>
<trkpt lat="49.541389402002096" lon="9.169765440747142">
<ele>517</ele>
<time>2024-05-10T09:56:03Z</time>
</trkpt>
<trkpt lat="49.54140851274133" lon="9.169719675555823">
<ele>517.2</ele>
<time>2024-05-10T09:56:04Z</time>
</trkpt>
<trkpt lat="49.54142753966153" lon="9.169676760211589">
<ele>517.4</ele>
<time>2024-05-10T09:56:05Z</time>
</trkpt>
<trkpt lat="49.54144665040076" lon="9.16963191702962">
<ele>517.599</ele>
<time>2024-05-10T09:56:06Z</time>
</trkpt>
<trkpt lat="49.54146567732096" lon="9.169587073847651">
<ele>517.8</ele>
<time>2024-05-10T09:56:07Z</time>
</trkpt>
<trkpt lat="49.54148478806019" lon="9.169541308656337">
<ele>518</ele>
<time>2024-05-10T09:56:08Z</time>
</trkpt>
<trkpt lat="49.54150389879942" lon="9.169496465474367">
<ele>518.2</ele>
<time>2024-05-10T09:56:09Z</time>
</trkpt>
<trkpt lat="49.54152678139508" lon="9.169451706111431">
<ele>518.2</ele>
<time>2024-05-10T09:56:10Z</time>
</trkpt>
<trkpt lat="49.54154203645885" lon="9.169404935091734">
<ele>518.4</ele>
<time>2024-05-10T09:56:11Z</time>
</trkpt>
<trkpt lat="49.54156106337905" lon="9.16935632005334">
<ele>518.599</ele>
<time>2024-05-10T09:56:12Z</time>
</trkpt>
<trkpt lat="49.54158017411828" lon="9.169308627024291">
<ele>518.599</ele>
<time>2024-05-10T09:56:13Z</time>
</trkpt>
<trkpt lat="49.54160305671394" lon="9.169260011985898">
<ele>518.8</ele>
<time>2024-05-10T09:56:14Z</time>
</trkpt>
<trkpt lat="49.54162208363414" lon="9.169211313128471">
<ele>519</ele>
<time>2024-05-10T09:56:15Z</time>
</trkpt>
<trkpt lat="49.54164119437337" lon="9.169166553765535">
<ele>519</ele>
<time>2024-05-10T09:56:16Z</time>
</trkpt>
<trkpt lat="49.54166407696903" lon="9.169117854908109">
<ele>519.2</ele>
<time>2024-05-10T09:56:17Z</time>
</trkpt>
<trkpt lat="49.54168318770826" lon="9.169068317860363">
<ele>519.2</ele>
<time>2024-05-10T09:56:18Z</time>
</trkpt>
<trkpt lat="49.54170221462846" lon="9.16901869699359">
<ele>519.4</ele>
<time>2024-05-10T09:56:19Z</time>
</trkpt>
<trkpt lat="49.54172132536769" lon="9.168968154117463">
<ele>519.599</ele>
<time>2024-05-10T09:56:20Z</time>
</trkpt>
<trkpt lat="49.54174035228789" lon="9.168916689231992">
<ele>519.599</ele>
<time>2024-05-10T09:56:21Z</time>
</trkpt>
<trkpt lat="49.54176323488355" lon="9.168863296508787">
<ele>519.8</ele>
<time>2024-05-10T09:56:22Z</time>
</trkpt>
<trkpt lat="49.54178234562278" lon="9.168809819966556">
<ele>520</ele>
<time>2024-05-10T09:56:23Z</time>
</trkpt>
<trkpt lat="49.54182433895767" lon="9.16870496235788">
<ele>520.2</ele>
<time>2024-05-10T09:56:25Z</time>
</trkpt>
<trkpt lat="49.54184336587787" lon="9.168649641796948">
<ele>520.2</ele>
<time>2024-05-10T09:56:26Z</time>
</trkpt>
<trkpt lat="49.5418624766171" lon="9.168596249073744">
<ele>520.4</ele>
<time>2024-05-10T09:56:27Z</time>
</trkpt>
<trkpt lat="49.54188535921275" lon="9.16854285635054">
<ele>520.599</ele>
<time>2024-05-10T09:56:28Z</time>
</trkpt>
<trkpt lat="49.541908241808414" lon="9.168488457798958">
<ele>520.8</ele>
<time>2024-05-10T09:56:29Z</time>
</trkpt>
<trkpt lat="49.541927268728614" lon="9.168436992913485">
<ele>520.8</ele>
<time>2024-05-10T09:56:30Z</time>
</trkpt>
<trkpt lat="49.541946379467845" lon="9.168388294056058">
<ele>521</ele>
<time>2024-05-10T09:56:31Z</time>
</trkpt>
<trkpt lat="49.54196540638805" lon="9.168338757008314">
<ele>521</ele>
<time>2024-05-10T09:56:32Z</time>
</trkpt>
<trkpt lat="49.541984517127275" lon="9.16828821413219">
<ele>521.2</ele>
<time>2024-05-10T09:56:33Z</time>
</trkpt>
<trkpt lat="49.54203413799405" lon="9.16818612255156">
<ele>521.4</ele>
<time>2024-05-10T09:56:35Z</time>
</trkpt>
<trkpt lat="49.54205702058971" lon="9.168133735656738">
<ele>521.4</ele>
<time>2024-05-10T09:56:36Z</time>
</trkpt>
<trkpt lat="49.54207604750991" lon="9.168078415095806">
<ele>521.599</ele>
<time>2024-05-10T09:56:37Z</time>
</trkpt>
<trkpt lat="49.542087530717254" lon="9.168018316850066">
<ele>521.8</ele>
<time>2024-05-10T09:56:38Z</time>
</trkpt>
<trkpt lat="49.54211418516934" lon="9.16789334267378">
<ele>521.8</ele>
<time>2024-05-10T09:56:40Z</time>
</trkpt>
<trkpt lat="49.54212566837669" lon="9.16783039458096">
<ele>522</ele>
<time>2024-05-10T09:56:41Z</time>
</trkpt>
<trkpt lat="49.542137067765" lon="9.167768452316524">
<ele>522.2</ele>
<time>2024-05-10T09:56:42Z</time>
</trkpt>
<trkpt lat="49.54215232282877" lon="9.167710281908512">
<ele>522.4</ele>
<time>2024-05-10T09:56:43Z</time>
</trkpt>
<trkpt lat="49.542171433568" lon="9.167612046003342">
<ele>522.4</ele>
<time>2024-05-10T09:56:45Z</time>
</trkpt>
<trkpt lat="49.54218668863177" lon="9.167551947757602">
<ele>522.599</ele>
<time>2024-05-10T09:56:46Z</time>
</trkpt>
<trkpt lat="49.54220579937101" lon="9.167483299970629">
<ele>522.8</ele>
<time>2024-05-10T09:56:47Z</time>
</trkpt>
<trkpt lat="49.54221719875932" lon="9.16741842404008">
<ele>522.8</ele>
<time>2024-05-10T09:56:48Z</time>
</trkpt>
<trkpt lat="49.54224770888686" lon="9.167289678007364">
<ele>523</ele>
<time>2024-05-10T09:56:50Z</time>
</trkpt>
<trkpt lat="49.542262963950634" lon="9.167224802076817">
<ele>523.2</ele>
<time>2024-05-10T09:56:51Z</time>
</trkpt>
<trkpt lat="49.542278219014406" lon="9.16716285981238">
<ele>523.4</ele>
<time>2024-05-10T09:56:52Z</time>
</trkpt>
<trkpt lat="49.54229347407818" lon="9.16710183955729">
<ele>523.599</ele>
<time>2024-05-10T09:56:53Z</time>
</trkpt>
<trkpt lat="49.54231258481741" lon="9.16703981347382">
<ele>523.599</ele>
<time>2024-05-10T09:56:54Z</time>
</trkpt>
<trkpt lat="49.54233932308853" lon="9.166984492912889">
<ele>523.8</ele>
<time>2024-05-10T09:56:55Z</time>
</trkpt>
<trkpt lat="49.542362205684185" lon="9.166930178180335">
<ele>524</ele>
<time>2024-05-10T09:56:56Z</time>
</trkpt>
<trkpt lat="49.54238508827984" lon="9.166872929781675">
<ele>524</ele>
<time>2024-05-10T09:56:57Z</time>
</trkpt>
<trkpt lat="49.542400343343616" lon="9.166814759373665">
<ele>524.2</ele>
<time>2024-05-10T09:56:58Z</time>
</trkpt>
<trkpt lat="49.542438481003046" lon="9.166700346395372">
<ele>524.2</ele>
<time>2024-05-10T09:57:00Z</time>
</trkpt>
<trkpt lat="49.542461363598704" lon="9.166633542627096">
<ele>524.4</ele>
<time>2024-05-10T09:57:01Z</time>
</trkpt>
<trkpt lat="49.542480390518904" lon="9.16656875051558">
<ele>524.6</ele>
<time>2024-05-10T09:57:02Z</time>
</trkpt>
<trkpt lat="49.54249564558267" lon="9.16650865226984">
<ele>524.8</ele>
<time>2024-05-10T09:57:03Z</time>
</trkpt>
<trkpt lat="49.54251475632191" lon="9.166453331708908">
<ele>525</ele>
<time>2024-05-10T09:57:05Z</time>
</trkpt>
<trkpt lat="49.542537638917565" lon="9.166337912902236">
<ele>525</ele>
<time>2024-05-10T09:57:06Z</time>
</trkpt>
<trkpt lat="49.54255289398134" lon="9.166274964809418">
<ele>525.2</ele>
<time>2024-05-10T09:57:07Z</time>
</trkpt>
<trkpt lat="49.54256437718868" lon="9.166214866563678">
<ele>525.2</ele>
<time>2024-05-10T09:57:08Z</time>
</trkpt>
<trkpt lat="49.54261014238" lon="9.16609475389123">
<ele>525.4</ele>
<time>2024-05-10T09:57:10Z</time>
</trkpt>
<trkpt lat="49.5426291693002" lon="9.166031805798411">
<ele>525.4</ele>
<time>2024-05-10T09:57:11Z</time>
</trkpt>
<trkpt lat="49.54265205189586" lon="9.165965002030134">
<ele>525.4</ele>
<time>2024-05-10T09:57:12Z</time>
</trkpt>
<trkpt lat="49.54268641769886" lon="9.16589543223381">
<ele>525.4</ele>
<time>2024-05-10T09:57:13Z</time>
</trkpt>
<trkpt lat="49.54274743795395" lon="9.165759980678558">
<ele>525.6</ele>
<time>2024-05-10T09:57:15Z</time>
</trkpt>
<trkpt lat="49.54276654869318" lon="9.165679849684238">
<ele>525.6</ele>
<time>2024-05-10T09:57:16Z</time>
</trkpt>
<trkpt lat="49.54278180375695" lon="9.165596952661872">
<ele>525.6</ele>
<time>2024-05-10T09:57:17Z</time>
</trkpt>
<trkpt lat="49.542793203145266" lon="9.165510116145017">
<ele>525.6</ele>
<time>2024-05-10T09:57:18Z</time>
</trkpt>
<trkpt lat="49.54281608574093" lon="9.165438618510962">
<ele>525.4</ele>
<time>2024-05-10T09:57:19Z</time>
</trkpt>
<trkpt lat="49.542831340804696" lon="9.165356559678912">
<ele>525.4</ele>
<time>2024-05-10T09:57:20Z</time>
</trkpt>
<trkpt lat="49.54285045154393" lon="9.165273662656546">
<ele>525.2</ele>
<time>2024-05-10T09:57:21Z</time>
</trkpt>
<trkpt lat="49.542873334139585" lon="9.165186826139688">
<ele>525.2</ele>
<time>2024-05-10T09:57:22Z</time>
</trkpt>
<trkpt lat="49.54288481734693" lon="9.16510485112667">
<ele>525</ele>
<time>2024-05-10T09:57:23Z</time>
</trkpt>
<trkpt lat="49.54289621673525" lon="9.165017092600465">
<ele>524.8</ele>
<time>2024-05-10T09:57:24Z</time>
</trkpt>
<trkpt lat="49.54290769994259" lon="9.16492648422718">
<ele>524.6</ele>
<time>2024-05-10T09:57:25Z</time>
</trkpt>
<trkpt lat="49.5429190993309" lon="9.164832103997467">
<ele>524.4</ele>
<time>2024-05-10T09:57:26Z</time>
</trkpt>
<trkpt lat="49.54292672686279" lon="9.164732862263918">
<ele>524.2</ele>
<time>2024-05-10T09:57:27Z</time>
</trkpt>
<trkpt lat="49.54293821007013" lon="9.164636554196475">
<ele>524.2</ele>
<time>2024-05-10T09:57:28Z</time>
</trkpt>
<trkpt lat="49.54294198192656" lon="9.164540246129036">
<ele>524</ele>
<time>2024-05-10T09:57:29Z</time>
</trkpt>
<trkpt lat="49.54294583760202" lon="9.164436310529709">
<ele>523.8</ele>
<time>2024-05-10T09:57:30Z</time>
</trkpt>
<trkpt lat="49.542953465133905" lon="9.16433522477746">
<ele>523.8</ele>
<time>2024-05-10T09:57:31Z</time>
</trkpt>
<trkpt lat="49.542953465133905" lon="9.164228439331056">
<ele>523.599</ele>
<time>2024-05-10T09:57:32Z</time>
</trkpt>
<trkpt lat="49.542953465133905" lon="9.16411872021854">
<ele>523.4</ele>
<time>2024-05-10T09:57:33Z</time>
</trkpt>
<trkpt lat="49.54295723699033" lon="9.164006151258944">
<ele>523.2</ele>
<time>2024-05-10T09:57:34Z</time>
</trkpt>
<trkpt lat="49.54296109266579" lon="9.163891738280654">
<ele>523</ele>
<time>2024-05-10T09:57:35Z</time>
</trkpt>
<trkpt lat="49.54296486452222" lon="9.163775397464631">
<ele>522.599</ele>
<time>2024-05-10T09:57:36Z</time>
</trkpt>
<trkpt lat="49.54296872019768" lon="9.163658134639263">
<ele>522.4</ele>
<time>2024-05-10T09:57:37Z</time>
</trkpt>
<trkpt lat="49.542972492054105" lon="9.163539865985513">
<ele>522.2</ele>
<time>2024-05-10T09:57:38Z</time>
</trkpt>
<trkpt lat="49.54297634772957" lon="9.163419669494033">
<ele>522.2</ele>
<time>2024-05-10T09:57:39Z</time>
</trkpt>
<trkpt lat="49.54298011958599" lon="9.163292851299047">
<ele>522</ele>
<time>2024-05-10T09:57:40Z</time>
</trkpt>
<trkpt lat="49.54298011958599" lon="9.16316502727568">
<ele>521.8</ele>
<time>2024-05-10T09:57:41Z</time>
</trkpt>
<trkpt lat="49.54297634772957" lon="9.163035359233618">
<ele>521.599</ele>
<time>2024-05-10T09:57:42Z</time>
</trkpt>
<trkpt lat="49.54296486452222" lon="9.162899907678366">
<ele>521.4</ele>
<time>2024-05-10T09:57:43Z</time>
</trkpt>
<trkpt lat="49.542953465133905" lon="9.162761606276035">
<ele>521</ele>
<time>2024-05-10T09:57:44Z</time>
</trkpt>
<trkpt lat="49.54292295500636" lon="9.162611905485392">
<ele>520.599</ele>
<time>2024-05-10T09:57:45Z</time>
</trkpt>
<trkpt lat="49.5429000724107" lon="9.162463126704097">
<ele>520.4</ele>
<time>2024-05-10T09:57:46Z</time>
</trkpt>
<trkpt lat="49.54286193475127" lon="9.162146542221308">
<ele>520</ele>
<time>2024-05-10T09:57:48Z</time>
</trkpt>
<trkpt lat="49.5428466796875" lon="9.161838507279754">
<ele>519.599</ele>
<time>2024-05-10T09:57:50Z</time>
</trkpt>
<trkpt lat="49.5428466796875" lon="9.161678245291114">
<ele>519</ele>
<time>2024-05-10T09:57:51Z</time>
</trkpt>
<trkpt lat="49.54285045154393" lon="9.161533322185278">
<ele>518.4</ele>
<time>2024-05-10T09:57:52Z</time>
</trkpt>
<trkpt lat="49.5429000724107" lon="9.1614112816751">
<ele>517.8</ele>
<time>2024-05-10T09:57:53Z</time>
</trkpt>
<trkpt lat="49.5429190993309" lon="9.161107940599322">
<ele>517</ele>
<time>2024-05-10T09:57:55Z</time>
</trkpt>
<trkpt lat="49.54292672686279" lon="9.16095631197095">
<ele>516.4</ele>
<time>2024-05-10T09:57:56Z</time>
</trkpt>
<trkpt lat="49.54294960945845" lon="9.16083812713623">
<ele>515.599</ele>
<time>2024-05-10T09:57:57Z</time>
</trkpt>
<trkpt lat="49.54296109266579" lon="9.160733185708525">
<ele>515</ele>
<time>2024-05-10T09:57:58Z</time>
</trkpt>
<trkpt lat="49.54297634772957" lon="9.160576779395342">
<ele>514.4</ele>
<time>2024-05-10T09:58:00Z</time>
</trkpt>
<trkpt lat="49.54298011958599" lon="9.160508131608369">
<ele>513.8</ele>
<time>2024-05-10T09:58:01Z</time>
</trkpt>
<trkpt lat="49.54297634772957" lon="9.160447111353278">
<ele>513</ele>
<time>2024-05-10T09:58:02Z</time>
</trkpt>
<trkpt lat="49.542972492054105" lon="9.160393634811044">
<ele>512.4</ele>
<time>2024-05-10T09:58:03Z</time>
</trkpt>
<trkpt lat="49.54296486452222" lon="9.160311659798026">
<ele>511.8</ele>
<time>2024-05-10T09:58:05Z</time>
</trkpt>
<trkpt lat="49.54293821007013" lon="9.160258267074823">
<ele>511.2</ele>
<time>2024-05-10T09:58:07Z</time>
</trkpt>
<trkpt lat="49.542911471799016" lon="9.160246783867478">
<ele>510.6</ele>
<time>2024-05-10T09:58:08Z</time>
</trkpt>
<trkpt lat="49.54286193475127" lon="9.160222979262471">
<ele>510.2</ele>
<time>2024-05-10T09:58:10Z</time>
</trkpt>
<trkpt lat="49.54284282401204" lon="9.160206718370318">
<ele>509.6</ele>
<time>2024-05-10T09:58:11Z</time>
</trkpt>
<trkpt lat="49.54281994141638" lon="9.160191463306546">
<ele>509.2</ele>
<time>2024-05-10T09:58:12Z</time>
</trkpt>
<trkpt lat="49.54280468635261" lon="9.160176208242774">
<ele>508.8</ele>
<time>2024-05-10T09:58:13Z</time>
</trkpt>
<trkpt lat="49.54278180375695" lon="9.160149553790689">
<ele>508.4</ele>
<time>2024-05-10T09:58:15Z</time>
</trkpt>
<trkpt lat="49.54278180375695" lon="9.160141926258802">
<ele>508</ele>
<time>2024-05-10T09:58:16Z</time>
</trkpt>
<trkpt lat="49.54278180375695" lon="9.160139998421071">
<ele>507.6</ele>
<time>2024-05-10T09:58:18Z</time>
</trkpt>
<trkpt lat="49.54278180375695" lon="9.160142848268151">
<ele>507.2</ele>
<time>2024-05-10T09:58:20Z</time>
</trkpt>
<trkpt lat="49.54278180375695" lon="9.16014477610588">
<ele>506.8</ele>
<time>2024-05-10T09:58:21Z</time>
</trkpt>
<trkpt lat="49.54278180375695" lon="9.16014670394361">
<ele>506.4</ele>
<time>2024-05-10T09:58:22Z</time>
</trkpt>
<trkpt lat="49.54278180375695" lon="9.16014477610588">
<ele>506.2</ele>
<time>2024-05-10T09:58:23Z</time>
</trkpt>
<trkpt lat="49.54278180375695" lon="9.16014670394361">
<ele>505.8</ele>
<time>2024-05-10T09:58:28Z</time>
</trkpt>
<trkpt lat="49.54278180375695" lon="9.16014477610588">
<ele>505.6</ele>
<time>2024-05-10T09:58:32Z</time>
</trkpt>
<trkpt lat="49.54278180375695" lon="9.16014670394361">
<ele>505.4</ele>
<time>2024-05-10T09:58:33Z</time>
</trkpt>
<trkpt lat="49.54278180375695" lon="9.160148547962308">
<ele>505.4</ele>
<time>2024-05-10T09:58:35Z</time>
</trkpt>
<trkpt lat="49.54278180375695" lon="9.16014670394361">
<ele>505.2</ele>
<time>2024-05-10T09:58:41Z</time>
</trkpt>
<trkpt lat="49.54277794808149" lon="9.1601247433573">
<ele>505.2</ele>
<time>2024-05-10T09:58:42Z</time>
</trkpt>
<trkpt lat="49.54277032054961" lon="9.160097083076836">
<ele>505</ele>
<time>2024-05-10T09:58:43Z</time>
</trkpt>
<trkpt lat="49.542758921161294" lon="9.160021729767324">
<ele>505</ele>
<time>2024-05-10T09:58:45Z</time>
</trkpt>
<trkpt lat="49.542755065485835" lon="9.159975042566655">
<ele>504.8</ele>
<time>2024-05-10T09:58:46Z</time>
</trkpt>
<trkpt lat="49.54275129362941" lon="9.15992634370923">
<ele>504.8</ele>
<time>2024-05-10T09:58:47Z</time>
</trkpt>
<trkpt lat="49.54274366609752" lon="9.15987202897668">
<ele>504.8</ele>
<time>2024-05-10T09:58:48Z</time>
</trkpt>
<trkpt lat="49.54273218289018" lon="9.159763315692544">
<ele>504.6</ele>
<time>2024-05-10T09:58:50Z</time>
</trkpt>
<trkpt lat="49.54273218289018" lon="9.15971176698804">
<ele>504.6</ele>
<time>2024-05-10T09:58:51Z</time>
</trkpt>
<trkpt lat="49.54272841103375" lon="9.159653596580029">
<ele>504.6</ele>
<time>2024-05-10T09:58:52Z</time>
</trkpt>
<trkpt lat="49.54273218289018" lon="9.15959450416267">
<ele>504.6</ele>
<time>2024-05-10T09:58:53Z</time>
</trkpt>
<trkpt lat="49.54273603856563" lon="9.159471457824113">
<ele>504.8</ele>
<time>2024-05-10T09:58:55Z</time>
</trkpt>
<trkpt lat="49.54273981042206" lon="9.159408509731293">
<ele>504.8</ele>
<time>2024-05-10T09:58:56Z</time>
</trkpt>
<trkpt lat="49.54274743795395" lon="9.159346567466857">
<ele>505</ele>
<time>2024-05-10T09:58:57Z</time>
</trkpt>
<trkpt lat="49.54275129362941" lon="9.159281691536307">
<ele>505</ele>
<time>2024-05-10T09:58:58Z</time>
</trkpt>
<trkpt lat="49.54276654869318" lon="9.159145317971706">
<ele>505</ele>
<time>2024-05-10T09:59:00Z</time>
</trkpt>
<trkpt lat="49.542774176225066" lon="9.159074742347002">
<ele>505.2</ele>
<time>2024-05-10T09:59:01Z</time>
</trkpt>
<trkpt lat="49.54278180375695" lon="9.159005088731648">
<ele>505.2</ele>
<time>2024-05-10T09:59:02Z</time>
</trkpt>
<trkpt lat="49.542793203145266" lon="9.158936440944672">
<ele>505.2</ele>
<time>2024-05-10T09:59:03Z</time>
</trkpt>
<trkpt lat="49.54280468635261" lon="9.158875420689585">
<ele>505</ele>
<time>2024-05-10T09:59:04Z</time>
</trkpt>
<trkpt lat="49.5428123138845" lon="9.158813394606112">
<ele>505</ele>
<time>2024-05-10T09:59:05Z</time>
</trkpt>
<trkpt lat="49.54281994141638" lon="9.158751452341676">
<ele>505</ele>
<time>2024-05-10T09:59:06Z</time>
</trkpt>
<trkpt lat="49.542831340804696" lon="9.158688504248856">
<ele>505</ele>
<time>2024-05-10T09:59:07Z</time>
</trkpt>
<trkpt lat="49.54283896833658" lon="9.158619856461884">
<ele>504.8</ele>
<time>2024-05-10T09:59:08Z</time>
</trkpt>
<trkpt lat="49.54285045154393" lon="9.158553052693604">
<ele>504.8</ele>
<time>2024-05-10T09:59:09Z</time>
</trkpt>
<trkpt lat="49.54286193475127" lon="9.158492032438517">
<ele>505</ele>
<time>2024-05-10T09:59:10Z</time>
</trkpt>
<trkpt lat="49.542873334139585" lon="9.158431934192777">
<ele>505</ele>
<time>2024-05-10T09:59:11Z</time>
</trkpt>
<trkpt lat="49.54288858920336" lon="9.158376613631845">
<ele>505</ele>
<time>2024-05-10T09:59:12Z</time>
</trkpt>
<trkpt lat="49.54290384426713" lon="9.158336631953716">
<ele>505</ele>
<time>2024-05-10T09:59:13Z</time>
</trkpt>
<trkpt lat="49.54293821007013" lon="9.15824979543686">
<ele>504.8</ele>
<time>2024-05-10T09:59:15Z</time>
</trkpt>
<trkpt lat="49.54295723699033" lon="9.158203108236194">
<ele>504.8</ele>
<time>2024-05-10T09:59:16Z</time>
</trkpt>
<trkpt lat="49.54298011958599" lon="9.158156337216496">
<ele>504.8</ele>
<time>2024-05-10T09:59:17Z</time>
</trkpt>
<trkpt lat="49.54300300218165" lon="9.158118199557066">
<ele>504.6</ele>
<time>2024-05-10T09:59:18Z</time>
</trkpt>
<trkpt lat="49.54305647872389" lon="9.158036224544048">
<ele>504.6</ele>
<time>2024-05-10T09:59:20Z</time>
</trkpt>
<trkpt lat="49.54308698885143" lon="9.157998003065586">
<ele>504.4</ele>
<time>2024-05-10T09:59:21Z</time>
</trkpt>
<trkpt lat="49.54311364330351" lon="9.15795131586492">
<ele>504.4</ele>
<time>2024-05-10T09:59:22Z</time>
</trkpt>
<trkpt lat="49.54314415343106" lon="9.157904544845223">
<ele>504.2</ele>
<time>2024-05-10T09:59:23Z</time>
</trkpt>
<trkpt lat="49.54320140182972" lon="9.157830197364092">
<ele>503.8</ele>
<time>2024-05-10T09:59:25Z</time>
</trkpt>
<trkpt lat="49.54322814010084" lon="9.157786360010505">
<ele>503.6</ele>
<time>2024-05-10T09:59:26Z</time>
</trkpt>
<trkpt lat="49.54325479455292" lon="9.157748222351074">
<ele>503.4</ele>
<time>2024-05-10T09:59:27Z</time>
</trkpt>
<trkpt lat="49.54328153282404" lon="9.157708156853914">
<ele>503</ele>
<time>2024-05-10T09:59:28Z</time>
</trkpt>
<trkpt lat="49.5433044154197" lon="9.15767186321318">
<ele>502.8</ele>
<time>2024-05-10T09:59:29Z</time>
</trkpt>
<trkpt lat="49.54332729801536" lon="9.15763657540083">
<ele>502.6</ele>
<time>2024-05-10T09:59:30Z</time>
</trkpt>
<trkpt lat="49.543350180611014" lon="9.157603215426208">
<ele>502.4</ele>
<time>2024-05-10T09:59:31Z</time>
</trkpt>
<trkpt lat="49.54337306320667" lon="9.157571783289312">
<ele>502.2</ele>
<time>2024-05-10T09:59:32Z</time>
</trkpt>
<trkpt lat="49.54339980147779" lon="9.15753833949566">
<ele>502</ele>
<time>2024-05-10T09:59:33Z</time>
</trkpt>
<trkpt lat="49.54345319420099" lon="9.157460136339068">
<ele>502</ele>
<time>2024-05-10T09:59:35Z</time>
</trkpt>
<trkpt lat="49.54348747618496" lon="9.157413449138405">
<ele>501.8</ele>
<time>2024-05-10T09:59:36Z</time>
</trkpt>
<trkpt lat="49.54352184198797" lon="9.15736198425293">
<ele>501.8</ele>
<time>2024-05-10T09:59:37Z</time>
</trkpt>
<trkpt lat="49.5435599796474" lon="9.15731613524258">
<ele>501.6</ele>
<time>2024-05-10T09:59:38Z</time>
</trkpt>
<trkpt lat="49.54362099990249" lon="9.157217899337413">
<ele>501.6</ele>
<time>2024-05-10T09:59:40Z</time>
</trkpt>
<trkpt lat="49.54365151003003" lon="9.157164506614208">
<ele>501.2</ele>
<time>2024-05-10T09:59:41Z</time>
</trkpt>
<trkpt lat="49.543682020157576" lon="9.157108264043927">
<ele>501</ele>
<time>2024-05-10T09:59:42Z</time>
</trkpt>
<trkpt lat="49.54371638596058" lon="9.157050093635917">
<ele>500.8</ele>
<time>2024-05-10T09:59:43Z</time>
</trkpt>
<trkpt lat="49.54378126189113" lon="9.15692805312574">
<ele>500.4</ele>
<time>2024-05-10T09:59:45Z</time>
</trkpt>
<trkpt lat="49.54381177201867" lon="9.156871726736426">
<ele>500.2</ele>
<time>2024-05-10T09:59:46Z</time>
</trkpt>
<trkpt lat="49.54383842647076" lon="9.15680785663426">
<ele>500</ele>
<time>2024-05-10T09:59:47Z</time>
</trkpt>
<trkpt lat="49.543865164741874" lon="9.15674490854144">
<ele>499.6</ele>
<time>2024-05-10T09:59:48Z</time>
</trkpt>
<trkpt lat="49.543922413140535" lon="9.156641894951465">
<ele>499</ele>
<time>2024-05-10T09:59:50Z</time>
</trkpt>
<trkpt lat="49.54394906759262" lon="9.156601829454305">
<ele>498.4</ele>
<time>2024-05-10T09:59:51Z</time>
</trkpt>
<trkpt lat="49.54397580586374" lon="9.156564697623253">
<ele>498</ele>
<time>2024-05-10T09:59:52Z</time>
</trkpt>
<trkpt lat="49.544002460315824" lon="9.156537959352136">
<ele>497.6</ele>
<time>2024-05-10T09:59:53Z</time>
</trkpt>
<trkpt lat="49.54403297044337" lon="9.156519854441283">
<ele>497.2</ele>
<time>2024-05-10T09:59:54Z</time>
</trkpt>
<trkpt lat="49.54405593685806" lon="9.15651029907167">
<ele>496.6</ele>
<time>2024-05-10T09:59:55Z</time>
</trkpt>
<trkpt lat="49.54407881945371" lon="9.156499821692703">
<ele>496.2</ele>
<time>2024-05-10T09:59:56Z</time>
</trkpt>
<trkpt lat="49.544101702049375" lon="9.15649026632309">
<ele>495.8</ele>
<time>2024-05-10T09:59:57Z</time>
</trkpt>
<trkpt lat="49.54412458464503" lon="9.156476939097049">
<ele>495.4</ele>
<time>2024-05-10T09:59:58Z</time>
</trkpt>
<trkpt lat="49.54416649416089" lon="9.156434945762156">
<ele>495</ele>
<time>2024-05-10T10:00:00Z</time>
</trkpt>
<trkpt lat="49.54418174922466" lon="9.156414913013576">
<ele>494.8</ele>
<time>2024-05-10T10:00:01Z</time>
</trkpt>
<trkpt lat="49.54419323243201" lon="9.15639203041792">
<ele>494.4</ele>
<time>2024-05-10T10:00:02Z</time>
</trkpt>
<trkpt lat="49.54420848749578" lon="9.15637015365064">
<ele>494</ele>
<time>2024-05-10T10:00:03Z</time>
</trkpt>
<trkpt lat="49.54422759823501" lon="9.156321454793217">
<ele>493.8</ele>
<time>2024-05-10T10:00:05Z</time>
</trkpt>
<trkpt lat="49.5442352257669" lon="9.156291950494053">
<ele>493.4</ele>
<time>2024-05-10T10:00:06Z</time>
</trkpt>
<trkpt lat="49.54424662515521" lon="9.156258506700397">
<ele>493.2</ele>
<time>2024-05-10T10:00:07Z</time>
</trkpt>
<trkpt lat="49.54424662515521" lon="9.156229924410582">
<ele>492.8</ele>
<time>2024-05-10T10:00:08Z</time>
</trkpt>
<trkpt lat="49.5442352257669" lon="9.156205113977194">
<ele>492.6</ele>
<time>2024-05-10T10:00:09Z</time>
</trkpt>
<trkpt lat="49.54422759823501" lon="9.156185081228614">
<ele>492.2</ele>
<time>2024-05-10T10:00:10Z</time>
</trkpt>
<trkpt lat="49.544219970703125" lon="9.156161276623608">
<ele>492</ele>
<time>2024-05-10T10:00:11Z</time>
</trkpt>
<trkpt lat="49.54421225935221" lon="9.156145015731454">
<ele>491.6</ele>
<time>2024-05-10T10:00:12Z</time>
</trkpt>
<trkpt lat="49.54420848749578" lon="9.156127916648984">
<ele>491.4</ele>
<time>2024-05-10T10:00:13Z</time>
</trkpt>
<trkpt lat="49.544200859963894" lon="9.156107883900404">
<ele>491.2</ele>
<time>2024-05-10T10:00:14Z</time>
</trkpt>
<trkpt lat="49.544197004288435" lon="9.156086845323443">
<ele>491</ele>
<time>2024-05-10T10:00:15Z</time>
</trkpt>
<trkpt lat="49.54419323243201" lon="9.156066812574863">
<ele>491</ele>
<time>2024-05-10T10:00:16Z</time>
</trkpt>
<trkpt lat="49.54418937675655" lon="9.156048707664011">
<ele>490.8</ele>
<time>2024-05-10T10:00:17Z</time>
</trkpt>
<trkpt lat="49.54418560490012" lon="9.156031608581545">
<ele>490.8</ele>
<time>2024-05-10T10:00:18Z</time>
</trkpt>
<trkpt lat="49.54418560490012" lon="9.15603345260024">
<ele>490.6</ele>
<time>2024-05-10T10:00:20Z</time>
</trkpt>
<trkpt lat="49.54418174922466" lon="9.156031608581545">
<ele>490.6</ele>
<time>2024-05-10T10:00:22Z</time>
</trkpt>
<trkpt lat="49.54418174922466" lon="9.156029680743814">
<ele>490.6</ele>
<time>2024-05-10T10:00:23Z</time>
</trkpt>
<trkpt lat="49.54418174922466" lon="9.156026830896735">
<ele>490.6</ele>
<time>2024-05-10T10:00:25Z</time>
</trkpt>
<trkpt lat="49.54418560490012" lon="9.15601534768939">
<ele>490.6</ele>
<time>2024-05-10T10:00:27Z</time>
</trkpt>
<trkpt lat="49.54418560490012" lon="9.156000092625618">
<ele>490.6</ele>
<time>2024-05-10T10:00:28Z</time>
</trkpt>
<trkpt lat="49.544197004288435" lon="9.155960027128458">
<ele>490.6</ele>
<time>2024-05-10T10:00:30Z</time>
</trkpt>
<trkpt lat="49.54420463182032" lon="9.155913339927793">
<ele>490.6</ele>
<time>2024-05-10T10:00:31Z</time>
</trkpt>
<trkpt lat="49.544216115027666" lon="9.155863719061015">
<ele>490.8</ele>
<time>2024-05-10T10:00:32Z</time>
</trkpt>
<trkpt lat="49.54423137009144" lon="9.155803620815275">
<ele>490.8</ele>
<time>2024-05-10T10:00:33Z</time>
</trkpt>
<trkpt lat="49.54424285329878" lon="9.155743522569535">
<ele>490.8</ele>
<time>2024-05-10T10:00:34Z</time>
</trkpt>
<trkpt lat="49.5442542526871" lon="9.155685352161528">
<ele>490.8</ele>
<time>2024-05-10T10:00:35Z</time>
</trkpt>
<trkpt lat="49.54426950775087" lon="9.155632965266705">
<ele>490.8</ele>
<time>2024-05-10T10:00:36Z</time>
</trkpt>
<trkpt lat="49.544280990958214" lon="9.155586194247007">
<ele>490.8</ele>
<time>2024-05-10T10:00:37Z</time>
</trkpt>
<trkpt lat="49.5442886184901" lon="9.15554135106504">
<ele>490.6</ele>
<time>2024-05-10T10:00:38Z</time>
</trkpt>
<trkpt lat="49.544296246021986" lon="9.155494663864374">
<ele>490.4</ele>
<time>2024-05-10T10:00:39Z</time>
</trkpt>
<trkpt lat="49.54430387355387" lon="9.155441271141171">
<ele>490.4</ele>
<time>2024-05-10T10:00:40Z</time>
</trkpt>
<trkpt lat="49.54431150108576" lon="9.155380167067053">
<ele>490.2</ele>
<time>2024-05-10T10:00:41Z</time>
</trkpt>
<trkpt lat="49.54432290047407" lon="9.155313447117804">
<ele>489.8</ele>
<time>2024-05-10T10:00:42Z</time>
</trkpt>
<trkpt lat="49.54433438368142" lon="9.155249577015638">
<ele>489.6</ele>
<time>2024-05-10T10:00:43Z</time>
</trkpt>
<trkpt lat="49.54434963874519" lon="9.15512653067708">
<ele>489.2</ele>
<time>2024-05-10T10:00:45Z</time>
</trkpt>
<trkpt lat="49.5443610381335" lon="9.155059810727836">
<ele>488.8</ele>
<time>2024-05-10T10:00:46Z</time>
</trkpt>
<trkpt lat="49.54437252134085" lon="9.15498822927475">
<ele>488.6</ele>
<time>2024-05-10T10:00:47Z</time>
</trkpt>
<trkpt lat="49.54438392072916" lon="9.154918659478426">
<ele>488.2</ele>
<time>2024-05-10T10:00:48Z</time>
</trkpt>
<trkpt lat="49.54439925961197" lon="9.154843306168914">
<ele>487.8</ele>
<time>2024-05-10T10:00:49Z</time>
</trkpt>
<trkpt lat="49.544414514675736" lon="9.154769880697131">
<ele>487.4</ele>
<time>2024-05-10T10:00:50Z</time>
</trkpt>
<trkpt lat="49.54444116912782" lon="9.154700227081776">
<ele>486.8</ele>
<time>2024-05-10T10:00:51Z</time>
</trkpt>
<trkpt lat="49.544475534930825" lon="9.154626801609991">
<ele>486.4</ele>
<time>2024-05-10T10:00:52Z</time>
</trkpt>
<trkpt lat="49.544513672590256" lon="9.15455144830048">
<ele>486</ele>
<time>2024-05-10T10:00:53Z</time>
</trkpt>
<trkpt lat="49.54460520297289" lon="9.15439696982503">
<ele>485.4</ele>
<time>2024-05-10T10:00:55Z</time>
</trkpt>
<trkpt lat="49.544654823839664" lon="9.154323544353248">
<ele>485</ele>
<time>2024-05-10T10:00:56Z</time>
</trkpt>
<trkpt lat="49.54470058903098" lon="9.154250118881464">
<ele>484.6</ele>
<time>2024-05-10T10:00:57Z</time>
</trkpt>
<trkpt lat="49.5447463542223" lon="9.15417669340968">
<ele>484.2</ele>
<time>2024-05-10T10:00:58Z</time>
</trkpt>
<trkpt lat="49.544830257073045" lon="9.154033614322543">
<ele>483.8</ele>
<time>2024-05-10T10:01:00Z</time>
</trkpt>
<trkpt lat="49.544868394732475" lon="9.15396018885076">
<ele>483.4</ele>
<time>2024-05-10T10:01:01Z</time>
</trkpt>
<trkpt lat="49.54489890486002" lon="9.153886763378978">
<ele>483</ele>
<time>2024-05-10T10:01:02Z</time>
</trkpt>
<trkpt lat="49.54492564313114" lon="9.153815265744925">
<ele>482.6</ele>
<time>2024-05-10T10:01:03Z</time>
</trkpt>
<trkpt lat="49.54496000893414" lon="9.153675036504865">
<ele>482.6</ele>
<time>2024-05-10T10:01:05Z</time>
</trkpt>
<trkpt lat="49.54497526399791" lon="9.15360638871789">
<ele>482.4</ele>
<time>2024-05-10T10:01:06Z</time>
</trkpt>
<trkpt lat="49.54499429091811" lon="9.153539584949613">
<ele>482.4</ele>
<time>2024-05-10T10:01:07Z</time>
</trkpt>
<trkpt lat="49.54500191845" lon="9.153472865000367">
<ele>482.4</ele>
<time>2024-05-10T10:01:08Z</time>
</trkpt>
<trkpt lat="49.545028656721115" lon="9.153354596346617">
<ele>482.6</ele>
<time>2024-05-10T10:01:10Z</time>
</trkpt>
<trkpt lat="49.54504391178489" lon="9.153301203623414">
<ele>482.8</ele>
<time>2024-05-10T10:01:11Z</time>
</trkpt>
<trkpt lat="49.5450553111732" lon="9.15325158275664">
<ele>483.2</ele>
<time>2024-05-10T10:01:12Z</time>
</trkpt>
<trkpt lat="49.54507056623697" lon="9.1532086674124">
<ele>483.6</ele>
<time>2024-05-10T10:01:13Z</time>
</trkpt>
<trkpt lat="49.545104932039976" lon="9.15313147008419">
<ele>484</ele>
<time>2024-05-10T10:01:15Z</time>
</trkpt>
<trkpt lat="49.54512404277921" lon="9.153098026290536">
<ele>484.2</ele>
<time>2024-05-10T10:01:16Z</time>
</trkpt>
<trkpt lat="49.54514306969941" lon="9.153068521991372">
<ele>484.8</ele>
<time>2024-05-10T10:01:18Z</time>
</trkpt>
<trkpt lat="49.54516218043864" lon="9.153043711557984">
<ele>485.2</ele>
<time>2024-05-10T10:01:19Z</time>
</trkpt>
<trkpt lat="49.54520031809807" lon="9.15301512926817">
<ele>485.6</ele>
<time>2024-05-10T10:01:20Z</time>
</trkpt>
<trkpt lat="49.54521934501827" lon="9.153016973286867">
<ele>486</ele>
<time>2024-05-10T10:01:21Z</time>
</trkpt>
<trkpt lat="49.5452384557575" lon="9.153021750971677">
<ele>486.2</ele>
<time>2024-05-10T10:01:22Z</time>
</trkpt>
<trkpt lat="49.545265194028616" lon="9.153026528656484">
<ele>486.4</ele>
<time>2024-05-10T10:01:23Z</time>
</trkpt>
<trkpt lat="49.54531858675182" lon="9.15303516201675">
<ele>486.6</ele>
<time>2024-05-10T10:01:25Z</time>
</trkpt>
<trkpt lat="49.54534909687936" lon="9.153041783720257">
<ele>486.8</ele>
<time>2024-05-10T10:01:26Z</time>
</trkpt>
<trkpt lat="49.54537960700691" lon="9.153043711557984">
<ele>486.8</ele>
<time>2024-05-10T10:01:27Z</time>
</trkpt>
<trkpt lat="49.54539863392711" lon="9.153043711557984">
<ele>487</ele>
<time>2024-05-10T10:01:28Z</time>
</trkpt>
<trkpt lat="49.54542922787368" lon="9.15305133908987">
<ele>487</ele>
<time>2024-05-10T10:01:29Z</time>
</trkpt>
<trkpt lat="49.54545973800123" lon="9.153057038784029">
<ele>486.8</ele>
<time>2024-05-10T10:01:30Z</time>
</trkpt>
<trkpt lat="49.54549787566066" lon="9.153058044612408">
<ele>486.8</ele>
<time>2024-05-10T10:01:31Z</time>
</trkpt>
<trkpt lat="49.54553215764463" lon="9.153059888631104">
<ele>486.8</ele>
<time>2024-05-10T10:01:32Z</time>
</trkpt>
<trkpt lat="49.54557415097952" lon="9.153064666315911">
<ele>486.6</ele>
<time>2024-05-10T10:01:33Z</time>
</trkpt>
<trkpt lat="49.545661909505725" lon="9.153083777055144">
<ele>486.6</ele>
<time>2024-05-10T10:01:35Z</time>
</trkpt>
<trkpt lat="49.54571144655347" lon="9.15309333242476">
<ele>486.6</ele>
<time>2024-05-10T10:01:36Z</time>
</trkpt>
<trkpt lat="49.5457649230957" lon="9.153102803975344">
<ele>486.6</ele>
<time>2024-05-10T10:01:37Z</time>
</trkpt>
<trkpt lat="49.54581068828702" lon="9.153106659650804">
<ele>486.6</ele>
<time>2024-05-10T10:01:38Z</time>
</trkpt>
<trkpt lat="49.545856453478336" lon="9.153106659650804">
<ele>486.4</ele>
<time>2024-05-10T10:01:39Z</time>
</trkpt>
<trkpt lat="49.545898362994194" lon="9.153101881965997">
<ele>486.4</ele>
<time>2024-05-10T10:01:40Z</time>
</trkpt>
<trkpt lat="49.54594035632908" lon="9.15309333242476">
<ele>486.2</ele>
<time>2024-05-10T10:01:41Z</time>
</trkpt>
<trkpt lat="49.54598234966397" lon="9.153075143694878">
<ele>486.2</ele>
<time>2024-05-10T10:01:42Z</time>
</trkpt>
<trkpt lat="49.54602425917983" lon="9.15305133908987">
<ele>486</ele>
<time>2024-05-10T10:01:43Z</time>
</trkpt>
<trkpt lat="49.54606625251472" lon="9.153026528656484">
<ele>486</ele>
<time>2024-05-10T10:01:44Z</time>
</trkpt>
<trkpt lat="49.54610824584961" lon="9.15299509651959">
<ele>486</ele>
<time>2024-05-10T10:01:45Z</time>
</trkpt>
<trkpt lat="49.54615015536547" lon="9.152957880869508">
<ele>485.8</ele>
<time>2024-05-10T10:01:46Z</time>
</trkpt>
<trkpt lat="49.54618452116847" lon="9.152917815372348">
<ele>485.8</ele>
<time>2024-05-10T10:01:47Z</time>
</trkpt>
<trkpt lat="49.54621880315244" lon="9.152879677712916">
<ele>485.8</ele>
<time>2024-05-10T10:01:48Z</time>
</trkpt>
<trkpt lat="49.54627990722656" lon="9.152799546718596">
<ele>485.6</ele>
<time>2024-05-10T10:01:50Z</time>
</trkpt>
<trkpt lat="49.546314189210534" lon="9.152758559212089">
<ele>485.6</ele>
<time>2024-05-10T10:01:51Z</time>
</trkpt>
<trkpt lat="49.54634469933808" lon="9.152720421552658">
<ele>485.6</ele>
<time>2024-05-10T10:01:52Z</time>
</trkpt>
<trkpt lat="49.5463714376092" lon="9.152678428217769">
<ele>485.8</ele>
<time>2024-05-10T10:01:53Z</time>
</trkpt>
<trkpt lat="49.54640571959317" lon="9.152638362720609">
<ele>485.8</ele>
<time>2024-05-10T10:01:54Z</time>
</trkpt>
<trkpt lat="49.54643622972071" lon="9.15260123088956">
<ele>486</ele>
<time>2024-05-10T10:01:55Z</time>
</trkpt>
<trkpt lat="49.54646682366729" lon="9.152566865086555">
<ele>486.2</ele>
<time>2024-05-10T10:01:56Z</time>
</trkpt>
<trkpt lat="49.54649733379483" lon="9.152528727427123">
<ele>486.2</ele>
<time>2024-05-10T10:01:57Z</time>
</trkpt>
<trkpt lat="49.54652784392238" lon="9.152491511777043">
<ele>486.2</ele>
<time>2024-05-10T10:01:58Z</time>
</trkpt>
<trkpt lat="49.54655835404992" lon="9.152455301955342">
<ele>486.2</ele>
<time>2024-05-10T10:01:59Z</time>
</trkpt>
<trkpt lat="49.54659263603389" lon="9.152413308620453">
<ele>486.2</ele>
<time>2024-05-10T10:02:00Z</time>
</trkpt>
<trkpt lat="49.54662322998047" lon="9.152366621419787">
<ele>486</ele>
<time>2024-05-10T10:02:01Z</time>
</trkpt>
<trkpt lat="49.546649884432554" lon="9.152315072715282">
<ele>486</ele>
<time>2024-05-10T10:02:02Z</time>
</trkpt>
<trkpt lat="49.54667662270367" lon="9.15226167999208">
<ele>486</ele>
<time>2024-05-10T10:02:04Z</time>
</trkpt>
<trkpt lat="49.546730015426874" lon="9.152148189023135">
<ele>486</ele>
<time>2024-05-10T10:02:05Z</time>
</trkpt>
<trkpt lat="49.54675666987896" lon="9.152090018615128">
<ele>485.8</ele>
<time>2024-05-10T10:02:06Z</time>
</trkpt>
<trkpt lat="49.54677578061819" lon="9.152036625891924">
<ele>485.8</ele>
<time>2024-05-10T10:02:07Z</time>
</trkpt>
<trkpt lat="49.54679489135742" lon="9.151980383321645">
<ele>485.8</ele>
<time>2024-05-10T10:02:08Z</time>
</trkpt>
<trkpt lat="49.54683680087328" lon="9.151858258992434">
<ele>485.6</ele>
<time>2024-05-10T10:02:10Z</time>
</trkpt>
<trkpt lat="49.54685591161251" lon="9.151795310899615">
<ele>485.6</ele>
<time>2024-05-10T10:02:11Z</time>
</trkpt>
<trkpt lat="49.54687116667628" lon="9.151724735274913">
<ele>485.6</ele>
<time>2024-05-10T10:02:12Z</time>
</trkpt>
<trkpt lat="49.546886421740055" lon="9.15164845995605">
<ele>485.6</ele>
<time>2024-05-10T10:02:13Z</time>
</trkpt>
<trkpt lat="49.546905448660254" lon="9.15153119713068">
<ele>485.6</ele>
<time>2024-05-10T10:02:15Z</time>
</trkpt>
<trkpt lat="49.54691307619214" lon="9.15147302672267">
<ele>485.6</ele>
<time>2024-05-10T10:02:16Z</time>
</trkpt>
<trkpt lat="49.54693218693137" lon="9.151418628171086">
<ele>485.8</ele>
<time>2024-05-10T10:02:17Z</time>
</trkpt>
<trkpt lat="49.546947441995144" lon="9.151366157457232">
<ele>485.8</ele>
<time>2024-05-10T10:02:18Z</time>
</trkpt>
<trkpt lat="49.54696269705891" lon="9.151307065039871">
<ele>486</ele>
<time>2024-05-10T10:02:19Z</time>
</trkpt>
<trkpt lat="49.54697418026626" lon="9.151245038956404">
<ele>486</ele>
<time>2024-05-10T10:02:20Z</time>
</trkpt>
<trkpt lat="49.546985579654574" lon="9.151186868548391">
<ele>485.8</ele>
<time>2024-05-10T10:02:21Z</time>
</trkpt>
<trkpt lat="49.547004690393806" lon="9.151053428649902">
<ele>486</ele>
<time>2024-05-10T10:02:23Z</time>
</trkpt>
<trkpt lat="49.54701231792569" lon="9.150991402566431">
<ele>486</ele>
<time>2024-05-10T10:02:24Z</time>
</trkpt>
<trkpt lat="49.547023717314005" lon="9.150930382311344">
<ele>486</ele>
<time>2024-05-10T10:02:25Z</time>
</trkpt>
<trkpt lat="49.54703520052135" lon="9.150875061750412">
<ele>486</ele>
<time>2024-05-10T10:02:26Z</time>
</trkpt>
<trkpt lat="49.54704659990966" lon="9.15082166902721">
<ele>486.2</ele>
<time>2024-05-10T10:02:27Z</time>
</trkpt>
<trkpt lat="49.54705422744155" lon="9.150770120322704">
<ele>486.2</ele>
<time>2024-05-10T10:02:28Z</time>
</trkpt>
<trkpt lat="49.54706948250532" lon="9.150678589940073">
<ele>486.4</ele>
<time>2024-05-10T10:02:30Z</time>
</trkpt>
<trkpt lat="49.547084737569094" lon="9.150632824748756">
<ele>486.6</ele>
<time>2024-05-10T10:02:31Z</time>
</trkpt>
<trkpt lat="49.54709236510098" lon="9.150591837242246">
<ele>487</ele>
<time>2024-05-10T10:02:32Z</time>
</trkpt>
<trkpt lat="49.547103848308325" lon="9.150545066222548">
<ele>487.2</ele>
<time>2024-05-10T10:02:33Z</time>
</trkpt>
<trkpt lat="49.54711147584021" lon="9.150458313524725">
<ele>487.4</ele>
<time>2024-05-10T10:02:35Z</time>
</trkpt>
<trkpt lat="49.54711147584021" lon="9.150426797568798">
<ele>487.6</ele>
<time>2024-05-10T10:02:36Z</time>
</trkpt>
<trkpt lat="49.54710762016475" lon="9.150396287441254">
<ele>487.8</ele>
<time>2024-05-10T10:02:37Z</time>
</trkpt>
<trkpt lat="49.547103848308325" lon="9.150358149781823">
<ele>488.2</ele>
<time>2024-05-10T10:02:38Z</time>
</trkpt>
<trkpt lat="49.54709236510098" lon="9.15026469156146">
<ele>488.4</ele>
<time>2024-05-10T10:02:40Z</time>
</trkpt>
<trkpt lat="49.547084737569094" lon="9.150219848379493">
<ele>488.8</ele>
<time>2024-05-10T10:02:41Z</time>
</trkpt>
<trkpt lat="49.54708096571267" lon="9.15018456056714">
<ele>489</ele>
<time>2024-05-10T10:02:42Z</time>
</trkpt>
<trkpt lat="49.54706948250532" lon="9.15014642290771">
<ele>489.4</ele>
<time>2024-05-10T10:02:43Z</time>
</trkpt>
<trkpt lat="49.54705422744155" lon="9.150111135095358">
<ele>489.6</ele>
<time>2024-05-10T10:02:44Z</time>
</trkpt>
<trkpt lat="49.54704282805323" lon="9.150076853111386">
<ele>489.8</ele>
<time>2024-05-10T10:02:45Z</time>
</trkpt>
<trkpt lat="49.547023717314005" lon="9.150043409317732">
<ele>490</ele>
<time>2024-05-10T10:02:46Z</time>
</trkpt>
<trkpt lat="49.54700846225023" lon="9.15001197718084">
<ele>490.2</ele>
<time>2024-05-10T10:02:47Z</time>
</trkpt>
<trkpt lat="49.54699320718646" lon="9.149983394891024">
<ele>490.4</ele>
<time>2024-05-10T10:02:48Z</time>
</trkpt>
<trkpt lat="49.54695506952703" lon="9.149928074330091">
<ele>490.6</ele>
<time>2024-05-10T10:02:50Z</time>
</trkpt>
<trkpt lat="49.54693981446326" lon="9.149901336058974">
<ele>490.8</ele>
<time>2024-05-10T10:02:51Z</time>
</trkpt>
<trkpt lat="49.5469169318676" lon="9.149876525625588">
<ele>491</ele>
<time>2024-05-10T10:02:52Z</time>
</trkpt>
<trkpt lat="49.54690167680383" lon="9.149856492877008">
<ele>491.2</ele>
<time>2024-05-10T10:02:53Z</time>
</trkpt>
<trkpt lat="49.54685968346894" lon="9.149813577532768">
<ele>491.4</ele>
<time>2024-05-10T10:02:55Z</time>
</trkpt>
<trkpt lat="49.54684065654874" lon="9.14979170076549">
<ele>491.6</ele>
<time>2024-05-10T10:02:56Z</time>
</trkpt>
<trkpt lat="49.54682154580951" lon="9.149764962494372">
<ele>491.8</ele>
<time>2024-05-10T10:02:57Z</time>
</trkpt>
<trkpt lat="49.546806290745735" lon="9.149735374376178">
<ele>492</ele>
<time>2024-05-10T10:02:58Z</time>
</trkpt>
<trkpt lat="49.54677578061819" lon="9.149666726589205">
<ele>492.2</ele>
<time>2024-05-10T10:03:00Z</time>
</trkpt>
<trkpt lat="49.546764297410846" lon="9.149628588929772">
<ele>492.4</ele>
<time>2024-05-10T10:03:01Z</time>
</trkpt>
<trkpt lat="49.54675289802253" lon="9.149588523432612">
<ele>492.6</ele>
<time>2024-05-10T10:03:02Z</time>
</trkpt>
<trkpt lat="49.546745270490646" lon="9.149546613916756">
<ele>492.8</ele>
<time>2024-05-10T10:03:03Z</time>
</trkpt>
<trkpt lat="49.546745270490646" lon="9.149459777399898">
<ele>493</ele>
<time>2024-05-10T10:03:05Z</time>
</trkpt>
<trkpt lat="49.546749042347074" lon="9.14941786788404">
<ele>493.2</ele>
<time>2024-05-10T10:03:06Z</time>
</trkpt>
<trkpt lat="49.54676052555442" lon="9.14937973022461">
<ele>493.6</ele>
<time>2024-05-10T10:03:07Z</time>
</trkpt>
<trkpt lat="49.54677578061819" lon="9.149345364421606">
<ele>493.8</ele>
<time>2024-05-10T10:03:08Z</time>
</trkpt>
<trkpt lat="49.546810146421194" lon="9.149283338338137">
<ele>494</ele>
<time>2024-05-10T10:03:10Z</time>
</trkpt>
<trkpt lat="49.54682917334139" lon="9.14925953373313">
<ele>494.4</ele>
<time>2024-05-10T10:03:11Z</time>
</trkpt>
<trkpt lat="49.54685205593705" lon="9.14923950098455">
<ele>494.6</ele>
<time>2024-05-10T10:03:12Z</time>
</trkpt>
<trkpt lat="49.54687879420817" lon="9.149214690551162">
<ele>495</ele>
<time>2024-05-10T10:03:13Z</time>
</trkpt>
<trkpt lat="49.5469359587878" lon="9.149173703044651">
<ele>495.2</ele>
<time>2024-05-10T10:03:15Z</time>
</trkpt>
<trkpt lat="49.54696269705891" lon="9.149154592305422">
<ele>495.4</ele>
<time>2024-05-10T10:03:16Z</time>
</trkpt>
<trkpt lat="49.54699320718646" lon="9.149133637547491">
<ele>495.6</ele>
<time>2024-05-10T10:03:17Z</time>
</trkpt>
<trkpt lat="49.54701608978212" lon="9.149113604798911">
<ele>495.6</ele>
<time>2024-05-10T10:03:18Z</time>
</trkpt>
<trkpt lat="49.54707333818078" lon="9.149074545130134">
<ele>495.8</ele>
<time>2024-05-10T10:03:20Z</time>
</trkpt>
<trkpt lat="49.547099992632866" lon="9.149053506553171">
<ele>496</ele>
<time>2024-05-10T10:03:21Z</time>
</trkpt>
<trkpt lat="49.54712287522853" lon="9.149026852101088">
<ele>496.2</ele>
<time>2024-05-10T10:03:22Z</time>
</trkpt>
<trkpt lat="49.547141985967755" lon="9.14900011382997">
<ele>496.4</ele>
<time>2024-05-10T10:03:23Z</time>
</trkpt>
<trkpt lat="49.5471724960953" lon="9.148933393880723">
<ele>496.6</ele>
<time>2024-05-10T10:03:25Z</time>
</trkpt>
<trkpt lat="49.547180123627186" lon="9.148898106068373">
<ele>496.8</ele>
<time>2024-05-10T10:03:26Z</time>
</trkpt>
<trkpt lat="49.547180123627186" lon="9.148866590112448">
<ele>497</ele>
<time>2024-05-10T10:03:27Z</time>
</trkpt>
<trkpt lat="49.54717635177076" lon="9.148837085813284">
<ele>497.2</ele>
<time>2024-05-10T10:03:28Z</time>
</trkpt>
<trkpt lat="49.5471534691751" lon="9.14878654293716">
<ele>497.4</ele>
<time>2024-05-10T10:03:30Z</time>
</trkpt>
<trkpt lat="49.547141985967755" lon="9.148755026981236">
<ele>497.6</ele>
<time>2024-05-10T10:03:31Z</time>
</trkpt>
<trkpt lat="49.54713050276041" lon="9.14872451685369">
<ele>497.8</ele>
<time>2024-05-10T10:03:32Z</time>
</trkpt>
<trkpt lat="49.54711524769664" lon="9.148694928735496">
<ele>498.2</ele>
<time>2024-05-10T10:03:33Z</time>
</trkpt>
<trkpt lat="49.54708859324455" lon="9.148636758327484">
<ele>498.4</ele>
<time>2024-05-10T10:03:35Z</time>
</trkpt>
<trkpt lat="49.54707711003721" lon="9.14860817603767">
<ele>498.4</ele>
<time>2024-05-10T10:03:36Z</time>
</trkpt>
<trkpt lat="49.547061854973435" lon="9.148581437766552">
<ele>498.6</ele>
<time>2024-05-10T10:03:37Z</time>
</trkpt>
<trkpt lat="49.54704659990966" lon="9.148552855476735">
<ele>498.8</ele>
<time>2024-05-10T10:03:38Z</time>
</trkpt>
<trkpt lat="49.54701231792569" lon="9.148485129699113">
<ele>498.8</ele>
<time>2024-05-10T10:03:40Z</time>
</trkpt>
<trkpt lat="49.54699706286192" lon="9.14844791404903">
<ele>499</ele>
<time>2024-05-10T10:03:41Z</time>
</trkpt>
<trkpt lat="49.54698180779815" lon="9.1484097763896">
<ele>499.2</ele>
<time>2024-05-10T10:03:42Z</time>
</trkpt>
<trkpt lat="49.546966552734375" lon="9.148371638730168">
<ele>499.4</ele>
<time>2024-05-10T10:03:43Z</time>
</trkpt>
<trkpt lat="49.5469359587878" lon="9.148291507735848">
<ele>499.6</ele>
<time>2024-05-10T10:03:45Z</time>
</trkpt>
<trkpt lat="49.546924559399486" lon="9.14825152605772">
<ele>499.6</ele>
<time>2024-05-10T10:03:46Z</time>
</trkpt>
<trkpt lat="49.54690930433571" lon="9.14821146056056">
<ele>499.8</ele>
<time>2024-05-10T10:03:47Z</time>
</trkpt>
<trkpt lat="49.54689404927194" lon="9.1481713950634">
<ele>500</ele>
<time>2024-05-10T10:03:48Z</time>
</trkpt>
<trkpt lat="49.54685968346894" lon="9.148090342059731">
<ele>500.2</ele>
<time>2024-05-10T10:03:50Z</time>
</trkpt>
<trkpt lat="49.546848284080625" lon="9.148050276562572">
<ele>500.4</ele>
<time>2024-05-10T10:03:51Z</time>
</trkpt>
<trkpt lat="49.54683680087328" lon="9.148010211065412">
<ele>500.4</ele>
<time>2024-05-10T10:03:52Z</time>
</trkpt>
<trkpt lat="49.54682154580951" lon="9.147968217730522">
<ele>500.6</ele>
<time>2024-05-10T10:03:53Z</time>
</trkpt>
<trkpt lat="49.54679489135742" lon="9.147885320708156">
<ele>500.8</ele>
<time>2024-05-10T10:03:55Z</time>
</trkpt>
<trkpt lat="49.54677955247462" lon="9.147845255210996">
<ele>501</ele>
<time>2024-05-10T10:03:56Z</time>
</trkpt>
<trkpt lat="49.54676052555442" lon="9.147801334038377">
<ele>501.2</ele>
<time>2024-05-10T10:03:57Z</time>
</trkpt>
<trkpt lat="49.546745270490646" lon="9.14775841869414">
<ele>501.6</ele>
<time>2024-05-10T10:03:58Z</time>
</trkpt>
<trkpt lat="49.5467147603631" lon="9.14767644368112">
<ele>501.8</ele>
<time>2024-05-10T10:04:00Z</time>
</trkpt>
<trkpt lat="49.54670327715576" lon="9.147633528336884">
<ele>502</ele>
<time>2024-05-10T10:04:01Z</time>
</trkpt>
<trkpt lat="49.54669187776744" lon="9.147588685154917">
<ele>502.2</ele>
<time>2024-05-10T10:04:02Z</time>
</trkpt>
<trkpt lat="49.54667662270367" lon="9.147544847801328">
<ele>502.4</ele>
<time>2024-05-10T10:04:03Z</time>
</trkpt>
<trkpt lat="49.546649884432554" lon="9.14745801128447">
<ele>502.6</ele>
<time>2024-05-10T10:04:05Z</time>
</trkpt>
<trkpt lat="49.54663462936878" lon="9.147415095940232">
<ele>502.8</ele>
<time>2024-05-10T10:04:06Z</time>
</trkpt>
<trkpt lat="49.54662322998047" lon="9.147371258586643">
<ele>503</ele>
<time>2024-05-10T10:04:07Z</time>
</trkpt>
<trkpt lat="49.54661174677312" lon="9.147328343242409">
<ele>503.2</ele>
<time>2024-05-10T10:04:08Z</time>
</trkpt>
<trkpt lat="49.54658500850201" lon="9.14724159054458">
<ele>503.4</ele>
<time>2024-05-10T10:04:10Z</time>
</trkpt>
<trkpt lat="49.54657360911369" lon="9.147194819524884">
<ele>503.6</ele>
<time>2024-05-10T10:04:11Z</time>
</trkpt>
<trkpt lat="49.54656598158181" lon="9.14714813232422">
<ele>503.8</ele>
<time>2024-05-10T10:04:12Z</time>
</trkpt>
<trkpt lat="49.54655449837446" lon="9.147101361304522">
<ele>503.8</ele>
<time>2024-05-10T10:04:13Z</time>
</trkpt>
<trkpt lat="49.54653547145426" lon="9.147013602778316">
<ele>503.8</ele>
<time>2024-05-10T10:04:15Z</time>
</trkpt>
<trkpt lat="49.54652784392238" lon="9.146969765424728">
<ele>504</ele>
<time>2024-05-10T10:04:16Z</time>
</trkpt>
<trkpt lat="49.54652021639049" lon="9.14692685008049">
<ele>504</ele>
<time>2024-05-10T10:04:17Z</time>
</trkpt>
<trkpt lat="49.54651636071503" lon="9.146889634430408">
<ele>504.2</ele>
<time>2024-05-10T10:04:18Z</time>
</trkpt>
<trkpt lat="49.54649347811937" lon="9.146818136796355">
<ele>504.4</ele>
<time>2024-05-10T10:04:20Z</time>
</trkpt>
<trkpt lat="49.54648585058749" lon="9.146775221452115">
<ele>504.8</ele>
<time>2024-05-10T10:04:21Z</time>
</trkpt>
<trkpt lat="49.5464782230556" lon="9.146717973053455">
<ele>505</ele>
<time>2024-05-10T10:04:22Z</time>
</trkpt>
<trkpt lat="49.54646682366729" lon="9.14666835218668">
<ele>505.2</ele>
<time>2024-05-10T10:04:23Z</time>
</trkpt>
<trkpt lat="49.54645156860352" lon="9.14657020010054">
<ele>505.2</ele>
<time>2024-05-10T10:04:25Z</time>
</trkpt>
<trkpt lat="49.5464438572526" lon="9.146523429080844">
<ele>505.4</ele>
<time>2024-05-10T10:04:26Z</time>
</trkpt>
<trkpt lat="49.54643622972071" lon="9.146476741880178">
<ele>505.6</ele>
<time>2024-05-10T10:04:27Z</time>
</trkpt>
<trkpt lat="49.5464248303324" lon="9.14643189869821">
<ele>505.8</ele>
<time>2024-05-10T10:04:28Z</time>
</trkpt>
<trkpt lat="49.54639809206128" lon="9.146343218162656">
<ele>506</ele>
<time>2024-05-10T10:04:30Z</time>
</trkpt>
<trkpt lat="49.54638283699751" lon="9.146298374980688">
<ele>506.2</ele>
<time>2024-05-10T10:04:31Z</time>
</trkpt>
<trkpt lat="49.5463714376092" lon="9.14625353179872">
<ele>506.4</ele>
<time>2024-05-10T10:04:32Z</time>
</trkpt>
<trkpt lat="49.546352326869965" lon="9.146208688616753">
<ele>506.6</ele>
<time>2024-05-10T10:04:33Z</time>
</trkpt>
<trkpt lat="49.54632567241788" lon="9.146120008081198">
<ele>506.8</ele>
<time>2024-05-10T10:04:35Z</time>
</trkpt>
<trkpt lat="49.54630656167865" lon="9.146075248718262">
<ele>507</ele>
<time>2024-05-10T10:04:36Z</time>
</trkpt>
<trkpt lat="49.54629130661488" lon="9.146030405536294">
<ele>507.2</ele>
<time>2024-05-10T10:04:37Z</time>
</trkpt>
<trkpt lat="49.546276051551104" lon="9.145986484363675">
<ele>507.4</ele>
<time>2024-05-10T10:04:38Z</time>
</trkpt>
<trkpt lat="49.54624554142356" lon="9.145894953981042">
<ele>507.4</ele>
<time>2024-05-10T10:04:40Z</time>
</trkpt>
<trkpt lat="49.54623028635979" lon="9.145846338942649">
<ele>507.6</ele>
<time>2024-05-10T10:04:41Z</time>
</trkpt>
<trkpt lat="49.546215031296015" lon="9.14579956792295">
<ele>507.6</ele>
<time>2024-05-10T10:04:42Z</time>
</trkpt>
<trkpt lat="49.54619977623224" lon="9.145752880722284">
<ele>507.8</ele>
<time>2024-05-10T10:04:43Z</time>
</trkpt>
<trkpt lat="49.546173037961125" lon="9.14565841667354">
<ele>508</ele>
<time>2024-05-10T10:04:45Z</time>
</trkpt>
<trkpt lat="49.546154011040926" lon="9.145606951788068">
<ele>508.2</ele>
<time>2024-05-10T10:04:46Z</time>
</trkpt>
<trkpt lat="49.546138755977154" lon="9.145553559064863">
<ele>508.4</ele>
<time>2024-05-10T10:04:47Z</time>
</trkpt>
<trkpt lat="49.54612350091338" lon="9.145500166341662">
<ele>508.4</ele>
<time>2024-05-10T10:04:48Z</time>
</trkpt>
<trkpt lat="49.546092906966805" lon="9.145401930436492">
<ele>508.6</ele>
<time>2024-05-10T10:04:50Z</time>
</trkpt>
<trkpt lat="49.54607765190303" lon="9.145357087254524">
<ele>508.6</ele>
<time>2024-05-10T10:04:51Z</time>
</trkpt>
<trkpt lat="49.54606239683926" lon="9.145311322063208">
<ele>508.8</ele>
<time>2024-05-10T10:04:52Z</time>
</trkpt>
<trkpt lat="49.54605099745095" lon="9.145263629034162">
<ele>508.8</ele>
<time>2024-05-10T10:04:53Z</time>
</trkpt>
<trkpt lat="49.54602811485529" lon="9.145173020660875">
<ele>509</ele>
<time>2024-05-10T10:04:55Z</time>
</trkpt>
<trkpt lat="49.546016631647944" lon="9.14512817747891">
<ele>509</ele>
<time>2024-05-10T10:04:56Z</time>
</trkpt>
<trkpt lat="49.54600523225963" lon="9.145081490278244">
<ele>509</ele>
<time>2024-05-10T10:04:57Z</time>
</trkpt>
<trkpt lat="49.545993749052286" lon="9.145034719258549">
<ele>509</ele>
<time>2024-05-10T10:04:58Z</time>
</trkpt>
<trkpt lat="49.54597472213209" lon="9.144943188875914">
<ele>509.2</ele>
<time>2024-05-10T10:05:00Z</time>
</trkpt>
<trkpt lat="49.5459670946002" lon="9.144898345693946">
<ele>509.2</ele>
<time>2024-05-10T10:05:01Z</time>
</trkpt>
<trkpt lat="49.545959467068315" lon="9.14485358633101">
<ele>509.4</ele>
<time>2024-05-10T10:05:02Z</time>
</trkpt>
<trkpt lat="49.54595183953643" lon="9.144808743149042">
<ele>509.4</ele>
<time>2024-05-10T10:05:03Z</time>
</trkpt>
<trkpt lat="49.5459327287972" lon="9.144718134775758">
<ele>509.6</ele>
<time>2024-05-10T10:05:05Z</time>
</trkpt>
<trkpt lat="49.54592510126531" lon="9.14467136375606">
<ele>509.6</ele>
<time>2024-05-10T10:05:06Z</time>
</trkpt>
<trkpt lat="49.545913618057966" lon="9.144626604393125">
<ele>509.8</ele>
<time>2024-05-10T10:05:07Z</time>
</trkpt>
<trkpt lat="49.54590599052608" lon="9.144583689048886">
<ele>509.8</ele>
<time>2024-05-10T10:05:08Z</time>
</trkpt>
<trkpt lat="49.54589073546231" lon="9.144488302990794">
<ele>510</ele>
<time>2024-05-10T10:05:10Z</time>
</trkpt>
<trkpt lat="49.54588310793042" lon="9.144443459808826">
<ele>510</ele>
<time>2024-05-10T10:05:11Z</time>
</trkpt>
<trkpt lat="49.54587170854211" lon="9.14439861662686">
<ele>510.2</ele>
<time>2024-05-10T10:05:12Z</time>
</trkpt>
<trkpt lat="49.54586408101022" lon="9.144352851435542">
<ele>510.2</ele>
<time>2024-05-10T10:05:13Z</time>
</trkpt>
<trkpt lat="49.54584882594645" lon="9.144263248890638">
<ele>510.4</ele>
<time>2024-05-10T10:05:15Z</time>
</trkpt>
<trkpt lat="49.54584119841456" lon="9.1442203335464">
<ele>510.6</ele>
<time>2024-05-10T10:05:16Z</time>
</trkpt>
<trkpt lat="49.54582208767533" lon="9.144133497029545">
<ele>510.8</ele>
<time>2024-05-10T10:05:18Z</time>
</trkpt>
<trkpt lat="49.54580683261156" lon="9.144046744331716">
<ele>511</ele>
<time>2024-05-10T10:05:20Z</time>
</trkpt>
<trkpt lat="49.545803060755134" lon="9.14400290697813">
<ele>511.2</ele>
<time>2024-05-10T10:05:21Z</time>
</trkpt>
<trkpt lat="49.54579157754779" lon="9.143959991633892">
<ele>511.4</ele>
<time>2024-05-10T10:05:22Z</time>
</trkpt>
<trkpt lat="49.5457839500159" lon="9.143915148451924">
<ele>511.6</ele>
<time>2024-05-10T10:05:23Z</time>
</trkpt>
<trkpt lat="49.54577255062759" lon="9.143828311935067">
<ele>511.8</ele>
<time>2024-05-10T10:05:25Z</time>
</trkpt>
<trkpt lat="49.5457649230957" lon="9.14378640241921">
<ele>512</ele>
<time>2024-05-10T10:05:26Z</time>
</trkpt>
<trkpt lat="49.545757211744785" lon="9.14374633692205">
<ele>512.2</ele>
<time>2024-05-10T10:05:27Z</time>
</trkpt>
<trkpt lat="49.54574581235647" lon="9.143701493740082">
<ele>512.599</ele>
<time>2024-05-10T10:05:28Z</time>
</trkpt>
<trkpt lat="49.5457305572927" lon="9.143609963357449">
<ele>512.8</ele>
<time>2024-05-10T10:05:30Z</time>
</trkpt>
<trkpt lat="49.545719074085355" lon="9.14356512017548">
<ele>513.2</ele>
<time>2024-05-10T10:05:31Z</time>
</trkpt>
<trkpt lat="49.54570767469704" lon="9.143520276993511">
<ele>513.4</ele>
<time>2024-05-10T10:05:32Z</time>
</trkpt>
<trkpt lat="49.5456961914897" lon="9.143474511802197">
<ele>513.599</ele>
<time>2024-05-10T10:05:33Z</time>
</trkpt>
<trkpt lat="49.54568479210138" lon="9.14342975243926">
<ele>513.8</ele>
<time>2024-05-10T10:05:34Z</time>
</trkpt>
<trkpt lat="49.54567330889404" lon="9.143382059410214">
<ele>514</ele>
<time>2024-05-10T10:05:35Z</time>
</trkpt>
<trkpt lat="49.54566568136215" lon="9.143335288390515">
<ele>514.2</ele>
<time>2024-05-10T10:05:36Z</time>
</trkpt>
<trkpt lat="49.545658053830266" lon="9.143288601189852">
<ele>514.2</ele>
<time>2024-05-10T10:05:37Z</time>
</trkpt>
<trkpt lat="49.54564665444195" lon="9.143241830170156">
<ele>514.4</ele>
<time>2024-05-10T10:05:38Z</time>
</trkpt>
<trkpt lat="49.545623771846294" lon="9.1431531496346">
<ele>514.599</ele>
<time>2024-05-10T10:05:40Z</time>
</trkpt>
<trkpt lat="49.54561228863895" lon="9.14311023429036">
<ele>514.8</ele>
<time>2024-05-10T10:05:41Z</time>
</trkpt>
<trkpt lat="49.54560088925064" lon="9.143068240955472">
<ele>515</ele>
<time>2024-05-10T10:05:42Z</time>
</trkpt>
<trkpt lat="49.54559326171875" lon="9.143026331439614">
<ele>515.2</ele>
<time>2024-05-10T10:05:43Z</time>
</trkpt>
<trkpt lat="49.54557415097952" lon="9.142943350598216">
<ele>515.4</ele>
<time>2024-05-10T10:05:45Z</time>
</trkpt>
<trkpt lat="49.545562667772174" lon="9.142903285101056">
<ele>515.599</ele>
<time>2024-05-10T10:05:46Z</time>
</trkpt>
<trkpt lat="49.5455474127084" lon="9.142863219603896">
<ele>515.8</ele>
<time>2024-05-10T10:05:47Z</time>
</trkpt>
<trkpt lat="49.54553601332009" lon="9.142825081944466">
<ele>516</ele>
<time>2024-05-10T10:05:48Z</time>
</trkpt>
<trkpt lat="49.54551313072443" lon="9.142747800797224">
<ele>516.2</ele>
<time>2024-05-10T10:05:50Z</time>
</trkpt>
<trkpt lat="49.5454940199852" lon="9.142708741128445">
<ele>516.4</ele>
<time>2024-05-10T10:05:51Z</time>
</trkpt>
<trkpt lat="49.54547876492143" lon="9.142668675631285">
<ele>516.4</ele>
<time>2024-05-10T10:05:52Z</time>
</trkpt>
<trkpt lat="49.545463509857655" lon="9.142629615962504">
<ele>516.599</ele>
<time>2024-05-10T10:05:53Z</time>
</trkpt>
<trkpt lat="49.545425372198224" lon="9.142548479139805">
<ele>516.8</ele>
<time>2024-05-10T10:05:55Z</time>
</trkpt>
<trkpt lat="49.54540626145899" lon="9.142506569623947">
<ele>517</ele>
<time>2024-05-10T10:05:56Z</time>
</trkpt>
<trkpt lat="49.54539100639522" lon="9.142464576289058">
<ele>517.2</ele>
<time>2024-05-10T10:05:57Z</time>
</trkpt>
<trkpt lat="49.54537197947502" lon="9.142424510791898">
<ele>517.4</ele>
<time>2024-05-10T10:05:58Z</time>
</trkpt>
<trkpt lat="49.54533761367202" lon="9.142345385625958">
<ele>517.599</ele>
<time>2024-05-10T10:06:00Z</time>
</trkpt>
<trkpt lat="49.54531858675182" lon="9.142305320128798">
<ele>517.8</ele>
<time>2024-05-10T10:06:01Z</time>
</trkpt>
<trkpt lat="49.54529947601259" lon="9.14226626046002">
<ele>518</ele>
<time>2024-05-10T10:06:02Z</time>
</trkpt>
<trkpt lat="49.54528044909239" lon="9.142229966819286">
<ele>518.2</ele>
<time>2024-05-10T10:06:03Z</time>
</trkpt>
<trkpt lat="49.545242227613926" lon="9.142156541347504">
<ele>518.4</ele>
<time>2024-05-10T10:06:05Z</time>
</trkpt>
<trkpt lat="49.54522320069373" lon="9.142116475850344">
<ele>518.599</ele>
<time>2024-05-10T10:06:06Z</time>
</trkpt>
<trkpt lat="49.54520031809807" lon="9.142080266028644">
<ele>518.8</ele>
<time>2024-05-10T10:06:07Z</time>
</trkpt>
<trkpt lat="49.545185063034296" lon="9.142041206359863">
<ele>519</ele>
<time>2024-05-10T10:06:08Z</time>
</trkpt>
<trkpt lat="49.54515069723129" lon="9.141976330429316">
<ele>519.2</ele>
<time>2024-05-10T10:06:10Z</time>
</trkpt>
<trkpt lat="49.54513544216752" lon="9.14194674231112">
<ele>519.4</ele>
<time>2024-05-10T10:06:11Z</time>
</trkpt>
<trkpt lat="49.54512404277921" lon="9.141913382336496">
<ele>519.4</ele>
<time>2024-05-10T10:06:12Z</time>
</trkpt>
<trkpt lat="49.545108787715435" lon="9.141876166686416">
<ele>519.599</ele>
<time>2024-05-10T10:06:13Z</time>
</trkpt>
<trkpt lat="49.545066794380546" lon="9.14181036874652">
<ele>519.8</ele>
<time>2024-05-10T10:06:15Z</time>
</trkpt>
<trkpt lat="49.54504391178489" lon="9.141773153096436">
<ele>519.8</ele>
<time>2024-05-10T10:06:16Z</time>
</trkpt>
<trkpt lat="49.54502102918923" lon="9.141736943274736">
<ele>520</ele>
<time>2024-05-10T10:06:17Z</time>
</trkpt>
<trkpt lat="49.54500191845" lon="9.141701655462384">
<ele>520.2</ele>
<time>2024-05-10T10:06:18Z</time>
</trkpt>
<trkpt lat="49.54497140832245" lon="9.141639629378917">
<ele>520.2</ele>
<time>2024-05-10T10:06:20Z</time>
</trkpt>
<trkpt lat="49.544952381402254" lon="9.141608197242022">
<ele>520.4</ele>
<time>2024-05-10T10:06:21Z</time>
</trkpt>
<trkpt lat="49.54493327066302" lon="9.141576765105128">
<ele>520.4</ele>
<time>2024-05-10T10:06:22Z</time>
</trkpt>
<trkpt lat="49.54491801559925" lon="9.141543321311474">
<ele>520.599</ele>
<time>2024-05-10T10:06:23Z</time>
</trkpt>
<trkpt lat="49.54487987793982" lon="9.141485150903463">
<ele>520.599</ele>
<time>2024-05-10T10:06:25Z</time>
</trkpt>
<trkpt lat="49.54486462287605" lon="9.141456568613648">
<ele>520.599</ele>
<time>2024-05-10T10:06:26Z</time>
</trkpt>
<trkpt lat="49.54484174028039" lon="9.141426980495453">
<ele>520.599</ele>
<time>2024-05-10T10:06:27Z</time>
</trkpt>
<trkpt lat="49.54482262954116" lon="9.14139454253018">
<ele>520.8</ele>
<time>2024-05-10T10:06:28Z</time>
</trkpt>
<trkpt lat="49.5447807200253" lon="9.14133159443736">
<ele>520.8</ele>
<time>2024-05-10T10:06:30Z</time>
</trkpt>
<trkpt lat="49.54475783742964" lon="9.141302090138195">
<ele>520.8</ele>
<time>2024-05-10T10:06:31Z</time>
</trkpt>
<trkpt lat="49.54473872669041" lon="9.141266802325845">
<ele>521</ele>
<time>2024-05-10T10:06:32Z</time>
</trkpt>
<trkpt lat="49.54471584409475" lon="9.141231514513493">
<ele>521.2</ele>
<time>2024-05-10T10:06:33Z</time>
</trkpt>
<trkpt lat="49.54467770643532" lon="9.141166638582945">
<ele>521.4</ele>
<time>2024-05-10T10:06:35Z</time>
</trkpt>
<trkpt lat="49.544654823839664" lon="9.141135206446052">
<ele>521.4</ele>
<time>2024-05-10T10:06:36Z</time>
</trkpt>
<trkpt lat="49.54462808556855" lon="9.141103690490128">
<ele>521.599</ele>
<time>2024-05-10T10:06:37Z</time>
</trkpt>
<trkpt lat="49.54460905864835" lon="9.141070330515504">
<ele>521.8</ele>
<time>2024-05-10T10:06:38Z</time>
</trkpt>
<trkpt lat="49.54456329345703" lon="9.141004532575607">
<ele>522</ele>
<time>2024-05-10T10:06:40Z</time>
</trkpt>
<trkpt lat="49.5445441827178" lon="9.140972094610332">
<ele>522</ele>
<time>2024-05-10T10:06:41Z</time>
</trkpt>
<trkpt lat="49.54452507197857" lon="9.14093965664506">
<ele>522.2</ele>
<time>2024-05-10T10:06:42Z</time>
</trkpt>
<trkpt lat="49.54450218938291" lon="9.14090344682336">
<ele>522.4</ele>
<time>2024-05-10T10:06:43Z</time>
</trkpt>
<trkpt lat="49.544456424191594" lon="9.140831865370274">
<ele>522.599</ele>
<time>2024-05-10T10:06:45Z</time>
</trkpt>
<trkpt lat="49.544437397271395" lon="9.14079850539565">
<ele>522.599</ele>
<time>2024-05-10T10:06:46Z</time>
</trkpt>
<trkpt lat="49.54441828653216" lon="9.140765145421028">
<ele>522.8</ele>
<time>2024-05-10T10:06:47Z</time>
</trkpt>
<trkpt lat="49.54439925961197" lon="9.140727929770948">
<ele>523</ele>
<time>2024-05-10T10:06:48Z</time>
</trkpt>
<trkpt lat="49.5443610381335" lon="9.140649726614356">
<ele>523.2</ele>
<time>2024-05-10T10:06:50Z</time>
</trkpt>
<trkpt lat="49.54433815553784" lon="9.140613516792657">
<ele>523.4</ele>
<time>2024-05-10T10:06:51Z</time>
</trkpt>
<trkpt lat="49.54431912861765" lon="9.140576301142572">
<ele>523.599</ele>
<time>2024-05-10T10:06:52Z</time>
</trkpt>
<trkpt lat="49.54430001787841" lon="9.140540091320872">
<ele>523.8</ele>
<time>2024-05-10T10:06:53Z</time>
</trkpt>
<trkpt lat="49.544280990958214" lon="9.140501953661442">
<ele>524</ele>
<time>2024-05-10T10:06:54Z</time>
</trkpt>
<trkpt lat="49.54426188021898" lon="9.140461888164282">
<ele>524</ele>
<time>2024-05-10T10:06:55Z</time>
</trkpt>
<trkpt lat="49.54424285329878" lon="9.140423750504851">
<ele>524.2</ele>
<time>2024-05-10T10:06:56Z</time>
</trkpt>
<trkpt lat="49.54422374255955" lon="9.14038460701704">
<ele>524.4</ele>
<time>2024-05-10T10:06:57Z</time>
</trkpt>
<trkpt lat="49.54420463182032" lon="9.14034454151988">
<ele>524.8</ele>
<time>2024-05-10T10:06:58Z</time>
</trkpt>
<trkpt lat="49.54416649416089" lon="9.140270194038749">
<ele>525</ele>
<time>2024-05-10T10:07:00Z</time>
</trkpt>
<trkpt lat="49.54414746724069" lon="9.140232056379318">
<ele>525.2</ele>
<time>2024-05-10T10:07:01Z</time>
</trkpt>
<trkpt lat="49.54413221217692" lon="9.140192912891507">
<ele>525.4</ele>
<time>2024-05-10T10:07:02Z</time>
</trkpt>
<trkpt lat="49.54411310143769" lon="9.14015293121338">
<ele>525.6</ele>
<time>2024-05-10T10:07:03Z</time>
</trkpt>
<trkpt lat="49.54409021884203" lon="9.140116637572646">
<ele>525.8</ele>
<time>2024-05-10T10:07:04Z</time>
</trkpt>
<trkpt lat="49.54407119192183" lon="9.140078499913216">
<ele>526</ele>
<time>2024-05-10T10:07:05Z</time>
</trkpt>
<trkpt lat="49.54404830932617" lon="9.140043212100863">
<ele>526.2</ele>
<time>2024-05-10T10:07:06Z</time>
</trkpt>
<trkpt lat="49.54402919858694" lon="9.140007002279162">
<ele>526.4</ele>
<time>2024-05-10T10:07:07Z</time>
</trkpt>
<trkpt lat="49.54401008784771" lon="9.13996978662908">
<ele>526.4</ele>
<time>2024-05-10T10:07:08Z</time>
</trkpt>
<trkpt lat="49.54396817833185" lon="9.139908766373992">
<ele>526.6</ele>
<time>2024-05-10T10:07:10Z</time>
</trkpt>
<trkpt lat="49.54395292326808" lon="9.139876328408718">
<ele>526.6</ele>
<time>2024-05-10T10:07:11Z</time>
</trkpt>
<trkpt lat="49.54393004067242" lon="9.139844812452791">
<ele>526.8</ele>
<time>2024-05-10T10:07:12Z</time>
</trkpt>
<trkpt lat="49.54390715807676" lon="9.139809608459473">
<ele>526.8</ele>
<time>2024-05-10T10:07:13Z</time>
</trkpt>
<trkpt lat="49.543865164741874" lon="9.139746660366654">
<ele>526.8</ele>
<time>2024-05-10T10:07:15Z</time>
</trkpt>
<trkpt lat="49.543842282146215" lon="9.13971514441073">
<ele>526.8</ele>
<time>2024-05-10T10:07:16Z</time>
</trkpt>
<trkpt lat="49.543823171406984" lon="9.139684634283183">
<ele>526.8</ele>
<time>2024-05-10T10:07:17Z</time>
</trkpt>
<trkpt lat="49.54381177201867" lon="9.13965504616499">
<ele>527</ele>
<time>2024-05-10T10:07:18Z</time>
</trkpt>
<trkpt lat="49.54377740621567" lon="9.139604503288863">
<ele>527</ele>
<time>2024-05-10T10:07:20Z</time>
</trkpt>
<trkpt lat="49.54375837929547" lon="9.139581620693209">
<ele>527.2</ele>
<time>2024-05-10T10:07:21Z</time>
</trkpt>
<trkpt lat="49.54373549669981" lon="9.139553038403392">
<ele>527.4</ele>
<time>2024-05-10T10:07:22Z</time>
</trkpt>
<trkpt lat="49.54371261410415" lon="9.139525378122926">
<ele>527.6</ele>
<time>2024-05-10T10:07:23Z</time>
</trkpt>
<trkpt lat="49.5436667650938" lon="9.13945673033595">
<ele>527.8</ele>
<time>2024-05-10T10:07:25Z</time>
</trkpt>
<trkpt lat="49.543643882498145" lon="9.139425214380026">
<ele>528</ele>
<time>2024-05-10T10:07:26Z</time>
</trkpt>
<trkpt lat="49.543624855577946" lon="9.13939470425248">
<ele>528.2</ele>
<time>2024-05-10T10:07:27Z</time>
</trkpt>
<trkpt lat="49.54360197298229" lon="9.139363272115588">
<ele>528.2</ele>
<time>2024-05-10T10:07:28Z</time>
</trkpt>
<trkpt lat="49.5435599796474" lon="9.139294624328612">
<ele>528.4</ele>
<time>2024-05-10T10:07:30Z</time>
</trkpt>
<trkpt lat="49.5435409527272" lon="9.13926025852561">
<ele>528.4</ele>
<time>2024-05-10T10:07:31Z</time>
</trkpt>
<trkpt lat="49.54352184198797" lon="9.1392211150378">
<ele>528.6</ele>
<time>2024-05-10T10:07:32Z</time>
</trkpt>
<trkpt lat="49.543506586924195" lon="9.13918205536902">
<ele>528.6</ele>
<time>2024-05-10T10:07:33Z</time>
</trkpt>
<trkpt lat="49.54348747618496" lon="9.139142911881208">
<ele>528.6</ele>
<time>2024-05-10T10:07:34Z</time>
</trkpt>
<trkpt lat="49.543468449264765" lon="9.139104774221778">
<ele>528.6</ele>
<time>2024-05-10T10:07:35Z</time>
</trkpt>
<trkpt lat="49.54345319420099" lon="9.139066636562347">
<ele>528.6</ele>
<time>2024-05-10T10:07:36Z</time>
</trkpt>
<trkpt lat="49.54343793913722" lon="9.139030426740646">
<ele>528.6</ele>
<time>2024-05-10T10:07:37Z</time>
</trkpt>
<trkpt lat="49.54342268407345" lon="9.138991283252835">
<ele>528.6</ele>
<time>2024-05-10T10:07:38Z</time>
</trkpt>
<trkpt lat="49.54340742900968" lon="9.138955073431134">
<ele>528.6</ele>
<time>2024-05-10T10:07:39Z</time>
</trkpt>
<trkpt lat="49.543388318270445" lon="9.138921713456511">
<ele>528.6</ele>
<time>2024-05-10T10:07:40Z</time>
</trkpt>
<trkpt lat="49.54337306320667" lon="9.138890197500588">
<ele>528.8</ele>
<time>2024-05-10T10:07:41Z</time>
</trkpt>
<trkpt lat="49.5433578081429" lon="9.13886446505785">
<ele>528.8</ele>
<time>2024-05-10T10:07:42Z</time>
</trkpt>
<trkpt lat="49.54333869740367" lon="9.138841582462192">
<ele>528.8</ele>
<time>2024-05-10T10:07:43Z</time>
</trkpt>
<trkpt lat="49.543308187276125" lon="9.13880537264049">
<ele>529</ele>
<time>2024-05-10T10:07:45Z</time>
</trkpt>
<trkpt lat="49.54330055974424" lon="9.13880537264049">
<ele>529</ele>
<time>2024-05-10T10:07:46Z</time>
</trkpt>
<trkpt lat="49.54329678788781" lon="9.13880537264049">
<ele>529</ele>
<time>2024-05-10T10:07:51Z</time>
</trkpt>
<trkpt lat="49.54329678788781" lon="9.13880344480276">
<ele>529</ele>
<time>2024-05-10T10:07:52Z</time>
</trkpt>
<trkpt lat="49.54329293221235" lon="9.138796739280224">
<ele>529</ele>
<time>2024-05-10T10:07:56Z</time>
</trkpt>
<trkpt lat="49.54328530468047" lon="9.13878626190126">
<ele>528.8</ele>
<time>2024-05-10T10:07:57Z</time>
</trkpt>
<trkpt lat="49.54327767714858" lon="9.138770084828138">
<ele>528.8</ele>
<time>2024-05-10T10:07:58Z</time>
</trkpt>
<trkpt lat="49.54326627776027" lon="9.13870613090694">
<ele>528.6</ele>
<time>2024-05-10T10:08:00Z</time>
</trkpt>
<trkpt lat="49.543270049616694" lon="9.138669921085238">
<ele>528.4</ele>
<time>2024-05-10T10:08:01Z</time>
</trkpt>
<trkpt lat="49.54327767714858" lon="9.138631783425808">
<ele>528.2</ele>
<time>2024-05-10T10:08:02Z</time>
</trkpt>
<trkpt lat="49.543289160355926" lon="9.138591717928648">
<ele>528</ele>
<time>2024-05-10T10:08:03Z</time>
</trkpt>
<trkpt lat="49.54331967048347" lon="9.138502115383744">
<ele>527.8</ele>
<time>2024-05-10T10:08:05Z</time>
</trkpt>
<trkpt lat="49.54333106987178" lon="9.138456266373396">
<ele>527.8</ele>
<time>2024-05-10T10:08:06Z</time>
</trkpt>
<trkpt lat="49.543346324935555" lon="9.13840957917273">
<ele>527.6</ele>
<time>2024-05-10T10:08:07Z</time>
</trkpt>
<trkpt lat="49.54336166381836" lon="9.138361886143684">
<ele>527.4</ele>
<time>2024-05-10T10:08:08Z</time>
</trkpt>
<trkpt lat="49.543388318270445" lon="9.138268427923322">
<ele>527.4</ele>
<time>2024-05-10T10:08:10Z</time>
</trkpt>
<trkpt lat="49.54339980147779" lon="9.138223584741354">
<ele>527.4</ele>
<time>2024-05-10T10:08:11Z</time>
</trkpt>
<trkpt lat="49.54341505654156" lon="9.13817496970296">
<ele>527.6</ele>
<time>2024-05-10T10:08:12Z</time>
</trkpt>
<trkpt lat="49.543426455929875" lon="9.138130126520991">
<ele>527.6</ele>
<time>2024-05-10T10:08:13Z</time>
</trkpt>
<trkpt lat="49.54344171099365" lon="9.138079583644869">
<ele>527.6</ele>
<time>2024-05-10T10:08:14Z</time>
</trkpt>
<trkpt lat="49.54345696605742" lon="9.138026190921664">
<ele>527.8</ele>
<time>2024-05-10T10:08:15Z</time>
</trkpt>
<trkpt lat="49.54347222112119" lon="9.137976570054889">
<ele>528</ele>
<time>2024-05-10T10:08:16Z</time>
</trkpt>
<trkpt lat="49.54349133186042" lon="9.137927033007143">
<ele>528</ele>
<time>2024-05-10T10:08:17Z</time>
</trkpt>
<trkpt lat="49.543506586924195" lon="9.137874562293293">
<ele>528.2</ele>
<time>2024-05-10T10:08:18Z</time>
</trkpt>
<trkpt lat="49.54351798631251" lon="9.137824941426516">
<ele>528.2</ele>
<time>2024-05-10T10:08:19Z</time>
</trkpt>
<trkpt lat="49.54353332519531" lon="9.137775404378772">
<ele>528.4</ele>
<time>2024-05-10T10:08:20Z</time>
</trkpt>
<trkpt lat="49.54355235211551" lon="9.137722933664918">
<ele>528.4</ele>
<time>2024-05-10T10:08:21Z</time>
</trkpt>
<trkpt lat="49.54356760717928" lon="9.137671468779445">
<ele>528.6</ele>
<time>2024-05-10T10:08:22Z</time>
</trkpt>
<trkpt lat="49.543582862243056" lon="9.137613214552402">
<ele>528.8</ele>
<time>2024-05-10T10:08:23Z</time>
</trkpt>
<trkpt lat="49.54360197298229" lon="9.13755697198212">
<ele>529</ele>
<time>2024-05-10T10:08:24Z</time>
</trkpt>
<trkpt lat="49.54362099990249" lon="9.137499807402492">
<ele>529.2</ele>
<time>2024-05-10T10:08:25Z</time>
</trkpt>
<trkpt lat="49.54364011064172" lon="9.137439709156752">
<ele>529.4</ele>
<time>2024-05-10T10:08:26Z</time>
</trkpt>
<trkpt lat="49.54365536570549" lon="9.13738153874874">
<ele>529.6</ele>
<time>2024-05-10T10:08:27Z</time>
</trkpt>
<trkpt lat="49.54367439262569" lon="9.137321440503">
<ele>529.8</ele>
<time>2024-05-10T10:08:28Z</time>
</trkpt>
<trkpt lat="49.54368964768946" lon="9.13726134225726">
<ele>530</ele>
<time>2024-05-10T10:08:29Z</time>
</trkpt>
<trkpt lat="49.543704986572266" lon="9.13720509968698">
<ele>530.2</ele>
<time>2024-05-10T10:08:30Z</time>
</trkpt>
<trkpt lat="49.543724013492465" lon="9.137149779126048">
<ele>530.2</ele>
<time>2024-05-10T10:08:31Z</time>
</trkpt>
<trkpt lat="49.543743124231696" lon="9.137098230421543">
<ele>530.4</ele>
<time>2024-05-10T10:08:32Z</time>
</trkpt>
<trkpt lat="49.543762151151896" lon="9.137041987851262">
<ele>530.4</ele>
<time>2024-05-10T10:08:33Z</time>
</trkpt>
<trkpt lat="49.54378126189113" lon="9.136982895433905">
<ele>530.2</ele>
<time>2024-05-10T10:08:34Z</time>
</trkpt>
<trkpt lat="49.543804144486785" lon="9.136924725025892">
<ele>530.2</ele>
<time>2024-05-10T10:08:35Z</time>
</trkpt>
<trkpt lat="49.543823171406984" lon="9.136866554617882">
<ele>530.2</ele>
<time>2024-05-10T10:08:36Z</time>
</trkpt>
<trkpt lat="49.54384605400264" lon="9.136810228228567">
<ele>530.2</ele>
<time>2024-05-10T10:08:37Z</time>
</trkpt>
<trkpt lat="49.543865164741874" lon="9.13675021380186">
<ele>530.4</ele>
<time>2024-05-10T10:08:38Z</time>
</trkpt>
<trkpt lat="49.54388804733753" lon="9.1366929654032">
<ele>530.4</ele>
<time>2024-05-10T10:08:39Z</time>
</trkpt>
<trkpt lat="49.54391092993319" lon="9.13663286715746">
<ele>530.4</ele>
<time>2024-05-10T10:08:40Z</time>
</trkpt>
<trkpt lat="49.54393004067242" lon="9.13656991906464">
<ele>530.4</ele>
<time>2024-05-10T10:08:41Z</time>
</trkpt>
<trkpt lat="49.54395292326808" lon="9.136505126953123">
<ele>530.4</ele>
<time>2024-05-10T10:08:42Z</time>
</trkpt>
<trkpt lat="49.54397580586374" lon="9.136440251022576">
<ele>530.4</ele>
<time>2024-05-10T10:08:43Z</time>
</trkpt>
<trkpt lat="49.54399868845939" lon="9.1363734472543">
<ele>530.4</ele>
<time>2024-05-10T10:08:44Z</time>
</trkpt>
<trkpt lat="49.544021571055055" lon="9.136304799467323">
<ele>530.4</ele>
<time>2024-05-10T10:08:45Z</time>
</trkpt>
<trkpt lat="49.54404830932617" lon="9.13623807951808">
<ele>530.2</ele>
<time>2024-05-10T10:08:46Z</time>
</trkpt>
<trkpt lat="49.54407496377826" lon="9.136170353740454">
<ele>530.2</ele>
<time>2024-05-10T10:08:47Z</time>
</trkpt>
<trkpt lat="49.544101702049375" lon="9.136103549972177">
<ele>530.2</ele>
<time>2024-05-10T10:08:48Z</time>
</trkpt>
<trkpt lat="49.54412835650146" lon="9.136033058166504">
<ele>530.2</ele>
<time>2024-05-10T10:08:49Z</time>
</trkpt>
<trkpt lat="49.54415509477258" lon="9.135963404551148">
<ele>530</ele>
<time>2024-05-10T10:08:50Z</time>
</trkpt>
<trkpt lat="49.54418174922466" lon="9.135892828926444">
<ele>530</ele>
<time>2024-05-10T10:08:51Z</time>
</trkpt>
<trkpt lat="49.54420848749578" lon="9.13582032546401">
<ele>530</ele>
<time>2024-05-10T10:08:52Z</time>
</trkpt>
<trkpt lat="49.54423899762333" lon="9.135747905820608">
<ele>530</ele>
<time>2024-05-10T10:08:53Z</time>
</trkpt>
<trkpt lat="49.54430001787841" lon="9.135596193373203">
<ele>529.8</ele>
<time>2024-05-10T10:08:55Z</time>
</trkpt>
<trkpt lat="49.54433438368142" lon="9.135518074035645">
<ele>529.8</ele>
<time>2024-05-10T10:08:56Z</time>
</trkpt>
<trkpt lat="49.54436489380896" lon="9.135439870879054">
<ele>529.8</ele>
<time>2024-05-10T10:08:57Z</time>
</trkpt>
<trkpt lat="49.544395403936505" lon="9.135359739884734">
<ele>529.8</ele>
<time>2024-05-10T10:08:58Z</time>
</trkpt>
<trkpt lat="49.544456424191594" lon="9.135194700211288">
<ele>529.8</ele>
<time>2024-05-10T10:09:00Z</time>
</trkpt>
<trkpt lat="49.5444907899946" lon="9.13511180318892">
<ele>529.8</ele>
<time>2024-05-10T10:09:01Z</time>
</trkpt>
<trkpt lat="49.54452507197857" lon="9.135021194815636">
<ele>529.6</ele>
<time>2024-05-10T10:09:02Z</time>
</trkpt>
<trkpt lat="49.54455943778157" lon="9.1349315084517">
<ele>529.4</ele>
<time>2024-05-10T10:09:03Z</time>
</trkpt>
<trkpt lat="49.544593803584576" lon="9.134836122393608">
<ele>529.2</ele>
<time>2024-05-10T10:09:04Z</time>
</trkpt>
<trkpt lat="49.54462808556855" lon="9.134739814326169">
<ele>529.2</ele>
<time>2024-05-10T10:09:05Z</time>
</trkpt>
<trkpt lat="49.54466622322798" lon="9.134641578420997">
<ele>529.2</ele>
<time>2024-05-10T10:09:06Z</time>
</trkpt>
<trkpt lat="49.54470058903098" lon="9.13453864865005">
<ele>529</ele>
<time>2024-05-10T10:09:07Z</time>
</trkpt>
<trkpt lat="49.544734954833984" lon="9.13443848490715">
<ele>529</ele>
<time>2024-05-10T10:09:08Z</time>
</trkpt>
<trkpt lat="49.54476923681795" lon="9.134334549307823">
<ele>528.8</ele>
<time>2024-05-10T10:09:09Z</time>
</trkpt>
<trkpt lat="49.5447997469455" lon="9.134233463555574">
<ele>528.6</ele>
<time>2024-05-10T10:09:10Z</time>
</trkpt>
<trkpt lat="49.544830257073045" lon="9.134128522127869">
<ele>528.6</ele>
<time>2024-05-10T10:09:11Z</time>
</trkpt>
<trkpt lat="49.54486462287605" lon="9.13402173668146">
<ele>528.4</ele>
<time>2024-05-10T10:09:12Z</time>
</trkpt>
<trkpt lat="49.54489513300359" lon="9.133916795253754">
<ele>528.2</ele>
<time>2024-05-10T10:09:13Z</time>
</trkpt>
<trkpt lat="49.54492564313114" lon="9.13380808196962">
<ele>527.8</ele>
<time>2024-05-10T10:09:14Z</time>
</trkpt>
<trkpt lat="49.54496000893414" lon="9.133696518838406">
<ele>527.4</ele>
<time>2024-05-10T10:09:15Z</time>
</trkpt>
<trkpt lat="49.544990519061685" lon="9.133582105860114">
<ele>527.2</ele>
<time>2024-05-10T10:09:16Z</time>
</trkpt>
<trkpt lat="49.545024801045656" lon="9.133464759215713">
<ele>526.8</ele>
<time>2024-05-10T10:09:17Z</time>
</trkpt>
<trkpt lat="49.54505916684866" lon="9.133346490561962">
<ele>526.4</ele>
<time>2024-05-10T10:09:18Z</time>
</trkpt>
<trkpt lat="49.54509353265166" lon="9.133226377889514">
<ele>525.8</ele>
<time>2024-05-10T10:09:19Z</time>
</trkpt>
<trkpt lat="49.54513544216752" lon="9.133103331550956">
<ele>525.2</ele>
<time>2024-05-10T10:09:20Z</time>
</trkpt>
<trkpt lat="49.54517743550241" lon="9.132978357374668">
<ele>524.8</ele>
<time>2024-05-10T10:09:21Z</time>
</trkpt>
<trkpt lat="49.54522320069373" lon="9.132866794243457">
<ele>524.2</ele>
<time>2024-05-10T10:09:22Z</time>
</trkpt>
<trkpt lat="49.54527659341693" lon="9.132755231112242">
<ele>523.599</ele>
<time>2024-05-10T10:09:23Z</time>
</trkpt>
<trkpt lat="49.545326214283705" lon="9.132644589990376">
<ele>523</ele>
<time>2024-05-10T10:09:24Z</time>
</trkpt>
<trkpt lat="49.54537575133145" lon="9.13253872655332">
<ele>522.4</ele>
<time>2024-05-10T10:09:25Z</time>
</trkpt>
<trkpt lat="49.545425372198224" lon="9.132438646629453">
<ele>521.8</ele>
<time>2024-05-10T10:09:26Z</time>
</trkpt>
<trkpt lat="49.545474993065" lon="9.132338482886553">
<ele>521</ele>
<time>2024-05-10T10:09:27Z</time>
</trkpt>
<trkpt lat="49.5455283857882" lon="9.132240246981382">
<ele>520.4</ele>
<time>2024-05-10T10:09:28Z</time>
</trkpt>
<trkpt lat="49.54559326171875" lon="9.132138239219785">
<ele>519.599</ele>
<time>2024-05-10T10:09:29Z</time>
</trkpt>
<trkpt lat="49.54565428197384" lon="9.132033297792075">
<ele>519</ele>
<time>2024-05-10T10:09:30Z</time>
</trkpt>
<trkpt lat="49.54571530222893" lon="9.131933134049175">
<ele>518.4</ele>
<time>2024-05-10T10:09:31Z</time>
</trkpt>
<trkpt lat="49.545776322484016" lon="9.131832048296928">
<ele>517.8</ele>
<time>2024-05-10T10:09:32Z</time>
</trkpt>
<trkpt lat="49.54583357088268" lon="9.131732890382407">
<ele>517.2</ele>
<time>2024-05-10T10:09:33Z</time>
</trkpt>
<trkpt lat="49.545898362994194" lon="9.131640354171395">
<ele>516.4</ele>
<time>2024-05-10T10:09:34Z</time>
</trkpt>
<trkpt lat="49.5459670946002" lon="9.13155167363584">
<ele>515.8</ele>
<time>2024-05-10T10:09:35Z</time>
</trkpt>
<trkpt lat="49.546035742387176" lon="9.131469698622825">
<ele>515.2</ele>
<time>2024-05-10T10:09:36Z</time>
</trkpt>
<trkpt lat="49.54610824584961" lon="9.131382862105966">
<ele>514.4</ele>
<time>2024-05-10T10:09:37Z</time>
</trkpt>
<trkpt lat="49.54618452116847" lon="9.131293259561062">
<ele>513.8</ele>
<time>2024-05-10T10:09:38Z</time>
</trkpt>
<trkpt lat="49.54626079648733" lon="9.131206506863236">
<ele>513.4</ele>
<time>2024-05-10T10:09:39Z</time>
</trkpt>
<trkpt lat="49.54634855501354" lon="9.131126375868917">
<ele>512.8</ele>
<time>2024-05-10T10:09:40Z</time>
</trkpt>
<trkpt lat="49.546428602188826" lon="9.131050100550056">
<ele>512.2</ele>
<time>2024-05-10T10:09:41Z</time>
</trkpt>
<trkpt lat="49.54651258885861" lon="9.130968041718006">
<ele>511.6</ele>
<time>2024-05-10T10:09:42Z</time>
</trkpt>
<trkpt lat="49.54660411924124" lon="9.130886988714336">
<ele>511</ele>
<time>2024-05-10T10:09:43Z</time>
</trkpt>
<trkpt lat="49.5466803945601" lon="9.130807863548398">
<ele>510.4</ele>
<time>2024-05-10T10:09:44Z</time>
</trkpt>
<trkpt lat="49.546768153086305" lon="9.13072681054473">
<ele>510</ele>
<time>2024-05-10T10:09:45Z</time>
</trkpt>
<trkpt lat="49.54685591161251" lon="9.130651457235215">
<ele>509.4</ele>
<time>2024-05-10T10:09:46Z</time>
</trkpt>
<trkpt lat="49.54693981446326" lon="9.130581803619862">
<ele>508.8</ele>
<time>2024-05-10T10:09:47Z</time>
</trkpt>
<trkpt lat="49.54700846225023" lon="9.130517933517694">
<ele>508.2</ele>
<time>2024-05-10T10:09:48Z</time>
</trkpt>
<trkpt lat="49.547084737569094" lon="9.13044827990234">
<ele>507.6</ele>
<time>2024-05-10T10:09:49Z</time>
</trkpt>
<trkpt lat="49.5471724960953" lon="9.130381559953094">
<ele>507</ele>
<time>2024-05-10T10:09:50Z</time>
</trkpt>
<trkpt lat="49.54725639894605" lon="9.130311906337738">
<ele>506.4</ele>
<time>2024-05-10T10:09:51Z</time>
</trkpt>
<trkpt lat="49.54734801314771" lon="9.130234709009528">
<ele>505.6</ele>
<time>2024-05-10T10:09:52Z</time>
</trkpt>
<trkpt lat="49.54744331538677" lon="9.130161283537744">
<ele>505</ele>
<time>2024-05-10T10:09:53Z</time>
</trkpt>
<trkpt lat="49.54755018465221" lon="9.13008970208466">
<ele>504.2</ele>
<time>2024-05-10T10:09:54Z</time>
</trkpt>
<trkpt lat="49.54764548689127" lon="9.130021976307034">
<ele>503.6</ele>
<time>2024-05-10T10:09:55Z</time>
</trkpt>
<trkpt lat="49.54774087294936" lon="9.129949556663632">
<ele>502.8</ele>
<time>2024-05-10T10:09:56Z</time>
</trkpt>
<trkpt lat="49.547836259007454" lon="9.129879903048275">
<ele>502.2</ele>
<time>2024-05-10T10:09:57Z</time>
</trkpt>
<trkpt lat="49.54792401753366" lon="9.129810333251951">
<ele>501.6</ele>
<time>2024-05-10T10:09:58Z</time>
</trkpt>
<trkpt lat="49.548011776059866" lon="9.129739757627249">
<ele>501</ele>
<time>2024-05-10T10:09:59Z</time>
</trkpt>
<trkpt lat="49.54809567891061" lon="9.129663398489356">
<ele>500.4</ele>
<time>2024-05-10T10:10:00Z</time>
</trkpt>
<trkpt lat="49.54816818237305" lon="9.129588045179844">
<ele>499.8</ele>
<time>2024-05-10T10:10:01Z</time>
</trkpt>
<trkpt lat="49.548248229548335" lon="9.12951847538352">
<ele>499.4</ele>
<time>2024-05-10T10:10:02Z</time>
</trkpt>
<trkpt lat="49.548328360542655" lon="9.129449827596543">
<ele>498.8</ele>
<time>2024-05-10T10:10:03Z</time>
</trkpt>
<trkpt lat="49.54840086400509" lon="9.12938017398119">
<ele>498.4</ele>
<time>2024-05-10T10:10:04Z</time>
</trkpt>
<trkpt lat="49.54845425672829" lon="9.12932007573545">
<ele>497.8</ele>
<time>2024-05-10T10:10:05Z</time>
</trkpt>
<trkpt lat="49.54851150512695" lon="9.129253355786204">
<ele>497.4</ele>
<time>2024-05-10T10:10:06Z</time>
</trkpt>
<trkpt lat="49.54856489785016" lon="9.12918470799923">
<ele>497</ele>
<time>2024-05-10T10:10:07Z</time>
</trkpt>
<trkpt lat="49.54861829057336" lon="9.129113126546144">
<ele>496.6</ele>
<time>2024-05-10T10:10:08Z</time>
</trkpt>
<trkpt lat="49.54867168329656" lon="9.129034923389554">
<ele>496.2</ele>
<time>2024-05-10T10:10:09Z</time>
</trkpt>
<trkpt lat="49.54871367663145" lon="9.128952026367188">
<ele>496</ele>
<time>2024-05-10T10:10:10Z</time>
</trkpt>
<trkpt lat="49.54875944182277" lon="9.128869967535138">
<ele>495.6</ele>
<time>2024-05-10T10:10:11Z</time>
</trkpt>
<trkpt lat="49.548801351338625" lon="9.128793692216275">
<ele>495.2</ele>
<time>2024-05-10T10:10:12Z</time>
</trkpt>
<trkpt lat="49.548862455412745" lon="9.128701156005263">
<ele>495</ele>
<time>2024-05-10T10:10:13Z</time>
</trkpt>
<trkpt lat="49.5489043649286" lon="9.128618175163863">
<ele>494.8</ele>
<time>2024-05-10T10:10:14Z</time>
</trkpt>
<trkpt lat="49.54895013011992" lon="9.12852857261896">
<ele>494.6</ele>
<time>2024-05-10T10:10:15Z</time>
</trkpt>
<trkpt lat="49.54898826777935" lon="9.128441736102104">
<ele>494.4</ele>
<time>2024-05-10T10:10:16Z</time>
</trkpt>
<trkpt lat="49.5490341167897" lon="9.128357833251355">
<ele>494.2</ele>
<time>2024-05-10T10:10:17Z</time>
</trkpt>
<trkpt lat="49.549079881981015" lon="9.128279630094768">
<ele>494</ele>
<time>2024-05-10T10:10:18Z</time>
</trkpt>
<trkpt lat="49.549140902236104" lon="9.128190027549865">
<ele>493.8</ele>
<time>2024-05-10T10:10:19Z</time>
</trkpt>
<trkpt lat="49.54918666742742" lon="9.128100341185927">
<ele>493.6</ele>
<time>2024-05-10T10:10:20Z</time>
</trkpt>
<trkpt lat="49.54922866076231" lon="9.128009732812645">
<ele>493.4</ele>
<time>2024-05-10T10:10:21Z</time>
</trkpt>
<trkpt lat="49.54928205348551" lon="9.12791627459228">
<ele>493.2</ele>
<time>2024-05-10T10:10:22Z</time>
</trkpt>
<trkpt lat="49.54933159053326" lon="9.127828516066074">
<ele>493</ele>
<time>2024-05-10T10:10:23Z</time>
</trkpt>
<trkpt lat="49.549373583868146" lon="9.127741763368247">
<ele>492.8</ele>
<time>2024-05-10T10:10:24Z</time>
</trkpt>
<trkpt lat="49.549415577203035" lon="9.12766456604004">
<ele>492.6</ele>
<time>2024-05-10T10:10:25Z</time>
</trkpt>
<trkpt lat="49.549453714862466" lon="9.12758342921734">
<ele>492.4</ele>
<time>2024-05-10T10:10:26Z</time>
</trkpt>
<trkpt lat="49.54949948005378" lon="9.12750338204205">
<ele>492.2</ele>
<time>2024-05-10T10:10:27Z</time>
</trkpt>
<trkpt lat="49.54953761771321" lon="9.12742325104773">
<ele>492.2</ele>
<time>2024-05-10T10:10:28Z</time>
</trkpt>
<trkpt lat="49.54957575537264" lon="9.12734697572887">
<ele>492.2</ele>
<time>2024-05-10T10:10:29Z</time>
</trkpt>
<trkpt lat="49.54962152056396" lon="9.127271622419356">
<ele>491.8</ele>
<time>2024-05-10T10:10:30Z</time>
</trkpt>
<trkpt lat="49.54966351389885" lon="9.127191491425036">
<ele>491.6</ele>
<time>2024-05-10T10:10:31Z</time>
</trkpt>
<trkpt lat="49.54969779588282" lon="9.127113288268449">
<ele>491.4</ele>
<time>2024-05-10T10:10:32Z</time>
</trkpt>
<trkpt lat="49.54973978921771" lon="9.127024607732892">
<ele>491.2</ele>
<time>2024-05-10T10:10:33Z</time>
</trkpt>
<trkpt lat="49.5497817825526" lon="9.126935005187988">
<ele>490.8</ele>
<time>2024-05-10T10:10:34Z</time>
</trkpt>
<trkpt lat="49.54982754774392" lon="9.126838613301516">
<ele>490.4</ele>
<time>2024-05-10T10:10:35Z</time>
</trkpt>
<trkpt lat="49.54987331293523" lon="9.126741383224726">
<ele>490</ele>
<time>2024-05-10T10:10:36Z</time>
</trkpt>
<trkpt lat="49.54992293380201" lon="9.12663359194994">
<ele>489.8</ele>
<time>2024-05-10T10:10:37Z</time>
</trkpt>
<trkpt lat="49.54998009838164" lon="9.126524878665805">
<ele>489.4</ele>
<time>2024-05-10T10:10:38Z</time>
</trkpt>
<trkpt lat="49.55004111863673" lon="9.126411387696862">
<ele>489</ele>
<time>2024-05-10T10:10:39Z</time>
</trkpt>
<trkpt lat="49.55009836703539" lon="9.126303596422076">
<ele>488.6</ele>
<time>2024-05-10T10:10:40Z</time>
</trkpt>
<trkpt lat="49.55015175975859" lon="9.12619488313794">
<ele>488</ele>
<time>2024-05-10T10:10:41Z</time>
</trkpt>
<trkpt lat="49.550205152481794" lon="9.126085247844458">
<ele>487.6</ele>
<time>2024-05-10T10:10:42Z</time>
</trkpt>
<trkpt lat="49.550266256555915" lon="9.125973684713244">
<ele>487.2</ele>
<time>2024-05-10T10:10:43Z</time>
</trkpt>
<trkpt lat="49.55031579360366" lon="9.125862121582031">
<ele>486.8</ele>
<time>2024-05-10T10:10:44Z</time>
</trkpt>
<trkpt lat="49.55036918632686" lon="9.125753324478865">
<ele>486.4</ele>
<time>2024-05-10T10:10:45Z</time>
</trkpt>
<trkpt lat="49.550422662869096" lon="9.125641761347651">
<ele>486.2</ele>
<time>2024-05-10T10:10:46Z</time>
</trkpt>
<trkpt lat="49.55046842806041" lon="9.125524498522282">
<ele>485.8</ele>
<time>2024-05-10T10:10:47Z</time>
</trkpt>
<trkpt lat="49.55050656571984" lon="9.12540815770626">
<ele>485.4</ele>
<time>2024-05-10T10:10:48Z</time>
</trkpt>
<trkpt lat="49.55053707584739" lon="9.12529181689024">
<ele>484.8</ele>
<time>2024-05-10T10:10:49Z</time>
</trkpt>
<trkpt lat="49.55056373029947" lon="9.12517547607422">
<ele>484.4</ele>
<time>2024-05-10T10:10:50Z</time>
</trkpt>
<trkpt lat="49.55059046857059" lon="9.125068606808782">
<ele>483.8</ele>
<time>2024-05-10T10:10:51Z</time>
</trkpt>
<trkpt lat="49.55061720684171" lon="9.124951343983412">
<ele>483.4</ele>
<time>2024-05-10T10:10:52Z</time>
</trkpt>
<trkpt lat="49.55064771696925" lon="9.12483307532966">
<ele>482.8</ele>
<time>2024-05-10T10:10:53Z</time>
</trkpt>
<trkpt lat="49.5506782270968" lon="9.124711956828833">
<ele>482.2</ele>
<time>2024-05-10T10:10:54Z</time>
</trkpt>
<trkpt lat="49.55070488154888" lon="9.124583210796118">
<ele>481.6</ele>
<time>2024-05-10T10:10:55Z</time>
</trkpt>
<trkpt lat="49.550735391676426" lon="9.124455386772752">
<ele>481.2</ele>
<time>2024-05-10T10:10:56Z</time>
</trkpt>
<trkpt lat="49.55076212994754" lon="9.12432479672134">
<ele>480.6</ele>
<time>2024-05-10T10:10:57Z</time>
</trkpt>
<trkpt lat="49.55078886821866" lon="9.124196972697971">
<ele>480</ele>
<time>2024-05-10T10:10:58Z</time>
</trkpt>
<trkpt lat="49.550819378346205" lon="9.124066298827527">
<ele>479.4</ele>
<time>2024-05-10T10:10:59Z</time>
</trkpt>
<trkpt lat="49.55084226094186" lon="9.123940402641892">
<ele>478.8</ele>
<time>2024-05-10T10:11:00Z</time>
</trkpt>
<trkpt lat="49.55087277106941" lon="9.123811656609178">
<ele>478.2</ele>
<time>2024-05-10T10:11:01Z</time>
</trkpt>
<trkpt lat="49.550895653665066" lon="9.123686766251922">
<ele>477.6</ele>
<time>2024-05-10T10:11:02Z</time>
</trkpt>
<trkpt lat="49.5509147644043" lon="9.123559948056936">
<ele>477</ele>
<time>2024-05-10T10:11:03Z</time>
</trkpt>
<trkpt lat="49.55093001946807" lon="9.123434973880649">
<ele>476.4</ele>
<time>2024-05-10T10:11:04Z</time>
</trkpt>
<trkpt lat="49.55095290206373" lon="9.123314777389169">
<ele>475.8</ele>
<time>2024-05-10T10:11:05Z</time>
</trkpt>
<trkpt lat="49.55097192898393" lon="9.12319365888834">
<ele>475.2</ele>
<time>2024-05-10T10:11:06Z</time>
</trkpt>
<trkpt lat="49.55099103972316" lon="9.123071618378162">
<ele>474.8</ele>
<time>2024-05-10T10:11:07Z</time>
</trkpt>
<trkpt lat="49.55101006664336" lon="9.122951505705714">
<ele>474</ele>
<time>2024-05-10T10:11:08Z</time>
</trkpt>
<trkpt lat="49.55102917738259" lon="9.122830387204884">
<ele>473.4</ele>
<time>2024-05-10T10:11:09Z</time>
</trkpt>
<trkpt lat="49.55104820430279" lon="9.122708262875676">
<ele>472.8</ele>
<time>2024-05-10T10:11:10Z</time>
</trkpt>
<trkpt lat="49.55106731504202" lon="9.122588150203228">
<ele>472.2</ele>
<time>2024-05-10T10:11:11Z</time>
</trkpt>
<trkpt lat="49.55108257010579" lon="9.122469881549478">
<ele>471.6</ele>
<time>2024-05-10T10:11:12Z</time>
</trkpt>
<trkpt lat="49.55110168084502" lon="9.122358318418264">
<ele>471</ele>
<time>2024-05-10T10:11:13Z</time>
</trkpt>
<trkpt lat="49.551116935908794" lon="9.122255304828286">
<ele>470.2</ele>
<time>2024-05-10T10:11:14Z</time>
</trkpt>
<trkpt lat="49.55112833529711" lon="9.122150363400578">
<ele>469.6</ele>
<time>2024-05-10T10:11:15Z</time>
</trkpt>
<trkpt lat="49.55114744603634" lon="9.12205028347671">
<ele>469.2</ele>
<time>2024-05-10T10:11:16Z</time>
</trkpt>
<trkpt lat="49.55116647295654" lon="9.121945342049004">
<ele>468.6</ele>
<time>2024-05-10T10:11:17Z</time>
</trkpt>
<trkpt lat="49.55118172802031" lon="9.121839478611946">
<ele>468</ele>
<time>2024-05-10T10:11:18Z</time>
</trkpt>
<trkpt lat="49.55119698308408" lon="9.121734537184238">
<ele>467.4</ele>
<time>2024-05-10T10:11:19Z</time>
</trkpt>
<trkpt lat="49.551216093823314" lon="9.121628757566214">
<ele>466.8</ele>
<time>2024-05-10T10:11:20Z</time>
</trkpt>
<trkpt lat="49.55123512074351" lon="9.121524738147857">
<ele>466.4</ele>
<time>2024-05-10T10:11:21Z</time>
</trkpt>
<trkpt lat="49.551254231482744" lon="9.121421808376908">
<ele>465.8</ele>
<time>2024-05-10T10:11:22Z</time>
</trkpt>
<trkpt lat="49.551273342221975" lon="9.121323572471738">
<ele>465.2</ele>
<time>2024-05-10T10:11:23Z</time>
</trkpt>
<trkpt lat="49.551292369142175" lon="9.121226258575916">
<ele>464.6</ele>
<time>2024-05-10T10:11:24Z</time>
</trkpt>
<trkpt lat="49.55131525173783" lon="9.121134728193285">
<ele>464.2</ele>
<time>2024-05-10T10:11:25Z</time>
</trkpt>
<trkpt lat="49.551334362477064" lon="9.121046969667075">
<ele>463.6</ele>
<time>2024-05-10T10:11:26Z</time>
</trkpt>
<trkpt lat="49.55134961754083" lon="9.120967844501138">
<ele>463.2</ele>
<time>2024-05-10T10:11:27Z</time>
</trkpt>
<trkpt lat="49.55136487260461" lon="9.12088486365974">
<ele>462.8</ele>
<time>2024-05-10T10:11:28Z</time>
</trkpt>
<trkpt lat="49.551406782120466" lon="9.1207246016711">
<ele>462.4</ele>
<time>2024-05-10T10:11:30Z</time>
</trkpt>
<trkpt lat="49.5514258928597" lon="9.12064639851451">
<ele>462</ele>
<time>2024-05-10T10:11:31Z</time>
</trkpt>
<trkpt lat="49.55144500359893" lon="9.120574900880456">
<ele>461.8</ele>
<time>2024-05-10T10:11:32Z</time>
</trkpt>
<trkpt lat="49.55146403051913" lon="9.12050818093121">
<ele>461.4</ele>
<time>2024-05-10T10:11:33Z</time>
</trkpt>
<trkpt lat="49.55149454064667" lon="9.120381278917192">
<ele>461.2</ele>
<time>2024-05-10T10:11:35Z</time>
</trkpt>
<trkpt lat="49.5515136513859" lon="9.120321264490483">
<ele>460.8</ele>
<time>2024-05-10T10:11:36Z</time>
</trkpt>
<trkpt lat="49.55154030583799" lon="9.120263094082476">
<ele>460.6</ele>
<time>2024-05-10T10:11:37Z</time>
</trkpt>
<trkpt lat="49.55156318843365" lon="9.120196290314198">
<ele>460.2</ele>
<time>2024-05-10T10:11:38Z</time>
</trkpt>
<trkpt lat="49.551586071029305" lon="9.120126720517874">
<ele>460.2</ele>
<time>2024-05-10T10:11:39Z</time>
</trkpt>
<trkpt lat="49.55161280930042" lon="9.120051367208362">
<ele>460.2</ele>
<time>2024-05-10T10:11:40Z</time>
</trkpt>
<trkpt lat="49.551628064364195" lon="9.11997794173658">
<ele>460</ele>
<time>2024-05-10T10:11:41Z</time>
</trkpt>
<trkpt lat="49.55164331942797" lon="9.119901582598686">
<ele>460</ele>
<time>2024-05-10T10:11:42Z</time>
</trkpt>
<trkpt lat="49.55165480263531" lon="9.119828157126904">
<ele>460</ele>
<time>2024-05-10T10:11:43Z</time>
</trkpt>
<trkpt lat="49.55167768523097" lon="9.119689939543605">
<ele>460</ele>
<time>2024-05-10T10:11:45Z</time>
</trkpt>
<trkpt lat="49.55168908461928" lon="9.119626991450788">
<ele>460</ele>
<time>2024-05-10T10:11:46Z</time>
</trkpt>
<trkpt lat="49.55170056782663" lon="9.119564965367315">
<ele>460</ele>
<time>2024-05-10T10:11:47Z</time>
</trkpt>
<trkpt lat="49.551708195358515" lon="9.119504867121575">
<ele>460.2</ele>
<time>2024-05-10T10:11:48Z</time>
</trkpt>
<trkpt lat="49.55172345042229" lon="9.119446696713569">
<ele>460.2</ele>
<time>2024-05-10T10:11:49Z</time>
</trkpt>
<trkpt lat="49.5517348498106" lon="9.119393303990364">
<ele>460.2</ele>
<time>2024-05-10T10:11:50Z</time>
</trkpt>
<trkpt lat="49.55175010487437" lon="9.119337983429432">
<ele>460.2</ele>
<time>2024-05-10T10:11:51Z</time>
</trkpt>
<trkpt lat="49.551765359938145" lon="9.11928174085915">
<ele>460.4</ele>
<time>2024-05-10T10:11:52Z</time>
</trkpt>
<trkpt lat="49.551784470677376" lon="9.119228348135948">
<ele>460.4</ele>
<time>2024-05-10T10:11:53Z</time>
</trkpt>
<trkpt lat="49.55179595388472" lon="9.119168249890208">
<ele>460.4</ele>
<time>2024-05-10T10:11:54Z</time>
</trkpt>
<trkpt lat="49.551807353273034" lon="9.11910622380674">
<ele>460.4</ele>
<time>2024-05-10T10:11:55Z</time>
</trkpt>
<trkpt lat="49.55181498080492" lon="9.119048053398728">
<ele>460.6</ele>
<time>2024-05-10T10:11:56Z</time>
</trkpt>
<trkpt lat="49.551826464012265" lon="9.118989882990718">
<ele>460.6</ele>
<time>2024-05-10T10:11:57Z</time>
</trkpt>
<trkpt lat="49.55183786340058" lon="9.11892794072628">
<ele>460.6</ele>
<time>2024-05-10T10:11:58Z</time>
</trkpt>
<trkpt lat="49.551864601671696" lon="9.118815371766686">
<ele>460.8</ele>
<time>2024-05-10T10:12:00Z</time>
</trkpt>
<trkpt lat="49.55187985673547" lon="9.118756279349329">
<ele>460.8</ele>
<time>2024-05-10T10:12:01Z</time>
</trkpt>
<trkpt lat="49.551887484267354" lon="9.118699952960014">
<ele>461</ele>
<time>2024-05-10T10:12:02Z</time>
</trkpt>
<trkpt lat="49.55189888365567" lon="9.118641782552004">
<ele>461.2</ele>
<time>2024-05-10T10:12:03Z</time>
</trkpt>
<trkpt lat="49.551925621926785" lon="9.11852829158306">
<ele>461.4</ele>
<time>2024-05-10T10:12:05Z</time>
</trkpt>
<trkpt lat="49.5519370213151" lon="9.118472971022127">
<ele>461.6</ele>
<time>2024-05-10T10:12:06Z</time>
</trkpt>
<trkpt lat="49.55194850452244" lon="9.118416728451848">
<ele>461.8</ele>
<time>2024-05-10T10:12:07Z</time>
</trkpt>
<trkpt lat="49.55195998772979" lon="9.118365263566377">
<ele>462</ele>
<time>2024-05-10T10:12:08Z</time>
</trkpt>
<trkpt lat="49.5519713871181" lon="9.11831371486187">
<ele>462.2</ele>
<time>2024-05-10T10:12:09Z</time>
</trkpt>
<trkpt lat="49.55197901464999" lon="9.118267027661204">
<ele>462.4</ele>
<time>2024-05-10T10:12:10Z</time>
</trkpt>
<trkpt lat="49.55198664218187" lon="9.11821841262281">
<ele>462.6</ele>
<time>2024-05-10T10:12:11Z</time>
</trkpt>
<trkpt lat="49.55199426971376" lon="9.118173569440842">
<ele>462.6</ele>
<time>2024-05-10T10:12:12Z</time>
</trkpt>
<trkpt lat="49.552005752921104" lon="9.118126798421144">
<ele>462.8</ele>
<time>2024-05-10T10:12:13Z</time>
</trkpt>
<trkpt lat="49.55201715230942" lon="9.118082039058208">
<ele>463</ele>
<time>2024-05-10T10:12:14Z</time>
</trkpt>
<trkpt lat="49.552024779841304" lon="9.118035268038511">
<ele>463</ele>
<time>2024-05-10T10:12:15Z</time>
</trkpt>
<trkpt lat="49.55202863551676" lon="9.117986653000116">
<ele>463.2</ele>
<time>2024-05-10T10:12:16Z</time>
</trkpt>
<trkpt lat="49.55204003490507" lon="9.117943737655878">
<ele>463.4</ele>
<time>2024-05-10T10:12:17Z</time>
</trkpt>
<trkpt lat="49.55204766243696" lon="9.11789981648326">
<ele>463.4</ele>
<time>2024-05-10T10:12:18Z</time>
</trkpt>
<trkpt lat="49.55205528996885" lon="9.117853129282594">
<ele>463.6</ele>
<time>2024-05-10T10:12:19Z</time>
</trkpt>
<trkpt lat="49.552062917500734" lon="9.117810213938355">
<ele>463.8</ele>
<time>2024-05-10T10:12:20Z</time>
</trkpt>
<trkpt lat="49.55206677317619" lon="9.117766376584768">
<ele>463.8</ele>
<time>2024-05-10T10:12:21Z</time>
</trkpt>
<trkpt lat="49.55207440070808" lon="9.11772346124053">
<ele>464</ele>
<time>2024-05-10T10:12:22Z</time>
</trkpt>
<trkpt lat="49.55207817256451" lon="9.117685239762068">
<ele>464</ele>
<time>2024-05-10T10:12:23Z</time>
</trkpt>
<trkpt lat="49.55208580009639" lon="9.117594715207815">
<ele>464.2</ele>
<time>2024-05-10T10:12:25Z</time>
</trkpt>
<trkpt lat="49.55208965577185" lon="9.117547944188118">
<ele>464.2</ele>
<time>2024-05-10T10:12:26Z</time>
</trkpt>
<trkpt lat="49.55209342762828" lon="9.11750310100615">
<ele>464.4</ele>
<time>2024-05-10T10:12:27Z</time>
</trkpt>
<trkpt lat="49.552101055160165" lon="9.11746496334672">
<ele>464.4</ele>
<time>2024-05-10T10:12:28Z</time>
</trkpt>
<trkpt lat="49.552104910835624" lon="9.117381982505322">
<ele>464.4</ele>
<time>2024-05-10T10:12:30Z</time>
</trkpt>
<trkpt lat="49.55210868269205" lon="9.117340072989464">
<ele>464.6</ele>
<time>2024-05-10T10:12:31Z</time>
</trkpt>
<trkpt lat="49.55210868269205" lon="9.117301935330032">
<ele>464.6</ele>
<time>2024-05-10T10:12:32Z</time>
</trkpt>
<trkpt lat="49.55210868269205" lon="9.117263713851573">
<ele>464.8</ele>
<time>2024-05-10T10:12:33Z</time>
</trkpt>
<trkpt lat="49.55211253836751" lon="9.117224654182792">
<ele>465</ele>
<time>2024-05-10T10:12:34Z</time>
</trkpt>
<trkpt lat="49.55211639404297" lon="9.117184588685632">
<ele>465.2</ele>
<time>2024-05-10T10:12:35Z</time>
</trkpt>
<trkpt lat="49.55211639404297" lon="9.117144523188472">
<ele>465.4</ele>
<time>2024-05-10T10:12:36Z</time>
</trkpt>
<trkpt lat="49.55212016589939" lon="9.11710638552904">
<ele>465.6</ele>
<time>2024-05-10T10:12:37Z</time>
</trkpt>
<trkpt lat="49.55212779343128" lon="9.117065398022532">
<ele>465.6</ele>
<time>2024-05-10T10:12:38Z</time>
</trkpt>
<trkpt lat="49.55212016589939" lon="9.116985267028213">
<ele>465.8</ele>
<time>2024-05-10T10:12:40Z</time>
</trkpt>
<trkpt lat="49.55212016589939" lon="9.11694997921586">
<ele>466</ele>
<time>2024-05-10T10:12:41Z</time>
</trkpt>
<trkpt lat="49.55212016589939" lon="9.11691184155643">
<ele>466.2</ele>
<time>2024-05-10T10:12:42Z</time>
</trkpt>
<trkpt lat="49.552124021574855" lon="9.116873703897">
<ele>466.4</ele>
<time>2024-05-10T10:12:43Z</time>
</trkpt>
<trkpt lat="49.55212016589939" lon="9.11683363839984">
<ele>466.4</ele>
<time>2024-05-10T10:12:44Z</time>
</trkpt>
<trkpt lat="49.55212016589939" lon="9.11679457873106">
<ele>466.6</ele>
<time>2024-05-10T10:12:45Z</time>
</trkpt>
<trkpt lat="49.552124021574855" lon="9.11675350740552">
<ele>466.8</ele>
<time>2024-05-10T10:12:46Z</time>
</trkpt>
<trkpt lat="49.552124021574855" lon="9.11671637557447">
<ele>467</ele>
<time>2024-05-10T10:12:47Z</time>
</trkpt>
<trkpt lat="49.55212779343128" lon="9.116680081933737">
<ele>467</ele>
<time>2024-05-10T10:12:48Z</time>
</trkpt>
<trkpt lat="49.552124021574855" lon="9.116640016436577">
<ele>467.2</ele>
<time>2024-05-10T10:12:49Z</time>
</trkpt>
<trkpt lat="49.55212016589939" lon="9.116600034758449">
<ele>467.4</ele>
<time>2024-05-10T10:12:50Z</time>
</trkpt>
<trkpt lat="49.55211639404297" lon="9.116559969261289">
<ele>467.6</ele>
<time>2024-05-10T10:12:51Z</time>
</trkpt>
<trkpt lat="49.55211639404297" lon="9.116521831601858">
<ele>467.6</ele>
<time>2024-05-10T10:12:52Z</time>
</trkpt>
<trkpt lat="49.55211639404297" lon="9.11647791042924">
<ele>467.8</ele>
<time>2024-05-10T10:12:53Z</time>
</trkpt>
<trkpt lat="49.55211639404297" lon="9.11643784493208">
<ele>468</ele>
<time>2024-05-10T10:12:54Z</time>
</trkpt>
<trkpt lat="49.55212016589939" lon="9.11639777943492">
<ele>468</ele>
<time>2024-05-10T10:12:55Z</time>
</trkpt>
<trkpt lat="49.55211639404297" lon="9.11635871976614">
<ele>468.2</ele>
<time>2024-05-10T10:12:56Z</time>
</trkpt>
<trkpt lat="49.55211253836751" lon="9.11631672643125">
<ele>468.4</ele>
<time>2024-05-10T10:12:57Z</time>
</trkpt>
<trkpt lat="49.552104910835624" lon="9.11627666093409">
<ele>468.4</ele>
<time>2024-05-10T10:12:58Z</time>
</trkpt>
<trkpt lat="49.552104910835624" lon="9.116234751418231">
<ele>468.6</ele>
<time>2024-05-10T10:12:59Z</time>
</trkpt>
<trkpt lat="49.552101055160165" lon="9.116191836073996">
<ele>468.8</ele>
<time>2024-05-10T10:13:00Z</time>
</trkpt>
<trkpt lat="49.552101055160165" lon="9.116147914901376">
<ele>469</ele>
<time>2024-05-10T10:13:01Z</time>
</trkpt>
<trkpt lat="49.552104910835624" lon="9.116104999557136">
<ele>469.2</ele>
<time>2024-05-10T10:13:02Z</time>
</trkpt>
<trkpt lat="49.552104910835624" lon="9.1160602401942">
<ele>469.2</ele>
<time>2024-05-10T10:13:03Z</time>
</trkpt>
<trkpt lat="49.55212016589939" lon="9.115968625992537">
<ele>469.4</ele>
<time>2024-05-10T10:13:05Z</time>
</trkpt>
<trkpt lat="49.552124021574855" lon="9.11592478863895">
<ele>469.6</ele>
<time>2024-05-10T10:13:06Z</time>
</trkpt>
<trkpt lat="49.552124021574855" lon="9.115879945456982">
<ele>469.8</ele>
<time>2024-05-10T10:13:07Z</time>
</trkpt>
<trkpt lat="49.55212779343128" lon="9.115838035941124">
<ele>470</ele>
<time>2024-05-10T10:13:08Z</time>
</trkpt>
<trkpt lat="49.55213164910674" lon="9.115797970443964">
<ele>470.2</ele>
<time>2024-05-10T10:13:09Z</time>
</trkpt>
<trkpt lat="49.55213542096317" lon="9.115757904946804">
<ele>470.2</ele>
<time>2024-05-10T10:13:10Z</time>
</trkpt>
<trkpt lat="49.55213927663863" lon="9.115713061764836">
<ele>470.4</ele>
<time>2024-05-10T10:13:11Z</time>
</trkpt>
<trkpt lat="49.55214690417051" lon="9.115668218582869">
<ele>470.4</ele>
<time>2024-05-10T10:13:12Z</time>
</trkpt>
<trkpt lat="49.55215067602694" lon="9.115621531382205">
<ele>470.6</ele>
<time>2024-05-10T10:13:13Z</time>
</trkpt>
<trkpt lat="49.552158303558826" lon="9.115574760362506">
<ele>470.6</ele>
<time>2024-05-10T10:13:14Z</time>
</trkpt>
<trkpt lat="49.55216978676617" lon="9.11553000099957">
<ele>470.6</ele>
<time>2024-05-10T10:13:15Z</time>
</trkpt>
<trkpt lat="49.55217741429806" lon="9.115485157817602">
<ele>470.8</ele>
<time>2024-05-10T10:13:16Z</time>
</trkpt>
<trkpt lat="49.552185041829944" lon="9.115441320464017">
<ele>470.8</ele>
<time>2024-05-10T10:13:17Z</time>
</trkpt>
<trkpt lat="49.55218881368637" lon="9.115396477282047">
<ele>470.8</ele>
<time>2024-05-10T10:13:18Z</time>
</trkpt>
<trkpt lat="49.55219644121826" lon="9.115356411784887">
<ele>471</ele>
<time>2024-05-10T10:13:19Z</time>
</trkpt>
<trkpt lat="49.5522079244256" lon="9.115315424278378">
<ele>471</ele>
<time>2024-05-10T10:13:20Z</time>
</trkpt>
<trkpt lat="49.55221555195749" lon="9.11527535878122">
<ele>471.2</ele>
<time>2024-05-10T10:13:21Z</time>
</trkpt>
<trkpt lat="49.552223179489374" lon="9.115229593589902">
<ele>471.4</ele>
<time>2024-05-10T10:13:22Z</time>
</trkpt>
<trkpt lat="49.552238434553146" lon="9.115179972723126">
<ele>471.4</ele>
<time>2024-05-10T10:13:23Z</time>
</trkpt>
<trkpt lat="49.55226894468069" lon="9.115096991881728">
<ele>471.6</ele>
<time>2024-05-10T10:13:25Z</time>
</trkpt>
<trkpt lat="49.55228034406901" lon="9.11505508236587">
<ele>471.8</ele>
<time>2024-05-10T10:13:26Z</time>
</trkpt>
<trkpt lat="49.55229182727635" lon="9.115017866715789">
<ele>472</ele>
<time>2024-05-10T10:13:27Z</time>
</trkpt>
<trkpt lat="49.552303310483694" lon="9.114983500912786">
<ele>472.2</ele>
<time>2024-05-10T10:13:28Z</time>
</trkpt>
<trkpt lat="49.55233382061124" lon="9.114906303584576">
<ele>472.2</ele>
<time>2024-05-10T10:13:30Z</time>
</trkpt>
<trkpt lat="49.55234521999955" lon="9.114871937781572">
<ele>472.4</ele>
<time>2024-05-10T10:13:31Z</time>
</trkpt>
<trkpt lat="49.5523567032069" lon="9.11483857780695">
<ele>472.4</ele>
<time>2024-05-10T10:13:32Z</time>
</trkpt>
<trkpt lat="49.552375730127096" lon="9.114805217832329">
<ele>472.6</ele>
<time>2024-05-10T10:13:33Z</time>
</trkpt>
<trkpt lat="49.55242535099387" lon="9.114749897271397">
<ele>472.8</ele>
<time>2024-05-10T10:13:35Z</time>
</trkpt>
<trkpt lat="49.552455861121416" lon="9.11471645347774">
<ele>473</ele>
<time>2024-05-10T10:13:36Z</time>
</trkpt>
<trkpt lat="49.55248637124896" lon="9.11468024365604">
<ele>473.2</ele>
<time>2024-05-10T10:13:37Z</time>
</trkpt>
<trkpt lat="49.55251310952008" lon="9.114646883681417">
<ele>473.4</ele>
<time>2024-05-10T10:13:38Z</time>
</trkpt>
<trkpt lat="49.55257027409971" lon="9.114573458209634">
<ele>473.6</ele>
<time>2024-05-10T10:13:40Z</time>
</trkpt>
<trkpt lat="49.552597012370825" lon="9.114536242559552">
<ele>473.8</ele>
<time>2024-05-10T10:13:41Z</time>
</trkpt>
<trkpt lat="49.55262752249837" lon="9.11450288258493">
<ele>474</ele>
<time>2024-05-10T10:13:42Z</time>
</trkpt>
<trkpt lat="49.552654260769486" lon="9.114478072151542">
<ele>474.2</ele>
<time>2024-05-10T10:13:43Z</time>
</trkpt>
<trkpt lat="49.552677143365145" lon="9.114448484033346">
<ele>474.4</ele>
<time>2024-05-10T10:13:44Z</time>
</trkpt>
<trkpt lat="49.55270379781723" lon="9.114419901743531">
<ele>474.6</ele>
<time>2024-05-10T10:13:45Z</time>
</trkpt>
<trkpt lat="49.55272668041289" lon="9.114391319453716">
<ele>474.8</ele>
<time>2024-05-10T10:13:46Z</time>
</trkpt>
<trkpt lat="49.55274956300855" lon="9.114368436858058">
<ele>475</ele>
<time>2024-05-10T10:13:47Z</time>
</trkpt>
<trkpt lat="49.55276867374778" lon="9.114337842911482">
<ele>475.2</ele>
<time>2024-05-10T10:13:48Z</time>
</trkpt>
<trkpt lat="49.55278770066798" lon="9.114308338612318">
<ele>475.4</ele>
<time>2024-05-10T10:13:49Z</time>
</trkpt>
<trkpt lat="49.55280681140721" lon="9.1142816003412">
<ele>475.4</ele>
<time>2024-05-10T10:13:50Z</time>
</trkpt>
<trkpt lat="49.55282592214644" lon="9.114253018051386">
<ele>475.6</ele>
<time>2024-05-10T10:13:51Z</time>
</trkpt>
<trkpt lat="49.5528488047421" lon="9.11422342993319">
<ele>475.6</ele>
<time>2024-05-10T10:13:52Z</time>
</trkpt>
<trkpt lat="49.55287168733776" lon="9.114186214283109">
<ele>475.8</ele>
<time>2024-05-10T10:13:53Z</time>
</trkpt>
<trkpt lat="49.55290982499719" lon="9.114116644486783">
<ele>475.8</ele>
<time>2024-05-10T10:13:55Z</time>
</trkpt>
<trkpt lat="49.552928851917386" lon="9.114074651151896">
<ele>475.8</ele>
<time>2024-05-10T10:13:56Z</time>
</trkpt>
<trkpt lat="49.55295173451304" lon="9.114029807969928">
<ele>476</ele>
<time>2024-05-10T10:13:57Z</time>
</trkpt>
<trkpt lat="49.55297847278416" lon="9.11398689262569">
<ele>476</ele>
<time>2024-05-10T10:13:58Z</time>
</trkpt>
<trkpt lat="49.55300521105528" lon="9.113944983109832">
<ele>476.2</ele>
<time>2024-05-10T10:13:59Z</time>
</trkpt>
<trkpt lat="49.55303186550736" lon="9.113898212090136">
<ele>476.2</ele>
<time>2024-05-10T10:14:00Z</time>
</trkpt>
<trkpt lat="49.55305860377848" lon="9.11384959705174">
<ele>476.4</ele>
<time>2024-05-10T10:14:01Z</time>
</trkpt>
<trkpt lat="49.55308148637414" lon="9.113804753869772">
<ele>476.4</ele>
<time>2024-05-10T10:14:02Z</time>
</trkpt>
<trkpt lat="49.553108140826225" lon="9.113763766363263">
<ele>476.6</ele>
<time>2024-05-10T10:14:03Z</time>
</trkpt>
<trkpt lat="49.55313487909734" lon="9.113719929009676">
<ele>476.6</ele>
<time>2024-05-10T10:14:04Z</time>
</trkpt>
<trkpt lat="49.553157761693" lon="9.113681791350244">
<ele>476.8</ele>
<time>2024-05-10T10:14:05Z</time>
</trkpt>
<trkpt lat="49.55317687243223" lon="9.113639798015356">
<ele>476.8</ele>
<time>2024-05-10T10:14:06Z</time>
</trkpt>
<trkpt lat="49.55319975502789" lon="9.113594954833388">
<ele>476.8</ele>
<time>2024-05-10T10:14:07Z</time>
</trkpt>
<trkpt lat="49.55321501009166" lon="9.11355203948915">
<ele>476.8</ele>
<time>2024-05-10T10:14:08Z</time>
</trkpt>
<trkpt lat="49.55325314775109" lon="9.113478614017367">
<ele>476.8</ele>
<time>2024-05-10T10:14:10Z</time>
</trkpt>
<trkpt lat="49.55327603034675" lon="9.113445254042745">
<ele>477</ele>
<time>2024-05-10T10:14:11Z</time>
</trkpt>
<trkpt lat="49.55329505726695" lon="9.113408038392665">
<ele>477</ele>
<time>2024-05-10T10:14:12Z</time>
</trkpt>
<trkpt lat="49.55331031233072" lon="9.11337660625577">
<ele>477</ele>
<time>2024-05-10T10:14:13Z</time>
</trkpt>
<trkpt lat="49.55332565121353" lon="9.113349867984653">
<ele>477</ele>
<time>2024-05-10T10:14:14Z</time>
</trkpt>
<trkpt lat="49.5533409062773" lon="9.1133145801723">
<ele>477</ele>
<time>2024-05-10T10:14:15Z</time>
</trkpt>
<trkpt lat="49.55335616134107" lon="9.1132783703506">
<ele>477.2</ele>
<time>2024-05-10T10:14:16Z</time>
</trkpt>
<trkpt lat="49.55336378887296" lon="9.113240232691169">
<ele>477.2</ele>
<time>2024-05-10T10:14:17Z</time>
</trkpt>
<trkpt lat="49.55337904393673" lon="9.113208716735244">
<ele>477.4</ele>
<time>2024-05-10T10:14:18Z</time>
</trkpt>
<trkpt lat="49.5533942990005" lon="9.11317627876997">
<ele>477.4</ele>
<time>2024-05-10T10:14:19Z</time>
</trkpt>
<trkpt lat="49.5534133259207" lon="9.113144846633077">
<ele>477.6</ele>
<time>2024-05-10T10:14:20Z</time>
</trkpt>
<trkpt lat="49.553424809128046" lon="9.113113330677152">
<ele>477.8</ele>
<time>2024-05-10T10:14:21Z</time>
</trkpt>
<trkpt lat="49.55343243665993" lon="9.113081898540258">
<ele>478</ele>
<time>2024-05-10T10:14:22Z</time>
</trkpt>
<trkpt lat="49.553443836048245" lon="9.113048538565636">
<ele>478.2</ele>
<time>2024-05-10T10:14:23Z</time>
</trkpt>
<trkpt lat="49.55345531925559" lon="9.113018028438091">
<ele>478.4</ele>
<time>2024-05-10T10:14:24Z</time>
</trkpt>
<trkpt lat="49.55346294678748" lon="9.112984584644437">
<ele>478.6</ele>
<time>2024-05-10T10:14:25Z</time>
</trkpt>
<trkpt lat="49.55347434617579" lon="9.112950302660463">
<ele>478.8</ele>
<time>2024-05-10T10:14:26Z</time>
</trkpt>
<trkpt lat="49.55348197370768" lon="9.112913087010384">
<ele>478.8</ele>
<time>2024-05-10T10:14:27Z</time>
</trkpt>
<trkpt lat="49.55349345691502" lon="9.11288165487349">
<ele>479</ele>
<time>2024-05-10T10:14:28Z</time>
</trkpt>
<trkpt lat="49.55351256765425" lon="9.112808145582676">
<ele>479.2</ele>
<time>2024-05-10T10:14:30Z</time>
</trkpt>
<trkpt lat="49.553523967042565" lon="9.112778641283512">
<ele>479.2</ele>
<time>2024-05-10T10:14:31Z</time>
</trkpt>
<trkpt lat="49.55353545024991" lon="9.112748131155968">
<ele>479.4</ele>
<time>2024-05-10T10:14:32Z</time>
</trkpt>
<trkpt lat="49.55355070531368" lon="9.112716615200045">
<ele>479.4</ele>
<time>2024-05-10T10:14:33Z</time>
</trkpt>
<trkpt lat="49.55358121544123" lon="9.112660372629762">
<ele>479.6</ele>
<time>2024-05-10T10:14:35Z</time>
</trkpt>
<trkpt lat="49.55359261482954" lon="9.112627934664488">
<ele>479.8</ele>
<time>2024-05-10T10:14:36Z</time>
</trkpt>
<trkpt lat="49.553604098036885" lon="9.112596502527596">
<ele>480</ele>
<time>2024-05-10T10:14:37Z</time>
</trkpt>
<trkpt lat="49.5536154974252" lon="9.112561214715242">
<ele>480</ele>
<time>2024-05-10T10:14:38Z</time>
</trkpt>
<trkpt lat="49.553626980632544" lon="9.112523077055812">
<ele>480.2</ele>
<time>2024-05-10T10:14:39Z</time>
</trkpt>
<trkpt lat="49.55364223569632" lon="9.112489633262156">
<ele>480.4</ele>
<time>2024-05-10T10:14:40Z</time>
</trkpt>
<trkpt lat="49.55365749076009" lon="9.112453423440456">
<ele>480.6</ele>
<time>2024-05-10T10:14:41Z</time>
</trkpt>
<trkpt lat="49.55366897396743" lon="9.112418135628104">
<ele>480.8</ele>
<time>2024-05-10T10:14:42Z</time>
</trkpt>
<trkpt lat="49.553680373355746" lon="9.112381925806403">
<ele>481</ele>
<time>2024-05-10T10:14:43Z</time>
</trkpt>
<trkpt lat="49.55369562841952" lon="9.112350409850478">
<ele>481</ele>
<time>2024-05-10T10:14:44Z</time>
</trkpt>
<trkpt lat="49.55371088348329" lon="9.112323755398393">
<ele>481.2</ele>
<time>2024-05-10T10:14:45Z</time>
</trkpt>
<trkpt lat="49.55372999422252" lon="9.11229131743312">
<ele>481.4</ele>
<time>2024-05-10T10:14:46Z</time>
</trkpt>
<trkpt lat="49.55375287681818" lon="9.112259801477194">
<ele>481.6</ele>
<time>2024-05-10T10:14:47Z</time>
</trkpt>
<trkpt lat="49.55377190373838" lon="9.11223029717803">
<ele>481.8</ele>
<time>2024-05-10T10:14:48Z</time>
</trkpt>
<trkpt lat="49.55380241386592" lon="9.112178748473523">
<ele>482</ele>
<time>2024-05-10T10:14:50Z</time>
</trkpt>
<trkpt lat="49.553821524605155" lon="9.112163493409753">
<ele>482.2</ele>
<time>2024-05-10T10:14:51Z</time>
</trkpt>
<trkpt lat="49.55383677966893" lon="9.11215016618371">
<ele>482.6</ele>
<time>2024-05-10T10:14:52Z</time>
</trkpt>
<trkpt lat="49.55385589040816" lon="9.11213206127286">
<ele>482.8</ele>
<time>2024-05-10T10:14:53Z</time>
</trkpt>
<trkpt lat="49.553897799924016" lon="9.112086296081545">
<ele>483</ele>
<time>2024-05-10T10:14:55Z</time>
</trkpt>
<trkpt lat="49.553920682519674" lon="9.112066263332965">
<ele>483.2</ele>
<time>2024-05-10T10:14:56Z</time>
</trkpt>
<trkpt lat="49.55394742079079" lon="9.11204807460308">
<ele>483.4</ele>
<time>2024-05-10T10:14:57Z</time>
</trkpt>
<trkpt lat="49.55396644771099" lon="9.11203189752996">
<ele>483.6</ele>
<time>2024-05-10T10:14:58Z</time>
</trkpt>
<trkpt lat="49.55402369610965" lon="9.112012786790729">
<ele>484</ele>
<time>2024-05-10T10:15:00Z</time>
</trkpt>
<trkpt lat="49.55405043438077" lon="9.111998537555335">
<ele>484.2</ele>
<time>2024-05-10T10:15:01Z</time>
</trkpt>
<trkpt lat="49.55408471636474" lon="9.111980432644486">
<ele>484.4</ele>
<time>2024-05-10T10:15:02Z</time>
</trkpt>
<trkpt lat="49.554119082167745" lon="9.111961321905255">
<ele>484.6</ele>
<time>2024-05-10T10:15:03Z</time>
</trkpt>
<trkpt lat="49.55418772995472" lon="9.111896445974708">
<ele>484.8</ele>
<time>2024-05-10T10:15:05Z</time>
</trkpt>
<trkpt lat="49.55422209575772" lon="9.11185353063047">
<ele>485</ele>
<time>2024-05-10T10:15:06Z</time>
</trkpt>
<trkpt lat="49.55426023341715" lon="9.111800137907268">
<ele>485.2</ele>
<time>2024-05-10T10:15:07Z</time>
</trkpt>
<trkpt lat="49.554298371076584" lon="9.11173526197672">
<ele>485.2</ele>
<time>2024-05-10T10:15:08Z</time>
</trkpt>
<trkpt lat="49.55438612960279" lon="9.11159704439342">
<ele>485.4</ele>
<time>2024-05-10T10:15:10Z</time>
</trkpt>
<trkpt lat="49.55442041158676" lon="9.111528396606444">
<ele>485.4</ele>
<time>2024-05-10T10:15:11Z</time>
</trkpt>
<trkpt lat="49.554454777389765" lon="9.111453043296931">
<ele>485.4</ele>
<time>2024-05-10T10:15:12Z</time>
</trkpt>
<trkpt lat="49.55448143184185" lon="9.111371990293264">
<ele>485.4</ele>
<time>2024-05-10T10:15:13Z</time>
</trkpt>
<trkpt lat="49.554511941969395" lon="9.111288003623486">
<ele>485.4</ele>
<time>2024-05-10T10:15:14Z</time>
</trkpt>
<trkpt lat="49.55453868024051" lon="9.111209800466897">
<ele>485.2</ele>
<time>2024-05-10T10:15:15Z</time>
</trkpt>
<trkpt lat="49.554569190368056" lon="9.111140230670571">
<ele>485.2</ele>
<time>2024-05-10T10:15:16Z</time>
</trkpt>
<trkpt lat="49.5545997004956" lon="9.111060099676251">
<ele>485</ele>
<time>2024-05-10T10:15:17Z</time>
</trkpt>
<trkpt lat="49.554630210623145" lon="9.110979968681931">
<ele>484.8</ele>
<time>2024-05-10T10:15:18Z</time>
</trkpt>
<trkpt lat="49.5546530932188" lon="9.110897993668914">
<ele>484.6</ele>
<time>2024-05-10T10:15:19Z</time>
</trkpt>
<trkpt lat="49.55467597581446" lon="9.110811157152057">
<ele>484.2</ele>
<time>2024-05-10T10:15:20Z</time>
</trkpt>
<trkpt lat="49.55470271408558" lon="9.110721554607151">
<ele>484</ele>
<time>2024-05-10T10:15:21Z</time>
</trkpt>
<trkpt lat="49.554729452356696" lon="9.110631868243216">
<ele>483.6</ele>
<time>2024-05-10T10:15:22Z</time>
</trkpt>
<trkpt lat="49.554748479276896" lon="9.110545115545392">
<ele>483.4</ele>
<time>2024-05-10T10:15:23Z</time>
</trkpt>
<trkpt lat="49.554786616936326" lon="9.110378231853248">
<ele>483</ele>
<time>2024-05-10T10:15:25Z</time>
</trkpt>
<trkpt lat="49.5548018720001" lon="9.110296173021196">
<ele>482.8</ele>
<time>2024-05-10T10:15:26Z</time>
</trkpt>
<trkpt lat="49.55482098273933" lon="9.11021327599883">
<ele>482.4</ele>
<time>2024-05-10T10:15:27Z</time>
</trkpt>
<trkpt lat="49.55484000965953" lon="9.110119817778468">
<ele>482</ele>
<time>2024-05-10T10:15:28Z</time>
</trkpt>
<trkpt lat="49.554866747930646" lon="9.110030131414533">
<ele>481.6</ele>
<time>2024-05-10T10:15:29Z</time>
</trkpt>
<trkpt lat="49.55489348620176" lon="9.109932817518713">
<ele>481.2</ele>
<time>2024-05-10T10:15:30Z</time>
</trkpt>
<trkpt lat="49.55492014065385" lon="9.109831731766462">
<ele>480.8</ele>
<time>2024-05-10T10:15:31Z</time>
</trkpt>
<trkpt lat="49.55493925139308" lon="9.109731651842594">
<ele>480.6</ele>
<time>2024-05-10T10:15:32Z</time>
</trkpt>
<trkpt lat="49.55497738905251" lon="9.109644815325735">
<ele>480.4</ele>
<time>2024-05-10T10:15:33Z</time>
</trkpt>
<trkpt lat="49.5550384093076" lon="9.10947985947132">
<ele>480</ele>
<time>2024-05-10T10:15:35Z</time>
</trkpt>
<trkpt lat="49.55507654696703" lon="9.10940165631473">
<ele>479.8</ele>
<time>2024-05-10T10:15:36Z</time>
</trkpt>
<trkpt lat="49.55511091277003" lon="9.109328230842948">
<ele>479.4</ele>
<time>2024-05-10T10:15:37Z</time>
</trkpt>
<trkpt lat="49.555145194754" lon="9.10926528275013">
<ele>479</ele>
<time>2024-05-10T10:15:38Z</time>
</trkpt>
<trkpt lat="49.55517956055701" lon="9.109208034351468">
<ele>478.8</ele>
<time>2024-05-10T10:15:39Z</time>
</trkpt>
<trkpt lat="49.55521769821644" lon="9.10914801992476">
<ele>478.6</ele>
<time>2024-05-10T10:15:40Z</time>
</trkpt>
<trkpt lat="49.55525206401944" lon="9.109091693535447">
<ele>478.2</ele>
<time>2024-05-10T10:15:41Z</time>
</trkpt>
<trkpt lat="49.555301601067185" lon="9.10902782343328">
<ele>478</ele>
<time>2024-05-10T10:15:42Z</time>
</trkpt>
<trkpt lat="49.555343594402075" lon="9.10896965302527">
<ele>477.6</ele>
<time>2024-05-10T10:15:43Z</time>
</trkpt>
<trkpt lat="49.55538558773696" lon="9.108913410454988">
<ele>477.4</ele>
<time>2024-05-10T10:15:44Z</time>
</trkpt>
<trkpt lat="49.55543512478471" lon="9.108862867578864">
<ele>477.2</ele>
<time>2024-05-10T10:15:45Z</time>
</trkpt>
<trkpt lat="49.555480889976025" lon="9.108817018568516">
<ele>477</ele>
<time>2024-05-10T10:15:46Z</time>
</trkpt>
<trkpt lat="49.55553428269923" lon="9.108773181214929">
<ele>476.8</ele>
<time>2024-05-10T10:15:47Z</time>
</trkpt>
<trkpt lat="49.555580131709576" lon="9.10873026587069">
<ele>476.8</ele>
<time>2024-05-10T10:15:48Z</time>
</trkpt>
<trkpt lat="49.55562204122543" lon="9.108703611418605">
<ele>476.6</ele>
<time>2024-05-10T10:15:49Z</time>
</trkpt>
<trkpt lat="49.55566780641675" lon="9.108671173453333">
<ele>476.6</ele>
<time>2024-05-10T10:15:50Z</time>
</trkpt>
<trkpt lat="49.55571357160807" lon="9.108636807650328">
<ele>476.6</ele>
<time>2024-05-10T10:15:51Z</time>
</trkpt>
<trkpt lat="49.55576319247484" lon="9.108608225360513">
<ele>476.6</ele>
<time>2024-05-10T10:15:52Z</time>
</trkpt>
<trkpt lat="49.55580518580973" lon="9.10857293754816">
<ele>476.4</ele>
<time>2024-05-10T10:15:53Z</time>
</trkpt>
<trkpt lat="49.55585095100105" lon="9.10853479988873">
<ele>476.4</ele>
<time>2024-05-10T10:15:54Z</time>
</trkpt>
<trkpt lat="49.555896716192365" lon="9.108491884544492">
<ele>476.4</ele>
<time>2024-05-10T10:15:55Z</time>
</trkpt>
<trkpt lat="49.55594633705914" lon="9.108458440750836">
<ele>476.2</ele>
<time>2024-05-10T10:15:56Z</time>
</trkpt>
<trkpt lat="49.555988246575" lon="9.108423152938483">
<ele>476.2</ele>
<time>2024-05-10T10:15:57Z</time>
</trkpt>
<trkpt lat="49.556034011766315" lon="9.108391720801592">
<ele>476</ele>
<time>2024-05-10T10:15:58Z</time>
</trkpt>
<trkpt lat="49.55614088103175" lon="9.108331622555852">
<ele>476</ele>
<time>2024-05-10T10:16:00Z</time>
</trkpt>
<trkpt lat="49.55618664622307" lon="9.1082963347435">
<ele>475.8</ele>
<time>2024-05-10T10:16:01Z</time>
</trkpt>
<trkpt lat="49.556228555738926" lon="9.108264902606606">
<ele>475.8</ele>
<time>2024-05-10T10:16:02Z</time>
</trkpt>
<trkpt lat="49.556270549073815" lon="9.10823623649776">
<ele>475.8</ele>
<time>2024-05-10T10:16:03Z</time>
</trkpt>
<trkpt lat="49.556350680068135" lon="9.108191477134824">
<ele>475.6</ele>
<time>2024-05-10T10:16:05Z</time>
</trkpt>
<trkpt lat="49.55638119019568" lon="9.108186699450016">
<ele>475.6</ele>
<time>2024-05-10T10:16:06Z</time>
</trkpt>
<trkpt lat="49.55641932785511" lon="9.108188627287744">
<ele>475.8</ele>
<time>2024-05-10T10:16:07Z</time>
</trkpt>
<trkpt lat="49.55646509304643" lon="9.108193321153522">
<ele>475.8</ele>
<time>2024-05-10T10:16:08Z</time>
</trkpt>
<trkpt lat="49.55650323070586" lon="9.108215281739833">
<ele>476</ele>
<time>2024-05-10T10:16:09Z</time>
</trkpt>
<trkpt lat="49.556548995897174" lon="9.108231542631984">
<ele>476.2</ele>
<time>2024-05-10T10:16:10Z</time>
</trkpt>
<trkpt lat="49.55659861676395" lon="9.10825626924634">
<ele>476.2</ele>
<time>2024-05-10T10:16:11Z</time>
</trkpt>
<trkpt lat="49.55665200948715" lon="9.108282085508108">
<ele>476.2</ele>
<time>2024-05-10T10:16:12Z</time>
</trkpt>
<trkpt lat="49.55669777467847" lon="9.108306812122464">
<ele>476.4</ele>
<time>2024-05-10T10:16:13Z</time>
</trkpt>
<trkpt lat="49.5567512512207" lon="9.10833832807839">
<ele>476.4</ele>
<time>2024-05-10T10:16:14Z</time>
</trkpt>
<trkpt lat="49.55679701641202" lon="9.108371688053012">
<ele>476.4</ele>
<time>2024-05-10T10:16:15Z</time>
</trkpt>
<trkpt lat="49.556842781603336" lon="9.108405048027636">
<ele>476.4</ele>
<time>2024-05-10T10:16:16Z</time>
</trkpt>
<trkpt lat="49.556884691119194" lon="9.108440335839989">
<ele>476.4</ele>
<time>2024-05-10T10:16:17Z</time>
</trkpt>
<trkpt lat="49.55692668445408" lon="9.108483251184223">
<ele>476.4</ele>
<time>2024-05-10T10:16:18Z</time>
</trkpt>
<trkpt lat="49.556964822113514" lon="9.108532872051">
<ele>476.4</ele>
<time>2024-05-10T10:16:19Z</time>
</trkpt>
<trkpt lat="49.557002959772944" lon="9.108586264774203">
<ele>476.4</ele>
<time>2024-05-10T10:16:20Z</time>
</trkpt>
<trkpt lat="49.55703732557595" lon="9.108638735488055">
<ele>476.4</ele>
<time>2024-05-10T10:16:21Z</time>
</trkpt>
<trkpt lat="49.55707546323538" lon="9.108693050220609">
<ele>476.2</ele>
<time>2024-05-10T10:16:22Z</time>
</trkpt>
<trkpt lat="49.55710982903838" lon="9.10875029861927">
<ele>476</ele>
<time>2024-05-10T10:16:23Z</time>
</trkpt>
<trkpt lat="49.55714411102235" lon="9.10880846902728">
<ele>475.8</ele>
<time>2024-05-10T10:16:24Z</time>
</trkpt>
<trkpt lat="49.55717847682536" lon="9.10886948928237">
<ele>475.6</ele>
<time>2024-05-10T10:16:25Z</time>
</trkpt>
<trkpt lat="49.55721661448479" lon="9.108926737681031">
<ele>475.6</ele>
<time>2024-05-10T10:16:26Z</time>
</trkpt>
<trkpt lat="49.55725089646876" lon="9.108993457630277">
<ele>475.4</ele>
<time>2024-05-10T10:16:27Z</time>
</trkpt>
<trkpt lat="49.55729288980365" lon="9.109058333560824">
<ele>475</ele>
<time>2024-05-10T10:16:28Z</time>
</trkpt>
<trkpt lat="49.55733488313854" lon="9.109123209491372">
<ele>474.8</ele>
<time>2024-05-10T10:16:29Z</time>
</trkpt>
<trkpt lat="49.557376792654395" lon="9.109189929440618">
<ele>474.6</ele>
<time>2024-05-10T10:16:30Z</time>
</trkpt>
<trkpt lat="49.55742255784571" lon="9.109256733208897">
<ele>474.4</ele>
<time>2024-05-10T10:16:31Z</time>
</trkpt>
<trkpt lat="49.55746840685606" lon="9.10932538099587">
<ele>474</ele>
<time>2024-05-10T10:16:32Z</time>
</trkpt>
<trkpt lat="49.55751417204738" lon="9.109391178935766">
<ele>473.8</ele>
<time>2024-05-10T10:16:33Z</time>
</trkpt>
<trkpt lat="49.557556081563234" lon="9.109455049037932">
<ele>473.6</ele>
<time>2024-05-10T10:16:34Z</time>
</trkpt>
<trkpt lat="49.55759807489813" lon="9.109517997130752">
<ele>473.4</ele>
<time>2024-05-10T10:16:35Z</time>
</trkpt>
<trkpt lat="49.55764006823301" lon="9.10958186723292">
<ele>473</ele>
<time>2024-05-10T10:16:36Z</time>
</trkpt>
<trkpt lat="49.55768197774887" lon="9.109644815325735">
<ele>472.8</ele>
<time>2024-05-10T10:16:37Z</time>
</trkpt>
<trkpt lat="49.5577201154083" lon="9.109708769246936">
<ele>472.8</ele>
<time>2024-05-10T10:16:38Z</time>
</trkpt>
<trkpt lat="49.55776210874319" lon="9.109771717339754">
<ele>472.6</ele>
<time>2024-05-10T10:16:39Z</time>
</trkpt>
<trkpt lat="49.55780410207808" lon="9.109838437289">
<ele>472.4</ele>
<time>2024-05-10T10:16:40Z</time>
</trkpt>
<trkpt lat="49.55784223973751" lon="9.10989853553474">
<ele>472.4</ele>
<time>2024-05-10T10:16:41Z</time>
</trkpt>
<trkpt lat="49.55788800492883" lon="9.109961483627558">
<ele>472.2</ele>
<time>2024-05-10T10:16:42Z</time>
</trkpt>
<trkpt lat="49.557929914444685" lon="9.110019654035568">
<ele>472</ele>
<time>2024-05-10T10:16:43Z</time>
</trkpt>
<trkpt lat="49.557971907779574" lon="9.110083524137735">
<ele>472</ele>
<time>2024-05-10T10:16:44Z</time>
</trkpt>
<trkpt lat="49.558013901114464" lon="9.110144544392824">
<ele>471.8</ele>
<time>2024-05-10T10:16:45Z</time>
</trkpt>
<trkpt lat="49.55806343816221" lon="9.110204642638564">
<ele>471.6</ele>
<time>2024-05-10T10:16:46Z</time>
</trkpt>
<trkpt lat="49.55810920335352" lon="9.110259963199496">
<ele>471.4</ele>
<time>2024-05-10T10:16:47Z</time>
</trkpt>
<trkpt lat="49.5581588242203" lon="9.110306734219192">
<ele>471.2</ele>
<time>2024-05-10T10:16:48Z</time>
</trkpt>
<trkpt lat="49.55821607261896" lon="9.110342022031546">
<ele>471</ele>
<time>2024-05-10T10:16:49Z</time>
</trkpt>
<trkpt lat="49.55827323719859" lon="9.110364904627204">
<ele>470.8</ele>
<time>2024-05-10T10:16:50Z</time>
</trkpt>
<trkpt lat="49.558326713740826" lon="9.11037152633071">
<ele>470.6</ele>
<time>2024-05-10T10:16:51Z</time>
</trkpt>
<trkpt lat="49.558383878320456" lon="9.11035342141986">
<ele>470.6</ele>
<time>2024-05-10T10:16:52Z</time>
</trkpt>
<trkpt lat="49.55844112671912" lon="9.110336238518356">
<ele>470.4</ele>
<time>2024-05-10T10:16:53Z</time>
</trkpt>
<trkpt lat="49.55855939537287" lon="9.11027329042554">
<ele>470.4</ele>
<time>2024-05-10T10:16:55Z</time>
</trkpt>
<trkpt lat="49.5586165599525" lon="9.110223753377795">
<ele>470.4</ele>
<time>2024-05-10T10:16:56Z</time>
</trkpt>
<trkpt lat="49.55867003649473" lon="9.110188465565445">
<ele>470.4</ele>
<time>2024-05-10T10:16:57Z</time>
</trkpt>
<trkpt lat="49.55871957354248" lon="9.110159799456596">
<ele>470.4</ele>
<time>2024-05-10T10:16:58Z</time>
</trkpt>
<trkpt lat="49.55881881527603" lon="9.11013507284224">
<ele>470.2</ele>
<time>2024-05-10T10:17:00Z</time>
</trkpt>
<trkpt lat="49.55887983553112" lon="9.110119817778468">
<ele>470.2</ele>
<time>2024-05-10T10:17:01Z</time>
</trkpt>
<trkpt lat="49.55894085578621" lon="9.110108334571123">
<ele>470</ele>
<time>2024-05-10T10:17:02Z</time>
</trkpt>
<trkpt lat="49.55900950357318" lon="9.110090229660273">
<ele>470</ele>
<time>2024-05-10T10:17:03Z</time>
</trkpt>
<trkpt lat="49.55918502062559" lon="9.110041614621878">
<ele>469.8</ele>
<time>2024-05-10T10:17:05Z</time>
</trkpt>
<trkpt lat="49.55926506780088" lon="9.110012948513033">
<ele>469.6</ele>
<time>2024-05-10T10:17:06Z</time>
</trkpt>
<trkpt lat="49.55934905447066" lon="9.109972883015873">
<ele>469.4</ele>
<time>2024-05-10T10:17:07Z</time>
</trkpt>
<trkpt lat="49.55942147411406" lon="9.109932817518713">
<ele>469</ele>
<time>2024-05-10T10:17:08Z</time>
</trkpt>
<trkpt lat="49.55955885350704" lon="9.109841287136078">
<ele>468.8</ele>
<time>2024-05-10T10:17:10Z</time>
</trkpt>
<trkpt lat="49.55963127315045" lon="9.109783116728067">
<ele>468.4</ele>
<time>2024-05-10T10:17:11Z</time>
</trkpt>
<trkpt lat="49.55970763228834" lon="9.109716396778822">
<ele>468</ele>
<time>2024-05-10T10:17:12Z</time>
</trkpt>
<trkpt lat="49.5597839076072" lon="9.109646743163466">
<ele>467.4</ele>
<time>2024-05-10T10:17:13Z</time>
</trkpt>
<trkpt lat="49.55992505885661" lon="9.109513219445944">
<ele>467</ele>
<time>2024-05-10T10:17:15Z</time>
</trkpt>
<trkpt lat="49.55999370664358" lon="9.109450271353126">
<ele>466.6</ele>
<time>2024-05-10T10:17:16Z</time>
</trkpt>
<trkpt lat="49.56006235443056" lon="9.109393106773496">
<ele>466.2</ele>
<time>2024-05-10T10:17:17Z</time>
</trkpt>
<trkpt lat="49.560127230361104" lon="9.10934541374445">
<ele>465.8</ele>
<time>2024-05-10T10:17:18Z</time>
</trkpt>
<trkpt lat="49.56018825061619" lon="9.109290093183516">
<ele>465.4</ele>
<time>2024-05-10T10:17:19Z</time>
</trkpt>
<trkpt lat="49.56023787148297" lon="9.10924332216382">
<ele>465</ele>
<time>2024-05-10T10:17:20Z</time>
</trkpt>
<trkpt lat="49.56029126420617" lon="9.109208034351468">
<ele>464.6</ele>
<time>2024-05-10T10:17:21Z</time>
</trkpt>
<trkpt lat="49.5603484287858" lon="9.109173752367496">
<ele>464.4</ele>
<time>2024-05-10T10:17:22Z</time>
</trkpt>
<trkpt lat="49.560401905328035" lon="9.109143242239952">
<ele>464.2</ele>
<time>2024-05-10T10:17:23Z</time>
</trkpt>
<trkpt lat="49.56048195250333" lon="9.10906688310206">
<ele>464</ele>
<time>2024-05-10T10:17:25Z</time>
</trkpt>
<trkpt lat="49.560520090162754" lon="9.109023045748472">
<ele>463.8</ele>
<time>2024-05-10T10:17:26Z</time>
</trkpt>
<trkpt lat="49.560558311641216" lon="9.108975352719426">
<ele>463.6</ele>
<time>2024-05-10T10:17:27Z</time>
</trkpt>
<trkpt lat="49.56058882176876" lon="9.108926737681031">
<ele>463.6</ele>
<time>2024-05-10T10:17:28Z</time>
</trkpt>
<trkpt lat="49.560657469555736" lon="9.108823724091051">
<ele>463.4</ele>
<time>2024-05-10T10:17:30Z</time>
</trkpt>
<trkpt lat="49.56069175153971" lon="9.108775109052658">
<ele>463.4</ele>
<time>2024-05-10T10:17:31Z</time>
</trkpt>
<trkpt lat="49.56072611734271" lon="9.108726494014263">
<ele>463.4</ele>
<time>2024-05-10T10:17:32Z</time>
</trkpt>
<trkpt lat="49.56074899993837" lon="9.108676873147488">
<ele>463.6</ele>
<time>2024-05-10T10:17:33Z</time>
</trkpt>
<trkpt lat="49.56077951006591" lon="9.108578637242315">
<ele>463.8</ele>
<time>2024-05-10T10:17:35Z</time>
</trkpt>
<trkpt lat="49.56078336574137" lon="9.108531950041652">
<ele>464</ele>
<time>2024-05-10T10:17:36Z</time>
</trkpt>
<trkpt lat="49.560794765129685" lon="9.108489956706762">
<ele>464.4</ele>
<time>2024-05-10T10:17:37Z</time>
</trkpt>
<trkpt lat="49.56080624833703" lon="9.108445113524796">
<ele>464.6</ele>
<time>2024-05-10T10:17:38Z</time>
</trkpt>
<trkpt lat="49.56081002019346" lon="9.10835643298924">
<ele>464.8</ele>
<time>2024-05-10T10:17:40Z</time>
</trkpt>
<trkpt lat="49.56081002019346" lon="9.108308739960194">
<ele>465.2</ele>
<time>2024-05-10T10:17:41Z</time>
</trkpt>
<trkpt lat="49.56080624833703" lon="9.1082601249218">
<ele>465.4</ele>
<time>2024-05-10T10:17:42Z</time>
</trkpt>
<trkpt lat="49.56080239266157" lon="9.108209582045674">
<ele>465.6</ele>
<time>2024-05-10T10:17:43Z</time>
</trkpt>
<trkpt lat="49.560798620805144" lon="9.108153339475392">
<ele>466</ele>
<time>2024-05-10T10:17:44Z</time>
</trkpt>
<trkpt lat="49.56079099327326" lon="9.108104640617968">
<ele>466.2</ele>
<time>2024-05-10T10:17:45Z</time>
</trkpt>
<trkpt lat="49.56078336574137" lon="9.10805694758892">
<ele>466.6</ele>
<time>2024-05-10T10:17:46Z</time>
</trkpt>
<trkpt lat="49.56077951006591" lon="9.108008332550526">
<ele>466.8</ele>
<time>2024-05-10T10:17:47Z</time>
</trkpt>
<trkpt lat="49.56077188253403" lon="9.107966423034668">
<ele>467.2</ele>
<time>2024-05-10T10:17:48Z</time>
</trkpt>
<trkpt lat="49.5607681106776" lon="9.107888219878078">
<ele>467.4</ele>
<time>2024-05-10T10:17:50Z</time>
</trkpt>
<trkpt lat="49.56076425500214" lon="9.107846226543188">
<ele>467.6</ele>
<time>2024-05-10T10:17:51Z</time>
</trkpt>
<trkpt lat="49.56076425500214" lon="9.107798533514142">
<ele>468</ele>
<time>2024-05-10T10:17:52Z</time>
</trkpt>
<trkpt lat="49.56076425500214" lon="9.107749918475749">
<ele>468.2</ele>
<time>2024-05-10T10:17:53Z</time>
</trkpt>
<trkpt lat="49.560760483145714" lon="9.107654532417657">
<ele>468.4</ele>
<time>2024-05-10T10:17:55Z</time>
</trkpt>
<trkpt lat="49.560756627470255" lon="9.107608767226338">
<ele>468.6</ele>
<time>2024-05-10T10:17:56Z</time>
</trkpt>
<trkpt lat="49.56074899993837" lon="9.107563002035022">
<ele>468.8</ele>
<time>2024-05-10T10:17:57Z</time>
</trkpt>
<trkpt lat="49.56074137240648" lon="9.107524864375591">
<ele>469</ele>
<time>2024-05-10T10:17:58Z</time>
</trkpt>
<trkpt lat="49.560737600550056" lon="9.107437105849383">
<ele>469.2</ele>
<time>2024-05-10T10:18:00Z</time>
</trkpt>
<trkpt lat="49.560737600550056" lon="9.107397040352224">
<ele>469.4</ele>
<time>2024-05-10T10:18:01Z</time>
</trkpt>
<trkpt lat="49.560737600550056" lon="9.107351275160909">
<ele>469.6</ele>
<time>2024-05-10T10:18:02Z</time>
</trkpt>
<trkpt lat="49.560737600550056" lon="9.10730835981667">
<ele>469.8</ele>
<time>2024-05-10T10:18:03Z</time>
</trkpt>
<trkpt lat="49.5607337448746" lon="9.10721205174923">
<ele>469.8</ele>
<time>2024-05-10T10:18:05Z</time>
</trkpt>
<trkpt lat="49.5607337448746" lon="9.107166286557913">
<ele>470</ele>
<time>2024-05-10T10:18:06Z</time>
</trkpt>
<trkpt lat="49.56072997301817" lon="9.107136698439716">
<ele>470.2</ele>
<time>2024-05-10T10:18:07Z</time>
</trkpt>
<trkpt lat="49.56072997301817" lon="9.107099482789636">
<ele>470.4</ele>
<time>2024-05-10T10:18:08Z</time>
</trkpt>
<trkpt lat="49.56072997301817" lon="9.10703368484974">
<ele>470.6</ele>
<time>2024-05-10T10:18:10Z</time>
</trkpt>
<trkpt lat="49.56072611734271" lon="9.10699462518096">
<ele>471</ele>
<time>2024-05-10T10:18:11Z</time>
</trkpt>
<trkpt lat="49.56072611734271" lon="9.106958331540229">
<ele>471.2</ele>
<time>2024-05-10T10:18:12Z</time>
</trkpt>
<trkpt lat="49.56072234548628" lon="9.10691642202437">
<ele>471.6</ele>
<time>2024-05-10T10:18:13Z</time>
</trkpt>
<trkpt lat="49.56072234548628" lon="9.106840062886477">
<ele>471.8</ele>
<time>2024-05-10T10:18:15Z</time>
</trkpt>
<trkpt lat="49.560718489810824" lon="9.10679622553289">
<ele>472</ele>
<time>2024-05-10T10:18:16Z</time>
</trkpt>
<trkpt lat="49.56072611734271" lon="9.106760015711188">
<ele>472.4</ele>
<time>2024-05-10T10:18:17Z</time>
</trkpt>
<trkpt lat="49.56072997301817" lon="9.106711316853762">
<ele>472.6</ele>
<time>2024-05-10T10:18:18Z</time>
</trkpt>
<trkpt lat="49.56072997301817" lon="9.10665700212121">
<ele>472.8</ele>
<time>2024-05-10T10:18:19Z</time>
</trkpt>
<trkpt lat="49.56072234548628" lon="9.106603609398007">
<ele>473</ele>
<time>2024-05-10T10:18:20Z</time>
</trkpt>
<trkpt lat="49.560718489810824" lon="9.10655491054058">
<ele>473.4</ele>
<time>2024-05-10T10:18:21Z</time>
</trkpt>
<trkpt lat="49.560718489810824" lon="9.106506295502186">
<ele>473.6</ele>
<time>2024-05-10T10:18:22Z</time>
</trkpt>
<trkpt lat="49.56071086227894" lon="9.106452902778983">
<ele>474</ele>
<time>2024-05-10T10:18:23Z</time>
</trkpt>
<trkpt lat="49.56071086227894" lon="9.106374699622393">
<ele>474.2</ele>
<time>2024-05-10T10:18:25Z</time>
</trkpt>
<trkpt lat="49.56070323474705" lon="9.10634133964777">
<ele>474.4</ele>
<time>2024-05-10T10:18:26Z</time>
</trkpt>
<trkpt lat="49.560699462890625" lon="9.106305046007035">
<ele>474.6</ele>
<time>2024-05-10T10:18:27Z</time>
</trkpt>
<trkpt lat="49.560695607215166" lon="9.10626313649118">
<ele>475</ele>
<time>2024-05-10T10:18:28Z</time>
</trkpt>
<trkpt lat="49.56070323474705" lon="9.106186861172318">
<ele>475.2</ele>
<time>2024-05-10T10:18:30Z</time>
</trkpt>
<trkpt lat="49.56071086227894" lon="9.106149645522237">
<ele>475.4</ele>
<time>2024-05-10T10:18:31Z</time>
</trkpt>
<trkpt lat="49.56070709042251" lon="9.106108658015728">
<ele>475.8</ele>
<time>2024-05-10T10:18:32Z</time>
</trkpt>
<trkpt lat="49.56070709042251" lon="9.1060599591583">
<ele>476</ele>
<time>2024-05-10T10:18:33Z</time>
</trkpt>
<trkpt lat="49.56070323474705" lon="9.10596465691924">
<ele>476.2</ele>
<time>2024-05-10T10:18:35Z</time>
</trkpt>
<trkpt lat="49.56070709042251" lon="9.105908330529928">
<ele>476.6</ele>
<time>2024-05-10T10:18:36Z</time>
</trkpt>
<trkpt lat="49.56070709042251" lon="9.10586642101407">
<ele>476.8</ele>
<time>2024-05-10T10:18:37Z</time>
</trkpt>
<trkpt lat="49.56071086227894" lon="9.10582534968853">
<ele>477.2</ele>
<time>2024-05-10T10:18:38Z</time>
</trkpt>
<trkpt lat="49.56071086227894" lon="9.105781512334945">
<ele>477.4</ele>
<time>2024-05-10T10:18:39Z</time>
</trkpt>
<trkpt lat="49.56071086227894" lon="9.105738596990705">
<ele>477.6</ele>
<time>2024-05-10T10:18:40Z</time>
</trkpt>
<trkpt lat="49.5607147179544" lon="9.105698531493545">
<ele>478</ele>
<time>2024-05-10T10:18:41Z</time>
</trkpt>
<trkpt lat="49.560718489810824" lon="9.10565184429288">
<ele>478.2</ele>
<time>2024-05-10T10:18:42Z</time>
</trkpt>
<trkpt lat="49.560718489810824" lon="9.105601301416756">
<ele>478.4</ele>
<time>2024-05-10T10:18:43Z</time>
</trkpt>
<trkpt lat="49.5607147179544" lon="9.105506837368011">
<ele>478.6</ele>
<time>2024-05-10T10:18:45Z</time>
</trkpt>
<trkpt lat="49.56071086227894" lon="9.105456294491889">
<ele>478.8</ele>
<time>2024-05-10T10:18:46Z</time>
</trkpt>
<trkpt lat="49.5607147179544" lon="9.105401979759336">
<ele>479</ele>
<time>2024-05-10T10:18:47Z</time>
</trkpt>
<trkpt lat="49.560718489810824" lon="9.105358058586717">
<ele>479.4</ele>
<time>2024-05-10T10:18:48Z</time>
</trkpt>
<trkpt lat="49.56072234548628" lon="9.105283711105583">
<ele>479.6</ele>
<time>2024-05-10T10:18:50Z</time>
</trkpt>
<trkpt lat="49.56072234548628" lon="9.105241717770696">
<ele>479.8</ele>
<time>2024-05-10T10:18:51Z</time>
</trkpt>
<trkpt lat="49.56072611734271" lon="9.105191174894571">
<ele>480</ele>
<time>2024-05-10T10:18:52Z</time>
</trkpt>
<trkpt lat="49.56072997301817" lon="9.105143481865523">
<ele>480.2</ele>
<time>2024-05-10T10:18:53Z</time>
</trkpt>
<trkpt lat="49.560718489810824" lon="9.10503669641912">
<ele>480.6</ele>
<time>2024-05-10T10:18:55Z</time>
</trkpt>
<trkpt lat="49.56070709042251" lon="9.10499470308423">
<ele>480.8</ele>
<time>2024-05-10T10:18:56Z</time>
</trkpt>
<trkpt lat="49.560699462890625" lon="9.104945166036488">
<ele>480.8</ele>
<time>2024-05-10T10:18:57Z</time>
</trkpt>
<trkpt lat="49.560699462890625" lon="9.104901244863868">
<ele>481.2</ele>
<time>2024-05-10T10:18:58Z</time>
</trkpt>
<trkpt lat="49.56069175153971" lon="9.104854557663202">
<ele>481.4</ele>
<time>2024-05-10T10:18:59Z</time>
</trkpt>
<trkpt lat="49.560680352151394" lon="9.104809714481236">
<ele>481.6</ele>
<time>2024-05-10T10:19:00Z</time>
</trkpt>
<trkpt lat="49.560676496475935" lon="9.104769648984076">
<ele>481.8</ele>
<time>2024-05-10T10:19:01Z</time>
</trkpt>
<trkpt lat="49.56067272461951" lon="9.104724805802109">
<ele>482</ele>
<time>2024-05-10T10:19:02Z</time>
</trkpt>
<trkpt lat="49.56066886894405" lon="9.10468004643917">
<ele>482.2</ele>
<time>2024-05-10T10:19:03Z</time>
</trkpt>
<trkpt lat="49.56066509708762" lon="9.104586588218808">
<ele>482.4</ele>
<time>2024-05-10T10:19:05Z</time>
</trkpt>
<trkpt lat="49.56066124141216" lon="9.104533195495604">
<ele>482.4</ele>
<time>2024-05-10T10:19:06Z</time>
</trkpt>
<trkpt lat="49.56066509708762" lon="9.104488352313638">
<ele>482.6</ele>
<time>2024-05-10T10:19:07Z</time>
</trkpt>
<trkpt lat="49.56066509708762" lon="9.104446358978748">
<ele>482.6</ele>
<time>2024-05-10T10:19:08Z</time>
</trkpt>
<trkpt lat="49.56065361388028" lon="9.10434334538877">
<ele>482.8</ele>
<time>2024-05-10T10:19:10Z</time>
</trkpt>
<trkpt lat="49.56064221449196" lon="9.104292802512646">
<ele>482.8</ele>
<time>2024-05-10T10:19:11Z</time>
</trkpt>
<trkpt lat="49.56064221449196" lon="9.104236559942365">
<ele>482.8</ele>
<time>2024-05-10T10:19:12Z</time>
</trkpt>
<trkpt lat="49.560638358816504" lon="9.104191716760395">
<ele>482.8</ele>
<time>2024-05-10T10:19:13Z</time>
</trkpt>
<trkpt lat="49.56064221449196" lon="9.10414695739746">
<ele>482.8</ele>
<time>2024-05-10T10:19:14Z</time>
</trkpt>
<trkpt lat="49.56064221449196" lon="9.104116363450885">
<ele>483</ele>
<time>2024-05-10T10:19:15Z</time>
</trkpt>
<trkpt lat="49.56064984202385" lon="9.104080153629184">
<ele>483</ele>
<time>2024-05-10T10:19:16Z</time>
</trkpt>
<trkpt lat="49.56066509708762" lon="9.104033466428518">
<ele>483.2</ele>
<time>2024-05-10T10:19:17Z</time>
</trkpt>
<trkpt lat="49.56067272461951" lon="9.103995244950056">
<ele>483.2</ele>
<time>2024-05-10T10:19:18Z</time>
</trkpt>
<trkpt lat="49.56068412400782" lon="9.103956185281277">
<ele>483.4</ele>
<time>2024-05-10T10:19:19Z</time>
</trkpt>
<trkpt lat="49.56068412400782" lon="9.103897092863916">
<ele>483.4</ele>
<time>2024-05-10T10:19:20Z</time>
</trkpt>
<trkpt lat="49.56069175153971" lon="9.103843616321685">
<ele>483.6</ele>
<time>2024-05-10T10:19:21Z</time>
</trkpt>
<trkpt lat="49.560695607215166" lon="9.103796929121016">
<ele>483.6</ele>
<time>2024-05-10T10:19:22Z</time>
</trkpt>
<trkpt lat="49.56070709042251" lon="9.1037530079484">
<ele>483.6</ele>
<time>2024-05-10T10:19:23Z</time>
</trkpt>
<trkpt lat="49.560718489810824" lon="9.103726353496311">
<ele>483.6</ele>
<time>2024-05-10T10:19:24Z</time>
</trkpt>
<trkpt lat="49.56072997301817" lon="9.10369299352169">
<ele>483.8</ele>
<time>2024-05-10T10:19:25Z</time>
</trkpt>
<trkpt lat="49.560737600550056" lon="9.103658627718689">
<ele>483.8</ele>
<time>2024-05-10T10:19:26Z</time>
</trkpt>
<trkpt lat="49.56075285561383" lon="9.103619568049908">
<ele>483.8</ele>
<time>2024-05-10T10:19:27Z</time>
</trkpt>
<trkpt lat="49.560760483145714" lon="9.103586124256251">
<ele>483.8</ele>
<time>2024-05-10T10:19:28Z</time>
</trkpt>
<trkpt lat="49.56077951006591" lon="9.103506999090314">
<ele>483.8</ele>
<time>2024-05-10T10:19:30Z</time>
</trkpt>
<trkpt lat="49.560798620805144" lon="9.103471711277962">
<ele>483.8</ele>
<time>2024-05-10T10:19:31Z</time>
</trkpt>
<trkpt lat="49.560817647725344" lon="9.10343835130334">
<ele>484</ele>
<time>2024-05-10T10:19:32Z</time>
</trkpt>
<trkpt lat="49.56082913093269" lon="9.103403063490989">
<ele>484</ele>
<time>2024-05-10T10:19:33Z</time>
</trkpt>
<trkpt lat="49.560855785384774" lon="9.103331565856934">
<ele>484.2</ele>
<time>2024-05-10T10:19:35Z</time>
</trkpt>
<trkpt lat="49.56086341291666" lon="9.103293344378471">
<ele>484.2</ele>
<time>2024-05-10T10:19:36Z</time>
</trkpt>
<trkpt lat="49.56086726859212" lon="9.10325621254742">
<ele>484.4</ele>
<time>2024-05-10T10:19:37Z</time>
</trkpt>
<trkpt lat="49.56088252365589" lon="9.103218074887993">
<ele>484.6</ele>
<time>2024-05-10T10:19:38Z</time>
</trkpt>
<trkpt lat="49.56089400686323" lon="9.10313693806529">
<ele>484.8</ele>
<time>2024-05-10T10:19:40Z</time>
</trkpt>
<trkpt lat="49.56090163439512" lon="9.103091172873974">
<ele>484.8</ele>
<time>2024-05-10T10:19:41Z</time>
</trkpt>
<trkpt lat="49.56091303378344" lon="9.103052113205194">
<ele>485</ele>
<time>2024-05-10T10:19:42Z</time>
</trkpt>
<trkpt lat="49.560916889458895" lon="9.103012969717383">
<ele>485.2</ele>
<time>2024-05-10T10:19:43Z</time>
</trkpt>
<trkpt lat="49.560916889458895" lon="9.102971982210876">
<ele>485.6</ele>
<time>2024-05-10T10:19:44Z</time>
</trkpt>
<trkpt lat="49.560916889458895" lon="9.102925295010207">
<ele>485.8</ele>
<time>2024-05-10T10:19:45Z</time>
</trkpt>
<trkpt lat="49.56091303378344" lon="9.102888079360127">
<ele>486</ele>
<time>2024-05-10T10:19:46Z</time>
</trkpt>
<trkpt lat="49.56091303378344" lon="9.10284038633108">
<ele>486.2</ele>
<time>2024-05-10T10:19:47Z</time>
</trkpt>
<trkpt lat="49.56090926192701" lon="9.102793615311384">
<ele>486.4</ele>
<time>2024-05-10T10:19:48Z</time>
</trkpt>
<trkpt lat="49.56089400686323" lon="9.102707784622908">
<ele>486.6</ele>
<time>2024-05-10T10:19:50Z</time>
</trkpt>
<trkpt lat="49.56089015118778" lon="9.102656319737434">
<ele>486.8</ele>
<time>2024-05-10T10:19:51Z</time>
</trkpt>
<trkpt lat="49.56088637933135" lon="9.102611476555468">
<ele>487</ele>
<time>2024-05-10T10:19:52Z</time>
</trkpt>
<trkpt lat="49.56088637933135" lon="9.102561939507725">
<ele>487</ele>
<time>2024-05-10T10:19:53Z</time>
</trkpt>
<trkpt lat="49.56089015118778" lon="9.10246848128736">
<ele>487.2</ele>
<time>2024-05-10T10:19:55Z</time>
</trkpt>
<trkpt lat="49.56088637933135" lon="9.10242648795247">
<ele>487.4</ele>
<time>2024-05-10T10:19:56Z</time>
</trkpt>
<trkpt lat="49.56089015118778" lon="9.102381644770505">
<ele>487.6</ele>
<time>2024-05-10T10:19:57Z</time>
</trkpt>
<trkpt lat="49.56090163439512" lon="9.10233210772276">
<ele>487.8</ele>
<time>2024-05-10T10:19:58Z</time>
</trkpt>
<trkpt lat="49.56090540625155" lon="9.102221466600897">
<ele>488</ele>
<time>2024-05-10T10:20:00Z</time>
</trkpt>
<trkpt lat="49.56090926192701" lon="9.102173773571849">
<ele>488</ele>
<time>2024-05-10T10:20:01Z</time>
</trkpt>
<trkpt lat="49.56090540625155" lon="9.102128008380532">
<ele>488.2</ele>
<time>2024-05-10T10:20:02Z</time>
</trkpt>
<trkpt lat="49.56090163439512" lon="9.102085093036294">
<ele>488.2</ele>
<time>2024-05-10T10:20:03Z</time>
</trkpt>
<trkpt lat="49.56090926192701" lon="9.101986857131124">
<ele>488.4</ele>
<time>2024-05-10T10:20:05Z</time>
</trkpt>
<trkpt lat="49.560916889458895" lon="9.10193530842662">
<ele>488.6</ele>
<time>2024-05-10T10:20:06Z</time>
</trkpt>
<trkpt lat="49.56092828884721" lon="9.101882921531796">
<ele>488.8</ele>
<time>2024-05-10T10:20:07Z</time>
</trkpt>
<trkpt lat="49.56093977205455" lon="9.101831372827291">
<ele>488.8</ele>
<time>2024-05-10T10:20:08Z</time>
</trkpt>
<trkpt lat="49.56096642650664" lon="9.101723665371535">
<ele>489</ele>
<time>2024-05-10T10:20:10Z</time>
</trkpt>
<trkpt lat="49.5609893091023" lon="9.101673122495413">
<ele>489</ele>
<time>2024-05-10T10:20:11Z</time>
</trkpt>
<trkpt lat="49.56100841984153" lon="9.101628279313443">
<ele>489.2</ele>
<time>2024-05-10T10:20:12Z</time>
</trkpt>
<trkpt lat="49.561031302437186" lon="9.10157865844667">
<ele>489.4</ele>
<time>2024-05-10T10:20:13Z</time>
</trkpt>
<trkpt lat="49.5610770676285" lon="9.101489977911116">
<ele>489.4</ele>
<time>2024-05-10T10:20:15Z</time>
</trkpt>
<trkpt lat="49.56109995022416" lon="9.101447062566876">
<ele>489.6</ele>
<time>2024-05-10T10:20:16Z</time>
</trkpt>
<trkpt lat="49.56111906096339" lon="9.10140322521329">
<ele>489.8</ele>
<time>2024-05-10T10:20:17Z</time>
</trkpt>
<trkpt lat="49.56113808788359" lon="9.10136315971613">
<ele>489.8</ele>
<time>2024-05-10T10:20:18Z</time>
</trkpt>
<trkpt lat="49.56116482615471" lon="9.101280178874733">
<ele>490</ele>
<time>2024-05-10T10:20:20Z</time>
</trkpt>
<trkpt lat="49.56118385307491" lon="9.1012420412153">
<ele>490</ele>
<time>2024-05-10T10:20:21Z</time>
</trkpt>
<trkpt lat="49.56119910813868" lon="9.101198120042682">
<ele>490.2</ele>
<time>2024-05-10T10:20:22Z</time>
</trkpt>
<trkpt lat="49.56121444702149" lon="9.101153360679746">
<ele>490.2</ele>
<time>2024-05-10T10:20:23Z</time>
</trkpt>
<trkpt lat="49.56122970208526" lon="9.101108517497778">
<ele>490.4</ele>
<time>2024-05-10T10:20:24Z</time>
</trkpt>
<trkpt lat="49.56124110147357" lon="9.10106367431581">
<ele>490.6</ele>
<time>2024-05-10T10:20:25Z</time>
</trkpt>
<trkpt lat="49.561252584680915" lon="9.10102360881865">
<ele>490.8</ele>
<time>2024-05-10T10:20:26Z</time>
</trkpt>
<trkpt lat="49.5612602122128" lon="9.100979771465065">
<ele>490.8</ele>
<time>2024-05-10T10:20:27Z</time>
</trkpt>
<trkpt lat="49.561271611601114" lon="9.100939705967903">
<ele>491</ele>
<time>2024-05-10T10:20:28Z</time>
</trkpt>
<trkpt lat="49.56129834987223" lon="9.100861502811313">
<ele>491.2</ele>
<time>2024-05-10T10:20:30Z</time>
</trkpt>
<trkpt lat="49.561309749260545" lon="9.100823365151882">
<ele>491.4</ele>
<time>2024-05-10T10:20:31Z</time>
</trkpt>
<trkpt lat="49.56132123246789" lon="9.100785227492452">
<ele>491.6</ele>
<time>2024-05-10T10:20:32Z</time>
</trkpt>
<trkpt lat="49.561328859999776" lon="9.100743234157562">
<ele>491.8</ele>
<time>2024-05-10T10:20:33Z</time>
</trkpt>
<trkpt lat="49.56134025938809" lon="9.100705096498132">
<ele>492</ele>
<time>2024-05-10T10:20:34Z</time>
</trkpt>
<trkpt lat="49.56135551445186" lon="9.100663103163242">
<ele>492.2</ele>
<time>2024-05-10T10:20:35Z</time>
</trkpt>
<trkpt lat="49.561366997659206" lon="9.100618343800306">
<ele>492.2</ele>
<time>2024-05-10T10:20:36Z</time>
</trkpt>
<trkpt lat="49.56138225272298" lon="9.10057350061834">
<ele>492.4</ele>
<time>2024-05-10T10:20:37Z</time>
</trkpt>
<trkpt lat="49.56139373593032" lon="9.100536284968255">
<ele>492.4</ele>
<time>2024-05-10T10:20:38Z</time>
</trkpt>
<trkpt lat="49.561408990994096" lon="9.10049336962402">
<ele>492.6</ele>
<time>2024-05-10T10:20:39Z</time>
</trkpt>
<trkpt lat="49.56142424605787" lon="9.100449532270432">
<ele>492.6</ele>
<time>2024-05-10T10:20:40Z</time>
</trkpt>
<trkpt lat="49.56143564544618" lon="9.100406616926191">
<ele>492.6</ele>
<time>2024-05-10T10:20:41Z</time>
</trkpt>
<trkpt lat="49.56145090050995" lon="9.100364623591304">
<ele>492.8</ele>
<time>2024-05-10T10:20:42Z</time>
</trkpt>
<trkpt lat="49.561466155573726" lon="9.100326485931872">
<ele>492.8</ele>
<time>2024-05-10T10:20:43Z</time>
</trkpt>
<trkpt lat="49.56147763878107" lon="9.100288348272445">
<ele>493</ele>
<time>2024-05-10T10:20:44Z</time>
</trkpt>
<trkpt lat="49.561489038169384" lon="9.100250210613012">
<ele>493</ele>
<time>2024-05-10T10:20:45Z</time>
</trkpt>
<trkpt lat="49.56150052137673" lon="9.100203439593315">
<ele>493.2</ele>
<time>2024-05-10T10:20:46Z</time>
</trkpt>
<trkpt lat="49.56151192076504" lon="9.100159602239728">
<ele>493.2</ele>
<time>2024-05-10T10:20:47Z</time>
</trkpt>
<trkpt lat="49.56152340397239" lon="9.10011861473322">
<ele>493.4</ele>
<time>2024-05-10T10:20:48Z</time>
</trkpt>
<trkpt lat="49.56153103150427" lon="9.100079471245408">
<ele>493.4</ele>
<time>2024-05-10T10:20:49Z</time>
</trkpt>
<trkpt lat="49.56154243089259" lon="9.100041333585978">
<ele>493.4</ele>
<time>2024-05-10T10:20:50Z</time>
</trkpt>
<trkpt lat="49.56155391409993" lon="9.100000346079469">
<ele>493.4</ele>
<time>2024-05-10T10:20:51Z</time>
</trkpt>
<trkpt lat="49.561569169163704" lon="9.099963130429389">
<ele>493.6</ele>
<time>2024-05-10T10:20:52Z</time>
</trkpt>
<trkpt lat="49.56158065237105" lon="9.099927842617037">
<ele>493.6</ele>
<time>2024-05-10T10:20:53Z</time>
</trkpt>
<trkpt lat="49.56159590743482" lon="9.099886855110526">
<ele>493.6</ele>
<time>2024-05-10T10:20:54Z</time>
</trkpt>
<trkpt lat="49.56161116249859" lon="9.099846789613366">
<ele>493.6</ele>
<time>2024-05-10T10:20:55Z</time>
</trkpt>
<trkpt lat="49.56162256188691" lon="9.099806724116206">
<ele>493.6</ele>
<time>2024-05-10T10:20:56Z</time>
</trkpt>
<trkpt lat="49.56163404509425" lon="9.099769592285156">
<ele>493.8</ele>
<time>2024-05-10T10:20:57Z</time>
</trkpt>
<trkpt lat="49.561645444482565" lon="9.099728520959616">
<ele>493.8</ele>
<time>2024-05-10T10:20:58Z</time>
</trkpt>
<trkpt lat="49.56166069954634" lon="9.099690383300183">
<ele>494</ele>
<time>2024-05-10T10:20:59Z</time>
</trkpt>
<trkpt lat="49.56167595461011" lon="9.099648473784328">
<ele>494</ele>
<time>2024-05-10T10:21:00Z</time>
</trkpt>
<trkpt lat="49.56169120967388" lon="9.099613185971975">
<ele>494.2</ele>
<time>2024-05-10T10:21:01Z</time>
</trkpt>
<trkpt lat="49.561706464737654" lon="9.099573120474815">
<ele>494.2</ele>
<time>2024-05-10T10:21:02Z</time>
</trkpt>
<trkpt lat="49.561721719801426" lon="9.099533054977655">
<ele>494.4</ele>
<time>2024-05-10T10:21:03Z</time>
</trkpt>
<trkpt lat="49.56174083054066" lon="9.099492989480495">
<ele>494.4</ele>
<time>2024-05-10T10:21:04Z</time>
</trkpt>
<trkpt lat="49.56175608560443" lon="9.099448146298528">
<ele>494.6</ele>
<time>2024-05-10T10:21:05Z</time>
</trkpt>
<trkpt lat="49.56177519634366" lon="9.09940330311656">
<ele>494.6</ele>
<time>2024-05-10T10:21:06Z</time>
</trkpt>
<trkpt lat="49.56179045140743" lon="9.099358543753624">
<ele>494.8</ele>
<time>2024-05-10T10:21:07Z</time>
</trkpt>
<trkpt lat="49.561805706471205" lon="9.099309844896196">
<ele>494.8</ele>
<time>2024-05-10T10:21:08Z</time>
</trkpt>
<trkpt lat="49.56182096153498" lon="9.09926508553326">
<ele>494.8</ele>
<time>2024-05-10T10:21:09Z</time>
</trkpt>
<trkpt lat="49.561839988455176" lon="9.0992250200361">
<ele>495</ele>
<time>2024-05-10T10:21:10Z</time>
</trkpt>
<trkpt lat="49.561862871050835" lon="9.09918973222375">
<ele>495.2</ele>
<time>2024-05-10T10:21:11Z</time>
</trkpt>
<trkpt lat="49.561881981790066" lon="9.099156372249126">
<ele>495.4</ele>
<time>2024-05-10T10:21:12Z</time>
</trkpt>
<trkpt lat="49.56189723685384" lon="9.099122928455472">
<ele>495.6</ele>
<time>2024-05-10T10:21:13Z</time>
</trkpt>
<trkpt lat="49.56191249191761" lon="9.099096274003386">
<ele>495.8</ele>
<time>2024-05-10T10:21:14Z</time>
</trkpt>
<trkpt lat="49.561923975124955" lon="9.099080013111234">
<ele>496</ele>
<time>2024-05-10T10:21:15Z</time>
</trkpt>
<trkpt lat="49.56193160265684" lon="9.09906953573227">
<ele>496</ele>
<time>2024-05-10T10:21:16Z</time>
</trkpt>
<trkpt lat="49.56193160265684" lon="9.09907146357">
<ele>496</ele>
<time>2024-05-10T10:21:17Z</time>
</trkpt>
<trkpt lat="49.56193537451327" lon="9.099073391407728">
<ele>496</ele>
<time>2024-05-10T10:21:19Z</time>
</trkpt>
<trkpt lat="49.56193160265684" lon="9.09907146357">
<ele>496</ele>
<time>2024-05-10T10:21:20Z</time>
</trkpt>
<trkpt lat="49.56193160265684" lon="9.099073391407728">
<ele>496</ele>
<time>2024-05-10T10:21:24Z</time>
</trkpt>
<trkpt lat="49.56192774698138" lon="9.099073391407728">
<ele>496</ele>
<time>2024-05-10T10:21:25Z</time>
</trkpt>
<trkpt lat="49.56192774698138" lon="9.099075235426426">
<ele>496</ele>
<time>2024-05-10T10:21:28Z</time>
</trkpt>
<trkpt lat="49.561923975124955" lon="9.099076241254808">
<ele>496</ele>
<time>2024-05-10T10:21:31Z</time>
</trkpt>
<trkpt lat="49.561923975124955" lon="9.099078169092536">
<ele>495.8</ele>
<time>2024-05-10T10:21:34Z</time>
</trkpt>
<trkpt lat="49.561923975124955" lon="9.099080013111234">
<ele>495.6</ele>
<time>2024-05-10T10:21:37Z</time>
</trkpt>
<trkpt lat="49.561920119449496" lon="9.099080013111234">
<ele>495.4</ele>
<time>2024-05-10T10:21:38Z</time>
</trkpt>
<trkpt lat="49.561920119449496" lon="9.099081940948963">
<ele>495</ele>
<time>2024-05-10T10:21:44Z</time>
</trkpt>
<trkpt lat="49.561920119449496" lon="9.099080013111234">
<ele>494.8</ele>
<time>2024-05-10T10:21:50Z</time>
</trkpt>
<trkpt lat="49.561920119449496" lon="9.099078169092536">
<ele>494.6</ele>
<time>2024-05-10T10:21:55Z</time>
</trkpt>
<trkpt lat="49.561920119449496" lon="9.099076241254808">
<ele>494.4</ele>
<time>2024-05-10T10:21:59Z</time>
</trkpt>
<trkpt lat="49.561920119449496" lon="9.099075235426426">
<ele>494.2</ele>
<time>2024-05-10T10:22:01Z</time>
</trkpt>
<trkpt lat="49.561920119449496" lon="9.099073391407728">
<ele>494</ele>
<time>2024-05-10T10:22:03Z</time>
</trkpt>
<trkpt lat="49.561920119449496" lon="9.09907146357">
<ele>493.8</ele>
<time>2024-05-10T10:22:05Z</time>
</trkpt>
<trkpt lat="49.561920119449496" lon="9.09906953573227">
<ele>493.6</ele>
<time>2024-05-10T10:22:08Z</time>
</trkpt>
<trkpt lat="49.561920119449496" lon="9.09906861372292">
<ele>493.4</ele>
<time>2024-05-10T10:22:10Z</time>
</trkpt>
<trkpt lat="49.561920119449496" lon="9.099066685885193">
<ele>493.2</ele>
<time>2024-05-10T10:22:12Z</time>
</trkpt>
<trkpt lat="49.561920119449496" lon="9.099064758047462">
<ele>493.2</ele>
<time>2024-05-10T10:22:15Z</time>
</trkpt>
<trkpt lat="49.561920119449496" lon="9.099062914028764">
<ele>493</ele>
<time>2024-05-10T10:22:18Z</time>
</trkpt>
<trkpt lat="49.561920119449496" lon="9.099061908200383">
<ele>492.8</ele>
<time>2024-05-10T10:22:20Z</time>
</trkpt>
<trkpt lat="49.561920119449496" lon="9.099059980362654">
<ele>492.6</ele>
<time>2024-05-10T10:22:23Z</time>
</trkpt>
<trkpt lat="49.561923975124955" lon="9.099059980362654">
<ele>492.6</ele>
<time>2024-05-10T10:22:26Z</time>
</trkpt>
<trkpt lat="49.561923975124955" lon="9.099058136343956">
<ele>492.4</ele>
<time>2024-05-10T10:22:28Z</time>
</trkpt>
<trkpt lat="49.56192774698138" lon="9.099058136343956">
<ele>492.4</ele>
<time>2024-05-10T10:22:30Z</time>
</trkpt>
<trkpt lat="49.56192774698138" lon="9.099059980362654">
<ele>492.2</ele>
<time>2024-05-10T10:22:35Z</time>
</trkpt>
<trkpt lat="49.56193160265684" lon="9.099059980362654">
<ele>492.2</ele>
<time>2024-05-10T10:22:36Z</time>
</trkpt>
<trkpt lat="49.56193160265684" lon="9.099061908200383">
<ele>492.2</ele>
<time>2024-05-10T10:22:38Z</time>
</trkpt>
<trkpt lat="49.56193160265684" lon="9.099062914028764">
<ele>492.2</ele>
<time>2024-05-10T10:22:41Z</time>
</trkpt>
<trkpt lat="49.56193160265684" lon="9.099064758047462">
<ele>492.2</ele>
<time>2024-05-10T10:22:46Z</time>
</trkpt>
<trkpt lat="49.56193160265684" lon="9.099062914028764">
<ele>492.2</ele>
<time>2024-05-10T10:22:49Z</time>
</trkpt>
<trkpt lat="49.56193160265684" lon="9.099061908200383">
<ele>492.2</ele>
<time>2024-05-10T10:22:52Z</time>
</trkpt>
<trkpt lat="49.56193537451327" lon="9.099061908200383">
<ele>492.4</ele>
<time>2024-05-10T10:22:53Z</time>
</trkpt>
<trkpt lat="49.56193160265684" lon="9.099061908200383">
<ele>492.4</ele>
<time>2024-05-10T10:22:54Z</time>
</trkpt>
<trkpt lat="49.56193160265684" lon="9.099059980362654">
<ele>492.6</ele>
<time>2024-05-10T10:22:56Z</time>
</trkpt>
<trkpt lat="49.56192774698138" lon="9.099061908200383">
<ele>492.6</ele>
<time>2024-05-10T10:23:13Z</time>
</trkpt>
<trkpt lat="49.561923975124955" lon="9.099061908200383">
<ele>492.8</ele>
<time>2024-05-10T10:23:27Z</time>
</trkpt>
<trkpt lat="49.561923975124955" lon="9.099062914028764">
<ele>493</ele>
<time>2024-05-10T10:23:28Z</time>
</trkpt>
<trkpt lat="49.561923975124955" lon="9.099061908200383">
<ele>493</ele>
<time>2024-05-10T10:23:29Z</time>
</trkpt>
<trkpt lat="49.561923975124955" lon="9.099059980362654">
<ele>493.2</ele>
<time>2024-05-10T10:23:51Z</time>
</trkpt>
<trkpt lat="49.56192774698138" lon="9.099059980362654">
<ele>493.2</ele>
<time>2024-05-10T10:23:54Z</time>
</trkpt>
<trkpt lat="49.561923975124955" lon="9.09904858097434">
<ele>493.4</ele>
<time>2024-05-10T10:24:01Z</time>
</trkpt>
<trkpt lat="49.56191634759307" lon="9.099035253748298">
<ele>493.4</ele>
<time>2024-05-10T10:24:02Z</time>
</trkpt>
<trkpt lat="49.56191249191761" lon="9.099018070846796">
<ele>493.6</ele>
<time>2024-05-10T10:24:03Z</time>
</trkpt>
<trkpt lat="49.56191634759307" lon="9.098995188251138">
<ele>493.6</ele>
<time>2024-05-10T10:24:04Z</time>
</trkpt>
<trkpt lat="49.561923975124955" lon="9.098957972601056">
<ele>493.8</ele>
<time>2024-05-10T10:24:05Z</time>
</trkpt>
<trkpt lat="49.56193160265684" lon="9.098926540464165">
<ele>494</ele>
<time>2024-05-10T10:24:06Z</time>
</trkpt>
<trkpt lat="49.561943002045155" lon="9.09889125265181">
<ele>494</ele>
<time>2024-05-10T10:24:07Z</time>
</trkpt>
<trkpt lat="49.5619544852525" lon="9.098857808858156">
<ele>494.2</ele>
<time>2024-05-10T10:24:08Z</time>
</trkpt>
<trkpt lat="49.56196974031627" lon="9.098834926262498">
<ele>494.4</ele>
<time>2024-05-10T10:24:09Z</time>
</trkpt>
<trkpt lat="49.56198499538005" lon="9.098816821351647">
<ele>494.6</ele>
<time>2024-05-10T10:24:10Z</time>
</trkpt>
<trkpt lat="49.56199639476836" lon="9.098799638450146">
<ele>494.6</ele>
<time>2024-05-10T10:24:11Z</time>
</trkpt>
<trkpt lat="49.56200402230024" lon="9.098788239061832">
<ele>494.8</ele>
<time>2024-05-10T10:24:12Z</time>
</trkpt>
<trkpt lat="49.56201164983213" lon="9.098774828016758">
<ele>494.8</ele>
<time>2024-05-10T10:24:13Z</time>
</trkpt>
<trkpt lat="49.562019277364016" lon="9.098759572952986">
<ele>494.8</ele>
<time>2024-05-10T10:24:14Z</time>
</trkpt>
<trkpt lat="49.562019277364016" lon="9.098750101402402">
<ele>495</ele>
<time>2024-05-10T10:24:15Z</time>
</trkpt>
<trkpt lat="49.562023133039474" lon="9.098743395879865">
<ele>495</ele>
<time>2024-05-10T10:24:16Z</time>
</trkpt>
<trkpt lat="49.562023133039474" lon="9.098741468042135">
<ele>495</ele>
<time>2024-05-10T10:24:17Z</time>
</trkpt>
<trkpt lat="49.5620269048959" lon="9.098738618195055">
<ele>495</ele>
<time>2024-05-10T10:24:18Z</time>
</trkpt>
<trkpt lat="49.5620269048959" lon="9.09873484633863">
<ele>495</ele>
<time>2024-05-10T10:24:20Z</time>
</trkpt>
<trkpt lat="49.5620269048959" lon="9.098736690357327">
<ele>495</ele>
<time>2024-05-10T10:24:23Z</time>
</trkpt>
<trkpt lat="49.5620269048959" lon="9.098738618195055">
<ele>495</ele>
<time>2024-05-10T10:24:28Z</time>
</trkpt>
<trkpt lat="49.562023133039474" lon="9.098741468042135">
<ele>495</ele>
<time>2024-05-10T10:24:29Z</time>
</trkpt>
<trkpt lat="49.562023133039474" lon="9.098743395879865">
<ele>495</ele>
<time>2024-05-10T10:24:30Z</time>
</trkpt>
<trkpt lat="49.562023133039474" lon="9.098745323717594">
<ele>494.8</ele>
<time>2024-05-10T10:24:31Z</time>
</trkpt>
<trkpt lat="49.562023133039474" lon="9.098746245726945">
<ele>494.8</ele>
<time>2024-05-10T10:24:32Z</time>
</trkpt>
<trkpt lat="49.562023133039474" lon="9.098748173564672">
<ele>494.6</ele>
<time>2024-05-10T10:24:34Z</time>
</trkpt>
<trkpt lat="49.562023133039474" lon="9.098746245726945">
<ele>494.4</ele>
<time>2024-05-10T10:24:35Z</time>
</trkpt>
<trkpt lat="49.562023133039474" lon="9.098748173564672">
<ele>494.4</ele>
<time>2024-05-10T10:24:36Z</time>
</trkpt>
<trkpt lat="49.562023133039474" lon="9.098750101402402">
<ele>494.2</ele>
<time>2024-05-10T10:24:40Z</time>
</trkpt>
<trkpt lat="49.562023133039474" lon="9.0987519454211">
<ele>494</ele>
<time>2024-05-10T10:24:41Z</time>
</trkpt>
<trkpt lat="49.562023133039474" lon="9.098750101402402">
<ele>494</ele>
<time>2024-05-10T10:24:48Z</time>
</trkpt>
<trkpt lat="49.562023133039474" lon="9.0987519454211">
<ele>494</ele>
<time>2024-05-10T10:24:52Z</time>
</trkpt>
<trkpt lat="49.5620269048959" lon="9.0987519454211">
<ele>493.8</ele>
<time>2024-05-10T10:24:53Z</time>
</trkpt>
<trkpt lat="49.562023133039474" lon="9.09875295124948">
<ele>493.8</ele>
<time>2024-05-10T10:24:55Z</time>
</trkpt>
<trkpt lat="49.5620269048959" lon="9.0987519454211">
<ele>493.8</ele>
<time>2024-05-10T10:25:00Z</time>
</trkpt>
<trkpt lat="49.5620269048959" lon="9.098750101402402">
<ele>493.8</ele>
<time>2024-05-10T10:25:01Z</time>
</trkpt>
<trkpt lat="49.5620269048959" lon="9.0987519454211">
<ele>494</ele>
<time>2024-05-10T10:25:05Z</time>
</trkpt>
<trkpt lat="49.5620269048959" lon="9.09875295124948">
<ele>494</ele>
<time>2024-05-10T10:25:06Z</time>
</trkpt>
<trkpt lat="49.5620269048959" lon="9.0987519454211">
<ele>494</ele>
<time>2024-05-10T10:25:07Z</time>
</trkpt>
<trkpt lat="49.5620269048959" lon="9.09875295124948">
<ele>494</ele>
<time>2024-05-10T10:25:10Z</time>
</trkpt>
<trkpt lat="49.562023133039474" lon="9.098756723105907">
<ele>494</ele>
<time>2024-05-10T10:25:11Z</time>
</trkpt>
<trkpt lat="49.562023133039474" lon="9.098759572952986">
<ele>494</ele>
<time>2024-05-10T10:25:12Z</time>
</trkpt>
<trkpt lat="49.562023133039474" lon="9.098758650943635">
<ele>494</ele>
<time>2024-05-10T10:25:14Z</time>
</trkpt>
<trkpt lat="49.562019277364016" lon="9.09875487908721">
<ele>494</ele>
<time>2024-05-10T10:25:15Z</time>
</trkpt>
<trkpt lat="49.562023133039474" lon="9.09875487908721">
<ele>493.8</ele>
<time>2024-05-10T10:25:16Z</time>
</trkpt>
<trkpt lat="49.562019277364016" lon="9.09875295124948">
<ele>493.8</ele>
<time>2024-05-10T10:25:17Z</time>
</trkpt>
<trkpt lat="49.562019277364016" lon="9.0987519454211">
<ele>493.6</ele>
<time>2024-05-10T10:25:19Z</time>
</trkpt>
<trkpt lat="49.562019277364016" lon="9.098750101402402">
<ele>493.6</ele>
<time>2024-05-10T10:25:20Z</time>
</trkpt>
<trkpt lat="49.562023133039474" lon="9.098748173564672">
<ele>493.4</ele>
<time>2024-05-10T10:25:21Z</time>
</trkpt>
<trkpt lat="49.562023133039474" lon="9.098746245726945">
<ele>493.4</ele>
<time>2024-05-10T10:25:25Z</time>
</trkpt>
<trkpt lat="49.562023133039474" lon="9.098748173564672">
<ele>493.4</ele>
<time>2024-05-10T10:25:30Z</time>
</trkpt>
<trkpt lat="49.562023133039474" lon="9.098746245726945">
<ele>493.4</ele>
<time>2024-05-10T10:25:31Z</time>
</trkpt>
<trkpt lat="49.562023133039474" lon="9.098748173564672">
<ele>493.2</ele>
<time>2024-05-10T10:25:32Z</time>
</trkpt>
<trkpt lat="49.562019277364016" lon="9.098748173564672">
<ele>493.2</ele>
<time>2024-05-10T10:25:34Z</time>
</trkpt>
<trkpt lat="49.562023133039474" lon="9.098748173564672">
<ele>493.2</ele>
<time>2024-05-10T10:25:36Z</time>
</trkpt>
<trkpt lat="49.562023133039474" lon="9.098746245726945">
<ele>493.2</ele>
<time>2024-05-10T10:25:38Z</time>
</trkpt>
<trkpt lat="49.562019277364016" lon="9.098746245726945">
<ele>493.2</ele>
<time>2024-05-10T10:25:42Z</time>
</trkpt>
<trkpt lat="49.562019277364016" lon="9.098745323717594">
<ele>493.2</ele>
<time>2024-05-10T10:25:45Z</time>
</trkpt>
<trkpt lat="49.562019277364016" lon="9.098743395879865">
<ele>493.2</ele>
<time>2024-05-10T10:25:48Z</time>
</trkpt>
<trkpt lat="49.562023133039474" lon="9.098743395879865">
<ele>493.2</ele>
<time>2024-05-10T10:25:50Z</time>
</trkpt>
<trkpt lat="49.562023133039474" lon="9.098741468042135">
<ele>493.2</ele>
<time>2024-05-10T10:25:52Z</time>
</trkpt>
<trkpt lat="49.562023133039474" lon="9.098743395879865">
<ele>493.2</ele>
<time>2024-05-10T10:25:53Z</time>
</trkpt>
<trkpt lat="49.562019277364016" lon="9.098741468042135">
<ele>493.2</ele>
<time>2024-05-10T10:25:55Z</time>
</trkpt>
<trkpt lat="49.562023133039474" lon="9.098745323717594">
<ele>493.2</ele>
<time>2024-05-10T10:25:57Z</time>
</trkpt>
<trkpt lat="49.562019277364016" lon="9.098741468042135">
<ele>493.2</ele>
<time>2024-05-10T10:25:58Z</time>
</trkpt>
<trkpt lat="49.562023133039474" lon="9.098741468042135">
<ele>493.2</ele>
<time>2024-05-10T10:26:00Z</time>
</trkpt>
<trkpt lat="49.562023133039474" lon="9.098743395879865">
<ele>493.2</ele>
<time>2024-05-10T10:26:01Z</time>
</trkpt>
<trkpt lat="49.562023133039474" lon="9.098745323717594">
<ele>493.2</ele>
<time>2024-05-10T10:26:02Z</time>
</trkpt>
<trkpt lat="49.562023133039474" lon="9.098743395879865">
<ele>493.2</ele>
<time>2024-05-10T10:26:06Z</time>
</trkpt>
<trkpt lat="49.562023133039474" lon="9.098741468042135">
<ele>493.2</ele>
<time>2024-05-10T10:26:08Z</time>
</trkpt>
<trkpt lat="49.5620269048959" lon="9.098741468042135">
<ele>493.2</ele>
<time>2024-05-10T10:26:09Z</time>
</trkpt>
<trkpt lat="49.562023133039474" lon="9.098741468042135">
<ele>493.2</ele>
<time>2024-05-10T10:26:11Z</time>
</trkpt>
<trkpt lat="49.562023133039474" lon="9.098743395879865">
<ele>493.2</ele>
<time>2024-05-10T10:26:13Z</time>
</trkpt>
<trkpt lat="49.562023133039474" lon="9.098741468042135">
<ele>493.2</ele>
<time>2024-05-10T10:26:16Z</time>
</trkpt>
<trkpt lat="49.5620269048959" lon="9.098741468042135">
<ele>493.2</ele>
<time>2024-05-10T10:26:20Z</time>
</trkpt>
<trkpt lat="49.5620269048959" lon="9.098739624023438">
<ele>493.2</ele>
<time>2024-05-10T10:26:28Z</time>
</trkpt>
<trkpt lat="49.562023133039474" lon="9.098741468042135">
<ele>493.2</ele>
<time>2024-05-10T10:26:29Z</time>
</trkpt>
<trkpt lat="49.562023133039474" lon="9.098743395879865">
<ele>493.2</ele>
<time>2024-05-10T10:26:31Z</time>
</trkpt>
<trkpt lat="49.562023133039474" lon="9.098741468042135">
<ele>493.2</ele>
<time>2024-05-10T10:26:33Z</time>
</trkpt>
<trkpt lat="49.562023133039474" lon="9.098745323717594">
<ele>493.2</ele>
<time>2024-05-10T10:26:39Z</time>
</trkpt>
<trkpt lat="49.562023133039474" lon="9.098746245726945">
<ele>493.2</ele>
<time>2024-05-10T10:26:40Z</time>
</trkpt>
<trkpt lat="49.562023133039474" lon="9.098748173564672">
<ele>493.2</ele>
<time>2024-05-10T10:26:43Z</time>
</trkpt>
<trkpt lat="49.562023133039474" lon="9.098746245726945">
<ele>493.2</ele>
<time>2024-05-10T10:26:48Z</time>
</trkpt>
<trkpt lat="49.562023133039474" lon="9.098748173564672">
<ele>493.2</ele>
<time>2024-05-10T10:26:59Z</time>
</trkpt>
<trkpt lat="49.562023133039474" lon="9.098746245726945">
<ele>493.2</ele>
<time>2024-05-10T10:27:01Z</time>
</trkpt>
<trkpt lat="49.562023133039474" lon="9.098748173564672">
<ele>493.2</ele>
<time>2024-05-10T10:27:02Z</time>
</trkpt>
<trkpt lat="49.562023133039474" lon="9.098746245726945">
<ele>493.2</ele>
<time>2024-05-10T10:27:11Z</time>
</trkpt>
<trkpt lat="49.5620269048959" lon="9.098748173564672">
<ele>493.2</ele>
<time>2024-05-10T10:27:13Z</time>
</trkpt>
<trkpt lat="49.5620269048959" lon="9.098746245726945">
<ele>493.2</ele>
<time>2024-05-10T10:27:15Z</time>
</trkpt>
<trkpt lat="49.56203076057136" lon="9.098746245726945">
<ele>493.2</ele>
<time>2024-05-10T10:27:16Z</time>
</trkpt>
<trkpt lat="49.56203076057136" lon="9.098748173564672">
<ele>493.2</ele>
<time>2024-05-10T10:27:17Z</time>
</trkpt>
<trkpt lat="49.5620269048959" lon="9.098748173564672">
<ele>493.2</ele>
<time>2024-05-10T10:27:18Z</time>
</trkpt>
<trkpt lat="49.56203076057136" lon="9.098750101402402">
<ele>493.2</ele>
<time>2024-05-10T10:27:20Z</time>
</trkpt>
<trkpt lat="49.5620269048959" lon="9.098750101402402">
<ele>493.2</ele>
<time>2024-05-10T10:27:24Z</time>
</trkpt>
<trkpt lat="49.56203076057136" lon="9.098750101402402">
<ele>493.2</ele>
<time>2024-05-10T10:27:25Z</time>
</trkpt>
<trkpt lat="49.56204601563513" lon="9.098748173564672">
<ele>493.2</ele>
<time>2024-05-10T10:27:30Z</time>
</trkpt>
<trkpt lat="49.56206504255533" lon="9.098746245726945">
<ele>493.2</ele>
<time>2024-05-10T10:27:31Z</time>
</trkpt>
<trkpt lat="49.56207652576268" lon="9.098745323717594">
<ele>493.2</ele>
<time>2024-05-10T10:27:32Z</time>
</trkpt>
<trkpt lat="49.562103264033794" lon="9.098723363131285">
<ele>493.2</ele>
<time>2024-05-10T10:27:33Z</time>
</trkpt>
<trkpt lat="49.56212614662945" lon="9.098705258220434">
<ele>493.2</ele>
<time>2024-05-10T10:27:34Z</time>
</trkpt>
<trkpt lat="49.56214517354965" lon="9.09869285300374">
<ele>493.2</ele>
<time>2024-05-10T10:27:35Z</time>
</trkpt>
<trkpt lat="49.56217191182077" lon="9.098679525777698">
<ele>493.2</ele>
<time>2024-05-10T10:27:36Z</time>
</trkpt>
<trkpt lat="49.562202421948314" lon="9.098663264885545">
<ele>493.2</ele>
<time>2024-05-10T10:27:37Z</time>
</trkpt>
<trkpt lat="49.562236703932285" lon="9.098643232136965">
<ele>493.2</ele>
<time>2024-05-10T10:27:38Z</time>
</trkpt>
<trkpt lat="49.56226729787886" lon="9.098629904910922">
<ele>493.2</ele>
<time>2024-05-10T10:27:39Z</time>
</trkpt>
<trkpt lat="49.56230157986283" lon="9.09861464984715">
<ele>493.2</ele>
<time>2024-05-10T10:27:40Z</time>
</trkpt>
<trkpt lat="49.56233971752226" lon="9.098605094477534">
<ele>493.2</ele>
<time>2024-05-10T10:27:41Z</time>
</trkpt>
<trkpt lat="49.562377855181694" lon="9.09859369508922">
<ele>493.2</ele>
<time>2024-05-10T10:27:42Z</time>
</trkpt>
<trkpt lat="49.56241607666016" lon="9.09859369508922">
<ele>493.2</ele>
<time>2024-05-10T10:27:43Z</time>
</trkpt>
<trkpt lat="49.56249235197902" lon="9.09859369508922">
<ele>493.2</ele>
<time>2024-05-10T10:27:45Z</time>
</trkpt>
<trkpt lat="49.56253048963845" lon="9.09859369508922">
<ele>493.2</ele>
<time>2024-05-10T10:27:46Z</time>
</trkpt>
<trkpt lat="49.56256477162242" lon="9.0985965449363">
<ele>493.2</ele>
<time>2024-05-10T10:27:47Z</time>
</trkpt>
<trkpt lat="49.56260676495731" lon="9.098600316792728">
<ele>493.2</ele>
<time>2024-05-10T10:27:48Z</time>
</trkpt>
<trkpt lat="49.5626487582922" lon="9.098601322621109">
<ele>493.2</ele>
<time>2024-05-10T10:27:49Z</time>
</trkpt>
<trkpt lat="49.562694523483515" lon="9.098609872162342">
<ele>493.2</ele>
<time>2024-05-10T10:27:50Z</time>
</trkpt>
<trkpt lat="49.56273643299937" lon="9.098607944324613">
<ele>493.2</ele>
<time>2024-05-10T10:27:51Z</time>
</trkpt>
<trkpt lat="49.56277842633426" lon="9.098607944324613">
<ele>493.2</ele>
<time>2024-05-10T10:27:52Z</time>
</trkpt>
<trkpt lat="49.56282419152558" lon="9.098601322621109">
<ele>493.2</ele>
<time>2024-05-10T10:27:53Z</time>
</trkpt>
<trkpt lat="49.562911950051785" lon="9.09857651218772">
<ele>493.2</ele>
<time>2024-05-10T10:27:55Z</time>
</trkpt>
<trkpt lat="49.5629577152431" lon="9.098560251295568">
<ele>493.4</ele>
<time>2024-05-10T10:27:56Z</time>
</trkpt>
<trkpt lat="49.56299970857799" lon="9.098546924069524">
<ele>493.4</ele>
<time>2024-05-10T10:27:57Z</time>
</trkpt>
<trkpt lat="49.56304547376931" lon="9.098531669005752">
<ele>493.6</ele>
<time>2024-05-10T10:27:58Z</time>
</trkpt>
<trkpt lat="49.563091238960624" lon="9.098518341779709">
<ele>493.6</ele>
<time>2024-05-10T10:27:59Z</time>
</trkpt>
<trkpt lat="49.56312560476363" lon="9.098500236868858">
<ele>493.8</ele>
<time>2024-05-10T10:28:00Z</time>
</trkpt>
<trkpt lat="49.563167514279485" lon="9.098486825823784">
<ele>493.8</ele>
<time>2024-05-10T10:28:01Z</time>
</trkpt>
<trkpt lat="49.5632132794708" lon="9.098462099209428">
<ele>494</ele>
<time>2024-05-10T10:28:02Z</time>
</trkpt>
<trkpt lat="49.56325904466212" lon="9.098446844145656">
<ele>494.2</ele>
<time>2024-05-10T10:28:03Z</time>
</trkpt>
<trkpt lat="49.56337731331587" lon="9.098396301269531">
<ele>494.4</ele>
<time>2024-05-10T10:28:05Z</time>
</trkpt>
<trkpt lat="49.56342693418264" lon="9.098371490836143">
<ele>494.6</ele>
<time>2024-05-10T10:28:06Z</time>
</trkpt>
<trkpt lat="49.563484182581306" lon="9.098346680402756">
<ele>494.6</ele>
<time>2024-05-10T10:28:07Z</time>
</trkpt>
<trkpt lat="49.56353757530451" lon="9.09831809811294">
<ele>494.8</ele>
<time>2024-05-10T10:28:08Z</time>
</trkpt>
<trkpt lat="49.563644360750914" lon="9.098273254930971">
<ele>494.8</ele>
<time>2024-05-10T10:28:10Z</time>
</trkpt>
<trkpt lat="49.56369012594223" lon="9.09825699403882">
<ele>495</ele>
<time>2024-05-10T10:28:11Z</time>
</trkpt>
<trkpt lat="49.563739746809006" lon="9.098248444497584">
<ele>495</ele>
<time>2024-05-10T10:28:12Z</time>
</trkpt>
<trkpt lat="49.56378936767578" lon="9.09823989495635">
<ele>495.2</ele>
<time>2024-05-10T10:28:13Z</time>
</trkpt>
<trkpt lat="49.5639075525105" lon="9.09823989495635">
<ele>495.2</ele>
<time>2024-05-10T10:28:15Z</time>
</trkpt>
<trkpt lat="49.563957173377275" lon="9.098243666812778">
<ele>495.4</ele>
<time>2024-05-10T10:28:16Z</time>
</trkpt>
<trkpt lat="49.56400679424405" lon="9.098244588822126">
<ele>495.4</ele>
<time>2024-05-10T10:28:17Z</time>
</trkpt>
<trkpt lat="49.56406395882368" lon="9.098244588822126">
<ele>495.4</ele>
<time>2024-05-10T10:28:18Z</time>
</trkpt>
<trkpt lat="49.56416697241366" lon="9.098263699561356">
<ele>495.4</ele>
<time>2024-05-10T10:28:20Z</time>
</trkpt>
<trkpt lat="49.56420511007309" lon="9.098275182768704">
<ele>495.6</ele>
<time>2024-05-10T10:28:21Z</time>
</trkpt>
<trkpt lat="49.56424710340798" lon="9.09827987663448">
<ele>495.6</ele>
<time>2024-05-10T10:28:22Z</time>
</trkpt>
<trkpt lat="49.564292868599296" lon="9.098283732309936">
<ele>495.4</ele>
<time>2024-05-10T10:28:23Z</time>
</trkpt>
<trkpt lat="49.56438439898193" lon="9.098326647654176">
<ele>495.4</ele>
<time>2024-05-10T10:28:25Z</time>
</trkpt>
<trkpt lat="49.564430164173245" lon="9.098344752565026">
<ele>495.4</ele>
<time>2024-05-10T10:28:26Z</time>
</trkpt>
<trkpt lat="49.564476013183594" lon="9.098362857475877">
<ele>495.2</ele>
<time>2024-05-10T10:28:27Z</time>
</trkpt>
<trkpt lat="49.564533177763224" lon="9.09837333485484">
<ele>495.2</ele>
<time>2024-05-10T10:28:28Z</time>
</trkpt>
<trkpt lat="49.56457517109811" lon="9.098396301269531">
<ele>495</ele>
<time>2024-05-10T10:28:30Z</time>
</trkpt>
<trkpt lat="49.56462856382131" lon="9.09841532818973">
<ele>495</ele>
<time>2024-05-10T10:28:31Z</time>
</trkpt>
<trkpt lat="49.564731577411294" lon="9.098442988470197">
<ele>494.8</ele>
<time>2024-05-10T10:28:32Z</time>
</trkpt>
<trkpt lat="49.56478111445904" lon="9.098460171371698">
<ele>494.8</ele>
<time>2024-05-10T10:28:33Z</time>
</trkpt>
<trkpt lat="49.56487650051713" lon="9.09849353134632">
<ele>494.8</ele>
<time>2024-05-10T10:28:35Z</time>
</trkpt>
<trkpt lat="49.564964259043336" lon="9.098509708419442">
<ele>494.6</ele>
<time>2024-05-10T10:28:37Z</time>
</trkpt>
<trkpt lat="49.56501002423465" lon="9.098509708419442">
<ele>494.6</ele>
<time>2024-05-10T10:28:38Z</time>
</trkpt>
<trkpt lat="49.56511303782463" lon="9.098521191626787">
<ele>494.6</ele>
<time>2024-05-10T10:28:40Z</time>
</trkpt>
<trkpt lat="49.56519694067538" lon="9.098543152213097">
<ele>494.6</ele>
<time>2024-05-10T10:28:42Z</time>
</trkpt>
<trkpt lat="49.565242705866694" lon="9.09855455160141">
<ele>494.4</ele>
<time>2024-05-10T10:28:44Z</time>
</trkpt>
<trkpt lat="49.56532660871744" lon="9.098567962646484">
<ele>494.4</ele>
<time>2024-05-10T10:28:45Z</time>
</trkpt>
<trkpt lat="49.56536860205233" lon="9.098569806665182">
<ele>494.4</ele>
<time>2024-05-10T10:28:46Z</time>
</trkpt>
<trkpt lat="49.56546013243496" lon="9.09855455160141">
<ele>494.2</ele>
<time>2024-05-10T10:28:48Z</time>
</trkpt>
<trkpt lat="49.56555174663663" lon="9.098546924069524">
<ele>494</ele>
<time>2024-05-10T10:28:50Z</time>
</trkpt>
<trkpt lat="49.565597511827946" lon="9.09853644669056">
<ele>494</ele>
<time>2024-05-10T10:28:51Z</time>
</trkpt>
<trkpt lat="49.5656394213438" lon="9.098526891320944">
<ele>493.8</ele>
<time>2024-05-10T10:28:52Z</time>
</trkpt>
<trkpt lat="49.565677642822266" lon="9.098518341779709">
<ele>493.6</ele>
<time>2024-05-10T10:28:53Z</time>
</trkpt>
<trkpt lat="49.56575006246567" lon="9.098483053967357">
<ele>493.6</ele>
<time>2024-05-10T10:28:55Z</time>
</trkpt>
<trkpt lat="49.56579205580056" lon="9.098462099209428">
<ele>493.6</ele>
<time>2024-05-10T10:28:56Z</time>
</trkpt>
<trkpt lat="49.565833965316415" lon="9.098440138623118">
<ele>493.4</ele>
<time>2024-05-10T10:28:57Z</time>
</trkpt>
<trkpt lat="49.56587218679488" lon="9.098428655415772">
<ele>493.4</ele>
<time>2024-05-10T10:28:58Z</time>
</trkpt>
<trkpt lat="49.56593697890639" lon="9.098376268520951">
<ele>493.4</ele>
<time>2024-05-10T10:29:00Z</time>
</trkpt>
<trkpt lat="49.565975116565824" lon="9.098342824727297">
<ele>493.4</ele>
<time>2024-05-10T10:29:01Z</time>
</trkpt>
<trkpt lat="49.56605147570371" lon="9.098281804472208">
<ele>493.2</ele>
<time>2024-05-10T10:29:03Z</time>
</trkpt>
<trkpt lat="49.56613537855446" lon="9.098231261596084">
<ele>493.2</ele>
<time>2024-05-10T10:29:05Z</time>
</trkpt>
<trkpt lat="49.56618114374578" lon="9.098210306838157">
<ele>493</ele>
<time>2024-05-10T10:29:06Z</time>
</trkpt>
<trkpt lat="49.56622313708067" lon="9.09817979671061">
<ele>493</ele>
<time>2024-05-10T10:29:07Z</time>
</trkpt>
<trkpt lat="49.5662612747401" lon="9.098148280754684">
<ele>492.8</ele>
<time>2024-05-10T10:29:09Z</time>
</trkpt>
<trkpt lat="49.566329922527075" lon="9.098092038184404">
<ele>492.6</ele>
<time>2024-05-10T10:29:10Z</time>
</trkpt>
<trkpt lat="49.566368060186505" lon="9.098058678209782">
<ele>492.4</ele>
<time>2024-05-10T10:29:11Z</time>
</trkpt>
<trkpt lat="49.566410053521395" lon="9.09802339039743">
<ele>492.4</ele>
<time>2024-05-10T10:29:12Z</time>
</trkpt>
<trkpt lat="49.566448191180825" lon="9.097990030422809">
<ele>492.2</ele>
<time>2024-05-10T10:29:13Z</time>
</trkpt>
<trkpt lat="49.566524466499686" lon="9.097916521131992">
<ele>492.2</ele>
<time>2024-05-10T10:29:15Z</time>
</trkpt>
<trkpt lat="49.56656260415912" lon="9.097887938842176">
<ele>492</ele>
<time>2024-05-10T10:29:16Z</time>
</trkpt>
<trkpt lat="49.56660074181855" lon="9.097874611616136">
<ele>492</ele>
<time>2024-05-10T10:29:17Z</time>
</trkpt>
<trkpt lat="49.56663887947798" lon="9.097856506705284">
<ele>492</ele>
<time>2024-05-10T10:29:18Z</time>
</trkpt>
<trkpt lat="49.56671138294041" lon="9.097806885838509">
<ele>491.8</ele>
<time>2024-05-10T10:29:20Z</time>
</trkpt>
<trkpt lat="49.5667533762753" lon="9.097773525863886">
<ele>491.8</ele>
<time>2024-05-10T10:29:21Z</time>
</trkpt>
<trkpt lat="49.56679914146662" lon="9.097736310213804">
<ele>491.8</ele>
<time>2024-05-10T10:29:22Z</time>
</trkpt>
<trkpt lat="49.566844906657934" lon="9.097698172554374">
<ele>491.8</ele>
<time>2024-05-10T10:29:23Z</time>
</trkpt>
<trkpt lat="49.56693266518414" lon="9.097618041560054">
<ele>491.8</ele>
<time>2024-05-10T10:29:25Z</time>
</trkpt>
<trkpt lat="49.5669745747" lon="9.097577054053543">
<ele>491.8</ele>
<time>2024-05-10T10:29:26Z</time>
</trkpt>
<trkpt lat="49.567020339891315" lon="9.097539838403463">
<ele>491.8</ele>
<time>2024-05-10T10:29:27Z</time>
</trkpt>
<trkpt lat="49.56706996075809" lon="9.097501700744033">
<ele>491.8</ele>
<time>2024-05-10T10:29:28Z</time>
</trkpt>
<trkpt lat="49.56711195409298" lon="9.097463563084602">
<ele>491.8</ele>
<time>2024-05-10T10:29:29Z</time>
</trkpt>
<trkpt lat="49.56715009175241" lon="9.097432130947707">
<ele>491.8</ele>
<time>2024-05-10T10:29:30Z</time>
</trkpt>
<trkpt lat="49.56718822941184" lon="9.097398687154056">
<ele>491.8</ele>
<time>2024-05-10T10:29:31Z</time>
</trkpt>
<trkpt lat="49.567279759794474" lon="9.097303384914994">
<ele>491.6</ele>
<time>2024-05-10T10:29:33Z</time>
</trkpt>
<trkpt lat="49.56735226325691" lon="9.097205149009824">
<ele>491.6</ele>
<time>2024-05-10T10:29:35Z</time>
</trkpt>
<trkpt lat="49.56739040091634" lon="9.097146978601812">
<ele>491.4</ele>
<time>2024-05-10T10:29:36Z</time>
</trkpt>
<trkpt lat="49.56742476671934" lon="9.097087802365422">
<ele>491.4</ele>
<time>2024-05-10T10:29:37Z</time>
</trkpt>
<trkpt lat="49.567455276846886" lon="9.097040109336376">
<ele>491.2</ele>
<time>2024-05-10T10:29:38Z</time>
</trkpt>
<trkpt lat="49.56752769649029" lon="9.096936173737047">
<ele>491.2</ele>
<time>2024-05-10T10:29:40Z</time>
</trkpt>
<trkpt lat="49.56756591796875" lon="9.096881859004498">
<ele>491.2</ele>
<time>2024-05-10T10:29:41Z</time>
</trkpt>
<trkpt lat="49.567592572420835" lon="9.096824610605836">
<ele>491</ele>
<time>2024-05-10T10:29:42Z</time>
</trkpt>
<trkpt lat="49.56762308254838" lon="9.096761662513018">
<ele>491</ele>
<time>2024-05-10T10:29:43Z</time>
</trkpt>
<trkpt lat="49.56768795847893" lon="9.09663861617446">
<ele>491</ele>
<time>2024-05-10T10:29:45Z</time>
</trkpt>
<trkpt lat="49.56772609613836" lon="9.09657851792872">
<ele>491</ele>
<time>2024-05-10T10:29:46Z</time>
</trkpt>
<trkpt lat="49.567752834409475" lon="9.09652328118682">
<ele>491</ele>
<time>2024-05-10T10:29:47Z</time>
</trkpt>
<trkpt lat="49.56778334453702" lon="9.09646318294108">
<ele>491</ele>
<time>2024-05-10T10:29:48Z</time>
</trkpt>
<trkpt lat="49.567809998989105" lon="9.09640308469534">
<ele>491</ele>
<time>2024-05-10T10:29:49Z</time>
</trkpt>
<trkpt lat="49.56783673726022" lon="9.0963429864496">
<ele>491</ele>
<time>2024-05-10T10:29:50Z</time>
</trkpt>
<trkpt lat="49.56785576418042" lon="9.096278110519052">
<ele>490.8</ele>
<time>2024-05-10T10:29:51Z</time>
</trkpt>
<trkpt lat="49.56787487491965" lon="9.096210468560455">
<ele>490.8</ele>
<time>2024-05-10T10:29:52Z</time>
</trkpt>
<trkpt lat="49.56789390183985" lon="9.09614366479218">
<ele>490.8</ele>
<time>2024-05-10T10:29:53Z</time>
</trkpt>
<trkpt lat="49.56792064011097" lon="9.095999663695691">
<ele>490.8</ele>
<time>2024-05-10T10:29:55Z</time>
</trkpt>
<trkpt lat="49.567928267642856" lon="9.095916682854297">
<ele>490.8</ele>
<time>2024-05-10T10:29:56Z</time>
</trkpt>
<trkpt lat="49.567928267642856" lon="9.095834707841275">
<ele>490.8</ele>
<time>2024-05-10T10:29:57Z</time>
</trkpt>
<trkpt lat="49.567932123318315" lon="9.095753654837608">
<ele>490.8</ele>
<time>2024-05-10T10:29:58Z</time>
</trkpt>
<trkpt lat="49.56793589517474" lon="9.095675451681018">
<ele>490.8</ele>
<time>2024-05-10T10:29:59Z</time>
</trkpt>
<trkpt lat="49.567932123318315" lon="9.095596242696049">
<ele>490.8</ele>
<time>2024-05-10T10:30:00Z</time>
</trkpt>
<trkpt lat="49.567928267642856" lon="9.095519967377186">
<ele>490.6</ele>
<time>2024-05-10T10:30:01Z</time>
</trkpt>
<trkpt lat="49.56791686825454" lon="9.095446541905403">
<ele>490.6</ele>
<time>2024-05-10T10:30:02Z</time>
</trkpt>
<trkpt lat="49.56790152937174" lon="9.095371188595893">
<ele>490.4</ele>
<time>2024-05-10T10:30:03Z</time>
</trkpt>
<trkpt lat="49.567871019244194" lon="9.095226265490057">
<ele>490.4</ele>
<time>2024-05-10T10:30:05Z</time>
</trkpt>
<trkpt lat="49.567848136648536" lon="9.095158539712427">
<ele>490.2</ele>
<time>2024-05-10T10:30:06Z</time>
</trkpt>
<trkpt lat="49.56782525405288" lon="9.095089891925454">
<ele>490.2</ele>
<time>2024-05-10T10:30:07Z</time>
</trkpt>
<trkpt lat="49.56779474392533" lon="9.095025015994906">
<ele>490</ele>
<time>2024-05-10T10:30:08Z</time>
</trkpt>
<trkpt lat="49.56774135120213" lon="9.094891492277384">
<ele>489.8</ele>
<time>2024-05-10T10:30:10Z</time>
</trkpt>
<trkpt lat="49.567710841074586" lon="9.094826616346836">
<ele>489.6</ele>
<time>2024-05-10T10:30:12Z</time>
</trkpt>
<trkpt lat="49.56765359267592" lon="9.094693176448343">
<ele>489.2</ele>
<time>2024-05-10T10:30:13Z</time>
</trkpt>
<trkpt lat="49.56762693822384" lon="9.09462545067072">
<ele>489</ele>
<time>2024-05-10T10:30:15Z</time>
</trkpt>
<trkpt lat="49.56761168316007" lon="9.094554875046017">
<ele>488.8</ele>
<time>2024-05-10T10:30:16Z</time>
</trkpt>
<trkpt lat="49.567596428096294" lon="9.09448329359293">
<ele>488.6</ele>
<time>2024-05-10T10:30:17Z</time>
</trkpt>
<trkpt lat="49.56758117303252" lon="9.09440802410245">
<ele>488.4</ele>
<time>2024-05-10T10:30:18Z</time>
</trkpt>
<trkpt lat="49.56757354550064" lon="9.094334598630669">
<ele>488.2</ele>
<time>2024-05-10T10:30:19Z</time>
</trkpt>
<trkpt lat="49.56756591796875" lon="9.094195291399956">
<ele>488</ele>
<time>2024-05-10T10:30:20Z</time>
</trkpt>
<trkpt lat="49.56757354550064" lon="9.09412664361298">
<ele>487.6</ele>
<time>2024-05-10T10:30:21Z</time>
</trkpt>
<trkpt lat="49.56757731735706" lon="9.094053218141198">
<ele>487.4</ele>
<time>2024-05-10T10:30:22Z</time>
</trkpt>
<trkpt lat="49.56758494488895" lon="9.093983648344874">
<ele>487.2</ele>
<time>2024-05-10T10:30:23Z</time>
</trkpt>
<trkpt lat="49.567596428096294" lon="9.093914916738868">
<ele>487</ele>
<time>2024-05-10T10:30:25Z</time>
</trkpt>
<trkpt lat="49.567630710080266" lon="9.093783320859076">
<ele>487</ele>
<time>2024-05-10T10:30:26Z</time>
</trkpt>
<trkpt lat="49.56765359267592" lon="9.09371660090983">
<ele>486.8</ele>
<time>2024-05-10T10:30:27Z</time>
</trkpt>
<trkpt lat="49.56768410280347" lon="9.09365457482636">
<ele>486.6</ele>
<time>2024-05-10T10:30:28Z</time>
</trkpt>
<trkpt lat="49.567710841074586" lon="9.09359162673354">
<ele>486.6</ele>
<time>2024-05-10T10:30:30Z</time>
</trkpt>
<trkpt lat="49.56774520687759" lon="9.09353630617261">
<ele>486.6</ele>
<time>2024-05-10T10:30:31Z</time>
</trkpt>
<trkpt lat="49.56778334453702" lon="9.093488613143563">
<ele>486.4</ele>
<time>2024-05-10T10:30:32Z</time>
</trkpt>
<trkpt lat="49.56782148219645" lon="9.093441925942898">
<ele>486.4</ele>
<time>2024-05-10T10:30:33Z</time>
</trkpt>
<trkpt lat="49.56786339171231" lon="9.093401860445738">
<ele>486.4</ele>
<time>2024-05-10T10:30:34Z</time>
</trkpt>
<trkpt lat="49.56790152937174" lon="9.093364644795656">
<ele>486.6</ele>
<time>2024-05-10T10:30:35Z</time>
</trkpt>
<trkpt lat="49.56794352270663" lon="9.093331284821032">
<ele>486.6</ele>
<time>2024-05-10T10:30:36Z</time>
</trkpt>
<trkpt lat="49.56798551604152" lon="9.093301696702838">
<ele>486.8</ele>
<time>2024-05-10T10:30:37Z</time>
</trkpt>
<trkpt lat="49.568027425557375" lon="9.093271186575294">
<ele>486.8</ele>
<time>2024-05-10T10:30:38Z</time>
</trkpt>
<trkpt lat="49.568065563216805" lon="9.093243526294827">
<ele>486.8</ele>
<time>2024-05-10T10:30:39Z</time>
</trkpt>
<trkpt lat="49.56810378469527" lon="9.093213016167285">
<ele>486.8</ele>
<time>2024-05-10T10:30:40Z</time>
</trkpt>
<trkpt lat="49.5681419223547" lon="9.093185355886815">
<ele>486.8</ele>
<time>2024-05-10T10:30:41Z</time>
</trkpt>
<trkpt lat="49.56818383187056" lon="9.093154845759273">
<ele>486.8</ele>
<time>2024-05-10T10:30:42Z</time>
</trkpt>
<trkpt lat="49.56821819767356" lon="9.093126263469458">
<ele>486.8</ele>
<time>2024-05-10T10:30:43Z</time>
</trkpt>
<trkpt lat="49.56825633533299" lon="9.093098603188992">
<ele>486.8</ele>
<time>2024-05-10T10:30:44Z</time>
</trkpt>
<trkpt lat="49.56829447299242" lon="9.093071864917874">
<ele>486.8</ele>
<time>2024-05-10T10:30:45Z</time>
</trkpt>
<trkpt lat="49.56832883879542" lon="9.093045210465789">
<ele>486.8</ele>
<time>2024-05-10T10:30:46Z</time>
</trkpt>
<trkpt lat="49.568363120779395" lon="9.09302132204175">
<ele>486.8</ele>
<time>2024-05-10T10:30:47Z</time>
</trkpt>
<trkpt lat="49.568401258438826" lon="9.092996595427394">
<ele>486.8</ele>
<time>2024-05-10T10:30:48Z</time>
</trkpt>
<trkpt lat="49.56843562424183" lon="9.092971784994006">
<ele>486.8</ele>
<time>2024-05-10T10:30:49Z</time>
</trkpt>
<trkpt lat="49.56847376190126" lon="9.092945046722887">
<ele>486.6</ele>
<time>2024-05-10T10:30:50Z</time>
</trkpt>
<trkpt lat="49.56850812770426" lon="9.0929202362895">
<ele>486.6</ele>
<time>2024-05-10T10:30:51Z</time>
</trkpt>
<trkpt lat="49.568542409688234" lon="9.092893581837416">
<ele>486.4</ele>
<time>2024-05-10T10:30:52Z</time>
</trkpt>
<trkpt lat="49.56857677549124" lon="9.092864915728567">
<ele>486.4</ele>
<time>2024-05-10T10:30:53Z</time>
</trkpt>
<trkpt lat="49.56861491315067" lon="9.092838261276484">
<ele>486.2</ele>
<time>2024-05-10T10:30:54Z</time>
</trkpt>
<trkpt lat="49.56864927895367" lon="9.092811523005366">
<ele>486.2</ele>
<time>2024-05-10T10:30:55Z</time>
</trkpt>
<trkpt lat="49.5686874166131" lon="9.09278486855328">
<ele>486.2</ele>
<time>2024-05-10T10:30:56Z</time>
</trkpt>
<trkpt lat="49.56872555427253" lon="9.092755280435084">
<ele>486</ele>
<time>2024-05-10T10:30:57Z</time>
</trkpt>
<trkpt lat="49.56876754760742" lon="9.09272669814527">
<ele>486</ele>
<time>2024-05-10T10:30:58Z</time>
</trkpt>
<trkpt lat="49.56880945712328" lon="9.092697110027077">
<ele>486</ele>
<time>2024-05-10T10:30:59Z</time>
</trkpt>
<trkpt lat="49.56884759478271" lon="9.09266852773726">
<ele>486</ele>
<time>2024-05-10T10:31:00Z</time>
</trkpt>
<trkpt lat="49.5688895881176" lon="9.092639861628411">
<ele>485.8</ele>
<time>2024-05-10T10:31:01Z</time>
</trkpt>
<trkpt lat="49.56893149763346" lon="9.09261035732925">
<ele>485.8</ele>
<time>2024-05-10T10:31:02Z</time>
</trkpt>
<trkpt lat="49.56896971911192" lon="9.092579763382671">
<ele>485.8</ele>
<time>2024-05-10T10:31:03Z</time>
</trkpt>
<trkpt lat="49.56901162862778" lon="9.09254833124578">
<ele>485.8</ele>
<time>2024-05-10T10:31:04Z</time>
</trkpt>
<trkpt lat="49.56904976628721" lon="9.092517821118236">
<ele>485.8</ele>
<time>2024-05-10T10:31:05Z</time>
</trkpt>
<trkpt lat="49.5690917596221" lon="9.09248823300004">
<ele>485.6</ele>
<time>2024-05-10T10:31:06Z</time>
</trkpt>
<trkpt lat="49.56912989728153" lon="9.092456800863149">
<ele>485.6</ele>
<time>2024-05-10T10:31:07Z</time>
</trkpt>
<trkpt lat="49.56917189061642" lon="9.0924281347543">
<ele>485.4</ele>
<time>2024-05-10T10:31:08Z</time>
</trkpt>
<trkpt lat="49.56921002827585" lon="9.092401480302216">
<ele>485.4</ele>
<time>2024-05-10T10:31:09Z</time>
</trkpt>
<trkpt lat="49.569251937791705" lon="9.092372814193368">
<ele>485.2</ele>
<time>2024-05-10T10:31:10Z</time>
</trkpt>
<trkpt lat="49.569293931126595" lon="9.092343309894204">
<ele>485.2</ele>
<time>2024-05-10T10:31:11Z</time>
</trkpt>
<trkpt lat="49.569332068786025" lon="9.092314643785356">
<ele>485.2</ele>
<time>2024-05-10T10:31:12Z</time>
</trkpt>
<trkpt lat="49.569374062120914" lon="9.092286983504891">
<ele>485</ele>
<time>2024-05-10T10:31:13Z</time>
</trkpt>
<trkpt lat="49.569412199780345" lon="9.092256473377349">
<ele>485</ele>
<time>2024-05-10T10:31:14Z</time>
</trkpt>
<trkpt lat="49.569454193115234" lon="9.092226969078183">
<ele>485</ele>
<time>2024-05-10T10:31:15Z</time>
</trkpt>
<trkpt lat="49.56949610263109" lon="9.092198302969337">
<ele>485.2</ele>
<time>2024-05-10T10:31:16Z</time>
</trkpt>
<trkpt lat="49.56953424029052" lon="9.09217357635498">
<ele>485.2</ele>
<time>2024-05-10T10:31:17Z</time>
</trkpt>
<trkpt lat="49.56958000548184" lon="9.092149687930942">
<ele>485.2</ele>
<time>2024-05-10T10:31:18Z</time>
</trkpt>
<trkpt lat="49.56966399215162" lon="9.092109622433782">
<ele>485.2</ele>
<time>2024-05-10T10:31:19Z</time>
</trkpt>
<trkpt lat="49.56970590166747" lon="9.092089589685202">
<ele>485.2</ele>
<time>2024-05-10T10:31:20Z</time>
</trkpt>
<trkpt lat="49.56975166685879" lon="9.09207626245916">
<ele>485.2</ele>
<time>2024-05-10T10:31:22Z</time>
</trkpt>
<trkpt lat="49.56979751586914" lon="9.092058157548308">
<ele>485.2</ele>
<time>2024-05-10T10:31:23Z</time>
</trkpt>
<trkpt lat="49.56984328106046" lon="9.092041896656156">
<ele>485.2</ele>
<time>2024-05-10T10:31:24Z</time>
</trkpt>
<trkpt lat="49.569889046251774" lon="9.092026641592383">
<ele>485.2</ele>
<time>2024-05-10T10:31:25Z</time>
</trkpt>
<trkpt lat="49.56993481144309" lon="9.09201331436634">
<ele>485.2</ele>
<time>2024-05-10T10:31:26Z</time>
</trkpt>
<trkpt lat="49.56998057663441" lon="9.09199713729322">
<ele>485.2</ele>
<time>2024-05-10T10:31:27Z</time>
</trkpt>
<trkpt lat="49.57003019750118" lon="9.091984732076526">
<ele>485</ele>
<time>2024-05-10T10:31:28Z</time>
</trkpt>
<trkpt lat="49.5700759626925" lon="9.091971321031451">
<ele>485</ele>
<time>2024-05-10T10:31:29Z</time>
</trkpt>
<trkpt lat="49.570121727883816" lon="9.091959921643138">
<ele>485</ele>
<time>2024-05-10T10:31:30Z</time>
</trkpt>
<trkpt lat="49.57017134875059" lon="9.091950366273522">
<ele>485</ele>
<time>2024-05-10T10:31:31Z</time>
</trkpt>
<trkpt lat="49.570220885798335" lon="9.091939888894558">
<ele>485</ele>
<time>2024-05-10T10:31:32Z</time>
</trkpt>
<trkpt lat="49.57026665098965" lon="9.091930333524942">
<ele>485.2</ele>
<time>2024-05-10T10:31:33Z</time>
</trkpt>
<trkpt lat="49.57031627185643" lon="9.091919856145978">
<ele>485.2</ele>
<time>2024-05-10T10:31:34Z</time>
</trkpt>
<trkpt lat="49.5703658927232" lon="9.091908372938631">
<ele>485.2</ele>
<time>2024-05-10T10:31:35Z</time>
</trkpt>
<trkpt lat="49.57041165791452" lon="9.091897895559669">
<ele>485.2</ele>
<time>2024-05-10T10:31:36Z</time>
</trkpt>
<trkpt lat="49.57050704397261" lon="9.091877862811089">
<ele>485.2</ele>
<time>2024-05-10T10:31:37Z</time>
</trkpt>
<trkpt lat="49.570556581020355" lon="9.091868391260505">
<ele>485.2</ele>
<time>2024-05-10T10:31:39Z</time>
</trkpt>
<trkpt lat="49.57064811140299" lon="9.091846430674195">
<ele>485.2</ele>
<time>2024-05-10T10:31:40Z</time>
</trkpt>
<trkpt lat="49.57069773226976" lon="9.09183494746685">
<ele>485.2</ele>
<time>2024-05-10T10:31:42Z</time>
</trkpt>
<trkpt lat="49.57074735313654" lon="9.091824470087886">
<ele>485.2</ele>
<time>2024-05-10T10:31:43Z</time>
</trkpt>
<trkpt lat="49.570793118327856" lon="9.091812064871192">
<ele>485.2</ele>
<time>2024-05-10T10:31:44Z</time>
</trkpt>
<trkpt lat="49.57088850438595" lon="9.091781554743648">
<ele>485.2</ele>
<time>2024-05-10T10:31:45Z</time>
</trkpt>
<trkpt lat="49.57093804143369" lon="9.091765377670528">
<ele>485.2</ele>
<time>2024-05-10T10:31:47Z</time>
</trkpt>
<trkpt lat="49.57098380662501" lon="9.091745344921948">
<ele>485.4</ele>
<time>2024-05-10T10:31:48Z</time>
</trkpt>
<trkpt lat="49.571033427491784" lon="9.091725312173368">
<ele>485.4</ele>
<time>2024-05-10T10:31:49Z</time>
</trkpt>
<trkpt lat="49.57112495787442" lon="9.091686168685555">
<ele>485.2</ele>
<time>2024-05-10T10:31:50Z</time>
</trkpt>
<trkpt lat="49.57117457874119" lon="9.091666219756007">
<ele>485.2</ele>
<time>2024-05-10T10:31:51Z</time>
</trkpt>
<trkpt lat="49.57122034393251" lon="9.091648031026123">
<ele>485</ele>
<time>2024-05-10T10:31:52Z</time>
</trkpt>
<trkpt lat="49.571266109123826" lon="9.091631853953004">
<ele>485</ele>
<time>2024-05-10T10:31:53Z</time>
</trkpt>
<trkpt lat="49.57136149518192" lon="9.091596566140652">
<ele>484.8</ele>
<time>2024-05-10T10:31:55Z</time>
</trkpt>
<trkpt lat="49.57145302556455" lon="9.091554572805762">
<ele>484.8</ele>
<time>2024-05-10T10:31:57Z</time>
</trkpt>
<trkpt lat="49.57149879075587" lon="9.091533618047832">
<ele>484.8</ele>
<time>2024-05-10T10:31:58Z</time>
</trkpt>
<trkpt lat="49.57154841162264" lon="9.091513585299252">
<ele>484.6</ele>
<time>2024-05-10T10:32:00Z</time>
</trkpt>
<trkpt lat="49.57163994200528" lon="9.091473519802094">
<ele>484.6</ele>
<time>2024-05-10T10:32:01Z</time>
</trkpt>
<trkpt lat="49.571685791015625" lon="9.091449715197086">
<ele>484.4</ele>
<time>2024-05-10T10:32:02Z</time>
</trkpt>
<trkpt lat="49.57173532806337" lon="9.091426832601428">
<ele>484.4</ele>
<time>2024-05-10T10:32:03Z</time>
</trkpt>
<trkpt lat="49.571826858446" lon="9.091393388807774">
<ele>484.4</ele>
<time>2024-05-10T10:32:05Z</time>
</trkpt>
<trkpt lat="49.57191847264767" lon="9.091355251148345">
<ele>484.4</ele>
<time>2024-05-10T10:32:07Z</time>
</trkpt>
<trkpt lat="49.57196423783898" lon="9.091336224228144">
<ele>484.4</ele>
<time>2024-05-10T10:32:09Z</time>
</trkpt>
<trkpt lat="49.57205576822162" lon="9.09130185842514">
<ele>484.2</ele>
<time>2024-05-10T10:32:10Z</time>
</trkpt>
<trkpt lat="49.57210153341293" lon="9.09128375351429">
<ele>484.2</ele>
<time>2024-05-10T10:32:11Z</time>
</trkpt>
<trkpt lat="49.57219306379557" lon="9.0912417601794">
<ele>484</ele>
<time>2024-05-10T10:32:13Z</time>
</trkpt>
<trkpt lat="49.57228082232177" lon="9.091201778501272">
<ele>484</ele>
<time>2024-05-10T10:32:15Z</time>
</trkpt>
<trkpt lat="49.57237243652344" lon="9.091161713004112">
<ele>483.8</ele>
<time>2024-05-10T10:32:17Z</time>
</trkpt>
<trkpt lat="49.572418201714754" lon="9.091143608093262">
<ele>483.8</ele>
<time>2024-05-10T10:32:18Z</time>
</trkpt>
<trkpt lat="49.57246011123061" lon="9.09112642519176">
<ele>483.6</ele>
<time>2024-05-10T10:32:20Z</time>
</trkpt>
<trkpt lat="49.57250973209739" lon="9.09110639244318">
<ele>483.6</ele>
<time>2024-05-10T10:32:21Z</time>
</trkpt>
<trkpt lat="49.57259749062359" lon="9.091072026640177">
<ele>483.4</ele>
<time>2024-05-10T10:32:22Z</time>
</trkpt>
<trkpt lat="49.57264325581491" lon="9.091052999719976">
<ele>483.4</ele>
<time>2024-05-10T10:32:23Z</time>
</trkpt>
<trkpt lat="49.57273478619754" lon="9.091014862060549">
<ele>483.4</ele>
<time>2024-05-10T10:32:25Z</time>
</trkpt>
<trkpt lat="49.57278055138886" lon="9.090992901474236">
<ele>483.2</ele>
<time>2024-05-10T10:32:26Z</time>
</trkpt>
<trkpt lat="49.572826316580176" lon="9.090974796563389">
<ele>483.2</ele>
<time>2024-05-10T10:32:28Z</time>
</trkpt>
<trkpt lat="49.572868309915066" lon="9.090956607833505">
<ele>483.2</ele>
<time>2024-05-10T10:32:29Z</time>
</trkpt>
<trkpt lat="49.5729598402977" lon="9.090916626155376">
<ele>483.2</ele>
<time>2024-05-10T10:32:30Z</time>
</trkpt>
<trkpt lat="49.57300183363259" lon="9.090896593406796">
<ele>483</ele>
<time>2024-05-10T10:32:31Z</time>
</trkpt>
<trkpt lat="49.573047598823905" lon="9.090876560658216">
<ele>483</ele>
<time>2024-05-10T10:32:32Z</time>
</trkpt>
<trkpt lat="49.57309336401522" lon="9.090856527909636">
<ele>483</ele>
<time>2024-05-10T10:32:33Z</time>
</trkpt>
<trkpt lat="49.57313912920654" lon="9.090838422998786">
<ele>483</ele>
<time>2024-05-10T10:32:35Z</time>
</trkpt>
<trkpt lat="49.5732307434082" lon="9.090803135186434">
<ele>483</ele>
<time>2024-05-10T10:32:36Z</time>
</trkpt>
<trkpt lat="49.57327650859952" lon="9.090784946456552">
<ele>483</ele>
<time>2024-05-10T10:32:38Z</time>
</trkpt>
<trkpt lat="49.57332604564726" lon="9.090764997527003">
<ele>483</ele>
<time>2024-05-10T10:32:39Z</time>
</trkpt>
<trkpt lat="49.57337181083858" lon="9.090742031112311">
<ele>483</ele>
<time>2024-05-10T10:32:40Z</time>
</trkpt>
<trkpt lat="49.573463425040245" lon="9.090702049434183">
<ele>483</ele>
<time>2024-05-10T10:32:41Z</time>
</trkpt>
<trkpt lat="49.5735053345561" lon="9.090682938694954">
<ele>483</ele>
<time>2024-05-10T10:32:43Z</time>
</trkpt>
<trkpt lat="49.57355495542288" lon="9.090666761621833">
<ele>483</ele>
<time>2024-05-10T10:32:44Z</time>
</trkpt>
<trkpt lat="49.573604576289654" lon="9.090649578720331">
<ele>483</ele>
<time>2024-05-10T10:32:45Z</time>
</trkpt>
<trkpt lat="49.57364648580551" lon="9.090629545971751">
<ele>483</ele>
<time>2024-05-10T10:32:46Z</time>
</trkpt>
<trkpt lat="49.57369225099683" lon="9.090608591213822">
<ele>483</ele>
<time>2024-05-10T10:32:47Z</time>
</trkpt>
<trkpt lat="49.573738016188145" lon="9.090584702789783">
<ele>483</ele>
<time>2024-05-10T10:32:48Z</time>
</trkpt>
<trkpt lat="49.57378386519849" lon="9.090564670041203">
<ele>483</ele>
<time>2024-05-10T10:32:49Z</time>
</trkpt>
<trkpt lat="49.57382577471435" lon="9.090543715283276">
<ele>483.2</ele>
<time>2024-05-10T10:32:50Z</time>
</trkpt>
<trkpt lat="49.57387153990567" lon="9.090521754696963">
<ele>483.2</ele>
<time>2024-05-10T10:32:51Z</time>
</trkpt>
<trkpt lat="49.57391353324056" lon="9.090499877929688">
<ele>483.2</ele>
<time>2024-05-10T10:32:52Z</time>
</trkpt>
<trkpt lat="49.57395929843187" lon="9.090477917343378">
<ele>483.2</ele>
<time>2024-05-10T10:32:53Z</time>
</trkpt>
<trkpt lat="49.57400506362319" lon="9.09045696258545">
<ele>483.2</ele>
<time>2024-05-10T10:32:54Z</time>
</trkpt>
<trkpt lat="49.57404320128262" lon="9.09043114632368">
<ele>483.2</ele>
<time>2024-05-10T10:32:55Z</time>
</trkpt>
<trkpt lat="49.57408519461751" lon="9.090403486043217">
<ele>483.2</ele>
<time>2024-05-10T10:32:56Z</time>
</trkpt>
<trkpt lat="49.5741271879524" lon="9.09037683159113">
<ele>483.2</ele>
<time>2024-05-10T10:32:57Z</time>
</trkpt>
<trkpt lat="49.57416532561183" lon="9.090346321463583">
<ele>483.4</ele>
<time>2024-05-10T10:32:58Z</time>
</trkpt>
<trkpt lat="49.57420346327126" lon="9.090311955660582">
<ele>483.4</ele>
<time>2024-05-10T10:32:59Z</time>
</trkpt>
<trkpt lat="49.57423774525523" lon="9.090268118306994">
<ele>483.6</ele>
<time>2024-05-10T10:33:00Z</time>
</trkpt>
<trkpt lat="49.574272111058235" lon="9.090221347287295">
<ele>483.6</ele>
<time>2024-05-10T10:33:01Z</time>
</trkpt>
<trkpt lat="49.57430647686124" lon="9.09017650410533">
<ele>483.6</ele>
<time>2024-05-10T10:33:02Z</time>
</trkpt>
<trkpt lat="49.57434461452067" lon="9.090125039219856">
<ele>483.6</ele>
<time>2024-05-10T10:33:03Z</time>
</trkpt>
<trkpt lat="49.57438652403653" lon="9.090067790821196">
<ele>483.4</ele>
<time>2024-05-10T10:33:04Z</time>
</trkpt>
<trkpt lat="49.574428517371416" lon="9.090009620413184">
<ele>483.4</ele>
<time>2024-05-10T10:33:05Z</time>
</trkpt>
<trkpt lat="49.57446665503085" lon="9.089951450005174">
<ele>483.2</ele>
<time>2024-05-10T10:33:06Z</time>
</trkpt>
<trkpt lat="49.574508648365736" lon="9.089895207434893">
<ele>483.2</ele>
<time>2024-05-10T10:33:07Z</time>
</trkpt>
<trkpt lat="49.57454678602517" lon="9.089837037026882">
<ele>483</ele>
<time>2024-05-10T10:33:08Z</time>
</trkpt>
<trkpt lat="49.574588695541024" lon="9.089790266007183">
<ele>482.8</ele>
<time>2024-05-10T10:33:09Z</time>
</trkpt>
<trkpt lat="49.57467645406723" lon="9.08974357880652">
<ele>482.6</ele>
<time>2024-05-10T10:33:10Z</time>
</trkpt>
<trkpt lat="49.57471459172666" lon="9.089736873283982">
<ele>482.4</ele>
<time>2024-05-10T10:33:12Z</time>
</trkpt>
<trkpt lat="49.57475272938609" lon="9.089737879112365">
<ele>482.2</ele>
<time>2024-05-10T10:33:13Z</time>
</trkpt>
<trkpt lat="49.574787095189095" lon="9.089737879112365">
<ele>482</ele>
<time>2024-05-10T10:33:14Z</time>
</trkpt>
<trkpt lat="49.57485959865153" lon="9.089736873283982">
<ele>482</ele>
<time>2024-05-10T10:33:15Z</time>
</trkpt>
<trkpt lat="49.57489773631096" lon="9.089744500815868">
<ele>481.8</ele>
<time>2024-05-10T10:33:17Z</time>
</trkpt>
<trkpt lat="49.57493201829493" lon="9.089756906032562">
<ele>481.6</ele>
<time>2024-05-10T10:33:18Z</time>
</trkpt>
<trkpt lat="49.57497023977339" lon="9.089770317077637">
<ele>481.4</ele>
<time>2024-05-10T10:33:19Z</time>
</trkpt>
<trkpt lat="49.57501214928925" lon="9.08977978862822">
<ele>481.4</ele>
<time>2024-05-10T10:33:20Z</time>
</trkpt>
<trkpt lat="49.57505414262414" lon="9.089790266007183">
<ele>481.2</ele>
<time>2024-05-10T10:33:21Z</time>
</trkpt>
<trkpt lat="49.57509228028357" lon="9.08980174921453">
<ele>481</ele>
<time>2024-05-10T10:33:22Z</time>
</trkpt>
<trkpt lat="49.57517241127789" lon="9.08981985412538">
<ele>480.8</ele>
<time>2024-05-10T10:33:23Z</time>
</trkpt>
<trkpt lat="49.57525245845318" lon="9.08984181471169">
<ele>480.8</ele>
<time>2024-05-10T10:33:25Z</time>
</trkpt>
<trkpt lat="49.57532881759107" lon="9.089889507740736">
<ele>480.6</ele>
<time>2024-05-10T10:33:27Z</time>
</trkpt>
<trkpt lat="49.57536309957504" lon="9.089913312345743">
<ele>480.6</ele>
<time>2024-05-10T10:33:29Z</time>
</trkpt>
<trkpt lat="49.57539360970259" lon="9.089944828301668">
<ele>480.6</ele>
<time>2024-05-10T10:33:30Z</time>
</trkpt>
<trkpt lat="49.57542411983013" lon="9.0899829659611">
<ele>480.6</ele>
<time>2024-05-10T10:33:31Z</time>
</trkpt>
<trkpt lat="49.57548522390425" lon="9.09005639143288">
<ele>480.6</ele>
<time>2024-05-10T10:33:32Z</time>
</trkpt>
<trkpt lat="49.57551187835634" lon="9.090100228786469">
<ele>480.6</ele>
<time>2024-05-10T10:33:34Z</time>
</trkpt>
<trkpt lat="49.575534760952" lon="9.090151777490972">
<ele>480.6</ele>
<time>2024-05-10T10:33:35Z</time>
</trkpt>
<trkpt lat="49.57556149922311" lon="9.09019653685391">
<ele>480.6</ele>
<time>2024-05-10T10:33:36Z</time>
</trkpt>
<trkpt lat="49.57559200935066" lon="9.090246157720683">
<ele>480.6</ele>
<time>2024-05-10T10:33:37Z</time>
</trkpt>
<trkpt lat="49.57561866380274" lon="9.090292928740382">
<ele>480.6</ele>
<time>2024-05-10T10:33:38Z</time>
</trkpt>
<trkpt lat="49.57564540207386" lon="9.090345315635204">
<ele>480.6</ele>
<time>2024-05-10T10:33:39Z</time>
</trkpt>
<trkpt lat="49.57566828466952" lon="9.09039300866425">
<ele>480.8</ele>
<time>2024-05-10T10:33:40Z</time>
</trkpt>
<trkpt lat="49.57569502294064" lon="9.090441623702644">
<ele>481</ele>
<time>2024-05-10T10:33:41Z</time>
</trkpt>
<trkpt lat="49.57572167739272" lon="9.09049124456942">
<ele>481</ele>
<time>2024-05-10T10:33:42Z</time>
</trkpt>
<trkpt lat="49.57576744258404" lon="9.090588558465242">
<ele>481.2</ele>
<time>2024-05-10T10:33:43Z</time>
</trkpt>
<trkpt lat="49.575790325179696" lon="9.090635245665908">
<ele>481.2</ele>
<time>2024-05-10T10:33:45Z</time>
</trkpt>
<trkpt lat="49.575813291594386" lon="9.090682938694954">
<ele>481.4</ele>
<time>2024-05-10T10:33:46Z</time>
</trkpt>
<trkpt lat="49.57583617419005" lon="9.090729709714653">
<ele>481.4</ele>
<time>2024-05-10T10:33:47Z</time>
</trkpt>
<trkpt lat="49.57585520111024" lon="9.090778324753046">
<ele>481.6</ele>
<time>2024-05-10T10:33:48Z</time>
</trkpt>
<trkpt lat="49.5758780837059" lon="9.09082693979144">
<ele>481.8</ele>
<time>2024-05-10T10:33:49Z</time>
</trkpt>
<trkpt lat="49.57589719444513" lon="9.090874632820489">
<ele>482</ele>
<time>2024-05-10T10:33:50Z</time>
</trkpt>
<trkpt lat="49.57591622136533" lon="9.090921320021152">
<ele>482.2</ele>
<time>2024-05-10T10:33:51Z</time>
</trkpt>
<trkpt lat="49.57593910396099" lon="9.090963313356042">
<ele>482.4</ele>
<time>2024-05-10T10:33:52Z</time>
</trkpt>
<trkpt lat="49.57595821470022" lon="9.09100622870028">
<ele>482.6</ele>
<time>2024-05-10T10:33:53Z</time>
</trkpt>
<trkpt lat="49.57598109729588" lon="9.09104822203517">
<ele>482.8</ele>
<time>2024-05-10T10:33:54Z</time>
</trkpt>
<trkpt lat="49.57600020803511" lon="9.09108828753233">
<ele>483</ele>
<time>2024-05-10T10:33:55Z</time>
</trkpt>
<trkpt lat="49.5760268624872" lon="9.09112449735403">
<ele>483.2</ele>
<time>2024-05-10T10:33:56Z</time>
</trkpt>
<trkpt lat="49.57604597322643" lon="9.09116355702281">
<ele>483.4</ele>
<time>2024-05-10T10:33:57Z</time>
</trkpt>
<trkpt lat="49.576068855822086" lon="9.091201778501272">
<ele>483.6</ele>
<time>2024-05-10T10:33:58Z</time>
</trkpt>
<trkpt lat="49.57609551027417" lon="9.091235138475897">
<ele>483.8</ele>
<time>2024-05-10T10:33:59Z</time>
</trkpt>
<trkpt lat="49.57612602040171" lon="9.09126179292798">
<ele>483.8</ele>
<time>2024-05-10T10:34:00Z</time>
</trkpt>
<trkpt lat="49.57615275867283" lon="9.091279981657864">
<ele>484</ele>
<time>2024-05-10T10:34:01Z</time>
</trkpt>
<trkpt lat="49.57618712447584" lon="9.091289453208448">
<ele>484</ele>
<time>2024-05-10T10:34:02Z</time>
</trkpt>
<trkpt lat="49.57622140645981" lon="9.091289453208448">
<ele>484.2</ele>
<time>2024-05-10T10:34:03Z</time>
</trkpt>
<trkpt lat="49.57625577226281" lon="9.091278053820131">
<ele>484.4</ele>
<time>2024-05-10T10:34:04Z</time>
</trkpt>
<trkpt lat="49.57628628239035" lon="9.091257015243173">
<ele>484.4</ele>
<time>2024-05-10T10:34:05Z</time>
</trkpt>
<trkpt lat="49.57632064819336" lon="9.091230360791087">
<ele>484.6</ele>
<time>2024-05-10T10:34:06Z</time>
</trkpt>
<trkpt lat="49.57635493017733" lon="9.091199850663545">
<ele>484.6</ele>
<time>2024-05-10T10:34:07Z</time>
</trkpt>
<trkpt lat="49.576389295980334" lon="9.091168334707618">
<ele>484.6</ele>
<time>2024-05-10T10:34:08Z</time>
</trkpt>
<trkpt lat="49.57641980610788" lon="9.091134974732997">
<ele>484.6</ele>
<time>2024-05-10T10:34:09Z</time>
</trkpt>
<trkpt lat="49.57645408809185" lon="9.091099686920645">
<ele>484.8</ele>
<time>2024-05-10T10:34:10Z</time>
</trkpt>
<trkpt lat="49.576488453894854" lon="9.09106825478375">
<ele>484.8</ele>
<time>2024-05-10T10:34:11Z</time>
</trkpt>
<trkpt lat="49.57652659155429" lon="9.091045372188091">
<ele>484.8</ele>
<time>2024-05-10T10:34:12Z</time>
</trkpt>
<trkpt lat="49.57656095735729" lon="9.091019555926325">
<ele>484.8</ele>
<time>2024-05-10T10:34:13Z</time>
</trkpt>
<trkpt lat="49.57660672254861" lon="9.091003378853202">
<ele>484.8</ele>
<time>2024-05-10T10:34:14Z</time>
</trkpt>
<trkpt lat="49.576644860208035" lon="9.09100622870028">
<ele>484.8</ele>
<time>2024-05-10T10:34:15Z</time>
</trkpt>
<trkpt lat="49.57668685354293" lon="9.091021483764052">
<ele>484.8</ele>
<time>2024-05-10T10:34:16Z</time>
</trkpt>
<trkpt lat="49.576724991202354" lon="9.09104822203517">
<ele>484.8</ele>
<time>2024-05-10T10:34:17Z</time>
</trkpt>
<trkpt lat="49.5767555013299" lon="9.09108535386622">
<ele>485</ele>
<time>2024-05-10T10:34:18Z</time>
</trkpt>
<trkpt lat="49.57678601145744" lon="9.091131202876568">
<ele>485</ele>
<time>2024-05-10T10:34:19Z</time>
</trkpt>
<trkpt lat="49.576820293441415" lon="9.091171184554696">
<ele>485</ele>
<time>2024-05-10T10:34:20Z</time>
</trkpt>
<trkpt lat="49.57685088738799" lon="9.091211250051856">
<ele>485.2</ele>
<time>2024-05-10T10:34:21Z</time>
</trkpt>
<trkpt lat="49.576881397515535" lon="9.091253243386744">
<ele>485.2</ele>
<time>2024-05-10T10:34:22Z</time>
</trkpt>
<trkpt lat="49.57691190764308" lon="9.091293308883904">
<ele>485.2</ele>
<time>2024-05-10T10:34:23Z</time>
</trkpt>
<trkpt lat="49.576938562095165" lon="9.091331446543336">
<ele>485.2</ele>
<time>2024-05-10T10:34:24Z</time>
</trkpt>
<trkpt lat="49.57697292789817" lon="9.091368662193418">
<ele>485.2</ele>
<time>2024-05-10T10:34:25Z</time>
</trkpt>
<trkpt lat="49.57700343802571" lon="9.09140294417739">
<ele>485.4</ele>
<time>2024-05-10T10:34:26Z</time>
</trkpt>
<trkpt lat="49.57703394815326" lon="9.09143823198974">
<ele>485.4</ele>
<time>2024-05-10T10:34:27Z</time>
</trkpt>
<trkpt lat="49.5770644582808" lon="9.091473519802094">
<ele>485.4</ele>
<time>2024-05-10T10:34:28Z</time>
</trkpt>
<trkpt lat="49.577094968408346" lon="9.091509813442826">
<ele>485.4</ele>
<time>2024-05-10T10:34:29Z</time>
</trkpt>
<trkpt lat="49.57712547853589" lon="9.091546945273876">
<ele>485.4</ele>
<time>2024-05-10T10:34:30Z</time>
</trkpt>
<trkpt lat="49.577159844338894" lon="9.091583238914607">
<ele>485.4</ele>
<time>2024-05-10T10:34:31Z</time>
</trkpt>
<trkpt lat="49.5771942101419" lon="9.09162037074566">
<ele>485.4</ele>
<time>2024-05-10T10:34:32Z</time>
</trkpt>
<trkpt lat="49.57723234780133" lon="9.091654736548662">
<ele>485.4</ele>
<time>2024-05-10T10:34:33Z</time>
</trkpt>
<trkpt lat="49.5772666297853" lon="9.091691952198744">
<ele>485.4</ele>
<time>2024-05-10T10:34:34Z</time>
</trkpt>
<trkpt lat="49.5773009955883" lon="9.091728162020445">
<ele>485.4</ele>
<time>2024-05-10T10:34:35Z</time>
</trkpt>
<trkpt lat="49.577335277572274" lon="9.091766299679875">
<ele>485.4</ele>
<time>2024-05-10T10:34:36Z</time>
</trkpt>
<trkpt lat="49.57737727090717" lon="9.091803515329955">
<ele>485.6</ele>
<time>2024-05-10T10:34:37Z</time>
</trkpt>
<trkpt lat="49.577415408566594" lon="9.091841652989388">
<ele>485.8</ele>
<time>2024-05-10T10:34:38Z</time>
</trkpt>
<trkpt lat="49.577453546226025" lon="9.091883646324275">
<ele>485.8</ele>
<time>2024-05-10T10:34:39Z</time>
</trkpt>
<trkpt lat="49.577491683885455" lon="9.091930333524942">
<ele>486</ele>
<time>2024-05-10T10:34:40Z</time>
</trkpt>
<trkpt lat="49.57752990536392" lon="9.091979954391718">
<ele>486</ele>
<time>2024-05-10T10:34:41Z</time>
</trkpt>
<trkpt lat="49.577571814879775" lon="9.092028569430113">
<ele>486.2</ele>
<time>2024-05-10T10:34:42Z</time>
</trkpt>
<trkpt lat="49.577613808214664" lon="9.092080034315586">
<ele>486.2</ele>
<time>2024-05-10T10:34:43Z</time>
</trkpt>
<trkpt lat="49.577651945874095" lon="9.092129655182362">
<ele>486.2</ele>
<time>2024-05-10T10:34:44Z</time>
</trkpt>
<trkpt lat="49.577690083533525" lon="9.092180198058486">
<ele>486.4</ele>
<time>2024-05-10T10:34:45Z</time>
</trkpt>
<trkpt lat="49.57772822119296" lon="9.092233590781689">
<ele>486.4</ele>
<time>2024-05-10T10:34:46Z</time>
</trkpt>
<trkpt lat="49.57776635885239" lon="9.092286983504891">
<ele>486.2</ele>
<time>2024-05-10T10:34:47Z</time>
</trkpt>
<trkpt lat="49.57780449651182" lon="9.092336604371669">
<ele>486.2</ele>
<time>2024-05-10T10:34:48Z</time>
</trkpt>
<trkpt lat="49.57784263417125" lon="9.092385219410062">
<ele>486</ele>
<time>2024-05-10T10:34:49Z</time>
</trkpt>
<trkpt lat="49.57787699997425" lon="9.092434840276836">
<ele>486</ele>
<time>2024-05-10T10:34:50Z</time>
</trkpt>
<trkpt lat="49.57791513763368" lon="9.09248630516231">
<ele>485.8</ele>
<time>2024-05-10T10:34:51Z</time>
</trkpt>
<trkpt lat="49.577949503436685" lon="9.092537853866816">
<ele>485.6</ele>
<time>2024-05-10T10:34:52Z</time>
</trkpt>
<trkpt lat="49.577983785420656" lon="9.09258839674294">
<ele>485.6</ele>
<time>2024-05-10T10:34:53Z</time>
</trkpt>
<trkpt lat="49.57801815122366" lon="9.092637933790684">
<ele>485.6</ele>
<time>2024-05-10T10:34:54Z</time>
</trkpt>
<trkpt lat="49.57809065468609" lon="9.092740025371311">
<ele>485.4</ele>
<time>2024-05-10T10:34:55Z</time>
</trkpt>
<trkpt lat="49.578124936670065" lon="9.092791490256786">
<ele>485.4</ele>
<time>2024-05-10T10:34:57Z</time>
</trkpt>
<trkpt lat="49.57815544679761" lon="9.092844882979987">
<ele>485.4</ele>
<time>2024-05-10T10:34:58Z</time>
</trkpt>
<trkpt lat="49.57818981260061" lon="9.092898359522223">
<ele>485.2</ele>
<time>2024-05-10T10:34:59Z</time>
</trkpt>
<trkpt lat="49.57821655087173" lon="9.092951752245426">
<ele>485.2</ele>
<time>2024-05-10T10:35:00Z</time>
</trkpt>
<trkpt lat="49.57826994359493" lon="9.09306331537664">
<ele>485.2</ele>
<time>2024-05-10T10:35:01Z</time>
</trkpt>
<trkpt lat="49.57829659804702" lon="9.093118635937572">
<ele>485.2</ele>
<time>2024-05-10T10:35:02Z</time>
</trkpt>
<trkpt lat="49.57831948064267" lon="9.093172950670125">
<ele>485.2</ele>
<time>2024-05-10T10:35:03Z</time>
</trkpt>
<trkpt lat="49.578342363238335" lon="9.093226427212358">
<ele>485.4</ele>
<time>2024-05-10T10:35:05Z</time>
</trkpt>
<trkpt lat="49.57838821224868" lon="9.09333698451519">
<ele>485.4</ele>
<time>2024-05-10T10:35:07Z</time>
</trkpt>
<trkpt lat="49.57841486670077" lon="9.093388533219697">
<ele>485.4</ele>
<time>2024-05-10T10:35:08Z</time>
</trkpt>
<trkpt lat="49.57843774929643" lon="9.09343522042036">
<ele>485.6</ele>
<time>2024-05-10T10:35:09Z</time>
</trkpt>
<trkpt lat="49.57845686003566" lon="9.093480063602328">
<ele>485.6</ele>
<time>2024-05-10T10:35:10Z</time>
</trkpt>
<trkpt lat="49.578502625226974" lon="9.09355633892119">
<ele>485.6</ele>
<time>2024-05-10T10:35:11Z</time>
</trkpt>
<trkpt lat="49.57855224609375" lon="9.093623142689466">
<ele>485.8</ele>
<time>2024-05-10T10:35:13Z</time>
</trkpt>
<trkpt lat="49.57860941067338" lon="9.093687012791634">
<ele>485.8</ele>
<time>2024-05-10T10:35:15Z</time>
</trkpt>
<trkpt lat="49.57863992080093" lon="9.09371852874756">
<ele>485.8</ele>
<time>2024-05-10T10:35:16Z</time>
</trkpt>
<trkpt lat="49.57866665907204" lon="9.093747111037374">
<ele>486</ele>
<time>2024-05-10T10:35:17Z</time>
</trkpt>
<trkpt lat="49.578735306859016" lon="9.093790026381612">
<ele>486</ele>
<time>2024-05-10T10:35:19Z</time>
</trkpt>
<trkpt lat="49.57876581698656" lon="9.093805281445384">
<ele>486</ele>
<time>2024-05-10T10:35:20Z</time>
</trkpt>
<trkpt lat="49.57882683724165" lon="9.093821458518503">
<ele>486</ele>
<time>2024-05-10T10:35:22Z</time>
</trkpt>
<trkpt lat="49.578857347369194" lon="9.093830091878772">
<ele>486</ele>
<time>2024-05-10T10:35:24Z</time>
</trkpt>
<trkpt lat="49.5788917131722" lon="9.093839563429356">
<ele>486</ele>
<time>2024-05-10T10:35:25Z</time>
</trkpt>
<trkpt lat="49.57896798849106" lon="9.093859596177936">
<ele>486</ele>
<time>2024-05-10T10:35:26Z</time>
</trkpt>
<trkpt lat="49.57900612615049" lon="9.093868229538202">
<ele>486</ele>
<time>2024-05-10T10:35:27Z</time>
</trkpt>
<trkpt lat="49.57904426380992" lon="9.093874851241708">
<ele>486</ele>
<time>2024-05-10T10:35:28Z</time>
</trkpt>
<trkpt lat="49.57912439480424" lon="9.093881556764243">
<ele>486</ele>
<time>2024-05-10T10:35:30Z</time>
</trkpt>
<trkpt lat="49.57916638813913" lon="9.093879628926516">
<ele>485.8</ele>
<time>2024-05-10T10:35:31Z</time>
</trkpt>
<trkpt lat="49.579208297654986" lon="9.093879628926516">
<ele>485.6</ele>
<time>2024-05-10T10:35:32Z</time>
</trkpt>
<trkpt lat="49.57924651913345" lon="9.093876779079435">
<ele>485.6</ele>
<time>2024-05-10T10:35:33Z</time>
</trkpt>
<trkpt lat="49.57933419384062" lon="9.093850124627352">
<ele>485.4</ele>
<time>2024-05-10T10:35:35Z</time>
</trkpt>
<trkpt lat="49.57937995903194" lon="9.09383294172585">
<ele>485.4</ele>
<time>2024-05-10T10:35:36Z</time>
</trkpt>
<trkpt lat="49.57942580804229" lon="9.093810059130192">
<ele>485.2</ele>
<time>2024-05-10T10:35:37Z</time>
</trkpt>
<trkpt lat="49.5794715732336" lon="9.093783320859076">
<ele>485.2</ele>
<time>2024-05-10T10:35:38Z</time>
</trkpt>
<trkpt lat="49.57956310361624" lon="9.09371852874756">
<ele>485</ele>
<time>2024-05-10T10:35:40Z</time>
</trkpt>
<trkpt lat="49.57960509695113" lon="9.093683240935206">
<ele>484.8</ele>
<time>2024-05-10T10:35:41Z</time>
</trkpt>
<trkpt lat="49.57965848967433" lon="9.093646947294474">
<ele>484.6</ele>
<time>2024-05-10T10:35:42Z</time>
</trkpt>
<trkpt lat="49.579704254865646" lon="9.09361165948212">
<ele>484.6</ele>
<time>2024-05-10T10:35:43Z</time>
</trkpt>
<trkpt lat="49.57975387573242" lon="9.09357637166977">
<ele>484.4</ele>
<time>2024-05-10T10:35:45Z</time>
</trkpt>
<trkpt lat="49.579845406115055" lon="9.093509651720524">
<ele>483.8</ele>
<time>2024-05-10T10:35:46Z</time>
</trkpt>
<trkpt lat="49.57988731563091" lon="9.09347528591752">
<ele>483.4</ele>
<time>2024-05-10T10:35:48Z</time>
</trkpt>
<trkpt lat="49.57993316464126" lon="9.093439998105168">
<ele>483</ele>
<time>2024-05-10T10:35:49Z</time>
</trkpt>
<trkpt lat="49.580024695023894" lon="9.093364644795656">
<ele>483</ele>
<time>2024-05-10T10:35:50Z</time>
</trkpt>
<trkpt lat="49.58007046021521" lon="9.093330362811685">
<ele>482.8</ele>
<time>2024-05-10T10:35:51Z</time>
</trkpt>
<trkpt lat="49.58011622540653" lon="9.093297002837062">
<ele>482.8</ele>
<time>2024-05-10T10:35:52Z</time>
</trkpt>
<trkpt lat="49.58015821874142" lon="9.093266408890486">
<ele>482.6</ele>
<time>2024-05-10T10:35:53Z</time>
</trkpt>
<trkpt lat="49.580238265916705" lon="9.093213016167285">
<ele>482.6</ele>
<time>2024-05-10T10:35:55Z</time>
</trkpt>
<trkpt lat="49.580280259251595" lon="9.09318351186812">
<ele>482.4</ele>
<time>2024-05-10T10:35:56Z</time>
</trkpt>
<trkpt lat="49.580318396911025" lon="9.093150068074465">
<ele>482.4</ele>
<time>2024-05-10T10:35:57Z</time>
</trkpt>
<trkpt lat="49.580360390245914" lon="9.093114780262113">
<ele>482.2</ele>
<time>2024-05-10T10:35:58Z</time>
</trkpt>
<trkpt lat="49.58044814877212" lon="9.093048060312867">
<ele>482.2</ele>
<time>2024-05-10T10:36:00Z</time>
</trkpt>
<trkpt lat="49.58049005828798" lon="9.093014700338244">
<ele>482.2</ele>
<time>2024-05-10T10:36:01Z</time>
</trkpt>
<trkpt lat="49.580573961138725" lon="9.092949824407697">
<ele>482</ele>
<time>2024-05-10T10:36:03Z</time>
</trkpt>
<trkpt lat="49.580657947808504" lon="9.092886876314878">
<ele>482</ele>
<time>2024-05-10T10:36:05Z</time>
</trkpt>
<trkpt lat="49.580696085467935" lon="9.092851588502526">
<ele>482</ele>
<time>2024-05-10T10:36:06Z</time>
</trkpt>
<trkpt lat="49.580734223127365" lon="9.092816300690174">
<ele>482</ele>
<time>2024-05-10T10:36:07Z</time>
</trkpt>
<trkpt lat="49.58077613264322" lon="9.092782940715551">
<ele>482</ele>
<time>2024-05-10T10:36:08Z</time>
</trkpt>
<trkpt lat="49.580860119313" lon="9.092713287100196">
<ele>482</ele>
<time>2024-05-10T10:36:10Z</time>
</trkpt>
<trkpt lat="49.58090202882886" lon="9.092679927125571">
<ele>481.8</ele>
<time>2024-05-10T10:36:11Z</time>
</trkpt>
<trkpt lat="49.58094402216375" lon="9.09264849498868">
<ele>481.8</ele>
<time>2024-05-10T10:36:12Z</time>
</trkpt>
<trkpt lat="49.580989787355065" lon="9.092611279338598">
<ele>481.8</ele>
<time>2024-05-10T10:36:13Z</time>
</trkpt>
<trkpt lat="49.581069918349385" lon="9.092537853866816">
<ele>481.8</ele>
<time>2024-05-10T10:36:15Z</time>
</trkpt>
<trkpt lat="49.58111182786524" lon="9.092503488063812">
<ele>481.8</ele>
<time>2024-05-10T10:36:16Z</time>
</trkpt>
<trkpt lat="49.581150049343705" lon="9.09246627241373">
<ele>481.8</ele>
<time>2024-05-10T10:36:17Z</time>
</trkpt>
<trkpt lat="49.581188187003136" lon="9.09243006259203">
<ele>481.8</ele>
<time>2024-05-10T10:36:19Z</time>
</trkpt>
<trkpt lat="49.581268234178424" lon="9.092363342642784">
<ele>481.8</ele>
<time>2024-05-10T10:36:20Z</time>
</trkpt>
<trkpt lat="49.58131022751331" lon="9.092328054830432">
<ele>481.8</ele>
<time>2024-05-10T10:36:21Z</time>
</trkpt>
<trkpt lat="49.58134073764086" lon="9.092294611036776">
<ele>481.8</ele>
<time>2024-05-10T10:36:22Z</time>
</trkpt>
<trkpt lat="49.5813712477684" lon="9.092256473377349">
<ele>481.8</ele>
<time>2024-05-10T10:36:23Z</time>
</trkpt>
<trkpt lat="49.581405613571405" lon="9.092218335717916">
<ele>481.8</ele>
<time>2024-05-10T10:36:25Z</time>
</trkpt>
<trkpt lat="49.58144752308726" lon="9.092187825590372">
<ele>481.8</ele>
<time>2024-05-10T10:36:26Z</time>
</trkpt>
<trkpt lat="49.58148951642215" lon="9.092158237472177">
<ele>482</ele>
<time>2024-05-10T10:36:27Z</time>
</trkpt>
<trkpt lat="49.5815734192729" lon="9.092082967981696">
<ele>482.2</ele>
<time>2024-05-10T10:36:28Z</time>
</trkpt>
<trkpt lat="49.58161155693233" lon="9.092042902484536">
<ele>482.2</ele>
<time>2024-05-10T10:36:30Z</time>
</trkpt>
<trkpt lat="49.58169168792665" lon="9.091966627165675">
<ele>482.2</ele>
<time>2024-05-10T10:36:31Z</time>
</trkpt>
<trkpt lat="49.58172982558608" lon="9.091931339353325">
<ele>482.2</ele>
<time>2024-05-10T10:36:33Z</time>
</trkpt>
<trkpt lat="49.58177181892097" lon="9.09189504571259">
<ele>482.4</ele>
<time>2024-05-10T10:36:34Z</time>
</trkpt>
<trkpt lat="49.5818633493036" lon="9.091808293014765">
<ele>482.4</ele>
<time>2024-05-10T10:36:35Z</time>
</trkpt>
<trkpt lat="49.58190534263849" lon="9.091765377670528">
<ele>482.4</ele>
<time>2024-05-10T10:36:37Z</time>
</trkpt>
<trkpt lat="49.58195110782981" lon="9.091723384335635">
<ele>482.4</ele>
<time>2024-05-10T10:36:38Z</time>
</trkpt>
<trkpt lat="49.5819931011647" lon="9.091685246676208">
<ele>482.4</ele>
<time>2024-05-10T10:36:39Z</time>
</trkpt>
<trkpt lat="49.58206174895167" lon="9.091627998277543">
<ele>482.4</ele>
<time>2024-05-10T10:36:40Z</time>
</trkpt>
<trkpt lat="49.582099886611104" lon="9.091593716293572">
<ele>482.4</ele>
<time>2024-05-10T10:36:42Z</time>
</trkpt>
<trkpt lat="49.58214179612696" lon="9.091563206166027">
<ele>482.6</ele>
<time>2024-05-10T10:36:43Z</time>
</trkpt>
<trkpt lat="49.582180017605424" lon="9.091529846191406">
<ele>482.6</ele>
<time>2024-05-10T10:36:44Z</time>
</trkpt>
<trkpt lat="49.58226006478071" lon="9.091428676620126">
<ele>482.8</ele>
<time>2024-05-10T10:36:45Z</time>
</trkpt>
<trkpt lat="49.5823020581156" lon="9.091391544789076">
<ele>482.8</ele>
<time>2024-05-10T10:36:46Z</time>
</trkpt>
<trkpt lat="49.58234782330692" lon="9.09136002883315">
<ele>482.8</ele>
<time>2024-05-10T10:36:47Z</time>
</trkpt>
<trkpt lat="49.58238981664181" lon="9.091326668858528">
<ele>483</ele>
<time>2024-05-10T10:36:48Z</time>
</trkpt>
<trkpt lat="49.58248134702444" lon="9.09126372076571">
<ele>483</ele>
<time>2024-05-10T10:36:50Z</time>
</trkpt>
<trkpt lat="49.58257673308253" lon="9.09120362251997">
<ele>483.2</ele>
<time>2024-05-10T10:36:52Z</time>
</trkpt>
<trkpt lat="49.58261864259839" lon="9.091173112392426">
<ele>483.2</ele>
<time>2024-05-10T10:36:53Z</time>
</trkpt>
<trkpt lat="49.582710256800056" lon="9.091117791831492">
<ele>483.2</ele>
<time>2024-05-10T10:36:55Z</time>
</trkpt>
<trkpt lat="49.582748394459486" lon="9.091098764911294">
<ele>483.2</ele>
<time>2024-05-10T10:36:56Z</time>
</trkpt>
<trkpt lat="49.582790303975344" lon="9.091074876487257">
<ele>483.4</ele>
<time>2024-05-10T10:36:57Z</time>
</trkpt>
<trkpt lat="49.582828441634774" lon="9.091052999719976">
<ele>483.2</ele>
<time>2024-05-10T10:36:58Z</time>
</trkpt>
<trkpt lat="49.582923827692866" lon="9.091005306690931">
<ele>483.2</ele>
<time>2024-05-10T10:37:00Z</time>
</trkpt>
<trkpt lat="49.58297344855964" lon="9.090974796563389">
<ele>483.2</ele>
<time>2024-05-10T10:37:01Z</time>
</trkpt>
<trkpt lat="49.58302306942642" lon="9.090945208445191">
<ele>483</ele>
<time>2024-05-10T10:37:02Z</time>
</trkpt>
<trkpt lat="49.583064978942275" lon="9.090913692489266">
<ele>483</ele>
<time>2024-05-10T10:37:03Z</time>
</trkpt>
<trkpt lat="49.58314888179302" lon="9.090871782973409">
<ele>482.8</ele>
<time>2024-05-10T10:37:05Z</time>
</trkpt>
<trkpt lat="49.58319473080337" lon="9.09084697254002">
<ele>482.6</ele>
<time>2024-05-10T10:37:06Z</time>
</trkpt>
<trkpt lat="49.58324049599469" lon="9.090818390250206">
<ele>482.6</ele>
<time>2024-05-10T10:37:07Z</time>
</trkpt>
<trkpt lat="49.58329003304243" lon="9.090793579816818">
<ele>482.4</ele>
<time>2024-05-10T10:37:08Z</time>
</trkpt>
<trkpt lat="49.583381647244096" lon="9.090742031112311">
<ele>482.4</ele>
<time>2024-05-10T10:37:10Z</time>
</trkpt>
<trkpt lat="49.58342355675995" lon="9.090713448822498">
<ele>482.4</ele>
<time>2024-05-10T10:37:11Z</time>
</trkpt>
<trkpt lat="49.58346932195127" lon="9.090682938694954">
<ele>482.4</ele>
<time>2024-05-10T10:37:12Z</time>
</trkpt>
<trkpt lat="49.5835074596107" lon="9.090656200423837">
<ele>482.4</ele>
<time>2024-05-10T10:37:13Z</time>
</trkpt>
<trkpt lat="49.58354945294559" lon="9.090628623962402">
<ele>482.4</ele>
<time>2024-05-10T10:37:15Z</time>
</trkpt>
<trkpt lat="49.58361047320068" lon="9.090575147420168">
<ele>482.6</ele>
<time>2024-05-10T10:37:16Z</time>
</trkpt>
<trkpt lat="49.58364861086011" lon="9.090548492968082">
<ele>482.6</ele>
<time>2024-05-10T10:37:17Z</time>
</trkpt>
<trkpt lat="49.58368674851954" lon="9.090521754696963">
<ele>482.8</ele>
<time>2024-05-10T10:37:18Z</time>
</trkpt>
<trkpt lat="49.58376310765743" lon="9.090463584288957">
<ele>482.8</ele>
<time>2024-05-10T10:37:20Z</time>
</trkpt>
<trkpt lat="49.58382789976895" lon="9.09041211940348">
<ele>482.8</ele>
<time>2024-05-10T10:37:22Z</time>
</trkpt>
<trkpt lat="49.583854638040066" lon="9.09039686433971">
<ele>482.8</ele>
<time>2024-05-10T10:37:23Z</time>
</trkpt>
<trkpt lat="49.58390040323138" lon="9.090363420546057">
<ele>482.8</ele>
<time>2024-05-10T10:37:25Z</time>
</trkpt>
<trkpt lat="49.58393091335893" lon="9.090346321463583">
<ele>483</ele>
<time>2024-05-10T10:37:26Z</time>
</trkpt>
<trkpt lat="49.58396142348647" lon="9.090328216552734">
<ele>483</ele>
<time>2024-05-10T10:37:27Z</time>
</trkpt>
<trkpt lat="49.58398816175759" lon="9.090306255966423">
<ele>483.2</ele>
<time>2024-05-10T10:37:28Z</time>
</trkpt>
<trkpt lat="49.58404918201268" lon="9.090229980647564">
<ele>483.2</ele>
<time>2024-05-10T10:37:30Z</time>
</trkpt>
<trkpt lat="49.58407969214022" lon="9.090193687006831">
<ele>483.4</ele>
<time>2024-05-10T10:37:31Z</time>
</trkpt>
<trkpt lat="49.584110202267766" lon="9.090161249041556">
<ele>483.4</ele>
<time>2024-05-10T10:37:32Z</time>
</trkpt>
<trkpt lat="49.58414071239531" lon="9.090123111382129">
<ele>483.6</ele>
<time>2024-05-10T10:37:33Z</time>
</trkpt>
<trkpt lat="49.58420558832586" lon="9.090048763900995">
<ele>483.6</ele>
<time>2024-05-10T10:37:35Z</time>
</trkpt>
<trkpt lat="49.58424372598529" lon="9.08999822102487">
<ele>483.8</ele>
<time>2024-05-10T10:37:36Z</time>
</trkpt>
<trkpt lat="49.58427423611283" lon="9.089955305680633">
<ele>484</ele>
<time>2024-05-10T10:37:37Z</time>
</trkpt>
<trkpt lat="49.58430860191584" lon="9.089918090030553">
<ele>484.2</ele>
<time>2024-05-10T10:37:38Z</time>
</trkpt>
<trkpt lat="49.5843848772347" lon="9.089835109189153">
<ele>484.2</ele>
<time>2024-05-10T10:37:40Z</time>
</trkpt>
<trkpt lat="49.58442687056959" lon="9.08980174921453">
<ele>484.4</ele>
<time>2024-05-10T10:37:41Z</time>
</trkpt>
<trkpt lat="49.58446500822902" lon="9.0897636115551">
<ele>484.4</ele>
<time>2024-05-10T10:37:42Z</time>
</trkpt>
<trkpt lat="49.58449929021299" lon="9.08971969038248">
<ele>484.6</ele>
<time>2024-05-10T10:37:43Z</time>
</trkpt>
<trkpt lat="49.58458327688277" lon="9.089650120586157">
<ele>484.8</ele>
<time>2024-05-10T10:37:45Z</time>
</trkpt>
<trkpt lat="49.58465569652617" lon="9.089596727862954">
<ele>484.8</ele>
<time>2024-05-10T10:37:47Z</time>
</trkpt>
<trkpt lat="49.5846938341856" lon="9.089579544961452">
<ele>485</ele>
<time>2024-05-10T10:37:48Z</time>
</trkpt>
<trkpt lat="49.58476256579161" lon="9.089543335139751">
<ele>485</ele>
<time>2024-05-10T10:37:50Z</time>
</trkpt>
<trkpt lat="49.58479684777558" lon="9.08952808007598">
<ele>485.2</ele>
<time>2024-05-10T10:37:51Z</time>
</trkpt>
<trkpt lat="49.58483121357858" lon="9.089511819183826">
<ele>485.2</ele>
<time>2024-05-10T10:37:52Z</time>
</trkpt>
<trkpt lat="49.58486549556255" lon="9.089503269642591">
<ele>485.2</ele>
<time>2024-05-10T10:37:53Z</time>
</trkpt>
<trkpt lat="49.58495325408876" lon="9.08948700875044">
<ele>485.2</ele>
<time>2024-05-10T10:37:55Z</time>
</trkpt>
<trkpt lat="49.58499524742365" lon="9.08948516473174">
<ele>485.2</ele>
<time>2024-05-10T10:37:56Z</time>
</trkpt>
<trkpt lat="49.58503715693951" lon="9.089483236894011">
<ele>485.2</ele>
<time>2024-05-10T10:37:57Z</time>
</trkpt>
<trkpt lat="49.58507537841797" lon="9.089478459209204">
<ele>485.2</ele>
<time>2024-05-10T10:37:58Z</time>
</trkpt>
<trkpt lat="49.5851669088006" lon="9.089494636282325">
<ele>485.2</ele>
<time>2024-05-10T10:38:00Z</time>
</trkpt>
<trkpt lat="49.585216445848346" lon="9.089513747021556">
<ele>485.2</ele>
<time>2024-05-10T10:38:01Z</time>
</trkpt>
<trkpt lat="49.585262294858694" lon="9.089533779770136">
<ele>485.2</ele>
<time>2024-05-10T10:38:02Z</time>
</trkpt>
<trkpt lat="49.58531183190644" lon="9.08954618498683">
<ele>485.2</ele>
<time>2024-05-10T10:38:03Z</time>
</trkpt>
<trkpt lat="49.58536145277321" lon="9.089561440050602">
<ele>485.2</ele>
<time>2024-05-10T10:38:05Z</time>
</trkpt>
<trkpt lat="49.58546061068773" lon="9.089596727862954">
<ele>485.2</ele>
<time>2024-05-10T10:38:06Z</time>
</trkpt>
<trkpt lat="49.58550637587905" lon="9.089611982926726">
<ele>485.2</ele>
<time>2024-05-10T10:38:07Z</time>
</trkpt>
<trkpt lat="49.585552141070366" lon="9.089628159999847">
<ele>485.2</ele>
<time>2024-05-10T10:38:08Z</time>
</trkpt>
<trkpt lat="49.585655154660344" lon="9.089645342901347">
<ele>485.2</ele>
<time>2024-05-10T10:38:10Z</time>
</trkpt>
<trkpt lat="49.58570477552712" lon="9.089650120586157">
<ele>485.2</ele>
<time>2024-05-10T10:38:11Z</time>
</trkpt>
<trkpt lat="49.58576202392578" lon="9.089650120586157">
<ele>485.2</ele>
<time>2024-05-10T10:38:12Z</time>
</trkpt>
<trkpt lat="49.585811560973525" lon="9.089648192748427">
<ele>485.2</ele>
<time>2024-05-10T10:38:13Z</time>
</trkpt>
<trkpt lat="49.5859145745635" lon="9.089641571044922">
<ele>485.2</ele>
<time>2024-05-10T10:38:15Z</time>
</trkpt>
<trkpt lat="49.58596419543028" lon="9.089639643207192">
<ele>485.2</ele>
<time>2024-05-10T10:38:16Z</time>
</trkpt>
<trkpt lat="49.586009960621595" lon="9.089639643207192">
<ele>485.2</ele>
<time>2024-05-10T10:38:17Z</time>
</trkpt>
<trkpt lat="49.58605572581291" lon="9.089630087837577">
<ele>485</ele>
<time>2024-05-10T10:38:18Z</time>
</trkpt>
<trkpt lat="49.58614348433912" lon="9.089612904936075">
<ele>485</ele>
<time>2024-05-10T10:38:20Z</time>
</trkpt>
<trkpt lat="49.586185393854976" lon="9.089610055088997">
<ele>484.8</ele>
<time>2024-05-10T10:38:21Z</time>
</trkpt>
<trkpt lat="49.586227387189865" lon="9.089611982926726">
<ele>484.8</ele>
<time>2024-05-10T10:38:22Z</time>
</trkpt>
<trkpt lat="49.58627315238118" lon="9.089619610458612">
<ele>484.6</ele>
<time>2024-05-10T10:38:23Z</time>
</trkpt>
<trkpt lat="49.58636091090739" lon="9.089641571044922">
<ele>484.6</ele>
<time>2024-05-10T10:38:25Z</time>
</trkpt>
<trkpt lat="49.586406676098704" lon="9.089654898270965">
<ele>484.4</ele>
<time>2024-05-10T10:38:26Z</time>
</trkpt>
<trkpt lat="49.58645629696548" lon="9.089672081172466">
<ele>484.4</ele>
<time>2024-05-10T10:38:27Z</time>
</trkpt>
<trkpt lat="49.586505834013224" lon="9.089685408398507">
<ele>484.2</ele>
<time>2024-05-10T10:38:28Z</time>
</trkpt>
<trkpt lat="49.58661261945963" lon="9.089699741452932">
<ele>484.2</ele>
<time>2024-05-10T10:38:30Z</time>
</trkpt>
<trkpt lat="49.58665846846998" lon="9.089708290994167">
<ele>484</ele>
<time>2024-05-10T10:38:31Z</time>
</trkpt>
<trkpt lat="49.58671186119318" lon="9.089710218831897">
<ele>484</ele>
<time>2024-05-10T10:38:32Z</time>
</trkpt>
<trkpt lat="49.5867576263845" lon="9.089714996516705">
<ele>484</ele>
<time>2024-05-10T10:38:33Z</time>
</trkpt>
<trkpt lat="49.58685301244259" lon="9.089699741452932">
<ele>484</ele>
<time>2024-05-10T10:38:35Z</time>
</trkpt>
<trkpt lat="49.586898777633905" lon="9.089685408398507">
<ele>484</ele>
<time>2024-05-10T10:38:36Z</time>
</trkpt>
<trkpt lat="49.58694831468165" lon="9.0896634478122">
<ele>483.8</ele>
<time>2024-05-10T10:38:37Z</time>
</trkpt>
<trkpt lat="49.58698653616011" lon="9.089654898270965">
<ele>483.8</ele>
<time>2024-05-10T10:38:38Z</time>
</trkpt>
<trkpt lat="49.58706281147897" lon="9.089632937684655">
<ele>483.6</ele>
<time>2024-05-10T10:38:40Z</time>
</trkpt>
<trkpt lat="49.587097093462944" lon="9.08962338231504">
<ele>483.4</ele>
<time>2024-05-10T10:38:41Z</time>
</trkpt>
<trkpt lat="49.58712760359049" lon="9.089612904936075">
<ele>483.4</ele>
<time>2024-05-10T10:38:42Z</time>
</trkpt>
<trkpt lat="49.58716196939349" lon="9.089592872187495">
<ele>483.2</ele>
<time>2024-05-10T10:38:43Z</time>
</trkpt>
<trkpt lat="49.58723824471235" lon="9.089552806690335">
<ele>483.2</ele>
<time>2024-05-10T10:38:45Z</time>
</trkpt>
<trkpt lat="49.58731074817479" lon="9.0895080473274">
<ele>483</ele>
<time>2024-05-10T10:38:47Z</time>
</trkpt>
<trkpt lat="49.58734125830233" lon="9.08948801457882">
<ele>483</ele>
<time>2024-05-10T10:38:48Z</time>
</trkpt>
<trkpt lat="49.58742516115308" lon="9.089414589107037">
<ele>483</ele>
<time>2024-05-10T10:38:50Z</time>
</trkpt>
<trkpt lat="49.58745567128062" lon="9.089389778673649">
<ele>483</ele>
<time>2024-05-10T10:38:51Z</time>
</trkpt>
<trkpt lat="49.587490037083626" lon="9.089356418699026">
<ele>483</ele>
<time>2024-05-10T10:38:52Z</time>
</trkpt>
<trkpt lat="49.58752054721117" lon="9.08932875841856">
<ele>483.2</ele>
<time>2024-05-10T10:38:53Z</time>
</trkpt>
<trkpt lat="49.58759682253003" lon="9.08926480449736">
<ele>483.2</ele>
<time>2024-05-10T10:38:55Z</time>
</trkpt>
<trkpt lat="49.58763496018946" lon="9.089235300198196">
<ele>483.2</ele>
<time>2024-05-10T10:38:56Z</time>
</trkpt>
<trkpt lat="49.58767318166792" lon="9.08920663408935">
<ele>483.2</ele>
<time>2024-05-10T10:38:57Z</time>
</trkpt>
<trkpt lat="49.58770369179547" lon="9.08918660134077">
<ele>483.2</ele>
<time>2024-05-10T10:38:58Z</time>
</trkpt>
<trkpt lat="49.5877608563751" lon="9.089159946888683">
<ele>483.4</ele>
<time>2024-05-10T10:39:00Z</time>
</trkpt>
<trkpt lat="49.58779136650264" lon="9.08914653584361">
<ele>483.4</ele>
<time>2024-05-10T10:39:01Z</time>
</trkpt>
<trkpt lat="49.58783335983753" lon="9.089126586914063">
<ele>483.6</ele>
<time>2024-05-10T10:39:02Z</time>
</trkpt>
<trkpt lat="49.587867725640535" lon="9.089106554165484">
<ele>484</ele>
<time>2024-05-10T10:39:03Z</time>
</trkpt>
<trkpt lat="49.58795162849128" lon="9.08905123360455">
<ele>484.2</ele>
<time>2024-05-10T10:39:05Z</time>
</trkpt>
<trkpt lat="49.58799362182617" lon="9.089028351008892">
<ele>484.4</ele>
<time>2024-05-10T10:39:06Z</time>
</trkpt>
<trkpt lat="49.5880317594856" lon="9.088999684900044">
<ele>484.8</ele>
<time>2024-05-10T10:39:07Z</time>
</trkpt>
<trkpt lat="49.58806989714503" lon="9.088978730142117">
<ele>485</ele>
<time>2024-05-10T10:39:08Z</time>
</trkpt>
<trkpt lat="49.58815757185221" lon="9.088938664644957">
<ele>485.2</ele>
<time>2024-05-10T10:39:10Z</time>
</trkpt>
<trkpt lat="49.58819193765521" lon="9.088926259428264">
<ele>485.4</ele>
<time>2024-05-10T10:39:11Z</time>
</trkpt>
<trkpt lat="49.58823007531464" lon="9.088905304670334">
<ele>485.6</ele>
<time>2024-05-10T10:39:12Z</time>
</trkpt>
<trkpt lat="49.58826821297407" lon="9.088878566399217">
<ele>485.8</ele>
<time>2024-05-10T10:39:13Z</time>
</trkpt>
<trkpt lat="49.588359827175736" lon="9.0888328012079">
<ele>485.8</ele>
<time>2024-05-10T10:39:15Z</time>
</trkpt>
<trkpt lat="49.58840559236705" lon="9.08881662413478">
<ele>486</ele>
<time>2024-05-10T10:39:16Z</time>
</trkpt>
<trkpt lat="49.58844750188291" lon="9.08879374153912">
<ele>486.2</ele>
<time>2024-05-10T10:39:17Z</time>
</trkpt>
<trkpt lat="49.58849326707423" lon="9.088771780952811">
<ele>486.4</ele>
<time>2024-05-10T10:39:18Z</time>
</trkpt>
<trkpt lat="49.58859250880778" lon="9.088747976347804">
<ele>486.6</ele>
<time>2024-05-10T10:39:20Z</time>
</trkpt>
<trkpt lat="49.58863064646721" lon="9.08873649314046">
<ele>486.8</ele>
<time>2024-05-10T10:39:21Z</time>
</trkpt>
<trkpt lat="49.58867255598307" lon="9.088725009933114">
<ele>487</ele>
<time>2024-05-10T10:39:22Z</time>
</trkpt>
<trkpt lat="49.58871077746153" lon="9.088707910850644">
<ele>487.2</ele>
<time>2024-05-10T10:39:23Z</time>
</trkpt>
<trkpt lat="49.58880230784416" lon="9.088664995506406">
<ele>487.2</ele>
<time>2024-05-10T10:39:25Z</time>
</trkpt>
<trkpt lat="49.58885192871094" lon="9.088644962757826">
<ele>487.4</ele>
<time>2024-05-10T10:39:26Z</time>
</trkpt>
<trkpt lat="49.58895485848189" lon="9.088608669117091">
<ele>487.6</ele>
<time>2024-05-10T10:39:28Z</time>
</trkpt>
<trkpt lat="49.58905787207186" lon="9.0885962639004">
<ele>487.8</ele>
<time>2024-05-10T10:39:30Z</time>
</trkpt>
<trkpt lat="49.58910363726318" lon="9.088591570034623">
<ele>488</ele>
<time>2024-05-10T10:39:31Z</time>
</trkpt>
<trkpt lat="49.58915702998638" lon="9.0885962639004">
<ele>488.2</ele>
<time>2024-05-10T10:39:32Z</time>
</trkpt>
<trkpt lat="49.58920287899673" lon="9.088598191738129">
<ele>488.2</ele>
<time>2024-05-10T10:39:33Z</time>
</trkpt>
<trkpt lat="49.58927529864013" lon="9.088602969422936">
<ele>488.4</ele>
<time>2024-05-10T10:39:35Z</time>
</trkpt>
<trkpt lat="49.58931343629956" lon="9.088609674945474">
<ele>488.6</ele>
<time>2024-05-10T10:39:36Z</time>
</trkpt>
<trkpt lat="49.58935542963445" lon="9.088606825098395">
<ele>488.6</ele>
<time>2024-05-10T10:39:37Z</time>
</trkpt>
<trkpt lat="49.58940505050123" lon="9.0885962639004">
<ele>488.8</ele>
<time>2024-05-10T10:39:38Z</time>
</trkpt>
<trkpt lat="49.58950420841575" lon="9.088562903925776">
<ele>488.8</ele>
<time>2024-05-10T10:39:40Z</time>
</trkpt>
<trkpt lat="49.58954997360706" lon="9.08855527639389">
<ele>489</ele>
<time>2024-05-10T10:39:41Z</time>
</trkpt>
<trkpt lat="49.589603366330266" lon="9.088540021330118">
<ele>489</ele>
<time>2024-05-10T10:39:42Z</time>
</trkpt>
<trkpt lat="49.58965298719704" lon="9.088516216725113">
<ele>489</ele>
<time>2024-05-10T10:39:43Z</time>
</trkpt>
<trkpt lat="49.589744517579675" lon="9.088464668020606">
<ele>489</ele>
<time>2024-05-10T10:39:45Z</time>
</trkpt>
<trkpt lat="49.58983227610588" lon="9.088421752676368">
<ele>488.8</ele>
<time>2024-05-10T10:39:47Z</time>
</trkpt>
<trkpt lat="49.5898780412972" lon="9.088403647765515">
<ele>488.8</ele>
<time>2024-05-10T10:39:48Z</time>
</trkpt>
<trkpt lat="49.58995431661606" lon="9.0883578825742">
<ele>488.8</ele>
<time>2024-05-10T10:39:50Z</time>
</trkpt>
<trkpt lat="49.58999245427549" lon="9.088343549519776">
<ele>488.6</ele>
<time>2024-05-10T10:39:51Z</time>
</trkpt>
<trkpt lat="49.59003444761038" lon="9.088330222293736">
<ele>488.6</ele>
<time>2024-05-10T10:39:52Z</time>
</trkpt>
<trkpt lat="49.590080212801695" lon="9.08831781707704">
<ele>488.4</ele>
<time>2024-05-10T10:39:53Z</time>
</trkpt>
<trkpt lat="49.59016411565244" lon="9.088292084634304">
<ele>488.4</ele>
<time>2024-05-10T10:39:55Z</time>
</trkpt>
<trkpt lat="49.59020225331187" lon="9.088276829570532">
<ele>488.2</ele>
<time>2024-05-10T10:39:56Z</time>
</trkpt>
<trkpt lat="49.59024424664676" lon="9.088263502344487">
<ele>488.2</ele>
<time>2024-05-10T10:39:57Z</time>
</trkpt>
<trkpt lat="49.59029001183808" lon="9.088245313614609">
<ele>488</ele>
<time>2024-05-10T10:39:58Z</time>
</trkpt>
<trkpt lat="49.59036628715694" lon="9.088214803487062">
<ele>488</ele>
<time>2024-05-10T10:40:00Z</time>
</trkpt>
<trkpt lat="49.59044641815126" lon="9.088176665827632">
<ele>488</ele>
<time>2024-05-10T10:40:02Z</time>
</trkpt>
<trkpt lat="49.59048841148615" lon="9.088151855394244">
<ele>488</ele>
<time>2024-05-10T10:40:03Z</time>
</trkpt>
<trkpt lat="49.59056083112955" lon="9.088096618652344">
<ele>488</ele>
<time>2024-05-10T10:40:05Z</time>
</trkpt>
<trkpt lat="49.59059905260801" lon="9.088076585903764">
<ele>488</ele>
<time>2024-05-10T10:40:06Z</time>
</trkpt>
<trkpt lat="49.59063719026744" lon="9.088053703308104">
<ele>488</ele>
<time>2024-05-10T10:40:07Z</time>
</trkpt>
<trkpt lat="49.5906790997833" lon="9.088026965036988">
<ele>488</ele>
<time>2024-05-10T10:40:09Z</time>
</trkpt>
<trkpt lat="49.590755458921194" lon="9.087967872619627">
<ele>488</ele>
<time>2024-05-10T10:40:10Z</time>
</trkpt>
<trkpt lat="49.590789740905166" lon="9.087949683889748">
<ele>488</ele>
<time>2024-05-10T10:40:11Z</time>
</trkpt>
<trkpt lat="49.590812623500824" lon="9.087926801294088">
<ele>488</ele>
<time>2024-05-10T10:40:12Z</time>
</trkpt>
<trkpt lat="49.59084313362837" lon="9.087909618392588">
<ele>488</ele>
<time>2024-05-10T10:40:13Z</time>
</trkpt>
<trkpt lat="49.590892754495144" lon="9.087869636714458">
<ele>488</ele>
<time>2024-05-10T10:40:15Z</time>
</trkpt>
<trkpt lat="49.590950002893806" lon="9.087796211242676">
<ele>488</ele>
<time>2024-05-10T10:40:17Z</time>
</trkpt>
<trkpt lat="49.59097665734589" lon="9.08776855096221">
<ele>487.8</ele>
<time>2024-05-10T10:40:18Z</time>
</trkpt>
<trkpt lat="49.591011023148894" lon="9.087739884853365">
<ele>487.8</ele>
<time>2024-05-10T10:40:20Z</time>
</trkpt>
<trkpt lat="49.5910644158721" lon="9.087696969509125">
<ele>487.6</ele>
<time>2024-05-10T10:40:21Z</time>
</trkpt>
<trkpt lat="49.59109492599964" lon="9.087656904011965">
<ele>487.6</ele>
<time>2024-05-10T10:40:22Z</time>
</trkpt>
<trkpt lat="49.591129291802645" lon="9.087621616199613">
<ele>487.4</ele>
<time>2024-05-10T10:40:23Z</time>
</trkpt>
<trkpt lat="49.59120171144605" lon="9.087536791339517">
<ele>487.2</ele>
<time>2024-05-10T10:40:25Z</time>
</trkpt>
<trkpt lat="49.59123984910548" lon="9.08748809248209">
<ele>487</ele>
<time>2024-05-10T10:40:26Z</time>
</trkpt>
<trkpt lat="49.59128184244037" lon="9.087439477443697">
<ele>486.8</ele>
<time>2024-05-10T10:40:27Z</time>
</trkpt>
<trkpt lat="49.5913199800998" lon="9.087391784414647">
<ele>486.8</ele>
<time>2024-05-10T10:40:28Z</time>
</trkpt>
<trkpt lat="49.591403882950544" lon="9.087301176041365">
<ele>486.6</ele>
<time>2024-05-10T10:40:30Z</time>
</trkpt>
<trkpt lat="49.59148024208844" lon="9.087216351181269">
<ele>486.4</ele>
<time>2024-05-10T10:40:32Z</time>
</trkpt>
<trkpt lat="49.59151837974787" lon="9.0871715079993">
<ele>486.2</ele>
<time>2024-05-10T10:40:33Z</time>
</trkpt>
<trkpt lat="49.59159465506673" lon="9.08709523268044">
<ele>486.2</ele>
<time>2024-05-10T10:40:35Z</time>
</trkpt>
<trkpt lat="49.59163664840162" lon="9.087058017030358">
<ele>486</ele>
<time>2024-05-10T10:40:36Z</time>
</trkpt>
<trkpt lat="49.59167855791747" lon="9.087019879370928">
<ele>486</ele>
<time>2024-05-10T10:40:37Z</time>
</trkpt>
<trkpt lat="49.591720551252365" lon="9.086983669549229">
<ele>486</ele>
<time>2024-05-10T10:40:38Z</time>
</trkpt>
<trkpt lat="49.59178919903934" lon="9.08691493794322">
<ele>486</ele>
<time>2024-05-10T10:40:40Z</time>
</trkpt>
<trkpt lat="49.59182733669877" lon="9.08687872812152">
<ele>485.8</ele>
<time>2024-05-10T10:40:41Z</time>
</trkpt>
<trkpt lat="49.5918654743582" lon="9.086834890767932">
<ele>485.8</ele>
<time>2024-05-10T10:40:43Z</time>
</trkpt>
<trkpt lat="49.59190746769309" lon="9.0867985971272">
<ele>486</ele>
<time>2024-05-10T10:40:44Z</time>
</trkpt>
<trkpt lat="49.59199137054384" lon="9.08673665486276">
<ele>486</ele>
<time>2024-05-10T10:40:45Z</time>
</trkpt>
<trkpt lat="49.59202950820327" lon="9.08670329488814">
<ele>486</ele>
<time>2024-05-10T10:40:46Z</time>
</trkpt>
<trkpt lat="49.59207150153816" lon="9.08666322939098">
<ele>485.8</ele>
<time>2024-05-10T10:40:47Z</time>
</trkpt>
<trkpt lat="49.59210963919759" lon="9.086627941578628">
<ele>485.8</ele>
<time>2024-05-10T10:40:48Z</time>
</trkpt>
<trkpt lat="49.59218977019191" lon="9.086569771170616">
<ele>485.8</ele>
<time>2024-05-10T10:40:50Z</time>
</trkpt>
<trkpt lat="49.59222405217588" lon="9.086548732593656">
<ele>485.8</ele>
<time>2024-05-10T10:40:51Z</time>
</trkpt>
<trkpt lat="49.59225841797888" lon="9.08652207814157">
<ele>485.8</ele>
<time>2024-05-10T10:40:52Z</time>
</trkpt>
<trkpt lat="49.59229655563831" lon="9.086495339870453">
<ele>485.8</ele>
<time>2024-05-10T10:40:53Z</time>
</trkpt>
<trkpt lat="49.59236905910075" lon="9.086444796994328">
<ele>485.8</ele>
<time>2024-05-10T10:40:55Z</time>
</trkpt>
<trkpt lat="49.59240719676018" lon="9.08641998656094">
<ele>485.8</ele>
<time>2024-05-10T10:40:56Z</time>
</trkpt>
<trkpt lat="49.592452961951494" lon="9.086393332108855">
<ele>485.8</ele>
<time>2024-05-10T10:40:57Z</time>
</trkpt>
<trkpt lat="49.592494955286384" lon="9.086364666000009">
<ele>485.8</ele>
<time>2024-05-10T10:40:58Z</time>
</trkpt>
<trkpt lat="49.59258648566902" lon="9.086315128952265">
<ele>485.8</ele>
<time>2024-05-10T10:41:00Z</time>
</trkpt>
<trkpt lat="49.59263225086033" lon="9.086288390681148">
<ele>485.8</ele>
<time>2024-05-10T10:41:01Z</time>
</trkpt>
<trkpt lat="49.59267801605165" lon="9.08626458607614">
<ele>485.8</ele>
<time>2024-05-10T10:41:02Z</time>
</trkpt>
<trkpt lat="49.59272000938654" lon="9.08624455332756">
<ele>485.8</ele>
<time>2024-05-10T10:41:03Z</time>
</trkpt>
<trkpt lat="49.592807767912745" lon="9.086203565821052">
<ele>485.8</ele>
<time>2024-05-10T10:41:05Z</time>
</trkpt>
<trkpt lat="49.592845905572176" lon="9.086179677397013">
<ele>485.8</ele>
<time>2024-05-10T10:41:06Z</time>
</trkpt>
<trkpt lat="49.592887815088034" lon="9.086159644648433">
<ele>485.8</ele>
<time>2024-05-10T10:41:07Z</time>
</trkpt>
<trkpt lat="49.59292980842292" lon="9.086141539737582">
<ele>485.8</ele>
<time>2024-05-10T10:41:08Z</time>
</trkpt>
<trkpt lat="49.59302133880555" lon="9.086098624393344">
<ele>485.8</ele>
<time>2024-05-10T10:41:10Z</time>
</trkpt>
<trkpt lat="49.593063332140446" lon="9.086076663807034">
<ele>485.8</ele>
<time>2024-05-10T10:41:11Z</time>
</trkpt>
<trkpt lat="49.59310909733176" lon="9.086063336580992">
<ele>485.8</ele>
<time>2024-05-10T10:41:12Z</time>
</trkpt>
<trkpt lat="49.59315486252308" lon="9.086059564724565">
<ele>485.6</ele>
<time>2024-05-10T10:41:14Z</time>
</trkpt>
<trkpt lat="49.59324639290571" lon="9.086079597473145">
<ele>485.6</ele>
<time>2024-05-10T10:41:15Z</time>
</trkpt>
<trkpt lat="49.59329601377249" lon="9.086092924699187">
<ele>485.6</ele>
<time>2024-05-10T10:41:16Z</time>
</trkpt>
<trkpt lat="49.59334177896381" lon="9.086098624393344">
<ele>485.4</ele>
<time>2024-05-10T10:41:17Z</time>
</trkpt>
<trkpt lat="49.59338754415512" lon="9.086096696555614">
<ele>485.4</ele>
<time>2024-05-10T10:41:18Z</time>
</trkpt>
<trkpt lat="49.59348678588867" lon="9.08608814701438">
<ele>485.2</ele>
<time>2024-05-10T10:41:20Z</time>
</trkpt>
<trkpt lat="49.593540178611875" lon="9.086079597473145">
<ele>485.2</ele>
<time>2024-05-10T10:41:21Z</time>
</trkpt>
<trkpt lat="49.59359357133508" lon="9.0860681142658">
<ele>485.2</ele>
<time>2024-05-10T10:41:22Z</time>
</trkpt>
<trkpt lat="49.59364310838282" lon="9.086052859202027">
<ele>485</ele>
<time>2024-05-10T10:41:23Z</time>
</trkpt>
<trkpt lat="49.59374235011637" lon="9.086011871695518">
<ele>485</ele>
<time>2024-05-10T10:41:25Z</time>
</trkpt>
<trkpt lat="49.59378811530769" lon="9.085994688794017">
<ele>485</ele>
<time>2024-05-10T10:41:26Z</time>
</trkpt>
<trkpt lat="49.59382625296712" lon="9.085978427901864">
<ele>485</ele>
<time>2024-05-10T10:41:27Z</time>
</trkpt>
<trkpt lat="49.59387201815843" lon="9.085953701287508">
<ele>484.8</ele>
<time>2024-05-10T10:41:28Z</time>
</trkpt>
<trkpt lat="49.59395214915275" lon="9.085914557799695">
<ele>485</ele>
<time>2024-05-10T10:41:30Z</time>
</trkpt>
<trkpt lat="49.59398643113673" lon="9.08589167520404">
<ele>485</ele>
<time>2024-05-10T10:41:31Z</time>
</trkpt>
<trkpt lat="49.59402842447162" lon="9.085867870599031">
<ele>485</ele>
<time>2024-05-10T10:41:32Z</time>
</trkpt>
<trkpt lat="49.59406279027462" lon="9.08584683202207">
<ele>485.2</ele>
<time>2024-05-10T10:41:33Z</time>
</trkpt>
<trkpt lat="49.59412381052971" lon="9.085826799273493">
<ele>485.2</ele>
<time>2024-05-10T10:41:35Z</time>
</trkpt>
<trkpt lat="49.59415432065725" lon="9.08581154420972">
<ele>485.4</ele>
<time>2024-05-10T10:41:36Z</time>
</trkpt>
<trkpt lat="49.5941848307848" lon="9.085802994668484">
<ele>485.4</ele>
<time>2024-05-10T10:41:37Z</time>
</trkpt>
<trkpt lat="49.5942191965878" lon="9.085782039910557">
<ele>485.6</ele>
<time>2024-05-10T10:41:38Z</time>
</trkpt>
<trkpt lat="49.5942916162312" lon="9.085738118737936">
<ele>485.8</ele>
<time>2024-05-10T10:41:40Z</time>
</trkpt>
<trkpt lat="49.59432212635875" lon="9.085724791511891">
<ele>486</ele>
<time>2024-05-10T10:41:41Z</time>
</trkpt>
<trkpt lat="49.59435649216175" lon="9.08570953644812">
<ele>486.2</ele>
<time>2024-05-10T10:41:42Z</time>
</trkpt>
<trkpt lat="49.594390857964754" lon="9.08568950369954">
<ele>486.4</ele>
<time>2024-05-10T10:41:43Z</time>
</trkpt>
<trkpt lat="49.59446327760816" lon="9.085644660517572">
<ele>486.8</ele>
<time>2024-05-10T10:41:45Z</time>
</trkpt>
<trkpt lat="49.59450141526759" lon="9.085630411282182">
<ele>487</ele>
<time>2024-05-10T10:41:46Z</time>
</trkpt>
<trkpt lat="49.59454340860248" lon="9.085610378533602">
<ele>487.4</ele>
<time>2024-05-10T10:41:47Z</time>
</trkpt>
<trkpt lat="49.594585401937366" lon="9.08559126779437">
<ele>487.6</ele>
<time>2024-05-10T10:41:48Z</time>
</trkpt>
<trkpt lat="49.59466930478811" lon="9.085550280287862">
<ele>487.8</ele>
<time>2024-05-10T10:41:50Z</time>
</trkpt>
<trkpt lat="49.59471506997943" lon="9.085523542016745">
<ele>488.2</ele>
<time>2024-05-10T10:41:51Z</time>
</trkpt>
<trkpt lat="49.594760835170746" lon="9.085501665249469">
<ele>488.4</ele>
<time>2024-05-10T10:41:52Z</time>
</trkpt>
<trkpt lat="49.594798972830176" lon="9.085490182042122">
<ele>488.6</ele>
<time>2024-05-10T10:41:53Z</time>
</trkpt>
<trkpt lat="49.59487533196807" lon="9.085439639165998">
<ele>489</ele>
<time>2024-05-10T10:41:55Z</time>
</trkpt>
<trkpt lat="49.5949134696275" lon="9.08541675657034">
<ele>489.2</ele>
<time>2024-05-10T10:41:56Z</time>
</trkpt>
<trkpt lat="49.59495160728693" lon="9.085398651659489">
<ele>489.4</ele>
<time>2024-05-10T10:41:57Z</time>
</trkpt>
<trkpt lat="49.5949858892709" lon="9.085372919216752">
<ele>489.8</ele>
<time>2024-05-10T10:41:58Z</time>
</trkpt>
<trkpt lat="49.59505462087691" lon="9.085330003872514">
<ele>490</ele>
<time>2024-05-10T10:42:00Z</time>
</trkpt>
<trkpt lat="49.595081275328994" lon="9.08531374298036">
<ele>490.2</ele>
<time>2024-05-10T10:42:01Z</time>
</trkpt>
<trkpt lat="49.595115641132" lon="9.08529656007886">
<ele>490.2</ele>
<time>2024-05-10T10:42:02Z</time>
</trkpt>
<trkpt lat="49.59514615125954" lon="9.085278455168009">
<ele>490.4</ele>
<time>2024-05-10T10:42:03Z</time>
</trkpt>
<trkpt lat="49.595218654721975" lon="9.085238389670849">
<ele>490.4</ele>
<time>2024-05-10T10:42:05Z</time>
</trkpt>
<trkpt lat="49.595256792381406" lon="9.085218356922269">
<ele>490.4</ele>
<time>2024-05-10T10:42:06Z</time>
</trkpt>
<trkpt lat="49.59529493004083" lon="9.085205029696226">
<ele>490.6</ele>
<time>2024-05-10T10:42:07Z</time>
</trkpt>
<trkpt lat="49.59533306770027" lon="9.085184996947646">
<ele>490.6</ele>
<time>2024-05-10T10:42:08Z</time>
</trkpt>
<trkpt lat="49.59540171548724" lon="9.085143087431788">
<ele>490.6</ele>
<time>2024-05-10T10:42:10Z</time>
</trkpt>
<trkpt lat="49.5954589638859" lon="9.085123054683208">
<ele>490.6</ele>
<time>2024-05-10T10:42:12Z</time>
</trkpt>
<trkpt lat="49.59548947401345" lon="9.085108721628783">
<ele>490.6</ele>
<time>2024-05-10T10:42:13Z</time>
</trkpt>
<trkpt lat="49.59555049426854" lon="9.085068656131623">
<ele>490.6</ele>
<time>2024-05-10T10:42:15Z</time>
</trkpt>
<trkpt lat="49.59558486007154" lon="9.085036218166351">
<ele>490.8</ele>
<time>2024-05-10T10:42:16Z</time>
</trkpt>
<trkpt lat="49.59562299773097" lon="9.085016185417771">
<ele>490.8</ele>
<time>2024-05-10T10:42:17Z</time>
</trkpt>
<trkpt lat="49.59565727971494" lon="9.085002858191729">
<ele>490.8</ele>
<time>2024-05-10T10:42:18Z</time>
</trkpt>
<trkpt lat="49.595733638852835" lon="9.084989530965686">
<ele>490.8</ele>
<time>2024-05-10T10:42:20Z</time>
</trkpt>
<trkpt lat="49.59582516923547" lon="9.084953237324951">
<ele>491</ele>
<time>2024-05-10T10:42:22Z</time>
</trkpt>
<trkpt lat="49.5958633068949" lon="9.084928510710595">
<ele>491</ele>
<time>2024-05-10T10:42:23Z</time>
</trkpt>
<trkpt lat="49.595951065421104" lon="9.084873190149665">
<ele>491</ele>
<time>2024-05-10T10:42:25Z</time>
</trkpt>
<trkpt lat="49.59600060246885" lon="9.084855001419784">
<ele>491</ele>
<time>2024-05-10T10:42:26Z</time>
</trkpt>
<trkpt lat="49.59604259580374" lon="9.084836896508932">
<ele>490.8</ele>
<time>2024-05-10T10:42:27Z</time>
</trkpt>
<trkpt lat="49.59609221667051" lon="9.084811164066195">
<ele>490.8</ele>
<time>2024-05-10T10:42:28Z</time>
</trkpt>
<trkpt lat="49.596187518909574" lon="9.084739666432142">
<ele>490.8</ele>
<time>2024-05-10T10:42:30Z</time>
</trkpt>
<trkpt lat="49.59623713977635" lon="9.08470530062914">
<ele>490.8</ele>
<time>2024-05-10T10:42:31Z</time>
</trkpt>
<trkpt lat="49.596282904967666" lon="9.084674790501596">
<ele>490.8</ele>
<time>2024-05-10T10:42:32Z</time>
</trkpt>
<trkpt lat="49.59634015336633" lon="9.084648052230476">
<ele>490.8</ele>
<time>2024-05-10T10:42:33Z</time>
</trkpt>
<trkpt lat="49.596443166956306" lon="9.084596587345004">
<ele>490.8</ele>
<time>2024-05-10T10:42:35Z</time>
</trkpt>
<trkpt lat="49.59648893214762" lon="9.084573704749346">
<ele>490.8</ele>
<time>2024-05-10T10:42:36Z</time>
</trkpt>
<trkpt lat="49.596538469195366" lon="9.08454990014434">
<ele>490.8</ele>
<time>2024-05-10T10:42:37Z</time>
</trkpt>
<trkpt lat="49.59657669067383" lon="9.084534645080566">
<ele>490.8</ele>
<time>2024-05-10T10:42:38Z</time>
</trkpt>
<trkpt lat="49.596664365381" lon="9.084481168538332">
<ele>490.8</ele>
<time>2024-05-10T10:42:40Z</time>
</trkpt>
<trkpt lat="49.59671013057232" lon="9.084456441923976">
<ele>490.8</ele>
<time>2024-05-10T10:42:41Z</time>
</trkpt>
<trkpt lat="49.59675212390721" lon="9.084431631490588">
<ele>490.6</ele>
<time>2024-05-10T10:42:42Z</time>
</trkpt>
<trkpt lat="49.59680551663041" lon="9.084402043372393">
<ele>490.6</ele>
<time>2024-05-10T10:42:44Z</time>
</trkpt>
<trkpt lat="49.59690467454493" lon="9.084342950955032">
<ele>490.4</ele>
<time>2024-05-10T10:42:45Z</time>
</trkpt>
<trkpt lat="49.59695052355528" lon="9.084313362836838">
<ele>490.4</ele>
<time>2024-05-10T10:42:46Z</time>
</trkpt>
<trkpt lat="49.596996288746595" lon="9.084282852709292">
<ele>490.2</ele>
<time>2024-05-10T10:42:47Z</time>
</trkpt>
<trkpt lat="49.59703819826245" lon="9.084257120266557">
<ele>490.2</ele>
<time>2024-05-10T10:42:48Z</time>
</trkpt>
<trkpt lat="49.59712218493223" lon="9.084217054769397">
<ele>490</ele>
<time>2024-05-10T10:42:50Z</time>
</trkpt>
<trkpt lat="49.59716409444809" lon="9.084199871867895">
<ele>489.8</ele>
<time>2024-05-10T10:42:51Z</time>
</trkpt>
<trkpt lat="49.597251852974296" lon="9.084153100848198">
<ele>489.6</ele>
<time>2024-05-10T10:42:53Z</time>
</trkpt>
<trkpt lat="49.59734338335693" lon="9.084099708124995">
<ele>489.6</ele>
<time>2024-05-10T10:42:55Z</time>
</trkpt>
<trkpt lat="49.59738537669182" lon="9.084078753367066">
<ele>489.4</ele>
<time>2024-05-10T10:42:56Z</time>
</trkpt>
<trkpt lat="49.59742728620768" lon="9.084054864943027">
<ele>489.4</ele>
<time>2024-05-10T10:42:57Z</time>
</trkpt>
<trkpt lat="49.597469279542565" lon="9.084026282653213">
<ele>489.2</ele>
<time>2024-05-10T10:42:58Z</time>
</trkpt>
<trkpt lat="49.597541783005" lon="9.08399200066924">
<ele>489.2</ele>
<time>2024-05-10T10:43:00Z</time>
</trkpt>
<trkpt lat="49.597572293132544" lon="9.083983367308974">
<ele>489.2</ele>
<time>2024-05-10T10:43:01Z</time>
</trkpt>
<trkpt lat="49.59764479659498" lon="9.083963334560394">
<ele>489.2</ele>
<time>2024-05-10T10:43:03Z</time>
</trkpt>
<trkpt lat="49.59772107191384" lon="9.083939529955387">
<ele>489.2</ele>
<time>2024-05-10T10:43:05Z</time>
</trkpt>
<trkpt lat="49.59780120290816" lon="9.083908013999462">
<ele>489.4</ele>
<time>2024-05-10T10:43:07Z</time>
</trkpt>
<trkpt lat="49.597843112424016" lon="9.083876581862569">
<ele>489.4</ele>
<time>2024-05-10T10:43:08Z</time>
</trkpt>
<trkpt lat="49.59792701527476" lon="9.083826960995792">
<ele>489.6</ele>
<time>2024-05-10T10:43:10Z</time>
</trkpt>
<trkpt lat="49.59797286428511" lon="9.083800306543708">
<ele>489.8</ele>
<time>2024-05-10T10:43:11Z</time>
</trkpt>
<trkpt lat="49.598022401332855" lon="9.08377164043486">
<ele>490</ele>
<time>2024-05-10T10:43:12Z</time>
</trkpt>
<trkpt lat="49.59807202219963" lon="9.083738280460238">
<ele>490.2</ele>
<time>2024-05-10T10:43:13Z</time>
</trkpt>
<trkpt lat="49.59816740825772" lon="9.083698214963078">
<ele>490.4</ele>
<time>2024-05-10T10:43:15Z</time>
</trkpt>
<trkpt lat="49.59821317344904" lon="9.0836781822145">
<ele>490.6</ele>
<time>2024-05-10T10:43:16Z</time>
</trkpt>
<trkpt lat="49.59825131110847" lon="9.08365814946592">
<ele>490.8</ele>
<time>2024-05-10T10:43:17Z</time>
</trkpt>
<trkpt lat="49.59830470383167" lon="9.083631495013831">
<ele>491.2</ele>
<time>2024-05-10T10:43:18Z</time>
</trkpt>
<trkpt lat="49.59838483482599" lon="9.083588579669597">
<ele>491.4</ele>
<time>2024-05-10T10:43:20Z</time>
</trkpt>
<trkpt lat="49.59842674434185" lon="9.083559913560748">
<ele>491.6</ele>
<time>2024-05-10T10:43:21Z</time>
</trkpt>
<trkpt lat="49.5984725933522" lon="9.08353703096509">
<ele>491.8</ele>
<time>2024-05-10T10:43:22Z</time>
</trkpt>
<trkpt lat="49.59851073101163" lon="9.083513226360084">
<ele>491.8</ele>
<time>2024-05-10T10:43:23Z</time>
</trkpt>
<trkpt lat="49.59858700633049" lon="9.083448350429537">
<ele>492</ele>
<time>2024-05-10T10:43:25Z</time>
</trkpt>
<trkpt lat="49.59862514398992" lon="9.083431167528031">
<ele>492</ele>
<time>2024-05-10T10:43:26Z</time>
</trkpt>
<trkpt lat="49.59866328164935" lon="9.083414990454912">
<ele>492.2</ele>
<time>2024-05-10T10:43:27Z</time>
</trkpt>
<trkpt lat="49.59870141930878" lon="9.083396885544062">
<ele>492.2</ele>
<time>2024-05-10T10:43:28Z</time>
</trkpt>
<trkpt lat="49.598796805366874" lon="9.083368219435217">
<ele>492.2</ele>
<time>2024-05-10T10:43:30Z</time>
</trkpt>
<trkpt lat="49.59883879870176" lon="9.08334349282086">
<ele>492.4</ele>
<time>2024-05-10T10:43:31Z</time>
</trkpt>
<trkpt lat="49.59888070821762" lon="9.08331960439682">
<ele>492.4</ele>
<time>2024-05-10T10:43:32Z</time>
</trkpt>
<trkpt lat="49.598934100940824" lon="9.083290100097656">
<ele>492.6</ele>
<time>2024-05-10T10:43:34Z</time>
</trkpt>
<trkpt lat="49.59902571514249" lon="9.083232851698996">
<ele>492.8</ele>
<time>2024-05-10T10:43:35Z</time>
</trkpt>
<trkpt lat="49.59909813478589" lon="9.083216590806842">
<ele>492.8</ele>
<time>2024-05-10T10:43:37Z</time>
</trkpt>
<trkpt lat="49.59914012812078" lon="9.08320133574307">
<ele>493</ele>
<time>2024-05-10T10:43:39Z</time>
</trkpt>
<trkpt lat="49.599212631583214" lon="9.083169903606176">
<ele>493</ele>
<time>2024-05-10T10:43:40Z</time>
</trkpt>
<trkpt lat="49.59925076924264" lon="9.08314031548798">
<ele>493.2</ele>
<time>2024-05-10T10:43:41Z</time>
</trkpt>
<trkpt lat="49.599288906902075" lon="9.083127910271289">
<ele>493.4</ele>
<time>2024-05-10T10:43:42Z</time>
</trkpt>
<trkpt lat="49.599327044561505" lon="9.083111733198166">
<ele>493.6</ele>
<time>2024-05-10T10:43:43Z</time>
</trkpt>
<trkpt lat="49.59941094741225" lon="9.083063118159773">
<ele>493.8</ele>
<time>2024-05-10T10:43:45Z</time>
</trkpt>
<trkpt lat="49.59945671260357" lon="9.083035457879305">
<ele>493.8</ele>
<time>2024-05-10T10:43:46Z</time>
</trkpt>
<trkpt lat="49.59949870593846" lon="9.083006791770458">
<ele>494</ele>
<time>2024-05-10T10:43:47Z</time>
</trkpt>
<trkpt lat="49.59954069927335" lon="9.082986759021878">
<ele>494.2</ele>
<time>2024-05-10T10:43:48Z</time>
</trkpt>
<trkpt lat="49.59962074644864" lon="9.082935294136403">
<ele>494.2</ele>
<time>2024-05-10T10:43:50Z</time>
</trkpt>
<trkpt lat="49.599666595458984" lon="9.082913333550096">
<ele>494.4</ele>
<time>2024-05-10T10:43:51Z</time>
</trkpt>
<trkpt lat="49.59970087744296" lon="9.082895228639243">
<ele>494.4</ele>
<time>2024-05-10T10:43:52Z</time>
</trkpt>
<trkpt lat="49.59973901510239" lon="9.082876201719046">
<ele>494.4</ele>
<time>2024-05-10T10:43:53Z</time>
</trkpt>
<trkpt lat="49.59981151856482" lon="9.082830352708696">
<ele>494.4</ele>
<time>2024-05-10T10:43:55Z</time>
</trkpt>
<trkpt lat="49.599842028692365" lon="9.082811325788498">
<ele>494.4</ele>
<time>2024-05-10T10:43:56Z</time>
</trkpt>
<trkpt lat="49.59987639449537" lon="9.082803698256612">
<ele>494.4</ele>
<time>2024-05-10T10:43:57Z</time>
</trkpt>
<trkpt lat="49.59990690462291" lon="9.082783665508032">
<ele>494.6</ele>
<time>2024-05-10T10:43:58Z</time>
</trkpt>
<trkpt lat="49.59994504228234" lon="9.08276648260653">
<ele>494.6</ele>
<time>2024-05-10T10:44:00Z</time>
</trkpt>
<trkpt lat="49.60002894513309" lon="9.08270638436079">
<ele>494.8</ele>
<time>2024-05-10T10:44:01Z</time>
</trkpt>
<trkpt lat="49.60010522045195" lon="9.08266539685428">
<ele>495</ele>
<time>2024-05-10T10:44:03Z</time>
</trkpt>
<trkpt lat="49.60018920712173" lon="9.082632958889008">
<ele>495.2</ele>
<time>2024-05-10T10:44:05Z</time>
</trkpt>
<trkpt lat="49.60022734478116" lon="9.0826281812042">
<ele>495.6</ele>
<time>2024-05-10T10:44:06Z</time>
</trkpt>
<trkpt lat="49.60026162676513" lon="9.082619631662965">
<ele>495.8</ele>
<time>2024-05-10T10:44:07Z</time>
</trkpt>
<trkpt lat="49.600295992568135" lon="9.082599598914385">
<ele>496</ele>
<time>2024-05-10T10:44:08Z</time>
</trkpt>
<trkpt lat="49.6003532409668" lon="9.082568166777492">
<ele>496</ele>
<time>2024-05-10T10:44:10Z</time>
</trkpt>
<trkpt lat="49.60038375109434" lon="9.082538578659296">
<ele>496.2</ele>
<time>2024-05-10T10:44:11Z</time>
</trkpt>
<trkpt lat="49.60041803307831" lon="9.082513768225908">
<ele>496.4</ele>
<time>2024-05-10T10:44:12Z</time>
</trkpt>
<trkpt lat="49.60045617073774" lon="9.0824899636209">
<ele>496.4</ele>
<time>2024-05-10T10:44:13Z</time>
</trkpt>
<trkpt lat="49.60054778493941" lon="9.08244989812374">
<ele>496.6</ele>
<time>2024-05-10T10:44:15Z</time>
</trkpt>
<trkpt lat="49.600589694455266" lon="9.082434643059967">
<ele>496.6</ele>
<time>2024-05-10T10:44:16Z</time>
</trkpt>
<trkpt lat="49.600631687790155" lon="9.08240983262658">
<ele>496.6</ele>
<time>2024-05-10T10:44:17Z</time>
</trkpt>
<trkpt lat="49.600669825449586" lon="9.082389799878">
<ele>496.8</ele>
<time>2024-05-10T10:44:18Z</time>
</trkpt>
<trkpt lat="49.60075758397579" lon="9.08233355730772">
<ele>496.8</ele>
<time>2024-05-10T10:44:20Z</time>
</trkpt>
<trkpt lat="49.60079572163522" lon="9.08231637440622">
<ele>497</ele>
<time>2024-05-10T10:44:21Z</time>
</trkpt>
<trkpt lat="49.600830003619194" lon="9.08229349181056">
<ele>497</ele>
<time>2024-05-10T10:44:22Z</time>
</trkpt>
<trkpt lat="49.6008643694222" lon="9.082280080765486">
<ele>497.2</ele>
<time>2024-05-10T10:44:23Z</time>
</trkpt>
<trkpt lat="49.600929245352745" lon="9.082244792953134">
<ele>497.2</ele>
<time>2024-05-10T10:44:25Z</time>
</trkpt>
<trkpt lat="49.600967383012176" lon="9.08221621066332">
<ele>497.2</ele>
<time>2024-05-10T10:44:26Z</time>
</trkpt>
<trkpt lat="49.601005520671606" lon="9.08219140022993">
<ele>497.4</ele>
<time>2024-05-10T10:44:27Z</time>
</trkpt>
<trkpt lat="49.60103988647461" lon="9.082171367481353">
<ele>497.4</ele>
<time>2024-05-10T10:44:29Z</time>
</trkpt>
<trkpt lat="49.601104678586125" lon="9.082119902595878">
<ele>497.4</ele>
<time>2024-05-10T10:44:30Z</time>
</trkpt>
<trkpt lat="49.60113518871367" lon="9.082104647532104">
<ele>497.4</ele>
<time>2024-05-10T10:44:31Z</time>
</trkpt>
<trkpt lat="49.60116955451667" lon="9.082091320306064">
<ele>497.4</ele>
<time>2024-05-10T10:44:32Z</time>
</trkpt>
<trkpt lat="49.601207692176104" lon="9.08207505941391">
<ele>497.4</ele>
<time>2024-05-10T10:44:33Z</time>
</trkpt>
<trkpt lat="49.60128019563854" lon="9.082039771601558">
<ele>497.4</ele>
<time>2024-05-10T10:44:35Z</time>
</trkpt>
<trkpt lat="49.60130307823419" lon="9.082026444375517">
<ele>497.6</ele>
<time>2024-05-10T10:44:36Z</time>
</trkpt>
<trkpt lat="49.60133358836174" lon="9.082010267302394">
<ele>497.6</ele>
<time>2024-05-10T10:44:37Z</time>
</trkpt>
<trkpt lat="49.601364098489285" lon="9.082006411626937">
<ele>497.8</ele>
<time>2024-05-10T10:44:39Z</time>
</trkpt>
<trkpt lat="49.60142511874437" lon="9.081983529031277">
<ele>497.8</ele>
<time>2024-05-10T10:44:40Z</time>
</trkpt>
<trkpt lat="49.60145562887192" lon="9.081965424120426">
<ele>498</ele>
<time>2024-05-10T10:44:41Z</time>
</trkpt>
<trkpt lat="49.60148999467492" lon="9.081950169056654">
<ele>498</ele>
<time>2024-05-10T10:44:42Z</time>
</trkpt>
<trkpt lat="49.60152427665889" lon="9.081930136308074">
<ele>498</ele>
<time>2024-05-10T10:44:43Z</time>
</trkpt>
<trkpt lat="49.6015930082649" lon="9.081886215135455">
<ele>498.2</ele>
<time>2024-05-10T10:44:45Z</time>
</trkpt>
<trkpt lat="49.60166928358376" lon="9.081825194880366">
<ele>498.2</ele>
<time>2024-05-10T10:44:47Z</time>
</trkpt>
<trkpt lat="49.60171119309962" lon="9.081794684752822">
<ele>498.2</ele>
<time>2024-05-10T10:44:48Z</time>
</trkpt>
<trkpt lat="49.6017951797694" lon="9.081734586507082">
<ele>498.2</ele>
<time>2024-05-10T10:44:50Z</time>
</trkpt>
<trkpt lat="49.60183331742883" lon="9.081706926226616">
<ele>498.2</ele>
<time>2024-05-10T10:44:51Z</time>
</trkpt>
<trkpt lat="49.601875226944685" lon="9.081676416099072">
<ele>498.2</ele>
<time>2024-05-10T10:44:52Z</time>
</trkpt>
<trkpt lat="49.60191344842315" lon="9.081643056124449">
<ele>498.2</ele>
<time>2024-05-10T10:44:53Z</time>
</trkpt>
<trkpt lat="49.60195158608258" lon="9.081611623987556">
<ele>498.2</ele>
<time>2024-05-10T10:44:55Z</time>
</trkpt>
<trkpt lat="49.602035488933325" lon="9.081535264849665">
<ele>498.4</ele>
<time>2024-05-10T10:44:56Z</time>
</trkpt>
<trkpt lat="49.602073626592755" lon="9.081498133018613">
<ele>498.4</ele>
<time>2024-05-10T10:44:57Z</time>
</trkpt>
<trkpt lat="49.602111764252186" lon="9.081466617062688">
<ele>498.6</ele>
<time>2024-05-10T10:44:58Z</time>
</trkpt>
<trkpt lat="49.60218803957105" lon="9.081401824951172">
<ele>498.8</ele>
<time>2024-05-10T10:45:00Z</time>
</trkpt>
<trkpt lat="49.60222617723048" lon="9.081373158842323">
<ele>498.8</ele>
<time>2024-05-10T10:45:01Z</time>
</trkpt>
<trkpt lat="49.60226439870894" lon="9.08134357072413">
<ele>499</ele>
<time>2024-05-10T10:45:02Z</time>
</trkpt>
<trkpt lat="49.60230253636837" lon="9.081313060596583">
<ele>499</ele>
<time>2024-05-10T10:45:03Z</time>
</trkpt>
<trkpt lat="49.60237881168723" lon="9.081258745864034">
<ele>499.2</ele>
<time>2024-05-10T10:45:05Z</time>
</trkpt>
<trkpt lat="49.602413177490234" lon="9.081233013421295">
<ele>499.2</ele>
<time>2024-05-10T10:45:06Z</time>
</trkpt>
<trkpt lat="49.60245508700609" lon="9.081205353140833">
<ele>499.2</ele>
<time>2024-05-10T10:45:07Z</time>
</trkpt>
<trkpt lat="49.60249322466552" lon="9.081176687031984">
<ele>499.4</ele>
<time>2024-05-10T10:45:08Z</time>
</trkpt>
<trkpt lat="49.60257335565984" lon="9.081112816929815">
<ele>499.4</ele>
<time>2024-05-10T10:45:10Z</time>
</trkpt>
<trkpt lat="49.60261149331927" lon="9.081081384792924">
<ele>499.4</ele>
<time>2024-05-10T10:45:11Z</time>
</trkpt>
<trkpt lat="49.6026496309787" lon="9.081054646521808">
<ele>499.4</ele>
<time>2024-05-10T10:45:12Z</time>
</trkpt>
<trkpt lat="49.60268399678171" lon="9.08102790825069">
<ele>499.4</ele>
<time>2024-05-10T10:45:13Z</time>
</trkpt>
<trkpt lat="49.60274878889322" lon="9.080974515527489">
<ele>499.4</ele>
<time>2024-05-10T10:45:15Z</time>
</trkpt>
<trkpt lat="49.60277552716434" lon="9.080958338454366">
<ele>499.2</ele>
<time>2024-05-10T10:45:16Z</time>
</trkpt>
<trkpt lat="49.60284040309489" lon="9.080913495272398">
<ele>499.2</ele>
<time>2024-05-10T10:45:18Z</time>
</trkpt>
<trkpt lat="49.60290142334998" lon="9.080873429775238">
<ele>499</ele>
<time>2024-05-10T10:45:20Z</time>
</trkpt>
<trkpt lat="49.60293193347752" lon="9.080855324864388">
<ele>499</ele>
<time>2024-05-10T10:45:21Z</time>
</trkpt>
<trkpt lat="49.60296629928053" lon="9.080835292115808">
<ele>498.8</ele>
<time>2024-05-10T10:45:22Z</time>
</trkpt>
<trkpt lat="49.60299295373261" lon="9.080804781988263">
<ele>498.8</ele>
<time>2024-05-10T10:45:23Z</time>
</trkpt>
<trkpt lat="49.60306922905147" lon="9.08075331710279">
<ele>498.6</ele>
<time>2024-05-10T10:45:25Z</time>
</trkpt>
<trkpt lat="49.60310745052993" lon="9.080726578831673">
<ele>498.6</ele>
<time>2024-05-10T10:45:26Z</time>
</trkpt>
<trkpt lat="49.60314936004579" lon="9.080699840560555">
<ele>498.6</ele>
<time>2024-05-10T10:45:27Z</time>
</trkpt>
<trkpt lat="49.60318749770522" lon="9.08067318610847">
<ele>498.8</ele>
<time>2024-05-10T10:45:29Z</time>
</trkpt>
<trkpt lat="49.60326377302408" lon="9.080601688474417">
<ele>498.8</ele>
<time>2024-05-10T10:45:30Z</time>
</trkpt>
<trkpt lat="49.60330576635897" lon="9.080568244680762">
<ele>498.8</ele>
<time>2024-05-10T10:45:31Z</time>
</trkpt>
<trkpt lat="49.6033439040184" lon="9.080541590228677">
<ele>498.8</ele>
<time>2024-05-10T10:45:32Z</time>
</trkpt>
<trkpt lat="49.60338589735329" lon="9.080506302416325">
<ele>499</ele>
<time>2024-05-10T10:45:33Z</time>
</trkpt>
<trkpt lat="49.60346602834761" lon="9.080432876944542">
<ele>499</ele>
<time>2024-05-10T10:45:35Z</time>
</trkpt>
<trkpt lat="49.60353082045913" lon="9.08037370070815">
<ele>499</ele>
<time>2024-05-10T10:45:37Z</time>
</trkpt>
<trkpt lat="49.60356518626213" lon="9.080343190580606">
<ele>499</ele>
<time>2024-05-10T10:45:38Z</time>
</trkpt>
<trkpt lat="49.60364146158099" lon="9.080283092334868">
<ele>499</ele>
<time>2024-05-10T10:45:40Z</time>
</trkpt>
<trkpt lat="49.603675827383995" lon="9.080254510045052">
<ele>499.2</ele>
<time>2024-05-10T10:45:41Z</time>
</trkpt>
<trkpt lat="49.60371010936797" lon="9.080223077908158">
<ele>499.2</ele>
<time>2024-05-10T10:45:42Z</time>
</trkpt>
<trkpt lat="49.60374447517097" lon="9.080195417627692">
<ele>499.2</ele>
<time>2024-05-10T10:45:43Z</time>
</trkpt>
<trkpt lat="49.60382460616529" lon="9.08014009706676">
<ele>499.2</ele>
<time>2024-05-10T10:45:45Z</time>
</trkpt>
<trkpt lat="49.60386651568115" lon="9.080108581110837">
<ele>499.2</ele>
<time>2024-05-10T10:45:46Z</time>
</trkpt>
<trkpt lat="49.603912280872464" lon="9.080073293298485">
<ele>499.2</ele>
<time>2024-05-10T10:45:47Z</time>
</trkpt>
<trkpt lat="49.603954274207354" lon="9.08003993332386">
<ele>499.2</ele>
<time>2024-05-10T10:45:48Z</time>
</trkpt>
<trkpt lat="49.60403440520167" lon="9.079975057393312">
<ele>499.4</ele>
<time>2024-05-10T10:45:50Z</time>
</trkpt>
<trkpt lat="49.60407631471753" lon="9.079946475103498">
<ele>499.4</ele>
<time>2024-05-10T10:45:51Z</time>
</trkpt>
<trkpt lat="49.604110680520535" lon="9.079917892813684">
<ele>499.4</ele>
<time>2024-05-10T10:45:52Z</time>
</trkpt>
<trkpt lat="49.604148818179965" lon="9.079890232533216">
<ele>499.4</ele>
<time>2024-05-10T10:45:53Z</time>
</trkpt>
<trkpt lat="49.604225093498826" lon="9.07984153367579">
<ele>499.4</ele>
<time>2024-05-10T10:45:55Z</time>
</trkpt>
<trkpt lat="49.60425560362637" lon="9.079819656908512">
<ele>499.4</ele>
<time>2024-05-10T10:45:56Z</time>
</trkpt>
<trkpt lat="49.604289969429374" lon="9.079806245863438">
<ele>499.4</ele>
<time>2024-05-10T10:45:57Z</time>
</trkpt>
<trkpt lat="49.60432433523238" lon="9.079785291105509">
<ele>499.4</ele>
<time>2024-05-10T10:45:58Z</time>
</trkpt>
<trkpt lat="49.60439675487578" lon="9.079732820391657">
<ele>499.6</ele>
<time>2024-05-10T10:46:00Z</time>
</trkpt>
<trkpt lat="49.60443112067878" lon="9.079711865633726">
<ele>499.6</ele>
<time>2024-05-10T10:46:01Z</time>
</trkpt>
<trkpt lat="49.604465402662754" lon="9.079691832885146">
<ele>499.8</ele>
<time>2024-05-10T10:46:02Z</time>
</trkpt>
<trkpt lat="49.604503624141216" lon="9.079667022451758">
<ele>499.8</ele>
<time>2024-05-10T10:46:03Z</time>
</trkpt>
<trkpt lat="49.60457989946008" lon="9.07960700802505">
<ele>500</ele>
<time>2024-05-10T10:46:05Z</time>
</trkpt>
<trkpt lat="49.604625664651394" lon="9.079563086852431">
<ele>500</ele>
<time>2024-05-10T10:46:06Z</time>
</trkpt>
<trkpt lat="49.604663802310824" lon="9.079531654715538">
<ele>500.2</ele>
<time>2024-05-10T10:46:07Z</time>
</trkpt>
<trkpt lat="49.604705795645714" lon="9.07950684428215">
<ele>500.2</ele>
<time>2024-05-10T10:46:08Z</time>
</trkpt>
<trkpt lat="49.604785842821" lon="9.079462001100184">
<ele>500.4</ele>
<time>2024-05-10T10:46:10Z</time>
</trkpt>
<trkpt lat="49.60482783615589" lon="9.079429563134909">
<ele>500.6</ele>
<time>2024-05-10T10:46:11Z</time>
</trkpt>
<trkpt lat="49.60487360134721" lon="9.079413386061788">
<ele>500.6</ele>
<time>2024-05-10T10:46:12Z</time>
</trkpt>
<trkpt lat="49.6049155946821" lon="9.07940668053925">
<ele>500.6</ele>
<time>2024-05-10T10:46:13Z</time>
</trkpt>
<trkpt lat="49.60500712506473" lon="9.079396203160286">
<ele>500.8</ele>
<time>2024-05-10T10:46:15Z</time>
</trkpt>
<trkpt lat="49.60504911839962" lon="9.079398130998015">
<ele>500.8</ele>
<time>2024-05-10T10:46:16Z</time>
</trkpt>
<trkpt lat="49.60514064878225" lon="9.079393353313208">
<ele>500.8</ele>
<time>2024-05-10T10:46:18Z</time>
</trkpt>
<trkpt lat="49.60523980669677" lon="9.079376170411706">
<ele>501</ele>
<time>2024-05-10T10:46:20Z</time>
</trkpt>
<trkpt lat="49.605297055095434" lon="9.079364771023393">
<ele>501</ele>
<time>2024-05-10T10:46:21Z</time>
</trkpt>
<trkpt lat="49.605354303494096" lon="9.079353287816048">
<ele>501</ele>
<time>2024-05-10T10:46:22Z</time>
</trkpt>
<trkpt lat="49.60542295128107" lon="9.07934658229351">
<ele>501</ele>
<time>2024-05-10T10:46:23Z</time>
</trkpt>
<trkpt lat="49.60554499179125" lon="9.079331327229738">
<ele>501</ele>
<time>2024-05-10T10:46:25Z</time>
</trkpt>
<trkpt lat="49.60559838451445" lon="9.079331327229738">
<ele>501</ele>
<time>2024-05-10T10:46:26Z</time>
</trkpt>
<trkpt lat="49.60565563291311" lon="9.07932654954493">
<ele>501</ele>
<time>2024-05-10T10:46:27Z</time>
</trkpt>
<trkpt lat="49.605709025636315" lon="9.079319927841423">
<ele>501</ele>
<time>2024-05-10T10:46:28Z</time>
</trkpt>
<trkpt lat="49.605808183550835" lon="9.07930844463408">
<ele>501</ele>
<time>2024-05-10T10:46:30Z</time>
</trkpt>
<trkpt lat="49.60585780441761" lon="9.079301822930574">
<ele>500.8</ele>
<time>2024-05-10T10:46:31Z</time>
</trkpt>
<trkpt lat="49.605907425284386" lon="9.079297967255116">
<ele>500.8</ele>
<time>2024-05-10T10:46:32Z</time>
</trkpt>
<trkpt lat="49.6059531904757" lon="9.07929033972323">
<ele>500.8</ele>
<time>2024-05-10T10:46:33Z</time>
</trkpt>
<trkpt lat="49.606048576533794" lon="9.07927030697465">
<ele>500.8</ele>
<time>2024-05-10T10:46:35Z</time>
</trkpt>
<trkpt lat="49.60609434172511" lon="9.079266535118222">
<ele>500.8</ele>
<time>2024-05-10T10:46:36Z</time>
</trkpt>
<trkpt lat="49.60614010691643" lon="9.079266535118222">
<ele>500.6</ele>
<time>2024-05-10T10:46:37Z</time>
</trkpt>
<trkpt lat="49.6061897277832" lon="9.079263685271144">
<ele>500.6</ele>
<time>2024-05-10T10:46:38Z</time>
</trkpt>
<trkpt lat="49.60628888569772" lon="9.079256979748608">
<ele>500.6</ele>
<time>2024-05-10T10:46:40Z</time>
</trkpt>
<trkpt lat="49.606338422745466" lon="9.079253124073148">
<ele>500.6</ele>
<time>2024-05-10T10:46:41Z</time>
</trkpt>
<trkpt lat="49.606384271755815" lon="9.07924834638834">
<ele>500.6</ele>
<time>2024-05-10T10:46:42Z</time>
</trkpt>
<trkpt lat="49.60643003694713" lon="9.079237869009376">
<ele>500.4</ele>
<time>2024-05-10T10:46:43Z</time>
</trkpt>
<trkpt lat="49.60651393979788" lon="9.079219764098523">
<ele>500.4</ele>
<time>2024-05-10T10:46:45Z</time>
</trkpt>
<trkpt lat="49.606559704989195" lon="9.079217836260796">
<ele>500.4</ele>
<time>2024-05-10T10:46:46Z</time>
</trkpt>
<trkpt lat="49.60660169832408" lon="9.079223619773984">
<ele>500.4</ele>
<time>2024-05-10T10:46:47Z</time>
</trkpt>
<trkpt lat="49.606639835983515" lon="9.079224541783333">
<ele>500.6</ele>
<time>2024-05-10T10:46:48Z</time>
</trkpt>
<trkpt lat="49.606719966977835" lon="9.079223619773984">
<ele>500.6</ele>
<time>2024-05-10T10:46:50Z</time>
</trkpt>
<trkpt lat="49.606758104637265" lon="9.07921121455729">
<ele>500.8</ele>
<time>2024-05-10T10:46:51Z</time>
</trkpt>
<trkpt lat="49.60679238662124" lon="9.079204509034753">
<ele>500.8</ele>
<time>2024-05-10T10:46:52Z</time>
</trkpt>
<trkpt lat="49.60683815181255" lon="9.07919310964644">
<ele>500.8</ele>
<time>2024-05-10T10:46:53Z</time>
</trkpt>
<trkpt lat="49.60692591033876" lon="9.079174920916556">
<ele>501</ele>
<time>2024-05-10T10:46:55Z</time>
</trkpt>
<trkpt lat="49.606975531205535" lon="9.079163521528244">
<ele>501</ele>
<time>2024-05-10T10:46:56Z</time>
</trkpt>
<trkpt lat="49.60702129639685" lon="9.079159665852783">
<ele>501.2</ele>
<time>2024-05-10T10:46:57Z</time>
</trkpt>
<trkpt lat="49.60706706158817" lon="9.0791520383209">
<ele>501.2</ele>
<time>2024-05-10T10:46:59Z</time>
</trkpt>
<trkpt lat="49.60716621950269" lon="9.079134939238427">
<ele>501.2</ele>
<time>2024-05-10T10:47:00Z</time>
</trkpt>
<trkpt lat="49.60720821283758" lon="9.079126305878162">
<ele>501.4</ele>
<time>2024-05-10T10:47:01Z</time>
</trkpt>
<trkpt lat="49.60725397802889" lon="9.07913016155362">
<ele>501.4</ele>
<time>2024-05-10T10:47:02Z</time>
</trkpt>
<trkpt lat="49.60729597136378" lon="9.07913016155362">
<ele>501.4</ele>
<time>2024-05-10T10:47:03Z</time>
</trkpt>
<trkpt lat="49.60737987421453" lon="9.079123456031084">
<ele>501.6</ele>
<time>2024-05-10T10:47:05Z</time>
</trkpt>
<trkpt lat="49.60746377706528" lon="9.079105351120234">
<ele>501.6</ele>
<time>2024-05-10T10:47:07Z</time>
</trkpt>
<trkpt lat="49.60750577040017" lon="9.079103423282504">
<ele>501.8</ele>
<time>2024-05-10T10:47:08Z</time>
</trkpt>
<trkpt lat="49.607547679916024" lon="9.079098645597696">
<ele>501.8</ele>
<time>2024-05-10T10:47:10Z</time>
</trkpt>
<trkpt lat="49.6076316665858" lon="9.079103423282504">
<ele>502</ele>
<time>2024-05-10T10:47:11Z</time>
</trkpt>
<trkpt lat="49.60767743177712" lon="9.07909202389419">
<ele>502.2</ele>
<time>2024-05-10T10:47:12Z</time>
</trkpt>
<trkpt lat="49.60772696882486" lon="9.079081462696196">
<ele>502.2</ele>
<time>2024-05-10T10:47:13Z</time>
</trkpt>
<trkpt lat="49.607826210558414" lon="9.07907006330788">
<ele>502.4</ele>
<time>2024-05-10T10:47:15Z</time>
</trkpt>
<trkpt lat="49.60787574760616" lon="9.07907199114561">
<ele>502.4</ele>
<time>2024-05-10T10:47:16Z</time>
</trkpt>
<trkpt lat="49.60791774094105" lon="9.07907484099269">
<ele>502.6</ele>
<time>2024-05-10T10:47:17Z</time>
</trkpt>
<trkpt lat="49.60797113366425" lon="9.079068135470152">
<ele>502.6</ele>
<time>2024-05-10T10:47:18Z</time>
</trkpt>
<trkpt lat="49.60807414725423" lon="9.079066207632422">
<ele>502.8</ele>
<time>2024-05-10T10:47:20Z</time>
</trkpt>
<trkpt lat="49.608119912445545" lon="9.079065285623074">
<ele>502.6</ele>
<time>2024-05-10T10:47:21Z</time>
</trkpt>
<trkpt lat="49.60816567763686" lon="9.079065285623074">
<ele>502.6</ele>
<time>2024-05-10T10:47:22Z</time>
</trkpt>
<trkpt lat="49.60820381529629" lon="9.079058580100536">
<ele>502.4</ele>
<time>2024-05-10T10:47:23Z</time>
</trkpt>
<trkpt lat="49.60825343616307" lon="9.079063357785344">
<ele>502.4</ele>
<time>2024-05-10T10:47:25Z</time>
</trkpt>
<trkpt lat="49.60836407728493" lon="9.079079618677495">
<ele>502.4</ele>
<time>2024-05-10T10:47:26Z</time>
</trkpt>
<trkpt lat="49.608417470008135" lon="9.079081462696196">
<ele>502.6</ele>
<time>2024-05-10T10:47:27Z</time>
</trkpt>
<trkpt lat="49.60846323519945" lon="9.07909202389419">
<ele>502.8</ele>
<time>2024-05-10T10:47:28Z</time>
</trkpt>
<trkpt lat="49.60854336619377" lon="9.079103423282504">
<ele>502.8</ele>
<time>2024-05-10T10:47:30Z</time>
</trkpt>
<trkpt lat="49.60858913138509" lon="9.07911012880504">
<ele>503</ele>
<time>2024-05-10T10:47:31Z</time>
</trkpt>
<trkpt lat="49.60862349718809" lon="9.079116750508549">
<ele>503</ele>
<time>2024-05-10T10:47:32Z</time>
</trkpt>
<trkpt lat="49.60866163484752" lon="9.079125383868814">
<ele>503.2</ele>
<time>2024-05-10T10:47:33Z</time>
</trkpt>
<trkpt lat="49.60874168202281" lon="9.079148266464472">
<ele>503.2</ele>
<time>2024-05-10T10:47:35Z</time>
</trkpt>
<trkpt lat="49.608791302889585" lon="9.079159665852783">
<ele>503.2</ele>
<time>2024-05-10T10:47:36Z</time>
</trkpt>
<trkpt lat="49.6088370680809" lon="9.07917022705078">
<ele>503.2</ele>
<time>2024-05-10T10:47:37Z</time>
</trkpt>
<trkpt lat="49.60887906141579" lon="9.079177854582667">
<ele>503.4</ele>
<time>2024-05-10T10:47:38Z</time>
</trkpt>
<trkpt lat="49.60897821933031" lon="9.079184476286173">
<ele>503.4</ele>
<time>2024-05-10T10:47:40Z</time>
</trkpt>
<trkpt lat="49.60902398452163" lon="9.079186404123902">
<ele>503.4</ele>
<time>2024-05-10T10:47:41Z</time>
</trkpt>
<trkpt lat="49.609069749712944" lon="9.079186404123902">
<ele>503.4</ele>
<time>2024-05-10T10:47:42Z</time>
</trkpt>
<trkpt lat="49.60911174304783" lon="9.079186404123902">
<ele>503.2</ele>
<time>2024-05-10T10:47:43Z</time>
</trkpt>
<trkpt lat="49.60919187404215" lon="9.079196881502869">
<ele>503.2</ele>
<time>2024-05-10T10:47:45Z</time>
</trkpt>
<trkpt lat="49.60923763923347" lon="9.079197803512216">
<ele>503.2</ele>
<time>2024-05-10T10:47:46Z</time>
</trkpt>
<trkpt lat="49.60929488763213" lon="9.07921020872891">
<ele>503.2</ele>
<time>2024-05-10T10:47:47Z</time>
</trkpt>
<trkpt lat="49.609344424679875" lon="9.079219764098523">
<ele>503.2</ele>
<time>2024-05-10T10:47:48Z</time>
</trkpt>
<trkpt lat="49.60943981073797" lon="9.079226469621062">
<ele>503.2</ele>
<time>2024-05-10T10:47:50Z</time>
</trkpt>
<trkpt lat="49.60953519679606" lon="9.079224541783333">
<ele>503.2</ele>
<time>2024-05-10T10:47:52Z</time>
</trkpt>
<trkpt lat="49.609580961987376" lon="9.079224541783333">
<ele>503.2</ele>
<time>2024-05-10T10:47:53Z</time>
</trkpt>
<trkpt lat="49.609683975577354" lon="9.079236947000028">
<ele>503.2</ele>
<time>2024-05-10T10:47:55Z</time>
</trkpt>
<trkpt lat="49.6097335126251" lon="9.079239796847103">
<ele>503.2</ele>
<time>2024-05-10T10:47:56Z</time>
</trkpt>
<trkpt lat="49.60977550595999" lon="9.079246502369642">
<ele>503.2</ele>
<time>2024-05-10T10:47:57Z</time>
</trkpt>
<trkpt lat="49.60981364361942" lon="9.079253124073148">
<ele>503.2</ele>
<time>2024-05-10T10:47:58Z</time>
</trkpt>
<trkpt lat="49.609859408810735" lon="9.079264607280493">
<ele>503</ele>
<time>2024-05-10T10:48:00Z</time>
</trkpt>
<trkpt lat="49.609939539805055" lon="9.079266535118222">
<ele>503</ele>
<time>2024-05-10T10:48:01Z</time>
</trkpt>
<trkpt lat="49.609977677464485" lon="9.07926837913692">
<ele>503</ele>
<time>2024-05-10T10:48:02Z</time>
</trkpt>
<trkpt lat="49.610019670799375" lon="9.07927131280303">
<ele>502.8</ele>
<time>2024-05-10T10:48:03Z</time>
</trkpt>
<trkpt lat="49.61010357365012" lon="9.079281790181994">
<ele>502.8</ele>
<time>2024-05-10T10:48:05Z</time>
</trkpt>
<trkpt lat="49.61014556698501" lon="9.079286567866802">
<ele>502.6</ele>
<time>2024-05-10T10:48:06Z</time>
</trkpt>
<trkpt lat="49.610195104032755" lon="9.079286567866802">
<ele>502.6</ele>
<time>2024-05-10T10:48:07Z</time>
</trkpt>
<trkpt lat="49.61024086922407" lon="9.079286567866802">
<ele>502.4</ele>
<time>2024-05-10T10:48:08Z</time>
</trkpt>
<trkpt lat="49.61033625528216" lon="9.079301822930574">
<ele>502.4</ele>
<time>2024-05-10T10:48:10Z</time>
</trkpt>
<trkpt lat="49.610374392941594" lon="9.079315150156615">
<ele>502.4</ele>
<time>2024-05-10T10:48:11Z</time>
</trkpt>
<trkpt lat="49.61041638627648" lon="9.079319927841423">
<ele>502.2</ele>
<time>2024-05-10T10:48:12Z</time>
</trkpt>
<trkpt lat="49.610454523935914" lon="9.079331327229738">
<ele>502.2</ele>
<time>2024-05-10T10:48:13Z</time>
</trkpt>
<trkpt lat="49.610534654930234" lon="9.079338032752275">
<ele>502.2</ele>
<time>2024-05-10T10:48:15Z</time>
</trkpt>
<trkpt lat="49.61057656444609" lon="9.079344738274813">
<ele>502.2</ele>
<time>2024-05-10T10:48:16Z</time>
</trkpt>
<trkpt lat="49.61061855778098" lon="9.079355215653775">
<ele>502.2</ele>
<time>2024-05-10T10:48:17Z</time>
</trkpt>
<trkpt lat="49.6106643229723" lon="9.079355215653775">
<ele>502.4</ele>
<time>2024-05-10T10:48:18Z</time>
</trkpt>
<trkpt lat="49.61071394383907" lon="9.079357143491508">
<ele>502.4</ele>
<time>2024-05-10T10:48:20Z</time>
</trkpt>
<trkpt lat="49.61081310175359" lon="9.079378098249435">
<ele>502.6</ele>
<time>2024-05-10T10:48:21Z</time>
</trkpt>
<trkpt lat="49.61085123941302" lon="9.079393353313208">
<ele>502.6</ele>
<time>2024-05-10T10:48:22Z</time>
</trkpt>
<trkpt lat="49.610904632136226" lon="9.079402908682823">
<ele>502.6</ele>
<time>2024-05-10T10:48:23Z</time>
</trkpt>
<trkpt lat="49.61099239066243" lon="9.07944867387414">
<ele>502.6</ele>
<time>2024-05-10T10:48:25Z</time>
</trkpt>
<trkpt lat="49.61103052832186" lon="9.079475328326224">
<ele>502.6</ele>
<time>2024-05-10T10:48:26Z</time>
</trkpt>
<trkpt lat="49.61107252165675" lon="9.079500138759611">
<ele>502.6</ele>
<time>2024-05-10T10:48:27Z</time>
</trkpt>
<trkpt lat="49.61111443117261" lon="9.079520171508191">
<ele>502.6</ele>
<time>2024-05-10T10:48:29Z</time>
</trkpt>
<trkpt lat="49.611206045374274" lon="9.079561159014702">
<ele>502.6</ele>
<time>2024-05-10T10:48:30Z</time>
</trkpt>
<trkpt lat="49.61125181056559" lon="9.079578341916203">
<ele>502.6</ele>
<time>2024-05-10T10:48:31Z</time>
</trkpt>
<trkpt lat="49.61128994822502" lon="9.079594602808356">
<ele>502.8</ele>
<time>2024-05-10T10:48:32Z</time>
</trkpt>
<trkpt lat="49.61132808588445" lon="9.079614635556936">
<ele>502.8</ele>
<time>2024-05-10T10:48:33Z</time>
</trkpt>
<trkpt lat="49.6114119887352" lon="9.079654617235065">
<ele>503</ele>
<time>2024-05-10T10:48:35Z</time>
</trkpt>
<trkpt lat="49.611461609601974" lon="9.07968521118164">
<ele>503</ele>
<time>2024-05-10T10:48:36Z</time>
</trkpt>
<trkpt lat="49.611499747261405" lon="9.079712787643077">
<ele>503</ele>
<time>2024-05-10T10:48:37Z</time>
</trkpt>
<trkpt lat="49.611541740596294" lon="9.079734748229384">
<ele>503.2</ele>
<time>2024-05-10T10:48:38Z</time>
</trkpt>
<trkpt lat="49.61163327097893" lon="9.079788140952587">
<ele>503.2</ele>
<time>2024-05-10T10:48:40Z</time>
</trkpt>
<trkpt lat="49.611675180494785" lon="9.079818651080132">
<ele>503.2</ele>
<time>2024-05-10T10:48:41Z</time>
</trkpt>
<trkpt lat="49.61172480136156" lon="9.079836839810014">
<ele>503.2</ele>
<time>2024-05-10T10:48:42Z</time>
</trkpt>
<trkpt lat="49.61176679469645" lon="9.0798634942621">
<ele>503.2</ele>
<time>2024-05-10T10:48:43Z</time>
</trkpt>
<trkpt lat="49.61185832507908" lon="9.079924514517188">
<ele>503.4</ele>
<time>2024-05-10T10:48:45Z</time>
</trkpt>
<trkpt lat="49.61194985546172" lon="9.07998176291585">
<ele>503.4</ele>
<time>2024-05-10T10:48:47Z</time>
</trkpt>
<trkpt lat="49.611991848796606" lon="9.080010345205665">
<ele>503.4</ele>
<time>2024-05-10T10:48:48Z</time>
</trkpt>
<trkpt lat="49.612033842131495" lon="9.08003800548613">
<ele>503.4</ele>
<time>2024-05-10T10:48:50Z</time>
</trkpt>
<trkpt lat="49.61211774498224" lon="9.080093326047065">
<ele>503.4</ele>
<time>2024-05-10T10:48:51Z</time>
</trkpt>
<trkpt lat="49.61220550350845" lon="9.080149568617344">
<ele>503.4</ele>
<time>2024-05-10T10:48:53Z</time>
</trkpt>
<trkpt lat="49.61230080574751" lon="9.080189634114504">
<ele>503.2</ele>
<time>2024-05-10T10:48:55Z</time>
</trkpt>
<trkpt lat="49.612346570938826" lon="9.080213522538545">
<ele>503</ele>
<time>2024-05-10T10:48:56Z</time>
</trkpt>
<trkpt lat="49.61244195699692" lon="9.080253588035704">
<ele>503</ele>
<time>2024-05-10T10:48:58Z</time>
</trkpt>
<trkpt lat="49.61252208799124" lon="9.080289797857404">
<ele>502.8</ele>
<time>2024-05-10T10:49:00Z</time>
</trkpt>
<trkpt lat="49.612605990841985" lon="9.080320307984948">
<ele>502.4</ele>
<time>2024-05-10T10:49:02Z</time>
</trkpt>
<trkpt lat="49.6126517560333" lon="9.080331791192291">
<ele>502.2</ele>
<time>2024-05-10T10:49:03Z</time>
</trkpt>
<trkpt lat="49.61275099776685" lon="9.080365151166916">
<ele>502</ele>
<time>2024-05-10T10:49:05Z</time>
</trkpt>
<trkpt lat="49.61285778321326" lon="9.080412844195962">
<ele>502</ele>
<time>2024-05-10T10:49:07Z</time>
</trkpt>
<trkpt lat="49.61291117593646" lon="9.080428099259734">
<ele>501.8</ele>
<time>2024-05-10T10:49:09Z</time>
</trkpt>
<trkpt lat="49.613021817058325" lon="9.080452909693122">
<ele>501.8</ele>
<time>2024-05-10T10:49:10Z</time>
</trkpt>
<trkpt lat="49.61312860250473" lon="9.080481491982937">
<ele>501.6</ele>
<time>2024-05-10T10:49:12Z</time>
</trkpt>
<trkpt lat="49.61318199522793" lon="9.080496747046707">
<ele>501.6</ele>
<time>2024-05-10T10:49:14Z</time>
</trkpt>
<trkpt lat="49.61328500881791" lon="9.080523485317826">
<ele>501.4</ele>
<time>2024-05-10T10:49:15Z</time>
</trkpt>
<trkpt lat="49.613338401541114" lon="9.080526335164905">
<ele>501.4</ele>
<time>2024-05-10T10:49:17Z</time>
</trkpt>
<trkpt lat="49.61344141513109" lon="9.080530107021332">
<ele>501.2</ele>
<time>2024-05-10T10:49:18Z</time>
</trkpt>
<trkpt lat="49.61348718032241" lon="9.080530107021332">
<ele>501</ele>
<time>2024-05-10T10:49:20Z</time>
</trkpt>
<trkpt lat="49.61358642205596" lon="9.080530107021332">
<ele>500.8</ele>
<time>2024-05-10T10:49:21Z</time>
</trkpt>
<trkpt lat="49.6136359591037" lon="9.080530107021332">
<ele>500.6</ele>
<time>2024-05-10T10:49:23Z</time>
</trkpt>
<trkpt lat="49.61368172429502" lon="9.080530107021332">
<ele>500.4</ele>
<time>2024-05-10T10:49:24Z</time>
</trkpt>
<trkpt lat="49.61378096602857" lon="9.080525329336524">
<ele>500</ele>
<time>2024-05-10T10:49:25Z</time>
</trkpt>
<trkpt lat="49.61382673121989" lon="9.080521557480097">
<ele>499.8</ele>
<time>2024-05-10T10:49:26Z</time>
</trkpt>
<trkpt lat="49.6138724964112" lon="9.080518707633018">
<ele>499.6</ele>
<time>2024-05-10T10:49:27Z</time>
</trkpt>
<trkpt lat="49.61392211727798" lon="9.08051292411983">
<ele>499.4</ele>
<time>2024-05-10T10:49:28Z</time>
</trkpt>
<trkpt lat="49.61397165432573" lon="9.080510074272752">
<ele>499.2</ele>
<time>2024-05-10T10:49:30Z</time>
</trkpt>
<trkpt lat="49.6140212751925" lon="9.080503452569246">
<ele>499</ele>
<time>2024-05-10T10:49:31Z</time>
</trkpt>
<trkpt lat="49.614067040383816" lon="9.08049289137125">
<ele>498.8</ele>
<time>2024-05-10T10:49:32Z</time>
</trkpt>
<trkpt lat="49.61412043310702" lon="9.080483419820666">
<ele>498.8</ele>
<time>2024-05-10T10:49:33Z</time>
</trkpt>
<trkpt lat="49.614170053973794" lon="9.080472942441702">
<ele>498.6</ele>
<time>2024-05-10T10:49:34Z</time>
</trkpt>
<trkpt lat="49.61427306756377" lon="9.080459531396627">
<ele>498.6</ele>
<time>2024-05-10T10:49:35Z</time>
</trkpt>
<trkpt lat="49.61431883275509" lon="9.080452909693122">
<ele>498.6</ele>
<time>2024-05-10T10:49:36Z</time>
</trkpt>
<trkpt lat="49.614364597946405" lon="9.080443354323506">
<ele>498.4</ele>
<time>2024-05-10T10:49:37Z</time>
</trkpt>
<trkpt lat="49.61441413499415" lon="9.080439498648047">
<ele>498.4</ele>
<time>2024-05-10T10:49:38Z</time>
</trkpt>
<trkpt lat="49.6144599840045" lon="9.08043472096324">
<ele>498.2</ele>
<time>2024-05-10T10:49:40Z</time>
</trkpt>
<trkpt lat="49.61450952105224" lon="9.080425249412656">
<ele>498.2</ele>
<time>2024-05-10T10:49:41Z</time>
</trkpt>
<trkpt lat="49.61455528624356" lon="9.080414772033691">
<ele>498.2</ele>
<time>2024-05-10T10:49:42Z</time>
</trkpt>
<trkpt lat="49.614662155508995" lon="9.080388033762574">
<ele>498</ele>
<time>2024-05-10T10:49:43Z</time>
</trkpt>
<trkpt lat="49.6147689409554" lon="9.080351823940871">
<ele>498.2</ele>
<time>2024-05-10T10:49:45Z</time>
</trkpt>
<trkpt lat="49.614818561822176" lon="9.080340340733528">
<ele>498.2</ele>
<time>2024-05-10T10:49:46Z</time>
</trkpt>
<trkpt lat="49.61486809886992" lon="9.080334641039371">
<ele>498.2</ele>
<time>2024-05-10T10:49:48Z</time>
</trkpt>
<trkpt lat="49.614917719736695" lon="9.080311758443711">
<ele>498.4</ele>
<time>2024-05-10T10:49:49Z</time>
</trkpt>
<trkpt lat="49.614959713071585" lon="9.080293653532864">
<ele>498.6</ele>
<time>2024-05-10T10:49:50Z</time>
</trkpt>
<trkpt lat="49.61503976024687" lon="9.080253588035704">
<ele>498.6</ele>
<time>2024-05-10T10:49:51Z</time>
</trkpt>
<trkpt lat="49.61508175358176" lon="9.0802364051342">
<ele>498.8</ele>
<time>2024-05-10T10:49:53Z</time>
</trkpt>
<trkpt lat="49.61511989124119" lon="9.080211594700812">
<ele>498.8</ele>
<time>2024-05-10T10:49:54Z</time>
</trkpt>
<trkpt lat="49.61520002223551" lon="9.08015627413988">
<ele>499</ele>
<time>2024-05-10T10:49:55Z</time>
</trkpt>
<trkpt lat="49.6152800694108" lon="9.080106653273106">
<ele>499.2</ele>
<time>2024-05-10T10:49:57Z</time>
</trkpt>
<trkpt lat="49.61531829088926" lon="9.08007999882102">
<ele>499.2</ele>
<time>2024-05-10T10:49:59Z</time>
</trkpt>
<trkpt lat="49.615352572873235" lon="9.08006189391017">
<ele>499.4</ele>
<time>2024-05-10T10:50:00Z</time>
</trkpt>
<trkpt lat="49.61538693867624" lon="9.08003993332386">
<ele>499.6</ele>
<time>2024-05-10T10:50:01Z</time>
</trkpt>
<trkpt lat="49.61542507633567" lon="9.080015122890472">
<ele>499.8</ele>
<time>2024-05-10T10:50:02Z</time>
</trkpt>
<trkpt lat="49.61546706967056" lon="9.07997790724039">
<ele>499.8</ele>
<time>2024-05-10T10:50:03Z</time>
</trkpt>
<trkpt lat="49.615508979186416" lon="9.07994169741869">
<ele>500</ele>
<time>2024-05-10T10:50:04Z</time>
</trkpt>
<trkpt lat="49.615589110180736" lon="9.079865422099829">
<ele>500.2</ele>
<time>2024-05-10T10:50:05Z</time>
</trkpt>
<trkpt lat="49.615627247840166" lon="9.079828206449749">
<ele>500.4</ele>
<time>2024-05-10T10:50:07Z</time>
</trkpt>
<trkpt lat="49.61566161364317" lon="9.079796774312854">
<ele>500.6</ele>
<time>2024-05-10T10:50:08Z</time>
</trkpt>
<trkpt lat="49.61570352315903" lon="9.079759558662772">
<ele>500.6</ele>
<time>2024-05-10T10:50:09Z</time>
</trkpt>
<trkpt lat="49.615772170946" lon="9.079687055200338">
<ele>500.8</ele>
<time>2024-05-10T10:50:10Z</time>
</trkpt>
<trkpt lat="49.615810392424464" lon="9.079646989703178">
<ele>501</ele>
<time>2024-05-10T10:50:11Z</time>
</trkpt>
<trkpt lat="49.61585230194032" lon="9.0796079300344">
<ele>501</ele>
<time>2024-05-10T10:50:12Z</time>
</trkpt>
<trkpt lat="49.615886667743325" lon="9.079573564231396">
<ele>501.2</ele>
<time>2024-05-10T10:50:13Z</time>
</trkpt>
<trkpt lat="49.61597057059407" lon="9.079491589218378">
<ele>501.2</ele>
<time>2024-05-10T10:50:15Z</time>
</trkpt>
<trkpt lat="49.6160087082535" lon="9.079449595883489">
<ele>501.4</ele>
<time>2024-05-10T10:50:16Z</time>
</trkpt>
<trkpt lat="49.61604684591293" lon="9.07940860837698">
<ele>501.4</ele>
<time>2024-05-10T10:50:17Z</time>
</trkpt>
<trkpt lat="49.61607735604048" lon="9.079378098249435">
<ele>501.4</ele>
<time>2024-05-10T10:50:18Z</time>
</trkpt>
<trkpt lat="49.61615371517837" lon="9.079295117408035">
<ele>501.4</ele>
<time>2024-05-10T10:50:20Z</time>
</trkpt>
<trkpt lat="49.61618799716234" lon="9.079264607280493">
<ele>501.6</ele>
<time>2024-05-10T10:50:21Z</time>
</trkpt>
<trkpt lat="49.61622999049723" lon="9.07923024147749">
<ele>501.6</ele>
<time>2024-05-10T10:50:23Z</time>
</trkpt>
<trkpt lat="49.61627190001309" lon="9.079188331961632">
<ele>501.6</ele>
<time>2024-05-10T10:50:24Z</time>
</trkpt>
<trkpt lat="49.61631774902344" lon="9.079145416617392">
<ele>501.6</ele>
<time>2024-05-10T10:50:25Z</time>
</trkpt>
<trkpt lat="49.616363514214754" lon="9.079099651426075">
<ele>501.6</ele>
<time>2024-05-10T10:50:26Z</time>
</trkpt>
<trkpt lat="49.61640927940607" lon="9.07905480824411">
<ele>501.6</ele>
<time>2024-05-10T10:50:27Z</time>
</trkpt>
<trkpt lat="49.61648941040039" lon="9.07897375524044">
<ele>501.6</ele>
<time>2024-05-10T10:50:28Z</time>
</trkpt>
<trkpt lat="49.61656568571925" lon="9.07889454625547">
<ele>501.6</ele>
<time>2024-05-10T10:50:30Z</time>
</trkpt>
<trkpt lat="49.61663047783077" lon="9.078829754143952">
<ele>501.6</ele>
<time>2024-05-10T10:50:32Z</time>
</trkpt>
<trkpt lat="49.61666484363377" lon="9.078788682818413">
<ele>501.6</ele>
<time>2024-05-10T10:50:34Z</time>
</trkpt>
<trkpt lat="49.616699209436774" lon="9.078744845464826">
<ele>501.8</ele>
<time>2024-05-10T10:50:35Z</time>
</trkpt>
<trkpt lat="49.616737347096205" lon="9.078702852129936">
<ele>501.8</ele>
<time>2024-05-10T10:50:36Z</time>
</trkpt>
<trkpt lat="49.61682124994695" lon="9.078628504648805">
<ele>502</ele>
<time>2024-05-10T10:50:37Z</time>
</trkpt>
<trkpt lat="49.61685938760638" lon="9.078595144674182">
<ele>502</ele>
<time>2024-05-10T10:50:38Z</time>
</trkpt>
<trkpt lat="49.61694329045713" lon="9.0785217192024">
<ele>502</ele>
<time>2024-05-10T10:50:40Z</time>
</trkpt>
<trkpt lat="49.616989055648446" lon="9.078474948182702">
<ele>502.2</ele>
<time>2024-05-10T10:50:42Z</time>
</trkpt>
<trkpt lat="49.61707681417465" lon="9.078392973169684">
<ele>502.2</ele>
<time>2024-05-10T10:50:43Z</time>
</trkpt>
<trkpt lat="49.61711495183408" lon="9.07835860736668">
<ele>502.4</ele>
<time>2024-05-10T10:50:45Z</time>
</trkpt>
<trkpt lat="49.61718368344009" lon="9.078289959579706">
<ele>502.6</ele>
<time>2024-05-10T10:50:46Z</time>
</trkpt>
<trkpt lat="49.61726758629083" lon="9.07821837812662">
<ele>502.8</ele>
<time>2024-05-10T10:50:48Z</time>
</trkpt>
<trkpt lat="49.61734000593424" lon="9.078151658177376">
<ele>502.8</ele>
<time>2024-05-10T10:50:50Z</time>
</trkpt>
<trkpt lat="49.6173782274127" lon="9.078116370365024">
<ele>503</ele>
<time>2024-05-10T10:50:51Z</time>
</trkpt>
<trkpt lat="49.617408737540245" lon="9.078086782246828">
<ele>503</ele>
<time>2024-05-10T10:50:52Z</time>
</trkpt>
<trkpt lat="49.61744687519968" lon="9.078049650415778">
<ele>503</ele>
<time>2024-05-10T10:50:53Z</time>
</trkpt>
<trkpt lat="49.61751937866211" lon="9.077971447259188">
<ele>503</ele>
<time>2024-05-10T10:50:55Z</time>
</trkpt>
<trkpt lat="49.617549888789654" lon="9.077938003465531">
<ele>503.2</ele>
<time>2024-05-10T10:50:56Z</time>
</trkpt>
<trkpt lat="49.617584170773625" lon="9.077903721481562">
<ele>503.2</ele>
<time>2024-05-10T10:50:57Z</time>
</trkpt>
<trkpt lat="49.61761853657663" lon="9.07787036150694">
<ele>503</ele>
<time>2024-05-10T10:50:59Z</time>
</trkpt>
<trkpt lat="49.617683328688145" lon="9.07780833542347">
<ele>503.2</ele>
<time>2024-05-10T10:51:00Z</time>
</trkpt>
<trkpt lat="49.61771006695926" lon="9.077784530818462">
<ele>503.2</ele>
<time>2024-05-10T10:51:02Z</time>
</trkpt>
<trkpt lat="49.617740577086806" lon="9.077758714556694">
<ele>503.2</ele>
<time>2024-05-10T10:51:03Z</time>
</trkpt>
<trkpt lat="49.61777108721435" lon="9.07773013226688">
<ele>503.2</ele>
<time>2024-05-10T10:51:04Z</time>
</trkpt>
<trkpt lat="49.61782833561301" lon="9.077671961858869">
<ele>503.2</ele>
<time>2024-05-10T10:51:05Z</time>
</trkpt>
<trkpt lat="49.61786647327244" lon="9.077638601884246">
<ele>503.2</ele>
<time>2024-05-10T10:51:06Z</time>
</trkpt>
<trkpt lat="49.61789698339999" lon="9.077605241909623">
<ele>503</ele>
<time>2024-05-10T10:51:07Z</time>
</trkpt>
<trkpt lat="49.61793134920299" lon="9.077568026259542">
<ele>503</ele>
<time>2024-05-10T10:51:08Z</time>
</trkpt>
<trkpt lat="49.61795800365507" lon="9.077536510303617">
<ele>503</ele>
<time>2024-05-10T10:51:10Z</time>
</trkpt>
<trkpt lat="49.61798851378262" lon="9.07751178368926">
<ele>503</ele>
<time>2024-05-10T10:51:11Z</time>
</trkpt>
<trkpt lat="49.61801525205374" lon="9.077481189742684">
<ele>503.2</ele>
<time>2024-05-10T10:51:12Z</time>
</trkpt>
<trkpt lat="49.618076272308826" lon="9.077429724857211">
<ele>503.2</ele>
<time>2024-05-10T10:51:13Z</time>
</trkpt>
<trkpt lat="49.61813352070749" lon="9.077369626611471">
<ele>503.2</ele>
<time>2024-05-10T10:51:15Z</time>
</trkpt>
<trkpt lat="49.61819068528712" lon="9.077304834499955">
<ele>503.2</ele>
<time>2024-05-10T10:51:17Z</time>
</trkpt>
<trkpt lat="49.61822505109012" lon="9.07727331854403">
<ele>503.2</ele>
<time>2024-05-10T10:51:18Z</time>
</trkpt>
<trkpt lat="49.61826318874955" lon="9.077241886407135">
<ele>503.2</ele>
<time>2024-05-10T10:51:20Z</time>
</trkpt>
<trkpt lat="49.61830132640898" lon="9.077208442613482">
<ele>503.4</ele>
<time>2024-05-10T10:51:21Z</time>
</trkpt>
<trkpt lat="49.61833946406841" lon="9.077183715999126">
<ele>503.4</ele>
<time>2024-05-10T10:51:22Z</time>
</trkpt>
<trkpt lat="49.618377685546875" lon="9.07715504989028">
<ele>503.4</ele>
<time>2024-05-10T10:51:23Z</time>
</trkpt>
<trkpt lat="49.61841196753085" lon="9.077137866988778">
<ele>503.6</ele>
<time>2024-05-10T10:51:24Z</time>
</trkpt>
<trkpt lat="49.61849209852517" lon="9.07711498439312">
<ele>503.6</ele>
<time>2024-05-10T10:51:25Z</time>
</trkpt>
<trkpt lat="49.6185302361846" lon="9.077104507014155">
<ele>503.6</ele>
<time>2024-05-10T10:51:26Z</time>
</trkpt>
<trkpt lat="49.618572229519486" lon="9.07709687948227">
<ele>503.6</ele>
<time>2024-05-10T10:51:28Z</time>
</trkpt>
<trkpt lat="49.61861036717892" lon="9.077084474265575">
<ele>503.6</ele>
<time>2024-05-10T10:51:29Z</time>
</trkpt>
<trkpt lat="49.61864850483835" lon="9.07707684673369">
<ele>503.8</ele>
<time>2024-05-10T10:51:30Z</time>
</trkpt>
<trkpt lat="49.61868278682232" lon="9.077072069048882">
<ele>503.8</ele>
<time>2024-05-10T10:51:31Z</time>
</trkpt>
<trkpt lat="49.61872478015721" lon="9.077075002714992">
<ele>503.8</ele>
<time>2024-05-10T10:51:32Z</time>
</trkpt>
<trkpt lat="49.618808683007956" lon="9.077084474265575">
<ele>503.8</ele>
<time>2024-05-10T10:51:33Z</time>
</trkpt>
<trkpt lat="49.61885444819927" lon="9.077083552256228">
<ele>503.8</ele>
<time>2024-05-10T10:51:35Z</time>
</trkpt>
<trkpt lat="49.61890029720962" lon="9.077088329941034">
<ele>503.6</ele>
<time>2024-05-10T10:51:36Z</time>
</trkpt>
<trkpt lat="49.61894606240094" lon="9.077090257778764">
<ele>503.6</ele>
<time>2024-05-10T10:51:37Z</time>
</trkpt>
<trkpt lat="49.618987971916795" lon="9.077088329941034">
<ele>503.6</ele>
<time>2024-05-10T10:51:38Z</time>
</trkpt>
<trkpt lat="49.61902996525168" lon="9.077084474265575">
<ele>503.6</ele>
<time>2024-05-10T10:51:39Z</time>
</trkpt>
<trkpt lat="49.61911386810243" lon="9.077079696580768">
<ele>503.6</ele>
<time>2024-05-10T10:51:40Z</time>
</trkpt>
<trkpt lat="49.61915586143732" lon="9.077081624418495">
<ele>503.6</ele>
<time>2024-05-10T10:51:42Z</time>
</trkpt>
<trkpt lat="49.61919777095318" lon="9.077088329941034">
<ele>503.8</ele>
<time>2024-05-10T10:51:43Z</time>
</trkpt>
<trkpt lat="49.61923599243164" lon="9.077086402103305">
<ele>503.8</ele>
<time>2024-05-10T10:51:44Z</time>
</trkpt>
<trkpt lat="49.61927413009107" lon="9.077091179788113">
<ele>504</ele>
<time>2024-05-10T10:51:45Z</time>
</trkpt>
<trkpt lat="49.61930841207504" lon="9.07709788531065">
<ele>504.2</ele>
<time>2024-05-10T10:51:46Z</time>
</trkpt>
<trkpt lat="49.619342777878046" lon="9.077099729329348">
<ele>504.2</ele>
<time>2024-05-10T10:51:47Z</time>
</trkpt>
<trkpt lat="49.619384687393904" lon="9.07709687948227">
<ele>504.4</ele>
<time>2024-05-10T10:51:48Z</time>
</trkpt>
<trkpt lat="49.619422908872366" lon="9.07709788531065">
<ele>504.4</ele>
<time>2024-05-10T10:51:49Z</time>
</trkpt>
<trkpt lat="49.619502956047654" lon="9.077099729329348">
<ele>504.4</ele>
<time>2024-05-10T10:51:50Z</time>
</trkpt>
<trkpt lat="49.61954872123897" lon="9.077106434851885">
<ele>504.6</ele>
<time>2024-05-10T10:51:52Z</time>
</trkpt>
<trkpt lat="49.61959457024932" lon="9.077110290527344">
<ele>504.6</ele>
<time>2024-05-10T10:51:53Z</time>
</trkpt>
<trkpt lat="49.61963647976518" lon="9.077113140374422">
<ele>504.8</ele>
<time>2024-05-10T10:51:54Z</time>
</trkpt>
<trkpt lat="49.619678473100066" lon="9.07711691223085">
<ele>504.8</ele>
<time>2024-05-10T10:51:55Z</time>
</trkpt>
<trkpt lat="49.61972038261592" lon="9.077119762077928">
<ele>505</ele>
<time>2024-05-10T10:51:56Z</time>
</trkpt>
<trkpt lat="49.61976237595081" lon="9.077121689915655">
<ele>505.2</ele>
<time>2024-05-10T10:51:57Z</time>
</trkpt>
<trkpt lat="49.6198043692857" lon="9.077119762077928">
<ele>505.4</ele>
<time>2024-05-10T10:51:58Z</time>
</trkpt>
<trkpt lat="49.61984627880156" lon="9.077123617753386">
<ele>505.4</ele>
<time>2024-05-10T10:51:59Z</time>
</trkpt>
<trkpt lat="49.61988827213645" lon="9.077130239456892">
<ele>505.6</ele>
<time>2024-05-10T10:52:00Z</time>
</trkpt>
<trkpt lat="49.61993026547134" lon="9.0771350171417">
<ele>505.8</ele>
<time>2024-05-10T10:52:01Z</time>
</trkpt>
<trkpt lat="49.619976030662656" lon="9.07713694497943">
<ele>506</ele>
<time>2024-05-10T10:52:02Z</time>
</trkpt>
<trkpt lat="49.62002179585397" lon="9.077139794826508">
<ele>506.2</ele>
<time>2024-05-10T10:52:03Z</time>
</trkpt>
<trkpt lat="49.6200599335134" lon="9.077143650501966">
<ele>506.2</ele>
<time>2024-05-10T10:52:04Z</time>
</trkpt>
<trkpt lat="49.62010569870472" lon="9.077144572511315">
<ele>506.4</ele>
<time>2024-05-10T10:52:05Z</time>
</trkpt>
<trkpt lat="49.62014769203961" lon="9.077150272205472">
<ele>506.4</ele>
<time>2024-05-10T10:52:06Z</time>
</trkpt>
<trkpt lat="49.62018960155547" lon="9.07715697772801">
<ele>506.4</ele>
<time>2024-05-10T10:52:07Z</time>
</trkpt>
<trkpt lat="49.62023159489035" lon="9.077164605259895">
<ele>506.4</ele>
<time>2024-05-10T10:52:08Z</time>
</trkpt>
<trkpt lat="49.62028121575713" lon="9.077168460935354">
<ele>506.6</ele>
<time>2024-05-10T10:52:09Z</time>
</trkpt>
<trkpt lat="49.62032312527299" lon="9.077171310782433">
<ele>506.6</ele>
<time>2024-05-10T10:52:10Z</time>
</trkpt>
<trkpt lat="49.620368890464306" lon="9.07717508263886">
<ele>506.6</ele>
<time>2024-05-10T10:52:11Z</time>
</trkpt>
<trkpt lat="49.620410883799195" lon="9.077177932485938">
<ele>506.6</ele>
<time>2024-05-10T10:52:12Z</time>
</trkpt>
<trkpt lat="49.620452877134085" lon="9.077181788161395">
<ele>506.6</ele>
<time>2024-05-10T10:52:13Z</time>
</trkpt>
<trkpt lat="49.62049478664994" lon="9.077183715999126">
<ele>506.8</ele>
<time>2024-05-10T10:52:14Z</time>
</trkpt>
<trkpt lat="49.62053677998483" lon="9.077186565846205">
<ele>506.8</ele>
<time>2024-05-10T10:52:15Z</time>
</trkpt>
<trkpt lat="49.62057491764426" lon="9.077186565846205">
<ele>506.8</ele>
<time>2024-05-10T10:52:16Z</time>
</trkpt>
<trkpt lat="49.62060542777181" lon="9.07719318754971">
<ele>506.8</ele>
<time>2024-05-10T10:52:17Z</time>
</trkpt>
<trkpt lat="49.62068555876613" lon="9.07719704322517">
<ele>506.8</ele>
<time>2024-05-10T10:52:18Z</time>
</trkpt>
<trkpt lat="49.62072369642556" lon="9.077201820909975">
<ele>506.8</ele>
<time>2024-05-10T10:52:20Z</time>
</trkpt>
<trkpt lat="49.62076183408499" lon="9.077204670757055">
<ele>506.8</ele>
<time>2024-05-10T10:52:21Z</time>
</trkpt>
<trkpt lat="49.62079997174442" lon="9.077208442613482">
<ele>506.8</ele>
<time>2024-05-10T10:52:22Z</time>
</trkpt>
<trkpt lat="49.62083048187196" lon="9.07721322029829">
<ele>506.8</ele>
<time>2024-05-10T10:52:23Z</time>
</trkpt>
<trkpt lat="49.62086861953139" lon="9.07721707597375">
<ele>506.8</ele>
<time>2024-05-10T10:52:24Z</time>
</trkpt>
<trkpt lat="49.62094112299383" lon="9.077223697677256">
<ele>506.8</ele>
<time>2024-05-10T10:52:25Z</time>
</trkpt>
<trkpt lat="49.62101362645626" lon="9.077223697677256">
<ele>506.8</ele>
<time>2024-05-10T10:52:27Z</time>
</trkpt>
<trkpt lat="49.62105176411569" lon="9.077228475362062">
<ele>506.8</ele>
<time>2024-05-10T10:52:29Z</time>
</trkpt>
<trkpt lat="49.62108990177512" lon="9.077230403199792">
<ele>507</ele>
<time>2024-05-10T10:52:30Z</time>
</trkpt>
<trkpt lat="49.62113189511001" lon="9.077230403199792">
<ele>507</ele>
<time>2024-05-10T10:52:31Z</time>
</trkpt>
<trkpt lat="49.62116617709398" lon="9.07723132520914">
<ele>507.2</ele>
<time>2024-05-10T10:52:32Z</time>
</trkpt>
<trkpt lat="49.62120431475341" lon="9.07723325304687">
<ele>507.4</ele>
<time>2024-05-10T10:52:33Z</time>
</trkpt>
<trkpt lat="49.62123868055642" lon="9.0772351808846">
<ele>507.4</ele>
<time>2024-05-10T10:52:34Z</time>
</trkpt>
<trkpt lat="49.621280590072274" lon="9.077241886407135">
<ele>507.4</ele>
<time>2024-05-10T10:52:35Z</time>
</trkpt>
<trkpt lat="49.621318811550736" lon="9.077243730425836">
<ele>507.6</ele>
<time>2024-05-10T10:52:36Z</time>
</trkpt>
<trkpt lat="49.62135694921017" lon="9.077246664091945">
<ele>507.6</ele>
<time>2024-05-10T10:52:37Z</time>
</trkpt>
<trkpt lat="49.621398858726025" lon="9.077246664091945">
<ele>507.8</ele>
<time>2024-05-10T10:52:38Z</time>
</trkpt>
<trkpt lat="49.62143322452903" lon="9.077248508110642">
<ele>507.8</ele>
<time>2024-05-10T10:52:39Z</time>
</trkpt>
<trkpt lat="49.621478989720345" lon="9.07725135795772">
<ele>508</ele>
<time>2024-05-10T10:52:40Z</time>
</trkpt>
<trkpt lat="49.621517127379775" lon="9.07725135795772">
<ele>508.2</ele>
<time>2024-05-10T10:52:41Z</time>
</trkpt>
<trkpt lat="49.621555265039206" lon="9.07725135795772">
<ele>508.4</ele>
<time>2024-05-10T10:52:42Z</time>
</trkpt>
<trkpt lat="49.621597258374095" lon="9.07725135795772">
<ele>508.6</ele>
<time>2024-05-10T10:52:43Z</time>
</trkpt>
<trkpt lat="49.62163154035807" lon="9.07725135795772">
<ele>508.6</ele>
<time>2024-05-10T10:52:44Z</time>
</trkpt>
<trkpt lat="49.62170789949596" lon="9.077249513939025">
<ele>508.8</ele>
<time>2024-05-10T10:52:45Z</time>
</trkpt>
<trkpt lat="49.62178794667125" lon="9.077259991317987">
<ele>509</ele>
<time>2024-05-10T10:52:47Z</time>
</trkpt>
<trkpt lat="49.62182616814971" lon="9.077262841165066">
<ele>509</ele>
<time>2024-05-10T10:52:49Z</time>
</trkpt>
<trkpt lat="49.62189858779311" lon="9.077280024066567">
<ele>509.2</ele>
<time>2024-05-10T10:52:50Z</time>
</trkpt>
<trkpt lat="49.62193672545254" lon="9.07729142345488">
<ele>509.4</ele>
<time>2024-05-10T10:52:51Z</time>
</trkpt>
<trkpt lat="49.621971091255546" lon="9.07731145620346">
<ele>509.6</ele>
<time>2024-05-10T10:52:53Z</time>
</trkpt>
<trkpt lat="49.622009228914976" lon="9.0773353446275">
<ele>509.6</ele>
<time>2024-05-10T10:52:54Z</time>
</trkpt>
<trkpt lat="49.62209698744118" lon="9.077389659360051">
<ele>509.8</ele>
<time>2024-05-10T10:52:55Z</time>
</trkpt>
<trkpt lat="49.622146524488926" lon="9.077416397631168">
<ele>510</ele>
<time>2024-05-10T10:52:56Z</time>
</trkpt>
<trkpt lat="49.622192373499274" lon="9.077447829768062">
<ele>510.2</ele>
<time>2024-05-10T10:52:58Z</time>
</trkpt>
<trkpt lat="49.62223813869059" lon="9.077485045418143">
<ele>510.2</ele>
<time>2024-05-10T10:52:59Z</time>
</trkpt>
<trkpt lat="49.62228004820645" lon="9.077518405392766">
<ele>510.4</ele>
<time>2024-05-10T10:53:00Z</time>
</trkpt>
<trkpt lat="49.62232204154134" lon="9.077553693205118">
<ele>510.6</ele>
<time>2024-05-10T10:53:01Z</time>
</trkpt>
<trkpt lat="49.62240217253566" lon="9.077631896361709">
<ele>510.6</ele>
<time>2024-05-10T10:53:02Z</time>
</trkpt>
<trkpt lat="49.622447937726974" lon="9.077671961858869">
<ele>510.8</ele>
<time>2024-05-10T10:53:03Z</time>
</trkpt>
<trkpt lat="49.622528068721294" lon="9.077741615474224">
<ele>510.8</ele>
<time>2024-05-10T10:53:05Z</time>
</trkpt>
<trkpt lat="49.62257383391261" lon="9.07778830267489">
<ele>511</ele>
<time>2024-05-10T10:53:06Z</time>
</trkpt>
<trkpt lat="49.62265010923147" lon="9.07788846641779">
<ele>511</ele>
<time>2024-05-10T10:53:08Z</time>
</trkpt>
<trkpt lat="49.6226882468909" lon="9.077937081456184">
<ele>511.2</ele>
<time>2024-05-10T10:53:10Z</time>
</trkpt>
<trkpt lat="49.62273024022579" lon="9.07798477448523">
<ele>511.2</ele>
<time>2024-05-10T10:53:11Z</time>
</trkpt>
<trkpt lat="49.62276837788522" lon="9.078033389523624">
<ele>511.4</ele>
<time>2024-05-10T10:53:12Z</time>
</trkpt>
<trkpt lat="49.62284850887954" lon="9.078131625428796">
<ele>511.6</ele>
<time>2024-05-10T10:53:13Z</time>
</trkpt>
<trkpt lat="49.62288664653897" lon="9.078174540773034">
<ele>511.6</ele>
<time>2024-05-10T10:53:15Z</time>
</trkpt>
<trkpt lat="49.62295529432595" lon="9.07826129347086">
<ele>511.8</ele>
<time>2024-05-10T10:53:16Z</time>
</trkpt>
<trkpt lat="49.62302394211292" lon="9.078343352302907">
<ele>512</ele>
<time>2024-05-10T10:53:18Z</time>
</trkpt>
<trkpt lat="49.623058307915926" lon="9.078390039503574">
<ele>512</ele>
<time>2024-05-10T10:53:20Z</time>
</trkpt>
<trkpt lat="49.62309644557536" lon="9.078434882685542">
<ele>512</ele>
<time>2024-05-10T10:53:21Z</time>
</trkpt>
<trkpt lat="49.623176492750645" lon="9.078528340905905">
<ele>512</ele>
<time>2024-05-10T10:53:22Z</time>
</trkpt>
<trkpt lat="49.62321085855365" lon="9.07857796177268">
<ele>512</ele>
<time>2024-05-10T10:53:24Z</time>
</trkpt>
<trkpt lat="49.62324899621308" lon="9.078626576811075">
<ele>511.8</ele>
<time>2024-05-10T10:53:25Z</time>
</trkpt>
<trkpt lat="49.62328336201608" lon="9.078679969534278">
<ele>511.8</ele>
<time>2024-05-10T10:53:26Z</time>
</trkpt>
<trkpt lat="49.62331764400005" lon="9.078731518238785">
<ele>511.8</ele>
<time>2024-05-10T10:53:27Z</time>
</trkpt>
<trkpt lat="49.62339014746249" lon="9.078831598162653">
<ele>511.6</ele>
<time>2024-05-10T10:53:28Z</time>
</trkpt>
<trkpt lat="49.62342451326549" lon="9.078883146867156">
<ele>511.6</ele>
<time>2024-05-10T10:53:30Z</time>
</trkpt>
<trkpt lat="49.623455023393035" lon="9.078927990049124">
<ele>511.4</ele>
<time>2024-05-10T10:53:31Z</time>
</trkpt>
<trkpt lat="49.62348930537701" lon="9.07897467724979">
<ele>511.4</ele>
<time>2024-05-10T10:53:32Z</time>
</trkpt>
<trkpt lat="49.62351981550455" lon="9.079019520431755">
<ele>511.4</ele>
<time>2024-05-10T10:53:33Z</time>
</trkpt>
<trkpt lat="49.623554181307554" lon="9.079068135470152">
<ele>511.2</ele>
<time>2024-05-10T10:53:34Z</time>
</trkpt>
<trkpt lat="49.62362282909453" lon="9.079165449365972">
<ele>511.2</ele>
<time>2024-05-10T10:53:35Z</time>
</trkpt>
<trkpt lat="49.623653339222074" lon="9.07921121455729">
<ele>511.2</ele>
<time>2024-05-10T10:53:36Z</time>
</trkpt>
<trkpt lat="49.623691476881504" lon="9.079255051910875">
<ele>511.2</ele>
<time>2024-05-10T10:53:38Z</time>
</trkpt>
<trkpt lat="49.62373347021639" lon="9.079297045245768">
<ele>511.2</ele>
<time>2024-05-10T10:53:39Z</time>
</trkpt>
<trkpt lat="49.623771607875824" lon="9.079337110742928">
<ele>511.2</ele>
<time>2024-05-10T10:53:40Z</time>
</trkpt>
<trkpt lat="49.62384411133826" lon="9.07940860837698">
<ele>511.2</ele>
<time>2024-05-10T10:53:41Z</time>
</trkpt>
<trkpt lat="49.623870849609375" lon="9.079440040513871">
<ele>511</ele>
<time>2024-05-10T10:53:42Z</time>
</trkpt>
<trkpt lat="49.623889876529574" lon="9.079460073262451">
<ele>511</ele>
<time>2024-05-10T10:53:44Z</time>
</trkpt>
<trkpt lat="49.623908987268806" lon="9.079480106011031">
<ele>511</ele>
<time>2024-05-10T10:53:45Z</time>
</trkpt>
<trkpt lat="49.623928014189005" lon="9.079498210921884">
<ele>510.8</ele>
<time>2024-05-10T10:53:46Z</time>
</trkpt>
<trkpt lat="49.62394712492824" lon="9.079518243670464">
<ele>510.8</ele>
<time>2024-05-10T10:53:47Z</time>
</trkpt>
<trkpt lat="49.623970007523894" lon="9.079533498734236">
<ele>510.8</ele>
<time>2024-05-10T10:53:48Z</time>
</trkpt>
<trkpt lat="49.62398140691221" lon="9.07954783178866">
<ele>510.6</ele>
<time>2024-05-10T10:53:49Z</time>
</trkpt>
<trkpt lat="49.62401191703975" lon="9.07956694252789">
<ele>510.6</ele>
<time>2024-05-10T10:53:50Z</time>
</trkpt>
<trkpt lat="49.62403102777898" lon="9.079580269753931">
<ele>510.4</ele>
<time>2024-05-10T10:53:51Z</time>
</trkpt>
<trkpt lat="49.624069165438414" lon="9.079611701890826">
<ele>510.2</ele>
<time>2024-05-10T10:53:53Z</time>
</trkpt>
<trkpt lat="49.62409590370953" lon="9.07962796278298">
<ele>510</ele>
<time>2024-05-10T10:53:55Z</time>
</trkpt>
<trkpt lat="49.624122558161616" lon="9.07964799553156">
<ele>509.8</ele>
<time>2024-05-10T10:53:56Z</time>
</trkpt>
<trkpt lat="49.62418743409216" lon="9.079691832885146">
<ele>509.6</ele>
<time>2024-05-10T10:53:57Z</time>
</trkpt>
<trkpt lat="49.62422179989517" lon="9.079716643318534">
<ele>509.4</ele>
<time>2024-05-10T10:53:59Z</time>
</trkpt>
<trkpt lat="49.62425608187914" lon="9.079743381589653">
<ele>509.2</ele>
<time>2024-05-10T10:54:00Z</time>
</trkpt>
<trkpt lat="49.624332357198" lon="9.079791996628046">
<ele>509</ele>
<time>2024-05-10T10:54:01Z</time>
</trkpt>
<trkpt lat="49.62437435053289" lon="9.079814879223704">
<ele>509</ele>
<time>2024-05-10T10:54:02Z</time>
</trkpt>
<trkpt lat="49.62441248819232" lon="9.07984153367579">
<ele>508.8</ele>
<time>2024-05-10T10:54:03Z</time>
</trkpt>
<trkpt lat="49.62445448152721" lon="9.079865422099829">
<ele>508.6</ele>
<time>2024-05-10T10:54:05Z</time>
</trkpt>
<trkpt lat="49.62449639104307" lon="9.079884449020028">
<ele>508.6</ele>
<time>2024-05-10T10:54:06Z</time>
</trkpt>
<trkpt lat="49.62453838437795" lon="9.079908337444069">
<ele>508.6</ele>
<time>2024-05-10T10:54:07Z</time>
</trkpt>
<trkpt lat="49.624580377712846" lon="9.079930298030376">
<ele>508.6</ele>
<time>2024-05-10T10:54:08Z</time>
</trkpt>
<trkpt lat="49.62461851537227" lon="9.079937925562264">
<ele>508.4</ele>
<time>2024-05-10T10:54:09Z</time>
</trkpt>
<trkpt lat="49.62465665303171" lon="9.079946475103498">
<ele>508.4</ele>
<time>2024-05-10T10:54:10Z</time>
</trkpt>
<trkpt lat="49.624698562547565" lon="9.07995980232954">
<ele>508.4</ele>
<time>2024-05-10T10:54:11Z</time>
</trkpt>
<trkpt lat="49.62474441155791" lon="9.079975057393312">
<ele>508.4</ele>
<time>2024-05-10T10:54:12Z</time>
</trkpt>
<trkpt lat="49.62478632107377" lon="9.079995090141892">
<ele>508.6</ele>
<time>2024-05-10T10:54:13Z</time>
</trkpt>
<trkpt lat="49.6248244587332" lon="9.080010345205665">
<ele>508.6</ele>
<time>2024-05-10T10:54:14Z</time>
</trkpt>
<trkpt lat="49.624900817871094" lon="9.08003800548613">
<ele>508.6</ele>
<time>2024-05-10T10:54:15Z</time>
</trkpt>
<trkpt lat="49.62494272738695" lon="9.080051416531203">
<ele>508.6</ele>
<time>2024-05-10T10:54:17Z</time>
</trkpt>
<trkpt lat="49.62498472072184" lon="9.080062815919518">
<ele>508.8</ele>
<time>2024-05-10T10:54:18Z</time>
</trkpt>
<trkpt lat="49.6250266302377" lon="9.08007807098329">
<ele>508.8</ele>
<time>2024-05-10T10:54:19Z</time>
</trkpt>
<trkpt lat="49.6250609960407" lon="9.080093326047065">
<ele>509</ele>
<time>2024-05-10T10:54:20Z</time>
</trkpt>
<trkpt lat="49.62509913370013" lon="9.080104809254408">
<ele>509</ele>
<time>2024-05-10T10:54:21Z</time>
</trkpt>
<trkpt lat="49.62513727135956" lon="9.080115286633372">
<ele>509.2</ele>
<time>2024-05-10T10:54:22Z</time>
</trkpt>
<trkpt lat="49.62520214729011" lon="9.0801362413913">
<ele>509.4</ele>
<time>2024-05-10T10:54:23Z</time>
</trkpt>
<trkpt lat="49.62525554001331" lon="9.080151496455072">
<ele>509.4</ele>
<time>2024-05-10T10:54:25Z</time>
</trkpt>
<trkpt lat="49.62527842260897" lon="9.080153424292805">
<ele>509.4</ele>
<time>2024-05-10T10:54:27Z</time>
</trkpt>
<trkpt lat="49.6253165602684" lon="9.080175384879112">
<ele>509.4</ele>
<time>2024-05-10T10:54:28Z</time>
</trkpt>
<trkpt lat="49.62535469792783" lon="9.08019633963704">
<ele>509.4</ele>
<time>2024-05-10T10:54:30Z</time>
</trkpt>
<trkpt lat="49.625369952991605" lon="9.080202039331198">
<ele>509.2</ele>
<time>2024-05-10T10:54:32Z</time>
</trkpt>
<trkpt lat="49.625373808667064" lon="9.080203045159578">
<ele>509.2</ele>
<time>2024-05-10T10:54:33Z</time>
</trkpt>
<trkpt lat="49.625373808667064" lon="9.080202039331198">
<ele>509.2</ele>
<time>2024-05-10T10:54:34Z</time>
</trkpt>
<trkpt lat="49.625373808667064" lon="9.080208744853737">
<ele>509</ele>
<time>2024-05-10T10:54:35Z</time>
</trkpt>
<trkpt lat="49.62537758052349" lon="9.080209666863084">
<ele>508.8</ele>
<time>2024-05-10T10:54:37Z</time>
</trkpt>
<trkpt lat="49.625373808667064" lon="9.080209666863084">
<ele>508.6</ele>
<time>2024-05-10T10:54:38Z</time>
</trkpt>
<trkpt lat="49.625373808667064" lon="9.08021637238562">
<ele>508.6</ele>
<time>2024-05-10T10:54:43Z</time>
</trkpt>
<trkpt lat="49.62537758052349" lon="9.080222072079778">
<ele>508.4</ele>
<time>2024-05-10T10:54:45Z</time>
</trkpt>
<trkpt lat="49.62537758052349" lon="9.080224921926856">
<ele>508.2</ele>
<time>2024-05-10T10:54:47Z</time>
</trkpt>
<trkpt lat="49.625373808667064" lon="9.080226849764584">
<ele>508</ele>
<time>2024-05-10T10:54:48Z</time>
</trkpt>
<trkpt lat="49.625373808667064" lon="9.080229699611664">
<ele>508</ele>
<time>2024-05-10T10:54:50Z</time>
</trkpt>
<trkpt lat="49.625373808667064" lon="9.080233555287125">
<ele>507.8</ele>
<time>2024-05-10T10:54:51Z</time>
</trkpt>
<trkpt lat="49.625373808667064" lon="9.0802364051342">
<ele>507.8</ele>
<time>2024-05-10T10:54:53Z</time>
</trkpt>
<trkpt lat="49.625373808667064" lon="9.080240176990628">
<ele>507.8</ele>
<time>2024-05-10T10:54:54Z</time>
</trkpt>
<trkpt lat="49.625373808667064" lon="9.08023833297193">
<ele>507.6</ele>
<time>2024-05-10T10:54:56Z</time>
</trkpt>
<trkpt lat="49.625373808667064" lon="9.080240176990628">
<ele>507.4</ele>
<time>2024-05-10T10:55:05Z</time>
</trkpt>
<trkpt lat="49.625373808667064" lon="9.080241182819009">
<ele>507.4</ele>
<time>2024-05-10T10:55:07Z</time>
</trkpt>
<trkpt lat="49.625373808667064" lon="9.080243110656738">
<ele>507.2</ele>
<time>2024-05-10T10:55:11Z</time>
</trkpt>
<trkpt lat="49.625369952991605" lon="9.080244954675436">
<ele>507</ele>
<time>2024-05-10T10:55:13Z</time>
</trkpt>
<trkpt lat="49.625373808667064" lon="9.080246882513164">
<ele>507</ele>
<time>2024-05-10T10:55:15Z</time>
</trkpt>
<trkpt lat="49.625373808667064" lon="9.080244954675436">
<ele>506.8</ele>
<time>2024-05-10T10:55:18Z</time>
</trkpt>
<trkpt lat="49.625373808667064" lon="9.080243110656738">
<ele>506.8</ele>
<time>2024-05-10T10:55:20Z</time>
</trkpt>
<trkpt lat="49.625373808667064" lon="9.080244954675436">
<ele>506.6</ele>
<time>2024-05-10T10:55:21Z</time>
</trkpt>
<trkpt lat="49.625373808667064" lon="9.080246882513164">
<ele>506.6</ele>
<time>2024-05-10T10:55:23Z</time>
</trkpt>
<trkpt lat="49.625373808667064" lon="9.080247804522514">
<ele>506.6</ele>
<time>2024-05-10T10:55:24Z</time>
</trkpt>
<trkpt lat="49.625373808667064" lon="9.080249732360244">
<ele>506.6</ele>
<time>2024-05-10T10:55:25Z</time>
</trkpt>
<trkpt lat="49.62537758052349" lon="9.080247804522514">
<ele>506.4</ele>
<time>2024-05-10T10:55:27Z</time>
</trkpt>
<trkpt lat="49.62537758052349" lon="9.080249732360244">
<ele>506.4</ele>
<time>2024-05-10T10:55:34Z</time>
</trkpt>
<trkpt lat="49.62537758052349" lon="9.080247804522514">
<ele>506.4</ele>
<time>2024-05-10T10:55:37Z</time>
</trkpt>
<trkpt lat="49.62538143619895" lon="9.080247804522514">
<ele>506.4</ele>
<time>2024-05-10T10:55:40Z</time>
</trkpt>
<trkpt lat="49.62538143619895" lon="9.080249732360244">
<ele>506.4</ele>
<time>2024-05-10T10:55:43Z</time>
</trkpt>
<trkpt lat="49.62538143619895" lon="9.080251660197971">
<ele>506.4</ele>
<time>2024-05-10T10:55:45Z</time>
</trkpt>
<trkpt lat="49.62538520805538" lon="9.080249732360244">
<ele>506.4</ele>
<time>2024-05-10T10:55:49Z</time>
</trkpt>
<trkpt lat="49.62538520805538" lon="9.080247804522514">
<ele>506.4</ele>
<time>2024-05-10T10:55:50Z</time>
</trkpt>
<trkpt lat="49.62538520805538" lon="9.080249732360244">
<ele>506.6</ele>
<time>2024-05-10T10:55:51Z</time>
</trkpt>
<trkpt lat="49.62538906373083" lon="9.080249732360244">
<ele>506.6</ele>
<time>2024-05-10T10:55:52Z</time>
</trkpt>
<trkpt lat="49.62538906373083" lon="9.080251660197971">
<ele>506.6</ele>
<time>2024-05-10T10:55:55Z</time>
</trkpt>
<trkpt lat="49.62538906373083" lon="9.080247804522514">
<ele>506.6</ele>
<time>2024-05-10T10:55:56Z</time>
</trkpt>
<trkpt lat="49.62538906373083" lon="9.080246882513164">
<ele>506.8</ele>
<time>2024-05-10T10:55:57Z</time>
</trkpt>
<trkpt lat="49.62538906373083" lon="9.080247804522514">
<ele>506.8</ele>
<time>2024-05-10T10:56:03Z</time>
</trkpt>
<trkpt lat="49.62538906373083" lon="9.080249732360244">
<ele>506.8</ele>
<time>2024-05-10T10:56:05Z</time>
</trkpt>
<trkpt lat="49.62538906373083" lon="9.080247804522514">
<ele>507</ele>
<time>2024-05-10T10:56:09Z</time>
</trkpt>
<trkpt lat="49.62538906373083" lon="9.080249732360244">
<ele>507.2</ele>
<time>2024-05-10T10:56:11Z</time>
</trkpt>
<trkpt lat="49.62538906373083" lon="9.080251660197971">
<ele>507.2</ele>
<time>2024-05-10T10:56:15Z</time>
</trkpt>
<trkpt lat="49.62538906373083" lon="9.080249732360244">
<ele>507.4</ele>
<time>2024-05-10T10:56:21Z</time>
</trkpt>
<trkpt lat="49.62539283558726" lon="9.080247804522514">
<ele>507.6</ele>
<time>2024-05-10T10:56:22Z</time>
</trkpt>
<trkpt lat="49.62539283558726" lon="9.080246882513164">
<ele>507.6</ele>
<time>2024-05-10T10:56:25Z</time>
</trkpt>
<trkpt lat="49.62539283558726" lon="9.080243110656738">
<ele>507.6</ele>
<time>2024-05-10T10:56:26Z</time>
</trkpt>
<trkpt lat="49.62539283558726" lon="9.080240176990628">
<ele>507.8</ele>
<time>2024-05-10T10:56:27Z</time>
</trkpt>
<trkpt lat="49.62539283558726" lon="9.0802364051342">
<ele>507.8</ele>
<time>2024-05-10T10:56:30Z</time>
</trkpt>
<trkpt lat="49.62539669126272" lon="9.080233555287125">
<ele>507.8</ele>
<time>2024-05-10T10:56:33Z</time>
</trkpt>
<trkpt lat="49.62539669126272" lon="9.080226849764584">
<ele>508</ele>
<time>2024-05-10T10:56:35Z</time>
</trkpt>
<trkpt lat="49.62539669126272" lon="9.080222072079778">
<ele>508</ele>
<time>2024-05-10T10:56:36Z</time>
</trkpt>
<trkpt lat="49.62539669126272" lon="9.080220144242048">
<ele>508</ele>
<time>2024-05-10T10:56:37Z</time>
</trkpt>
<trkpt lat="49.62539669126272" lon="9.08021830022335">
<ele>508</ele>
<time>2024-05-10T10:56:38Z</time>
</trkpt>
<trkpt lat="49.62540046311915" lon="9.080213522538545">
<ele>508</ele>
<time>2024-05-10T10:56:41Z</time>
</trkpt>
<trkpt lat="49.62539669126272" lon="9.080213522538545">
<ele>508</ele>
<time>2024-05-10T10:56:43Z</time>
</trkpt>
<trkpt lat="49.62539669126272" lon="9.080215450376272">
<ele>508</ele>
<time>2024-05-10T10:56:49Z</time>
</trkpt>
<trkpt lat="49.62539669126272" lon="9.080213522538545">
<ele>508</ele>
<time>2024-05-10T10:56:59Z</time>
</trkpt>
<trkpt lat="49.62539283558726" lon="9.080213522538545">
<ele>508</ele>
<time>2024-05-10T10:57:02Z</time>
</trkpt>
<trkpt lat="49.62539283558726" lon="9.080215450376272">
<ele>508</ele>
<time>2024-05-10T10:57:15Z</time>
</trkpt>
<trkpt lat="49.62539283558726" lon="9.08021637238562">
<ele>508</ele>
<time>2024-05-10T10:57:17Z</time>
</trkpt>
<trkpt lat="49.62538906373083" lon="9.08021637238562">
<ele>508.2</ele>
<time>2024-05-10T10:57:18Z</time>
</trkpt>
<trkpt lat="49.62538906373083" lon="9.08021830022335">
<ele>508.2</ele>
<time>2024-05-10T10:57:19Z</time>
</trkpt>
<trkpt lat="49.62538906373083" lon="9.080220144242048">
<ele>508.2</ele>
<time>2024-05-10T10:57:20Z</time>
</trkpt>
<trkpt lat="49.62538906373083" lon="9.080223077908158">
<ele>508.2</ele>
<time>2024-05-10T10:57:21Z</time>
</trkpt>
<trkpt lat="49.62538906373083" lon="9.080224921926856">
<ele>508.2</ele>
<time>2024-05-10T10:57:22Z</time>
</trkpt>
<trkpt lat="49.62538906373083" lon="9.080226849764584">
<ele>508.2</ele>
<time>2024-05-10T10:57:25Z</time>
</trkpt>
<trkpt lat="49.62539283558726" lon="9.080226849764584">
<ele>508.2</ele>
<time>2024-05-10T10:57:28Z</time>
</trkpt>
<trkpt lat="49.62539283558726" lon="9.080229699611664">
<ele>508.2</ele>
<time>2024-05-10T10:57:29Z</time>
</trkpt>
<trkpt lat="49.62539283558726" lon="9.080231627449391">
<ele>508.4</ele>
<time>2024-05-10T10:57:30Z</time>
</trkpt>
<trkpt lat="49.62539283558726" lon="9.080233555287125">
<ele>508.4</ele>
<time>2024-05-10T10:57:32Z</time>
</trkpt>
<trkpt lat="49.62539283558726" lon="9.080234477296472">
<ele>508.4</ele>
<time>2024-05-10T10:57:33Z</time>
</trkpt>
<trkpt lat="49.62538906373083" lon="9.0802364051342">
<ele>508.4</ele>
<time>2024-05-10T10:57:35Z</time>
</trkpt>
<trkpt lat="49.62539283558726" lon="9.08023833297193">
<ele>508.4</ele>
<time>2024-05-10T10:57:37Z</time>
</trkpt>
<trkpt lat="49.62539283558726" lon="9.080240176990628">
<ele>508.4</ele>
<time>2024-05-10T10:57:40Z</time>
</trkpt>
<trkpt lat="49.62539283558726" lon="9.080241182819009">
<ele>508.4</ele>
<time>2024-05-10T10:57:45Z</time>
</trkpt>
<trkpt lat="49.62539283558726" lon="9.080243110656738">
<ele>508.2</ele>
<time>2024-05-10T10:57:56Z</time>
</trkpt>
<trkpt lat="49.62539283558726" lon="9.080241182819009">
<ele>508.2</ele>
<time>2024-05-10T10:57:57Z</time>
</trkpt>
<trkpt lat="49.62538906373083" lon="9.080241182819009">
<ele>508.2</ele>
<time>2024-05-10T10:58:10Z</time>
</trkpt>
<trkpt lat="49.62538906373083" lon="9.080240176990628">
<ele>508.2</ele>
<time>2024-05-10T10:58:11Z</time>
</trkpt>
<trkpt lat="49.62538906373083" lon="9.08023833297193">
<ele>508.2</ele>
<time>2024-05-10T10:58:13Z</time>
</trkpt>
<trkpt lat="49.62538906373083" lon="9.0802364051342">
<ele>508.2</ele>
<time>2024-05-10T10:58:15Z</time>
</trkpt>
<trkpt lat="49.62538906373083" lon="9.080234477296472">
<ele>508.2</ele>
<time>2024-05-10T10:58:19Z</time>
</trkpt>
<trkpt lat="49.62538520805538" lon="9.0802364051342">
<ele>508</ele>
<time>2024-05-10T10:58:24Z</time>
</trkpt>
<trkpt lat="49.62538906373083" lon="9.08023833297193">
<ele>508</ele>
<time>2024-05-10T10:58:28Z</time>
</trkpt>
<trkpt lat="49.62538906373083" lon="9.080240176990628">
<ele>508</ele>
<time>2024-05-10T10:58:29Z</time>
</trkpt>
<trkpt lat="49.62538906373083" lon="9.080241182819009">
<ele>507.8</ele>
<time>2024-05-10T10:58:30Z</time>
</trkpt>
<trkpt lat="49.62538520805538" lon="9.080241182819009">
<ele>507.8</ele>
<time>2024-05-10T10:58:31Z</time>
</trkpt>
<trkpt lat="49.62538520805538" lon="9.080243110656738">
<ele>507.8</ele>
<time>2024-05-10T10:58:34Z</time>
</trkpt>
<trkpt lat="49.62538520805538" lon="9.080244954675436">
<ele>507.8</ele>
<time>2024-05-10T10:58:40Z</time>
</trkpt>
<trkpt lat="49.62538143619895" lon="9.080244954675436">
<ele>507.8</ele>
<time>2024-05-10T10:58:42Z</time>
</trkpt>
<trkpt lat="49.62538143619895" lon="9.080243110656738">
<ele>508</ele>
<time>2024-05-10T10:58:44Z</time>
</trkpt>
<trkpt lat="49.62537758052349" lon="9.080243110656738">
<ele>508.2</ele>
<time>2024-05-10T10:58:52Z</time>
</trkpt>
<trkpt lat="49.62537758052349" lon="9.080244954675436">
<ele>508.6</ele>
<time>2024-05-10T10:58:55Z</time>
</trkpt>
<trkpt lat="49.625373808667064" lon="9.080244954675436">
<ele>508.8</ele>
<time>2024-05-10T10:59:08Z</time>
</trkpt>
<trkpt lat="49.625373808667064" lon="9.080246882513164">
<ele>508.8</ele>
<time>2024-05-10T10:59:10Z</time>
</trkpt>
<trkpt lat="49.625373808667064" lon="9.080244954675436">
<ele>509</ele>
<time>2024-05-10T10:59:11Z</time>
</trkpt>
<trkpt lat="49.62537758052349" lon="9.080244954675436">
<ele>509.2</ele>
<time>2024-05-10T10:59:12Z</time>
</trkpt>
<trkpt lat="49.62538143619895" lon="9.080243110656738">
<ele>509.2</ele>
<time>2024-05-10T10:59:15Z</time>
</trkpt>
<trkpt lat="49.62538143619895" lon="9.080241182819009">
<ele>509.2</ele>
<time>2024-05-10T10:59:18Z</time>
</trkpt>
<trkpt lat="49.62538143619895" lon="9.080243110656738">
<ele>509</ele>
<time>2024-05-10T10:59:19Z</time>
</trkpt>
<trkpt lat="49.62538143619895" lon="9.080244954675436">
<ele>509</ele>
<time>2024-05-10T10:59:20Z</time>
</trkpt>
<trkpt lat="49.62538143619895" lon="9.080243110656738">
<ele>508.8</ele>
<time>2024-05-10T10:59:22Z</time>
</trkpt>
<trkpt lat="49.62538143619895" lon="9.080241182819009">
<ele>508.8</ele>
<time>2024-05-10T10:59:24Z</time>
</trkpt>
<trkpt lat="49.62538143619895" lon="9.080243110656738">
<ele>508.8</ele>
<time>2024-05-10T10:59:26Z</time>
</trkpt>
<trkpt lat="49.62538143619895" lon="9.080244954675436">
<ele>508.6</ele>
<time>2024-05-10T10:59:28Z</time>
</trkpt>
<trkpt lat="49.62538143619895" lon="9.080246882513164">
<ele>508.6</ele>
<time>2024-05-10T10:59:29Z</time>
</trkpt>
<trkpt lat="49.62538143619895" lon="9.080247804522514">
<ele>508.4</ele>
<time>2024-05-10T10:59:30Z</time>
</trkpt>
<trkpt lat="49.62538143619895" lon="9.080249732360244">
<ele>508.4</ele>
<time>2024-05-10T10:59:31Z</time>
</trkpt>
<trkpt lat="49.62538143619895" lon="9.080251660197971">
<ele>508.4</ele>
<time>2024-05-10T10:59:32Z</time>
</trkpt>
<trkpt lat="49.62538143619895" lon="9.080253588035704">
<ele>508.4</ele>
<time>2024-05-10T10:59:33Z</time>
</trkpt>
<trkpt lat="49.62538143619895" lon="9.080254510045052">
<ele>508.2</ele>
<time>2024-05-10T10:59:37Z</time>
</trkpt>
<trkpt lat="49.62538520805538" lon="9.080253588035704">
<ele>508.2</ele>
<time>2024-05-10T10:59:38Z</time>
</trkpt>
<trkpt lat="49.62538520805538" lon="9.080254510045052">
<ele>508.2</ele>
<time>2024-05-10T10:59:39Z</time>
</trkpt>
<trkpt lat="49.62538520805538" lon="9.08025643788278">
<ele>508.2</ele>
<time>2024-05-10T10:59:43Z</time>
</trkpt>
<trkpt lat="49.62538520805538" lon="9.08025836572051">
<ele>508.2</ele>
<time>2024-05-10T10:59:44Z</time>
</trkpt>
<trkpt lat="49.62538520805538" lon="9.080260209739208">
<ele>508.2</ele>
<time>2024-05-10T10:59:45Z</time>
</trkpt>
<trkpt lat="49.62538520805538" lon="9.080261215567589">
<ele>508.2</ele>
<time>2024-05-10T10:59:46Z</time>
</trkpt>
<trkpt lat="49.62538520805538" lon="9.080263059586288">
<ele>508.2</ele>
<time>2024-05-10T10:59:49Z</time>
</trkpt>
<trkpt lat="49.62538906373083" lon="9.080266915261744">
<ele>508.2</ele>
<time>2024-05-10T10:59:51Z</time>
</trkpt>
<trkpt lat="49.62538906373083" lon="9.080269765108824">
<ele>508.2</ele>
<time>2024-05-10T10:59:52Z</time>
</trkpt>
<trkpt lat="49.62539283558726" lon="9.080271692946551">
<ele>508.2</ele>
<time>2024-05-10T10:59:53Z</time>
</trkpt>
<trkpt lat="49.62539669126272" lon="9.080273620784284">
<ele>508.2</ele>
<time>2024-05-10T10:59:55Z</time>
</trkpt>
<trkpt lat="49.62539283558726" lon="9.080273620784284">
<ele>508.2</ele>
<time>2024-05-10T10:59:58Z</time>
</trkpt>
<trkpt lat="49.62539283558726" lon="9.080271692946551">
<ele>508.2</ele>
<time>2024-05-10T11:00:00Z</time>
</trkpt>
<trkpt lat="49.62539283558726" lon="9.080269765108824">
<ele>508.2</ele>
<time>2024-05-10T11:00:02Z</time>
</trkpt>
<trkpt lat="49.62538906373083" lon="9.080269765108824">
<ele>508.2</ele>
<time>2024-05-10T11:00:03Z</time>
</trkpt>
<trkpt lat="49.62539283558726" lon="9.080271692946551">
<ele>508.2</ele>
<time>2024-05-10T11:00:04Z</time>
</trkpt>
<trkpt lat="49.62538906373083" lon="9.080269765108824">
<ele>508.2</ele>
<time>2024-05-10T11:00:05Z</time>
</trkpt>
<trkpt lat="49.62539283558726" lon="9.080271692946551">
<ele>508.2</ele>
<time>2024-05-10T11:00:06Z</time>
</trkpt>
<trkpt lat="49.62539283558726" lon="9.080269765108824">
<ele>508.2</ele>
<time>2024-05-10T11:00:07Z</time>
</trkpt>
<trkpt lat="49.62538906373083" lon="9.080271692946551">
<ele>508.2</ele>
<time>2024-05-10T11:00:08Z</time>
</trkpt>
<trkpt lat="49.62538906373083" lon="9.080273620784284">
<ele>508.2</ele>
<time>2024-05-10T11:00:10Z</time>
</trkpt>
<trkpt lat="49.62538906373083" lon="9.080274542793632">
<ele>508.2</ele>
<time>2024-05-10T11:00:13Z</time>
</trkpt>
<trkpt lat="49.62538906373083" lon="9.08027647063136">
<ele>508.2</ele>
<time>2024-05-10T11:00:15Z</time>
</trkpt>
<trkpt lat="49.62538906373083" lon="9.08027831465006">
<ele>508.2</ele>
<time>2024-05-10T11:00:17Z</time>
</trkpt>
<trkpt lat="49.62538906373083" lon="9.08027647063136">
<ele>508.2</ele>
<time>2024-05-10T11:00:18Z</time>
</trkpt>
<trkpt lat="49.62538906373083" lon="9.08027831465006">
<ele>508.2</ele>
<time>2024-05-10T11:00:24Z</time>
</trkpt>
<trkpt lat="49.62538906373083" lon="9.080280242487788">
<ele>508.2</ele>
<time>2024-05-10T11:00:27Z</time>
</trkpt>
<trkpt lat="49.62538520805538" lon="9.080280242487788">
<ele>508.2</ele>
<time>2024-05-10T11:00:29Z</time>
</trkpt>
<trkpt lat="49.62538520805538" lon="9.08027831465006">
<ele>508.2</ele>
<time>2024-05-10T11:00:37Z</time>
</trkpt>
<trkpt lat="49.62538520805538" lon="9.080280242487788">
<ele>508.2</ele>
<time>2024-05-10T11:00:40Z</time>
</trkpt>
<trkpt lat="49.62538520805538" lon="9.08027831465006">
<ele>508.2</ele>
<time>2024-05-10T11:00:47Z</time>
</trkpt>
<trkpt lat="49.62538520805538" lon="9.08027647063136">
<ele>508.2</ele>
<time>2024-05-10T11:00:52Z</time>
</trkpt>
<trkpt lat="49.62538520805538" lon="9.080274542793632">
<ele>508.2</ele>
<time>2024-05-10T11:01:00Z</time>
</trkpt>
<trkpt lat="49.62538143619895" lon="9.080274542793632">
<ele>508.2</ele>
<time>2024-05-10T11:01:01Z</time>
</trkpt>
<trkpt lat="49.62538520805538" lon="9.080274542793632">
<ele>508.2</ele>
<time>2024-05-10T11:01:02Z</time>
</trkpt>
<trkpt lat="49.62538520805538" lon="9.080271692946551">
<ele>508.2</ele>
<time>2024-05-10T11:01:03Z</time>
</trkpt>
<trkpt lat="49.62538520805538" lon="9.080269765108824">
<ele>508.2</ele>
<time>2024-05-10T11:01:04Z</time>
</trkpt>
<trkpt lat="49.62538906373083" lon="9.080271692946551">
<ele>508.2</ele>
<time>2024-05-10T11:01:06Z</time>
</trkpt>
<trkpt lat="49.62538906373083" lon="9.080273620784284">
<ele>508.2</ele>
<time>2024-05-10T11:01:07Z</time>
</trkpt>
<trkpt lat="49.62538520805538" lon="9.080271692946551">
<ele>508.2</ele>
<time>2024-05-10T11:01:08Z</time>
</trkpt>
<trkpt lat="49.62538520805538" lon="9.080269765108824">
<ele>508.2</ele>
<time>2024-05-10T11:01:10Z</time>
</trkpt>
<trkpt lat="49.62538906373083" lon="9.080271692946551">
<ele>508.2</ele>
<time>2024-05-10T11:01:11Z</time>
</trkpt>
<trkpt lat="49.62538906373083" lon="9.080274542793632">
<ele>508.2</ele>
<time>2024-05-10T11:01:12Z</time>
</trkpt>
<trkpt lat="49.62539283558726" lon="9.080273620784284">
<ele>508.2</ele>
<time>2024-05-10T11:01:13Z</time>
</trkpt>
<trkpt lat="49.62539283558726" lon="9.080269765108824">
<ele>508.2</ele>
<time>2024-05-10T11:01:14Z</time>
</trkpt>
<trkpt lat="49.62540431879461" lon="9.080263059586288">
<ele>508.2</ele>
<time>2024-05-10T11:01:15Z</time>
</trkpt>
<trkpt lat="49.625408090651035" lon="9.080260209739208">
<ele>508.2</ele>
<time>2024-05-10T11:01:16Z</time>
</trkpt>
<trkpt lat="49.62541580200195" lon="9.080254510045052">
<ele>508.2</ele>
<time>2024-05-10T11:01:17Z</time>
</trkpt>
<trkpt lat="49.625427201390266" lon="9.080254510045052">
<ele>508.2</ele>
<time>2024-05-10T11:01:18Z</time>
</trkpt>
<trkpt lat="49.62543482892215" lon="9.080261215567589">
<ele>508.2</ele>
<time>2024-05-10T11:01:19Z</time>
</trkpt>
<trkpt lat="49.6254463121295" lon="9.080263059586288">
<ele>508.2</ele>
<time>2024-05-10T11:01:20Z</time>
</trkpt>
<trkpt lat="49.62546919472515" lon="9.080266915261744">
<ele>508.2</ele>
<time>2024-05-10T11:01:21Z</time>
</trkpt>
<trkpt lat="49.625488221645355" lon="9.080264987424016">
<ele>508.2</ele>
<time>2024-05-10T11:01:22Z</time>
</trkpt>
<trkpt lat="49.62549584917724" lon="9.080264987424016">
<ele>508.2</ele>
<time>2024-05-10T11:01:23Z</time>
</trkpt>
<trkpt lat="49.62551495991647" lon="9.080266915261744">
<ele>508.2</ele>
<time>2024-05-10T11:01:24Z</time>
</trkpt>
<trkpt lat="49.62554161436856" lon="9.080274542793632">
<ele>508.2</ele>
<time>2024-05-10T11:01:25Z</time>
</trkpt>
<trkpt lat="49.6255721244961" lon="9.080281248316169">
<ele>508.2</ele>
<time>2024-05-10T11:01:26Z</time>
</trkpt>
<trkpt lat="49.62560271844268" lon="9.080293653532864">
<ele>508.2</ele>
<time>2024-05-10T11:01:27Z</time>
</trkpt>
<trkpt lat="49.62562937289477" lon="9.080303125083448">
<ele>508.2</ele>
<time>2024-05-10T11:01:28Z</time>
</trkpt>
<trkpt lat="49.62565225549042" lon="9.080313602462413">
<ele>508.2</ele>
<time>2024-05-10T11:01:29Z</time>
</trkpt>
<trkpt lat="49.62567899376154" lon="9.080320307984948">
<ele>508.2</ele>
<time>2024-05-10T11:01:30Z</time>
</trkpt>
<trkpt lat="49.625705648213625" lon="9.080327935516834">
<ele>508.2</ele>
<time>2024-05-10T11:01:31Z</time>
</trkpt>
<trkpt lat="49.62573615834117" lon="9.080347046256064">
<ele>508.2</ele>
<time>2024-05-10T11:01:32Z</time>
</trkpt>
<trkpt lat="49.625766752287745" lon="9.080351823940871">
<ele>508.2</ele>
<time>2024-05-10T11:01:33Z</time>
</trkpt>
<trkpt lat="49.62580103427172" lon="9.080360373482108">
<ele>508.4</ele>
<time>2024-05-10T11:01:34Z</time>
</trkpt>
<trkpt lat="49.625827772542834" lon="9.080361295491455">
<ele>508.4</ele>
<time>2024-05-10T11:01:35Z</time>
</trkpt>
<trkpt lat="49.62585828267038" lon="9.080363223329186">
<ele>508.6</ele>
<time>2024-05-10T11:01:36Z</time>
</trkpt>
<trkpt lat="49.62588879279792" lon="9.080369928851724">
<ele>508.6</ele>
<time>2024-05-10T11:01:37Z</time>
</trkpt>
<trkpt lat="49.625923074781895" lon="9.080380406230688">
<ele>508.8</ele>
<time>2024-05-10T11:01:38Z</time>
</trkpt>
<trkpt lat="49.62594981305301" lon="9.080389961600304">
<ele>508.8</ele>
<time>2024-05-10T11:01:39Z</time>
</trkpt>
<trkpt lat="49.62597655132413" lon="9.08039851114154">
<ele>509</ele>
<time>2024-05-10T11:01:40Z</time>
</trkpt>
<trkpt lat="49.62601468898356" lon="9.080401360988615">
<ele>509</ele>
<time>2024-05-10T11:01:41Z</time>
</trkpt>
<trkpt lat="49.62606045417488" lon="9.080412844195962">
<ele>509.2</ele>
<time>2024-05-10T11:01:42Z</time>
</trkpt>
<trkpt lat="49.62614821270108" lon="9.08043664880097">
<ele>509.4</ele>
<time>2024-05-10T11:01:43Z</time>
</trkpt>
<trkpt lat="49.62618635036051" lon="9.080452909693122">
<ele>509.6</ele>
<time>2024-05-10T11:01:45Z</time>
</trkpt>
<trkpt lat="49.62623211555183" lon="9.080472942441702">
<ele>509.8</ele>
<time>2024-05-10T11:01:46Z</time>
</trkpt>
<trkpt lat="49.62627410888672" lon="9.080488197505474">
<ele>510</ele>
<time>2024-05-10T11:01:47Z</time>
</trkpt>
<trkpt lat="49.626319874078035" lon="9.08049481920898">
<ele>510.2</ele>
<time>2024-05-10T11:01:48Z</time>
</trkpt>
<trkpt lat="49.62636941112578" lon="9.08051200211048">
<ele>510.4</ele>
<time>2024-05-10T11:01:49Z</time>
</trkpt>
<trkpt lat="49.626415176317096" lon="9.08053488470614">
<ele>510.6</ele>
<time>2024-05-10T11:01:50Z</time>
</trkpt>
<trkpt lat="49.62646102532744" lon="9.080556845292447">
<ele>510.6</ele>
<time>2024-05-10T11:01:51Z</time>
</trkpt>
<trkpt lat="49.62651056237519" lon="9.08057302236557">
<ele>510.8</ele>
<time>2024-05-10T11:01:52Z</time>
</trkpt>
<trkpt lat="49.62656018324196" lon="9.080585427582264">
<ele>511</ele>
<time>2024-05-10T11:01:53Z</time>
</trkpt>
<trkpt lat="49.62660972028971" lon="9.080599760636687">
<ele>511.2</ele>
<time>2024-05-10T11:01:54Z</time>
</trkpt>
<trkpt lat="49.6266517136246" lon="9.08061501570046">
<ele>511.2</ele>
<time>2024-05-10T11:01:55Z</time>
</trkpt>
<trkpt lat="49.62670133449137" lon="9.08063504844904">
<ele>511.4</ele>
<time>2024-05-10T11:01:56Z</time>
</trkpt>
<trkpt lat="49.626735616475344" lon="9.080646447837353">
<ele>511.4</ele>
<time>2024-05-10T11:01:57Z</time>
</trkpt>
<trkpt lat="49.62676998227835" lon="9.08065508119762">
<ele>511.4</ele>
<time>2024-05-10T11:01:58Z</time>
</trkpt>
<trkpt lat="49.62680811993778" lon="9.080657931044698">
<ele>511.6</ele>
<time>2024-05-10T11:01:59Z</time>
</trkpt>
<trkpt lat="49.62685011327267" lon="9.08067125827074">
<ele>511.6</ele>
<time>2024-05-10T11:02:00Z</time>
</trkpt>
<trkpt lat="49.62691113352776" lon="9.080681735649703">
<ele>511.6</ele>
<time>2024-05-10T11:02:01Z</time>
</trkpt>
<trkpt lat="49.62696838192642" lon="9.080686513334513">
<ele>511.8</ele>
<time>2024-05-10T11:02:02Z</time>
</trkpt>
<trkpt lat="49.62702177464962" lon="9.08069321885705">
<ele>511.8</ele>
<time>2024-05-10T11:02:03Z</time>
</trkpt>
<trkpt lat="49.62707516737282" lon="9.080697996541858">
<ele>512</ele>
<time>2024-05-10T11:02:04Z</time>
</trkpt>
<trkpt lat="49.627128560096025" lon="9.080710401758552">
<ele>512</ele>
<time>2024-05-10T11:02:05Z</time>
</trkpt>
<trkpt lat="49.62718195281923" lon="9.080719873309135">
<ele>512</ele>
<time>2024-05-10T11:02:06Z</time>
</trkpt>
<trkpt lat="49.627227718010545" lon="9.080726578831673">
<ele>512</ele>
<time>2024-05-10T11:02:07Z</time>
</trkpt>
<trkpt lat="49.62727348320186" lon="9.080737056210635">
<ele>512.2</ele>
<time>2024-05-10T11:02:08Z</time>
</trkpt>
<trkpt lat="49.62731547653675" lon="9.080744683742523">
<ele>512.2</ele>
<time>2024-05-10T11:02:09Z</time>
</trkpt>
<trkpt lat="49.62736886925995" lon="9.080764716491103">
<ele>512.4</ele>
<time>2024-05-10T11:02:10Z</time>
</trkpt>
<trkpt lat="49.627426117658615" lon="9.080793298780918">
<ele>512.599</ele>
<time>2024-05-10T11:02:11Z</time>
</trkpt>
<trkpt lat="49.62748336605728" lon="9.0808114875108">
<ele>512.599</ele>
<time>2024-05-10T11:02:12Z</time>
</trkpt>
<trkpt lat="49.627525275573134" lon="9.08082858659327">
<ele>512.8</ele>
<time>2024-05-10T11:02:13Z</time>
</trkpt>
<trkpt lat="49.627567268908024" lon="9.080844847485425">
<ele>512.8</ele>
<time>2024-05-10T11:02:14Z</time>
</trkpt>
<trkpt lat="49.62761303409934" lon="9.08084861934185">
<ele>513</ele>
<time>2024-05-10T11:02:15Z</time>
</trkpt>
<trkpt lat="49.62766265496611" lon="9.080858174711466">
<ele>513</ele>
<time>2024-05-10T11:02:16Z</time>
</trkpt>
<trkpt lat="49.627719819545746" lon="9.080873429775238">
<ele>513</ele>
<time>2024-05-10T11:02:17Z</time>
</trkpt>
<trkpt lat="49.627780839800835" lon="9.080886840820313">
<ele>513</ele>
<time>2024-05-10T11:02:18Z</time>
</trkpt>
<trkpt lat="49.62783046066761" lon="9.080902095884085">
<ele>513</ele>
<time>2024-05-10T11:02:19Z</time>
</trkpt>
<trkpt lat="49.6278724540025" lon="9.080900168046355">
<ele>512.8</ele>
<time>2024-05-10T11:02:20Z</time>
</trkpt>
<trkpt lat="49.627918219193816" lon="9.080913495272398">
<ele>512.599</ele>
<time>2024-05-10T11:02:21Z</time>
</trkpt>
<trkpt lat="49.62797161191702" lon="9.080918272957206">
<ele>512.599</ele>
<time>2024-05-10T11:02:22Z</time>
</trkpt>
<trkpt lat="49.628017377108335" lon="9.080916345119476">
<ele>512.4</ele>
<time>2024-05-10T11:02:23Z</time>
</trkpt>
<trkpt lat="49.628074625507" lon="9.080922044813631">
<ele>512.4</ele>
<time>2024-05-10T11:02:24Z</time>
</trkpt>
<trkpt lat="49.628116535022855" lon="9.080936377868056">
<ele>512.2</ele>
<time>2024-05-10T11:02:25Z</time>
</trkpt>
<trkpt lat="49.628158528357744" lon="9.080960266292095">
<ele>512</ele>
<time>2024-05-10T11:02:26Z</time>
</trkpt>
<trkpt lat="49.628196666017175" lon="9.080983148887752">
<ele>512</ele>
<time>2024-05-10T11:02:27Z</time>
</trkpt>
<trkpt lat="49.628234803676605" lon="9.080996476113796">
<ele>512</ele>
<time>2024-05-10T11:02:28Z</time>
</trkpt>
<trkpt lat="49.62826916947961" lon="9.081013659015298">
<ele>511.8</ele>
<time>2024-05-10T11:02:29Z</time>
</trkpt>
<trkpt lat="49.628314934670925" lon="9.081021286547184">
<ele>511.8</ele>
<time>2024-05-10T11:02:30Z</time>
</trkpt>
<trkpt lat="49.62836069986224" lon="9.08102790825069">
<ele>511.8</ele>
<time>2024-05-10T11:02:31Z</time>
</trkpt>
<trkpt lat="49.62840269319713" lon="9.081034613773229">
<ele>511.8</ele>
<time>2024-05-10T11:02:32Z</time>
</trkpt>
<trkpt lat="49.62844845838845" lon="9.08102790825069">
<ele>511.8</ele>
<time>2024-05-10T11:02:33Z</time>
</trkpt>
<trkpt lat="49.62849799543619" lon="9.081021286547184">
<ele>511.8</ele>
<time>2024-05-10T11:02:34Z</time>
</trkpt>
<trkpt lat="49.62854761630297" lon="9.081023214384912">
<ele>511.8</ele>
<time>2024-05-10T11:02:35Z</time>
</trkpt>
<trkpt lat="49.62859723716974" lon="9.081021286547184">
<ele>511.8</ele>
<time>2024-05-10T11:02:36Z</time>
</trkpt>
<trkpt lat="49.628646774217486" lon="9.081001253798604">
<ele>511.8</ele>
<time>2024-05-10T11:02:37Z</time>
</trkpt>
<trkpt lat="49.628692623227835" lon="9.08098792657256">
<ele>511.8</ele>
<time>2024-05-10T11:02:38Z</time>
</trkpt>
<trkpt lat="49.62874216027558" lon="9.080980299040675">
<ele>512</ele>
<time>2024-05-10T11:02:39Z</time>
</trkpt>
<trkpt lat="49.62879940867424" lon="9.0809668879956">
<ele>512</ele>
<time>2024-05-10T11:02:40Z</time>
</trkpt>
<trkpt lat="49.6288413181901" lon="9.080954482778909">
<ele>512.2</ele>
<time>2024-05-10T11:02:41Z</time>
</trkpt>
<trkpt lat="49.62887953966856" lon="9.080941155552864">
<ele>512.4</ele>
<time>2024-05-10T11:02:42Z</time>
</trkpt>
<trkpt lat="49.628910049796104" lon="9.080934450030329">
<ele>512.4</ele>
<time>2024-05-10T11:02:43Z</time>
</trkpt>
<trkpt lat="49.62894433178008" lon="9.080923050642014">
<ele>512.599</ele>
<time>2024-05-10T11:02:44Z</time>
</trkpt>
<trkpt lat="49.62897484190762" lon="9.08090972341597">
<ele>512.8</ele>
<time>2024-05-10T11:02:45Z</time>
</trkpt>
<trkpt lat="49.62901683524251" lon="9.080882063135505">
<ele>513</ele>
<time>2024-05-10T11:02:46Z</time>
</trkpt>
<trkpt lat="49.629062600433826" lon="9.08084962517023">
<ele>513.2</ele>
<time>2024-05-10T11:02:47Z</time>
</trkpt>
<trkpt lat="49.62910459376872" lon="9.080816265195608">
<ele>513.4</ele>
<time>2024-05-10T11:02:48Z</time>
</trkpt>
<trkpt lat="49.629142731428146" lon="9.080781899392605">
<ele>513.4</ele>
<time>2024-05-10T11:02:49Z</time>
</trkpt>
<trkpt lat="49.62917701341212" lon="9.08075331710279">
<ele>513.599</ele>
<time>2024-05-10T11:02:50Z</time>
</trkpt>
<trkpt lat="49.62921137921512" lon="9.080718029290438">
<ele>513.599</ele>
<time>2024-05-10T11:02:51Z</time>
</trkpt>
<trkpt lat="49.629245745018125" lon="9.080684585496783">
<ele>513.8</ele>
<time>2024-05-10T11:02:52Z</time>
</trkpt>
<trkpt lat="49.62927239947021" lon="9.080646447837353">
<ele>513.8</ele>
<time>2024-05-10T11:02:53Z</time>
</trkpt>
<trkpt lat="49.62929913774133" lon="9.080611160025">
<ele>513.8</ele>
<time>2024-05-10T11:02:54Z</time>
</trkpt>
<trkpt lat="49.6293334197253" lon="9.0805749502033">
<ele>514</ele>
<time>2024-05-10T11:02:55Z</time>
</trkpt>
<trkpt lat="49.629364013671875" lon="9.080538740381598">
<ele>514</ele>
<time>2024-05-10T11:02:56Z</time>
</trkpt>
<trkpt lat="49.62939829565585" lon="9.080503452569246">
<ele>514</ele>
<time>2024-05-10T11:02:57Z</time>
</trkpt>
<trkpt lat="49.62942880578339" lon="9.080466236919165">
<ele>514</ele>
<time>2024-05-10T11:02:58Z</time>
</trkpt>
<trkpt lat="49.629463171586394" lon="9.080421393737195">
<ele>514</ele>
<time>2024-05-10T11:02:59Z</time>
</trkpt>
<trkpt lat="49.62949368171394" lon="9.08037655055523">
<ele>514</ele>
<time>2024-05-10T11:03:00Z</time>
</trkpt>
<trkpt lat="49.62952796369791" lon="9.080340340733528">
<ele>514</ele>
<time>2024-05-10T11:03:01Z</time>
</trkpt>
<trkpt lat="49.629558557644486" lon="9.080300275236368">
<ele>514</ele>
<time>2024-05-10T11:03:02Z</time>
</trkpt>
<trkpt lat="49.62958906777203" lon="9.080264987424016">
<ele>514</ele>
<time>2024-05-10T11:03:03Z</time>
</trkpt>
<trkpt lat="49.629619577899575" lon="9.080229699611664">
<ele>514</ele>
<time>2024-05-10T11:03:04Z</time>
</trkpt>
<trkpt lat="49.62964246049523" lon="9.080195417627692">
<ele>514</ele>
<time>2024-05-10T11:03:05Z</time>
</trkpt>
<trkpt lat="49.62966534309089" lon="9.080162979662418">
<ele>514</ele>
<time>2024-05-10T11:03:06Z</time>
</trkpt>
<trkpt lat="49.62968437001109" lon="9.08014009706676">
<ele>514</ele>
<time>2024-05-10T11:03:07Z</time>
</trkpt>
<trkpt lat="49.62970348075032" lon="9.080122914165258">
<ele>514.2</ele>
<time>2024-05-10T11:03:08Z</time>
</trkpt>
<trkpt lat="49.62972259148955" lon="9.08009617589414">
<ele>514.2</ele>
<time>2024-05-10T11:03:09Z</time>
</trkpt>
<trkpt lat="49.6297531016171" lon="9.08005803823471">
<ele>514.4</ele>
<time>2024-05-10T11:03:10Z</time>
</trkpt>
<trkpt lat="49.62977975606918" lon="9.080028533935549">
<ele>514.4</ele>
<time>2024-05-10T11:03:11Z</time>
</trkpt>
<trkpt lat="49.62981412187219" lon="9.0799998678267">
<ele>514.599</ele>
<time>2024-05-10T11:03:12Z</time>
</trkpt>
<trkpt lat="49.62985603138805" lon="9.079966507852076">
<ele>514.8</ele>
<time>2024-05-10T11:03:13Z</time>
</trkpt>
<trkpt lat="49.62989039719105" lon="9.079930298030376">
<ele>515</ele>
<time>2024-05-10T11:03:14Z</time>
</trkpt>
<trkpt lat="49.62992090731859" lon="9.079896854236722">
<ele>515.2</ele>
<time>2024-05-10T11:03:15Z</time>
</trkpt>
<trkpt lat="49.62995141744614" lon="9.079856872558594">
<ele>515.4</ele>
<time>2024-05-10T11:03:16Z</time>
</trkpt>
<trkpt lat="49.62998578324914" lon="9.079814879223704">
<ele>515.4</ele>
<time>2024-05-10T11:03:17Z</time>
</trkpt>
<trkpt lat="49.63001629337669" lon="9.079778669402003">
<ele>515.599</ele>
<time>2024-05-10T11:03:18Z</time>
</trkpt>
<trkpt lat="49.63004680350423" lon="9.079739525914192">
<ele>515.8</ele>
<time>2024-05-10T11:03:19Z</time>
</trkpt>
<trkpt lat="49.63007731363177" lon="9.07970616593957">
<ele>515.8</ele>
<time>2024-05-10T11:03:20Z</time>
</trkpt>
<trkpt lat="49.63010782375932" lon="9.079673727974296">
<ele>516</ele>
<time>2024-05-10T11:03:21Z</time>
</trkpt>
<trkpt lat="49.63013833388686" lon="9.079640367999671">
<ele>516</ele>
<time>2024-05-10T11:03:22Z</time>
</trkpt>
<trkpt lat="49.630168844014406" lon="9.079603152349591">
<ele>516</ele>
<time>2024-05-10T11:03:23Z</time>
</trkpt>
<trkpt lat="49.63019935414195" lon="9.079563086852431">
<ele>516.2</ele>
<time>2024-05-10T11:03:24Z</time>
</trkpt>
<trkpt lat="49.63022994808853" lon="9.07952687703073">
<ele>516.2</ele>
<time>2024-05-10T11:03:25Z</time>
</trkpt>
<trkpt lat="49.63025660254061" lon="9.07948681153357">
<ele>516.2</ele>
<time>2024-05-10T11:03:26Z</time>
</trkpt>
<trkpt lat="49.63028711266816" lon="9.079449595883489">
<ele>516.2</ele>
<time>2024-05-10T11:03:27Z</time>
</trkpt>
<trkpt lat="49.6303176227957" lon="9.079415313899515">
<ele>516.2</ele>
<time>2024-05-10T11:03:28Z</time>
</trkpt>
<trkpt lat="49.630348132923245" lon="9.079378098249435">
<ele>516.4</ele>
<time>2024-05-10T11:03:29Z</time>
</trkpt>
<trkpt lat="49.63037864305079" lon="9.079343732446432">
<ele>516.4</ele>
<time>2024-05-10T11:03:30Z</time>
</trkpt>
<trkpt lat="49.63040538132191" lon="9.07930844463408">
<ele>516.599</ele>
<time>2024-05-10T11:03:31Z</time>
</trkpt>
<trkpt lat="49.63043589144945" lon="9.079277012497188">
<ele>516.599</ele>
<time>2024-05-10T11:03:32Z</time>
</trkpt>
<trkpt lat="49.63046640157699" lon="9.07925027422607">
<ele>516.8</ele>
<time>2024-05-10T11:03:33Z</time>
</trkpt>
<trkpt lat="49.63049691170454" lon="9.079221691936256">
<ele>516.8</ele>
<time>2024-05-10T11:03:34Z</time>
</trkpt>
<trkpt lat="49.6305197943002" lon="9.079188331961632">
<ele>516.8</ele>
<time>2024-05-10T11:03:35Z</time>
</trkpt>
<trkpt lat="49.63054653257131" lon="9.07915304414928">
<ele>516.8</ele>
<time>2024-05-10T11:03:36Z</time>
</trkpt>
<trkpt lat="49.63057327084243" lon="9.079118678346276">
<ele>516.8</ele>
<time>2024-05-10T11:03:37Z</time>
</trkpt>
<trkpt lat="49.63060378096998" lon="9.079081462696196">
<ele>516.599</ele>
<time>2024-05-10T11:03:38Z</time>
</trkpt>
<trkpt lat="49.63063429109752" lon="9.079046174883842">
<ele>516.599</ele>
<time>2024-05-10T11:03:39Z</time>
</trkpt>
<trkpt lat="49.630664801225066" lon="9.079008037224412">
<ele>516.599</ele>
<time>2024-05-10T11:03:40Z</time>
</trkpt>
<trkpt lat="49.63069531135261" lon="9.07896989956498">
<ele>516.599</ele>
<time>2024-05-10T11:03:41Z</time>
</trkpt>
<trkpt lat="49.630725821480155" lon="9.078931761905553">
<ele>516.599</ele>
<time>2024-05-10T11:03:42Z</time>
</trkpt>
<trkpt lat="49.63076018728316" lon="9.078898401930928">
<ele>516.599</ele>
<time>2024-05-10T11:03:43Z</time>
</trkpt>
<trkpt lat="49.6307906974107" lon="9.078863114118576">
<ele>516.599</ele>
<time>2024-05-10T11:03:44Z</time>
</trkpt>
<trkpt lat="49.63081735186279" lon="9.078828748315573">
<ele>516.4</ele>
<time>2024-05-10T11:03:45Z</time>
</trkpt>
<trkpt lat="49.630844090133905" lon="9.07879346050322">
<ele>516.4</ele>
<time>2024-05-10T11:03:46Z</time>
</trkpt>
<trkpt lat="49.63087460026145" lon="9.078760100528598">
<ele>516.599</ele>
<time>2024-05-10T11:03:47Z</time>
</trkpt>
<trkpt lat="49.630905110388994" lon="9.078728668391705">
<ele>516.599</ele>
<time>2024-05-10T11:03:48Z</time>
</trkpt>
<trkpt lat="49.63093184866011" lon="9.07869815826416">
<ele>516.599</ele>
<time>2024-05-10T11:03:49Z</time>
</trkpt>
<trkpt lat="49.6309585031122" lon="9.078668570145965">
<ele>516.8</ele>
<time>2024-05-10T11:03:50Z</time>
</trkpt>
<trkpt lat="49.630985241383314" lon="9.07863705419004">
<ele>516.8</ele>
<time>2024-05-10T11:03:51Z</time>
</trkpt>
<trkpt lat="49.63101575151086" lon="9.078601766377687">
<ele>517</ele>
<time>2024-05-10T11:03:52Z</time>
</trkpt>
<trkpt lat="49.6310462616384" lon="9.078568406403065">
<ele>517</ele>
<time>2024-05-10T11:03:53Z</time>
</trkpt>
<trkpt lat="49.63107677176595" lon="9.078533118590713">
<ele>517.2</ele>
<time>2024-05-10T11:03:54Z</time>
</trkpt>
<trkpt lat="49.631103510037065" lon="9.07850168645382">
<ele>517.2</ele>
<time>2024-05-10T11:03:55Z</time>
</trkpt>
<trkpt lat="49.631160674616694" lon="9.07843966037035">
<ele>517.2</ele>
<time>2024-05-10T11:03:56Z</time>
</trkpt>
<trkpt lat="49.63119118474424" lon="9.078403450548649">
<ele>517.4</ele>
<time>2024-05-10T11:03:58Z</time>
</trkpt>
<trkpt lat="49.63122169487178" lon="9.078370090574026">
<ele>517.4</ele>
<time>2024-05-10T11:03:59Z</time>
</trkpt>
<trkpt lat="49.6312484331429" lon="9.078336646780372">
<ele>517.4</ele>
<time>2024-05-10T11:04:00Z</time>
</trkpt>
<trkpt lat="49.63127517141402" lon="9.078305214643478">
<ele>517.4</ele>
<time>2024-05-10T11:04:01Z</time>
</trkpt>
<trkpt lat="49.6313018258661" lon="9.078274704515934">
<ele>517.599</ele>
<time>2024-05-10T11:04:02Z</time>
</trkpt>
<trkpt lat="49.631320936605334" lon="9.078247966244817">
<ele>517.8</ele>
<time>2024-05-10T11:04:03Z</time>
</trkpt>
<trkpt lat="49.631339963525534" lon="9.078229861333966">
<ele>517.8</ele>
<time>2024-05-10T11:04:04Z</time>
</trkpt>
<trkpt lat="49.631359074264765" lon="9.078205050900578">
<ele>517.8</ele>
<time>2024-05-10T11:04:05Z</time>
</trkpt>
<trkpt lat="49.63137810118496" lon="9.078181246295571">
<ele>518</ele>
<time>2024-05-10T11:04:06Z</time>
</trkpt>
<trkpt lat="49.63140098378062" lon="9.078154508024454">
<ele>518.2</ele>
<time>2024-05-10T11:04:07Z</time>
</trkpt>
<trkpt lat="49.63142395019531" lon="9.078133553266523">
<ele>518.2</ele>
<time>2024-05-10T11:04:08Z</time>
</trkpt>
<trkpt lat="49.63144683279097" lon="9.078116370365024">
<ele>518.4</ele>
<time>2024-05-10T11:04:09Z</time>
</trkpt>
<trkpt lat="49.63146585971117" lon="9.078093487769364">
<ele>518.4</ele>
<time>2024-05-10T11:04:10Z</time>
</trkpt>
<trkpt lat="49.6314849704504" lon="9.078056272119284">
<ele>518.599</ele>
<time>2024-05-10T11:04:11Z</time>
</trkpt>
<trkpt lat="49.63150785304606" lon="9.078013356775044">
<ele>518.599</ele>
<time>2024-05-10T11:04:12Z</time>
</trkpt>
<trkpt lat="49.63152310810983" lon="9.07796859741211">
<ele>518.8</ele>
<time>2024-05-10T11:04:13Z</time>
</trkpt>
<trkpt lat="49.63154599070549" lon="9.077930375933647">
<ele>518.8</ele>
<time>2024-05-10T11:04:14Z</time>
</trkpt>
<trkpt lat="49.63156887330115" lon="9.077893244102595">
<ele>519</ele>
<time>2024-05-10T11:04:15Z</time>
</trkpt>
<trkpt lat="49.63159175589681" lon="9.077855106443169">
<ele>519</ele>
<time>2024-05-10T11:04:16Z</time>
</trkpt>
<trkpt lat="49.63162612169981" lon="9.077816884964705">
<ele>518.8</ele>
<time>2024-05-10T11:04:17Z</time>
</trkpt>
<trkpt lat="49.631652776151896" lon="9.077783524990082">
<ele>519</ele>
<time>2024-05-10T11:04:18Z</time>
</trkpt>
<trkpt lat="49.6316871419549" lon="9.077739687636496">
<ele>519</ele>
<time>2024-05-10T11:04:19Z</time>
</trkpt>
<trkpt lat="49.63172142393887" lon="9.077692916616796">
<ele>519</ele>
<time>2024-05-10T11:04:20Z</time>
</trkpt>
<trkpt lat="49.631751934066415" lon="9.07765000127256">
<ele>519</ele>
<time>2024-05-10T11:04:21Z</time>
</trkpt>
<trkpt lat="49.63177867233753" lon="9.0776080917567">
<ele>519.2</ele>
<time>2024-05-10T11:04:22Z</time>
</trkpt>
<trkpt lat="49.63180155493319" lon="9.077580431476235">
<ele>519.2</ele>
<time>2024-05-10T11:04:23Z</time>
</trkpt>
<trkpt lat="49.63182443752885" lon="9.077551765367389">
<ele>519.4</ele>
<time>2024-05-10T11:04:24Z</time>
</trkpt>
<trkpt lat="49.631851175799966" lon="9.077518405392766">
<ele>519.4</ele>
<time>2024-05-10T11:04:25Z</time>
</trkpt>
<trkpt lat="49.63188168592751" lon="9.07747456803918">
<ele>519.599</ele>
<time>2024-05-10T11:04:26Z</time>
</trkpt>
<trkpt lat="49.6319083403796" lon="9.077436430379748">
<ele>519.8</ele>
<time>2024-05-10T11:04:27Z</time>
</trkpt>
<trkpt lat="49.63193507865071" lon="9.077400136739016">
<ele>520</ele>
<time>2024-05-10T11:04:28Z</time>
</trkpt>
<trkpt lat="49.63195796124637" lon="9.077364848926663">
<ele>520</ele>
<time>2024-05-10T11:04:29Z</time>
</trkpt>
<trkpt lat="49.63197321631014" lon="9.07733148895204">
<ele>520</ele>
<time>2024-05-10T11:04:30Z</time>
</trkpt>
<trkpt lat="49.63198847137392" lon="9.077300056815147">
<ele>520</ele>
<time>2024-05-10T11:04:31Z</time>
</trkpt>
<trkpt lat="49.63199995458126" lon="9.077262841165066">
<ele>520</ele>
<time>2024-05-10T11:04:32Z</time>
</trkpt>
<trkpt lat="49.63202283717692" lon="9.077217997983098">
<ele>520</ele>
<time>2024-05-10T11:04:33Z</time>
</trkpt>
<trkpt lat="49.63204186409712" lon="9.077181788161395">
<ele>519.8</ele>
<time>2024-05-10T11:04:34Z</time>
</trkpt>
<trkpt lat="49.63206474669278" lon="9.077137866988778">
<ele>519.8</ele>
<time>2024-05-10T11:04:35Z</time>
</trkpt>
<trkpt lat="49.63209525682032" lon="9.077091179788113">
<ele>519.8</ele>
<time>2024-05-10T11:04:36Z</time>
</trkpt>
<trkpt lat="49.6321258507669" lon="9.077041558921335">
<ele>519.599</ele>
<time>2024-05-10T11:04:37Z</time>
</trkpt>
<trkpt lat="49.63215636089444" lon="9.0769986435771">
<ele>519.599</ele>
<time>2024-05-10T11:04:38Z</time>
</trkpt>
<trkpt lat="49.63218301534653" lon="9.076954806223512">
<ele>519.599</ele>
<time>2024-05-10T11:04:39Z</time>
</trkpt>
<trkpt lat="49.63220975361765" lon="9.076901413500307">
<ele>519.4</ele>
<time>2024-05-10T11:04:40Z</time>
</trkpt>
<trkpt lat="49.63224026374519" lon="9.076853720471265">
<ele>519.4</ele>
<time>2024-05-10T11:04:41Z</time>
</trkpt>
<trkpt lat="49.63227077387273" lon="9.076801249757407">
<ele>519.4</ele>
<time>2024-05-10T11:04:42Z</time>
</trkpt>
<trkpt lat="49.63229365646839" lon="9.076754562556744">
<ele>519.4</ele>
<time>2024-05-10T11:04:43Z</time>
</trkpt>
<trkpt lat="49.63231653906405" lon="9.07671634107828">
<ele>519.4</ele>
<time>2024-05-10T11:04:44Z</time>
</trkpt>
<trkpt lat="49.63234327733517" lon="9.076671581715344">
<ele>519.2</ele>
<time>2024-05-10T11:04:45Z</time>
</trkpt>
<trkpt lat="49.63236993178725" lon="9.076646771281958">
<ele>519.2</ele>
<time>2024-05-10T11:04:46Z</time>
</trkpt>
<trkpt lat="49.63238904252648" lon="9.076636293902991">
<ele>519.2</ele>
<time>2024-05-10T11:04:47Z</time>
</trkpt>
<trkpt lat="49.63239667005837" lon="9.076633444055917">
<ele>519.2</ele>
<time>2024-05-10T11:04:48Z</time>
</trkpt>
<trkpt lat="49.6324004419148" lon="9.076633444055917">
<ele>519.2</ele>
<time>2024-05-10T11:04:49Z</time>
</trkpt>
<trkpt lat="49.63240806944668" lon="9.076633444055917">
<ele>519.2</ele>
<time>2024-05-10T11:04:50Z</time>
</trkpt>
<trkpt lat="49.63241192512214" lon="9.076633444055917">
<ele>519.2</ele>
<time>2024-05-10T11:04:51Z</time>
</trkpt>
<trkpt lat="49.63241955265403" lon="9.076635288074613">
<ele>519.2</ele>
<time>2024-05-10T11:04:52Z</time>
</trkpt>
<trkpt lat="49.63241955265403" lon="9.076636293902991">
<ele>519</ele>
<time>2024-05-10T11:04:53Z</time>
</trkpt>
<trkpt lat="49.632423324510455" lon="9.076636293902991">
<ele>519</ele>
<time>2024-05-10T11:04:54Z</time>
</trkpt>
<trkpt lat="49.632427180185914" lon="9.076636293902991">
<ele>518.8</ele>
<time>2024-05-10T11:04:57Z</time>
</trkpt>
<trkpt lat="49.63243095204234" lon="9.076638221740724">
<ele>518.599</ele>
<time>2024-05-10T11:04:58Z</time>
</trkpt>
<trkpt lat="49.6324348077178" lon="9.076638221740724">
<ele>518.4</ele>
<time>2024-05-10T11:04:59Z</time>
</trkpt>
<trkpt lat="49.63243857957423" lon="9.076638221740724">
<ele>518.2</ele>
<time>2024-05-10T11:05:01Z</time>
</trkpt>
<trkpt lat="49.632442435249686" lon="9.076636293902991">
<ele>518</ele>
<time>2024-05-10T11:05:08Z</time>
</trkpt>
<trkpt lat="49.632442435249686" lon="9.076638221740724">
<ele>517.599</ele>
<time>2024-05-10T11:05:09Z</time>
</trkpt>
<trkpt lat="49.632442435249686" lon="9.07664006575942">
<ele>517.4</ele>
<time>2024-05-10T11:05:11Z</time>
</trkpt>
<trkpt lat="49.632442435249686" lon="9.07664199359715">
<ele>517.2</ele>
<time>2024-05-10T11:05:12Z</time>
</trkpt>
<trkpt lat="49.63244620710611" lon="9.0766429156065">
<ele>516.8</ele>
<time>2024-05-10T11:05:13Z</time>
</trkpt>
<trkpt lat="49.63244620710611" lon="9.076644843444228">
<ele>516.599</ele>
<time>2024-05-10T11:05:15Z</time>
</trkpt>
<trkpt lat="49.63244620710611" lon="9.076646771281958">
<ele>516.4</ele>
<time>2024-05-10T11:05:17Z</time>
</trkpt>
<trkpt lat="49.63244620710611" lon="9.076644843444228">
<ele>516.2</ele>
<time>2024-05-10T11:05:19Z</time>
</trkpt>
<trkpt lat="49.63244620710611" lon="9.0766429156065">
<ele>516</ele>
<time>2024-05-10T11:05:21Z</time>
</trkpt>
<trkpt lat="49.63244620710611" lon="9.076644843444228">
<ele>515.599</ele>
<time>2024-05-10T11:05:22Z</time>
</trkpt>
<trkpt lat="49.63244620710611" lon="9.0766429156065">
<ele>515.4</ele>
<time>2024-05-10T11:05:29Z</time>
</trkpt>
<trkpt lat="49.63245006278157" lon="9.0766429156065">
<ele>515.2</ele>
<time>2024-05-10T11:05:31Z</time>
</trkpt>
<trkpt lat="49.63244620710611" lon="9.0766429156065">
<ele>515</ele>
<time>2024-05-10T11:05:32Z</time>
</trkpt>
<trkpt lat="49.632442435249686" lon="9.0766429156065">
<ele>515</ele>
<time>2024-05-10T11:05:33Z</time>
</trkpt>
<trkpt lat="49.63244620710611" lon="9.0766429156065">
<ele>514.8</ele>
<time>2024-05-10T11:05:34Z</time>
</trkpt>
<trkpt lat="49.63244620710611" lon="9.07664199359715">
<ele>514.8</ele>
<time>2024-05-10T11:05:35Z</time>
</trkpt>
<trkpt lat="49.63245006278157" lon="9.07664199359715">
<ele>514.599</ele>
<time>2024-05-10T11:05:37Z</time>
</trkpt>
<trkpt lat="49.63244620710611" lon="9.07664199359715">
<ele>514.599</ele>
<time>2024-05-10T11:05:38Z</time>
</trkpt>
<trkpt lat="49.63243857957423" lon="9.07664199359715">
<ele>514.8</ele>
<time>2024-05-10T11:05:39Z</time>
</trkpt>
<trkpt lat="49.63243857957423" lon="9.0766429156065">
<ele>514.8</ele>
<time>2024-05-10T11:05:40Z</time>
</trkpt>
<trkpt lat="49.6324348077178" lon="9.0766429156065">
<ele>514.8</ele>
<time>2024-05-10T11:05:41Z</time>
</trkpt>
<trkpt lat="49.6324348077178" lon="9.076644843444228">
<ele>514.8</ele>
<time>2024-05-10T11:05:42Z</time>
</trkpt>
<trkpt lat="49.6324348077178" lon="9.076646771281958">
<ele>514.8</ele>
<time>2024-05-10T11:05:43Z</time>
</trkpt>
<trkpt lat="49.63243095204234" lon="9.076646771281958">
<ele>514.8</ele>
<time>2024-05-10T11:05:44Z</time>
</trkpt>
<trkpt lat="49.6324348077178" lon="9.076646771281958">
<ele>514.8</ele>
<time>2024-05-10T11:05:45Z</time>
</trkpt>
<trkpt lat="49.63243095204234" lon="9.076646771281958">
<ele>514.8</ele>
<time>2024-05-10T11:05:46Z</time>
</trkpt>
<trkpt lat="49.63243095204234" lon="9.076644843444228">
<ele>514.8</ele>
<time>2024-05-10T11:05:47Z</time>
</trkpt>
<trkpt lat="49.632427180185914" lon="9.0766429156065">
<ele>514.8</ele>
<time>2024-05-10T11:05:48Z</time>
</trkpt>
<trkpt lat="49.63243095204234" lon="9.07664006575942">
<ele>515</ele>
<time>2024-05-10T11:05:49Z</time>
</trkpt>
<trkpt lat="49.63243857957423" lon="9.076628666371109">
<ele>515</ele>
<time>2024-05-10T11:05:50Z</time>
</trkpt>
<trkpt lat="49.63245391845703" lon="9.07660000026226">
<ele>515.2</ele>
<time>2024-05-10T11:05:51Z</time>
</trkpt>
<trkpt lat="49.6324691735208" lon="9.076571417972444">
<ele>515.2</ele>
<time>2024-05-10T11:05:52Z</time>
</trkpt>
<trkpt lat="49.632484428584576" lon="9.076538057997825">
<ele>515.4</ele>
<time>2024-05-10T11:05:53Z</time>
</trkpt>
<trkpt lat="49.63249582797289" lon="9.076497992500665">
<ele>515.4</ele>
<time>2024-05-10T11:05:54Z</time>
</trkpt>
<trkpt lat="49.632507311180234" lon="9.07646362669766">
<ele>515.4</ele>
<time>2024-05-10T11:05:55Z</time>
</trkpt>
<trkpt lat="49.63251871056855" lon="9.076431272551416">
<ele>515.599</ele>
<time>2024-05-10T11:05:56Z</time>
</trkpt>
<trkpt lat="49.63252633810043" lon="9.076401684433222">
<ele>515.599</ele>
<time>2024-05-10T11:05:57Z</time>
</trkpt>
<trkpt lat="49.63253782130778" lon="9.076365390792487">
<ele>515.599</ele>
<time>2024-05-10T11:05:58Z</time>
</trkpt>
<trkpt lat="49.63254922069609" lon="9.076341586187482">
<ele>515.8</ele>
<time>2024-05-10T11:05:59Z</time>
</trkpt>
<trkpt lat="49.632564475759864" lon="9.076310154050589">
<ele>516</ele>
<time>2024-05-10T11:06:00Z</time>
</trkpt>
<trkpt lat="49.63257595896721" lon="9.076281487941742">
<ele>516.2</ele>
<time>2024-05-10T11:06:01Z</time>
</trkpt>
<trkpt lat="49.63259498588741" lon="9.07624812796712">
<ele>516.2</ele>
<time>2024-05-10T11:06:02Z</time>
</trkpt>
<trkpt lat="49.63261024095118" lon="9.076196663081646">
<ele>516.4</ele>
<time>2024-05-10T11:06:03Z</time>
</trkpt>
<trkpt lat="49.63263320736587" lon="9.076149892061949">
<ele>516.599</ele>
<time>2024-05-10T11:06:04Z</time>
</trkpt>
<trkpt lat="49.63265986181795" lon="9.076109826564789">
<ele>516.599</ele>
<time>2024-05-10T11:06:05Z</time>
</trkpt>
<trkpt lat="49.63268660008907" lon="9.076061211526394">
<ele>516.8</ele>
<time>2024-05-10T11:06:06Z</time>
</trkpt>
<trkpt lat="49.632720882073045" lon="9.076003041118383">
<ele>517</ele>
<time>2024-05-10T11:06:07Z</time>
</trkpt>
<trkpt lat="49.63274762034416" lon="9.075960125774143">
<ele>517.2</ele>
<time>2024-05-10T11:06:08Z</time>
</trkpt>
<trkpt lat="49.632778130471706" lon="9.075915282592176">
<ele>517.4</ele>
<time>2024-05-10T11:06:09Z</time>
</trkpt>
<trkpt lat="49.632804868742824" lon="9.075864739716051">
<ele>517.4</ele>
<time>2024-05-10T11:06:10Z</time>
</trkpt>
<trkpt lat="49.63283152319491" lon="9.07581327483058">
<ele>517.599</ele>
<time>2024-05-10T11:06:11Z</time>
</trkpt>
<trkpt lat="49.63286203332245" lon="9.075757954269648">
<ele>517.8</ele>
<time>2024-05-10T11:06:12Z</time>
</trkpt>
<trkpt lat="49.63288877159357" lon="9.07571118324995">
<ele>518</ele>
<time>2024-05-10T11:06:13Z</time>
</trkpt>
<trkpt lat="49.632915426045656" lon="9.07565301284194">
<ele>518.2</ele>
<time>2024-05-10T11:06:14Z</time>
</trkpt>
<trkpt lat="49.63294216431677" lon="9.075605319812894">
<ele>518.4</ele>
<time>2024-05-10T11:06:15Z</time>
</trkpt>
<trkpt lat="49.63298415765166" lon="9.075558632612228">
<ele>518.599</ele>
<time>2024-05-10T11:06:16Z</time>
</trkpt>
<trkpt lat="49.63301466777921" lon="9.075512867420912">
<ele>518.8</ele>
<time>2024-05-10T11:06:17Z</time>
</trkpt>
<trkpt lat="49.63304894976318" lon="9.075465174391866">
<ele>518.8</ele>
<time>2024-05-10T11:06:18Z</time>
</trkpt>
<trkpt lat="49.63308331556618" lon="9.075421253219249">
<ele>519</ele>
<time>2024-05-10T11:06:19Z</time>
</trkpt>
<trkpt lat="49.63310997001827" lon="9.07537456601858">
<ele>519</ele>
<time>2024-05-10T11:06:20Z</time>
</trkpt>
<trkpt lat="49.63314433582127" lon="9.075327794998884">
<ele>519</ele>
<time>2024-05-10T11:06:21Z</time>
</trkpt>
<trkpt lat="49.63316721841693" lon="9.075286807492375">
<ele>519</ele>
<time>2024-05-10T11:06:22Z</time>
</trkpt>
<trkpt lat="49.63320158421993" lon="9.075244897976518">
<ele>519</ele>
<time>2024-05-10T11:06:23Z</time>
</trkpt>
<trkpt lat="49.63323972187936" lon="9.075202904641628">
<ele>518.8</ele>
<time>2024-05-10T11:06:24Z</time>
</trkpt>
<trkpt lat="49.633277859538794" lon="9.07516191713512">
<ele>518.599</ele>
<time>2024-05-10T11:06:25Z</time>
</trkpt>
<trkpt lat="49.63330836966634" lon="9.075123779475687">
<ele>518.4</ele>
<time>2024-05-10T11:06:26Z</time>
</trkpt>
<trkpt lat="49.63333887979388" lon="9.0750817861408">
<ele>518.4</ele>
<time>2024-05-10T11:06:27Z</time>
</trkpt>
<trkpt lat="49.63336938992143" lon="9.075046498328447">
<ele>518.2</ele>
<time>2024-05-10T11:06:28Z</time>
</trkpt>
<trkpt lat="49.63340375572443" lon="9.075003582984207">
<ele>518.2</ele>
<time>2024-05-10T11:06:29Z</time>
</trkpt>
<trkpt lat="49.633434265851974" lon="9.07496158964932">
<ele>518</ele>
<time>2024-05-10T11:06:30Z</time>
</trkpt>
<trkpt lat="49.63346092030406" lon="9.07492537982762">
<ele>518</ele>
<time>2024-05-10T11:06:31Z</time>
</trkpt>
<trkpt lat="49.63349151425064" lon="9.074890092015266">
<ele>517.8</ele>
<time>2024-05-10T11:06:32Z</time>
</trkpt>
<trkpt lat="49.63352579623461" lon="9.07484625466168">
<ele>517.8</ele>
<time>2024-05-10T11:06:33Z</time>
</trkpt>
<trkpt lat="49.63356393389404" lon="9.074808117002249">
<ele>517.8</ele>
<time>2024-05-10T11:06:34Z</time>
</trkpt>
<trkpt lat="49.63360207155347" lon="9.074771823361516">
<ele>517.8</ele>
<time>2024-05-10T11:06:35Z</time>
</trkpt>
<trkpt lat="49.63364406488836" lon="9.074736535549164">
<ele>517.599</ele>
<time>2024-05-10T11:06:36Z</time>
</trkpt>
<trkpt lat="49.63367843069136" lon="9.074701247736812">
<ele>517.599</ele>
<time>2024-05-10T11:06:37Z</time>
</trkpt>
<trkpt lat="49.63371656835079" lon="9.07466311007738">
<ele>517.599</ele>
<time>2024-05-10T11:06:38Z</time>
</trkpt>
<trkpt lat="49.63374322280288" lon="9.07462304458022">
<ele>517.4</ele>
<time>2024-05-10T11:06:39Z</time>
</trkpt>
<trkpt lat="49.63378136046231" lon="9.07458297908306">
<ele>517.4</ele>
<time>2024-05-10T11:06:40Z</time>
</trkpt>
<trkpt lat="49.63381572626531" lon="9.07454484142363">
<ele>517.4</ele>
<time>2024-05-10T11:06:41Z</time>
</trkpt>
<trkpt lat="49.633850092068315" lon="9.074511481449008">
<ele>517.4</ele>
<time>2024-05-10T11:06:42Z</time>
</trkpt>
<trkpt lat="49.633888229727745" lon="9.074476193636656">
<ele>517.599</ele>
<time>2024-05-10T11:06:43Z</time>
</trkpt>
<trkpt lat="49.63392251171172" lon="9.074438055977224">
<ele>517.599</ele>
<time>2024-05-10T11:06:44Z</time>
</trkpt>
<trkpt lat="49.63395687751472" lon="9.07440846785903">
<ele>517.4</ele>
<time>2024-05-10T11:06:45Z</time>
</trkpt>
<trkpt lat="49.633983531966805" lon="9.074377957731484">
<ele>517.2</ele>
<time>2024-05-10T11:06:46Z</time>
</trkpt>
<trkpt lat="49.63401027023792" lon="9.074357002973557">
<ele>517.2</ele>
<time>2024-05-10T11:06:47Z</time>
</trkpt>
<trkpt lat="49.63404078036547" lon="9.074333114549518">
<ele>517</ele>
<time>2024-05-10T11:06:48Z</time>
</trkpt>
<trkpt lat="49.634067518636584" lon="9.07431023195386">
<ele>517</ele>
<time>2024-05-10T11:06:49Z</time>
</trkpt>
<trkpt lat="49.63409040123224" lon="9.074294976890087">
<ele>516.8</ele>
<time>2024-05-10T11:06:50Z</time>
</trkpt>
<trkpt lat="49.6341132838279" lon="9.074276871979237">
<ele>517</ele>
<time>2024-05-10T11:06:51Z</time>
</trkpt>
<trkpt lat="49.634139938279986" lon="9.074258767068386">
<ele>517</ele>
<time>2024-05-10T11:06:52Z</time>
</trkpt>
<trkpt lat="49.634166676551104" lon="9.074232028797269">
<ele>517</ele>
<time>2024-05-10T11:06:53Z</time>
</trkpt>
<trkpt lat="49.63419341482222" lon="9.074203446507454">
<ele>517</ele>
<time>2024-05-10T11:06:54Z</time>
</trkpt>
<trkpt lat="49.634220069274306" lon="9.074178636074066">
<ele>517.2</ele>
<time>2024-05-10T11:06:55Z</time>
</trkpt>
<trkpt lat="49.634242951869965" lon="9.074148125946522">
<ele>517.2</ele>
<time>2024-05-10T11:06:56Z</time>
</trkpt>
<trkpt lat="49.63426969014108" lon="9.07413287088275">
<ele>517</ele>
<time>2024-05-10T11:06:57Z</time>
</trkpt>
<trkpt lat="49.63429257273674" lon="9.074125243350863">
<ele>517</ele>
<time>2024-05-10T11:06:58Z</time>
</trkpt>
<trkpt lat="49.6343154553324" lon="9.074108060449362">
<ele>517.2</ele>
<time>2024-05-10T11:06:59Z</time>
</trkpt>
<trkpt lat="49.63433833792806" lon="9.07409473322332">
<ele>517.4</ele>
<time>2024-05-10T11:07:00Z</time>
</trkpt>
<trkpt lat="49.6343688480556" lon="9.07407470047474">
<ele>517.599</ele>
<time>2024-05-10T11:07:01Z</time>
</trkpt>
<trkpt lat="49.63440321385861" lon="9.074047962203622">
<ele>517.8</ele>
<time>2024-05-10T11:07:02Z</time>
</trkpt>
<trkpt lat="49.63442986831069" lon="9.074014602229">
<ele>517.8</ele>
<time>2024-05-10T11:07:03Z</time>
</trkpt>
<trkpt lat="49.63445660658181" lon="9.07399171963334">
<ele>517.8</ele>
<time>2024-05-10T11:07:04Z</time>
</trkpt>
<trkpt lat="49.63448326103389" lon="9.073963137343526">
<ele>517.8</ele>
<time>2024-05-10T11:07:05Z</time>
</trkpt>
<trkpt lat="49.63451385498047" lon="9.0739316213876">
<ele>517.599</ele>
<time>2024-05-10T11:07:06Z</time>
</trkpt>
<trkpt lat="49.634555764496326" lon="9.073898261412978">
<ele>517.4</ele>
<time>2024-05-10T11:07:07Z</time>
</trkpt>
<trkpt lat="49.63458627462387" lon="9.07387345097959">
<ele>517.2</ele>
<time>2024-05-10T11:07:08Z</time>
</trkpt>
<trkpt lat="49.634616784751415" lon="9.073849646374583">
<ele>517</ele>
<time>2024-05-10T11:07:09Z</time>
</trkpt>
<trkpt lat="49.63464729487896" lon="9.073822908103466">
<ele>517</ele>
<time>2024-05-10T11:07:10Z</time>
</trkpt>
<trkpt lat="49.63467017747462" lon="9.073804803192616">
<ele>516.8</ele>
<time>2024-05-10T11:07:11Z</time>
</trkpt>
<trkpt lat="49.634696915745735" lon="9.073789548128843">
<ele>516.8</ele>
<time>2024-05-10T11:07:12Z</time>
</trkpt>
<trkpt lat="49.63472742587328" lon="9.073773371055722">
<ele>516.8</ele>
<time>2024-05-10T11:07:13Z</time>
</trkpt>
<trkpt lat="49.63476179167628" lon="9.073751410469413">
<ele>516.8</ele>
<time>2024-05-10T11:07:14Z</time>
</trkpt>
<trkpt lat="49.63479992933571" lon="9.073726600036023">
<ele>516.599</ele>
<time>2024-05-10T11:07:15Z</time>
</trkpt>
<trkpt lat="49.63483043946326" lon="9.073706567287443">
<ele>516.4</ele>
<time>2024-05-10T11:07:16Z</time>
</trkpt>
<trkpt lat="49.63486480526626" lon="9.073686534538863">
<ele>516.4</ele>
<time>2024-05-10T11:07:17Z</time>
</trkpt>
<trkpt lat="49.634895315393806" lon="9.073661724105476">
<ele>516.2</ele>
<time>2024-05-10T11:07:18Z</time>
</trkpt>
<trkpt lat="49.63492959737778" lon="9.073646469041703">
<ele>516</ele>
<time>2024-05-10T11:07:19Z</time>
</trkpt>
<trkpt lat="49.63496010750532" lon="9.073626436293123">
<ele>516</ele>
<time>2024-05-10T11:07:20Z</time>
</trkpt>
<trkpt lat="49.63498684577644" lon="9.073608331382276">
<ele>515.8</ele>
<time>2024-05-10T11:07:21Z</time>
</trkpt>
<trkpt lat="49.6350097283721" lon="9.07357689924538">
<ele>515.8</ele>
<time>2024-05-10T11:07:22Z</time>
</trkpt>
<trkpt lat="49.6350440941751" lon="9.073552088811994">
<ele>516</ele>
<time>2024-05-10T11:07:23Z</time>
</trkpt>
<trkpt lat="49.635074604302645" lon="9.07353683374822">
<ele>516.2</ele>
<time>2024-05-10T11:07:24Z</time>
</trkpt>
<trkpt lat="49.635108886286616" lon="9.07351680099964">
<ele>516.4</ele>
<time>2024-05-10T11:07:25Z</time>
</trkpt>
<trkpt lat="49.63513939641416" lon="9.07349676825106">
<ele>516.599</ele>
<time>2024-05-10T11:07:26Z</time>
</trkpt>
<trkpt lat="49.63517376221717" lon="9.07348344102502">
<ele>516.8</ele>
<time>2024-05-10T11:07:27Z</time>
</trkpt>
<trkpt lat="49.63520050048828" lon="9.07346340827644">
<ele>516.8</ele>
<time>2024-05-10T11:07:28Z</time>
</trkpt>
<trkpt lat="49.63522715494037" lon="9.07344337552786">
<ele>516.8</ele>
<time>2024-05-10T11:07:29Z</time>
</trkpt>
<trkpt lat="49.63525389321149" lon="9.073426192626355">
<ele>516.8</ele>
<time>2024-05-10T11:07:30Z</time>
</trkpt>
<trkpt lat="49.635292030870914" lon="9.07340138219297">
<ele>516.8</ele>
<time>2024-05-10T11:07:31Z</time>
</trkpt>
<trkpt lat="49.635326312854886" lon="9.073385205119848">
<ele>516.8</ele>
<time>2024-05-10T11:07:32Z</time>
</trkpt>
<trkpt lat="49.635368306189775" lon="9.073367100208998">
<ele>516.8</ele>
<time>2024-05-10T11:07:33Z</time>
</trkpt>
<trkpt lat="49.63540267199278" lon="9.073345139622688">
<ele>516.599</ele>
<time>2024-05-10T11:07:34Z</time>
</trkpt>
<trkpt lat="49.63543695397675" lon="9.0733203291893">
<ele>516.599</ele>
<time>2024-05-10T11:07:35Z</time>
</trkpt>
<trkpt lat="49.63547894731164" lon="9.07330029644072">
<ele>516.599</ele>
<time>2024-05-10T11:07:36Z</time>
</trkpt>
<trkpt lat="49.63551708497107" lon="9.073276491835712">
<ele>516.8</ele>
<time>2024-05-10T11:07:37Z</time>
</trkpt>
<trkpt lat="49.635551450774074" lon="9.07326123677194">
<ele>516.8</ele>
<time>2024-05-10T11:07:38Z</time>
</trkpt>
<trkpt lat="49.63558196090162" lon="9.073236426338552">
<ele>517</ele>
<time>2024-05-10T11:07:39Z</time>
</trkpt>
<trkpt lat="49.63561624288559" lon="9.073207844048738">
<ele>517</ele>
<time>2024-05-10T11:07:40Z</time>
</trkpt>
<trkpt lat="49.635646753013134" lon="9.073180183768272">
<ele>517</ele>
<time>2024-05-10T11:07:41Z</time>
</trkpt>
<trkpt lat="49.63567726314068" lon="9.073155373334885">
<ele>517.2</ele>
<time>2024-05-10T11:07:42Z</time>
</trkpt>
<trkpt lat="49.63571548461914" lon="9.073129640892148">
<ele>517.2</ele>
<time>2024-05-10T11:07:43Z</time>
</trkpt>
<trkpt lat="49.63574976660311" lon="9.073101980611682">
<ele>517.2</ele>
<time>2024-05-10T11:07:44Z</time>
</trkpt>
<trkpt lat="49.63578790426254" lon="9.073073314502835">
<ele>517.4</ele>
<time>2024-05-10T11:07:45Z</time>
</trkpt>
<trkpt lat="49.635822270065546" lon="9.07304473221302">
<ele>517.4</ele>
<time>2024-05-10T11:07:46Z</time>
</trkpt>
<trkpt lat="49.63586040772498" lon="9.073023777455091">
<ele>517.4</ele>
<time>2024-05-10T11:07:47Z</time>
</trkpt>
<trkpt lat="49.63589477352798" lon="9.07300659455359">
<ele>517.599</ele>
<time>2024-05-10T11:07:48Z</time>
</trkpt>
<trkpt lat="49.635921427980065" lon="9.072999889031053">
<ele>517.599</ele>
<time>2024-05-10T11:07:49Z</time>
</trkpt>
<trkpt lat="49.63595579378307" lon="9.07298656180501">
<ele>517.599</ele>
<time>2024-05-10T11:07:50Z</time>
</trkpt>
<trkpt lat="49.63599007576704" lon="9.072971306741238">
<ele>517.599</ele>
<time>2024-05-10T11:07:51Z</time>
</trkpt>
<trkpt lat="49.63601681403816" lon="9.072955129668117">
<ele>517.8</ele>
<time>2024-05-10T11:07:52Z</time>
</trkpt>
<trkpt lat="49.63605495169759" lon="9.07292646355927">
<ele>517.599</ele>
<time>2024-05-10T11:07:53Z</time>
</trkpt>
<trkpt lat="49.636100716888905" lon="9.072897881269457">
<ele>517.599</ele>
<time>2024-05-10T11:07:54Z</time>
</trkpt>
<trkpt lat="49.63615033775568" lon="9.072871142998338">
<ele>517.599</ele>
<time>2024-05-10T11:07:55Z</time>
</trkpt>
<trkpt lat="49.63618847541511" lon="9.072852116078138">
<ele>517.4</ele>
<time>2024-05-10T11:07:56Z</time>
</trkpt>
<trkpt lat="49.63622661307454" lon="9.072821605950594">
<ele>517.4</ele>
<time>2024-05-10T11:07:57Z</time>
</trkpt>
<trkpt lat="49.636260978877544" lon="9.072796795517206">
<ele>517.4</ele>
<time>2024-05-10T11:07:58Z</time>
</trkpt>
<trkpt lat="49.6363028883934" lon="9.072770057246087">
<ele>517.4</ele>
<time>2024-05-10T11:07:59Z</time>
</trkpt>
<trkpt lat="49.63634488172829" lon="9.072754802182317">
<ele>517.599</ele>
<time>2024-05-10T11:08:00Z</time>
</trkpt>
<trkpt lat="49.63638679124415" lon="9.072734769433737">
<ele>517.599</ele>
<time>2024-05-10T11:08:01Z</time>
</trkpt>
<trkpt lat="49.636417385190725" lon="9.07271289266646">
<ele>517.599</ele>
<time>2024-05-10T11:08:02Z</time>
</trkpt>
<trkpt lat="49.63644789531827" lon="9.072688082233071">
<ele>517.4</ele>
<time>2024-05-10T11:08:03Z</time>
</trkpt>
<trkpt lat="49.63648217730224" lon="9.072665199637411">
<ele>517.4</ele>
<time>2024-05-10T11:08:04Z</time>
</trkpt>
<trkpt lat="49.636512687429786" lon="9.072645166888831">
<ele>517.2</ele>
<time>2024-05-10T11:08:05Z</time>
</trkpt>
<trkpt lat="49.63654319755733" lon="9.072625134140251">
<ele>517</ele>
<time>2024-05-10T11:08:06Z</time>
</trkpt>
<trkpt lat="49.63656993582845" lon="9.072607029229404">
<ele>516.8</ele>
<time>2024-05-10T11:08:07Z</time>
</trkpt>
<trkpt lat="49.636596674099565" lon="9.072587918490171">
<ele>516.8</ele>
<time>2024-05-10T11:08:08Z</time>
</trkpt>
<trkpt lat="49.63661955669522" lon="9.072574591264129">
<ele>516.8</ele>
<time>2024-05-10T11:08:09Z</time>
</trkpt>
<trkpt lat="49.63664621114731" lon="9.072554558515549">
<ele>516.599</ele>
<time>2024-05-10T11:08:10Z</time>
</trkpt>
<trkpt lat="49.63668057695031" lon="9.072534525766969">
<ele>516.8</ele>
<time>2024-05-10T11:08:11Z</time>
</trkpt>
<trkpt lat="49.6367072314024" lon="9.072521198540926">
<ele>516.8</ele>
<time>2024-05-10T11:08:12Z</time>
</trkpt>
<trkpt lat="49.636733969673514" lon="9.072503009811044">
<ele>516.8</ele>
<time>2024-05-10T11:08:13Z</time>
</trkpt>
<trkpt lat="49.63676833547652" lon="9.072482055053117">
<ele>517</ele>
<time>2024-05-10T11:08:14Z</time>
</trkpt>
<trkpt lat="49.6367949899286" lon="9.072462022304537">
<ele>517.2</ele>
<time>2024-05-10T11:08:15Z</time>
</trkpt>
<trkpt lat="49.63682172819972" lon="9.07244961708784">
<ele>517.4</ele>
<time>2024-05-10T11:08:16Z</time>
</trkpt>
<trkpt lat="49.636848382651806" lon="9.072438217699528">
<ele>517.4</ele>
<time>2024-05-10T11:08:17Z</time>
</trkpt>
<trkpt lat="49.63688274845481" lon="9.072422962635756">
<ele>517.599</ele>
<time>2024-05-10T11:08:18Z</time>
</trkpt>
<trkpt lat="49.636913258582354" lon="9.072402929887176">
<ele>517.599</ele>
<time>2024-05-10T11:08:19Z</time>
</trkpt>
<trkpt lat="49.63694762438536" lon="9.072386668995025">
<ele>517.8</ele>
<time>2024-05-10T11:08:20Z</time>
</trkpt>
<trkpt lat="49.6369781345129" lon="9.07237334176898">
<ele>518</ele>
<time>2024-05-10T11:08:21Z</time>
</trkpt>
<trkpt lat="49.63700478896499" lon="9.072358086705208">
<ele>518.2</ele>
<time>2024-05-10T11:08:22Z</time>
</trkpt>
<trkpt lat="49.63703529909253" lon="9.072348531335592">
<ele>518.2</ele>
<time>2024-05-10T11:08:23Z</time>
</trkpt>
<trkpt lat="49.63705818168819" lon="9.072339981794356">
<ele>518.2</ele>
<time>2024-05-10T11:08:24Z</time>
</trkpt>
<trkpt lat="49.63708491995931" lon="9.072328498587012">
<ele>518.2</ele>
<time>2024-05-10T11:08:25Z</time>
</trkpt>
<trkpt lat="49.637111658230424" lon="9.072304693982003">
<ele>518.2</ele>
<time>2024-05-10T11:08:26Z</time>
</trkpt>
<trkpt lat="49.63713454082608" lon="9.072284661233423">
<ele>518.4</ele>
<time>2024-05-10T11:08:27Z</time>
</trkpt>
<trkpt lat="49.63716505095363" lon="9.07225700095296">
<ele>518.4</ele>
<time>2024-05-10T11:08:28Z</time>
</trkpt>
<trkpt lat="49.63720318861306" lon="9.072228418663144">
<ele>518.4</ele>
<time>2024-05-10T11:08:29Z</time>
</trkpt>
<trkpt lat="49.63724132627249" lon="9.072203608229756">
<ele>518.599</ele>
<time>2024-05-10T11:08:30Z</time>
</trkpt>
<trkpt lat="49.63727946393192" lon="9.07217787578702">
<ele>518.599</ele>
<time>2024-05-10T11:08:31Z</time>
</trkpt>
<trkpt lat="49.63731760159135" lon="9.07215499319136">
<ele>518.599</ele>
<time>2024-05-10T11:08:32Z</time>
</trkpt>
<trkpt lat="49.63735196739435" lon="9.072126327082517">
<ele>518.599</ele>
<time>2024-05-10T11:08:33Z</time>
</trkpt>
<trkpt lat="49.63739010505378" lon="9.072098666802049">
<ele>518.599</ele>
<time>2024-05-10T11:08:34Z</time>
</trkpt>
<trkpt lat="49.63742824271321" lon="9.072074862197042">
<ele>518.8</ele>
<time>2024-05-10T11:08:35Z</time>
</trkpt>
<trkpt lat="49.637462608516216" lon="9.072058601304889">
<ele>518.8</ele>
<time>2024-05-10T11:08:36Z</time>
</trkpt>
<trkpt lat="49.63749311864376" lon="9.072045274078846">
<ele>519</ele>
<time>2024-05-10T11:08:37Z</time>
</trkpt>
<trkpt lat="49.637519773095846" lon="9.072034796699882">
<ele>518.8</ele>
<time>2024-05-10T11:08:38Z</time>
</trkpt>
<trkpt lat="49.63755028322339" lon="9.07202146947384">
<ele>519</ele>
<time>2024-05-10T11:08:39Z</time>
</trkpt>
<trkpt lat="49.637580793350935" lon="9.072009986266494">
<ele>519</ele>
<time>2024-05-10T11:08:40Z</time>
</trkpt>
<trkpt lat="49.63761138729751" lon="9.071988025680184">
<ele>519</ele>
<time>2024-05-10T11:08:41Z</time>
</trkpt>
<trkpt lat="49.637641897425056" lon="9.071963299065828">
<ele>519</ele>
<time>2024-05-10T11:08:42Z</time>
</trkpt>
<trkpt lat="49.63767617940903" lon="9.07193848863244">
<ele>519</ele>
<time>2024-05-10T11:08:43Z</time>
</trkpt>
<trkpt lat="49.63771054521203" lon="9.071903200820088">
<ele>519</ele>
<time>2024-05-10T11:08:44Z</time>
</trkpt>
<trkpt lat="49.637744827196" lon="9.07186028547585">
<ele>519</ele>
<time>2024-05-10T11:08:45Z</time>
</trkpt>
<trkpt lat="49.63776770979166" lon="9.07182021997869">
<ele>519.2</ele>
<time>2024-05-10T11:08:46Z</time>
</trkpt>
<trkpt lat="49.63779830373824" lon="9.071788787841797">
<ele>519.2</ele>
<time>2024-05-10T11:08:47Z</time>
</trkpt>
<trkpt lat="49.63782881386578" lon="9.071749644353986">
<ele>519.2</ele>
<time>2024-05-10T11:08:48Z</time>
</trkpt>
<trkpt lat="49.637859323993325" lon="9.07172005623579">
<ele>519.4</ele>
<time>2024-05-10T11:08:49Z</time>
</trkpt>
<trkpt lat="49.63789746165275" lon="9.07170195132494">
<ele>519.599</ele>
<time>2024-05-10T11:08:50Z</time>
</trkpt>
<trkpt lat="49.63792411610484" lon="9.07168191857636">
<ele>519.8</ele>
<time>2024-05-10T11:08:51Z</time>
</trkpt>
<trkpt lat="49.63794708251953" lon="9.071658113971353">
<ele>519.8</ele>
<time>2024-05-10T11:08:52Z</time>
</trkpt>
<trkpt lat="49.63796610943973" lon="9.071644702926278">
<ele>519.8</ele>
<time>2024-05-10T11:08:53Z</time>
</trkpt>
<trkpt lat="49.63798522017896" lon="9.071630453690886">
<ele>519.8</ele>
<time>2024-05-10T11:08:54Z</time>
</trkpt>
<trkpt lat="49.63800810277462" lon="9.071610420942308">
<ele>519.8</ele>
<time>2024-05-10T11:08:55Z</time>
</trkpt>
<trkpt lat="49.63802712969482" lon="9.071588460355995">
<ele>519.8</ele>
<time>2024-05-10T11:08:56Z</time>
</trkpt>
<trkpt lat="49.63805001229048" lon="9.071566499769688">
<ele>519.8</ele>
<time>2024-05-10T11:08:57Z</time>
</trkpt>
<trkpt lat="49.638076750561595" lon="9.07154361717403">
<ele>519.8</ele>
<time>2024-05-10T11:08:58Z</time>
</trkpt>
<trkpt lat="49.63810340501368" lon="9.071517884731293">
<ele>520</ele>
<time>2024-05-10T11:08:59Z</time>
</trkpt>
<trkpt lat="49.63813399896026" lon="9.071495002135634">
<ele>520</ele>
<time>2024-05-10T11:09:00Z</time>
</trkpt>
<trkpt lat="49.6381645090878" lon="9.071473041549323">
<ele>520</ele>
<time>2024-05-10T11:09:01Z</time>
</trkpt>
<trkpt lat="49.63819116353989" lon="9.071450158953668">
<ele>520</ele>
<time>2024-05-10T11:09:02Z</time>
</trkpt>
<trkpt lat="49.63822167366743" lon="9.07142635434866">
<ele>520.2</ele>
<time>2024-05-10T11:09:03Z</time>
</trkpt>
<trkpt lat="49.63824841193855" lon="9.071399616077542">
<ele>520</ele>
<time>2024-05-10T11:09:04Z</time>
</trkpt>
<trkpt lat="49.638275066390634" lon="9.071378661319612">
<ele>520</ele>
<time>2024-05-10T11:09:05Z</time>
</trkpt>
<trkpt lat="49.63829803280533" lon="9.071358628571032">
<ele>520</ele>
<time>2024-05-10T11:09:06Z</time>
</trkpt>
<trkpt lat="49.63832854293287" lon="9.071334823966026">
<ele>520</ele>
<time>2024-05-10T11:09:07Z</time>
</trkpt>
<trkpt lat="49.638351425528526" lon="9.07130523584783">
<ele>520</ele>
<time>2024-05-10T11:09:08Z</time>
</trkpt>
<trkpt lat="49.63837807998061" lon="9.07128998078406">
<ele>519.8</ele>
<time>2024-05-10T11:09:09Z</time>
</trkpt>
<trkpt lat="49.63840859010816" lon="9.071271875873208">
<ele>519.8</ele>
<time>2024-05-10T11:09:10Z</time>
</trkpt>
<trkpt lat="49.63844295591116" lon="9.07124320976436">
<ele>519.599</ele>
<time>2024-05-10T11:09:11Z</time>
</trkpt>
<trkpt lat="49.638473466038704" lon="9.071218483150004">
<ele>519.599</ele>
<time>2024-05-10T11:09:12Z</time>
</trkpt>
<trkpt lat="49.63850397616625" lon="9.071193672716618">
<ele>519.599</ele>
<time>2024-05-10T11:09:13Z</time>
</trkpt>
<trkpt lat="49.63853834196925" lon="9.071165006607773">
<ele>519.599</ele>
<time>2024-05-10T11:09:14Z</time>
</trkpt>
<trkpt lat="49.63856499642134" lon="9.071136424317956">
<ele>519.599</ele>
<time>2024-05-10T11:09:15Z</time>
</trkpt>
<trkpt lat="49.63859550654888" lon="9.071113541722298">
<ele>519.599</ele>
<time>2024-05-10T11:09:16Z</time>
</trkpt>
<trkpt lat="49.63862224482" lon="9.07108680345118">
<ele>519.599</ele>
<time>2024-05-10T11:09:17Z</time>
</trkpt>
<trkpt lat="49.63864512741566" lon="9.071062076836824">
<ele>519.599</ele>
<time>2024-05-10T11:09:18Z</time>
</trkpt>
<trkpt lat="49.638668010011315" lon="9.071042044088244">
<ele>519.599</ele>
<time>2024-05-10T11:09:19Z</time>
</trkpt>
<trkpt lat="49.63869474828243" lon="9.071024861186745">
<ele>519.8</ele>
<time>2024-05-10T11:09:20Z</time>
</trkpt>
<trkpt lat="49.6387290302664" lon="9.070998122915626">
<ele>519.8</ele>
<time>2024-05-10T11:09:21Z</time>
</trkpt>
<trkpt lat="49.63875954039395" lon="9.07096954062581">
<ele>519.8</ele>
<time>2024-05-10T11:09:22Z</time>
</trkpt>
<trkpt lat="49.63879005052149" lon="9.070942802354692">
<ele>519.8</ele>
<time>2024-05-10T11:09:23Z</time>
</trkpt>
<trkpt lat="49.63882064446807" lon="9.070917069911957">
<ele>519.8</ele>
<time>2024-05-10T11:09:24Z</time>
</trkpt>
<trkpt lat="49.638847298920155" lon="9.07089133746922">
<ele>519.8</ele>
<time>2024-05-10T11:09:25Z</time>
</trkpt>
<trkpt lat="49.63887018151581" lon="9.070864599198105">
<ele>520</ele>
<time>2024-05-10T11:09:26Z</time>
</trkpt>
<trkpt lat="49.63889306411147" lon="9.070843644440174">
<ele>520</ele>
<time>2024-05-10T11:09:27Z</time>
</trkpt>
<trkpt lat="49.6389121748507" lon="9.070817911997436">
<ele>520</ele>
<time>2024-05-10T11:09:28Z</time>
</trkpt>
<trkpt lat="49.63893882930279" lon="9.070786396041512">
<ele>520</ele>
<time>2024-05-10T11:09:29Z</time>
</trkpt>
<trkpt lat="49.63895794004202" lon="9.070763513445854">
<ele>520</ele>
<time>2024-05-10T11:09:30Z</time>
</trkpt>
<trkpt lat="49.63897705078125" lon="9.070738786831498">
<ele>519.8</ele>
<time>2024-05-10T11:09:31Z</time>
</trkpt>
<trkpt lat="49.63899993337691" lon="9.07071297056973">
<ele>519.8</ele>
<time>2024-05-10T11:09:32Z</time>
</trkpt>
<trkpt lat="49.63901896029711" lon="9.070688243955374">
<ele>519.599</ele>
<time>2024-05-10T11:09:33Z</time>
</trkpt>
<trkpt lat="49.63904947042465" lon="9.070663433521986">
<ele>519.8</ele>
<time>2024-05-10T11:09:34Z</time>
</trkpt>
<trkpt lat="49.63907620869577" lon="9.070641472935677">
<ele>519.599</ele>
<time>2024-05-10T11:09:35Z</time>
</trkpt>
<trkpt lat="49.639102863147855" lon="9.070623368024826">
<ele>519.8</ele>
<time>2024-05-10T11:09:36Z</time>
</trkpt>
<trkpt lat="49.63912960141897" lon="9.070610040798783">
<ele>519.8</ele>
<time>2024-05-10T11:09:37Z</time>
</trkpt>
<trkpt lat="49.63916011154651" lon="9.070588080212474">
<ele>520</ele>
<time>2024-05-10T11:09:38Z</time>
</trkpt>
<trkpt lat="49.639182994142175" lon="9.070565197616816">
<ele>520</ele>
<time>2024-05-10T11:09:39Z</time>
</trkpt>
<trkpt lat="49.63919824920595" lon="9.070548014715314">
<ele>520.2</ele>
<time>2024-05-10T11:09:40Z</time>
</trkpt>
<trkpt lat="49.63921350426972" lon="9.070536531507967">
<ele>520.4</ele>
<time>2024-05-10T11:09:41Z</time>
</trkpt>
<trkpt lat="49.63923638686538" lon="9.070529909804463">
<ele>520.8</ele>
<time>2024-05-10T11:09:42Z</time>
</trkpt>
<trkpt lat="49.63925164192915" lon="9.07051658257842">
<ele>521</ele>
<time>2024-05-10T11:09:43Z</time>
</trkpt>
<trkpt lat="49.639282152056694" lon="9.070507027208803">
<ele>521</ele>
<time>2024-05-10T11:09:44Z</time>
</trkpt>
<trkpt lat="49.63930889032781" lon="9.070500321686268">
<ele>521.2</ele>
<time>2024-05-10T11:09:45Z</time>
</trkpt>
<trkpt lat="49.63933177292347" lon="9.070471739396451">
<ele>521.2</ele>
<time>2024-05-10T11:09:46Z</time>
</trkpt>
<trkpt lat="49.6393699105829" lon="9.070440223440528">
<ele>521.2</ele>
<time>2024-05-10T11:09:47Z</time>
</trkpt>
<trkpt lat="49.63939664885402" lon="9.070413568988442">
<ele>521.2</ele>
<time>2024-05-10T11:09:48Z</time>
</trkpt>
<trkpt lat="49.63943093083799" lon="9.070391608402131">
<ele>521.2</ele>
<time>2024-05-10T11:09:49Z</time>
</trkpt>
<trkpt lat="49.639457669109106" lon="9.070363026112318">
<ele>521.2</ele>
<time>2024-05-10T11:09:50Z</time>
</trkpt>
<trkpt lat="49.63949203491211" lon="9.070341987535356">
<ele>521.4</ele>
<time>2024-05-10T11:09:51Z</time>
</trkpt>
<trkpt lat="49.63952631689608" lon="9.07031818293035">
<ele>521.599</ele>
<time>2024-05-10T11:09:52Z</time>
</trkpt>
<trkpt lat="49.6395720820874" lon="9.070286750793455">
<ele>521.599</ele>
<time>2024-05-10T11:09:53Z</time>
</trkpt>
<trkpt lat="49.63961407542229" lon="9.070264790207148">
<ele>521.8</ele>
<time>2024-05-10T11:09:54Z</time>
</trkpt>
<trkpt lat="49.63964072987437" lon="9.070248529314997">
<ele>522</ele>
<time>2024-05-10T11:09:55Z</time>
</trkpt>
<trkpt lat="49.63966746814549" lon="9.07022187486291">
<ele>522</ele>
<time>2024-05-10T11:09:56Z</time>
</trkpt>
<trkpt lat="49.63969420641661" lon="9.070195136591792">
<ele>522.2</ele>
<time>2024-05-10T11:09:57Z</time>
</trkpt>
<trkpt lat="49.63972471654415" lon="9.070166554301975">
<ele>522.4</ele>
<time>2024-05-10T11:09:58Z</time>
</trkpt>
<trkpt lat="49.639755226671696" lon="9.070128416642548">
<ele>522.599</ele>
<time>2024-05-10T11:09:59Z</time>
</trkpt>
<trkpt lat="49.639793364331126" lon="9.070096900686622">
<ele>522.8</ele>
<time>2024-05-10T11:10:00Z</time>
</trkpt>
<trkpt lat="49.63983150199056" lon="9.070070246234536">
<ele>522.8</ele>
<time>2024-05-10T11:10:01Z</time>
</trkpt>
<trkpt lat="49.63986963964999" lon="9.070039736106992">
<ele>522.8</ele>
<time>2024-05-10T11:10:02Z</time>
</trkpt>
<trkpt lat="49.63990400545299" lon="9.070008220151069">
<ele>523</ele>
<time>2024-05-10T11:10:03Z</time>
</trkpt>
<trkpt lat="49.63993828743696" lon="9.069979637861252">
<ele>523.2</ele>
<time>2024-05-10T11:10:04Z</time>
</trkpt>
<trkpt lat="49.639972653239965" lon="9.069946277886627">
<ele>523.2</ele>
<time>2024-05-10T11:10:05Z</time>
</trkpt>
<trkpt lat="49.64000701904297" lon="9.069919539615512">
<ele>523.4</ele>
<time>2024-05-10T11:10:06Z</time>
</trkpt>
<trkpt lat="49.640033673495054" lon="9.06988810747862">
<ele>523.599</ele>
<time>2024-05-10T11:10:07Z</time>
</trkpt>
<trkpt lat="49.640071811154485" lon="9.0698613692075">
<ele>523.8</ele>
<time>2024-05-10T11:10:08Z</time>
</trkpt>
<trkpt lat="49.640109948813915" lon="9.069831781089306">
<ele>524</ele>
<time>2024-05-10T11:10:09Z</time>
</trkpt>
<trkpt lat="49.64014431461692" lon="9.069813676178455">
<ele>524.2</ele>
<time>2024-05-10T11:10:10Z</time>
</trkpt>
<trkpt lat="49.64016719721258" lon="9.069794649258256">
<ele>524.2</ele>
<time>2024-05-10T11:10:11Z</time>
</trkpt>
<trkpt lat="49.64020156301558" lon="9.069776460528374">
<ele>524.4</ele>
<time>2024-05-10T11:10:12Z</time>
</trkpt>
<trkpt lat="49.64023970067501" lon="9.069741172716022">
<ele>524.4</ele>
<time>2024-05-10T11:10:13Z</time>
</trkpt>
<trkpt lat="49.640266355127096" lon="9.069713512435555">
<ele>524.4</ele>
<time>2024-05-10T11:10:14Z</time>
</trkpt>
<trkpt lat="49.64029309339821" lon="9.0696887858212">
<ele>524.4</ele>
<time>2024-05-10T11:10:15Z</time>
</trkpt>
<trkpt lat="49.64031597599387" lon="9.06966489739716">
<ele>524.6</ele>
<time>2024-05-10T11:10:16Z</time>
</trkpt>
<trkpt lat="49.640346486121416" lon="9.069643020629885">
<ele>524.6</ele>
<time>2024-05-10T11:10:17Z</time>
</trkpt>
<trkpt lat="49.64037699624896" lon="9.069621982052922">
<ele>524.6</ele>
<time>2024-05-10T11:10:18Z</time>
</trkpt>
<trkpt lat="49.64041513390839" lon="9.069593399763107">
<ele>524.8</ele>
<time>2024-05-10T11:10:19Z</time>
</trkpt>
<trkpt lat="49.640449499711394" lon="9.069564817473292">
<ele>524.8</ele>
<time>2024-05-10T11:10:20Z</time>
</trkpt>
<trkpt lat="49.640483781695366" lon="9.06954662874341">
<ele>525</ele>
<time>2024-05-10T11:10:21Z</time>
</trkpt>
<trkpt lat="49.64051814749837" lon="9.069524751976132">
<ele>525</ele>
<time>2024-05-10T11:10:22Z</time>
</trkpt>
<trkpt lat="49.64055251330137" lon="9.069495163857937">
<ele>525.2</ele>
<time>2024-05-10T11:10:23Z</time>
</trkpt>
<trkpt lat="49.640586795285344" lon="9.069464653730392">
<ele>525.2</ele>
<time>2024-05-10T11:10:24Z</time>
</trkpt>
<trkpt lat="49.64061730541289" lon="9.069439843297005">
<ele>525.2</ele>
<time>2024-05-10T11:10:25Z</time>
</trkpt>
<trkpt lat="49.64065167121589" lon="9.06941025517881">
<ele>525.2</ele>
<time>2024-05-10T11:10:26Z</time>
</trkpt>
<trkpt lat="49.64068595319986" lon="9.069381672888994">
<ele>525</ele>
<time>2024-05-10T11:10:27Z</time>
</trkpt>
<trkpt lat="49.64070891961455" lon="9.069359712302685">
<ele>525.2</ele>
<time>2024-05-10T11:10:28Z</time>
</trkpt>
<trkpt lat="49.6407394297421" lon="9.069336829707026">
<ele>525.2</ele>
<time>2024-05-10T11:10:29Z</time>
</trkpt>
<trkpt lat="49.64076993986964" lon="9.069321574643254">
<ele>525.4</ele>
<time>2024-05-10T11:10:30Z</time>
</trkpt>
<trkpt lat="49.640804221853614" lon="9.069298692047596">
<ele>525.4</ele>
<time>2024-05-10T11:10:31Z</time>
</trkpt>
<trkpt lat="49.64083473198116" lon="9.069274887442589">
<ele>525.6</ele>
<time>2024-05-10T11:10:32Z</time>
</trkpt>
<trkpt lat="49.64086909778416" lon="9.069254854694009">
<ele>525.6</ele>
<time>2024-05-10T11:10:33Z</time>
</trkpt>
<trkpt lat="49.64090723544359" lon="9.0692328941077">
<ele>525.8</ele>
<time>2024-05-10T11:10:34Z</time>
</trkpt>
<trkpt lat="49.64094537310302" lon="9.06921193934977">
<ele>526</ele>
<time>2024-05-10T11:10:35Z</time>
</trkpt>
<trkpt lat="49.640979738906026" lon="9.06919282861054">
<ele>526.4</ele>
<time>2024-05-10T11:10:36Z</time>
</trkpt>
<trkpt lat="49.64101024903357" lon="9.069178579375148">
<ele>526.6</ele>
<time>2024-05-10T11:10:37Z</time>
</trkpt>
<trkpt lat="49.641044614836574" lon="9.069165168330072">
<ele>526.6</ele>
<time>2024-05-10T11:10:38Z</time>
</trkpt>
<trkpt lat="49.641082752496" lon="9.069145135581492">
<ele>526.6</ele>
<time>2024-05-10T11:10:39Z</time>
</trkpt>
<trkpt lat="49.64111326262355" lon="9.069123258814216">
<ele>526.6</ele>
<time>2024-05-10T11:10:40Z</time>
</trkpt>
<trkpt lat="49.64114377275109" lon="9.069100376218556">
<ele>526.8</ele>
<time>2024-05-10T11:10:41Z</time>
</trkpt>
<trkpt lat="49.641178054735065" lon="9.06907171010971">
<ele>526.8</ele>
<time>2024-05-10T11:10:42Z</time>
</trkpt>
<trkpt lat="49.64121627621353" lon="9.069045055657623">
<ele>527</ele>
<time>2024-05-10T11:10:43Z</time>
</trkpt>
<trkpt lat="49.6412505581975" lon="9.069029800593851">
<ele>527</ele>
<time>2024-05-10T11:10:44Z</time>
</trkpt>
<trkpt lat="49.64128869585693" lon="9.06901454553008">
<ele>527.2</ele>
<time>2024-05-10T11:10:45Z</time>
</trkpt>
<trkpt lat="49.64131920598447" lon="9.06899350695312">
<ele>527.4</ele>
<time>2024-05-10T11:10:46Z</time>
</trkpt>
<trkpt lat="49.64134208858013" lon="9.06897540204227">
<ele>527.6</ele>
<time>2024-05-10T11:10:47Z</time>
</trkpt>
<trkpt lat="49.641376454383135" lon="9.06895637512207">
<ele>527.6</ele>
<time>2024-05-10T11:10:48Z</time>
</trkpt>
<trkpt lat="49.64140319265425" lon="9.06893533654511">
<ele>527.6</ele>
<time>2024-05-10T11:10:49Z</time>
</trkpt>
<trkpt lat="49.64142984710634" lon="9.068909604102371">
<ele>527.6</ele>
<time>2024-05-10T11:10:50Z</time>
</trkpt>
<trkpt lat="49.641456585377455" lon="9.068893427029252">
<ele>527.8</ele>
<time>2024-05-10T11:10:51Z</time>
</trkpt>
<trkpt lat="49.641490867361426" lon="9.068868616595864">
<ele>527.8</ele>
<time>2024-05-10T11:10:52Z</time>
</trkpt>
<trkpt lat="49.64152900502086" lon="9.068844728171824">
<ele>527.6</ele>
<time>2024-05-10T11:10:53Z</time>
</trkpt>
<trkpt lat="49.64156337082386" lon="9.068826623260977">
<ele>527.4</ele>
<time>2024-05-10T11:10:54Z</time>
</trkpt>
<trkpt lat="49.64160150848329" lon="9.068806590512397">
<ele>527.4</ele>
<time>2024-05-10T11:10:55Z</time>
</trkpt>
<trkpt lat="49.641635874286294" lon="9.068791335448624">
<ele>527.2</ele>
<time>2024-05-10T11:10:56Z</time>
</trkpt>
<trkpt lat="49.641670156270266" lon="9.06877800822258">
<ele>527.2</ele>
<time>2024-05-10T11:10:57Z</time>
</trkpt>
<trkpt lat="49.64170452207327" lon="9.068761747330427">
<ele>527.2</ele>
<time>2024-05-10T11:10:58Z</time>
</trkpt>
<trkpt lat="49.64173503220081" lon="9.068746492266657">
<ele>527.2</ele>
<time>2024-05-10T11:10:59Z</time>
</trkpt>
<trkpt lat="49.64177316986024" lon="9.068730315193534">
<ele>527.4</ele>
<time>2024-05-10T11:11:00Z</time>
</trkpt>
<trkpt lat="49.64180753566325" lon="9.068710282444954">
<ele>527.4</ele>
<time>2024-05-10T11:11:01Z</time>
</trkpt>
<trkpt lat="49.64184181764722" lon="9.068691171705725">
<ele>527.4</ele>
<time>2024-05-10T11:11:02Z</time>
</trkpt>
<trkpt lat="49.64187618345022" lon="9.068671222776176">
<ele>527.4</ele>
<time>2024-05-10T11:11:03Z</time>
</trkpt>
<trkpt lat="49.641906693577766" lon="9.068651190027596">
<ele>527.6</ele>
<time>2024-05-10T11:11:04Z</time>
</trkpt>
<trkpt lat="49.64194105938077" lon="9.068632079288363">
<ele>527.4</ele>
<time>2024-05-10T11:11:05Z</time>
</trkpt>
<trkpt lat="49.641986824572086" lon="9.068613052368164">
<ele>527.4</ele>
<time>2024-05-10T11:11:06Z</time>
</trkpt>
<trkpt lat="49.6420325897634" lon="9.068590085953474">
<ele>527.2</ele>
<time>2024-05-10T11:11:07Z</time>
</trkpt>
<trkpt lat="49.64207835495472" lon="9.06856150366366">
<ele>527.2</ele>
<time>2024-05-10T11:11:08Z</time>
</trkpt>
<trkpt lat="49.64211649261415" lon="9.068545326590538">
<ele>527.2</ele>
<time>2024-05-10T11:11:09Z</time>
</trkpt>
<trkpt lat="49.64215085841715" lon="9.068528143689036">
<ele>527.2</ele>
<time>2024-05-10T11:11:10Z</time>
</trkpt>
<trkpt lat="49.642188996076584" lon="9.068508110940456">
<ele>527.2</ele>
<time>2024-05-10T11:11:11Z</time>
</trkpt>
<trkpt lat="49.642227133736014" lon="9.068488078191876">
<ele>527.2</ele>
<time>2024-05-10T11:11:12Z</time>
</trkpt>
<trkpt lat="49.642265271395445" lon="9.068468045443296">
<ele>527.2</ele>
<time>2024-05-10T11:11:13Z</time>
</trkpt>
<trkpt lat="49.642303409054875" lon="9.068453712388871">
<ele>527.2</ele>
<time>2024-05-10T11:11:14Z</time>
</trkpt>
<trkpt lat="49.642341546714306" lon="9.068443235009909">
<ele>527.2</ele>
<time>2024-05-10T11:11:15Z</time>
</trkpt>
<trkpt lat="49.642379684373736" lon="9.068423202261329">
<ele>527.2</ele>
<time>2024-05-10T11:11:16Z</time>
</trkpt>
<trkpt lat="49.642421677708626" lon="9.068401325494053">
<ele>527.2</ele>
<time>2024-05-10T11:11:17Z</time>
</trkpt>
<trkpt lat="49.64245604351163" lon="9.068378442898393">
<ele>527.2</ele>
<time>2024-05-10T11:11:18Z</time>
</trkpt>
<trkpt lat="49.6424903254956" lon="9.068354554474354">
<ele>527.4</ele>
<time>2024-05-10T11:11:19Z</time>
</trkpt>
<trkpt lat="49.642520835623145" lon="9.068334521725774">
<ele>527.6</ele>
<time>2024-05-10T11:11:20Z</time>
</trkpt>
<trkpt lat="49.64255520142615" lon="9.068309711292386">
<ele>527.8</ele>
<time>2024-05-10T11:11:21Z</time>
</trkpt>
<trkpt lat="49.64258956722915" lon="9.068288756534455">
<ele>528</ele>
<time>2024-05-10T11:11:22Z</time>
</trkpt>
<trkpt lat="49.642620077356696" lon="9.068266795948148">
<ele>528.2</ele>
<time>2024-05-10T11:11:23Z</time>
</trkpt>
<trkpt lat="49.64265821501613" lon="9.068246763199568">
<ele>528.2</ele>
<time>2024-05-10T11:11:24Z</time>
</trkpt>
<trkpt lat="49.6426924970001" lon="9.06822488643229">
<ele>528.2</ele>
<time>2024-05-10T11:11:25Z</time>
</trkpt>
<trkpt lat="49.6427268628031" lon="9.06820292584598">
<ele>528.2</ele>
<time>2024-05-10T11:11:26Z</time>
</trkpt>
<trkpt lat="49.64276500046253" lon="9.068191526457667">
<ele>528</ele>
<time>2024-05-10T11:11:27Z</time>
</trkpt>
<trkpt lat="49.642799366265535" lon="9.068178115412593">
<ele>528</ele>
<time>2024-05-10T11:11:28Z</time>
</trkpt>
<trkpt lat="49.64282987639308" lon="9.068161938339472">
<ele>528</ele>
<time>2024-05-10T11:11:29Z</time>
</trkpt>
<trkpt lat="49.64286801405251" lon="9.0681466832757">
<ele>528</ele>
<time>2024-05-10T11:11:30Z</time>
</trkpt>
<trkpt lat="49.64290615171194" lon="9.068129500374198">
<ele>527.8</ele>
<time>2024-05-10T11:11:31Z</time>
</trkpt>
<trkpt lat="49.64294428937137" lon="9.068110389634969">
<ele>527.8</ele>
<time>2024-05-10T11:11:32Z</time>
</trkpt>
<trkpt lat="49.64299005456269" lon="9.068095134571196">
<ele>527.8</ele>
<time>2024-05-10T11:11:33Z</time>
</trkpt>
<trkpt lat="49.643035819754" lon="9.068078035488725">
<ele>527.8</ele>
<time>2024-05-10T11:11:34Z</time>
</trkpt>
<trkpt lat="49.64308158494532" lon="9.068061774596572">
<ele>527.8</ele>
<time>2024-05-10T11:11:35Z</time>
</trkpt>
<trkpt lat="49.64312743395567" lon="9.06804459169507">
<ele>527.8</ele>
<time>2024-05-10T11:11:36Z</time>
</trkpt>
<trkpt lat="49.64316934347153" lon="9.06802648678422">
<ele>527.8</ele>
<time>2024-05-10T11:11:37Z</time>
</trkpt>
<trkpt lat="49.64321133680642" lon="9.068001676350832">
<ele>527.8</ele>
<time>2024-05-10T11:11:38Z</time>
</trkpt>
<trkpt lat="49.64324947446585" lon="9.067984577268362">
<ele>527.8</ele>
<time>2024-05-10T11:11:39Z</time>
</trkpt>
<trkpt lat="49.64329909533262" lon="9.067954989150168">
<ele>527.8</ele>
<time>2024-05-10T11:11:40Z</time>
</trkpt>
<trkpt lat="49.643348632380366" lon="9.06792825087905">
<ele>527.8</ele>
<time>2024-05-10T11:11:41Z</time>
</trkpt>
<trkpt lat="49.64340588077903" lon="9.0679101459682">
<ele>527.4</ele>
<time>2024-05-10T11:11:42Z</time>
</trkpt>
<trkpt lat="49.6434555016458" lon="9.067892041057348">
<ele>527.2</ele>
<time>2024-05-10T11:11:43Z</time>
</trkpt>
<trkpt lat="49.643508894369006" lon="9.067872930318115">
<ele>527</ele>
<time>2024-05-10T11:11:44Z</time>
</trkpt>
<trkpt lat="49.64355465956032" lon="9.067856753244996">
<ele>526.8</ele>
<time>2024-05-10T11:11:45Z</time>
</trkpt>
<trkpt lat="49.643608052283525" lon="9.067834792658688">
<ele>526.6</ele>
<time>2024-05-10T11:11:46Z</time>
</trkpt>
<trkpt lat="49.64366144500673" lon="9.067818615585566">
<ele>526.6</ele>
<time>2024-05-10T11:11:47Z</time>
</trkpt>
<trkpt lat="49.64371483772993" lon="9.067798582836986">
<ele>526.6</ele>
<time>2024-05-10T11:11:48Z</time>
</trkpt>
<trkpt lat="49.64376060292125" lon="9.067774694412948">
<ele>526.4</ele>
<time>2024-05-10T11:11:49Z</time>
</trkpt>
<trkpt lat="49.64381022378802" lon="9.067754745483398">
<ele>526.4</ele>
<time>2024-05-10T11:11:50Z</time>
</trkpt>
<trkpt lat="49.643863616511226" lon="9.067743262276052">
<ele>526.4</ele>
<time>2024-05-10T11:11:51Z</time>
</trkpt>
<trkpt lat="49.64391700923443" lon="9.067734712734818">
<ele>526.4</ele>
<time>2024-05-10T11:11:52Z</time>
</trkpt>
<trkpt lat="49.64396285824478" lon="9.067721301689744">
<ele>526.2</ele>
<time>2024-05-10T11:11:53Z</time>
</trkpt>
<trkpt lat="49.644004767760634" lon="9.067701268941164">
<ele>526.2</ele>
<time>2024-05-10T11:11:54Z</time>
</trkpt>
<trkpt lat="49.64405053295195" lon="9.067683164030312">
<ele>526.2</ele>
<time>2024-05-10T11:11:55Z</time>
</trkpt>
<trkpt lat="49.64410015381873" lon="9.06767461448908">
<ele>526.2</ele>
<time>2024-05-10T11:11:56Z</time>
</trkpt>
<trkpt lat="49.64414591901004" lon="9.067661203444004">
<ele>526</ele>
<time>2024-05-10T11:11:57Z</time>
</trkpt>
<trkpt lat="49.644203167408705" lon="9.067638320848346">
<ele>526</ele>
<time>2024-05-10T11:11:58Z</time>
</trkpt>
<trkpt lat="49.64425270445645" lon="9.06761451624334">
<ele>526</ele>
<time>2024-05-10T11:11:59Z</time>
</trkpt>
<trkpt lat="49.644302325323224" lon="9.06759356148541">
<ele>526</ele>
<time>2024-05-10T11:12:00Z</time>
</trkpt>
<trkpt lat="49.64435194619" lon="9.067566823214293">
<ele>526</ele>
<time>2024-05-10T11:12:01Z</time>
</trkpt>
<trkpt lat="49.6444053389132" lon="9.067548718303442">
<ele>525.8</ele>
<time>2024-05-10T11:12:02Z</time>
</trkpt>
<trkpt lat="49.644458731636405" lon="9.067522985860704">
<ele>525.6</ele>
<time>2024-05-10T11:12:03Z</time>
</trkpt>
<trkpt lat="49.64451212435961" lon="9.067496247589588">
<ele>525.4</ele>
<time>2024-05-10T11:12:04Z</time>
</trkpt>
<trkpt lat="49.64456174522638" lon="9.067478142678738">
<ele>525.2</ele>
<time>2024-05-10T11:12:05Z</time>
</trkpt>
<trkpt lat="49.644615137949586" lon="9.067456182092428">
<ele>525</ele>
<time>2024-05-10T11:12:06Z</time>
</trkpt>
<trkpt lat="49.64466475881636" lon="9.067436149343848">
<ele>524.8</ele>
<time>2024-05-10T11:12:07Z</time>
</trkpt>
<trkpt lat="49.64471815153957" lon="9.067418044432998">
<ele>524.4</ele>
<time>2024-05-10T11:12:08Z</time>
</trkpt>
<trkpt lat="49.64476768858731" lon="9.067406645044684">
<ele>524.2</ele>
<time>2024-05-10T11:12:09Z</time>
</trkpt>
<trkpt lat="49.64481730945408" lon="9.067397089675069">
<ele>524</ele>
<time>2024-05-10T11:12:10Z</time>
</trkpt>
<trkpt lat="49.6448630746454" lon="9.067377056926489">
<ele>524</ele>
<time>2024-05-10T11:12:11Z</time>
</trkpt>
<trkpt lat="49.64490506798029" lon="9.067359874024987">
<ele>524</ele>
<time>2024-05-10T11:12:12Z</time>
</trkpt>
<trkpt lat="49.64494320563972" lon="9.067344618961217">
<ele>524</ele>
<time>2024-05-10T11:12:13Z</time>
</trkpt>
<trkpt lat="49.64497748762369" lon="9.067321736365557">
<ele>523.8</ele>
<time>2024-05-10T11:12:14Z</time>
</trkpt>
<trkpt lat="49.64499659836292" lon="9.067283598706126">
<ele>523.599</ele>
<time>2024-05-10T11:12:15Z</time>
</trkpt>
<trkpt lat="49.64500045403838" lon="9.067230205982924">
<ele>523.4</ele>
<time>2024-05-10T11:12:16Z</time>
</trkpt>
<trkpt lat="49.64498897083104" lon="9.0671796631068">
<ele>523.4</ele>
<time>2024-05-10T11:12:17Z</time>
</trkpt>
<trkpt lat="49.644973715767264" lon="9.067126270383596">
<ele>523.4</ele>
<time>2024-05-10T11:12:18Z</time>
</trkpt>
<trkpt lat="49.64494697749615" lon="9.06707664951682">
<ele>523.2</ele>
<time>2024-05-10T11:12:19Z</time>
</trkpt>
<trkpt lat="49.64492032304406" lon="9.067027028650044">
<ele>523.2</ele>
<time>2024-05-10T11:12:20Z</time>
</trkpt>
<trkpt lat="49.6448974404484" lon="9.06698034144938">
<ele>523</ele>
<time>2024-05-10T11:12:21Z</time>
</trkpt>
<trkpt lat="49.64486693032086" lon="9.066933570429685">
<ele>523</ele>
<time>2024-05-10T11:12:22Z</time>
</trkpt>
<trkpt lat="49.644836420193315" lon="9.066883027553558">
<ele>523</ele>
<time>2024-05-10T11:12:23Z</time>
</trkpt>
<trkpt lat="49.644813537597656" lon="9.066831562668083">
<ele>523</ele>
<time>2024-05-10T11:12:24Z</time>
</trkpt>
<trkpt lat="49.64478294365108" lon="9.066775320097804">
<ele>523</ele>
<time>2024-05-10T11:12:25Z</time>
</trkpt>
<trkpt lat="49.644752433523536" lon="9.066715221852064">
<ele>523</ele>
<time>2024-05-10T11:12:26Z</time>
</trkpt>
<trkpt lat="49.64472192339599" lon="9.066657051444054">
<ele>523.2</ele>
<time>2024-05-10T11:12:27Z</time>
</trkpt>
<trkpt lat="49.64469141326845" lon="9.06660173088312">
<ele>523.4</ele>
<time>2024-05-10T11:12:28Z</time>
</trkpt>
<trkpt lat="49.6446609031409" lon="9.066543560475113">
<ele>523.599</ele>
<time>2024-05-10T11:12:29Z</time>
</trkpt>
<trkpt lat="49.64463039301336" lon="9.066478684544563">
<ele>523.8</ele>
<time>2024-05-10T11:12:30Z</time>
</trkpt>
<trkpt lat="49.644599882885814" lon="9.066416658461094">
<ele>524</ele>
<time>2024-05-10T11:12:31Z</time>
</trkpt>
<trkpt lat="49.64456937275827" lon="9.066349938511848">
<ele>524</ele>
<time>2024-05-10T11:12:32Z</time>
</trkpt>
<trkpt lat="49.64454263448715" lon="9.06628699041903">
<ele>524</ele>
<time>2024-05-10T11:12:33Z</time>
</trkpt>
<trkpt lat="49.64451598003507" lon="9.066221192479134">
<ele>524</ele>
<time>2024-05-10T11:12:34Z</time>
</trkpt>
<trkpt lat="49.64448546990752" lon="9.066155394539235">
<ele>524</ele>
<time>2024-05-10T11:12:35Z</time>
</trkpt>
<trkpt lat="49.644454875960946" lon="9.066084818914533">
<ele>524.2</ele>
<time>2024-05-10T11:12:36Z</time>
</trkpt>
<trkpt lat="49.64442822150886" lon="9.06601139344275">
<ele>524.2</ele>
<time>2024-05-10T11:12:37Z</time>
</trkpt>
<trkpt lat="49.64439008384943" lon="9.065941739827394">
<ele>524</ele>
<time>2024-05-10T11:12:38Z</time>
</trkpt>
<trkpt lat="49.64435571804643" lon="9.065876947715878">
<ele>524</ele>
<time>2024-05-10T11:12:39Z</time>
</trkpt>
<trkpt lat="49.644321436062455" lon="9.0658101439476">
<ele>523.8</ele>
<time>2024-05-10T11:12:40Z</time>
</trkpt>
<trkpt lat="49.64428707025945" lon="9.06573671847582">
<ele>524</ele>
<time>2024-05-10T11:12:41Z</time>
</trkpt>
<trkpt lat="49.64425270445645" lon="9.065666142851114">
<ele>524</ele>
<time>2024-05-10T11:12:42Z</time>
</trkpt>
<trkpt lat="49.64421842247248" lon="9.06559464521706">
<ele>524</ele>
<time>2024-05-10T11:12:43Z</time>
</trkpt>
<trkpt lat="49.644184056669474" lon="9.065523147583008">
<ele>524</ele>
<time>2024-05-10T11:12:44Z</time>
</trkpt>
<trkpt lat="49.6441497746855" lon="9.065449638292192">
<ele>523.8</ele>
<time>2024-05-10T11:12:45Z</time>
</trkpt>
<trkpt lat="49.6441154088825" lon="9.06538006849587">
<ele>523.4</ele>
<time>2024-05-10T11:12:46Z</time>
</trkpt>
<trkpt lat="49.64407727122307" lon="9.065309492871163">
<ele>523.2</ele>
<time>2024-05-10T11:12:47Z</time>
</trkpt>
<trkpt lat="49.64403527788818" lon="9.065236989408731">
<ele>523</ele>
<time>2024-05-10T11:12:48Z</time>
</trkpt>
<trkpt lat="49.64399336837232" lon="9.065153086557984">
<ele>523</ele>
<time>2024-05-10T11:12:49Z</time>
</trkpt>
<trkpt lat="49.64395137503743" lon="9.065072033554316">
<ele>522.599</ele>
<time>2024-05-10T11:12:50Z</time>
</trkpt>
<trkpt lat="49.643913237378" lon="9.06498335301876">
<ele>522.4</ele>
<time>2024-05-10T11:12:51Z</time>
</trkpt>
<trkpt lat="49.64387124404311" lon="9.064896516501904">
<ele>522</ele>
<time>2024-05-10T11:12:52Z</time>
</trkpt>
<trkpt lat="49.643829334527254" lon="9.064806913957">
<ele>521.8</ele>
<time>2024-05-10T11:12:53Z</time>
</trkpt>
<trkpt lat="49.643787341192365" lon="9.064716305583715">
<ele>521.599</ele>
<time>2024-05-10T11:12:54Z</time>
</trkpt>
<trkpt lat="49.64374157600105" lon="9.064622847363353">
<ele>521.4</ele>
<time>2024-05-10T11:12:55Z</time>
</trkpt>
<trkpt lat="49.64369581080973" lon="9.064533160999416">
<ele>521.4</ele>
<time>2024-05-10T11:12:56Z</time>
</trkpt>
<trkpt lat="49.643650045618415" lon="9.064444480463862">
<ele>521</ele>
<time>2024-05-10T11:12:57Z</time>
</trkpt>
<trkpt lat="49.643608052283525" lon="9.06435487791896">
<ele>521</ele>
<time>2024-05-10T11:12:58Z</time>
</trkpt>
<trkpt lat="49.64356228709221" lon="9.064263263717294">
<ele>520.599</ele>
<time>2024-05-10T11:12:59Z</time>
</trkpt>
<trkpt lat="49.64351652190089" lon="9.064169805496933">
<ele>520.2</ele>
<time>2024-05-10T11:13:00Z</time>
</trkpt>
<trkpt lat="49.643474528566" lon="9.06407542526722">
<ele>519.8</ele>
<time>2024-05-10T11:13:01Z</time>
</trkpt>
<trkpt lat="49.64342490769923" lon="9.063981967046857">
<ele>519.599</ele>
<time>2024-05-10T11:13:02Z</time>
</trkpt>
<trkpt lat="49.64337914250791" lon="9.063890436664224">
<ele>519.4</ele>
<time>2024-05-10T11:13:03Z</time>
</trkpt>
<trkpt lat="49.643333377316594" lon="9.063801756128669">
<ele>519.2</ele>
<time>2024-05-10T11:13:04Z</time>
</trkpt>
<trkpt lat="49.64328761212528" lon="9.063712991774082">
<ele>519</ele>
<time>2024-05-10T11:13:05Z</time>
</trkpt>
<trkpt lat="49.64324184693396" lon="9.063621461391447">
<ele>518.8</ele>
<time>2024-05-10T11:13:06Z</time>
</trkpt>
<trkpt lat="49.643192226067185" lon="9.063534708693624">
<ele>518.4</ele>
<time>2024-05-10T11:13:07Z</time>
</trkpt>
<trkpt lat="49.64315031655133" lon="9.063446950167418">
<ele>518.2</ele>
<time>2024-05-10T11:13:08Z</time>
</trkpt>
<trkpt lat="49.64310832321644" lon="9.063369669020176">
<ele>518</ele>
<time>2024-05-10T11:13:09Z</time>
</trkpt>
<trkpt lat="49.64307018555701" lon="9.063300099223852">
<ele>517.8</ele>
<time>2024-05-10T11:13:10Z</time>
</trkpt>
<trkpt lat="49.64303967542946" lon="9.0632286015898">
<ele>517.599</ele>
<time>2024-05-10T11:13:11Z</time>
</trkpt>
<trkpt lat="49.64300153777003" lon="9.063163725659251">
<ele>517.4</ele>
<time>2024-05-10T11:13:12Z</time>
</trkpt>
<trkpt lat="49.64297102764249" lon="9.063099855557084">
<ele>517</ele>
<time>2024-05-10T11:13:13Z</time>
</trkpt>
<trkpt lat="49.642940517514944" lon="9.063033051788809">
<ele>516.8</ele>
<time>2024-05-10T11:13:14Z</time>
</trkpt>
<trkpt lat="49.64290992356837" lon="9.06296633183956">
<ele>516.8</ele>
<time>2024-05-10T11:13:15Z</time>
</trkpt>
<trkpt lat="49.6428756415844" lon="9.062901455909014">
<ele>516.8</ele>
<time>2024-05-10T11:13:16Z</time>
</trkpt>
<trkpt lat="49.642856530845165" lon="9.062840435653923">
<ele>516.599</ele>
<time>2024-05-10T11:13:17Z</time>
</trkpt>
<trkpt lat="49.642837503924966" lon="9.062787964940073">
<ele>516.599</ele>
<time>2024-05-10T11:13:18Z</time>
</trkpt>
<trkpt lat="49.642822248861194" lon="9.062738344073296">
<ele>516.599</ele>
<time>2024-05-10T11:13:19Z</time>
</trkpt>
<trkpt lat="49.64281076565385" lon="9.062683023512363">
<ele>516.599</ele>
<time>2024-05-10T11:13:20Z</time>
</trkpt>
<trkpt lat="49.64280313812196" lon="9.06263155862689">
<ele>516.4</ele>
<time>2024-05-10T11:13:21Z</time>
</trkpt>
<trkpt lat="49.642799366265535" lon="9.062581937760116">
<ele>516.4</ele>
<time>2024-05-10T11:13:22Z</time>
</trkpt>
<trkpt lat="49.64279173873365" lon="9.062548577785492">
<ele>516.2</ele>
<time>2024-05-10T11:13:23Z</time>
</trkpt>
<trkpt lat="49.64278788305819" lon="9.06251521781087">
<ele>516.2</ele>
<time>2024-05-10T11:13:24Z</time>
</trkpt>
<trkpt lat="49.64277648366988" lon="9.062479929998515">
<ele>516</ele>
<time>2024-05-10T11:13:25Z</time>
</trkpt>
<trkpt lat="49.64276500046253" lon="9.062441792339088">
<ele>516</ele>
<time>2024-05-10T11:13:26Z</time>
</trkpt>
<trkpt lat="49.64274974539876" lon="9.062399799004195">
<ele>515.8</ele>
<time>2024-05-10T11:13:27Z</time>
</trkpt>
<trkpt lat="49.642738262191415" lon="9.062359733507035">
<ele>515.8</ele>
<time>2024-05-10T11:13:28Z</time>
</trkpt>
<trkpt lat="49.6427268628031" lon="9.062319751828907">
<ele>515.599</ele>
<time>2024-05-10T11:13:29Z</time>
</trkpt>
<trkpt lat="49.642719235271215" lon="9.062278680503368">
<ele>515.4</ele>
<time>2024-05-10T11:13:30Z</time>
</trkpt>
<trkpt lat="49.64271160773933" lon="9.06223677098751">
<ele>515.2</ele>
<time>2024-05-10T11:13:31Z</time>
</trkpt>
<trkpt lat="49.642700124531984" lon="9.06219670549035">
<ele>515.2</ele>
<time>2024-05-10T11:13:32Z</time>
</trkpt>
<trkpt lat="49.64268872514367" lon="9.06215471215546">
<ele>515</ele>
<time>2024-05-10T11:13:33Z</time>
</trkpt>
<trkpt lat="49.642677241936326" lon="9.062113724648952">
<ele>515</ele>
<time>2024-05-10T11:13:34Z</time>
</trkpt>
<trkpt lat="49.64266584254801" lon="9.062073659151793">
<ele>515</ele>
<time>2024-05-10T11:13:35Z</time>
</trkpt>
<trkpt lat="49.64265435934067" lon="9.062031665816903">
<ele>515.2</ele>
<time>2024-05-10T11:13:36Z</time>
</trkpt>
<trkpt lat="49.64265058748424" lon="9.061986906453969">
<ele>515.2</ele>
<time>2024-05-10T11:13:37Z</time>
</trkpt>
<trkpt lat="49.642642959952354" lon="9.061936363577844">
<ele>515.2</ele>
<time>2024-05-10T11:13:38Z</time>
</trkpt>
<trkpt lat="49.64263147674501" lon="9.061888670548797">
<ele>515.2</ele>
<time>2024-05-10T11:13:39Z</time>
</trkpt>
<trkpt lat="49.64261622168124" lon="9.061838127672672">
<ele>515.2</ele>
<time>2024-05-10T11:13:40Z</time>
</trkpt>
<trkpt lat="49.642600966617465" lon="9.061788506805897">
<ele>515.4</ele>
<time>2024-05-10T11:13:41Z</time>
</trkpt>
<trkpt lat="49.64257808402181" lon="9.061741819605231">
<ele>515.2</ele>
<time>2024-05-10T11:13:42Z</time>
</trkpt>
<trkpt lat="49.64256660081446" lon="9.061701754108071">
<ele>515</ele>
<time>2024-05-10T11:13:43Z</time>
</trkpt>
<trkpt lat="49.6425437182188" lon="9.06166453845799">
<ele>515</ele>
<time>2024-05-10T11:13:44Z</time>
</trkpt>
<trkpt lat="49.64252846315503" lon="9.061628328636289">
<ele>515</ele>
<time>2024-05-10T11:13:45Z</time>
</trkpt>
<trkpt lat="49.64250558055937" lon="9.061588263139129">
<ele>515</ele>
<time>2024-05-10T11:13:46Z</time>
</trkpt>
<trkpt lat="49.6424903254956" lon="9.061550125479698">
<ele>515</ele>
<time>2024-05-10T11:13:47Z</time>
</trkpt>
<trkpt lat="49.6424712985754" lon="9.06150528229773">
<ele>515</ele>
<time>2024-05-10T11:13:48Z</time>
</trkpt>
<trkpt lat="49.642459815368056" lon="9.061459517106414">
<ele>515</ele>
<time>2024-05-10T11:13:49Z</time>
</trkpt>
<trkpt lat="49.64244456030429" lon="9.06140704639256">
<ele>515.2</ele>
<time>2024-05-10T11:13:50Z</time>
</trkpt>
<trkpt lat="49.642425533384085" lon="9.0613479539752">
<ele>514.8</ele>
<time>2024-05-10T11:13:51Z</time>
</trkpt>
<trkpt lat="49.642402566969395" lon="9.061301182955503">
<ele>514.599</ele>
<time>2024-05-10T11:13:52Z</time>
</trkpt>
<trkpt lat="49.642379684373736" lon="9.061253489926456">
<ele>514.599</ele>
<time>2024-05-10T11:13:53Z</time>
</trkpt>
<trkpt lat="49.64236065745354" lon="9.06120965257287">
<ele>514.8</ele>
<time>2024-05-10T11:13:54Z</time>
</trkpt>
<trkpt lat="49.642341546714306" lon="9.061160031706097">
<ele>514.599</ele>
<time>2024-05-10T11:13:55Z</time>
</trkpt>
<trkpt lat="49.64233014732599" lon="9.06111334450543">
<ele>514.8</ele>
<time>2024-05-10T11:13:56Z</time>
</trkpt>
<trkpt lat="49.64231103658676" lon="9.061063723638654">
<ele>514.8</ele>
<time>2024-05-10T11:13:57Z</time>
</trkpt>
<trkpt lat="49.642303409054875" lon="9.061010330915453">
<ele>514.599</ele>
<time>2024-05-10T11:13:58Z</time>
</trkpt>
<trkpt lat="49.64228052645922" lon="9.060966409742832">
<ele>514.599</ele>
<time>2024-05-10T11:13:59Z</time>
</trkpt>
<trkpt lat="49.64226149953902" lon="9.060923494398594">
<ele>514.8</ele>
<time>2024-05-10T11:14:00Z</time>
</trkpt>
<trkpt lat="49.64224238879979" lon="9.060890134423971">
<ele>515</ele>
<time>2024-05-10T11:14:01Z</time>
</trkpt>
<trkpt lat="49.642223278060555" lon="9.060846297070384">
<ele>515</ele>
<time>2024-05-10T11:14:02Z</time>
</trkpt>
<trkpt lat="49.64220802299678" lon="9.06081193126738">
<ele>515.2</ele>
<time>2024-05-10T11:14:03Z</time>
</trkpt>
<trkpt lat="49.64219662360847" lon="9.060776643455029">
<ele>515.4</ele>
<time>2024-05-10T11:14:04Z</time>
</trkpt>
<trkpt lat="49.6421813685447" lon="9.06073372811079">
<ele>515.599</ele>
<time>2024-05-10T11:14:05Z</time>
</trkpt>
<trkpt lat="49.64216988533735" lon="9.06069466844201">
<ele>515.599</ele>
<time>2024-05-10T11:14:06Z</time>
</trkpt>
<trkpt lat="49.64216225780547" lon="9.060646975412965">
<ele>515.4</ele>
<time>2024-05-10T11:14:07Z</time>
</trkpt>
<trkpt lat="49.64215085841715" lon="9.06059643253684">
<ele>515.2</ele>
<time>2024-05-10T11:14:08Z</time>
</trkpt>
<trkpt lat="49.64213174767792" lon="9.060549661517143">
<ele>515.2</ele>
<time>2024-05-10T11:14:09Z</time>
</trkpt>
<trkpt lat="49.642108865082264" lon="9.060495346784592">
<ele>515</ele>
<time>2024-05-10T11:14:10Z</time>
</trkpt>
<trkpt lat="49.642085982486606" lon="9.06044002622366">
<ele>515</ele>
<time>2024-05-10T11:14:11Z</time>
</trkpt>
<trkpt lat="49.642066955566406" lon="9.060388561338186">
<ele>515</ele>
<time>2024-05-10T11:14:12Z</time>
</trkpt>
<trkpt lat="49.6420516166836" lon="9.060344640165567">
<ele>515.2</ele>
<time>2024-05-10T11:14:13Z</time>
</trkpt>
<trkpt lat="49.64203636161983" lon="9.06030172482133">
<ele>515.4</ele>
<time>2024-05-10T11:14:14Z</time>
</trkpt>
<trkpt lat="49.64201733469963" lon="9.060268364846706">
<ele>515.4</ele>
<time>2024-05-10T11:14:15Z</time>
</trkpt>
<trkpt lat="49.642005851492286" lon="9.060228299349546">
<ele>515.599</ele>
<time>2024-05-10T11:14:16Z</time>
</trkpt>
<trkpt lat="49.64199445210397" lon="9.060192089527844">
<ele>515.599</ele>
<time>2024-05-10T11:14:17Z</time>
</trkpt>
<trkpt lat="49.641986824572086" lon="9.060152024030684">
<ele>515.4</ele>
<time>2024-05-10T11:14:18Z</time>
</trkpt>
<trkpt lat="49.641971569508314" lon="9.060112880542874">
<ele>515.4</ele>
<time>2024-05-10T11:14:19Z</time>
</trkpt>
<trkpt lat="49.64195631444454" lon="9.060072898864746">
<ele>515.4</ele>
<time>2024-05-10T11:14:20Z</time>
</trkpt>
<trkpt lat="49.641948686912656" lon="9.060038533061745">
<ele>515.4</ele>
<time>2024-05-10T11:14:21Z</time>
</trkpt>
<trkpt lat="49.64194105938077" lon="9.06000131741166">
<ele>515.2</ele>
<time>2024-05-10T11:14:22Z</time>
</trkpt>
<trkpt lat="49.64193343184888" lon="9.059960329905152">
<ele>515</ele>
<time>2024-05-10T11:14:23Z</time>
</trkpt>
<trkpt lat="49.641929576173425" lon="9.05992696993053">
<ele>514.8</ele>
<time>2024-05-10T11:14:24Z</time>
</trkpt>
<trkpt lat="49.64192194864154" lon="9.05988782644272">
<ele>514.599</ele>
<time>2024-05-10T11:14:25Z</time>
</trkpt>
<trkpt lat="49.64191817678511" lon="9.059842061251402">
<ele>514.4</ele>
<time>2024-05-10T11:14:26Z</time>
</trkpt>
<trkpt lat="49.64192194864154" lon="9.059803001582624">
<ele>514.2</ele>
<time>2024-05-10T11:14:27Z</time>
</trkpt>
<trkpt lat="49.64192194864154" lon="9.059760086238384">
<ele>514</ele>
<time>2024-05-10T11:14:28Z</time>
</trkpt>
<trkpt lat="49.64191817678511" lon="9.059722870588304">
<ele>513.8</ele>
<time>2024-05-10T11:14:29Z</time>
</trkpt>
<trkpt lat="49.641906693577766" lon="9.059683727100492">
<ele>513.599</ele>
<time>2024-05-10T11:14:30Z</time>
</trkpt>
<trkpt lat="49.64190292172134" lon="9.05964843928814">
<ele>513.4</ele>
<time>2024-05-10T11:14:31Z</time>
</trkpt>
<trkpt lat="49.641887582838535" lon="9.059601752087474">
<ele>513.2</ele>
<time>2024-05-10T11:14:32Z</time>
</trkpt>
<trkpt lat="49.64187618345022" lon="9.059564536437392">
<ele>513</ele>
<time>2024-05-10T11:14:33Z</time>
</trkpt>
<trkpt lat="49.641868555918336" lon="9.059534948319197">
<ele>512.8</ele>
<time>2024-05-10T11:14:34Z</time>
</trkpt>
<trkpt lat="49.64186092838645" lon="9.059496810659766">
<ele>512.599</ele>
<time>2024-05-10T11:14:35Z</time>
</trkpt>
<trkpt lat="49.64184567332268" lon="9.059461522847414">
<ele>512.2</ele>
<time>2024-05-10T11:14:36Z</time>
</trkpt>
<trkpt lat="49.64183419011533" lon="9.059425313025711">
<ele>512</ele>
<time>2024-05-10T11:14:37Z</time>
</trkpt>
<trkpt lat="49.64182656258345" lon="9.059386253356934">
<ele>511.8</ele>
<time>2024-05-10T11:14:38Z</time>
</trkpt>
<trkpt lat="49.64181893505156" lon="9.0593499597162">
<ele>511.6</ele>
<time>2024-05-10T11:14:39Z</time>
</trkpt>
<trkpt lat="49.64181516319513" lon="9.059318527579308">
<ele>511.4</ele>
<time>2024-05-10T11:14:40Z</time>
</trkpt>
<trkpt lat="49.641811307519674" lon="9.05929371714592">
<ele>511</ele>
<time>2024-05-10T11:14:41Z</time>
</trkpt>
<trkpt lat="49.64180367998779" lon="9.059258429333568">
<ele>510.6</ele>
<time>2024-05-10T11:14:42Z</time>
</trkpt>
<trkpt lat="49.641792280599475" lon="9.059226913377644">
<ele>510.2</ele>
<time>2024-05-10T11:14:43Z</time>
</trkpt>
<trkpt lat="49.64178079739213" lon="9.0591945592314">
<ele>509.8</ele>
<time>2024-05-10T11:14:44Z</time>
</trkpt>
<trkpt lat="49.64177316986024" lon="9.059160193428395">
<ele>509.6</ele>
<time>2024-05-10T11:14:45Z</time>
</trkpt>
<trkpt lat="49.64176939800382" lon="9.05913345515728">
<ele>509.2</ele>
<time>2024-05-10T11:14:46Z</time>
</trkpt>
<trkpt lat="49.64176177047193" lon="9.059100095182655">
<ele>509</ele>
<time>2024-05-10T11:14:47Z</time>
</trkpt>
<trkpt lat="49.64175414294005" lon="9.059062879532576">
<ele>508.8</ele>
<time>2024-05-10T11:14:48Z</time>
</trkpt>
<trkpt lat="49.64174651540816" lon="9.05903521925211">
<ele>508.4</ele>
<time>2024-05-10T11:14:49Z</time>
</trkpt>
<trkpt lat="49.6417426597327" lon="9.05899523757398">
<ele>508.2</ele>
<time>2024-05-10T11:14:50Z</time>
</trkpt>
<trkpt lat="49.641731260344386" lon="9.05895517207682">
<ele>508</ele>
<time>2024-05-10T11:14:51Z</time>
</trkpt>
<trkpt lat="49.64171977713704" lon="9.0589218121022">
<ele>507.6</ele>
<time>2024-05-10T11:14:52Z</time>
</trkpt>
<trkpt lat="49.641712149605155" lon="9.05888174660504">
<ele>507.4</ele>
<time>2024-05-10T11:14:53Z</time>
</trkpt>
<trkpt lat="49.64170452207327" lon="9.058844530954955">
<ele>507.2</ele>
<time>2024-05-10T11:14:54Z</time>
</trkpt>
<trkpt lat="49.64169303886592" lon="9.058810165151954">
<ele>506.8</ele>
<time>2024-05-10T11:14:55Z</time>
</trkpt>
<trkpt lat="49.6416892670095" lon="9.058773033320904">
<ele>506.6</ele>
<time>2024-05-10T11:14:56Z</time>
</trkpt>
<trkpt lat="49.64168163947761" lon="9.058734811842442">
<ele>506.4</ele>
<time>2024-05-10T11:14:57Z</time>
</trkpt>
<trkpt lat="49.64167778380215" lon="9.058688124641776">
<ele>506</ele>
<time>2024-05-10T11:14:58Z</time>
</trkpt>
<trkpt lat="49.641670156270266" lon="9.058634731918572">
<ele>505.6</ele>
<time>2024-05-10T11:14:59Z</time>
</trkpt>
<trkpt lat="49.64166252873838" lon="9.05858133919537">
<ele>505.4</ele>
<time>2024-05-10T11:15:00Z</time>
</trkpt>
<trkpt lat="49.64165490120649" lon="9.058533646166325">
<ele>505</ele>
<time>2024-05-10T11:15:01Z</time>
</trkpt>
<trkpt lat="49.64165490120649" lon="9.05848503112793">
<ele>504.6</ele>
<time>2024-05-10T11:15:02Z</time>
</trkpt>
<trkpt lat="49.64165875688195" lon="9.058440187945962">
<ele>504</ele>
<time>2024-05-10T11:15:03Z</time>
</trkpt>
<trkpt lat="49.641670156270266" lon="9.058396266773345">
<ele>503.6</ele>
<time>2024-05-10T11:15:04Z</time>
</trkpt>
<trkpt lat="49.641674011945724" lon="9.058355279266834">
<ele>503.2</ele>
<time>2024-05-10T11:15:05Z</time>
</trkpt>
<trkpt lat="49.64168163947761" lon="9.058309514075518">
<ele>502.4</ele>
<time>2024-05-10T11:15:06Z</time>
</trkpt>
<trkpt lat="49.6416892670095" lon="9.058273304253817">
<ele>502</ele>
<time>2024-05-10T11:15:07Z</time>
</trkpt>
<trkpt lat="49.64170452207327" lon="9.05822460539639">
<ele>501.4</ele>
<time>2024-05-10T11:15:08Z</time>
</trkpt>
<trkpt lat="49.64171977713704" lon="9.058177918195724">
<ele>501.2</ele>
<time>2024-05-10T11:15:09Z</time>
</trkpt>
<trkpt lat="49.64172740466893" lon="9.058128297328947">
<ele>501</ele>
<time>2024-05-10T11:15:10Z</time>
</trkpt>
<trkpt lat="49.64173503220081" lon="9.05808345414698">
<ele>500.8</ele>
<time>2024-05-10T11:15:11Z</time>
</trkpt>
<trkpt lat="49.6417426597327" lon="9.058031989261508">
<ele>500.4</ele>
<time>2024-05-10T11:15:12Z</time>
</trkpt>
<trkpt lat="49.64174651540816" lon="9.057981446385384">
<ele>500</ele>
<time>2024-05-10T11:15:13Z</time>
</trkpt>
<trkpt lat="49.64175791479647" lon="9.057938531041144">
<ele>499.6</ele>
<time>2024-05-10T11:15:14Z</time>
</trkpt>
<trkpt lat="49.64177316986024" lon="9.057894693687558">
<ele>499.2</ele>
<time>2024-05-10T11:15:15Z</time>
</trkpt>
<trkpt lat="49.64178079739213" lon="9.05785177834332">
<ele>498.8</ele>
<time>2024-05-10T11:15:16Z</time>
</trkpt>
<trkpt lat="49.641788424924016" lon="9.057796457782388">
<ele>498.4</ele>
<time>2024-05-10T11:15:17Z</time>
</trkpt>
<trkpt lat="49.6417960524559" lon="9.057742059230804">
<ele>498</ele>
<time>2024-05-10T11:15:18Z</time>
</trkpt>
<trkpt lat="49.64180753566325" lon="9.057688666507602">
<ele>497.8</ele>
<time>2024-05-10T11:15:19Z</time>
</trkpt>
<trkpt lat="49.64181893505156" lon="9.057638123631476">
<ele>497.4</ele>
<time>2024-05-10T11:15:20Z</time>
</trkpt>
<trkpt lat="49.64183419011533" lon="9.057588502764702">
<ele>497.2</ele>
<time>2024-05-10T11:15:21Z</time>
</trkpt>
<trkpt lat="49.64185330085456" lon="9.057537959888576">
<ele>496.8</ele>
<time>2024-05-10T11:15:22Z</time>
</trkpt>
<trkpt lat="49.641868555918336" lon="9.057486495003104">
<ele>496.6</ele>
<time>2024-05-10T11:15:23Z</time>
</trkpt>
<trkpt lat="49.64187995530665" lon="9.057433102279902">
<ele>496.2</ele>
<time>2024-05-10T11:15:24Z</time>
</trkpt>
<trkpt lat="49.64189906604588" lon="9.057378703728318">
<ele>495.8</ele>
<time>2024-05-10T11:15:25Z</time>
</trkpt>
<trkpt lat="49.641910549253225" lon="9.057328160852194">
<ele>495.4</ele>
<time>2024-05-10T11:15:26Z</time>
</trkpt>
<trkpt lat="49.641929576173425" lon="9.05727669596672">
<ele>494.8</ele>
<time>2024-05-10T11:15:27Z</time>
</trkpt>
<trkpt lat="49.64194105938077" lon="9.057233780622482">
<ele>494.4</ele>
<time>2024-05-10T11:15:28Z</time>
</trkpt>
<trkpt lat="49.64195245876908" lon="9.057189859449863">
<ele>494</ele>
<time>2024-05-10T11:15:29Z</time>
</trkpt>
<trkpt lat="49.64196008630097" lon="9.057145100086927">
<ele>493.8</ele>
<time>2024-05-10T11:15:30Z</time>
</trkpt>
<trkpt lat="49.641971569508314" lon="9.057101178914309">
<ele>493.4</ele>
<time>2024-05-10T11:15:31Z</time>
</trkpt>
<trkpt lat="49.641986824572086" lon="9.057064969092607">
<ele>493</ele>
<time>2024-05-10T11:15:32Z</time>
</trkpt>
<trkpt lat="49.64199445210397" lon="9.05701819807291">
<ele>492.6</ele>
<time>2024-05-10T11:15:33Z</time>
</trkpt>
<trkpt lat="49.64200207963586" lon="9.056976288557053">
<ele>492.4</ele>
<time>2024-05-10T11:15:34Z</time>
</trkpt>
<trkpt lat="49.642009707167745" lon="9.056935301050544">
<ele>492</ele>
<time>2024-05-10T11:15:35Z</time>
</trkpt>
<trkpt lat="49.64201347902417" lon="9.056895235553384">
<ele>491.6</ele>
<time>2024-05-10T11:15:36Z</time>
</trkpt>
<trkpt lat="49.64202110655606" lon="9.056857097893952">
<ele>491.4</ele>
<time>2024-05-10T11:15:37Z</time>
</trkpt>
<trkpt lat="49.642028734087944" lon="9.0568236541003">
<ele>491</ele>
<time>2024-05-10T11:15:38Z</time>
</trkpt>
<trkpt lat="49.64203636161983" lon="9.056795071810484">
<ele>490.8</ele>
<time>2024-05-10T11:15:39Z</time>
</trkpt>
<trkpt lat="49.64204021729529" lon="9.05674167908728">
<ele>490.6</ele>
<time>2024-05-10T11:15:40Z</time>
</trkpt>
<trkpt lat="49.642047844827175" lon="9.056693064048886">
<ele>490.4</ele>
<time>2024-05-10T11:15:41Z</time>
</trkpt>
<trkpt lat="49.64205547235906" lon="9.05664537101984">
<ele>490.2</ele>
<time>2024-05-10T11:15:42Z</time>
</trkpt>
<trkpt lat="49.642066955566406" lon="9.056599605828524">
<ele>490</ele>
<time>2024-05-10T11:15:43Z</time>
</trkpt>
<trkpt lat="49.64207835495472" lon="9.056552834808826">
<ele>489.8</ele>
<time>2024-05-10T11:15:44Z</time>
</trkpt>
<trkpt lat="49.64209361001849" lon="9.056501369923351">
<ele>489.4</ele>
<time>2024-05-10T11:15:45Z</time>
</trkpt>
<trkpt lat="49.64210509322584" lon="9.05644504353404">
<ele>489</ele>
<time>2024-05-10T11:15:46Z</time>
</trkpt>
<trkpt lat="49.64211649261415" lon="9.056396428495646">
<ele>488.8</ele>
<time>2024-05-10T11:15:47Z</time>
</trkpt>
<trkpt lat="49.64213174767792" lon="9.056346891447902">
<ele>488.8</ele>
<time>2024-05-10T11:15:48Z</time>
</trkpt>
<trkpt lat="49.64215463027358" lon="9.056300120428205">
<ele>488.6</ele>
<time>2024-05-10T11:15:49Z</time>
</trkpt>
<trkpt lat="49.642166113480926" lon="9.056255277246237">
<ele>488.6</ele>
<time>2024-05-10T11:15:50Z</time>
</trkpt>
<trkpt lat="49.64217751286924" lon="9.05621143989265">
<ele>488.6</ele>
<time>2024-05-10T11:15:51Z</time>
</trkpt>
<trkpt lat="49.642188996076584" lon="9.056166596710682">
<ele>488.4</ele>
<time>2024-05-10T11:15:52Z</time>
</trkpt>
<trkpt lat="49.64220425114035" lon="9.05611320398748">
<ele>488</ele>
<time>2024-05-10T11:15:53Z</time>
</trkpt>
<trkpt lat="49.64221950620413" lon="9.05607028864324">
<ele>487.8</ele>
<time>2024-05-10T11:15:54Z</time>
</trkpt>
<trkpt lat="49.6422347612679" lon="9.05603022314608">
<ele>487.4</ele>
<time>2024-05-10T11:15:55Z</time>
</trkpt>
<trkpt lat="49.64225001633167" lon="9.055981608107686">
<ele>487</ele>
<time>2024-05-10T11:15:56Z</time>
</trkpt>
<trkpt lat="49.64226149953902" lon="9.05593198724091">
<ele>486.8</ele>
<time>2024-05-10T11:15:57Z</time>
</trkpt>
<trkpt lat="49.64227289892733" lon="9.055881444364786">
<ele>486.4</ele>
<time>2024-05-10T11:15:58Z</time>
</trkpt>
<trkpt lat="49.6422881539911" lon="9.055832829326391">
<ele>486.2</ele>
<time>2024-05-10T11:15:59Z</time>
</trkpt>
<trkpt lat="49.642303409054875" lon="9.055787064135076">
<ele>486</ele>
<time>2024-05-10T11:16:00Z</time>
</trkpt>
<trkpt lat="49.64231866411865" lon="9.055741298943758">
<ele>485.8</ele>
<time>2024-05-10T11:16:01Z</time>
</trkpt>
<trkpt lat="49.64233014732599" lon="9.05569645576179">
<ele>485.6</ele>
<time>2024-05-10T11:16:02Z</time>
</trkpt>
<trkpt lat="49.64233391918242" lon="9.055651612579824">
<ele>485.6</ele>
<time>2024-05-10T11:16:03Z</time>
</trkpt>
<trkpt lat="49.642341546714306" lon="9.055608697235584">
<ele>485.4</ele>
<time>2024-05-10T11:16:04Z</time>
</trkpt>
<trkpt lat="49.642341546714306" lon="9.055566787719728">
<ele>485.2</ele>
<time>2024-05-10T11:16:05Z</time>
</trkpt>
<trkpt lat="49.642341546714306" lon="9.055522866547108">
<ele>484.8</ele>
<time>2024-05-10T11:16:06Z</time>
</trkpt>
<trkpt lat="49.642345402389765" lon="9.0554818790406">
<ele>484.4</ele>
<time>2024-05-10T11:16:07Z</time>
</trkpt>
<trkpt lat="49.64235302992165" lon="9.055437035858631">
<ele>484.2</ele>
<time>2024-05-10T11:16:08Z</time>
</trkpt>
<trkpt lat="49.64236065745354" lon="9.055388420820236">
<ele>484</ele>
<time>2024-05-10T11:16:09Z</time>
</trkpt>
<trkpt lat="49.64236442930997" lon="9.055337877944112">
<ele>483.6</ele>
<time>2024-05-10T11:16:10Z</time>
</trkpt>
<trkpt lat="49.64236828498542" lon="9.055288257077336">
<ele>483.4</ele>
<time>2024-05-10T11:16:11Z</time>
</trkpt>
<trkpt lat="49.64236442930997" lon="9.055228158831596">
<ele>483.2</ele>
<time>2024-05-10T11:16:12Z</time>
</trkpt>
<trkpt lat="49.64237205684185" lon="9.055169988423586">
<ele>483.2</ele>
<time>2024-05-10T11:16:13Z</time>
</trkpt>
<trkpt lat="49.64237591251731" lon="9.055116595700383">
<ele>483</ele>
<time>2024-05-10T11:16:14Z</time>
</trkpt>
<trkpt lat="49.64237591251731" lon="9.055071752518415">
<ele>482.8</ele>
<time>2024-05-10T11:16:15Z</time>
</trkpt>
<trkpt lat="49.64237591251731" lon="9.055029843002558">
<ele>482.6</ele>
<time>2024-05-10T11:16:16Z</time>
</trkpt>
<trkpt lat="49.64237205684185" lon="9.054980222135782">
<ele>482.6</ele>
<time>2024-05-10T11:16:17Z</time>
</trkpt>
<trkpt lat="49.64237205684185" lon="9.054931607097387">
<ele>482.4</ele>
<time>2024-05-10T11:16:18Z</time>
</trkpt>
<trkpt lat="49.64236828498542" lon="9.054878214374185">
<ele>482.4</ele>
<time>2024-05-10T11:16:19Z</time>
</trkpt>
<trkpt lat="49.64236828498542" lon="9.054822893813252">
<ele>482.4</ele>
<time>2024-05-10T11:16:20Z</time>
</trkpt>
<trkpt lat="49.64236828498542" lon="9.054779978469014">
<ele>482.2</ele>
<time>2024-05-10T11:16:21Z</time>
</trkpt>
<trkpt lat="49.64237205684185" lon="9.054735135287046">
<ele>482.2</ele>
<time>2024-05-10T11:16:22Z</time>
</trkpt>
<trkpt lat="49.64236828498542" lon="9.054677886888385">
<ele>482</ele>
<time>2024-05-10T11:16:23Z</time>
</trkpt>
<trkpt lat="49.64236828498542" lon="9.05462834984064">
<ele>481.8</ele>
<time>2024-05-10T11:16:24Z</time>
</trkpt>
<trkpt lat="49.64236828498542" lon="9.054578728973866">
<ele>481.8</ele>
<time>2024-05-10T11:16:25Z</time>
</trkpt>
<trkpt lat="49.64236828498542" lon="9.054539669305086">
<ele>481.6</ele>
<time>2024-05-10T11:16:26Z</time>
</trkpt>
<trkpt lat="49.64236828498542" lon="9.054494826123118">
<ele>481.4</ele>
<time>2024-05-10T11:16:27Z</time>
</trkpt>
<trkpt lat="49.64236442930997" lon="9.05444998294115">
<ele>481</ele>
<time>2024-05-10T11:16:28Z</time>
</trkpt>
<trkpt lat="49.64236828498542" lon="9.054400362074375">
<ele>480.6</ele>
<time>2024-05-10T11:16:29Z</time>
</trkpt>
<trkpt lat="49.64236828498542" lon="9.054356524720788">
<ele>480.2</ele>
<time>2024-05-10T11:16:30Z</time>
</trkpt>
<trkpt lat="49.64236828498542" lon="9.054320314899089">
<ele>479.8</ele>
<time>2024-05-10T11:16:31Z</time>
</trkpt>
<trkpt lat="49.64236828498542" lon="9.054278321564198">
<ele>479.4</ele>
<time>2024-05-10T11:16:32Z</time>
</trkpt>
<trkpt lat="49.64237591251731" lon="9.054251667112112">
<ele>479.2</ele>
<time>2024-05-10T11:16:33Z</time>
</trkpt>
<trkpt lat="49.64237205684185" lon="9.054218223318458">
<ele>479</ele>
<time>2024-05-10T11:16:34Z</time>
</trkpt>
<trkpt lat="49.64236828498542" lon="9.054188719019294">
<ele>478.6</ele>
<time>2024-05-10T11:16:35Z</time>
</trkpt>
<trkpt lat="49.64236828498542" lon="9.054149575531484">
<ele>478.2</ele>
<time>2024-05-10T11:16:36Z</time>
</trkpt>
<trkpt lat="49.64236828498542" lon="9.054106660187244">
<ele>477.8</ele>
<time>2024-05-10T11:16:37Z</time>
</trkpt>
<trkpt lat="49.64237205684185" lon="9.054066594690084">
<ele>477.4</ele>
<time>2024-05-10T11:16:38Z</time>
</trkpt>
<trkpt lat="49.64237591251731" lon="9.05401705764234">
<ele>477.2</ele>
<time>2024-05-10T11:16:39Z</time>
</trkpt>
<trkpt lat="49.642379684373736" lon="9.053983613848686">
<ele>476.8</ele>
<time>2024-05-10T11:16:40Z</time>
</trkpt>
<trkpt lat="49.642379684373736" lon="9.053948326036334">
<ele>476.6</ele>
<time>2024-05-10T11:16:41Z</time>
</trkpt>
<trkpt lat="49.642379684373736" lon="9.053908344358206">
<ele>476.2</ele>
<time>2024-05-10T11:16:42Z</time>
</trkpt>
<trkpt lat="49.642383540049195" lon="9.05387682840228">
<ele>476</ele>
<time>2024-05-10T11:16:43Z</time>
</trkpt>
<trkpt lat="49.642379684373736" lon="9.05383676290512">
<ele>475.8</ele>
<time>2024-05-10T11:16:44Z</time>
</trkpt>
<trkpt lat="49.64237205684185" lon="9.053788147866726">
<ele>475.6</ele>
<time>2024-05-10T11:16:45Z</time>
</trkpt>
<trkpt lat="49.64237205684185" lon="9.0537204220891">
<ele>475.4</ele>
<time>2024-05-10T11:16:46Z</time>
</trkpt>
<trkpt lat="49.64236828498542" lon="9.053667951375246">
<ele>475</ele>
<time>2024-05-10T11:16:47Z</time>
</trkpt>
<trkpt lat="49.64236828498542" lon="9.053614558652043">
<ele>474.8</ele>
<time>2024-05-10T11:16:48Z</time>
</trkpt>
<trkpt lat="49.64237591251731" lon="9.053567871451378">
<ele>474.4</ele>
<time>2024-05-10T11:16:49Z</time>
</trkpt>
<trkpt lat="49.642379684373736" lon="9.053528727963569">
<ele>474.2</ele>
<time>2024-05-10T11:16:50Z</time>
</trkpt>
<trkpt lat="49.642379684373736" lon="9.053478185087442">
<ele>473.8</ele>
<time>2024-05-10T11:16:51Z</time>
</trkpt>
<trkpt lat="49.642379684373736" lon="9.053435269743204">
<ele>473.6</ele>
<time>2024-05-10T11:16:52Z</time>
</trkpt>
<trkpt lat="49.642379684373736" lon="9.053389504551888">
<ele>473.2</ele>
<time>2024-05-10T11:16:53Z</time>
</trkpt>
<trkpt lat="49.642383540049195" lon="9.053350444883108">
<ele>473</ele>
<time>2024-05-10T11:16:54Z</time>
</trkpt>
<trkpt lat="49.64239116758108" lon="9.053313229233028">
<ele>472.6</ele>
<time>2024-05-10T11:16:55Z</time>
</trkpt>
<trkpt lat="49.64238731190562" lon="9.053275091573596">
<ele>472.4</ele>
<time>2024-05-10T11:16:56Z</time>
</trkpt>
<trkpt lat="49.64239493943751" lon="9.053236953914164">
<ele>472</ele>
<time>2024-05-10T11:16:57Z</time>
</trkpt>
<trkpt lat="49.64239879511297" lon="9.053201666101812">
<ele>471.6</ele>
<time>2024-05-10T11:16:58Z</time>
</trkpt>
<trkpt lat="49.64241027832031" lon="9.05316637828946">
<ele>471.4</ele>
<time>2024-05-10T11:16:59Z</time>
</trkpt>
<trkpt lat="49.64241405017674" lon="9.053134862333536">
<ele>471.2</ele>
<time>2024-05-10T11:17:00Z</time>
</trkpt>
<trkpt lat="49.642421677708626" lon="9.053101502358912">
<ele>471</ele>
<time>2024-05-10T11:17:01Z</time>
</trkpt>
<trkpt lat="49.64242930524051" lon="9.053071914240718">
<ele>470.8</ele>
<time>2024-05-10T11:17:02Z</time>
</trkpt>
<trkpt lat="49.64243316091597" lon="9.053043331950905">
<ele>470.6</ele>
<time>2024-05-10T11:17:03Z</time>
</trkpt>
<trkpt lat="49.64244456030429" lon="9.05300997197628">
<ele>470.4</ele>
<time>2024-05-10T11:17:04Z</time>
</trkpt>
<trkpt lat="49.64244841597974" lon="9.052987089380622">
<ele>470</ele>
<time>2024-05-10T11:17:05Z</time>
</trkpt>
<trkpt lat="49.642459815368056" lon="9.05295180156827">
<ele>469.8</ele>
<time>2024-05-10T11:17:06Z</time>
</trkpt>
<trkpt lat="49.6424712985754" lon="9.052923135459425">
<ele>469.8</ele>
<time>2024-05-10T11:17:07Z</time>
</trkpt>
<trkpt lat="49.64247507043183" lon="9.052878376096489">
<ele>469.6</ele>
<time>2024-05-10T11:17:08Z</time>
</trkpt>
<trkpt lat="49.642482697963715" lon="9.052835460752249">
<ele>469.4</ele>
<time>2024-05-10T11:17:09Z</time>
</trkpt>
<trkpt lat="49.64248655363917" lon="9.052802016958594">
<ele>469.2</ele>
<time>2024-05-10T11:17:10Z</time>
</trkpt>
<trkpt lat="49.64249418117106" lon="9.05276957899332">
<ele>468.8</ele>
<time>2024-05-10T11:17:11Z</time>
</trkpt>
<trkpt lat="49.642501808702946" lon="9.052736219018698">
<ele>468.4</ele>
<time>2024-05-10T11:17:12Z</time>
</trkpt>
<trkpt lat="49.64250558055937" lon="9.052700009196997">
<ele>468</ele>
<time>2024-05-10T11:17:13Z</time>
</trkpt>
<trkpt lat="49.64251320809126" lon="9.052669499069452">
<ele>467.6</ele>
<time>2024-05-10T11:17:14Z</time>
</trkpt>
<trkpt lat="49.642520835623145" lon="9.052631361410022">
<ele>467.2</ele>
<time>2024-05-10T11:17:15Z</time>
</trkpt>
<trkpt lat="49.64252846315503" lon="9.052599845454097">
<ele>466.8</ele>
<time>2024-05-10T11:17:16Z</time>
</trkpt>
<trkpt lat="49.64253609068692" lon="9.052573191002011">
<ele>466.4</ele>
<time>2024-05-10T11:17:17Z</time>
</trkpt>
<trkpt lat="49.64254757389426" lon="9.052531197667122">
<ele>466</ele>
<time>2024-05-10T11:17:18Z</time>
</trkpt>
<trkpt lat="49.64255520142615" lon="9.052501609548926">
<ele>465.6</ele>
<time>2024-05-10T11:17:19Z</time>
</trkpt>
<trkpt lat="49.642558973282576" lon="9.05247495509684">
<ele>465.4</ele>
<time>2024-05-10T11:17:20Z</time>
</trkpt>
<trkpt lat="49.64256660081446" lon="9.052438661456108">
<ele>465</ele>
<time>2024-05-10T11:17:21Z</time>
</trkpt>
<trkpt lat="49.64257808402181" lon="9.05239867977798">
<ele>464.8</ele>
<time>2024-05-10T11:17:22Z</time>
</trkpt>
<trkpt lat="49.64258571155369" lon="9.052359536290169">
<ele>464.6</ele>
<time>2024-05-10T11:17:23Z</time>
</trkpt>
<trkpt lat="49.64259719476104" lon="9.052319470793009">
<ele>464.2</ele>
<time>2024-05-10T11:17:24Z</time>
</trkpt>
<trkpt lat="49.64260482229293" lon="9.052289882674811">
<ele>464</ele>
<time>2024-05-10T11:17:25Z</time>
</trkpt>
<trkpt lat="49.642620077356696" lon="9.05226037837565">
<ele>463.8</ele>
<time>2024-05-10T11:17:26Z</time>
</trkpt>
<trkpt lat="49.64263147674501" lon="9.052227018401029">
<ele>463.6</ele>
<time>2024-05-10T11:17:27Z</time>
</trkpt>
<trkpt lat="49.64264673180878" lon="9.052191730588676">
<ele>463.2</ele>
<time>2024-05-10T11:17:28Z</time>
</trkpt>
<trkpt lat="49.64265821501613" lon="9.05215828679502">
<ele>463</ele>
<time>2024-05-10T11:17:29Z</time>
</trkpt>
<trkpt lat="49.64266961440444" lon="9.052122998982668">
<ele>462.8</ele>
<time>2024-05-10T11:17:30Z</time>
</trkpt>
<trkpt lat="49.64268486946821" lon="9.052089639008043">
<ele>462.6</ele>
<time>2024-05-10T11:17:31Z</time>
</trkpt>
<trkpt lat="49.64269635267556" lon="9.05206298455596">
<ele>462.2</ele>
<time>2024-05-10T11:17:32Z</time>
</trkpt>
<trkpt lat="49.64271160773933" lon="9.052029540762303">
<ele>461.8</ele>
<time>2024-05-10T11:17:33Z</time>
</trkpt>
<trkpt lat="49.64273063465953" lon="9.05200188048184">
<ele>461.6</ele>
<time>2024-05-10T11:17:34Z</time>
</trkpt>
<trkpt lat="49.642742117866874" lon="9.051975226029754">
<ele>461</ele>
<time>2024-05-10T11:17:35Z</time>
</trkpt>
<trkpt lat="49.64275360107422" lon="9.051948487758636">
<ele>460.6</ele>
<time>2024-05-10T11:17:36Z</time>
</trkpt>
<trkpt lat="49.64276885613799" lon="9.05192468315363">
<ele>460.4</ele>
<time>2024-05-10T11:17:37Z</time>
</trkpt>
<trkpt lat="49.642780255526304" lon="9.051899872720242">
<ele>460</ele>
<time>2024-05-10T11:17:38Z</time>
</trkpt>
<trkpt lat="49.64279173873365" lon="9.051875062286854">
<ele>459.8</ele>
<time>2024-05-10T11:17:39Z</time>
</trkpt>
<trkpt lat="49.642799366265535" lon="9.051851257681848">
<ele>459.4</ele>
<time>2024-05-10T11:17:40Z</time>
</trkpt>
<trkpt lat="49.64280699379742" lon="9.05182359740138">
<ele>459.2</ele>
<time>2024-05-10T11:17:41Z</time>
</trkpt>
<trkpt lat="49.642818393185735" lon="9.051796859130263">
<ele>459</ele>
<time>2024-05-10T11:17:42Z</time>
</trkpt>
<trkpt lat="49.64282987639308" lon="9.051770204678178">
<ele>458.6</ele>
<time>2024-05-10T11:17:43Z</time>
</trkpt>
<trkpt lat="49.64284513145685" lon="9.05174346640706">
<ele>458.4</ele>
<time>2024-05-10T11:17:44Z</time>
</trkpt>
<trkpt lat="49.642860386520624" lon="9.051718655973673">
<ele>458</ele>
<time>2024-05-10T11:17:45Z</time>
</trkpt>
<trkpt lat="49.64287178590894" lon="9.0516862180084">
<ele>457.8</ele>
<time>2024-05-10T11:17:46Z</time>
</trkpt>
<trkpt lat="49.64288326911628" lon="9.051659563556314">
<ele>457.4</ele>
<time>2024-05-10T11:17:47Z</time>
</trkpt>
<trkpt lat="49.642898524180055" lon="9.05162620358169">
<ele>457</ele>
<time>2024-05-10T11:17:48Z</time>
</trkpt>
<trkpt lat="49.64290992356837" lon="9.051594687625766">
<ele>456.6</ele>
<time>2024-05-10T11:17:49Z</time>
</trkpt>
<trkpt lat="49.64292140677571" lon="9.051558477804065">
<ele>456.2</ele>
<time>2024-05-10T11:17:50Z</time>
</trkpt>
<trkpt lat="49.642936661839485" lon="9.05152796767652">
<ele>456</ele>
<time>2024-05-10T11:17:51Z</time>
</trkpt>
<trkpt lat="49.64294814504683" lon="9.051496451720595">
<ele>455.6</ele>
<time>2024-05-10T11:17:52Z</time>
</trkpt>
<trkpt lat="49.6429634001106" lon="9.051461163908243">
<ele>455</ele>
<time>2024-05-10T11:17:53Z</time>
</trkpt>
<trkpt lat="49.6429824270308" lon="9.051424954086542">
<ele>454.6</ele>
<time>2024-05-10T11:17:54Z</time>
</trkpt>
<trkpt lat="49.64300153777003" lon="9.051393438130615">
<ele>453.8</ele>
<time>2024-05-10T11:17:55Z</time>
</trkpt>
<trkpt lat="49.64302056469023" lon="9.051366783678532">
<ele>453.2</ele>
<time>2024-05-10T11:17:56Z</time>
</trkpt>
<trkpt lat="49.64304344728589" lon="9.05132956802845">
<ele>452.6</ele>
<time>2024-05-10T11:17:57Z</time>
</trkpt>
<trkpt lat="49.64305870234966" lon="9.051295202225448">
<ele>452</ele>
<time>2024-05-10T11:17:58Z</time>
</trkpt>
<trkpt lat="49.643077813088894" lon="9.05126854777336">
<ele>451.4</ele>
<time>2024-05-10T11:17:59Z</time>
</trkpt>
<trkpt lat="49.643096923828125" lon="9.051239965483546">
<ele>451</ele>
<time>2024-05-10T11:18:00Z</time>
</trkpt>
<trkpt lat="49.6431121788919" lon="9.0512112993747">
<ele>450.6</ele>
<time>2024-05-10T11:18:01Z</time>
</trkpt>
<trkpt lat="49.64312743395567" lon="9.051184644922614">
<ele>450.2</ele>
<time>2024-05-10T11:18:02Z</time>
</trkpt>
<trkpt lat="49.64314268901944" lon="9.051156984642148">
<ele>449.8</ele>
<time>2024-05-10T11:18:03Z</time>
</trkpt>
<trkpt lat="49.64316171593964" lon="9.051126474514604">
<ele>449.4</ele>
<time>2024-05-10T11:18:04Z</time>
</trkpt>
<trkpt lat="49.643173199146986" lon="9.05109495855868">
<ele>449</ele>
<time>2024-05-10T11:18:05Z</time>
</trkpt>
<trkpt lat="49.64318845421076" lon="9.05107014812529">
<ele>448.6</ele>
<time>2024-05-10T11:18:06Z</time>
</trkpt>
<trkpt lat="49.64320370927453" lon="9.051050115376713">
<ele>448.4</ele>
<time>2024-05-10T11:18:07Z</time>
</trkpt>
<trkpt lat="49.64321510866285" lon="9.05103301629424">
<ele>448</ele>
<time>2024-05-10T11:18:08Z</time>
</trkpt>
<trkpt lat="49.64322659187019" lon="9.05101482756436">
<ele>447.8</ele>
<time>2024-05-10T11:18:09Z</time>
</trkpt>
<trkpt lat="49.6432379912585" lon="9.050990100950004">
<ele>447.6</ele>
<time>2024-05-10T11:18:10Z</time>
</trkpt>
<trkpt lat="49.64324561879039" lon="9.050965290516617">
<ele>447.4</ele>
<time>2024-05-10T11:18:11Z</time>
</trkpt>
<trkpt lat="49.643253246322274" lon="9.050936624407768">
<ele>447.4</ele>
<time>2024-05-10T11:18:12Z</time>
</trkpt>
<trkpt lat="49.64326472952962" lon="9.050908042117952">
<ele>447.2</ele>
<time>2024-05-10T11:18:13Z</time>
</trkpt>
<trkpt lat="49.64327621273696" lon="9.050878453999758">
<ele>447</ele>
<time>2024-05-10T11:18:14Z</time>
</trkpt>
<trkpt lat="49.64328761212528" lon="9.050838388502598">
<ele>446.8</ele>
<time>2024-05-10T11:18:15Z</time>
</trkpt>
<trkpt lat="49.64330286718905" lon="9.05079840682447">
<ele>446.6</ele>
<time>2024-05-10T11:18:16Z</time>
</trkpt>
<trkpt lat="49.643314350396395" lon="9.050761191174388">
<ele>446.4</ele>
<time>2024-05-10T11:18:17Z</time>
</trkpt>
<trkpt lat="49.643314350396395" lon="9.050728753209114">
<ele>446</ele>
<time>2024-05-10T11:18:18Z</time>
</trkpt>
<trkpt lat="49.643310494720936" lon="9.0507001709193">
<ele>445.8</ele>
<time>2024-05-10T11:18:19Z</time>
</trkpt>
<trkpt lat="49.643310494720936" lon="9.05067628249526">
<ele>445.6</ele>
<time>2024-05-10T11:18:20Z</time>
</trkpt>
<trkpt lat="49.64330672286451" lon="9.050668654963374">
<ele>445.4</ele>
<time>2024-05-10T11:18:21Z</time>
</trkpt>
<trkpt lat="49.64330286718905" lon="9.050662033259869">
<ele>445.4</ele>
<time>2024-05-10T11:18:23Z</time>
</trkpt>
<trkpt lat="49.64330286718905" lon="9.05066010542214">
<ele>445.2</ele>
<time>2024-05-10T11:18:24Z</time>
</trkpt>
<trkpt lat="49.64329909533262" lon="9.05065624974668">
<ele>445</ele>
<time>2024-05-10T11:18:25Z</time>
</trkpt>
<trkpt lat="49.64330286718905" lon="9.05065624974668">
<ele>444.8</ele>
<time>2024-05-10T11:18:26Z</time>
</trkpt>
<trkpt lat="49.64329909533262" lon="9.050655327737331">
<ele>444.6</ele>
<time>2024-05-10T11:18:29Z</time>
</trkpt>
<trkpt lat="49.64329909533262" lon="9.050653399899602">
<ele>444.6</ele>
<time>2024-05-10T11:18:30Z</time>
</trkpt>
<trkpt lat="49.64330286718905" lon="9.050651472061872">
<ele>444.4</ele>
<time>2024-05-10T11:18:33Z</time>
</trkpt>
<trkpt lat="49.64330286718905" lon="9.050649628043177">
<ele>444.4</ele>
<time>2024-05-10T11:18:36Z</time>
</trkpt>
<trkpt lat="49.64329909533262" lon="9.050648622214794">
<ele>444.2</ele>
<time>2024-05-10T11:18:38Z</time>
</trkpt>
<trkpt lat="49.64330286718905" lon="9.050648622214794">
<ele>444.2</ele>
<time>2024-05-10T11:18:39Z</time>
</trkpt>
<trkpt lat="49.64330286718905" lon="9.050646778196096">
<ele>444.2</ele>
<time>2024-05-10T11:18:40Z</time>
</trkpt>
<trkpt lat="49.64329909533262" lon="9.050646778196096">
<ele>444.2</ele>
<time>2024-05-10T11:18:41Z</time>
</trkpt>
<trkpt lat="49.64329909533262" lon="9.050644850358369">
<ele>444.2</ele>
<time>2024-05-10T11:18:43Z</time>
</trkpt>
<trkpt lat="49.64329909533262" lon="9.050646778196096">
<ele>444.2</ele>
<time>2024-05-10T11:18:44Z</time>
</trkpt>
<trkpt lat="49.64329909533262" lon="9.050644850358369">
<ele>444.2</ele>
<time>2024-05-10T11:18:47Z</time>
</trkpt>
<trkpt lat="49.64330286718905" lon="9.050642922520638">
<ele>444.2</ele>
<time>2024-05-10T11:18:51Z</time>
</trkpt>
<trkpt lat="49.64329909533262" lon="9.050642922520638">
<ele>444.2</ele>
<time>2024-05-10T11:18:52Z</time>
</trkpt>
<trkpt lat="49.64329909533262" lon="9.050644850358369">
<ele>444.2</ele>
<time>2024-05-10T11:18:53Z</time>
</trkpt>
<trkpt lat="49.64329909533262" lon="9.050642922520638">
<ele>444.2</ele>
<time>2024-05-10T11:18:54Z</time>
</trkpt>
<trkpt lat="49.64329909533262" lon="9.050642000511289">
<ele>444.2</ele>
<time>2024-05-10T11:18:57Z</time>
</trkpt>
<trkpt lat="49.64329909533262" lon="9.050642922520638">
<ele>444.2</ele>
<time>2024-05-10T11:18:58Z</time>
</trkpt>
<trkpt lat="49.64329909533262" lon="9.050642000511289">
<ele>444.2</ele>
<time>2024-05-10T11:19:01Z</time>
</trkpt>
<trkpt lat="49.64329909533262" lon="9.05064007267356">
<ele>444.2</ele>
<time>2024-05-10T11:19:06Z</time>
</trkpt>
<trkpt lat="49.64329523965717" lon="9.05063814483583">
<ele>444.2</ele>
<time>2024-05-10T11:19:07Z</time>
</trkpt>
<trkpt lat="49.64329523965717" lon="9.0506362169981">
<ele>444.4</ele>
<time>2024-05-10T11:19:11Z</time>
</trkpt>
<trkpt lat="49.643291467800736" lon="9.0506362169981">
<ele>444.4</ele>
<time>2024-05-10T11:19:18Z</time>
</trkpt>
<trkpt lat="49.643291467800736" lon="9.05063814483583">
<ele>444.4</ele>
<time>2024-05-10T11:19:20Z</time>
</trkpt>
<trkpt lat="49.643291467800736" lon="9.0506362169981">
<ele>444.4</ele>
<time>2024-05-10T11:19:30Z</time>
</trkpt>
<trkpt lat="49.643291467800736" lon="9.05063814483583">
<ele>444.4</ele>
<time>2024-05-10T11:19:43Z</time>
</trkpt>
<trkpt lat="49.643291467800736" lon="9.05064007267356">
<ele>444.2</ele>
<time>2024-05-10T11:19:47Z</time>
</trkpt>
<trkpt lat="49.643291467800736" lon="9.05063814483583">
<ele>444.2</ele>
<time>2024-05-10T11:19:48Z</time>
</trkpt>
<trkpt lat="49.643291467800736" lon="9.0506362169981">
<ele>444.2</ele>
<time>2024-05-10T11:19:51Z</time>
</trkpt>
<trkpt lat="49.643291467800736" lon="9.050635294988751">
<ele>444.2</ele>
<time>2024-05-10T11:19:57Z</time>
</trkpt>
<trkpt lat="49.64328761212528" lon="9.050635294988751">
<ele>444.2</ele>
<time>2024-05-10T11:19:58Z</time>
</trkpt>
<trkpt lat="49.64328761212528" lon="9.050633367151022">
<ele>444.2</ele>
<time>2024-05-10T11:20:04Z</time>
</trkpt>
<trkpt lat="49.64328761212528" lon="9.050631523132324">
<ele>444</ele>
<time>2024-05-10T11:20:10Z</time>
</trkpt>
<trkpt lat="49.64328761212528" lon="9.050628589466214">
<ele>444</ele>
<time>2024-05-10T11:20:12Z</time>
</trkpt>
<trkpt lat="49.643291467800736" lon="9.050624817609789">
<ele>443.8</ele>
<time>2024-05-10T11:20:13Z</time>
</trkpt>
<trkpt lat="49.643291467800736" lon="9.05061618424952">
<ele>443.8</ele>
<time>2024-05-10T11:20:14Z</time>
</trkpt>
<trkpt lat="49.64328761212528" lon="9.050606712698936">
<ele>443.8</ele>
<time>2024-05-10T11:20:15Z</time>
</trkpt>
<trkpt lat="49.64327621273696" lon="9.050596235319972">
<ele>443.6</ele>
<time>2024-05-10T11:20:16Z</time>
</trkpt>
<trkpt lat="49.64326472952962" lon="9.050575196743011">
<ele>443.6</ele>
<time>2024-05-10T11:20:17Z</time>
</trkpt>
<trkpt lat="49.64324561879039" lon="9.050568575039506">
<ele>443.6</ele>
<time>2024-05-10T11:20:18Z</time>
</trkpt>
<trkpt lat="49.64322659187019" lon="9.050562791526318">
<ele>443.4</ele>
<time>2024-05-10T11:20:19Z</time>
</trkpt>
<trkpt lat="49.64319985359907" lon="9.05055994167924">
<ele>443.4</ele>
<time>2024-05-10T11:20:20Z</time>
</trkpt>
<trkpt lat="49.64317697100341" lon="9.050555163994431">
<ele>443.4</ele>
<time>2024-05-10T11:20:21Z</time>
</trkpt>
<trkpt lat="49.643157944083214" lon="9.050551392138004">
<ele>443.4</ele>
<time>2024-05-10T11:20:22Z</time>
</trkpt>
<trkpt lat="49.643135061487556" lon="9.050551392138004">
<ele>443.4</ele>
<time>2024-05-10T11:20:23Z</time>
</trkpt>
<trkpt lat="49.64311980642378" lon="9.050561869516969">
<ele>443.2</ele>
<time>2024-05-10T11:20:24Z</time>
</trkpt>
<trkpt lat="49.64310069568455" lon="9.050573268905282">
<ele>443</ele>
<time>2024-05-10T11:20:25Z</time>
</trkpt>
<trkpt lat="49.64308544062078" lon="9.050586679950356">
<ele>443</ele>
<time>2024-05-10T11:20:26Z</time>
</trkpt>
<trkpt lat="49.64306632988155" lon="9.05059807933867">
<ele>442.8</ele>
<time>2024-05-10T11:20:27Z</time>
</trkpt>
<trkpt lat="49.64305107481778" lon="9.050601935014129">
<ele>442.6</ele>
<time>2024-05-10T11:20:28Z</time>
</trkpt>
<trkpt lat="49.64303204789758" lon="9.050611490383744">
<ele>442.6</ele>
<time>2024-05-10T11:20:29Z</time>
</trkpt>
<trkpt lat="49.643016792833805" lon="9.050635294988751">
<ele>442.2</ele>
<time>2024-05-10T11:20:30Z</time>
</trkpt>
<trkpt lat="49.642997682094574" lon="9.050646778196096">
<ele>442</ele>
<time>2024-05-10T11:20:31Z</time>
</trkpt>
<trkpt lat="49.6429824270308" lon="9.05065624974668">
<ele>441.6</ele>
<time>2024-05-10T11:20:32Z</time>
</trkpt>
<trkpt lat="49.64296717196703" lon="9.05066010542214">
<ele>441.4</ele>
<time>2024-05-10T11:20:33Z</time>
</trkpt>
<trkpt lat="49.6429634001106" lon="9.05065817758441">
<ele>441</ele>
<time>2024-05-10T11:20:34Z</time>
</trkpt>
<trkpt lat="49.6429634001106" lon="9.05066010542214">
<ele>440.8</ele>
<time>2024-05-10T11:20:35Z</time>
</trkpt>
<trkpt lat="49.6429634001106" lon="9.050662033259869">
<ele>440.4</ele>
<time>2024-05-10T11:20:36Z</time>
</trkpt>
<trkpt lat="49.64295954443514" lon="9.050662033259869">
<ele>440.2</ele>
<time>2024-05-10T11:20:37Z</time>
</trkpt>
<trkpt lat="49.64295954443514" lon="9.05066010542214">
<ele>439.8</ele>
<time>2024-05-10T11:20:39Z</time>
</trkpt>
<trkpt lat="49.64295577257872" lon="9.05065817758441">
<ele>439.6</ele>
<time>2024-05-10T11:20:40Z</time>
</trkpt>
<trkpt lat="49.64295191690326" lon="9.05065817758441">
<ele>439.4</ele>
<time>2024-05-10T11:20:41Z</time>
</trkpt>
<trkpt lat="49.64295191690326" lon="9.05066010542214">
<ele>438.6</ele>
<time>2024-05-10T11:20:43Z</time>
</trkpt>
<trkpt lat="49.64295191690326" lon="9.05065817758441">
<ele>438</ele>
<time>2024-05-10T11:20:46Z</time>
</trkpt>
<trkpt lat="49.64294814504683" lon="9.05065817758441">
<ele>437.4</ele>
<time>2024-05-10T11:20:48Z</time>
</trkpt>
<trkpt lat="49.64294814504683" lon="9.05065624974668">
<ele>437.2</ele>
<time>2024-05-10T11:20:50Z</time>
</trkpt>
<trkpt lat="49.64294814504683" lon="9.050655327737331">
<ele>437</ele>
<time>2024-05-10T11:20:51Z</time>
</trkpt>
<trkpt lat="49.64294814504683" lon="9.05065624974668">
<ele>436.8</ele>
<time>2024-05-10T11:20:53Z</time>
</trkpt>
<trkpt lat="49.64294428937137" lon="9.050655327737331">
<ele>436.6</ele>
<time>2024-05-10T11:20:55Z</time>
</trkpt>
<trkpt lat="49.64294428937137" lon="9.050653399899602">
<ele>436.6</ele>
<time>2024-05-10T11:20:57Z</time>
</trkpt>
<trkpt lat="49.64294428937137" lon="9.050651472061872">
<ele>436.4</ele>
<time>2024-05-10T11:20:58Z</time>
</trkpt>
<trkpt lat="49.642940517514944" lon="9.050644850358369">
<ele>436.4</ele>
<time>2024-05-10T11:21:00Z</time>
</trkpt>
<trkpt lat="49.642940517514944" lon="9.050642000511289">
<ele>436.2</ele>
<time>2024-05-10T11:21:01Z</time>
</trkpt>
<trkpt lat="49.642936661839485" lon="9.050642000511289">
<ele>436.2</ele>
<time>2024-05-10T11:21:03Z</time>
</trkpt>
<trkpt lat="49.642936661839485" lon="9.05064007267356">
<ele>436.2</ele>
<time>2024-05-10T11:21:04Z</time>
</trkpt>
<trkpt lat="49.642936661839485" lon="9.05063814483583">
<ele>436.2</ele>
<time>2024-05-10T11:21:05Z</time>
</trkpt>
<trkpt lat="49.642936661839485" lon="9.050635294988751">
<ele>436.2</ele>
<time>2024-05-10T11:21:06Z</time>
</trkpt>
<trkpt lat="49.642936661839485" lon="9.050631523132324">
<ele>436.2</ele>
<time>2024-05-10T11:21:07Z</time>
</trkpt>
<trkpt lat="49.64293288998306" lon="9.050631523132324">
<ele>436.2</ele>
<time>2024-05-10T11:21:08Z</time>
</trkpt>
<trkpt lat="49.642936661839485" lon="9.050629595294597">
<ele>436.2</ele>
<time>2024-05-10T11:21:09Z</time>
</trkpt>
<trkpt lat="49.64293288998306" lon="9.05062003992498">
<ele>436.2</ele>
<time>2024-05-10T11:21:10Z</time>
</trkpt>
<trkpt lat="49.642936661839485" lon="9.050611490383744">
<ele>436.2</ele>
<time>2024-05-10T11:21:11Z</time>
</trkpt>
<trkpt lat="49.642936661839485" lon="9.050601935014129">
<ele>436.2</ele>
<time>2024-05-10T11:21:12Z</time>
</trkpt>
<trkpt lat="49.642940517514944" lon="9.050591457635164">
<ele>436.2</ele>
<time>2024-05-10T11:21:13Z</time>
</trkpt>
<trkpt lat="49.64294428937137" lon="9.050589529797437">
<ele>436.2</ele>
<time>2024-05-10T11:21:14Z</time>
</trkpt>
<trkpt lat="49.64295191690326" lon="9.050584752112629">
<ele>436.4</ele>
<time>2024-05-10T11:21:15Z</time>
</trkpt>
<trkpt lat="49.6429634001106" lon="9.050582824274898">
<ele>436.4</ele>
<time>2024-05-10T11:21:16Z</time>
</trkpt>
<trkpt lat="49.64297102764249" lon="9.05057997442782">
<ele>436.6</ele>
<time>2024-05-10T11:21:17Z</time>
</trkpt>
<trkpt lat="49.642978655174375" lon="9.05057997442782">
<ele>436.8</ele>
<time>2024-05-10T11:21:18Z</time>
</trkpt>
<trkpt lat="49.6429824270308" lon="9.05057804659009">
<ele>437</ele>
<time>2024-05-10T11:21:19Z</time>
</trkpt>
<trkpt lat="49.64299391023815" lon="9.05057804659009">
<ele>437</ele>
<time>2024-05-10T11:21:20Z</time>
</trkpt>
<trkpt lat="49.64300153777003" lon="9.050576202571392">
<ele>437.2</ele>
<time>2024-05-10T11:21:21Z</time>
</trkpt>
<trkpt lat="49.643016792833805" lon="9.050573268905282">
<ele>437.4</ele>
<time>2024-05-10T11:21:22Z</time>
</trkpt>
<trkpt lat="49.64302819222212" lon="9.050575196743011">
<ele>437.6</ele>
<time>2024-05-10T11:21:23Z</time>
</trkpt>
<trkpt lat="49.64304344728589" lon="9.050575196743011">
<ele>437.8</ele>
<time>2024-05-10T11:21:24Z</time>
</trkpt>
<trkpt lat="49.64305107481778" lon="9.050561869516969">
<ele>438</ele>
<time>2024-05-10T11:21:25Z</time>
</trkpt>
<trkpt lat="49.64306632988155" lon="9.05055801384151">
<ele>438.4</ele>
<time>2024-05-10T11:21:26Z</time>
</trkpt>
<trkpt lat="49.64308158494532" lon="9.05055801384151">
<ele>438.6</ele>
<time>2024-05-10T11:21:27Z</time>
</trkpt>
<trkpt lat="49.64308544062078" lon="9.05055709183216">
<ele>438.8</ele>
<time>2024-05-10T11:21:28Z</time>
</trkpt>
<trkpt lat="49.643096923828125" lon="9.050555163994431">
<ele>439</ele>
<time>2024-05-10T11:21:29Z</time>
</trkpt>
<trkpt lat="49.64310832321644" lon="9.05055709183216">
<ele>439.2</ele>
<time>2024-05-10T11:21:30Z</time>
</trkpt>
<trkpt lat="49.64312743395567" lon="9.050562791526318">
<ele>439.4</ele>
<time>2024-05-10T11:21:31Z</time>
</trkpt>
<trkpt lat="49.64313883334398" lon="9.05055709183216">
<ele>439.6</ele>
<time>2024-05-10T11:21:32Z</time>
</trkpt>
<trkpt lat="49.64315031655133" lon="9.05055994167924">
<ele>439.6</ele>
<time>2024-05-10T11:21:33Z</time>
</trkpt>
<trkpt lat="49.64316171593964" lon="9.050561869516969">
<ele>439.8</ele>
<time>2024-05-10T11:21:34Z</time>
</trkpt>
<trkpt lat="49.64316934347153" lon="9.05055994167924">
<ele>439.8</ele>
<time>2024-05-10T11:21:35Z</time>
</trkpt>
<trkpt lat="49.643173199146986" lon="9.05055709183216">
<ele>440</ele>
<time>2024-05-10T11:21:36Z</time>
</trkpt>
<trkpt lat="49.6431845985353" lon="9.050555163994431">
<ele>440.2</ele>
<time>2024-05-10T11:21:37Z</time>
</trkpt>
<trkpt lat="49.643192226067185" lon="9.050553319975734">
<ele>440.4</ele>
<time>2024-05-10T11:21:38Z</time>
</trkpt>
<trkpt lat="49.64320370927453" lon="9.050555163994431">
<ele>440.6</ele>
<time>2024-05-10T11:21:39Z</time>
</trkpt>
<trkpt lat="49.64321510866285" lon="9.050571424886584">
<ele>440.6</ele>
<time>2024-05-10T11:21:40Z</time>
</trkpt>
<trkpt lat="49.64322659187019" lon="9.050582824274898">
<ele>440.8</ele>
<time>2024-05-10T11:21:41Z</time>
</trkpt>
<trkpt lat="49.6432379912585" lon="9.050591457635164">
<ele>441</ele>
<time>2024-05-10T11:21:42Z</time>
</trkpt>
<trkpt lat="49.64324947446585" lon="9.050595229491591">
<ele>441.2</ele>
<time>2024-05-10T11:21:43Z</time>
</trkpt>
<trkpt lat="49.64325710199773" lon="9.050596235319972">
<ele>441.4</ele>
<time>2024-05-10T11:21:44Z</time>
</trkpt>
<trkpt lat="49.64326472952962" lon="9.0506000071764">
<ele>441.6</ele>
<time>2024-05-10T11:21:45Z</time>
</trkpt>
<trkpt lat="49.64326858520508" lon="9.050611490383744">
<ele>441.8</ele>
<time>2024-05-10T11:21:46Z</time>
</trkpt>
<trkpt lat="49.64327621273696" lon="9.050624817609789">
<ele>441.8</ele>
<time>2024-05-10T11:21:47Z</time>
</trkpt>
<trkpt lat="49.64328384026885" lon="9.050626745447516">
<ele>442</ele>
<time>2024-05-10T11:21:48Z</time>
</trkpt>
<trkpt lat="49.64328384026885" lon="9.050622889772058">
<ele>442.2</ele>
<time>2024-05-10T11:21:49Z</time>
</trkpt>
<trkpt lat="49.643291467800736" lon="9.050628589466214">
<ele>442.4</ele>
<time>2024-05-10T11:21:50Z</time>
</trkpt>
<trkpt lat="49.643291467800736" lon="9.050622889772058">
<ele>442.6</ele>
<time>2024-05-10T11:21:51Z</time>
</trkpt>
<trkpt lat="49.64329523965717" lon="9.050621967762709">
<ele>442.8</ele>
<time>2024-05-10T11:21:52Z</time>
</trkpt>
<trkpt lat="49.64329523965717" lon="9.050613334402442">
<ele>443</ele>
<time>2024-05-10T11:21:53Z</time>
</trkpt>
<trkpt lat="49.64329523965717" lon="9.050611490383744">
<ele>443.2</ele>
<time>2024-05-10T11:21:54Z</time>
</trkpt>
<trkpt lat="49.643291467800736" lon="9.050608556717634">
<ele>443.4</ele>
<time>2024-05-10T11:21:56Z</time>
</trkpt>
<trkpt lat="49.643291467800736" lon="9.050609562546017">
<ele>443.4</ele>
<time>2024-05-10T11:21:58Z</time>
</trkpt>
<trkpt lat="49.643291467800736" lon="9.050608556717634">
<ele>443.6</ele>
<time>2024-05-10T11:21:59Z</time>
</trkpt>
<trkpt lat="49.643291467800736" lon="9.050609562546017">
<ele>443.6</ele>
<time>2024-05-10T11:22:03Z</time>
</trkpt>
<trkpt lat="49.643291467800736" lon="9.050611490383744">
<ele>443.8</ele>
<time>2024-05-10T11:22:05Z</time>
</trkpt>
<trkpt lat="49.643291467800736" lon="9.050613334402442">
<ele>443.8</ele>
<time>2024-05-10T11:22:09Z</time>
</trkpt>
<trkpt lat="49.643291467800736" lon="9.050611490383744">
<ele>443.8</ele>
<time>2024-05-10T11:22:10Z</time>
</trkpt>
<trkpt lat="49.64329523965717" lon="9.050608556717634">
<ele>443.8</ele>
<time>2024-05-10T11:22:11Z</time>
</trkpt>
<trkpt lat="49.64329909533262" lon="9.050602857023478">
<ele>443.8</ele>
<time>2024-05-10T11:22:12Z</time>
</trkpt>
<trkpt lat="49.64329909533262" lon="9.050601935014129">
<ele>444</ele>
<time>2024-05-10T11:22:13Z</time>
</trkpt>
<trkpt lat="49.64330286718905" lon="9.0506000071764">
<ele>444</ele>
<time>2024-05-10T11:22:14Z</time>
</trkpt>
<trkpt lat="49.64330286718905" lon="9.05059807933867">
<ele>444</ele>
<time>2024-05-10T11:22:15Z</time>
</trkpt>
<trkpt lat="49.64330672286451" lon="9.050589529797437">
<ele>444</ele>
<time>2024-05-10T11:22:16Z</time>
</trkpt>
<trkpt lat="49.643310494720936" lon="9.050581902265549">
<ele>444</ele>
<time>2024-05-10T11:22:17Z</time>
</trkpt>
<trkpt lat="49.643314350396395" lon="9.050571424886584">
<ele>444</ele>
<time>2024-05-10T11:22:18Z</time>
</trkpt>
<trkpt lat="49.64331812225282" lon="9.050561869516969">
<ele>444</ele>
<time>2024-05-10T11:22:19Z</time>
</trkpt>
<trkpt lat="49.64331812225282" lon="9.050550386309624">
<ele>443.8</ele>
<time>2024-05-10T11:22:20Z</time>
</trkpt>
<trkpt lat="49.64332197792828" lon="9.050541836768389">
<ele>443.8</ele>
<time>2024-05-10T11:22:21Z</time>
</trkpt>
<trkpt lat="49.64332197792828" lon="9.050530353561044">
<ele>443.8</ele>
<time>2024-05-10T11:22:22Z</time>
</trkpt>
<trkpt lat="49.64332574978471" lon="9.050521804019809">
<ele>443.8</ele>
<time>2024-05-10T11:22:23Z</time>
</trkpt>
<trkpt lat="49.64332574978471" lon="9.050517026335">
<ele>443.8</ele>
<time>2024-05-10T11:22:24Z</time>
</trkpt>
<trkpt lat="49.64332574978471" lon="9.050515098497272">
<ele>443.8</ele>
<time>2024-05-10T11:22:25Z</time>
</trkpt>
<trkpt lat="49.64332574978471" lon="9.050513254478574">
<ele>443.8</ele>
<time>2024-05-10T11:22:26Z</time>
</trkpt>
<trkpt lat="49.64332574978471" lon="9.050511326640844">
<ele>443.8</ele>
<time>2024-05-10T11:22:27Z</time>
</trkpt>
<trkpt lat="49.64332197792828" lon="9.050510404631495">
<ele>444</ele>
<time>2024-05-10T11:22:28Z</time>
</trkpt>
<trkpt lat="49.64332197792828" lon="9.050508476793766">
<ele>444</ele>
<time>2024-05-10T11:22:29Z</time>
</trkpt>
<trkpt lat="49.64332197792828" lon="9.050504621118307">
<ele>444.2</ele>
<time>2024-05-10T11:22:31Z</time>
</trkpt>
<trkpt lat="49.64331812225282" lon="9.050503699108958">
<ele>444.2</ele>
<time>2024-05-10T11:22:32Z</time>
</trkpt>
<trkpt lat="49.64331812225282" lon="9.050501771271229">
<ele>444.4</ele>
<time>2024-05-10T11:22:33Z</time>
</trkpt>
<trkpt lat="49.64331812225282" lon="9.0504998434335">
<ele>444.2</ele>
<time>2024-05-10T11:22:34Z</time>
</trkpt>
<trkpt lat="49.64331812225282" lon="9.050497999414802">
<ele>444.2</ele>
<time>2024-05-10T11:22:35Z</time>
</trkpt>
<trkpt lat="49.64331812225282" lon="9.05049699358642">
<ele>444.2</ele>
<time>2024-05-10T11:22:36Z</time>
</trkpt>
<trkpt lat="49.64331812225282" lon="9.050495065748692">
<ele>444.2</ele>
<time>2024-05-10T11:22:38Z</time>
</trkpt>
<trkpt lat="49.64331812225282" lon="9.050493221729994">
<ele>444</ele>
<time>2024-05-10T11:22:40Z</time>
</trkpt>
<trkpt lat="49.64331812225282" lon="9.050491293892264">
<ele>444.2</ele>
<time>2024-05-10T11:22:42Z</time>
</trkpt>
<trkpt lat="49.64331812225282" lon="9.050490371882915">
<ele>444.2</ele>
<time>2024-05-10T11:22:43Z</time>
</trkpt>
<trkpt lat="49.64331812225282" lon="9.050488444045186">
<ele>444.2</ele>
<time>2024-05-10T11:22:45Z</time>
</trkpt>
<trkpt lat="49.64331812225282" lon="9.050490371882915">
<ele>444.2</ele>
<time>2024-05-10T11:22:53Z</time>
</trkpt>
<trkpt lat="49.64331812225282" lon="9.050488444045186">
<ele>444.2</ele>
<time>2024-05-10T11:22:54Z</time>
</trkpt>
<trkpt lat="49.64331812225282" lon="9.050486516207457">
<ele>444.2</ele>
<time>2024-05-10T11:22:56Z</time>
</trkpt>
<trkpt lat="49.64331812225282" lon="9.050483666360378">
<ele>444.2</ele>
<time>2024-05-10T11:22:57Z</time>
</trkpt>
<trkpt lat="49.64331812225282" lon="9.050481738522649">
<ele>444.2</ele>
<time>2024-05-10T11:22:59Z</time>
</trkpt>
<trkpt lat="49.64331812225282" lon="9.050483666360378">
<ele>444.2</ele>
<time>2024-05-10T11:23:00Z</time>
</trkpt>
<trkpt lat="49.64331812225282" lon="9.050484588369727">
<ele>444.2</ele>
<time>2024-05-10T11:23:04Z</time>
</trkpt>
<trkpt lat="49.64331812225282" lon="9.050486516207457">
<ele>444.2</ele>
<time>2024-05-10T11:23:10Z</time>
</trkpt>
<trkpt lat="49.643314350396395" lon="9.050486516207457">
<ele>444.2</ele>
<time>2024-05-10T11:23:12Z</time>
</trkpt>
<trkpt lat="49.643310494720936" lon="9.050486516207457">
<ele>444.2</ele>
<time>2024-05-10T11:23:23Z</time>
</trkpt>
<trkpt lat="49.643310494720936" lon="9.050488444045186">
<ele>444.2</ele>
<time>2024-05-10T11:23:26Z</time>
</trkpt>
<trkpt lat="49.643310494720936" lon="9.050490371882915">
<ele>444.2</ele>
<time>2024-05-10T11:23:33Z</time>
</trkpt>
<trkpt lat="49.643310494720936" lon="9.050488444045186">
<ele>444.2</ele>
<time>2024-05-10T11:23:37Z</time>
</trkpt>
<trkpt lat="49.643310494720936" lon="9.050486516207457">
<ele>444.2</ele>
<time>2024-05-10T11:23:39Z</time>
</trkpt>
<trkpt lat="49.643310494720936" lon="9.050484588369727">
<ele>444.2</ele>
<time>2024-05-10T11:23:40Z</time>
</trkpt>
<trkpt lat="49.643310494720936" lon="9.050483666360378">
<ele>444.2</ele>
<time>2024-05-10T11:23:44Z</time>
</trkpt>
<trkpt lat="49.643310494720936" lon="9.050481738522649">
<ele>444.2</ele>
<time>2024-05-10T11:23:46Z</time>
</trkpt>
<trkpt lat="49.643310494720936" lon="9.05047981068492">
<ele>444.2</ele>
<time>2024-05-10T11:23:49Z</time>
</trkpt>
<trkpt lat="49.643310494720936" lon="9.050481738522649">
<ele>444.2</ele>
<time>2024-05-10T11:24:12Z</time>
</trkpt>
<trkpt lat="49.643310494720936" lon="9.05047981068492">
<ele>444.2</ele>
<time>2024-05-10T11:24:16Z</time>
</trkpt>
<trkpt lat="49.643310494720936" lon="9.050477966666222">
<ele>444.2</ele>
<time>2024-05-10T11:24:32Z</time>
</trkpt>
<trkpt lat="49.643310494720936" lon="9.05047696083784">
<ele>444.2</ele>
<time>2024-05-10T11:24:35Z</time>
</trkpt>
<trkpt lat="49.64330672286451" lon="9.050475116819143">
<ele>444.2</ele>
<time>2024-05-10T11:24:40Z</time>
</trkpt>
<trkpt lat="49.643310494720936" lon="9.050473188981414">
<ele>444.2</ele>
<time>2024-05-10T11:24:41Z</time>
</trkpt>
<trkpt lat="49.643310494720936" lon="9.050475116819143">
<ele>444.2</ele>
<time>2024-05-10T11:24:47Z</time>
</trkpt>
<trkpt lat="49.643310494720936" lon="9.05047696083784">
<ele>444.2</ele>
<time>2024-05-10T11:24:52Z</time>
</trkpt>
<trkpt lat="49.643310494720936" lon="9.050475116819143">
<ele>444.2</ele>
<time>2024-05-10T11:24:53Z</time>
</trkpt>
<trkpt lat="49.643310494720936" lon="9.050473188981414">
<ele>444.2</ele>
<time>2024-05-10T11:24:55Z</time>
</trkpt>
<trkpt lat="49.643310494720936" lon="9.050471261143684">
<ele>444.2</ele>
<time>2024-05-10T11:24:57Z</time>
</trkpt>
<trkpt lat="49.643310494720936" lon="9.050473188981414">
<ele>444.2</ele>
<time>2024-05-10T11:25:01Z</time>
</trkpt>
<trkpt lat="49.643310494720936" lon="9.050475116819143">
<ele>444.2</ele>
<time>2024-05-10T11:25:05Z</time>
</trkpt>
<trkpt lat="49.643314350396395" lon="9.05047696083784">
<ele>444.2</ele>
<time>2024-05-10T11:25:08Z</time>
</trkpt>
<trkpt lat="49.643310494720936" lon="9.05047696083784">
<ele>444.2</ele>
<time>2024-05-10T11:25:09Z</time>
</trkpt>
<trkpt lat="49.643310494720936" lon="9.050475116819143">
<ele>444.2</ele>
<time>2024-05-10T11:25:11Z</time>
</trkpt>
<trkpt lat="49.643310494720936" lon="9.05047696083784">
<ele>444.2</ele>
<time>2024-05-10T11:25:15Z</time>
</trkpt>
<trkpt lat="49.643310494720936" lon="9.050477966666222">
<ele>444.2</ele>
<time>2024-05-10T11:25:17Z</time>
</trkpt>
<trkpt lat="49.643310494720936" lon="9.05047981068492">
<ele>444.2</ele>
<time>2024-05-10T11:25:20Z</time>
</trkpt>
<trkpt lat="49.643310494720936" lon="9.050481738522649">
<ele>444.2</ele>
<time>2024-05-10T11:25:22Z</time>
</trkpt>
<trkpt lat="49.643314350396395" lon="9.050483666360378">
<ele>444.2</ele>
<time>2024-05-10T11:25:25Z</time>
</trkpt>
<trkpt lat="49.643314350396395" lon="9.050486516207457">
<ele>444.2</ele>
<time>2024-05-10T11:25:26Z</time>
</trkpt>
<trkpt lat="49.64331812225282" lon="9.050486516207457">
<ele>444.2</ele>
<time>2024-05-10T11:25:31Z</time>
</trkpt>
<trkpt lat="49.64331812225282" lon="9.050488444045186">
<ele>444.2</ele>
<time>2024-05-10T11:25:34Z</time>
</trkpt>
<trkpt lat="49.64331812225282" lon="9.050486516207457">
<ele>444.2</ele>
<time>2024-05-10T11:25:36Z</time>
</trkpt>
<trkpt lat="49.64331812225282" lon="9.050484588369727">
<ele>444.2</ele>
<time>2024-05-10T11:25:39Z</time>
</trkpt>
<trkpt lat="49.64331812225282" lon="9.050483666360378">
<ele>444.2</ele>
<time>2024-05-10T11:25:43Z</time>
</trkpt>
<trkpt lat="49.64331812225282" lon="9.050484588369727">
<ele>444.2</ele>
<time>2024-05-10T11:25:45Z</time>
</trkpt>
<trkpt lat="49.64331812225282" lon="9.050483666360378">
<ele>444.2</ele>
<time>2024-05-10T11:25:48Z</time>
</trkpt>
<trkpt lat="49.643314350396395" lon="9.050484588369727">
<ele>444.2</ele>
<time>2024-05-10T11:25:49Z</time>
</trkpt>
<trkpt lat="49.64331812225282" lon="9.050484588369727">
<ele>444.2</ele>
<time>2024-05-10T11:25:50Z</time>
</trkpt>
<trkpt lat="49.64331812225282" lon="9.050483666360378">
<ele>444.2</ele>
<time>2024-05-10T11:25:51Z</time>
</trkpt>
<trkpt lat="49.64331812225282" lon="9.05047981068492">
<ele>444.2</ele>
<time>2024-05-10T11:25:52Z</time>
</trkpt>
<trkpt lat="49.64331812225282" lon="9.050483666360378">
<ele>444.2</ele>
<time>2024-05-10T11:25:55Z</time>
</trkpt>
<trkpt lat="49.64331812225282" lon="9.050484588369727">
<ele>444.2</ele>
<time>2024-05-10T11:25:56Z</time>
</trkpt>
<trkpt lat="49.64331812225282" lon="9.050483666360378">
<ele>444.2</ele>
<time>2024-05-10T11:25:57Z</time>
</trkpt>
<trkpt lat="49.64331812225282" lon="9.05047981068492">
<ele>444.2</ele>
<time>2024-05-10T11:25:58Z</time>
</trkpt>
<trkpt lat="49.643314350396395" lon="9.050477966666222">
<ele>444.2</ele>
<time>2024-05-10T11:25:59Z</time>
</trkpt>
<trkpt lat="49.64331812225282" lon="9.050477966666222">
<ele>444.2</ele>
<time>2024-05-10T11:26:00Z</time>
</trkpt>
<trkpt lat="49.64331812225282" lon="9.05047696083784">
<ele>444.2</ele>
<time>2024-05-10T11:26:01Z</time>
</trkpt>
<trkpt lat="49.64331812225282" lon="9.050475116819143">
<ele>444.2</ele>
<time>2024-05-10T11:26:02Z</time>
</trkpt>
<trkpt lat="49.643314350396395" lon="9.050473188981414">
<ele>444.2</ele>
<time>2024-05-10T11:26:03Z</time>
</trkpt>
<trkpt lat="49.643314350396395" lon="9.050475116819143">
<ele>444.2</ele>
<time>2024-05-10T11:26:05Z</time>
</trkpt>
<trkpt lat="49.643314350396395" lon="9.05047696083784">
<ele>444.2</ele>
<time>2024-05-10T11:26:06Z</time>
</trkpt>
<trkpt lat="49.643314350396395" lon="9.050473188981414">
<ele>444.2</ele>
<time>2024-05-10T11:26:07Z</time>
</trkpt>
<trkpt lat="49.643314350396395" lon="9.050470339134336">
<ele>444.2</ele>
<time>2024-05-10T11:26:08Z</time>
</trkpt>
<trkpt lat="49.643314350396395" lon="9.050468411296606">
<ele>444.2</ele>
<time>2024-05-10T11:26:09Z</time>
</trkpt>
<trkpt lat="49.643314350396395" lon="9.050466483458877">
<ele>444.2</ele>
<time>2024-05-10T11:26:10Z</time>
</trkpt>
<trkpt lat="49.64331812225282" lon="9.050466483458877">
<ele>444.2</ele>
<time>2024-05-10T11:26:11Z</time>
</trkpt>
<trkpt lat="49.64331812225282" lon="9.050464555621147">
<ele>444.2</ele>
<time>2024-05-10T11:26:13Z</time>
</trkpt>
<trkpt lat="49.64332574978471" lon="9.050457933917642">
<ele>444.2</ele>
<time>2024-05-10T11:26:15Z</time>
</trkpt>
<trkpt lat="49.64332960546017" lon="9.050453156232834">
<ele>444.2</ele>
<time>2024-05-10T11:26:16Z</time>
</trkpt>
<trkpt lat="49.643333377316594" lon="9.050446450710297">
<ele>444.2</ele>
<time>2024-05-10T11:26:17Z</time>
</trkpt>
<trkpt lat="49.643333377316594" lon="9.050433123484254">
<ele>444.2</ele>
<time>2024-05-10T11:26:18Z</time>
</trkpt>
<trkpt lat="49.643333377316594" lon="9.050413090735674">
<ele>444.2</ele>
<time>2024-05-10T11:26:19Z</time>
</trkpt>
<trkpt lat="49.64333723299205" lon="9.050401607528327">
<ele>444.2</ele>
<time>2024-05-10T11:26:20Z</time>
</trkpt>
<trkpt lat="49.64334100484848" lon="9.050383502617478">
<ele>444.2</ele>
<time>2024-05-10T11:26:21Z</time>
</trkpt>
<trkpt lat="49.64334100484848" lon="9.050365397706628">
<ele>444.2</ele>
<time>2024-05-10T11:26:22Z</time>
</trkpt>
<trkpt lat="49.64333723299205" lon="9.05035869218409">
<ele>444.2</ele>
<time>2024-05-10T11:26:23Z</time>
</trkpt>
<trkpt lat="49.643333377316594" lon="9.050348214805126">
<ele>444.2</ele>
<time>2024-05-10T11:26:24Z</time>
</trkpt>
<trkpt lat="49.643333377316594" lon="9.050345364958048">
<ele>444.2</ele>
<time>2024-05-10T11:26:25Z</time>
</trkpt>
<trkpt lat="49.643333377316594" lon="9.050343437120318">
<ele>444.2</ele>
<time>2024-05-10T11:26:26Z</time>
</trkpt>
<trkpt lat="49.64332960546017" lon="9.050336815416811">
<ele>444.2</ele>
<time>2024-05-10T11:26:27Z</time>
</trkpt>
<trkpt lat="49.64332960546017" lon="9.050323404371738">
<ele>444.2</ele>
<time>2024-05-10T11:26:28Z</time>
</trkpt>
<trkpt lat="49.64332960546017" lon="9.05030345544219">
<ele>444.2</ele>
<time>2024-05-10T11:26:29Z</time>
</trkpt>
<trkpt lat="49.64332960546017" lon="9.050278645008802">
<ele>444.2</ele>
<time>2024-05-10T11:26:30Z</time>
</trkpt>
<trkpt lat="49.64332960546017" lon="9.050259534269571">
<ele>444.2</ele>
<time>2024-05-10T11:26:31Z</time>
</trkpt>
<trkpt lat="49.64332197792828" lon="9.050189964473248">
<ele>444.2</ele>
<time>2024-05-10T11:26:32Z</time>
</trkpt>
<trkpt lat="49.643333377316594" lon="9.05012123286724">
<ele>444.2</ele>
<time>2024-05-10T11:26:33Z</time>
</trkpt>
<trkpt lat="49.64334486052394" lon="9.050058284774424">
<ele>444.2</ele>
<time>2024-05-10T11:26:34Z</time>
</trkpt>
<trkpt lat="49.643352488055825" lon="9.049998270347714">
<ele>444.2</ele>
<time>2024-05-10T11:26:35Z</time>
</trkpt>
<trkpt lat="49.64335625991225" lon="9.049960132688284">
<ele>444.2</ele>
<time>2024-05-10T11:26:36Z</time>
</trkpt>
<trkpt lat="49.64335625991225" lon="9.049929538741708">
<ele>444.2</ele>
<time>2024-05-10T11:26:37Z</time>
</trkpt>
<trkpt lat="49.643348632380366" lon="9.04990665614605">
<ele>444.2</ele>
<time>2024-05-10T11:26:38Z</time>
</trkpt>
<trkpt lat="49.64334100484848" lon="9.049876146018503">
<ele>444.2</ele>
<time>2024-05-10T11:26:39Z</time>
</trkpt>
<trkpt lat="49.64333723299205" lon="9.049843708053231">
<ele>444.2</ele>
<time>2024-05-10T11:26:40Z</time>
</trkpt>
<trkpt lat="49.64333723299205" lon="9.049797020852566">
<ele>444.2</ele>
<time>2024-05-10T11:26:41Z</time>
</trkpt>
<trkpt lat="49.64333723299205" lon="9.049757877364756">
<ele>444.2</ele>
<time>2024-05-10T11:26:42Z</time>
</trkpt>
<trkpt lat="49.643333377316594" lon="9.049723595380785">
<ele>444.2</ele>
<time>2024-05-10T11:26:43Z</time>
</trkpt>
<trkpt lat="49.643333377316594" lon="9.049695013090968">
<ele>444.2</ele>
<time>2024-05-10T11:26:44Z</time>
</trkpt>
<trkpt lat="49.643333377316594" lon="9.049661569297314">
<ele>444.2</ele>
<time>2024-05-10T11:26:45Z</time>
</trkpt>
<trkpt lat="49.64332960546017" lon="9.04963013716042">
<ele>444.2</ele>
<time>2024-05-10T11:26:46Z</time>
</trkpt>
<trkpt lat="49.64332574978471" lon="9.04959007166326">
<ele>444.2</ele>
<time>2024-05-10T11:26:47Z</time>
</trkpt>
<trkpt lat="49.64331812225282" lon="9.049565261229873">
<ele>444.2</ele>
<time>2024-05-10T11:26:48Z</time>
</trkpt>
<trkpt lat="49.64331812225282" lon="9.049525195732713">
<ele>444.2</ele>
<time>2024-05-10T11:26:49Z</time>
</trkpt>
<trkpt lat="49.64332197792828" lon="9.049483286216857">
<ele>444.2</ele>
<time>2024-05-10T11:26:50Z</time>
</trkpt>
<trkpt lat="49.64332197792828" lon="9.049447998404505">
<ele>444.2</ele>
<time>2024-05-10T11:26:51Z</time>
</trkpt>
<trkpt lat="49.64332960546017" lon="9.049406927078962">
<ele>444.2</ele>
<time>2024-05-10T11:26:52Z</time>
</trkpt>
<trkpt lat="49.64334100484848" lon="9.049363089725375">
<ele>444.2</ele>
<time>2024-05-10T11:26:53Z</time>
</trkpt>
<trkpt lat="49.64334486052394" lon="9.0493134688586">
<ele>444.2</ele>
<time>2024-05-10T11:26:54Z</time>
</trkpt>
<trkpt lat="49.643352488055825" lon="9.049266781657934">
<ele>444.2</ele>
<time>2024-05-10T11:26:55Z</time>
</trkpt>
<trkpt lat="49.64336011558771" lon="9.04921816661954">
<ele>444.4</ele>
<time>2024-05-10T11:26:56Z</time>
</trkpt>
<trkpt lat="49.6433677431196" lon="9.049181872978806">
<ele>444.6</ele>
<time>2024-05-10T11:26:57Z</time>
</trkpt>
<trkpt lat="49.6433867700398" lon="9.049150440841911">
<ele>445</ele>
<time>2024-05-10T11:26:58Z</time>
</trkpt>
<trkpt lat="49.64340202510357" lon="9.04911800287664">
<ele>445.2</ele>
<time>2024-05-10T11:26:59Z</time>
</trkpt>
<trkpt lat="49.64341728016734" lon="9.049086570739746">
<ele>445.6</ele>
<time>2024-05-10T11:27:00Z</time>
</trkpt>
<trkpt lat="49.64343253523111" lon="9.049059832468629">
<ele>446</ele>
<time>2024-05-10T11:27:01Z</time>
</trkpt>
<trkpt lat="49.643451645970345" lon="9.04903787188232">
<ele>446.2</ele>
<time>2024-05-10T11:27:02Z</time>
</trkpt>
<trkpt lat="49.64346690103412" lon="9.04901783913374">
<ele>446.6</ele>
<time>2024-05-10T11:27:03Z</time>
</trkpt>
<trkpt lat="49.64348215609789" lon="9.04899688437581">
<ele>447</ele>
<time>2024-05-10T11:27:04Z</time>
</trkpt>
<trkpt lat="49.64349741116166" lon="9.0489749237895">
<ele>447.4</ele>
<time>2024-05-10T11:27:05Z</time>
</trkpt>
<trkpt lat="49.64351266622543" lon="9.048950113356112">
<ele>447.8</ele>
<time>2024-05-10T11:27:06Z</time>
</trkpt>
<trkpt lat="49.64352029375732" lon="9.048926308751106">
<ele>448.2</ele>
<time>2024-05-10T11:27:07Z</time>
</trkpt>
<trkpt lat="49.64353940449655" lon="9.048903426155448">
<ele>448.4</ele>
<time>2024-05-10T11:27:08Z</time>
</trkpt>
<trkpt lat="49.64355465956032" lon="9.04887962155044">
<ele>448.4</ele>
<time>2024-05-10T11:27:09Z</time>
</trkpt>
<trkpt lat="49.64357368648052" lon="9.04885858297348">
<ele>448.4</ele>
<time>2024-05-10T11:27:10Z</time>
</trkpt>
<trkpt lat="49.64359656907618" lon="9.048830000683663">
<ele>448.4</ele>
<time>2024-05-10T11:27:11Z</time>
</trkpt>
<trkpt lat="49.64361953549087" lon="9.04880141839385">
<ele>448.4</ele>
<time>2024-05-10T11:27:12Z</time>
</trkpt>
<trkpt lat="49.64363479055464" lon="9.048773758113384">
<ele>448.4</ele>
<time>2024-05-10T11:27:13Z</time>
</trkpt>
<trkpt lat="49.6436576731503" lon="9.048749869689344">
<ele>448.6</ele>
<time>2024-05-10T11:27:14Z</time>
</trkpt>
<trkpt lat="49.6436767000705" lon="9.048726987093689">
<ele>448.8</ele>
<time>2024-05-10T11:27:15Z</time>
</trkpt>
<trkpt lat="49.643688183277845" lon="9.048694549128411">
<ele>449</ele>
<time>2024-05-10T11:27:16Z</time>
</trkpt>
<trkpt lat="49.643707210198045" lon="9.048660267144442">
<ele>449</ele>
<time>2024-05-10T11:27:17Z</time>
</trkpt>
<trkpt lat="49.64372632093728" lon="9.048622129485013">
<ele>449.2</ele>
<time>2024-05-10T11:27:18Z</time>
</trkpt>
<trkpt lat="49.64373772032559" lon="9.048591535538437">
<ele>449.4</ele>
<time>2024-05-10T11:27:19Z</time>
</trkpt>
<trkpt lat="49.64375683106482" lon="9.048560103401542">
<ele>449.6</ele>
<time>2024-05-10T11:27:20Z</time>
</trkpt>
<trkpt lat="49.64377208612859" lon="9.04852674342692">
<ele>449.6</ele>
<time>2024-05-10T11:27:21Z</time>
</trkpt>
<trkpt lat="49.64378356933594" lon="9.048491455614569">
<ele>449.6</ele>
<time>2024-05-10T11:27:22Z</time>
</trkpt>
<trkpt lat="49.64379882439971" lon="9.048459939658642">
<ele>449.8</ele>
<time>2024-05-10T11:27:23Z</time>
</trkpt>
<trkpt lat="49.64382170699537" lon="9.048433285206556">
<ele>450.2</ele>
<time>2024-05-10T11:27:24Z</time>
</trkpt>
<trkpt lat="49.64383696205914" lon="9.04840461909771">
<ele>450.2</ele>
<time>2024-05-10T11:27:25Z</time>
</trkpt>
<trkpt lat="49.64385598897934" lon="9.048375114798546">
<ele>450</ele>
<time>2024-05-10T11:27:26Z</time>
</trkpt>
<trkpt lat="49.643878871575" lon="9.048344604671">
<ele>450</ele>
<time>2024-05-10T11:27:27Z</time>
</trkpt>
<trkpt lat="49.64389798231423" lon="9.048308311030269">
<ele>449.8</ele>
<time>2024-05-10T11:27:28Z</time>
</trkpt>
<trkpt lat="49.64391700923443" lon="9.048273023217916">
<ele>450</ele>
<time>2024-05-10T11:27:29Z</time>
</trkpt>
<trkpt lat="49.64393989183009" lon="9.048239663243294">
<ele>450.2</ele>
<time>2024-05-10T11:27:30Z</time>
</trkpt>
<trkpt lat="49.64395523071289" lon="9.048206303268673">
<ele>450.2</ele>
<time>2024-05-10T11:27:31Z</time>
</trkpt>
<trkpt lat="49.64397425763309" lon="9.048171937465668">
<ele>450</ele>
<time>2024-05-10T11:27:32Z</time>
</trkpt>
<trkpt lat="49.64399336837232" lon="9.048136649653316">
<ele>450</ele>
<time>2024-05-10T11:27:33Z</time>
</trkpt>
<trkpt lat="49.64401625096798" lon="9.048101361840963">
<ele>449.6</ele>
<time>2024-05-10T11:27:34Z</time>
</trkpt>
<trkpt lat="49.64403527788818" lon="9.048067079856992">
<ele>449.4</ele>
<time>2024-05-10T11:27:35Z</time>
</trkpt>
<trkpt lat="49.64405438862741" lon="9.048033636063336">
<ele>449.2</ele>
<time>2024-05-10T11:27:36Z</time>
</trkpt>
<trkpt lat="49.64407341554761" lon="9.047994576394558">
<ele>449</ele>
<time>2024-05-10T11:27:37Z</time>
</trkpt>
<trkpt lat="49.64408867061138" lon="9.047961216419935">
<ele>448.8</ele>
<time>2024-05-10T11:27:38Z</time>
</trkpt>
<trkpt lat="49.64410015381873" lon="9.047927856445313">
<ele>448.4</ele>
<time>2024-05-10T11:27:39Z</time>
</trkpt>
<trkpt lat="49.64411155320704" lon="9.04789541848004">
<ele>448.2</ele>
<time>2024-05-10T11:27:40Z</time>
</trkpt>
<trkpt lat="49.644123036414385" lon="9.047860130667686">
<ele>448.2</ele>
<time>2024-05-10T11:27:41Z</time>
</trkpt>
<trkpt lat="49.64413451962173" lon="9.047824842855334">
<ele>448.2</ele>
<time>2024-05-10T11:27:42Z</time>
</trkpt>
<trkpt lat="49.6441497746855" lon="9.047776143997908">
<ele>448.2</ele>
<time>2024-05-10T11:27:43Z</time>
</trkpt>
<trkpt lat="49.64417642913759" lon="9.047741862013936">
<ele>448</ele>
<time>2024-05-10T11:27:44Z</time>
</trkpt>
<trkpt lat="49.64419553987682" lon="9.047701796516776">
<ele>448</ele>
<time>2024-05-10T11:27:45Z</time>
</trkpt>
<trkpt lat="49.64421842247248" lon="9.047659803181888">
<ele>448</ele>
<time>2024-05-10T11:27:46Z</time>
</trkpt>
<trkpt lat="49.64423744939267" lon="9.047619737684728">
<ele>448</ele>
<time>2024-05-10T11:27:47Z</time>
</trkpt>
<trkpt lat="49.64425656013191" lon="9.04757305048406">
<ele>448.2</ele>
<time>2024-05-10T11:27:48Z</time>
</trkpt>
<trkpt lat="49.64427181519568" lon="9.047526279464364">
<ele>448.2</ele>
<time>2024-05-10T11:27:49Z</time>
</trkpt>
<trkpt lat="49.64428707025945" lon="9.047481520101428">
<ele>448.4</ele>
<time>2024-05-10T11:27:50Z</time>
</trkpt>
<trkpt lat="49.64430995285511" lon="9.04743952676654">
<ele>448.6</ele>
<time>2024-05-10T11:27:51Z</time>
</trkpt>
<trkpt lat="49.64433283545077" lon="9.047408094629644">
<ele>448.8</ele>
<time>2024-05-10T11:27:52Z</time>
</trkpt>
<trkpt lat="49.64435571804643" lon="9.04738043434918">
<ele>448.8</ele>
<time>2024-05-10T11:27:53Z</time>
</trkpt>
<trkpt lat="49.64437482878566" lon="9.047347996383904">
<ele>448.8</ele>
<time>2024-05-10T11:27:54Z</time>
</trkpt>
<trkpt lat="49.64439008384943" lon="9.047311702743173">
<ele>448.8</ele>
<time>2024-05-10T11:27:55Z</time>
</trkpt>
<trkpt lat="49.64441673830152" lon="9.047269793227317">
<ele>448.8</ele>
<time>2024-05-10T11:27:56Z</time>
</trkpt>
<trkpt lat="49.64443584904075" lon="9.047227799892426">
<ele>448.6</ele>
<time>2024-05-10T11:27:57Z</time>
</trkpt>
<trkpt lat="49.644454875960946" lon="9.047191590070724">
<ele>448.2</ele>
<time>2024-05-10T11:27:58Z</time>
</trkpt>
<trkpt lat="49.64447398670018" lon="9.047149596735837">
<ele>448</ele>
<time>2024-05-10T11:27:59Z</time>
</trkpt>
<trkpt lat="49.64449309743941" lon="9.047109531238675">
<ele>448</ele>
<time>2024-05-10T11:28:00Z</time>
</trkpt>
<trkpt lat="49.64451598003507" lon="9.047073321416974">
<ele>448.4</ele>
<time>2024-05-10T11:28:01Z</time>
</trkpt>
<trkpt lat="49.644538862630725" lon="9.047037111595271">
<ele>448.6</ele>
<time>2024-05-10T11:28:02Z</time>
</trkpt>
<trkpt lat="49.64456551708281" lon="9.046999895945191">
<ele>448.6</ele>
<time>2024-05-10T11:28:03Z</time>
</trkpt>
<trkpt lat="49.64459225535393" lon="9.046966535970569">
<ele>448.6</ele>
<time>2024-05-10T11:28:04Z</time>
</trkpt>
<trkpt lat="49.64461890980601" lon="9.046933092176914">
<ele>448.6</ele>
<time>2024-05-10T11:28:05Z</time>
</trkpt>
<trkpt lat="49.64464564807713" lon="9.04690166004002">
<ele>448.8</ele>
<time>2024-05-10T11:28:06Z</time>
</trkpt>
<trkpt lat="49.64466853067279" lon="9.046868300065398">
<ele>448.8</ele>
<time>2024-05-10T11:28:07Z</time>
</trkpt>
<trkpt lat="49.644695268943906" lon="9.046838711947204">
<ele>448.8</ele>
<time>2024-05-10T11:28:08Z</time>
</trkpt>
<trkpt lat="49.64472192339599" lon="9.046808201819658">
<ele>448.8</ele>
<time>2024-05-10T11:28:09Z</time>
</trkpt>
<trkpt lat="49.644752433523536" lon="9.046778613701465">
<ele>448.6</ele>
<time>2024-05-10T11:28:10Z</time>
</trkpt>
<trkpt lat="49.64478294365108" lon="9.046748103573918">
<ele>448.4</ele>
<time>2024-05-10T11:28:11Z</time>
</trkpt>
<trkpt lat="49.644813537597656" lon="9.046719521284103">
<ele>447.8</ele>
<time>2024-05-10T11:28:12Z</time>
</trkpt>
<trkpt lat="49.644836420193315" lon="9.046689933165908">
<ele>447.4</ele>
<time>2024-05-10T11:28:13Z</time>
</trkpt>
<trkpt lat="49.64485930278897" lon="9.046660345047712">
<ele>447.2</ele>
<time>2024-05-10T11:28:14Z</time>
</trkpt>
<trkpt lat="49.64488218538463" lon="9.046633690595629">
<ele>446.8</ele>
<time>2024-05-10T11:28:15Z</time>
</trkpt>
<trkpt lat="49.644912695512176" lon="9.046605108305812">
<ele>446.4</ele>
<time>2024-05-10T11:28:16Z</time>
</trkpt>
<trkpt lat="49.644935578107834" lon="9.046580297872424">
<ele>446.2</ele>
<time>2024-05-10T11:28:17Z</time>
</trkpt>
<trkpt lat="49.64495460502803" lon="9.046558337286116">
<ele>445.8</ele>
<time>2024-05-10T11:28:18Z</time>
</trkpt>
<trkpt lat="49.644973715767264" lon="9.046538304537536">
<ele>445.6</ele>
<time>2024-05-10T11:28:19Z</time>
</trkpt>
<trkpt lat="49.644992826506495" lon="9.046515421941876">
<ele>445.4</ele>
<time>2024-05-10T11:28:20Z</time>
</trkpt>
<trkpt lat="49.645011853426695" lon="9.046493461355569">
<ele>445</ele>
<time>2024-05-10T11:28:21Z</time>
</trkpt>
<trkpt lat="49.64502710849047" lon="9.046468734741213">
<ele>445</ele>
<time>2024-05-10T11:28:22Z</time>
</trkpt>
<trkpt lat="49.6450462192297" lon="9.04644962400198">
<ele>444.6</ele>
<time>2024-05-10T11:28:23Z</time>
</trkpt>
<trkpt lat="49.64506910182536" lon="9.046428669244053">
<ele>444.4</ele>
<time>2024-05-10T11:28:24Z</time>
</trkpt>
<trkpt lat="49.6450996119529" lon="9.046400003135204">
<ele>444.2</ele>
<time>2024-05-10T11:28:25Z</time>
</trkpt>
<trkpt lat="49.645126266404986" lon="9.04637142084539">
<ele>444.2</ele>
<time>2024-05-10T11:28:26Z</time>
</trkpt>
<trkpt lat="49.645153004676104" lon="9.046339988708496">
<ele>444.4</ele>
<time>2024-05-10T11:28:27Z</time>
</trkpt>
<trkpt lat="49.64517588727176" lon="9.0463104005903">
<ele>444.4</ele>
<time>2024-05-10T11:28:28Z</time>
</trkpt>
<trkpt lat="49.64520262554288" lon="9.046281734481454">
<ele>443.8</ele>
<time>2024-05-10T11:28:29Z</time>
</trkpt>
<trkpt lat="49.64522550813854" lon="9.046255080029368">
<ele>443.4</ele>
<time>2024-05-10T11:28:30Z</time>
</trkpt>
<trkpt lat="49.64524839073419" lon="9.04623026959598">
<ele>443.2</ele>
<time>2024-05-10T11:28:31Z</time>
</trkpt>
<trkpt lat="49.64527504518628" lon="9.046201687306166">
<ele>443.2</ele>
<time>2024-05-10T11:28:32Z</time>
</trkpt>
<trkpt lat="49.6453017834574" lon="9.04617117717862">
<ele>443</ele>
<time>2024-05-10T11:28:33Z</time>
</trkpt>
<trkpt lat="49.64532852172851" lon="9.046143516898155">
<ele>443</ele>
<time>2024-05-10T11:28:34Z</time>
</trkpt>
<trkpt lat="49.6453551761806" lon="9.04611300677061">
<ele>442.8</ele>
<time>2024-05-10T11:28:35Z</time>
</trkpt>
<trkpt lat="49.64537805877626" lon="9.046088196337225">
<ele>442.8</ele>
<time>2024-05-10T11:28:36Z</time>
</trkpt>
<trkpt lat="49.64540094137192" lon="9.046063385903835">
<ele>442.6</ele>
<time>2024-05-10T11:28:37Z</time>
</trkpt>
<trkpt lat="49.64542005211115" lon="9.046039581298828">
<ele>442.2</ele>
<time>2024-05-10T11:28:38Z</time>
</trkpt>
<trkpt lat="49.64544293470681" lon="9.046018542721868">
<ele>441.8</ele>
<time>2024-05-10T11:28:39Z</time>
</trkpt>
<trkpt lat="49.64546958915889" lon="9.045999515801668">
<ele>441.6</ele>
<time>2024-05-10T11:28:40Z</time>
</trkpt>
<trkpt lat="49.64549247175455" lon="9.045980405062435">
<ele>441.2</ele>
<time>2024-05-10T11:28:41Z</time>
</trkpt>
<trkpt lat="49.64551921002567" lon="9.04595660045743">
<ele>440.8</ele>
<time>2024-05-10T11:28:42Z</time>
</trkpt>
<trkpt lat="49.64554972015321" lon="9.045925084501503">
<ele>440.4</ele>
<time>2024-05-10T11:28:43Z</time>
</trkpt>
<trkpt lat="49.64557645842433" lon="9.04589650221169">
<ele>440.2</ele>
<time>2024-05-10T11:28:44Z</time>
</trkpt>
<trkpt lat="49.645606968551874" lon="9.045871691778302">
<ele>440</ele>
<time>2024-05-10T11:28:45Z</time>
</trkpt>
<trkpt lat="49.64563747867942" lon="9.045847887173297">
<ele>440</ele>
<time>2024-05-10T11:28:46Z</time>
</trkpt>
<trkpt lat="49.64567184448242" lon="9.045820226892827">
<ele>439.6</ele>
<time>2024-05-10T11:28:47Z</time>
</trkpt>
<trkpt lat="49.64569849893451" lon="9.04579826630652">
<ele>439.4</ele>
<time>2024-05-10T11:28:48Z</time>
</trkpt>
<trkpt lat="49.64573286473751" lon="9.045771528035402">
<ele>439.2</ele>
<time>2024-05-10T11:28:49Z</time>
</trkpt>
<trkpt lat="49.64576714672148" lon="9.045746801421046">
<ele>438.8</ele>
<time>2024-05-10T11:28:50Z</time>
</trkpt>
<trkpt lat="49.645801512524486" lon="9.045722912997007">
<ele>438.4</ele>
<time>2024-05-10T11:28:51Z</time>
</trkpt>
<trkpt lat="49.645820539444685" lon="9.045704808086157">
<ele>438.2</ele>
<time>2024-05-10T11:28:52Z</time>
</trkpt>
<trkpt lat="49.645843505859375" lon="9.04567806981504">
<ele>438</ele>
<time>2024-05-10T11:28:53Z</time>
</trkpt>
<trkpt lat="49.645862532779574" lon="9.045651415362954">
<ele>437.6</ele>
<time>2024-05-10T11:28:54Z</time>
</trkpt>
<trkpt lat="49.64587778784335" lon="9.04564185999334">
<ele>437.4</ele>
<time>2024-05-10T11:28:55Z</time>
</trkpt>
<trkpt lat="49.64588927105069" lon="9.04563993215561">
<ele>437.2</ele>
<time>2024-05-10T11:28:56Z</time>
</trkpt>
<trkpt lat="49.64588927105069" lon="9.04563800431788">
<ele>437</ele>
<time>2024-05-10T11:28:59Z</time>
</trkpt>
<trkpt lat="49.64588927105069" lon="9.04563708230853">
<ele>436.8</ele>
<time>2024-05-10T11:29:04Z</time>
</trkpt>
<trkpt lat="49.64589304290712" lon="9.04563708230853">
<ele>436.6</ele>
<time>2024-05-10T11:29:05Z</time>
</trkpt>
<trkpt lat="49.64589304290712" lon="9.045631382614374">
<ele>436.4</ele>
<time>2024-05-10T11:29:06Z</time>
</trkpt>
<trkpt lat="49.64589304290712" lon="9.045630376785994">
<ele>436.4</ele>
<time>2024-05-10T11:29:07Z</time>
</trkpt>
<trkpt lat="49.64589689858258" lon="9.045628532767296">
<ele>436.2</ele>
<time>2024-05-10T11:29:08Z</time>
</trkpt>
<trkpt lat="49.64589689858258" lon="9.045623755082488">
<ele>436</ele>
<time>2024-05-10T11:29:09Z</time>
</trkpt>
<trkpt lat="49.645904526114464" lon="9.04561989940703">
<ele>435.8</ele>
<time>2024-05-10T11:29:10Z</time>
</trkpt>
<trkpt lat="49.64590829797089" lon="9.04561512172222">
<ele>435.6</ele>
<time>2024-05-10T11:29:11Z</time>
</trkpt>
<trkpt lat="49.64591215364635" lon="9.045611349865794">
<ele>435.4</ele>
<time>2024-05-10T11:29:12Z</time>
</trkpt>
<trkpt lat="49.64591978117824" lon="9.045608500018716">
<ele>435.2</ele>
<time>2024-05-10T11:29:13Z</time>
</trkpt>
<trkpt lat="49.64593503624201" lon="9.045604644343255">
<ele>435.2</ele>
<time>2024-05-10T11:29:14Z</time>
</trkpt>
<trkpt lat="49.64594643563032" lon="9.045598022639751">
<ele>435.2</ele>
<time>2024-05-10T11:29:15Z</time>
</trkpt>
<trkpt lat="49.645961690694094" lon="9.045588467270136">
<ele>435.2</ele>
<time>2024-05-10T11:29:16Z</time>
</trkpt>
<trkpt lat="49.64599220082164" lon="9.04556172899902">
<ele>435.2</ele>
<time>2024-05-10T11:29:17Z</time>
</trkpt>
<trkpt lat="49.64601516723633" lon="9.045553179457784">
<ele>435.2</ele>
<time>2024-05-10T11:29:18Z</time>
</trkpt>
<trkpt lat="49.646018939092755" lon="9.045551251620054">
<ele>435.2</ele>
<time>2024-05-10T11:29:19Z</time>
</trkpt>
<trkpt lat="49.646018939092755" lon="9.045548401772976">
<ele>435</ele>
<time>2024-05-10T11:29:21Z</time>
</trkpt>
<trkpt lat="49.646022794768214" lon="9.045544546097515">
<ele>435</ele>
<time>2024-05-10T11:29:22Z</time>
</trkpt>
<trkpt lat="49.646022794768214" lon="9.04554169625044">
<ele>435</ele>
<time>2024-05-10T11:29:23Z</time>
</trkpt>
<trkpt lat="49.646022794768214" lon="9.04553985223174">
<ele>435</ele>
<time>2024-05-10T11:29:24Z</time>
</trkpt>
<trkpt lat="49.646022794768214" lon="9.045537924394011">
<ele>435</ele>
<time>2024-05-10T11:29:25Z</time>
</trkpt>
<trkpt lat="49.64602656662464" lon="9.045537924394011">
<ele>434.8</ele>
<time>2024-05-10T11:29:26Z</time>
</trkpt>
<trkpt lat="49.64602656662464" lon="9.045536918565633">
<ele>434.8</ele>
<time>2024-05-10T11:29:27Z</time>
</trkpt>
<trkpt lat="49.64602656662464" lon="9.045537924394011">
<ele>434.8</ele>
<time>2024-05-10T11:29:29Z</time>
</trkpt>
<trkpt lat="49.64602656662464" lon="9.04554169625044">
<ele>434.6</ele>
<time>2024-05-10T11:29:30Z</time>
</trkpt>
<trkpt lat="49.64602656662464" lon="9.045536918565633">
<ele>434.4</ele>
<time>2024-05-10T11:29:31Z</time>
</trkpt>
<trkpt lat="49.64602656662464" lon="9.045535074546931">
<ele>434.4</ele>
<time>2024-05-10T11:29:32Z</time>
</trkpt>
<trkpt lat="49.64602656662464" lon="9.045533146709204">
<ele>434.2</ele>
<time>2024-05-10T11:29:34Z</time>
</trkpt>
<trkpt lat="49.64602656662464" lon="9.045535074546931">
<ele>434</ele>
<time>2024-05-10T11:29:35Z</time>
</trkpt>
<trkpt lat="49.64602656662464" lon="9.045536918565633">
<ele>434</ele>
<time>2024-05-10T11:29:37Z</time>
</trkpt>
<trkpt lat="49.6460304223001" lon="9.04554169625044">
<ele>433.8</ele>
<time>2024-05-10T11:29:38Z</time>
</trkpt>
<trkpt lat="49.64603419415653" lon="9.045543624088168">
<ele>433.6</ele>
<time>2024-05-10T11:29:39Z</time>
</trkpt>
<trkpt lat="49.6460304223001" lon="9.045548401772976">
<ele>433.6</ele>
<time>2024-05-10T11:29:40Z</time>
</trkpt>
<trkpt lat="49.6460304223001" lon="9.045550329610704">
<ele>433.6</ele>
<time>2024-05-10T11:29:41Z</time>
</trkpt>
<trkpt lat="49.6460304223001" lon="9.045551251620054">
<ele>433.4</ele>
<time>2024-05-10T11:29:42Z</time>
</trkpt>
<trkpt lat="49.64602656662464" lon="9.045548401772976">
<ele>433.4</ele>
<time>2024-05-10T11:29:43Z</time>
</trkpt>
<trkpt lat="49.646022794768214" lon="9.045550329610704">
<ele>433.4</ele>
<time>2024-05-10T11:29:44Z</time>
</trkpt>
<trkpt lat="49.646018939092755" lon="9.045550329610704">
<ele>433.4</ele>
<time>2024-05-10T11:29:46Z</time>
</trkpt>
<trkpt lat="49.646018939092755" lon="9.045551251620054">
<ele>433.4</ele>
<time>2024-05-10T11:29:47Z</time>
</trkpt>
<trkpt lat="49.64601516723633" lon="9.045550329610704">
<ele>433.6</ele>
<time>2024-05-10T11:29:48Z</time>
</trkpt>
<trkpt lat="49.64601131156087" lon="9.045556951314213">
<ele>433.6</ele>
<time>2024-05-10T11:29:49Z</time>
</trkpt>
<trkpt lat="49.64599982835352" lon="9.04556172899902">
<ele>433.6</ele>
<time>2024-05-10T11:29:50Z</time>
</trkpt>
<trkpt lat="49.64599220082164" lon="9.045568434521556">
<ele>433.4</ele>
<time>2024-05-10T11:29:51Z</time>
</trkpt>
<trkpt lat="49.645980801433325" lon="9.04557983390987">
<ele>433.4</ele>
<time>2024-05-10T11:29:52Z</time>
</trkpt>
<trkpt lat="49.64595406316221" lon="9.045613277703524">
<ele>433.4</ele>
<time>2024-05-10T11:29:53Z</time>
</trkpt>
<trkpt lat="49.64592740871012" lon="9.04563708230853">
<ele>433.4</ele>
<time>2024-05-10T11:29:54Z</time>
</trkpt>
<trkpt lat="49.64591215364635" lon="9.045651415362954">
<ele>433.4</ele>
<time>2024-05-10T11:29:55Z</time>
</trkpt>
<trkpt lat="49.64588927105069" lon="9.045669520273805">
<ele>433.4</ele>
<time>2024-05-10T11:29:56Z</time>
</trkpt>
<trkpt lat="49.645862532779574" lon="9.045688547194004">
<ele>433.6</ele>
<time>2024-05-10T11:29:57Z</time>
</trkpt>
<trkpt lat="49.64583965018392" lon="9.045704808086157">
<ele>433.8</ele>
<time>2024-05-10T11:29:58Z</time>
</trkpt>
<trkpt lat="49.64581676758826" lon="9.045724840834737">
<ele>434</ele>
<time>2024-05-10T11:29:59Z</time>
</trkpt>
<trkpt lat="49.6457938849926" lon="9.045742023736238">
<ele>434.2</ele>
<time>2024-05-10T11:30:00Z</time>
</trkpt>
<trkpt lat="49.64577477425337" lon="9.04575820080936">
<ele>434.4</ele>
<time>2024-05-10T11:30:01Z</time>
</trkpt>
<trkpt lat="49.64575574733317" lon="9.04577630572021">
<ele>434.4</ele>
<time>2024-05-10T11:30:02Z</time>
</trkpt>
<trkpt lat="49.64573663659394" lon="9.045791560783982">
<ele>434.6</ele>
<time>2024-05-10T11:30:03Z</time>
</trkpt>
<trkpt lat="49.64571760967374" lon="9.045806815847754">
<ele>434.8</ele>
<time>2024-05-10T11:30:04Z</time>
</trkpt>
<trkpt lat="49.64569472707808" lon="9.045820226892827">
<ele>435</ele>
<time>2024-05-10T11:30:05Z</time>
</trkpt>
<trkpt lat="49.64567184448242" lon="9.045833554118872">
<ele>435</ele>
<time>2024-05-10T11:30:06Z</time>
</trkpt>
<trkpt lat="49.64565273374319" lon="9.045851659029722">
<ele>435.2</ele>
<time>2024-05-10T11:30:07Z</time>
</trkpt>
<trkpt lat="49.645625995472074" lon="9.045867919921877">
<ele>435.4</ele>
<time>2024-05-10T11:30:08Z</time>
</trkpt>
<trkpt lat="49.645603112876415" lon="9.045886946842074">
<ele>435.4</ele>
<time>2024-05-10T11:30:09Z</time>
</trkpt>
<trkpt lat="49.645584085956216" lon="9.045900274068115">
<ele>435.6</ele>
<time>2024-05-10T11:30:10Z</time>
</trkpt>
<trkpt lat="49.645564975216985" lon="9.04591460712254">
<ele>435.8</ele>
<time>2024-05-10T11:30:11Z</time>
</trkpt>
<trkpt lat="49.645545948296785" lon="9.045927012339234">
<ele>435.8</ele>
<time>2024-05-10T11:30:12Z</time>
</trkpt>
<trkpt lat="49.64552306570113" lon="9.045947045087814">
<ele>436</ele>
<time>2024-05-10T11:30:13Z</time>
</trkpt>
<trkpt lat="49.645503954961896" lon="9.045967077836394">
<ele>436.2</ele>
<time>2024-05-10T11:30:14Z</time>
</trkpt>
<trkpt lat="49.64547721669078" lon="9.045988032594323">
<ele>436.6</ele>
<time>2024-05-10T11:30:15Z</time>
</trkpt>
<trkpt lat="49.64545433409512" lon="9.046008065342903">
<ele>437</ele>
<time>2024-05-10T11:30:16Z</time>
</trkpt>
<trkpt lat="49.64543530717492" lon="9.046025248244405">
<ele>437.2</ele>
<time>2024-05-10T11:30:17Z</time>
</trkpt>
<trkpt lat="49.64541242457926" lon="9.046045280992985">
<ele>437.8</ele>
<time>2024-05-10T11:30:18Z</time>
</trkpt>
<trkpt lat="49.64539331384003" lon="9.046061458066106">
<ele>438.2</ele>
<time>2024-05-10T11:30:19Z</time>
</trkpt>
<trkpt lat="49.64537428691983" lon="9.046081490814686">
<ele>438.4</ele>
<time>2024-05-10T11:30:20Z</time>
</trkpt>
<trkpt lat="49.645351404324174" lon="9.046105379238725">
<ele>438.8</ele>
<time>2024-05-10T11:30:21Z</time>
</trkpt>
<trkpt lat="49.64532852172851" lon="9.046125411987305">
<ele>438.6</ele>
<time>2024-05-10T11:30:22Z</time>
</trkpt>
<trkpt lat="49.645309410989285" lon="9.04615013860166">
<ele>438.6</ele>
<time>2024-05-10T11:30:23Z</time>
</trkpt>
<trkpt lat="49.645286528393626" lon="9.04617117717862">
<ele>438.4</ele>
<time>2024-05-10T11:30:24Z</time>
</trkpt>
<trkpt lat="49.645267417654395" lon="9.0461930539459">
<ele>438.4</ele>
<time>2024-05-10T11:30:25Z</time>
</trkpt>
<trkpt lat="49.64524839073419" lon="9.046215014532208">
<ele>438.4</ele>
<time>2024-05-10T11:30:26Z</time>
</trkpt>
<trkpt lat="49.645229279994965" lon="9.046237897127869">
<ele>438.4</ele>
<time>2024-05-10T11:30:27Z</time>
</trkpt>
<trkpt lat="49.64521788060665" lon="9.046259857714176">
<ele>438.6</ele>
<time>2024-05-10T11:30:28Z</time>
</trkpt>
<trkpt lat="49.64520262554288" lon="9.046281734481454">
<ele>438.8</ele>
<time>2024-05-10T11:30:29Z</time>
</trkpt>
<trkpt lat="49.64518351480365" lon="9.046304700896144">
<ele>438.8</ele>
<time>2024-05-10T11:30:30Z</time>
</trkpt>
<trkpt lat="49.64516825973987" lon="9.046321799978614">
<ele>439</ele>
<time>2024-05-10T11:30:31Z</time>
</trkpt>
<trkpt lat="49.645153004676104" lon="9.046341832727194">
<ele>439</ele>
<time>2024-05-10T11:30:32Z</time>
</trkpt>
<trkpt lat="49.64514152146876" lon="9.046356165781615">
<ele>439</ele>
<time>2024-05-10T11:30:33Z</time>
</trkpt>
<trkpt lat="49.645130122080445" lon="9.04637142084539">
<ele>439.2</ele>
<time>2024-05-10T11:30:34Z</time>
</trkpt>
<trkpt lat="49.64512249454856" lon="9.046382904052734">
<ele>439.4</ele>
<time>2024-05-10T11:30:35Z</time>
</trkpt>
<trkpt lat="49.64511486701667" lon="9.046388603746893">
<ele>439.4</ele>
<time>2024-05-10T11:30:36Z</time>
</trkpt>
<trkpt lat="49.64511486701667" lon="9.0463933814317">
<ele>439.6</ele>
<time>2024-05-10T11:30:37Z</time>
</trkpt>
<trkpt lat="49.645111011341214" lon="9.046398159116508">
<ele>439.8</ele>
<time>2024-05-10T11:30:38Z</time>
</trkpt>
<trkpt lat="49.64510723948479" lon="9.046401930972934">
<ele>440</ele>
<time>2024-05-10T11:30:39Z</time>
</trkpt>
<trkpt lat="49.64510723948479" lon="9.046406708657742">
<ele>440</ele>
<time>2024-05-10T11:30:40Z</time>
</trkpt>
<trkpt lat="49.64510338380933" lon="9.046408636495473">
<ele>440.2</ele>
<time>2024-05-10T11:30:41Z</time>
</trkpt>
<trkpt lat="49.6450996119529" lon="9.04641148634255">
<ele>440.2</ele>
<time>2024-05-10T11:30:42Z</time>
</trkpt>
<trkpt lat="49.64509575627744" lon="9.04641341418028">
<ele>440.4</ele>
<time>2024-05-10T11:30:43Z</time>
</trkpt>
<trkpt lat="49.645091984421015" lon="9.046418108046057">
<ele>440.6</ele>
<time>2024-05-10T11:30:44Z</time>
</trkpt>
<trkpt lat="49.64508812874555" lon="9.046420035883784">
<ele>440.6</ele>
<time>2024-05-10T11:30:45Z</time>
</trkpt>
<trkpt lat="49.64508812874555" lon="9.046416264027355">
<ele>440.8</ele>
<time>2024-05-10T11:30:46Z</time>
</trkpt>
<trkpt lat="49.64508812874555" lon="9.046422885730864">
<ele>441</ele>
<time>2024-05-10T11:30:47Z</time>
</trkpt>
<trkpt lat="49.64508435688913" lon="9.046422885730864">
<ele>441</ele>
<time>2024-05-10T11:30:48Z</time>
</trkpt>
<trkpt lat="49.64508435688913" lon="9.046424813568592">
<ele>441</ele>
<time>2024-05-10T11:30:49Z</time>
</trkpt>
<trkpt lat="49.64508435688913" lon="9.046428669244053">
<ele>441</ele>
<time>2024-05-10T11:30:50Z</time>
</trkpt>
<trkpt lat="49.64508050121367" lon="9.04643151909113">
<ele>441</ele>
<time>2024-05-10T11:30:51Z</time>
</trkpt>
<trkpt lat="49.64508050121367" lon="9.04643344692886">
<ele>441</ele>
<time>2024-05-10T11:30:52Z</time>
</trkpt>
<trkpt lat="49.64508050121367" lon="9.04643151909113">
<ele>440.8</ele>
<time>2024-05-10T11:30:58Z</time>
</trkpt>
<trkpt lat="49.64508050121367" lon="9.04643344692886">
<ele>440.8</ele>
<time>2024-05-10T11:30:59Z</time>
</trkpt>
<trkpt lat="49.64508050121367" lon="9.046435290947556">
<ele>440.8</ele>
<time>2024-05-10T11:31:00Z</time>
</trkpt>
<trkpt lat="49.64508050121367" lon="9.046436296775935">
<ele>440.8</ele>
<time>2024-05-10T11:31:04Z</time>
</trkpt>
<trkpt lat="49.64508435688913" lon="9.046436296775935">
<ele>440.6</ele>
<time>2024-05-10T11:31:05Z</time>
</trkpt>
<trkpt lat="49.64508435688913" lon="9.046435290947556">
<ele>440.4</ele>
<time>2024-05-10T11:31:08Z</time>
</trkpt>
<trkpt lat="49.64508435688913" lon="9.046436296775935">
<ele>440.4</ele>
<time>2024-05-10T11:31:14Z</time>
</trkpt>
<trkpt lat="49.64508050121367" lon="9.046436296775935">
<ele>440.2</ele>
<time>2024-05-10T11:31:15Z</time>
</trkpt>
<trkpt lat="49.64508050121367" lon="9.046435290947556">
<ele>440.2</ele>
<time>2024-05-10T11:31:18Z</time>
</trkpt>
<trkpt lat="49.64508435688913" lon="9.046435290947556">
<ele>440</ele>
<time>2024-05-10T11:31:19Z</time>
</trkpt>
<trkpt lat="49.64508050121367" lon="9.046435290947556">
<ele>440</ele>
<time>2024-05-10T11:31:20Z</time>
</trkpt>
<trkpt lat="49.64508050121367" lon="9.04643344692886">
<ele>439.8</ele>
<time>2024-05-10T11:31:21Z</time>
</trkpt>
<trkpt lat="49.64508050121367" lon="9.04643151909113">
<ele>439.8</ele>
<time>2024-05-10T11:31:25Z</time>
</trkpt>
<trkpt lat="49.64508050121367" lon="9.0464295912534">
<ele>439.8</ele>
<time>2024-05-10T11:31:26Z</time>
</trkpt>
<trkpt lat="49.64508050121367" lon="9.04643151909113">
<ele>439.8</ele>
<time>2024-05-10T11:31:40Z</time>
</trkpt>
<trkpt lat="49.64508050121367" lon="9.0464295912534">
<ele>439.8</ele>
<time>2024-05-10T11:31:42Z</time>
</trkpt>
<trkpt lat="49.64508050121367" lon="9.04643151909113">
<ele>439.8</ele>
<time>2024-05-10T11:31:44Z</time>
</trkpt>
<trkpt lat="49.64508050121367" lon="9.04643344692886">
<ele>439.8</ele>
<time>2024-05-10T11:31:46Z</time>
</trkpt>
<trkpt lat="49.64508050121367" lon="9.046435290947556">
<ele>439.8</ele>
<time>2024-05-10T11:31:52Z</time>
</trkpt>
<trkpt lat="49.64508050121367" lon="9.046436296775935">
<ele>439.6</ele>
<time>2024-05-10T11:31:56Z</time>
</trkpt>
<trkpt lat="49.64508050121367" lon="9.046438140794637">
<ele>439.6</ele>
<time>2024-05-10T11:32:00Z</time>
</trkpt>
<trkpt lat="49.64508050121367" lon="9.046440068632364">
<ele>439.6</ele>
<time>2024-05-10T11:32:01Z</time>
</trkpt>
<trkpt lat="49.64508050121367" lon="9.046441996470094">
<ele>439.6</ele>
<time>2024-05-10T11:32:02Z</time>
</trkpt>
<trkpt lat="49.64508050121367" lon="9.046442918479444">
<ele>439.6</ele>
<time>2024-05-10T11:32:03Z</time>
</trkpt>
<trkpt lat="49.64508435688913" lon="9.046444846317172">
<ele>439.6</ele>
<time>2024-05-10T11:32:04Z</time>
</trkpt>
<trkpt lat="49.64508050121367" lon="9.046444846317172">
<ele>439.6</ele>
<time>2024-05-10T11:32:05Z</time>
</trkpt>
<trkpt lat="49.64508050121367" lon="9.046446774154902">
<ele>439.6</ele>
<time>2024-05-10T11:32:06Z</time>
</trkpt>
<trkpt lat="49.64508050121367" lon="9.046448701992633">
<ele>439.6</ele>
<time>2024-05-10T11:32:11Z</time>
</trkpt>
<trkpt lat="49.64508050121367" lon="9.046446774154902">
<ele>439.6</ele>
<time>2024-05-10T11:32:14Z</time>
</trkpt>
<trkpt lat="49.64508050121367" lon="9.046448701992633">
<ele>439.6</ele>
<time>2024-05-10T11:32:16Z</time>
</trkpt>
<trkpt lat="49.64508050121367" lon="9.04644962400198">
<ele>439.6</ele>
<time>2024-05-10T11:32:17Z</time>
</trkpt>
<trkpt lat="49.64508050121367" lon="9.04645155183971">
<ele>439.6</ele>
<time>2024-05-10T11:32:18Z</time>
</trkpt>
<trkpt lat="49.64508050121367" lon="9.046453395858409">
<ele>439.6</ele>
<time>2024-05-10T11:32:19Z</time>
</trkpt>
<trkpt lat="49.64508050121367" lon="9.046455323696136">
<ele>439.8</ele>
<time>2024-05-10T11:32:20Z</time>
</trkpt>
<trkpt lat="49.64508050121367" lon="9.046456329524515">
<ele>439.8</ele>
<time>2024-05-10T11:32:21Z</time>
</trkpt>
<trkpt lat="49.64508050121367" lon="9.046460101380944">
<ele>439.8</ele>
<time>2024-05-10T11:32:22Z</time>
</trkpt>
<trkpt lat="49.64508050121367" lon="9.046462951228024">
<ele>439.8</ele>
<time>2024-05-10T11:32:23Z</time>
</trkpt>
<trkpt lat="49.64508050121367" lon="9.046462029218674">
<ele>439.8</ele>
<time>2024-05-10T11:32:27Z</time>
</trkpt>
<trkpt lat="49.64507672935724" lon="9.046468734741213">
<ele>439.8</ele>
<time>2024-05-10T11:32:30Z</time>
</trkpt>
<trkpt lat="49.645072873681784" lon="9.046473428606989">
<ele>439.8</ele>
<time>2024-05-10T11:32:31Z</time>
</trkpt>
<trkpt lat="49.64506910182536" lon="9.046478206291797">
<ele>439.8</ele>
<time>2024-05-10T11:32:32Z</time>
</trkpt>
<trkpt lat="49.64506147429347" lon="9.04648868367076">
<ele>440</ele>
<time>2024-05-10T11:32:33Z</time>
</trkpt>
<trkpt lat="49.64505761861801" lon="9.046495389193296">
<ele>440</ele>
<time>2024-05-10T11:32:34Z</time>
</trkpt>
<trkpt lat="49.645053846761584" lon="9.046503016725184">
<ele>440.2</ele>
<time>2024-05-10T11:32:35Z</time>
</trkpt>
<trkpt lat="49.645049991086125" lon="9.04650871641934">
<ele>440.2</ele>
<time>2024-05-10T11:32:36Z</time>
</trkpt>
<trkpt lat="49.6450462192297" lon="9.04650687240064">
<ele>440.4</ele>
<time>2024-05-10T11:32:40Z</time>
</trkpt>
<trkpt lat="49.6450462192297" lon="9.046504944562912">
<ele>440.4</ele>
<time>2024-05-10T11:32:41Z</time>
</trkpt>
<trkpt lat="49.64504236355424" lon="9.04650687240064">
<ele>440.6</ele>
<time>2024-05-10T11:32:43Z</time>
</trkpt>
<trkpt lat="49.64503473602235" lon="9.04650972224772">
<ele>440.6</ele>
<time>2024-05-10T11:32:44Z</time>
</trkpt>
<trkpt lat="49.645030964165926" lon="9.046513494104149">
<ele>440.6</ele>
<time>2024-05-10T11:32:45Z</time>
</trkpt>
<trkpt lat="49.64502710849047" lon="9.046516343951224">
<ele>440.8</ele>
<time>2024-05-10T11:32:46Z</time>
</trkpt>
<trkpt lat="49.64502333663404" lon="9.046518271788957">
<ele>440.8</ele>
<time>2024-05-10T11:32:47Z</time>
</trkpt>
<trkpt lat="49.645015709102154" lon="9.046520199626684">
<ele>440.8</ele>
<time>2024-05-10T11:32:48Z</time>
</trkpt>
<trkpt lat="49.645011853426695" lon="9.046522127464414">
<ele>440.8</ele>
<time>2024-05-10T11:32:49Z</time>
</trkpt>
<trkpt lat="49.64500808157027" lon="9.046522127464414">
<ele>440.8</ele>
<time>2024-05-10T11:32:51Z</time>
</trkpt>
<trkpt lat="49.64500808157027" lon="9.046523049473764">
<ele>440.8</ele>
<time>2024-05-10T11:32:52Z</time>
</trkpt>
<trkpt lat="49.64500422589481" lon="9.046524977311492">
<ele>440.8</ele>
<time>2024-05-10T11:32:53Z</time>
</trkpt>
<trkpt lat="49.64500422589481" lon="9.04652690514922">
<ele>440.8</ele>
<time>2024-05-10T11:32:55Z</time>
</trkpt>
<trkpt lat="49.64500045403838" lon="9.04652690514922">
<ele>440.8</ele>
<time>2024-05-10T11:32:56Z</time>
</trkpt>
<trkpt lat="49.64499659836292" lon="9.04652782715857">
<ele>440.8</ele>
<time>2024-05-10T11:32:58Z</time>
</trkpt>
<trkpt lat="49.64499659836292" lon="9.046531599014996">
<ele>440.8</ele>
<time>2024-05-10T11:32:59Z</time>
</trkpt>
<trkpt lat="49.64498897083104" lon="9.046534532681108">
<ele>440.8</ele>
<time>2024-05-10T11:33:01Z</time>
</trkpt>
<trkpt lat="49.64498134329915" lon="9.046543082222342">
<ele>440.8</ele>
<time>2024-05-10T11:33:02Z</time>
</trkpt>
<trkpt lat="49.644969860091805" lon="9.046551631763576">
<ele>440.8</ele>
<time>2024-05-10T11:33:03Z</time>
</trkpt>
<trkpt lat="49.64496223255992" lon="9.046558337286116">
<ele>441</ele>
<time>2024-05-10T11:33:04Z</time>
</trkpt>
<trkpt lat="49.644950833171606" lon="9.04656982049346">
<ele>441.2</ele>
<time>2024-05-10T11:33:05Z</time>
</trkpt>
<trkpt lat="49.64494320563972" lon="9.046578370034696">
<ele>441.2</ele>
<time>2024-05-10T11:33:06Z</time>
</trkpt>
<trkpt lat="49.64492409490049" lon="9.046591697260736">
<ele>441.4</ele>
<time>2024-05-10T11:33:07Z</time>
</trkpt>
<trkpt lat="49.644912695512176" lon="9.046601252630351">
<ele>441.6</ele>
<time>2024-05-10T11:33:08Z</time>
</trkpt>
<trkpt lat="49.64490121230483" lon="9.046611730009316">
<ele>441.6</ele>
<time>2024-05-10T11:33:09Z</time>
</trkpt>
<trkpt lat="49.64488981291652" lon="9.046621285378931">
<ele>441.8</ele>
<time>2024-05-10T11:33:10Z</time>
</trkpt>
<trkpt lat="49.64488595724106" lon="9.04662505723536">
<ele>441.8</ele>
<time>2024-05-10T11:33:11Z</time>
</trkpt>
<trkpt lat="49.64487832970917" lon="9.046629834920168">
<ele>442</ele>
<time>2024-05-10T11:33:12Z</time>
</trkpt>
<trkpt lat="49.6448630746454" lon="9.046643245965242">
<ele>442</ele>
<time>2024-05-10T11:33:13Z</time>
</trkpt>
<trkpt lat="49.64485167525709" lon="9.046651795506476">
<ele>442</ele>
<time>2024-05-10T11:33:14Z</time>
</trkpt>
<trkpt lat="49.64484019204974" lon="9.04666705057025">
<ele>442</ele>
<time>2024-05-10T11:33:15Z</time>
</trkpt>
<trkpt lat="49.644832564517856" lon="9.0466851554811">
<ele>442.2</ele>
<time>2024-05-10T11:33:16Z</time>
</trkpt>
<trkpt lat="49.64482879266143" lon="9.04670326039195">
<ele>442.2</ele>
<time>2024-05-10T11:33:17Z</time>
</trkpt>
<trkpt lat="49.64482116512954" lon="9.046719521284103">
<ele>442.2</ele>
<time>2024-05-10T11:33:18Z</time>
</trkpt>
<trkpt lat="49.644813537597656" lon="9.046729998663068">
<ele>442.2</ele>
<time>2024-05-10T11:33:19Z</time>
</trkpt>
<trkpt lat="49.64480582624674" lon="9.046738548204305">
<ele>442.2</ele>
<time>2024-05-10T11:33:20Z</time>
</trkpt>
<trkpt lat="49.64479819871485" lon="9.046750031411648">
<ele>442.4</ele>
<time>2024-05-10T11:33:21Z</time>
</trkpt>
<trkpt lat="49.64478679932654" lon="9.04676528647542">
<ele>442.4</ele>
<time>2024-05-10T11:33:22Z</time>
</trkpt>
<trkpt lat="49.644775316119194" lon="9.046779619529843">
<ele>442.6</ele>
<time>2024-05-10T11:33:23Z</time>
</trkpt>
<trkpt lat="49.64476768858731" lon="9.04680342413485">
<ele>442.6</ele>
<time>2024-05-10T11:33:24Z</time>
</trkpt>
<trkpt lat="49.64474103413522" lon="9.046806273981929">
<ele>442.8</ele>
<time>2024-05-10T11:33:25Z</time>
</trkpt>
<trkpt lat="49.64472577907145" lon="9.046819685027003">
<ele>443</ele>
<time>2024-05-10T11:33:26Z</time>
</trkpt>
<trkpt lat="49.64471052400768" lon="9.046836784109471">
<ele>443.2</ele>
<time>2024-05-10T11:33:27Z</time>
</trkpt>
<trkpt lat="49.64469904080033" lon="9.046858744695784">
<ele>443.2</ele>
<time>2024-05-10T11:33:28Z</time>
</trkpt>
<trkpt lat="49.64468764141202" lon="9.046879699453712">
<ele>443.4</ele>
<time>2024-05-10T11:33:29Z</time>
</trkpt>
<trkpt lat="49.64466853067279" lon="9.046897888183594">
<ele>443.4</ele>
<time>2024-05-10T11:33:30Z</time>
</trkpt>
<trkpt lat="49.644653275609016" lon="9.046916915103791">
<ele>443.4</ele>
<time>2024-05-10T11:33:31Z</time>
</trkpt>
<trkpt lat="49.64463802054525" lon="9.046931248158216">
<ele>443.4</ele>
<time>2024-05-10T11:33:32Z</time>
</trkpt>
<trkpt lat="49.64462276548147" lon="9.046950275078416">
<ele>443.6</ele>
<time>2024-05-10T11:33:33Z</time>
</trkpt>
<trkpt lat="49.64460365474224" lon="9.046959830448031">
<ele>443.6</ele>
<time>2024-05-10T11:33:34Z</time>
</trkpt>
<trkpt lat="49.64459225535393" lon="9.046975085511804">
<ele>443.8</ele>
<time>2024-05-10T11:33:35Z</time>
</trkpt>
<trkpt lat="49.6445731446147" lon="9.046993190422654">
<ele>444</ele>
<time>2024-05-10T11:33:36Z</time>
</trkpt>
<trkpt lat="49.64455788955093" lon="9.047017078846691">
<ele>444.4</ele>
<time>2024-05-10T11:33:37Z</time>
</trkpt>
<trkpt lat="49.64454263448715" lon="9.04704188928008">
<ele>444.6</ele>
<time>2024-05-10T11:33:38Z</time>
</trkpt>
<trkpt lat="49.64452360756695" lon="9.047073321416974">
<ele>445</ele>
<time>2024-05-10T11:33:39Z</time>
</trkpt>
<trkpt lat="49.64450835250318" lon="9.047104753553867">
<ele>445.2</ele>
<time>2024-05-10T11:33:40Z</time>
</trkpt>
<trkpt lat="49.64448546990752" lon="9.047138197347522">
<ele>445.2</ele>
<time>2024-05-10T11:33:41Z</time>
</trkpt>
<trkpt lat="49.64446635916829" lon="9.047166779637337">
<ele>445</ele>
<time>2024-05-10T11:33:42Z</time>
</trkpt>
<trkpt lat="49.644454875960946" lon="9.047193517908454">
<ele>445</ele>
<time>2024-05-10T11:33:43Z</time>
</trkpt>
<trkpt lat="49.644439620897174" lon="9.047229727730157">
<ele>445.2</ele>
<time>2024-05-10T11:33:44Z</time>
</trkpt>
<trkpt lat="49.644420593976974" lon="9.047269793227317">
<ele>445</ele>
<time>2024-05-10T11:33:45Z</time>
</trkpt>
<trkpt lat="49.64439771138131" lon="9.047307008877397">
<ele>445</ele>
<time>2024-05-10T11:33:46Z</time>
</trkpt>
<trkpt lat="49.64437482878566" lon="9.04734036885202">
<ele>445</ele>
<time>2024-05-10T11:33:47Z</time>
</trkpt>
<trkpt lat="49.64436334557831" lon="9.047367023304105">
<ele>445</ele>
<time>2024-05-10T11:33:48Z</time>
</trkpt>
<trkpt lat="49.64434809051454" lon="9.047393761575222">
<ele>445.2</ele>
<time>2024-05-10T11:33:49Z</time>
</trkpt>
<trkpt lat="49.64433669112623" lon="9.047421421855688">
<ele>445.2</ele>
<time>2024-05-10T11:33:50Z</time>
</trkpt>
<trkpt lat="49.64432520791888" lon="9.047450004145505">
<ele>445.4</ele>
<time>2024-05-10T11:33:51Z</time>
</trkpt>
<trkpt lat="49.64430995285511" lon="9.04747867025435">
<ele>445.4</ele>
<time>2024-05-10T11:33:52Z</time>
</trkpt>
<trkpt lat="49.64429084211588" lon="9.047505324706435">
<ele>445.4</ele>
<time>2024-05-10T11:33:53Z</time>
</trkpt>
<trkpt lat="49.64427558705211" lon="9.0475329849869">
<ele>445.4</ele>
<time>2024-05-10T11:33:54Z</time>
</trkpt>
<trkpt lat="49.644260331988335" lon="9.047563495114446">
<ele>445.4</ele>
<time>2024-05-10T11:33:55Z</time>
</trkpt>
<trkpt lat="49.64424507692456" lon="9.047590233385565">
<ele>445.4</ele>
<time>2024-05-10T11:33:56Z</time>
</trkpt>
<trkpt lat="49.64423744939267" lon="9.047611188143492">
<ele>445.4</ele>
<time>2024-05-10T11:33:57Z</time>
</trkpt>
<trkpt lat="49.64422982186079" lon="9.047637926414607">
<ele>445.6</ele>
<time>2024-05-10T11:33:58Z</time>
</trkpt>
<trkpt lat="49.64421842247248" lon="9.047664580866694">
<ele>445.6</ele>
<time>2024-05-10T11:33:59Z</time>
</trkpt>
<trkpt lat="49.644203167408705" lon="9.047697940841315">
<ele>445.6</ele>
<time>2024-05-10T11:34:00Z</time>
</trkpt>
<trkpt lat="49.64419168420136" lon="9.04773322865367">
<ele>445.6</ele>
<time>2024-05-10T11:34:01Z</time>
</trkpt>
<trkpt lat="49.64417265728116" lon="9.047769522294402">
<ele>445.8</ele>
<time>2024-05-10T11:34:02Z</time>
</trkpt>
<trkpt lat="49.64415740221739" lon="9.047804810106754">
<ele>446.2</ele>
<time>2024-05-10T11:34:03Z</time>
</trkpt>
<trkpt lat="49.64413829147816" lon="9.047838170081375">
<ele>446.6</ele>
<time>2024-05-10T11:34:04Z</time>
</trkpt>
<trkpt lat="49.644123036414385" lon="9.047864908352494">
<ele>446.8</ele>
<time>2024-05-10T11:34:05Z</time>
</trkpt>
<trkpt lat="49.64410778135061" lon="9.0478887129575">
<ele>446.8</ele>
<time>2024-05-10T11:34:06Z</time>
</trkpt>
<trkpt lat="49.64409629814327" lon="9.04791545122862">
<ele>446.8</ele>
<time>2024-05-10T11:34:07Z</time>
</trkpt>
<trkpt lat="49.644081043079495" lon="9.04794780537486">
<ele>447</ele>
<time>2024-05-10T11:34:08Z</time>
</trkpt>
<trkpt lat="49.64406578801572" lon="9.047986948862672">
<ele>447</ele>
<time>2024-05-10T11:34:09Z</time>
</trkpt>
<trkpt lat="49.64405053295195" lon="9.048020308837296">
<ele>447</ele>
<time>2024-05-10T11:34:10Z</time>
</trkpt>
<trkpt lat="49.64403150603175" lon="9.048054674640298">
<ele>447</ele>
<time>2024-05-10T11:34:11Z</time>
</trkpt>
<trkpt lat="49.64401625096798" lon="9.04808996245265">
<ele>447.2</ele>
<time>2024-05-10T11:34:12Z</time>
</trkpt>
<trkpt lat="49.64400099590421" lon="9.048119466751814">
<ele>447.2</ele>
<time>2024-05-10T11:34:13Z</time>
</trkpt>
<trkpt lat="49.64398951269686" lon="9.04815006069839">
<ele>447.2</ele>
<time>2024-05-10T11:34:14Z</time>
</trkpt>
<trkpt lat="49.64397811330855" lon="9.048181492835283">
<ele>447.4</ele>
<time>2024-05-10T11:34:15Z</time>
</trkpt>
<trkpt lat="49.64396285824478" lon="9.04820529744029">
<ele>447.4</ele>
<time>2024-05-10T11:34:16Z</time>
</trkpt>
<trkpt lat="49.64394751936197" lon="9.048241591081023">
<ele>447.6</ele>
<time>2024-05-10T11:34:17Z</time>
</trkpt>
<trkpt lat="49.64392849244177" lon="9.048274951055646">
<ele>447.8</ele>
<time>2024-05-10T11:34:18Z</time>
</trkpt>
<trkpt lat="49.643905609846115" lon="9.048319794237614">
<ele>448</ele>
<time>2024-05-10T11:34:19Z</time>
</trkpt>
<trkpt lat="49.64388649910688" lon="9.04836463741958">
<ele>448</ele>
<time>2024-05-10T11:34:20Z</time>
</trkpt>
<trkpt lat="49.643863616511226" lon="9.048411324620249">
<ele>448</ele>
<time>2024-05-10T11:34:21Z</time>
</trkpt>
<trkpt lat="49.643844589591026" lon="9.048451390117409">
<ele>448</ele>
<time>2024-05-10T11:34:22Z</time>
</trkpt>
<trkpt lat="49.64382170699537" lon="9.04848667792976">
<ele>448</ele>
<time>2024-05-10T11:34:23Z</time>
</trkpt>
<trkpt lat="49.64381022378802" lon="9.048518110066652">
<ele>448</ele>
<time>2024-05-10T11:34:24Z</time>
</trkpt>
<trkpt lat="49.64379882439971" lon="9.04854484833777">
<ele>448</ele>
<time>2024-05-10T11:34:25Z</time>
</trkpt>
<trkpt lat="49.64377971366048" lon="9.04856680892408">
<ele>448</ele>
<time>2024-05-10T11:34:26Z</time>
</trkpt>
<trkpt lat="49.643768230453134" lon="9.048593463376164">
<ele>448</ele>
<time>2024-05-10T11:34:27Z</time>
</trkpt>
<trkpt lat="49.64375297538936" lon="9.04862497933209">
<ele>448</ele>
<time>2024-05-10T11:34:28Z</time>
</trkpt>
<trkpt lat="49.64374157600105" lon="9.048660267144442">
<ele>448</ele>
<time>2024-05-10T11:34:29Z</time>
</trkpt>
<trkpt lat="49.64372632093728" lon="9.048691699281337">
<ele>448.2</ele>
<time>2024-05-10T11:34:30Z</time>
</trkpt>
<trkpt lat="49.643711065873504" lon="9.04872128739953">
<ele>448.2</ele>
<time>2024-05-10T11:34:31Z</time>
</trkpt>
<trkpt lat="49.643688183277845" lon="9.048751797527077">
<ele>448.4</ele>
<time>2024-05-10T11:34:32Z</time>
</trkpt>
<trkpt lat="49.643669072538614" lon="9.048783229663968">
<ele>448.6</ele>
<time>2024-05-10T11:34:33Z</time>
</trkpt>
<trkpt lat="49.643650045618415" lon="9.048809967935084">
<ele>448.6</ele>
<time>2024-05-10T11:34:34Z</time>
</trkpt>
<trkpt lat="49.64362716302276" lon="9.04884140007198">
<ele>448.8</ele>
<time>2024-05-10T11:34:35Z</time>
</trkpt>
<trkpt lat="49.643608052283525" lon="9.048870066180823">
<ele>448.8</ele>
<time>2024-05-10T11:34:36Z</time>
</trkpt>
<trkpt lat="49.64358131401241" lon="9.04889672063291">
<ele>448.8</ele>
<time>2024-05-10T11:34:37Z</time>
</trkpt>
<trkpt lat="49.64356228709221" lon="9.048921531066298">
<ele>449</ele>
<time>2024-05-10T11:34:38Z</time>
</trkpt>
<trkpt lat="49.64353940449655" lon="9.048941563814878">
<ele>449.2</ele>
<time>2024-05-10T11:34:39Z</time>
</trkpt>
<trkpt lat="49.64352029375732" lon="9.048966374248266">
<ele>449.2</ele>
<time>2024-05-10T11:34:40Z</time>
</trkpt>
<trkpt lat="49.64350126683712" lon="9.048988334834576">
<ele>449.2</ele>
<time>2024-05-10T11:34:41Z</time>
</trkpt>
<trkpt lat="49.64347838424146" lon="9.049010211601852">
<ele>449.2</ele>
<time>2024-05-10T11:34:42Z</time>
</trkpt>
<trkpt lat="49.64346312917769" lon="9.049033094197512">
<ele>449.2</ele>
<time>2024-05-10T11:34:43Z</time>
</trkpt>
<trkpt lat="49.64344024658203" lon="9.0490579046309">
<ele>449.2</ele>
<time>2024-05-10T11:34:44Z</time>
</trkpt>
<trkpt lat="49.64342490769923" lon="9.049083637073636">
<ele>449.2</ele>
<time>2024-05-10T11:34:45Z</time>
</trkpt>
<trkpt lat="49.643409652635455" lon="9.049110375344751">
<ele>449.4</ele>
<time>2024-05-10T11:34:46Z</time>
</trkpt>
<trkpt lat="49.64339825324714" lon="9.04913711361587">
<ele>449.2</ele>
<time>2024-05-10T11:34:47Z</time>
</trkpt>
<trkpt lat="49.6433867700398" lon="9.049161840230228">
<ele>449.2</ele>
<time>2024-05-10T11:34:48Z</time>
</trkpt>
<trkpt lat="49.64337914250791" lon="9.049188578501344">
<ele>449.2</ele>
<time>2024-05-10T11:34:49Z</time>
</trkpt>
<trkpt lat="49.643371514976025" lon="9.049213388934731">
<ele>449</ele>
<time>2024-05-10T11:34:50Z</time>
</trkpt>
<trkpt lat="49.643371514976025" lon="9.049244821071625">
<ele>449</ele>
<time>2024-05-10T11:34:51Z</time>
</trkpt>
<trkpt lat="49.643352488055825" lon="9.049302991479635">
<ele>448.8</ele>
<time>2024-05-10T11:34:52Z</time>
</trkpt>
<trkpt lat="49.643348632380366" lon="9.04935454018414">
<ele>448.2</ele>
<time>2024-05-10T11:34:53Z</time>
</trkpt>
<trkpt lat="49.64334486052394" lon="9.049396449699998">
<ele>447.8</ele>
<time>2024-05-10T11:34:54Z</time>
</trkpt>
<trkpt lat="49.643348632380366" lon="9.049443220719697">
<ele>447.6</ele>
<time>2024-05-10T11:34:55Z</time>
</trkpt>
<trkpt lat="49.643348632380366" lon="9.049488063901665">
<ele>447.4</ele>
<time>2024-05-10T11:34:56Z</time>
</trkpt>
<trkpt lat="49.643352488055825" lon="9.0495500061661">
<ele>447</ele>
<time>2024-05-10T11:34:57Z</time>
</trkpt>
<trkpt lat="49.643352488055825" lon="9.049618653953075">
<ele>446.8</ele>
<time>2024-05-10T11:34:58Z</time>
</trkpt>
<trkpt lat="49.64336011558771" lon="9.049672046676278">
<ele>446.4</ele>
<time>2024-05-10T11:34:59Z</time>
</trkpt>
<trkpt lat="49.64336011558771" lon="9.049719739705324">
<ele>446</ele>
<time>2024-05-10T11:35:00Z</time>
</trkpt>
<trkpt lat="49.64335625991225" lon="9.04976843856275">
<ele>445.6</ele>
<time>2024-05-10T11:35:01Z</time>
</trkpt>
<trkpt lat="49.64336011558771" lon="9.049813197925689">
<ele>445.2</ele>
<time>2024-05-10T11:35:02Z</time>
</trkpt>
<trkpt lat="49.64336388744414" lon="9.049857119098306">
<ele>445</ele>
<time>2024-05-10T11:35:03Z</time>
</trkpt>
<trkpt lat="49.64336388744414" lon="9.049902884289622">
<ele>444.8</ele>
<time>2024-05-10T11:35:04Z</time>
</trkpt>
<trkpt lat="49.6433677431196" lon="9.049940099939704">
<ele>444.8</ele>
<time>2024-05-10T11:35:05Z</time>
</trkpt>
<trkpt lat="49.64336388744414" lon="9.04996675439179">
<ele>444.6</ele>
<time>2024-05-10T11:35:06Z</time>
</trkpt>
<trkpt lat="49.64336388744414" lon="9.05000489205122">
<ele>444.6</ele>
<time>2024-05-10T11:35:07Z</time>
</trkpt>
<trkpt lat="49.64336011558771" lon="9.050041185691953">
<ele>444.6</ele>
<time>2024-05-10T11:35:08Z</time>
</trkpt>
<trkpt lat="49.64335625991225" lon="9.050078317523004">
<ele>444.6</ele>
<time>2024-05-10T11:35:09Z</time>
</trkpt>
<trkpt lat="49.643352488055825" lon="9.050114611163735">
<ele>444.6</ele>
<time>2024-05-10T11:35:10Z</time>
</trkpt>
<trkpt lat="49.643348632380366" lon="9.050149898976088">
<ele>444.4</ele>
<time>2024-05-10T11:35:11Z</time>
</trkpt>
<trkpt lat="49.64334486052394" lon="9.050191808491943">
<ele>444.4</ele>
<time>2024-05-10T11:35:12Z</time>
</trkpt>
<trkpt lat="49.643348632380366" lon="9.050232879817486">
<ele>444.4</ele>
<time>2024-05-10T11:35:13Z</time>
</trkpt>
<trkpt lat="49.64334486052394" lon="9.050279567018151">
<ele>444.6</ele>
<time>2024-05-10T11:35:14Z</time>
</trkpt>
<trkpt lat="49.64334100484848" lon="9.050319632515311">
<ele>444.6</ele>
<time>2024-05-10T11:35:15Z</time>
</trkpt>
<trkpt lat="49.64333723299205" lon="9.050365397706628">
<ele>444.4</ele>
<time>2024-05-10T11:35:16Z</time>
</trkpt>
<trkpt lat="49.643333377316594" lon="9.050410240888596">
<ele>444.4</ele>
<time>2024-05-10T11:35:17Z</time>
</trkpt>
<trkpt lat="49.64332574978471" lon="9.050443600863218">
<ele>444.4</ele>
<time>2024-05-10T11:35:18Z</time>
</trkpt>
<trkpt lat="49.64332960546017" lon="9.050464555621147">
<ele>444.2</ele>
<time>2024-05-10T11:35:19Z</time>
</trkpt>
<trkpt lat="49.64332574978471" lon="9.050470339134336">
<ele>444.2</ele>
<time>2024-05-10T11:35:20Z</time>
</trkpt>
<trkpt lat="49.64332197792828" lon="9.05047696083784">
<ele>444.2</ele>
<time>2024-05-10T11:35:21Z</time>
</trkpt>
<trkpt lat="49.64331812225282" lon="9.050484588369727">
<ele>444.2</ele>
<time>2024-05-10T11:35:22Z</time>
</trkpt>
<trkpt lat="49.64331812225282" lon="9.050490371882915">
<ele>444.2</ele>
<time>2024-05-10T11:35:23Z</time>
</trkpt>
<trkpt lat="49.64331812225282" lon="9.050495065748692">
<ele>444.2</ele>
<time>2024-05-10T11:35:24Z</time>
</trkpt>
<trkpt lat="49.64331812225282" lon="9.05049699358642">
<ele>444.2</ele>
<time>2024-05-10T11:35:25Z</time>
</trkpt>
<trkpt lat="49.64331812225282" lon="9.050497999414802">
<ele>444.2</ele>
<time>2024-05-10T11:35:27Z</time>
</trkpt>
<trkpt lat="49.64331812225282" lon="9.0504998434335">
<ele>444.2</ele>
<time>2024-05-10T11:35:28Z</time>
</trkpt>
<trkpt lat="49.64331812225282" lon="9.050501771271229">
<ele>444</ele>
<time>2024-05-10T11:35:30Z</time>
</trkpt>
<trkpt lat="49.64331812225282" lon="9.050503699108958">
<ele>443.8</ele>
<time>2024-05-10T11:35:31Z</time>
</trkpt>
<trkpt lat="49.64331812225282" lon="9.050504621118307">
<ele>443.8</ele>
<time>2024-05-10T11:35:33Z</time>
</trkpt>
<trkpt lat="49.64331812225282" lon="9.050506548956037">
<ele>443.6</ele>
<time>2024-05-10T11:35:34Z</time>
</trkpt>
<trkpt lat="49.64331812225282" lon="9.050508476793766">
<ele>443.6</ele>
<time>2024-05-10T11:35:35Z</time>
</trkpt>
<trkpt lat="49.64332197792828" lon="9.050510404631495">
<ele>443.6</ele>
<time>2024-05-10T11:35:37Z</time>
</trkpt>
<trkpt lat="49.64332197792828" lon="9.050511326640844">
<ele>443.4</ele>
<time>2024-05-10T11:35:38Z</time>
</trkpt>
<trkpt lat="49.64332197792828" lon="9.050513254478574">
<ele>443.4</ele>
<time>2024-05-10T11:35:39Z</time>
</trkpt>
<trkpt lat="49.64332197792828" lon="9.050515098497272">
<ele>443.4</ele>
<time>2024-05-10T11:35:40Z</time>
</trkpt>
<trkpt lat="49.64332197792828" lon="9.050517026335">
<ele>443.2</ele>
<time>2024-05-10T11:35:41Z</time>
</trkpt>
<trkpt lat="49.64332197792828" lon="9.050518032163382">
<ele>443.2</ele>
<time>2024-05-10T11:35:44Z</time>
</trkpt>
<trkpt lat="49.64332197792828" lon="9.05051987618208">
<ele>443.2</ele>
<time>2024-05-10T11:35:47Z</time>
</trkpt>
<trkpt lat="49.64332574978471" lon="9.050521804019809">
<ele>443.2</ele>
<time>2024-05-10T11:35:50Z</time>
</trkpt>
<trkpt lat="49.64332574978471" lon="9.05051987618208">
<ele>443.2</ele>
<time>2024-05-10T11:35:52Z</time>
</trkpt>
<trkpt lat="49.64332574978471" lon="9.050521804019809">
<ele>443.2</ele>
<time>2024-05-10T11:36:01Z</time>
</trkpt>
<trkpt lat="49.64332574978471" lon="9.050523731857538">
<ele>443.2</ele>
<time>2024-05-10T11:36:03Z</time>
</trkpt>
<trkpt lat="49.64332960546017" lon="9.050524653866889">
<ele>443.2</ele>
<time>2024-05-10T11:36:05Z</time>
</trkpt>
<trkpt lat="49.64332960546017" lon="9.050526581704617">
<ele>443.2</ele>
<time>2024-05-10T11:36:06Z</time>
</trkpt>
<trkpt lat="49.64332960546017" lon="9.050528509542346">
<ele>443.2</ele>
<time>2024-05-10T11:36:07Z</time>
</trkpt>
<trkpt lat="49.64332960546017" lon="9.050530353561044">
<ele>443.2</ele>
<time>2024-05-10T11:36:08Z</time>
</trkpt>
<trkpt lat="49.64332960546017" lon="9.050531359389424">
<ele>443.2</ele>
<time>2024-05-10T11:36:09Z</time>
</trkpt>
<trkpt lat="49.64332960546017" lon="9.050533287227154">
<ele>443.2</ele>
<time>2024-05-10T11:36:11Z</time>
</trkpt>
<trkpt lat="49.64332574978471" lon="9.050535131245852">
<ele>443.2</ele>
<time>2024-05-10T11:36:14Z</time>
</trkpt>
<trkpt lat="49.64332574978471" lon="9.05053705908358">
<ele>443.2</ele>
<time>2024-05-10T11:36:17Z</time>
</trkpt>
<trkpt lat="49.64332574978471" lon="9.05053798109293">
<ele>443.2</ele>
<time>2024-05-10T11:36:18Z</time>
</trkpt>
<trkpt lat="49.64332574978471" lon="9.05053990893066">
<ele>443.2</ele>
<time>2024-05-10T11:36:19Z</time>
</trkpt>
<trkpt lat="49.64332574978471" lon="9.050541836768389">
<ele>443.2</ele>
<time>2024-05-10T11:36:20Z</time>
</trkpt>
<trkpt lat="49.64332574978471" lon="9.050543764606118">
<ele>443.2</ele>
<time>2024-05-10T11:36:21Z</time>
</trkpt>
<trkpt lat="49.64332574978471" lon="9.050544686615469">
<ele>443.2</ele>
<time>2024-05-10T11:36:22Z</time>
</trkpt>
<trkpt lat="49.64332574978471" lon="9.050546614453197">
<ele>443.2</ele>
<time>2024-05-10T11:36:24Z</time>
</trkpt>
<trkpt lat="49.64332574978471" lon="9.050544686615469">
<ele>443.2</ele>
<time>2024-05-10T11:36:25Z</time>
</trkpt>
<trkpt lat="49.64332574978471" lon="9.050546614453197">
<ele>443.2</ele>
<time>2024-05-10T11:36:27Z</time>
</trkpt>
<trkpt lat="49.64332197792828" lon="9.050548542290926">
<ele>443.2</ele>
<time>2024-05-10T11:36:30Z</time>
</trkpt>
<trkpt lat="49.64332574978471" lon="9.050551392138004">
<ele>443</ele>
<time>2024-05-10T11:36:32Z</time>
</trkpt>
<trkpt lat="49.64332574978471" lon="9.050553319975734">
<ele>443</ele>
<time>2024-05-10T11:36:33Z</time>
</trkpt>
<trkpt lat="49.64332574978471" lon="9.05055709183216">
<ele>442.8</ele>
<time>2024-05-10T11:36:34Z</time>
</trkpt>
<trkpt lat="49.64332574978471" lon="9.050562791526318">
<ele>442.6</ele>
<time>2024-05-10T11:36:35Z</time>
</trkpt>
<trkpt lat="49.64332574978471" lon="9.050571424886584">
<ele>442.6</ele>
<time>2024-05-10T11:36:36Z</time>
</trkpt>
<trkpt lat="49.64332960546017" lon="9.05057997442782">
<ele>442.4</ele>
<time>2024-05-10T11:36:37Z</time>
</trkpt>
<trkpt lat="49.643333377316594" lon="9.050589529797437">
<ele>442.4</ele>
<time>2024-05-10T11:36:38Z</time>
</trkpt>
<trkpt lat="49.643333377316594" lon="9.0506000071764">
<ele>442.4</ele>
<time>2024-05-10T11:36:39Z</time>
</trkpt>
<trkpt lat="49.643333377316594" lon="9.050608556717634">
<ele>442.2</ele>
<time>2024-05-10T11:36:40Z</time>
</trkpt>
<trkpt lat="49.643333377316594" lon="9.05061618424952">
<ele>442.2</ele>
<time>2024-05-10T11:36:41Z</time>
</trkpt>
<trkpt lat="49.643333377316594" lon="9.050622889772058">
<ele>441.8</ele>
<time>2024-05-10T11:36:42Z</time>
</trkpt>
<trkpt lat="49.643333377316594" lon="9.050628589466214">
<ele>441</ele>
<time>2024-05-10T11:36:43Z</time>
</trkpt>
<trkpt lat="49.64333723299205" lon="9.050633367151022">
<ele>440.2</ele>
<time>2024-05-10T11:36:44Z</time>
</trkpt>
<trkpt lat="49.64333723299205" lon="9.050635294988751">
<ele>439.4</ele>
<time>2024-05-10T11:36:45Z</time>
</trkpt>
<trkpt lat="49.64334486052394" lon="9.050633367151022">
<ele>439.2</ele>
<time>2024-05-10T11:36:46Z</time>
</trkpt>
<trkpt lat="49.64334486052394" lon="9.050626745447516">
<ele>439.8</ele>
<time>2024-05-10T11:36:47Z</time>
</trkpt>
<trkpt lat="49.64334486052394" lon="9.050629595294597">
<ele>440.2</ele>
<time>2024-05-10T11:36:48Z</time>
</trkpt>
<trkpt lat="49.64334486052394" lon="9.050631523132324">
<ele>440.6</ele>
<time>2024-05-10T11:36:49Z</time>
</trkpt>
<trkpt lat="49.64334486052394" lon="9.050633367151022">
<ele>441.2</ele>
<time>2024-05-10T11:36:50Z</time>
</trkpt>
<trkpt lat="49.64334486052394" lon="9.050631523132324">
<ele>441.4</ele>
<time>2024-05-10T11:36:52Z</time>
</trkpt>
<trkpt lat="49.64334486052394" lon="9.050629595294597">
<ele>441.6</ele>
<time>2024-05-10T11:36:53Z</time>
</trkpt>
<trkpt lat="49.64334486052394" lon="9.050628589466214">
<ele>441.4</ele>
<time>2024-05-10T11:36:54Z</time>
</trkpt>
<trkpt lat="49.64334486052394" lon="9.050624817609789">
<ele>441.4</ele>
<time>2024-05-10T11:36:55Z</time>
</trkpt>
<trkpt lat="49.64334486052394" lon="9.050622889772058">
<ele>441.6</ele>
<time>2024-05-10T11:36:59Z</time>
</trkpt>
<trkpt lat="49.64334486052394" lon="9.050621967762709">
<ele>441.8</ele>
<time>2024-05-10T11:37:00Z</time>
</trkpt>
<trkpt lat="49.64334486052394" lon="9.05062003992498">
<ele>442.4</ele>
<time>2024-05-10T11:37:01Z</time>
</trkpt>
<trkpt lat="49.64334486052394" lon="9.050621967762709">
<ele>443</ele>
<time>2024-05-10T11:37:02Z</time>
</trkpt>
<trkpt lat="49.64334486052394" lon="9.05062003992498">
<ele>443.6</ele>
<time>2024-05-10T11:37:03Z</time>
</trkpt>
<trkpt lat="49.64334100484848" lon="9.05062003992498">
<ele>444</ele>
<time>2024-05-10T11:37:04Z</time>
</trkpt>
<trkpt lat="49.64333723299205" lon="9.05062003992498">
<ele>444.4</ele>
<time>2024-05-10T11:37:07Z</time>
</trkpt>
<trkpt lat="49.64333723299205" lon="9.050621967762709">
<ele>444.6</ele>
<time>2024-05-10T11:37:09Z</time>
</trkpt>
<trkpt lat="49.643333377316594" lon="9.050621967762709">
<ele>444.6</ele>
<time>2024-05-10T11:37:11Z</time>
</trkpt>
<trkpt lat="49.64333723299205" lon="9.050621967762709">
<ele>444.6</ele>
<time>2024-05-10T11:37:16Z</time>
</trkpt>
<trkpt lat="49.643333377316594" lon="9.050621967762709">
<ele>444.6</ele>
<time>2024-05-10T11:37:17Z</time>
</trkpt>
<trkpt lat="49.64333723299205" lon="9.050621967762709">
<ele>444.4</ele>
<time>2024-05-10T11:37:18Z</time>
</trkpt>
<trkpt lat="49.643333377316594" lon="9.050621967762709">
<ele>444.2</ele>
<time>2024-05-10T11:37:20Z</time>
</trkpt>
<trkpt lat="49.643333377316594" lon="9.050622889772058">
<ele>444</ele>
<time>2024-05-10T11:37:21Z</time>
</trkpt>
<trkpt lat="49.643333377316594" lon="9.050624817609789">
<ele>444</ele>
<time>2024-05-10T11:37:22Z</time>
</trkpt>
<trkpt lat="49.643333377316594" lon="9.050626745447516">
<ele>443.8</ele>
<time>2024-05-10T11:37:24Z</time>
</trkpt>
<trkpt lat="49.643333377316594" lon="9.050628589466214">
<ele>443.6</ele>
<time>2024-05-10T11:37:25Z</time>
</trkpt>
<trkpt lat="49.643333377316594" lon="9.050629595294597">
<ele>443.6</ele>
<time>2024-05-10T11:37:26Z</time>
</trkpt>
<trkpt lat="49.643333377316594" lon="9.050631523132324">
<ele>443.4</ele>
<time>2024-05-10T11:37:27Z</time>
</trkpt>
<trkpt lat="49.643333377316594" lon="9.050633367151022">
<ele>443.4</ele>
<time>2024-05-10T11:37:28Z</time>
</trkpt>
<trkpt lat="49.643333377316594" lon="9.050635294988751">
<ele>443.2</ele>
<time>2024-05-10T11:37:29Z</time>
</trkpt>
<trkpt lat="49.643333377316594" lon="9.0506362169981">
<ele>443.2</ele>
<time>2024-05-10T11:37:31Z</time>
</trkpt>
<trkpt lat="49.643333377316594" lon="9.05063814483583">
<ele>443.2</ele>
<time>2024-05-10T11:37:32Z</time>
</trkpt>
<trkpt lat="49.643333377316594" lon="9.05064007267356">
<ele>443</ele>
<time>2024-05-10T11:37:33Z</time>
</trkpt>
<trkpt lat="49.643333377316594" lon="9.050642000511289">
<ele>443</ele>
<time>2024-05-10T11:37:35Z</time>
</trkpt>
<trkpt lat="49.643333377316594" lon="9.05064007267356">
<ele>443</ele>
<time>2024-05-10T11:37:36Z</time>
</trkpt>
<trkpt lat="49.643333377316594" lon="9.050642000511289">
<ele>443</ele>
<time>2024-05-10T11:37:37Z</time>
</trkpt>
<trkpt lat="49.643333377316594" lon="9.05064007267356">
<ele>443</ele>
<time>2024-05-10T11:37:38Z</time>
</trkpt>
<trkpt lat="49.643333377316594" lon="9.050642000511289">
<ele>443</ele>
<time>2024-05-10T11:37:39Z</time>
</trkpt>
<trkpt lat="49.643333377316594" lon="9.050642922520638">
<ele>442.8</ele>
<time>2024-05-10T11:37:46Z</time>
</trkpt>
<trkpt lat="49.643333377316594" lon="9.05064007267356">
<ele>442.8</ele>
<time>2024-05-10T11:37:52Z</time>
</trkpt>
<trkpt lat="49.64334100484848" lon="9.0506362169981">
<ele>442.6</ele>
<time>2024-05-10T11:37:53Z</time>
</trkpt>
<trkpt lat="49.64333723299205" lon="9.0506362169981">
<ele>442.4</ele>
<time>2024-05-10T11:37:54Z</time>
</trkpt>
<trkpt lat="49.64333723299205" lon="9.050635294988751">
<ele>442.4</ele>
<time>2024-05-10T11:37:55Z</time>
</trkpt>
<trkpt lat="49.643333377316594" lon="9.050635294988751">
<ele>442.4</ele>
<time>2024-05-10T11:37:57Z</time>
</trkpt>
<trkpt lat="49.643333377316594" lon="9.050633367151022">
<ele>442.4</ele>
<time>2024-05-10T11:37:58Z</time>
</trkpt>
<trkpt lat="49.643333377316594" lon="9.050635294988751">
<ele>442.4</ele>
<time>2024-05-10T11:37:59Z</time>
</trkpt>
<trkpt lat="49.643333377316594" lon="9.0506362169981">
<ele>442.6</ele>
<time>2024-05-10T11:38:02Z</time>
</trkpt>
<trkpt lat="49.64332960546017" lon="9.0506362169981">
<ele>442.6</ele>
<time>2024-05-10T11:38:03Z</time>
</trkpt>
<trkpt lat="49.64332960546017" lon="9.050635294988751">
<ele>442.6</ele>
<time>2024-05-10T11:38:06Z</time>
</trkpt>
<trkpt lat="49.64332574978471" lon="9.050635294988751">
<ele>442.6</ele>
<time>2024-05-10T11:38:07Z</time>
</trkpt>
<trkpt lat="49.64332197792828" lon="9.050635294988751">
<ele>442.8</ele>
<time>2024-05-10T11:38:09Z</time>
</trkpt>
<trkpt lat="49.64332197792828" lon="9.0506362169981">
<ele>442.8</ele>
<time>2024-05-10T11:38:10Z</time>
</trkpt>
<trkpt lat="49.64332197792828" lon="9.05063814483583">
<ele>442.8</ele>
<time>2024-05-10T11:38:12Z</time>
</trkpt>
<trkpt lat="49.64331812225282" lon="9.05063814483583">
<ele>442.8</ele>
<time>2024-05-10T11:38:14Z</time>
</trkpt>
<trkpt lat="49.64331812225282" lon="9.0506362169981">
<ele>442.8</ele>
<time>2024-05-10T11:38:15Z</time>
</trkpt>
<trkpt lat="49.64331812225282" lon="9.05063814483583">
<ele>442.8</ele>
<time>2024-05-10T11:38:17Z</time>
</trkpt>
<trkpt lat="49.64331812225282" lon="9.0506362169981">
<ele>442.8</ele>
<time>2024-05-10T11:38:19Z</time>
</trkpt>
<trkpt lat="49.64331812225282" lon="9.050631523132324">
<ele>442.8</ele>
<time>2024-05-10T11:38:21Z</time>
</trkpt>
<trkpt lat="49.64332197792828" lon="9.050633367151022">
<ele>442.8</ele>
<time>2024-05-10T11:38:23Z</time>
</trkpt>
<trkpt lat="49.64331812225282" lon="9.050633367151022">
<ele>442.8</ele>
<time>2024-05-10T11:38:24Z</time>
</trkpt>
<trkpt lat="49.64331812225282" lon="9.050635294988751">
<ele>443</ele>
<time>2024-05-10T11:38:31Z</time>
</trkpt>
<trkpt lat="49.64331812225282" lon="9.050633367151022">
<ele>442.8</ele>
<time>2024-05-10T11:38:35Z</time>
</trkpt>
<trkpt lat="49.643314350396395" lon="9.050633367151022">
<ele>442.8</ele>
<time>2024-05-10T11:38:37Z</time>
</trkpt>
<trkpt lat="49.64331812225282" lon="9.050631523132324">
<ele>442.6</ele>
<time>2024-05-10T11:38:38Z</time>
</trkpt>
<trkpt lat="49.64331812225282" lon="9.050629595294597">
<ele>442.6</ele>
<time>2024-05-10T11:38:39Z</time>
</trkpt>
<trkpt lat="49.64331812225282" lon="9.050626745447516">
<ele>442.6</ele>
<time>2024-05-10T11:38:40Z</time>
</trkpt>
<trkpt lat="49.64331812225282" lon="9.050622889772058">
<ele>442.4</ele>
<time>2024-05-10T11:38:41Z</time>
</trkpt>
<trkpt lat="49.643314350396395" lon="9.050624817609789">
<ele>442.4</ele>
<time>2024-05-10T11:38:42Z</time>
</trkpt>
<trkpt lat="49.643310494720936" lon="9.050621967762709">
<ele>442.2</ele>
<time>2024-05-10T11:38:44Z</time>
</trkpt>
<trkpt lat="49.64330286718905" lon="9.050611490383744">
<ele>442</ele>
<time>2024-05-10T11:38:45Z</time>
</trkpt>
<trkpt lat="49.643291467800736" lon="9.0506000071764">
<ele>442</ele>
<time>2024-05-10T11:38:46Z</time>
</trkpt>
<trkpt lat="49.64327998459339" lon="9.050581902265549">
<ele>441.8</ele>
<time>2024-05-10T11:38:47Z</time>
</trkpt>
<trkpt lat="49.64326087385416" lon="9.050569497048857">
<ele>441.8</ele>
<time>2024-05-10T11:38:48Z</time>
</trkpt>
<trkpt lat="49.64324184693396" lon="9.05055801384151">
<ele>441.8</ele>
<time>2024-05-10T11:38:49Z</time>
</trkpt>
<trkpt lat="49.64322273619473" lon="9.050551392138004">
<ele>441.8</ele>
<time>2024-05-10T11:38:50Z</time>
</trkpt>
<trkpt lat="49.64320370927453" lon="9.050548542290926">
<ele>441.6</ele>
<time>2024-05-10T11:38:51Z</time>
</trkpt>
<trkpt lat="49.6431845985353" lon="9.050544686615469">
<ele>441.4</ele>
<time>2024-05-10T11:38:52Z</time>
</trkpt>
<trkpt lat="49.64316934347153" lon="9.05053990893066">
<ele>441.2</ele>
<time>2024-05-10T11:38:53Z</time>
</trkpt>
<trkpt lat="49.64314646087587" lon="9.050544686615469">
<ele>441</ele>
<time>2024-05-10T11:38:54Z</time>
</trkpt>
<trkpt lat="49.64311980642378" lon="9.050553319975734">
<ele>441</ele>
<time>2024-05-10T11:38:55Z</time>
</trkpt>
<trkpt lat="49.643096923828125" lon="9.05055801384151">
<ele>441</ele>
<time>2024-05-10T11:38:56Z</time>
</trkpt>
<trkpt lat="49.64308158494532" lon="9.050566647201777">
<ele>440.8</ele>
<time>2024-05-10T11:38:57Z</time>
</trkpt>
<trkpt lat="49.64305870234966" lon="9.05057997442782">
<ele>440.8</ele>
<time>2024-05-10T11:38:58Z</time>
</trkpt>
<trkpt lat="49.64303967542946" lon="9.050595229491591">
<ele>440.6</ele>
<time>2024-05-10T11:38:59Z</time>
</trkpt>
<trkpt lat="49.643016792833805" lon="9.050602857023478">
<ele>440.4</ele>
<time>2024-05-10T11:39:00Z</time>
</trkpt>
<trkpt lat="49.6429824270308" lon="9.05061618424952">
<ele>440.4</ele>
<time>2024-05-10T11:39:01Z</time>
</trkpt>
<trkpt lat="49.64295577257872" lon="9.0506362169981">
<ele>440.2</ele>
<time>2024-05-10T11:39:02Z</time>
</trkpt>
<trkpt lat="49.6429290343076" lon="9.050653399899602">
<ele>440.2</ele>
<time>2024-05-10T11:39:03Z</time>
</trkpt>
<trkpt lat="49.64290229603648" lon="9.050664883106949">
<ele>440</ele>
<time>2024-05-10T11:39:04Z</time>
</trkpt>
<trkpt lat="49.64288326911628" lon="9.050675360485911">
<ele>439.8</ele>
<time>2024-05-10T11:39:05Z</time>
</trkpt>
<trkpt lat="49.642860386520624" lon="9.050686759874225">
<ele>439.6</ele>
<time>2024-05-10T11:39:06Z</time>
</trkpt>
<trkpt lat="49.642837503924966" lon="9.050703020766376">
<ele>439.4</ele>
<time>2024-05-10T11:39:07Z</time>
</trkpt>
<trkpt lat="49.64281076565385" lon="9.050722047686577">
<ele>439.2</ele>
<time>2024-05-10T11:39:08Z</time>
</trkpt>
<trkpt lat="49.642780255526304" lon="9.050741158425808">
<ele>439</ele>
<time>2024-05-10T11:39:09Z</time>
</trkpt>
<trkpt lat="49.6427458897233" lon="9.05076026916504">
<ele>438.6</ele>
<time>2024-05-10T11:39:10Z</time>
</trkpt>
<trkpt lat="49.642719235271215" lon="9.05077837407589">
<ele>438</ele>
<time>2024-05-10T11:39:11Z</time>
</trkpt>
<trkpt lat="49.64268872514367" lon="9.050787845626472">
<ele>437.4</ele>
<time>2024-05-10T11:39:12Z</time>
</trkpt>
<trkpt lat="49.64265821501613" lon="9.050800250843167">
<ele>437</ele>
<time>2024-05-10T11:39:13Z</time>
</trkpt>
<trkpt lat="49.64262770488858" lon="9.05081458389759">
<ele>436.6</ele>
<time>2024-05-10T11:39:14Z</time>
</trkpt>
<trkpt lat="49.64260482229293" lon="9.050827911123632">
<ele>436.2</ele>
<time>2024-05-10T11:39:15Z</time>
</trkpt>
<trkpt lat="49.64257422834635" lon="9.050838388502598">
<ele>435.8</ele>
<time>2024-05-10T11:39:16Z</time>
</trkpt>
<trkpt lat="49.64255134575069" lon="9.050841322168708">
<ele>435.6</ele>
<time>2024-05-10T11:39:17Z</time>
</trkpt>
<trkpt lat="49.64252469129861" lon="9.050847021862864">
<ele>435.6</ele>
<time>2024-05-10T11:39:18Z</time>
</trkpt>
<trkpt lat="49.64249795302749" lon="9.050853727385402">
<ele>435.4</ele>
<time>2024-05-10T11:39:19Z</time>
</trkpt>
<trkpt lat="49.64247507043183" lon="9.050867054611444">
<ele>435</ele>
<time>2024-05-10T11:39:20Z</time>
</trkpt>
<trkpt lat="49.64244456030429" lon="9.050869904458525">
<ele>434.6</ele>
<time>2024-05-10T11:39:21Z</time>
</trkpt>
<trkpt lat="49.64241405017674" lon="9.050878453999758">
<ele>434</ele>
<time>2024-05-10T11:39:22Z</time>
</trkpt>
<trkpt lat="49.642383540049195" lon="9.050883231684566">
<ele>433.6</ele>
<time>2024-05-10T11:39:23Z</time>
</trkpt>
<trkpt lat="49.64235302992165" lon="9.050888009369372">
<ele>433.2</ele>
<time>2024-05-10T11:39:24Z</time>
</trkpt>
<trkpt lat="49.642326291650534" lon="9.05089370906353">
<ele>433</ele>
<time>2024-05-10T11:39:25Z</time>
</trkpt>
<trkpt lat="49.64229963719845" lon="9.05089664272964">
<ele>432.8</ele>
<time>2024-05-10T11:39:26Z</time>
</trkpt>
<trkpt lat="49.64227289892733" lon="9.050903264433146">
<ele>432.6</ele>
<time>2024-05-10T11:39:27Z</time>
</trkpt>
<trkpt lat="49.64223861694336" lon="9.050909969955685">
<ele>432.6</ele>
<time>2024-05-10T11:39:28Z</time>
</trkpt>
<trkpt lat="49.64221565052867" lon="9.050918519496918">
<ele>432.4</ele>
<time>2024-05-10T11:39:29Z</time>
</trkpt>
<trkpt lat="49.64219276793301" lon="9.050930002704265">
<ele>432.6</ele>
<time>2024-05-10T11:39:30Z</time>
</trkpt>
<trkpt lat="49.642166113480926" lon="9.050931930541992">
<ele>433</ele>
<time>2024-05-10T11:39:31Z</time>
</trkpt>
<trkpt lat="49.64213937520981" lon="9.050930002704265">
<ele>433</ele>
<time>2024-05-10T11:39:32Z</time>
</trkpt>
<trkpt lat="49.64211272075772" lon="9.050931930541992">
<ele>433</ele>
<time>2024-05-10T11:39:33Z</time>
</trkpt>
<trkpt lat="49.642085982486606" lon="9.05093285255134">
<ele>433</ele>
<time>2024-05-10T11:39:34Z</time>
</trkpt>
<trkpt lat="49.64205547235906" lon="9.050938552245498">
<ele>433</ele>
<time>2024-05-10T11:39:35Z</time>
</trkpt>
<trkpt lat="49.64202496223152" lon="9.050950035452844">
<ele>432.6</ele>
<time>2024-05-10T11:39:36Z</time>
</trkpt>
<trkpt lat="49.6419982239604" lon="9.050965290516617">
<ele>432.4</ele>
<time>2024-05-10T11:39:37Z</time>
</trkpt>
<trkpt lat="49.641971569508314" lon="9.05097484588623">
<ele>432.2</ele>
<time>2024-05-10T11:39:38Z</time>
</trkpt>
<trkpt lat="49.6419448312372" lon="9.050981467589736">
<ele>431.8</ele>
<time>2024-05-10T11:39:39Z</time>
</trkpt>
<trkpt lat="49.64191817678511" lon="9.050981467589736">
<ele>431.4</ele>
<time>2024-05-10T11:39:40Z</time>
</trkpt>
<trkpt lat="49.64189529418945" lon="9.050990100950004">
<ele>431.2</ele>
<time>2024-05-10T11:39:41Z</time>
</trkpt>
<trkpt lat="49.641868555918336" lon="9.05099479481578">
<ele>430.8</ele>
<time>2024-05-10T11:39:42Z</time>
</trkpt>
<trkpt lat="49.64184567332268" lon="9.050998650491238">
<ele>430.4</ele>
<time>2024-05-10T11:39:43Z</time>
</trkpt>
<trkpt lat="49.64181893505156" lon="9.051006278023124">
<ele>430</ele>
<time>2024-05-10T11:39:44Z</time>
</trkpt>
<trkpt lat="49.641792280599475" lon="9.05101298354566">
<ele>429.6</ele>
<time>2024-05-10T11:39:45Z</time>
</trkpt>
<trkpt lat="49.64176554232836" lon="9.051019605249166">
<ele>429.2</ele>
<time>2024-05-10T11:39:46Z</time>
</trkpt>
<trkpt lat="49.64173503220081" lon="9.051019605249166">
<ele>429</ele>
<time>2024-05-10T11:39:47Z</time>
</trkpt>
<trkpt lat="49.64170452207327" lon="9.051025388762357">
<ele>428.8</ele>
<time>2024-05-10T11:39:48Z</time>
</trkpt>
<trkpt lat="49.64167778380215" lon="9.051036788150668">
<ele>428.6</ele>
<time>2024-05-10T11:39:49Z</time>
</trkpt>
<trkpt lat="49.64165490120649" lon="9.051058748736978">
<ele>428.4</ele>
<time>2024-05-10T11:39:50Z</time>
</trkpt>
<trkpt lat="49.641635874286294" lon="9.051078781485558">
<ele>428.2</ele>
<time>2024-05-10T11:39:51Z</time>
</trkpt>
<trkpt lat="49.64161676354706" lon="9.051097808405755">
<ele>428</ele>
<time>2024-05-10T11:39:52Z</time>
</trkpt>
<trkpt lat="49.64159773662686" lon="9.0511283185333">
<ele>427.8</ele>
<time>2024-05-10T11:39:53Z</time>
</trkpt>
<trkpt lat="49.641574854031205" lon="9.05115027911961">
<ele>427.2</ele>
<time>2024-05-10T11:39:54Z</time>
</trkpt>
<trkpt lat="49.64155197143555" lon="9.05117123387754">
<ele>426.8</ele>
<time>2024-05-10T11:39:55Z</time>
</trkpt>
<trkpt lat="49.64154426008463" lon="9.051186488941312">
<ele>426.4</ele>
<time>2024-05-10T11:39:56Z</time>
</trkpt>
<trkpt lat="49.64153286069632" lon="9.051197972148657">
<ele>426</ele>
<time>2024-05-10T11:39:57Z</time>
</trkpt>
<trkpt lat="49.64153286069632" lon="9.051199899986386">
<ele>425.6</ele>
<time>2024-05-10T11:39:58Z</time>
</trkpt>
<trkpt lat="49.64152900502086" lon="9.051201744005084">
<ele>425.4</ele>
<time>2024-05-10T11:39:59Z</time>
</trkpt>
<trkpt lat="49.64152523316443" lon="9.05120844952762">
<ele>425.2</ele>
<time>2024-05-10T11:40:00Z</time>
</trkpt>
<trkpt lat="49.64152523316443" lon="9.051216999068856">
<ele>424.8</ele>
<time>2024-05-10T11:40:01Z</time>
</trkpt>
<trkpt lat="49.64152137748897" lon="9.0512284822762">
<ele>424.6</ele>
<time>2024-05-10T11:40:02Z</time>
</trkpt>
<trkpt lat="49.64150235056877" lon="9.051257064566016">
<ele>424.2</ele>
<time>2024-05-10T11:40:03Z</time>
</trkpt>
<trkpt lat="49.64148323982954" lon="9.051284724846482">
<ele>424</ele>
<time>2024-05-10T11:40:04Z</time>
</trkpt>
<trkpt lat="49.64146798476577" lon="9.051313390955327">
<ele>423.8</ele>
<time>2024-05-10T11:40:05Z</time>
</trkpt>
<trkpt lat="49.64144895784557" lon="9.051340045407414">
<ele>423.6</ele>
<time>2024-05-10T11:40:06Z</time>
</trkpt>
<trkpt lat="49.64142984710634" lon="9.05137156136334">
<ele>423.2</ele>
<time>2024-05-10T11:40:07Z</time>
</trkpt>
<trkpt lat="49.64141082018614" lon="9.051398215815423">
<ele>422.8</ele>
<time>2024-05-10T11:40:08Z</time>
</trkpt>
<trkpt lat="49.64138793759048" lon="9.051420176401734">
<ele>422.6</ele>
<time>2024-05-10T11:40:09Z</time>
</trkpt>
<trkpt lat="49.64137259870768" lon="9.0514478366822">
<ele>422.4</ele>
<time>2024-05-10T11:40:10Z</time>
</trkpt>
<trkpt lat="49.64134971611202" lon="9.051474491134286">
<ele>422.2</ele>
<time>2024-05-10T11:40:11Z</time>
</trkpt>
<trkpt lat="49.64133068919182" lon="9.051505085080862">
<ele>422</ele>
<time>2024-05-10T11:40:12Z</time>
</trkpt>
<trkpt lat="49.64130780659616" lon="9.051533667370675">
<ele>422</ele>
<time>2024-05-10T11:40:13Z</time>
</trkpt>
<trkpt lat="49.64128869585693" lon="9.0515670273453">
<ele>421.8</ele>
<time>2024-05-10T11:40:14Z</time>
</trkpt>
<trkpt lat="49.64126581326127" lon="9.051594687625766">
<ele>421.6</ele>
<time>2024-05-10T11:40:15Z</time>
</trkpt>
<trkpt lat="49.64124678634107" lon="9.05162326991558">
<ele>421.6</ele>
<time>2024-05-10T11:40:16Z</time>
</trkpt>
<trkpt lat="49.6412315312773" lon="9.051654785871506">
<ele>421.4</ele>
<time>2024-05-10T11:40:17Z</time>
</trkpt>
<trkpt lat="49.64120864868164" lon="9.051688145846128">
<ele>421.4</ele>
<time>2024-05-10T11:40:18Z</time>
</trkpt>
<trkpt lat="49.64119330979884" lon="9.051721505820751">
<ele>421.4</ele>
<time>2024-05-10T11:40:19Z</time>
</trkpt>
<trkpt lat="49.64116665534675" lon="9.051752015948296">
<ele>421.4</ele>
<time>2024-05-10T11:40:20Z</time>
</trkpt>
<trkpt lat="49.64114754460752" lon="9.0517863817513">
<ele>421.2</ele>
<time>2024-05-10T11:40:21Z</time>
</trkpt>
<trkpt lat="49.64112851768732" lon="9.051817813888192">
<ele>421.2</ele>
<time>2024-05-10T11:40:22Z</time>
</trkpt>
<trkpt lat="49.64111326262355" lon="9.051841702312233">
<ele>421</ele>
<time>2024-05-10T11:40:23Z</time>
</trkpt>
<trkpt lat="49.6411017794162" lon="9.05186651274562">
<ele>421</ele>
<time>2024-05-10T11:40:24Z</time>
</trkpt>
<trkpt lat="49.641082752496" lon="9.051888389512897">
<ele>420.8</ele>
<time>2024-05-10T11:40:25Z</time>
</trkpt>
<trkpt lat="49.64106749743223" lon="9.051911272108557">
<ele>420.6</ele>
<time>2024-05-10T11:40:26Z</time>
</trkpt>
<trkpt lat="49.64105224236846" lon="9.051931304857137">
<ele>420.4</ele>
<time>2024-05-10T11:40:27Z</time>
</trkpt>
<trkpt lat="49.641040759161115" lon="9.051968520507216">
<ele>420.2</ele>
<time>2024-05-10T11:40:28Z</time>
</trkpt>
<trkpt lat="49.64103313162923" lon="9.052008586004376">
<ele>419.8</ele>
<time>2024-05-10T11:40:29Z</time>
</trkpt>
<trkpt lat="49.641017876565456" lon="9.052033396437764">
<ele>419.6</ele>
<time>2024-05-10T11:40:30Z</time>
</trkpt>
<trkpt lat="49.640998765826225" lon="9.05206298455596">
<ele>419.4</ele>
<time>2024-05-10T11:40:31Z</time>
</trkpt>
<trkpt lat="49.64098736643791" lon="9.052095338702202">
<ele>419.2</ele>
<time>2024-05-10T11:40:32Z</time>
</trkpt>
<trkpt lat="49.640960628166795" lon="9.052143031731248">
<ele>419</ele>
<time>2024-05-10T11:40:33Z</time>
</trkpt>
<trkpt lat="49.640941601246595" lon="9.052176475524902">
<ele>418.8</ele>
<time>2024-05-10T11:40:34Z</time>
</trkpt>
<trkpt lat="49.64091871865094" lon="9.052211679518225">
<ele>418.4</ele>
<time>2024-05-10T11:40:35Z</time>
</trkpt>
<trkpt lat="49.640903463587165" lon="9.052245123311875">
<ele>418.2</ele>
<time>2024-05-10T11:40:36Z</time>
</trkpt>
<trkpt lat="49.640884352847934" lon="9.052281333133578">
<ele>418</ele>
<time>2024-05-10T11:40:37Z</time>
</trkpt>
<trkpt lat="49.640865325927734" lon="9.052311843261124">
<ele>417.6</ele>
<time>2024-05-10T11:40:38Z</time>
</trkpt>
<trkpt lat="49.64085384272039" lon="9.05233665369451">
<ele>417.4</ele>
<time>2024-05-10T11:40:39Z</time>
</trkpt>
<trkpt lat="49.64084235951304" lon="9.052361464127898">
<ele>417.4</ele>
<time>2024-05-10T11:40:40Z</time>
</trkpt>
<trkpt lat="49.640823332592845" lon="9.052391974255444">
<ele>417.2</ele>
<time>2024-05-10T11:40:41Z</time>
</trkpt>
<trkpt lat="49.64080807752907" lon="9.052423406392336">
<ele>417</ele>
<time>2024-05-10T11:40:42Z</time>
</trkpt>
<trkpt lat="49.640785194933414" lon="9.052452072501184">
<ele>416.8</ele>
<time>2024-05-10T11:40:43Z</time>
</trkpt>
<trkpt lat="49.6407584566623" lon="9.05247495509684">
<ele>416.4</ele>
<time>2024-05-10T11:40:44Z</time>
</trkpt>
<trkpt lat="49.640743201598525" lon="9.052490210160611">
<ele>416</ele>
<time>2024-05-10T11:40:45Z</time>
</trkpt>
<trkpt lat="49.64072794653475" lon="9.0524978376925">
<ele>415.8</ele>
<time>2024-05-10T11:40:46Z</time>
</trkpt>
<trkpt lat="49.64071269147098" lon="9.052501609548926">
<ele>415.4</ele>
<time>2024-05-10T11:40:47Z</time>
</trkpt>
<trkpt lat="49.640705063939095" lon="9.052503537386656">
<ele>415.2</ele>
<time>2024-05-10T11:40:48Z</time>
</trkpt>
<trkpt lat="49.640705063939095" lon="9.052504459396005">
<ele>414.8</ele>
<time>2024-05-10T11:40:49Z</time>
</trkpt>
<trkpt lat="49.64070129208267" lon="9.052504459396005">
<ele>414.4</ele>
<time>2024-05-10T11:40:50Z</time>
</trkpt>
<trkpt lat="49.64070129208267" lon="9.052503537386656">
<ele>414.2</ele>
<time>2024-05-10T11:40:51Z</time>
</trkpt>
<trkpt lat="49.64069743640721" lon="9.052501609548926">
<ele>413.8</ele>
<time>2024-05-10T11:40:52Z</time>
</trkpt>
<trkpt lat="49.64070129208267" lon="9.052488282322884">
<ele>413.4</ele>
<time>2024-05-10T11:40:53Z</time>
</trkpt>
<trkpt lat="49.640705063939095" lon="9.05247495509684">
<ele>413.2</ele>
<time>2024-05-10T11:40:54Z</time>
</trkpt>
<trkpt lat="49.640705063939095" lon="9.052465399727224">
<ele>413</ele>
<time>2024-05-10T11:40:55Z</time>
</trkpt>
<trkpt lat="49.640705063939095" lon="9.052459700033069">
<ele>412.8</ele>
<time>2024-05-10T11:40:56Z</time>
</trkpt>
<trkpt lat="49.640705063939095" lon="9.05245685018599">
<ele>412.8</ele>
<time>2024-05-10T11:40:57Z</time>
</trkpt>
<trkpt lat="49.640705063939095" lon="9.052452994510531">
<ele>412.6</ele>
<time>2024-05-10T11:40:58Z</time>
</trkpt>
<trkpt lat="49.640705063939095" lon="9.052443439140916">
<ele>412.6</ele>
<time>2024-05-10T11:40:59Z</time>
</trkpt>
<trkpt lat="49.640705063939095" lon="9.052438661456108">
<ele>412.6</ele>
<time>2024-05-10T11:41:00Z</time>
</trkpt>
<trkpt lat="49.640705063939095" lon="9.052432039752604">
<ele>412.6</ele>
<time>2024-05-10T11:41:01Z</time>
</trkpt>
<trkpt lat="49.640705063939095" lon="9.052428184077144">
<ele>412.6</ele>
<time>2024-05-10T11:41:02Z</time>
</trkpt>
<trkpt lat="49.640705063939095" lon="9.052426256239414">
<ele>412.8</ele>
<time>2024-05-10T11:41:03Z</time>
</trkpt>
<trkpt lat="49.640705063939095" lon="9.052428184077144">
<ele>412.8</ele>
<time>2024-05-10T11:41:05Z</time>
</trkpt>
<trkpt lat="49.640705063939095" lon="9.052430111914871">
<ele>412.6</ele>
<time>2024-05-10T11:41:10Z</time>
</trkpt>
<trkpt lat="49.640705063939095" lon="9.052432039752604">
<ele>412.6</ele>
<time>2024-05-10T11:41:11Z</time>
</trkpt>
<trkpt lat="49.64070891961455" lon="9.052432039752604">
<ele>412.6</ele>
<time>2024-05-10T11:41:12Z</time>
</trkpt>
<trkpt lat="49.64070891961455" lon="9.052432961761951">
<ele>412.4</ele>
<time>2024-05-10T11:41:13Z</time>
</trkpt>
<trkpt lat="49.64070891961455" lon="9.052432039752604">
<ele>412.4</ele>
<time>2024-05-10T11:41:14Z</time>
</trkpt>
<trkpt lat="49.64070891961455" lon="9.052430111914871">
<ele>412.2</ele>
<time>2024-05-10T11:41:17Z</time>
</trkpt>
<trkpt lat="49.640705063939095" lon="9.052430111914871">
<ele>412.2</ele>
<time>2024-05-10T11:41:19Z</time>
</trkpt>
<trkpt lat="49.640705063939095" lon="9.052432039752604">
<ele>412.2</ele>
<time>2024-05-10T11:41:28Z</time>
</trkpt>
<trkpt lat="49.64070129208267" lon="9.052432961761951">
<ele>412.2</ele>
<time>2024-05-10T11:41:31Z</time>
</trkpt>
<trkpt lat="49.64070129208267" lon="9.05243488959968">
<ele>412.2</ele>
<time>2024-05-10T11:41:34Z</time>
</trkpt>
<trkpt lat="49.64069743640721" lon="9.05243681743741">
<ele>412</ele>
<time>2024-05-10T11:41:39Z</time>
</trkpt>
<trkpt lat="49.64069743640721" lon="9.052438661456108">
<ele>412</ele>
<time>2024-05-10T11:41:44Z</time>
</trkpt>
<trkpt lat="49.64069366455078" lon="9.052438661456108">
<ele>412</ele>
<time>2024-05-10T11:41:45Z</time>
</trkpt>
<trkpt lat="49.64069366455078" lon="9.052439667284489">
<ele>412</ele>
<time>2024-05-10T11:41:51Z</time>
</trkpt>
<trkpt lat="49.64068980887532" lon="9.052439667284489">
<ele>412</ele>
<time>2024-05-10T11:41:53Z</time>
</trkpt>
<trkpt lat="49.64069366455078" lon="9.052439667284489">
<ele>412</ele>
<time>2024-05-10T11:41:54Z</time>
</trkpt>
<trkpt lat="49.64069366455078" lon="9.052438661456108">
<ele>412</ele>
<time>2024-05-10T11:41:55Z</time>
</trkpt>
<trkpt lat="49.64069366455078" lon="9.05243681743741">
<ele>412</ele>
<time>2024-05-10T11:41:57Z</time>
</trkpt>
<trkpt lat="49.64069366455078" lon="9.052438661456108">
<ele>412</ele>
<time>2024-05-10T11:41:59Z</time>
</trkpt>
<trkpt lat="49.64069366455078" lon="9.05243681743741">
<ele>412</ele>
<time>2024-05-10T11:42:00Z</time>
</trkpt>
<trkpt lat="49.64069366455078" lon="9.052438661456108">
<ele>412.2</ele>
<time>2024-05-10T11:42:01Z</time>
</trkpt>
<trkpt lat="49.64069366455078" lon="9.052439667284489">
<ele>412.2</ele>
<time>2024-05-10T11:42:06Z</time>
</trkpt>
<trkpt lat="49.64069366455078" lon="9.052438661456108">
<ele>412.2</ele>
<time>2024-05-10T11:42:07Z</time>
</trkpt>
<trkpt lat="49.64069743640721" lon="9.052438661456108">
<ele>412.2</ele>
<time>2024-05-10T11:42:09Z</time>
</trkpt>
<trkpt lat="49.64070129208267" lon="9.05243681743741">
<ele>412.2</ele>
<time>2024-05-10T11:42:10Z</time>
</trkpt>
<trkpt lat="49.640705063939095" lon="9.05243488959968">
<ele>412.2</ele>
<time>2024-05-10T11:42:11Z</time>
</trkpt>
<trkpt lat="49.640705063939095" lon="9.052432961761951">
<ele>412.2</ele>
<time>2024-05-10T11:42:12Z</time>
</trkpt>
<trkpt lat="49.640705063939095" lon="9.052430111914871">
<ele>412.2</ele>
<time>2024-05-10T11:42:14Z</time>
</trkpt>
<trkpt lat="49.64070891961455" lon="9.052432961761951">
<ele>412.2</ele>
<time>2024-05-10T11:42:15Z</time>
</trkpt>
<trkpt lat="49.64070891961455" lon="9.05243488959968">
<ele>412.2</ele>
<time>2024-05-10T11:42:16Z</time>
</trkpt>
<trkpt lat="49.640705063939095" lon="9.052432961761951">
<ele>412.2</ele>
<time>2024-05-10T11:42:17Z</time>
</trkpt>
<trkpt lat="49.64070891961455" lon="9.052432039752604">
<ele>412.2</ele>
<time>2024-05-10T11:42:18Z</time>
</trkpt>
<trkpt lat="49.640705063939095" lon="9.052428184077144">
<ele>412.2</ele>
<time>2024-05-10T11:42:19Z</time>
</trkpt>
<trkpt lat="49.640705063939095" lon="9.052426256239414">
<ele>412.2</ele>
<time>2024-05-10T11:42:20Z</time>
</trkpt>
<trkpt lat="49.640705063939095" lon="9.052425334230064">
<ele>412.2</ele>
<time>2024-05-10T11:42:21Z</time>
</trkpt>
<trkpt lat="49.640705063939095" lon="9.052423406392336">
<ele>412.2</ele>
<time>2024-05-10T11:42:22Z</time>
</trkpt>
<trkpt lat="49.640705063939095" lon="9.052421562373638">
<ele>412.2</ele>
<time>2024-05-10T11:42:23Z</time>
</trkpt>
<trkpt lat="49.64070891961455" lon="9.052421562373638">
<ele>412</ele>
<time>2024-05-10T11:42:25Z</time>
</trkpt>
<trkpt lat="49.64070891961455" lon="9.052423406392336">
<ele>412.2</ele>
<time>2024-05-10T11:42:26Z</time>
</trkpt>
<trkpt lat="49.64070891961455" lon="9.052421562373638">
<ele>412.2</ele>
<time>2024-05-10T11:42:27Z</time>
</trkpt>
<trkpt lat="49.64070891961455" lon="9.052419634535909">
<ele>412.2</ele>
<time>2024-05-10T11:42:29Z</time>
</trkpt>
<trkpt lat="49.64070891961455" lon="9.052418628707528">
<ele>412.2</ele>
<time>2024-05-10T11:42:32Z</time>
</trkpt>
<trkpt lat="49.64070891961455" lon="9.05241678468883">
<ele>412.2</ele>
<time>2024-05-10T11:42:33Z</time>
</trkpt>
<trkpt lat="49.64070891961455" lon="9.052412929013371">
<ele>412.2</ele>
<time>2024-05-10T11:42:34Z</time>
</trkpt>
<trkpt lat="49.64070891961455" lon="9.052412007004024">
<ele>412.2</ele>
<time>2024-05-10T11:42:36Z</time>
</trkpt>
<trkpt lat="49.64070891961455" lon="9.052412929013371">
<ele>412.2</ele>
<time>2024-05-10T11:42:37Z</time>
</trkpt>
<trkpt lat="49.64070891961455" lon="9.052412007004024">
<ele>412.2</ele>
<time>2024-05-10T11:42:38Z</time>
</trkpt>
<trkpt lat="49.64071269147098" lon="9.052412007004024">
<ele>412.2</ele>
<time>2024-05-10T11:42:40Z</time>
</trkpt>
<trkpt lat="49.64070891961455" lon="9.052412007004024">
<ele>412.2</ele>
<time>2024-05-10T11:42:41Z</time>
</trkpt>
<trkpt lat="49.64070891961455" lon="9.052410079166291">
<ele>412.2</ele>
<time>2024-05-10T11:42:42Z</time>
</trkpt>
<trkpt lat="49.64070891961455" lon="9.052408151328564">
<ele>412.2</ele>
<time>2024-05-10T11:42:44Z</time>
</trkpt>
<trkpt lat="49.64070891961455" lon="9.052406307309866">
<ele>412.2</ele>
<time>2024-05-10T11:42:46Z</time>
</trkpt>
<trkpt lat="49.64070891961455" lon="9.052405301481484">
<ele>412</ele>
<time>2024-05-10T11:42:48Z</time>
</trkpt>
<trkpt lat="49.64070891961455" lon="9.052403373643756">
<ele>412</ele>
<time>2024-05-10T11:42:50Z</time>
</trkpt>
<trkpt lat="49.64070891961455" lon="9.052405301481484">
<ele>412</ele>
<time>2024-05-10T11:42:52Z</time>
</trkpt>
<trkpt lat="49.64070891961455" lon="9.052403373643756">
<ele>412</ele>
<time>2024-05-10T11:42:54Z</time>
</trkpt>
<trkpt lat="49.64070891961455" lon="9.052401529625058">
<ele>411.8</ele>
<time>2024-05-10T11:42:57Z</time>
</trkpt>
<trkpt lat="49.64070891961455" lon="9.05239867977798">
<ele>411.8</ele>
<time>2024-05-10T11:42:58Z</time>
</trkpt>
<trkpt lat="49.64070891961455" lon="9.052399601787329">
<ele>411.8</ele>
<time>2024-05-10T11:42:59Z</time>
</trkpt>
<trkpt lat="49.64071269147098" lon="9.05239867977798">
<ele>411.8</ele>
<time>2024-05-10T11:43:00Z</time>
</trkpt>
<trkpt lat="49.64071654714644" lon="9.052388118579984">
<ele>411.8</ele>
<time>2024-05-10T11:43:01Z</time>
</trkpt>
<trkpt lat="49.640724174678326" lon="9.05237671919167">
<ele>411.6</ele>
<time>2024-05-10T11:43:02Z</time>
</trkpt>
<trkpt lat="49.6407394297421" lon="9.052345203235744">
<ele>411.6</ele>
<time>2024-05-10T11:43:03Z</time>
</trkpt>
<trkpt lat="49.64075468480587" lon="9.052319470793009">
<ele>411.8</ele>
<time>2024-05-10T11:43:04Z</time>
</trkpt>
<trkpt lat="49.64076993986964" lon="9.052271777763965">
<ele>411.8</ele>
<time>2024-05-10T11:43:05Z</time>
</trkpt>
<trkpt lat="49.640781339257956" lon="9.052213607355952">
<ele>411.6</ele>
<time>2024-05-10T11:43:06Z</time>
</trkpt>
<trkpt lat="49.6407928224653" lon="9.052164992317556">
<ele>411.6</ele>
<time>2024-05-10T11:43:07Z</time>
</trkpt>
<trkpt lat="49.64080044999719" lon="9.05211822129786">
<ele>411.4</ele>
<time>2024-05-10T11:43:08Z</time>
</trkpt>
<trkpt lat="49.64080807752907" lon="9.05208201147616">
<ele>411.4</ele>
<time>2024-05-10T11:43:09Z</time>
</trkpt>
<trkpt lat="49.640819476917386" lon="9.052044795826076">
<ele>411.2</ele>
<time>2024-05-10T11:43:10Z</time>
</trkpt>
<trkpt lat="49.64083096012473" lon="9.052009508013724">
<ele>411.2</ele>
<time>2024-05-10T11:43:11Z</time>
</trkpt>
<trkpt lat="49.6408462151885" lon="9.051975226029754">
<ele>411.2</ele>
<time>2024-05-10T11:43:12Z</time>
</trkpt>
<trkpt lat="49.640861470252275" lon="9.051937088370323">
<ele>411</ele>
<time>2024-05-10T11:43:13Z</time>
</trkpt>
<trkpt lat="49.64088058099151" lon="9.051897944882512">
<ele>411</ele>
<time>2024-05-10T11:43:14Z</time>
</trkpt>
<trkpt lat="49.640899607911706" lon="9.05186366289854">
<ele>410.8</ele>
<time>2024-05-10T11:43:15Z</time>
</trkpt>
<trkpt lat="49.64091486297548" lon="9.05182451941073">
<ele>411</ele>
<time>2024-05-10T11:43:16Z</time>
</trkpt>
<trkpt lat="49.64093011803925" lon="9.05178353190422">
<ele>411</ele>
<time>2024-05-10T11:43:17Z</time>
</trkpt>
<trkpt lat="49.64094922877848" lon="9.051736760884523">
<ele>411.2</ele>
<time>2024-05-10T11:43:18Z</time>
</trkpt>
<trkpt lat="49.640964483842254" lon="9.051692001521587">
<ele>411.2</ele>
<time>2024-05-10T11:43:19Z</time>
</trkpt>
<trkpt lat="49.64098351076245" lon="9.051650008186698">
<ele>411.2</ele>
<time>2024-05-10T11:43:20Z</time>
</trkpt>
<trkpt lat="49.6409949939698" lon="9.051613798364995">
<ele>411.2</ele>
<time>2024-05-10T11:43:21Z</time>
</trkpt>
<trkpt lat="49.64100262150168" lon="9.051573732867835">
<ele>411.2</ele>
<time>2024-05-10T11:43:22Z</time>
</trkpt>
<trkpt lat="49.64101024903357" lon="9.051540372893214">
<ele>411.2</ele>
<time>2024-05-10T11:43:23Z</time>
</trkpt>
<trkpt lat="49.64102550409734" lon="9.05150692909956">
<ele>411.2</ele>
<time>2024-05-10T11:43:24Z</time>
</trkpt>
<trkpt lat="49.641044614836574" lon="9.0514668636024">
<ele>411</ele>
<time>2024-05-10T11:43:25Z</time>
</trkpt>
<trkpt lat="49.641059869900346" lon="9.051422104239464">
<ele>410.8</ele>
<time>2024-05-10T11:43:26Z</time>
</trkpt>
<trkpt lat="49.64107512496412" lon="9.051380110904574">
<ele>410.8</ele>
<time>2024-05-10T11:43:27Z</time>
</trkpt>
<trkpt lat="49.64109038002789" lon="9.051346750929952">
<ele>410.4</ele>
<time>2024-05-10T11:43:28Z</time>
</trkpt>
<trkpt lat="49.64110940694809" lon="9.05130953527987">
<ele>410.4</ele>
<time>2024-05-10T11:43:29Z</time>
</trkpt>
<trkpt lat="49.64112466201186" lon="9.051263770088552">
<ele>410.2</ele>
<time>2024-05-10T11:43:30Z</time>
</trkpt>
<trkpt lat="49.64114377275109" lon="9.05121515505016">
<ele>410</ele>
<time>2024-05-10T11:43:31Z</time>
</trkpt>
<trkpt lat="49.641155172139406" lon="9.05117123387754">
<ele>409.8</ele>
<time>2024-05-10T11:43:32Z</time>
</trkpt>
<trkpt lat="49.64118191041052" lon="9.05113116838038">
<ele>409.8</ele>
<time>2024-05-10T11:43:33Z</time>
</trkpt>
<trkpt lat="49.641197165474296" lon="9.05108825303614">
<ele>409.8</ele>
<time>2024-05-10T11:43:34Z</time>
</trkpt>
<trkpt lat="49.64121242053807" lon="9.051045337691903">
<ele>409.8</ele>
<time>2024-05-10T11:43:35Z</time>
</trkpt>
<trkpt lat="49.641220048069954" lon="9.050998650491238">
<ele>409.8</ele>
<time>2024-05-10T11:43:36Z</time>
</trkpt>
<trkpt lat="49.64122767560184" lon="9.050961434841156">
<ele>409.8</ele>
<time>2024-05-10T11:43:37Z</time>
</trkpt>
<trkpt lat="49.641239158809185" lon="9.050926147028804">
<ele>409.8</ele>
<time>2024-05-10T11:43:38Z</time>
</trkpt>
<trkpt lat="49.641258185729384" lon="9.050887087360024">
<ele>409.6</ele>
<time>2024-05-10T11:43:39Z</time>
</trkpt>
<trkpt lat="49.64126966893673" lon="9.050838388502598">
<ele>409.6</ele>
<time>2024-05-10T11:43:40Z</time>
</trkpt>
<trkpt lat="49.64128869585693" lon="9.050786923617125">
<ele>409.4</ele>
<time>2024-05-10T11:43:41Z</time>
</trkpt>
<trkpt lat="49.64130780659616" lon="9.05073830857873">
<ele>409.2</ele>
<time>2024-05-10T11:43:42Z</time>
</trkpt>
<trkpt lat="49.64133068919182" lon="9.050693465396762">
<ele>409.2</ele>
<time>2024-05-10T11:43:43Z</time>
</trkpt>
<trkpt lat="49.64134971611202" lon="9.050642000511289">
<ele>409</ele>
<time>2024-05-10T11:43:44Z</time>
</trkpt>
<trkpt lat="49.64136497117579" lon="9.050595229491591">
<ele>408.8</ele>
<time>2024-05-10T11:43:45Z</time>
</trkpt>
<trkpt lat="49.641380310058594" lon="9.050546614453197">
<ele>408.6</ele>
<time>2024-05-10T11:43:46Z</time>
</trkpt>
<trkpt lat="49.64140319265425" lon="9.050504621118307">
<ele>408.4</ele>
<time>2024-05-10T11:43:47Z</time>
</trkpt>
<trkpt lat="49.641418447718024" lon="9.05045692808926">
<ele>408.4</ele>
<time>2024-05-10T11:43:48Z</time>
</trkpt>
<trkpt lat="49.64144510217011" lon="9.050410240888596">
<ele>408.4</ele>
<time>2024-05-10T11:43:49Z</time>
</trkpt>
<trkpt lat="49.64146035723388" lon="9.05035869218409">
<ele>408.2</ele>
<time>2024-05-10T11:43:50Z</time>
</trkpt>
<trkpt lat="49.64147946797311" lon="9.050314854830503">
<ele>408.2</ele>
<time>2024-05-10T11:43:51Z</time>
</trkpt>
<trkpt lat="49.6415061224252" lon="9.05028149485588">
<ele>408.2</ele>
<time>2024-05-10T11:43:52Z</time>
</trkpt>
<trkpt lat="49.64152900502086" lon="9.050254756584764">
<ele>408.2</ele>
<time>2024-05-10T11:43:53Z</time>
</trkpt>
<trkpt lat="49.64154811576009" lon="9.050236651673911">
<ele>408.2</ele>
<time>2024-05-10T11:43:54Z</time>
</trkpt>
<trkpt lat="49.64156722649932" lon="9.050228102132678">
<ele>408.2</ele>
<time>2024-05-10T11:43:55Z</time>
</trkpt>
<trkpt lat="49.64158625341952" lon="9.050209997221828">
<ele>408</ele>
<time>2024-05-10T11:43:56Z</time>
</trkpt>
<trkpt lat="49.64161299169064" lon="9.050188036635518">
<ele>408</ele>
<time>2024-05-10T11:43:57Z</time>
</trkpt>
<trkpt lat="49.64163964614272" lon="9.05018325895071">
<ele>407.8</ele>
<time>2024-05-10T11:43:58Z</time>
</trkpt>
<trkpt lat="49.641670156270266" lon="9.05018325895071">
<ele>407.6</ele>
<time>2024-05-10T11:43:59Z</time>
</trkpt>
<trkpt lat="49.64170066639781" lon="9.050171775743364">
<ele>407.6</ele>
<time>2024-05-10T11:44:00Z</time>
</trkpt>
<trkpt lat="49.64172740466893" lon="9.050154676660895">
<ele>407.6</ele>
<time>2024-05-10T11:44:01Z</time>
</trkpt>
<trkpt lat="49.64176554232836" lon="9.050133638083937">
<ele>407.6</ele>
<time>2024-05-10T11:44:02Z</time>
</trkpt>
<trkpt lat="49.6417960524559" lon="9.050107905641198">
<ele>407.6</ele>
<time>2024-05-10T11:44:03Z</time>
</trkpt>
<trkpt lat="49.64182656258345" lon="9.05008502304554">
<ele>407.6</ele>
<time>2024-05-10T11:44:04Z</time>
</trkpt>
<trkpt lat="49.64185330085456" lon="9.050061218440533">
<ele>407.6</ele>
<time>2024-05-10T11:44:05Z</time>
</trkpt>
<trkpt lat="49.64188381098211" lon="9.050031630322335">
<ele>407.6</ele>
<time>2024-05-10T11:44:06Z</time>
</trkpt>
<trkpt lat="49.641910549253225" lon="9.049996342509983">
<ele>407.6</ele>
<time>2024-05-10T11:44:07Z</time>
</trkpt>
<trkpt lat="49.64193343184888" lon="9.049960132688284">
<ele>407.6</ele>
<time>2024-05-10T11:44:08Z</time>
</trkpt>
<trkpt lat="49.6419448312372" lon="9.049922917038202">
<ele>407.6</ele>
<time>2024-05-10T11:44:09Z</time>
</trkpt>
<trkpt lat="49.64196008630097" lon="9.0498885512352">
<ele>407.6</ele>
<time>2024-05-10T11:44:10Z</time>
</trkpt>
<trkpt lat="49.641971569508314" lon="9.04984848573804">
<ele>407.4</ele>
<time>2024-05-10T11:44:11Z</time>
</trkpt>
<trkpt lat="49.6419791970402" lon="9.049810348078609">
<ele>407.4</ele>
<time>2024-05-10T11:44:12Z</time>
</trkpt>
<trkpt lat="49.6419791970402" lon="9.049779837951064">
<ele>407.4</ele>
<time>2024-05-10T11:44:13Z</time>
</trkpt>
<trkpt lat="49.64197534136474" lon="9.04974647797644">
<ele>407.4</ele>
<time>2024-05-10T11:44:14Z</time>
</trkpt>
<trkpt lat="49.64197534136474" lon="9.04971311800182">
<ele>407.2</ele>
<time>2024-05-10T11:44:15Z</time>
</trkpt>
<trkpt lat="49.6419791970402" lon="9.049678752198815">
<ele>407.2</ele>
<time>2024-05-10T11:44:16Z</time>
</trkpt>
<trkpt lat="49.6419791970402" lon="9.049641536548734">
<ele>407</ele>
<time>2024-05-10T11:44:17Z</time>
</trkpt>
<trkpt lat="49.6419791970402" lon="9.04961203224957">
<ele>406.8</ele>
<time>2024-05-10T11:44:18Z</time>
</trkpt>
<trkpt lat="49.64197534136474" lon="9.049574816599488">
<ele>406.8</ele>
<time>2024-05-10T11:44:19Z</time>
</trkpt>
<trkpt lat="49.6419791970402" lon="9.049546234309672">
<ele>406.6</ele>
<time>2024-05-10T11:44:20Z</time>
</trkpt>
<trkpt lat="49.6419791970402" lon="9.049518574029207">
<ele>406.6</ele>
<time>2024-05-10T11:44:21Z</time>
</trkpt>
<trkpt lat="49.6419791970402" lon="9.049498541280627">
<ele>406.6</ele>
<time>2024-05-10T11:44:22Z</time>
</trkpt>
<trkpt lat="49.64197534136474" lon="9.049461325630546">
<ele>406.6</ele>
<time>2024-05-10T11:44:23Z</time>
</trkpt>
<trkpt lat="49.641971569508314" lon="9.049434587359428">
<ele>406.6</ele>
<time>2024-05-10T11:44:24Z</time>
</trkpt>
<trkpt lat="49.64196008630097" lon="9.049409860745072">
<ele>406.4</ele>
<time>2024-05-10T11:44:25Z</time>
</trkpt>
<trkpt lat="49.64196008630097" lon="9.049405083060265">
<ele>406.2</ele>
<time>2024-05-10T11:44:26Z</time>
</trkpt>
<trkpt lat="49.64195631444454" lon="9.049401227384806">
<ele>406</ele>
<time>2024-05-10T11:44:27Z</time>
</trkpt>
<trkpt lat="49.64195631444454" lon="9.049398377537727">
<ele>406</ele>
<time>2024-05-10T11:44:28Z</time>
</trkpt>
<trkpt lat="49.64196008630097" lon="9.04939359985292">
<ele>405.8</ele>
<time>2024-05-10T11:44:29Z</time>
</trkpt>
<trkpt lat="49.64196394197643" lon="9.049385050311685">
<ele>405.8</ele>
<time>2024-05-10T11:44:30Z</time>
</trkpt>
<trkpt lat="49.64196394197643" lon="9.049380272626877">
<ele>405.8</ele>
<time>2024-05-10T11:44:31Z</time>
</trkpt>
<trkpt lat="49.64196394197643" lon="9.04937356710434">
<ele>405.8</ele>
<time>2024-05-10T11:44:32Z</time>
</trkpt>
<trkpt lat="49.64196394197643" lon="9.049369795247912">
<ele>405.8</ele>
<time>2024-05-10T11:44:33Z</time>
</trkpt>
<trkpt lat="49.64196394197643" lon="9.049367867410185">
<ele>405.8</ele>
<time>2024-05-10T11:44:34Z</time>
</trkpt>
<trkpt lat="49.64196394197643" lon="9.049363089725375">
<ele>405.8</ele>
<time>2024-05-10T11:44:35Z</time>
</trkpt>
<trkpt lat="49.64195631444454" lon="9.049341129139066">
<ele>405.8</ele>
<time>2024-05-10T11:44:36Z</time>
</trkpt>
<trkpt lat="49.6419448312372" lon="9.049300141632555">
<ele>405.8</ele>
<time>2024-05-10T11:44:37Z</time>
</trkpt>
<trkpt lat="49.64193720370531" lon="9.049264853820205">
<ele>405.6</ele>
<time>2024-05-10T11:44:38Z</time>
</trkpt>
<trkpt lat="49.641929576173425" lon="9.04923819936812">
<ele>405.4</ele>
<time>2024-05-10T11:44:39Z</time>
</trkpt>
<trkpt lat="49.641925804317" lon="9.04921531677246">
<ele>405.4</ele>
<time>2024-05-10T11:44:40Z</time>
</trkpt>
<trkpt lat="49.64192194864154" lon="9.049189500510693">
<ele>405.4</ele>
<time>2024-05-10T11:44:41Z</time>
</trkpt>
<trkpt lat="49.64191432110965" lon="9.049162846058609">
<ele>405.2</ele>
<time>2024-05-10T11:44:42Z</time>
</trkpt>
<trkpt lat="49.641910549253225" lon="9.049131330102682">
<ele>405</ele>
<time>2024-05-10T11:44:43Z</time>
</trkpt>
<trkpt lat="49.641910549253225" lon="9.049101825803518">
<ele>405</ele>
<time>2024-05-10T11:44:44Z</time>
</trkpt>
<trkpt lat="49.64191432110965" lon="9.049061760306358">
<ele>404.8</ele>
<time>2024-05-10T11:44:45Z</time>
</trkpt>
<trkpt lat="49.64191432110965" lon="9.049019766971467">
<ele>404.6</ele>
<time>2024-05-10T11:44:46Z</time>
</trkpt>
<trkpt lat="49.64191817678511" lon="9.048963524401188">
<ele>404.6</ele>
<time>2024-05-10T11:44:47Z</time>
</trkpt>
<trkpt lat="49.64191432110965" lon="9.04891675338149">
<ele>404.8</ele>
<time>2024-05-10T11:44:48Z</time>
</trkpt>
<trkpt lat="49.64191432110965" lon="9.048866210505366">
<ele>404.8</ele>
<time>2024-05-10T11:44:49Z</time>
</trkpt>
<trkpt lat="49.64191432110965" lon="9.048825222998856">
<ele>404.8</ele>
<time>2024-05-10T11:44:50Z</time>
</trkpt>
<trkpt lat="49.641910549253225" lon="9.04878138564527">
<ele>404.8</ele>
<time>2024-05-10T11:44:51Z</time>
</trkpt>
<trkpt lat="49.641910549253225" lon="9.048751797527077">
<ele>405</ele>
<time>2024-05-10T11:44:52Z</time>
</trkpt>
<trkpt lat="49.64191432110965" lon="9.048718437552452">
<ele>404.8</ele>
<time>2024-05-10T11:44:53Z</time>
</trkpt>
<trkpt lat="49.641925804317" lon="9.04868122190237">
<ele>404.8</ele>
<time>2024-05-10T11:44:54Z</time>
</trkpt>
<trkpt lat="49.641925804317" lon="9.048649705946444">
<ele>404.6</ele>
<time>2024-05-10T11:44:55Z</time>
</trkpt>
<trkpt lat="49.641925804317" lon="9.048618273809552">
<ele>404.4</ele>
<time>2024-05-10T11:44:56Z</time>
</trkpt>
<trkpt lat="49.641929576173425" lon="9.048589691519735">
<ele>404.4</ele>
<time>2024-05-10T11:44:57Z</time>
</trkpt>
<trkpt lat="49.64193343184888" lon="9.048555325716734">
<ele>404.6</ele>
<time>2024-05-10T11:44:58Z</time>
</trkpt>
<trkpt lat="49.64194105938077" lon="9.04852481558919">
<ele>404.6</ele>
<time>2024-05-10T11:44:59Z</time>
</trkpt>
<trkpt lat="49.64193343184888" lon="9.048488605767488">
<ele>404.8</ele>
<time>2024-05-10T11:45:00Z</time>
</trkpt>
<trkpt lat="49.64192194864154" lon="9.048450468108058">
<ele>404.8</ele>
<time>2024-05-10T11:45:01Z</time>
</trkpt>
<trkpt lat="49.64191432110965" lon="9.048410402610898">
<ele>404.8</ele>
<time>2024-05-10T11:45:02Z</time>
</trkpt>
<trkpt lat="49.641910549253225" lon="9.048368409276009">
<ele>404.8</ele>
<time>2024-05-10T11:45:03Z</time>
</trkpt>
<trkpt lat="49.641910549253225" lon="9.048337899148464">
<ele>404.8</ele>
<time>2024-05-10T11:45:04Z</time>
</trkpt>
<trkpt lat="49.64191817678511" lon="9.048310238867998">
<ele>404.6</ele>
<time>2024-05-10T11:45:05Z</time>
</trkpt>
<trkpt lat="49.64191817678511" lon="9.048278806731105">
<ele>404.6</ele>
<time>2024-05-10T11:45:06Z</time>
</trkpt>
<trkpt lat="49.64191817678511" lon="9.048252068459988">
<ele>404.6</ele>
<time>2024-05-10T11:45:07Z</time>
</trkpt>
<trkpt lat="49.64192194864154" lon="9.04824536293745">
<ele>404.6</ele>
<time>2024-05-10T11:45:08Z</time>
</trkpt>
<trkpt lat="49.641925804317" lon="9.048239663243294">
<ele>404.4</ele>
<time>2024-05-10T11:45:09Z</time>
</trkpt>
<trkpt lat="49.641925804317" lon="9.048236813396215">
<ele>404.4</ele>
<time>2024-05-10T11:45:10Z</time>
</trkpt>
<trkpt lat="49.641925804317" lon="9.048232035711408">
<ele>404.4</ele>
<time>2024-05-10T11:45:11Z</time>
</trkpt>
<trkpt lat="49.641929576173425" lon="9.04822826385498">
<ele>404.2</ele>
<time>2024-05-10T11:45:12Z</time>
</trkpt>
<trkpt lat="49.641929576173425" lon="9.04822533018887">
<ele>404.2</ele>
<time>2024-05-10T11:45:13Z</time>
</trkpt>
<trkpt lat="49.64193343184888" lon="9.04822533018887">
<ele>404</ele>
<time>2024-05-10T11:45:14Z</time>
</trkpt>
<trkpt lat="49.64193343184888" lon="9.048223486170173">
<ele>404</ele>
<time>2024-05-10T11:45:15Z</time>
</trkpt>
<trkpt lat="49.64193343184888" lon="9.048221558332443">
<ele>403.8</ele>
<time>2024-05-10T11:45:16Z</time>
</trkpt>
<trkpt lat="49.64193343184888" lon="9.048219630494714">
<ele>403.8</ele>
<time>2024-05-10T11:45:17Z</time>
</trkpt>
<trkpt lat="49.64193343184888" lon="9.048221558332443">
<ele>403.6</ele>
<time>2024-05-10T11:45:18Z</time>
</trkpt>
<trkpt lat="49.64193343184888" lon="9.048223486170173">
<ele>403.6</ele>
<time>2024-05-10T11:45:20Z</time>
</trkpt>
<trkpt lat="49.64193343184888" lon="9.048221558332443">
<ele>403.6</ele>
<time>2024-05-10T11:45:24Z</time>
</trkpt>
<trkpt lat="49.64193720370531" lon="9.048218708485363">
<ele>403.6</ele>
<time>2024-05-10T11:45:25Z</time>
</trkpt>
<trkpt lat="49.64193720370531" lon="9.048212002962828">
<ele>403.6</ele>
<time>2024-05-10T11:45:26Z</time>
</trkpt>
<trkpt lat="49.64193720370531" lon="9.048199597746134">
<ele>403.6</ele>
<time>2024-05-10T11:45:27Z</time>
</trkpt>
<trkpt lat="49.64193720370531" lon="9.048183420673013">
<ele>403.6</ele>
<time>2024-05-10T11:45:28Z</time>
</trkpt>
<trkpt lat="49.64193720370531" lon="9.048136649653316">
<ele>403.6</ele>
<time>2024-05-10T11:45:29Z</time>
</trkpt>
<trkpt lat="49.6419448312372" lon="9.048093734309075">
<ele>403.6</ele>
<time>2024-05-10T11:45:30Z</time>
</trkpt>
<trkpt lat="49.6419448312372" lon="9.048047047108412">
<ele>403.4</ele>
<time>2024-05-10T11:45:31Z</time>
</trkpt>
<trkpt lat="49.6419448312372" lon="9.048006981611252">
<ele>403.4</ele>
<time>2024-05-10T11:45:32Z</time>
</trkpt>
<trkpt lat="49.641948686912656" lon="9.04796783812344">
<ele>403.4</ele>
<time>2024-05-10T11:45:33Z</time>
</trkpt>
<trkpt lat="49.6419448312372" lon="9.047936405986547">
<ele>403.2</ele>
<time>2024-05-10T11:45:34Z</time>
</trkpt>
<trkpt lat="49.6419448312372" lon="9.04790874570608">
<ele>403.2</ele>
<time>2024-05-10T11:45:35Z</time>
</trkpt>
<trkpt lat="49.64194105938077" lon="9.047883013263345">
<ele>403</ele>
<time>2024-05-10T11:45:36Z</time>
</trkpt>
<trkpt lat="49.64193343184888" lon="9.047860130667686">
<ele>403</ele>
<time>2024-05-10T11:45:37Z</time>
</trkpt>
<trkpt lat="49.641925804317" lon="9.04783339239657">
<ele>402.8</ele>
<time>2024-05-10T11:45:38Z</time>
</trkpt>
<trkpt lat="49.64192194864154" lon="9.04781143181026">
<ele>402.8</ele>
<time>2024-05-10T11:45:39Z</time>
</trkpt>
<trkpt lat="49.64191432110965" lon="9.047800032421948">
<ele>402.8</ele>
<time>2024-05-10T11:45:40Z</time>
</trkpt>
<trkpt lat="49.641910549253225" lon="9.047800032421948">
<ele>402.8</ele>
<time>2024-05-10T11:45:43Z</time>
</trkpt>
<trkpt lat="49.641910549253225" lon="9.047801960259676">
<ele>402.8</ele>
<time>2024-05-10T11:45:47Z</time>
</trkpt>
<trkpt lat="49.641910549253225" lon="9.047802882269025">
<ele>402.8</ele>
<time>2024-05-10T11:45:48Z</time>
</trkpt>
<trkpt lat="49.641906693577766" lon="9.047801960259676">
<ele>402.8</ele>
<time>2024-05-10T11:45:50Z</time>
</trkpt>
<trkpt lat="49.641910549253225" lon="9.047800032421948">
<ele>402.6</ele>
<time>2024-05-10T11:45:52Z</time>
</trkpt>
<trkpt lat="49.641910549253225" lon="9.047801960259676">
<ele>402.4</ele>
<time>2024-05-10T11:45:53Z</time>
</trkpt>
<trkpt lat="49.641910549253225" lon="9.047800032421948">
<ele>402.4</ele>
<time>2024-05-10T11:45:54Z</time>
</trkpt>
<trkpt lat="49.64191432110965" lon="9.047798104584215">
<ele>402.4</ele>
<time>2024-05-10T11:45:56Z</time>
</trkpt>
<trkpt lat="49.64191432110965" lon="9.047796176746488">
<ele>402.4</ele>
<time>2024-05-10T11:46:01Z</time>
</trkpt>
<trkpt lat="49.641910549253225" lon="9.047796176746488">
<ele>402.2</ele>
<time>2024-05-10T11:46:02Z</time>
</trkpt>
<trkpt lat="49.641910549253225" lon="9.047798104584215">
<ele>402.2</ele>
<time>2024-05-10T11:46:03Z</time>
</trkpt>
<trkpt lat="49.641906693577766" lon="9.047798104584215">
<ele>402.2</ele>
<time>2024-05-10T11:46:04Z</time>
</trkpt>
<trkpt lat="49.641906693577766" lon="9.047796176746488">
<ele>402</ele>
<time>2024-05-10T11:46:05Z</time>
</trkpt>
<trkpt lat="49.641906693577766" lon="9.04779525473714">
<ele>402</ele>
<time>2024-05-10T11:46:07Z</time>
</trkpt>
<trkpt lat="49.641906693577766" lon="9.04779332689941">
<ele>402</ele>
<time>2024-05-10T11:46:08Z</time>
</trkpt>
<trkpt lat="49.641906693577766" lon="9.04779139906168">
<ele>401.8</ele>
<time>2024-05-10T11:46:09Z</time>
</trkpt>
<trkpt lat="49.64190292172134" lon="9.047788549214602">
<ele>401.8</ele>
<time>2024-05-10T11:46:10Z</time>
</trkpt>
<trkpt lat="49.64190292172134" lon="9.047786705195904">
<ele>401.8</ele>
<time>2024-05-10T11:46:11Z</time>
</trkpt>
<trkpt lat="49.64190292172134" lon="9.047782849520445">
<ele>401.8</ele>
<time>2024-05-10T11:46:12Z</time>
</trkpt>
<trkpt lat="49.641906693577766" lon="9.047788549214602">
<ele>401.8</ele>
<time>2024-05-10T11:46:13Z</time>
</trkpt>
<trkpt lat="49.641910549253225" lon="9.047789555042982">
<ele>402</ele>
<time>2024-05-10T11:46:14Z</time>
</trkpt>
<trkpt lat="49.64191817678511" lon="9.047798104584215">
<ele>402</ele>
<time>2024-05-10T11:46:15Z</time>
</trkpt>
<trkpt lat="49.64192194864154" lon="9.04781143181026">
<ele>402</ele>
<time>2024-05-10T11:46:16Z</time>
</trkpt>
<trkpt lat="49.641925804317" lon="9.047818137332795">
<ele>402</ele>
<time>2024-05-10T11:46:17Z</time>
</trkpt>
<trkpt lat="49.641929576173425" lon="9.04783146455884">
<ele>402</ele>
<time>2024-05-10T11:46:18Z</time>
</trkpt>
<trkpt lat="49.64193343184888" lon="9.047844875603914">
<ele>402</ele>
<time>2024-05-10T11:46:19Z</time>
</trkpt>
<trkpt lat="49.6419448312372" lon="9.047880163416266">
<ele>402</ele>
<time>2024-05-10T11:46:20Z</time>
</trkpt>
<trkpt lat="49.64195631444454" lon="9.047916373237967">
<ele>402</ele>
<time>2024-05-10T11:46:21Z</time>
</trkpt>
<trkpt lat="49.64196394197643" lon="9.047946883365512">
<ele>402</ele>
<time>2024-05-10T11:46:22Z</time>
</trkpt>
<trkpt lat="49.64196394197643" lon="9.047976471483707">
<ele>402</ele>
<time>2024-05-10T11:46:23Z</time>
</trkpt>
<trkpt lat="49.641967713832855" lon="9.048006981611252">
<ele>402</ele>
<time>2024-05-10T11:46:24Z</time>
</trkpt>
<trkpt lat="49.64196394197643" lon="9.048036569729447">
<ele>402</ele>
<time>2024-05-10T11:46:25Z</time>
</trkpt>
<trkpt lat="49.64196008630097" lon="9.0480718575418">
<ele>402</ele>
<time>2024-05-10T11:46:26Z</time>
</trkpt>
<trkpt lat="49.64195245876908" lon="9.048103289678693">
<ele>402</ele>
<time>2024-05-10T11:46:27Z</time>
</trkpt>
<trkpt lat="49.641948686912656" lon="9.048134721815586">
<ele>402.2</ele>
<time>2024-05-10T11:46:28Z</time>
</trkpt>
<trkpt lat="49.6419448312372" lon="9.04816816560924">
<ele>402.2</ele>
<time>2024-05-10T11:46:29Z</time>
</trkpt>
<trkpt lat="49.64193343184888" lon="9.048206303268673">
<ele>402.2</ele>
<time>2024-05-10T11:46:30Z</time>
</trkpt>
<trkpt lat="49.641925804317" lon="9.04824536293745">
<ele>402.2</ele>
<time>2024-05-10T11:46:31Z</time>
</trkpt>
<trkpt lat="49.64192194864154" lon="9.048278806731105">
<ele>402.4</ele>
<time>2024-05-10T11:46:32Z</time>
</trkpt>
<trkpt lat="49.64191817678511" lon="9.048310238867998">
<ele>402.6</ele>
<time>2024-05-10T11:46:33Z</time>
</trkpt>
<trkpt lat="49.64191817678511" lon="9.048333121463656">
<ele>402.8</ele>
<time>2024-05-10T11:46:34Z</time>
</trkpt>
<trkpt lat="49.64191817678511" lon="9.048353154212236">
<ele>403</ele>
<time>2024-05-10T11:46:35Z</time>
</trkpt>
<trkpt lat="49.64191817678511" lon="9.048373186960816">
<ele>403</ele>
<time>2024-05-10T11:46:36Z</time>
</trkpt>
<trkpt lat="49.64191817678511" lon="9.048397997394204">
<ele>403.2</ele>
<time>2024-05-10T11:46:37Z</time>
</trkpt>
<trkpt lat="49.64191817678511" lon="9.048430435359478">
<ele>403.4</ele>
<time>2024-05-10T11:46:38Z</time>
</trkpt>
<trkpt lat="49.64191817678511" lon="9.048459939658642">
<ele>403.4</ele>
<time>2024-05-10T11:46:39Z</time>
</trkpt>
<trkpt lat="49.641910549253225" lon="9.04848475009203">
<ele>403.6</ele>
<time>2024-05-10T11:46:40Z</time>
</trkpt>
<trkpt lat="49.641910549253225" lon="9.048501932993531">
<ele>403.6</ele>
<time>2024-05-10T11:46:41Z</time>
</trkpt>
<trkpt lat="49.64190292172134" lon="9.048529593273996">
<ele>403.6</ele>
<time>2024-05-10T11:46:42Z</time>
</trkpt>
<trkpt lat="49.64189906604588" lon="9.048555325716734">
<ele>403.8</ele>
<time>2024-05-10T11:46:43Z</time>
</trkpt>
<trkpt lat="49.64190292172134" lon="9.048575358465314">
<ele>403.8</ele>
<time>2024-05-10T11:46:44Z</time>
</trkpt>
<trkpt lat="49.641906693577766" lon="9.048609724268315">
<ele>404</ele>
<time>2024-05-10T11:46:45Z</time>
</trkpt>
<trkpt lat="49.641910549253225" lon="9.04864308424294">
<ele>404.2</ele>
<time>2024-05-10T11:46:46Z</time>
</trkpt>
<trkpt lat="49.641910549253225" lon="9.048673594370484">
<ele>404.2</ele>
<time>2024-05-10T11:46:47Z</time>
</trkpt>
<trkpt lat="49.64191817678511" lon="9.04870125465095">
<ele>404.4</ele>
<time>2024-05-10T11:46:48Z</time>
</trkpt>
<trkpt lat="49.64191817678511" lon="9.048747941851616">
<ele>404.6</ele>
<time>2024-05-10T11:46:49Z</time>
</trkpt>
<trkpt lat="49.641925804317" lon="9.048793790861964">
<ele>404.8</ele>
<time>2024-05-10T11:46:50Z</time>
</trkpt>
<trkpt lat="49.641929576173425" lon="9.04884140007198">
<ele>404.8</ele>
<time>2024-05-10T11:46:51Z</time>
</trkpt>
<trkpt lat="49.64193343184888" lon="9.048888171091676">
<ele>405</ele>
<time>2024-05-10T11:46:52Z</time>
</trkpt>
<trkpt lat="49.64193343184888" lon="9.0489387139678">
<ele>405</ele>
<time>2024-05-10T11:46:53Z</time>
</trkpt>
<trkpt lat="49.6419448312372" lon="9.048984479159117">
<ele>405</ele>
<time>2024-05-10T11:46:54Z</time>
</trkpt>
<trkpt lat="49.64195245876908" lon="9.049026472494006">
<ele>405.2</ele>
<time>2024-05-10T11:46:55Z</time>
</trkpt>
<trkpt lat="49.64196008630097" lon="9.049064610153437">
<ele>405.2</ele>
<time>2024-05-10T11:46:56Z</time>
</trkpt>
<trkpt lat="49.64196394197643" lon="9.049103669822216">
<ele>405.2</ele>
<time>2024-05-10T11:46:57Z</time>
</trkpt>
<trkpt lat="49.641971569508314" lon="9.04913518577814">
<ele>405.2</ele>
<time>2024-05-10T11:46:58Z</time>
</trkpt>
<trkpt lat="49.641971569508314" lon="9.0491580683738">
<ele>405.2</ele>
<time>2024-05-10T11:46:59Z</time>
</trkpt>
<trkpt lat="49.641971569508314" lon="9.049168545752764">
<ele>405.2</ele>
<time>2024-05-10T11:47:00Z</time>
</trkpt>
<trkpt lat="49.641971569508314" lon="9.049182878807189">
<ele>405.2</ele>
<time>2024-05-10T11:47:01Z</time>
</trkpt>
<trkpt lat="49.64197534136474" lon="9.049191428348422">
<ele>405.2</ele>
<time>2024-05-10T11:47:02Z</time>
</trkpt>
<trkpt lat="49.64197534136474" lon="9.049206683412194">
<ele>405.2</ele>
<time>2024-05-10T11:47:03Z</time>
</trkpt>
<trkpt lat="49.641971569508314" lon="9.04921816661954">
<ele>405</ele>
<time>2024-05-10T11:47:04Z</time>
</trkpt>
<trkpt lat="49.64196394197643" lon="9.049244821071625">
<ele>405</ele>
<time>2024-05-10T11:47:05Z</time>
</trkpt>
<trkpt lat="49.641967713832855" lon="9.049273487180471">
<ele>405</ele>
<time>2024-05-10T11:47:06Z</time>
</trkpt>
<trkpt lat="49.64196394197643" lon="9.049289664253592">
<ele>404.8</ele>
<time>2024-05-10T11:47:07Z</time>
</trkpt>
<trkpt lat="49.64196394197643" lon="9.049300141632555">
<ele>404.8</ele>
<time>2024-05-10T11:47:08Z</time>
</trkpt>
<trkpt lat="49.641967713832855" lon="9.049308774992824">
<ele>404.6</ele>
<time>2024-05-10T11:47:09Z</time>
</trkpt>
<trkpt lat="49.641971569508314" lon="9.049311624839902">
<ele>404.6</ele>
<time>2024-05-10T11:47:10Z</time>
</trkpt>
<trkpt lat="49.64198296889663" lon="9.049304919317365">
<ele>404.6</ele>
<time>2024-05-10T11:47:11Z</time>
</trkpt>
<trkpt lat="49.641986824572086" lon="9.049304919317365">
<ele>404.6</ele>
<time>2024-05-10T11:47:12Z</time>
</trkpt>
<trkpt lat="49.641986824572086" lon="9.049300141632555">
<ele>404.6</ele>
<time>2024-05-10T11:47:13Z</time>
</trkpt>
<trkpt lat="49.641986824572086" lon="9.049302069470286">
<ele>404.6</ele>
<time>2024-05-10T11:47:14Z</time>
</trkpt>
<trkpt lat="49.641986824572086" lon="9.049298213794827">
<ele>404.6</ele>
<time>2024-05-10T11:47:15Z</time>
</trkpt>
<trkpt lat="49.64198296889663" lon="9.04929343611002">
<ele>404.6</ele>
<time>2024-05-10T11:47:16Z</time>
</trkpt>
<trkpt lat="49.64198296889663" lon="9.049291592091322">
<ele>404.6</ele>
<time>2024-05-10T11:47:17Z</time>
</trkpt>
<trkpt lat="49.64198296889663" lon="9.049288742244244">
<ele>404.6</ele>
<time>2024-05-10T11:47:18Z</time>
</trkpt>
<trkpt lat="49.64198296889663" lon="9.049286814406514">
<ele>404.6</ele>
<time>2024-05-10T11:47:19Z</time>
</trkpt>
<trkpt lat="49.64198296889663" lon="9.049284886568785">
<ele>404.6</ele>
<time>2024-05-10T11:47:20Z</time>
</trkpt>
<trkpt lat="49.6419791970402" lon="9.049284886568785">
<ele>404.6</ele>
<time>2024-05-10T11:47:22Z</time>
</trkpt>
<trkpt lat="49.6419791970402" lon="9.049286814406514">
<ele>404.6</ele>
<time>2024-05-10T11:47:23Z</time>
</trkpt>
<trkpt lat="49.64198296889663" lon="9.049286814406514">
<ele>404.6</ele>
<time>2024-05-10T11:47:24Z</time>
</trkpt>
<trkpt lat="49.64198296889663" lon="9.049288742244244">
<ele>404.4</ele>
<time>2024-05-10T11:47:25Z</time>
</trkpt>
<trkpt lat="49.6419791970402" lon="9.049288742244244">
<ele>404.4</ele>
<time>2024-05-10T11:47:26Z</time>
</trkpt>
<trkpt lat="49.6419791970402" lon="9.049286814406514">
<ele>404.6</ele>
<time>2024-05-10T11:47:29Z</time>
</trkpt>
<trkpt lat="49.64197534136474" lon="9.049284886568785">
<ele>404.6</ele>
<time>2024-05-10T11:47:30Z</time>
</trkpt>
<trkpt lat="49.64197534136474" lon="9.049286814406514">
<ele>404.6</ele>
<time>2024-05-10T11:47:31Z</time>
</trkpt>
<trkpt lat="49.64197534136474" lon="9.049288742244244">
<ele>404.6</ele>
<time>2024-05-10T11:47:33Z</time>
</trkpt>
<trkpt lat="49.64197534136474" lon="9.049286814406514">
<ele>404.6</ele>
<time>2024-05-10T11:47:35Z</time>
</trkpt>
<trkpt lat="49.641971569508314" lon="9.049288742244244">
<ele>404.6</ele>
<time>2024-05-10T11:47:37Z</time>
</trkpt>
<trkpt lat="49.641971569508314" lon="9.049289664253592">
<ele>404.6</ele>
<time>2024-05-10T11:47:38Z</time>
</trkpt>
<trkpt lat="49.641967713832855" lon="9.049291592091322">
<ele>404.6</ele>
<time>2024-05-10T11:47:40Z</time>
</trkpt>
<trkpt lat="49.641967713832855" lon="9.04929343611002">
<ele>404.6</ele>
<time>2024-05-10T11:47:41Z</time>
</trkpt>
<trkpt lat="49.641967713832855" lon="9.04929536394775">
<ele>404.6</ele>
<time>2024-05-10T11:47:42Z</time>
</trkpt>
<trkpt lat="49.641967713832855" lon="9.04929636977613">
<ele>404.6</ele>
<time>2024-05-10T11:47:43Z</time>
</trkpt>
<trkpt lat="49.641967713832855" lon="9.04929536394775">
<ele>404.6</ele>
<time>2024-05-10T11:47:44Z</time>
</trkpt>
<trkpt lat="49.641967713832855" lon="9.04929343611002">
<ele>404.6</ele>
<time>2024-05-10T11:47:46Z</time>
</trkpt>
<trkpt lat="49.641967713832855" lon="9.04929536394775">
<ele>404.6</ele>
<time>2024-05-10T11:47:47Z</time>
</trkpt>
<trkpt lat="49.64196394197643" lon="9.04929536394775">
<ele>404.6</ele>
<time>2024-05-10T11:47:52Z</time>
</trkpt>
<trkpt lat="49.64196394197643" lon="9.04929636977613">
<ele>404.6</ele>
<time>2024-05-10T11:47:53Z</time>
</trkpt>
<trkpt lat="49.64196394197643" lon="9.049298213794827">
<ele>404.6</ele>
<time>2024-05-10T11:47:54Z</time>
</trkpt>
<trkpt lat="49.641967713832855" lon="9.04929636977613">
<ele>404.6</ele>
<time>2024-05-10T11:47:55Z</time>
</trkpt>
<trkpt lat="49.641967713832855" lon="9.04929536394775">
<ele>404.6</ele>
<time>2024-05-10T11:47:56Z</time>
</trkpt>
<trkpt lat="49.641967713832855" lon="9.049289664253592">
<ele>404.6</ele>
<time>2024-05-10T11:47:57Z</time>
</trkpt>
<trkpt lat="49.641967713832855" lon="9.049288742244244">
<ele>404.6</ele>
<time>2024-05-10T11:47:58Z</time>
</trkpt>
<trkpt lat="49.641967713832855" lon="9.049284886568785">
<ele>404.6</ele>
<time>2024-05-10T11:47:59Z</time>
</trkpt>
<trkpt lat="49.641967713832855" lon="9.049282958731055">
<ele>404.6</ele>
<time>2024-05-10T11:48:01Z</time>
</trkpt>
<trkpt lat="49.641967713832855" lon="9.049282036721706">
<ele>404.6</ele>
<time>2024-05-10T11:48:02Z</time>
</trkpt>
<trkpt lat="49.641967713832855" lon="9.049278181046247">
<ele>404.6</ele>
<time>2024-05-10T11:48:03Z</time>
</trkpt>
<trkpt lat="49.641967713832855" lon="9.04927633702755">
<ele>404.6</ele>
<time>2024-05-10T11:48:04Z</time>
</trkpt>
<trkpt lat="49.64196008630097" lon="9.049273487180471">
<ele>404.6</ele>
<time>2024-05-10T11:48:05Z</time>
</trkpt>
<trkpt lat="49.64195631444454" lon="9.049264853820205">
<ele>404.6</ele>
<time>2024-05-10T11:48:06Z</time>
</trkpt>
<trkpt lat="49.641948686912656" lon="9.04925529845059">
<ele>404.6</ele>
<time>2024-05-10T11:48:07Z</time>
</trkpt>
<trkpt lat="49.6419448312372" lon="9.049244821071625">
<ele>404.4</ele>
<time>2024-05-10T11:48:08Z</time>
</trkpt>
<trkpt lat="49.64193720370531" lon="9.04923526570201">
<ele>404.4</ele>
<time>2024-05-10T11:48:09Z</time>
</trkpt>
<trkpt lat="49.641925804317" lon="9.049220010638235">
<ele>404.2</ele>
<time>2024-05-10T11:48:10Z</time>
</trkpt>
<trkpt lat="49.64191432110965" lon="9.049173323437572">
<ele>404.2</ele>
<time>2024-05-10T11:48:11Z</time>
</trkpt>
<trkpt lat="49.641906693577766" lon="9.049148513004184">
<ele>404.2</ele>
<time>2024-05-10T11:48:12Z</time>
</trkpt>
<trkpt lat="49.64190292172134" lon="9.049130408093331">
<ele>404</ele>
<time>2024-05-10T11:48:13Z</time>
</trkpt>
<trkpt lat="49.641891438513994" lon="9.04911708086729">
<ele>403.8</ele>
<time>2024-05-10T11:48:14Z</time>
</trkpt>
<trkpt lat="49.64188381098211" lon="9.04909797012806">
<ele>403.6</ele>
<time>2024-05-10T11:48:15Z</time>
</trkpt>
<trkpt lat="49.64187618345022" lon="9.049081793054938">
<ele>403.6</ele>
<time>2024-05-10T11:48:16Z</time>
</trkpt>
<trkpt lat="49.641868555918336" lon="9.04903787188232">
<ele>403.4</ele>
<time>2024-05-10T11:48:17Z</time>
</trkpt>
<trkpt lat="49.64185707271099" lon="9.048993028700352">
<ele>403.4</ele>
<time>2024-05-10T11:48:18Z</time>
</trkpt>
<trkpt lat="49.641849445179105" lon="9.04895874671638">
<ele>403.2</ele>
<time>2024-05-10T11:48:19Z</time>
</trkpt>
<trkpt lat="49.64183804579079" lon="9.048928236588836">
<ele>403.4</ele>
<time>2024-05-10T11:48:20Z</time>
</trkpt>
<trkpt lat="49.641830418258905" lon="9.048899570479987">
<ele>403.2</ele>
<time>2024-05-10T11:48:21Z</time>
</trkpt>
<trkpt lat="49.64182656258345" lon="9.048870066180823">
<ele>403</ele>
<time>2024-05-10T11:48:22Z</time>
</trkpt>
<trkpt lat="49.64182279072702" lon="9.048845255747436">
<ele>402.8</ele>
<time>2024-05-10T11:48:23Z</time>
</trkpt>
<trkpt lat="49.64181516319513" lon="9.048812817782164">
<ele>402.6</ele>
<time>2024-05-10T11:48:24Z</time>
</trkpt>
<trkpt lat="49.64180367998779" lon="9.048783229663968">
<ele>402.4</ele>
<time>2024-05-10T11:48:25Z</time>
</trkpt>
<trkpt lat="49.6417960524559" lon="9.048747941851616">
<ele>402.4</ele>
<time>2024-05-10T11:48:26Z</time>
</trkpt>
<trkpt lat="49.64178465306759" lon="9.048718437552452">
<ele>402.4</ele>
<time>2024-05-10T11:48:27Z</time>
</trkpt>
<trkpt lat="49.64178079739213" lon="9.048680299893022">
<ele>402.2</ele>
<time>2024-05-10T11:48:28Z</time>
</trkpt>
<trkpt lat="49.6417770255357" lon="9.04864308424294">
<ele>402.2</ele>
<time>2024-05-10T11:48:29Z</time>
</trkpt>
<trkpt lat="49.64177316986024" lon="9.048611568287017">
<ele>402</ele>
<time>2024-05-10T11:48:30Z</time>
</trkpt>
<trkpt lat="49.64177316986024" lon="9.048578208312392">
<ele>401.8</ele>
<time>2024-05-10T11:48:31Z</time>
</trkpt>
<trkpt lat="49.64176554232836" lon="9.048560103401542">
<ele>401.6</ele>
<time>2024-05-10T11:48:32Z</time>
</trkpt>
<trkpt lat="49.64176177047193" lon="9.048513332381845">
<ele>401.4</ele>
<time>2024-05-10T11:48:33Z</time>
</trkpt>
<trkpt lat="49.64176177047193" lon="9.048475194722414">
<ele>401.2</ele>
<time>2024-05-10T11:48:34Z</time>
</trkpt>
<trkpt lat="49.64176177047193" lon="9.048450468108058">
<ele>401.2</ele>
<time>2024-05-10T11:48:35Z</time>
</trkpt>
<trkpt lat="49.64176554232836" lon="9.048417024314404">
<ele>401</ele>
<time>2024-05-10T11:48:36Z</time>
</trkpt>
<trkpt lat="49.64176554232836" lon="9.048388442024589">
<ele>400.8</ele>
<time>2024-05-10T11:48:37Z</time>
</trkpt>
<trkpt lat="49.64176177047193" lon="9.048353154212236">
<ele>400.6</ele>
<time>2024-05-10T11:48:38Z</time>
</trkpt>
<trkpt lat="49.64176177047193" lon="9.048315016552806">
<ele>400.6</ele>
<time>2024-05-10T11:48:39Z</time>
</trkpt>
<trkpt lat="49.64176177047193" lon="9.048286434262993">
<ele>400.4</ele>
<time>2024-05-10T11:48:40Z</time>
</trkpt>
<trkpt lat="49.64176554232836" lon="9.048261623829603">
<ele>400.2</ele>
<time>2024-05-10T11:48:41Z</time>
</trkpt>
<trkpt lat="49.64176939800382" lon="9.04822826385498">
<ele>400</ele>
<time>2024-05-10T11:48:42Z</time>
</trkpt>
<trkpt lat="49.6417770255357" lon="9.048198675736783">
<ele>399.8</ele>
<time>2024-05-10T11:48:43Z</time>
</trkpt>
<trkpt lat="49.6417770255357" lon="9.048159532248974">
<ele>399.4</ele>
<time>2024-05-10T11:48:44Z</time>
</trkpt>
<trkpt lat="49.64178465306759" lon="9.048118544742463">
<ele>399.2</ele>
<time>2024-05-10T11:48:45Z</time>
</trkpt>
<trkpt lat="49.641788424924016" lon="9.048073701560496">
<ele>399</ele>
<time>2024-05-10T11:48:46Z</time>
</trkpt>
<trkpt lat="49.641788424924016" lon="9.048036569729447">
<ele>398.6</ele>
<time>2024-05-10T11:48:47Z</time>
</trkpt>
<trkpt lat="49.64178465306759" lon="9.048000276088716">
<ele>398.4</ele>
<time>2024-05-10T11:48:48Z</time>
</trkpt>
<trkpt lat="49.6417770255357" lon="9.047961216419935">
<ele>398</ele>
<time>2024-05-10T11:48:49Z</time>
</trkpt>
<trkpt lat="49.64176554232836" lon="9.047926850616932">
<ele>397.6</ele>
<time>2024-05-10T11:48:50Z</time>
</trkpt>
<trkpt lat="49.641750287264585" lon="9.04789541848004">
<ele>397.2</ele>
<time>2024-05-10T11:48:51Z</time>
</trkpt>
<trkpt lat="49.64173888787627" lon="9.047862980514765">
<ele>397</ele>
<time>2024-05-10T11:48:52Z</time>
</trkpt>
<trkpt lat="49.6417236328125" lon="9.047826686874032">
<ele>396.6</ele>
<time>2024-05-10T11:48:53Z</time>
</trkpt>
<trkpt lat="49.641708293929696" lon="9.047789555042982">
<ele>396.2</ele>
<time>2024-05-10T11:48:54Z</time>
</trkpt>
<trkpt lat="49.64169689454138" lon="9.047750411555173">
<ele>395.6</ele>
<time>2024-05-10T11:48:55Z</time>
</trkpt>
<trkpt lat="49.64168541133404" lon="9.047711351886392">
<ele>395.4</ele>
<time>2024-05-10T11:48:56Z</time>
</trkpt>
<trkpt lat="49.641674011945724" lon="9.047670364379885">
<ele>394.8</ele>
<time>2024-05-10T11:48:57Z</time>
</trkpt>
<trkpt lat="49.64166638441384" lon="9.0476331487298">
<ele>394.4</ele>
<time>2024-05-10T11:48:58Z</time>
</trkpt>
<trkpt lat="49.641651129350066" lon="9.047588305547832">
<ele>394</ele>
<time>2024-05-10T11:48:59Z</time>
</trkpt>
<trkpt lat="49.64163964614272" lon="9.047541618347168">
<ele>393.4</ele>
<time>2024-05-10T11:49:00Z</time>
</trkpt>
<trkpt lat="49.64162439107895" lon="9.047505324706435">
<ele>393</ele>
<time>2024-05-10T11:49:01Z</time>
</trkpt>
<trkpt lat="49.64160913601518" lon="9.04745863750577">
<ele>392.6</ele>
<time>2024-05-10T11:49:02Z</time>
</trkpt>
<trkpt lat="49.64159010909498" lon="9.047409938648345">
<ele>392</ele>
<time>2024-05-10T11:49:03Z</time>
</trkpt>
<trkpt lat="49.641574854031205" lon="9.047361323609948">
<ele>391.6</ele>
<time>2024-05-10T11:49:04Z</time>
</trkpt>
<trkpt lat="49.641555743291974" lon="9.04732033610344">
<ele>391.2</ele>
<time>2024-05-10T11:49:05Z</time>
</trkpt>
<trkpt lat="49.64153663255274" lon="9.04727834276855">
<ele>390.8</ele>
<time>2024-05-10T11:49:06Z</time>
</trkpt>
<trkpt lat="49.641517605632544" lon="9.047233499586582">
<ele>390.2</ele>
<time>2024-05-10T11:49:07Z</time>
</trkpt>
<trkpt lat="49.64150235056877" lon="9.047195361927152">
<ele>389.6</ele>
<time>2024-05-10T11:49:08Z</time>
</trkpt>
<trkpt lat="49.64147946797311" lon="9.047166779637337">
<ele>389</ele>
<time>2024-05-10T11:49:09Z</time>
</trkpt>
<trkpt lat="49.64146035723388" lon="9.047129563987257">
<ele>388.4</ele>
<time>2024-05-10T11:49:10Z</time>
</trkpt>
<trkpt lat="49.641452729702" lon="9.047096204012632">
<ele>387.8</ele>
<time>2024-05-10T11:49:11Z</time>
</trkpt>
<trkpt lat="49.64144510217011" lon="9.04706477187574">
<ele>387</ele>
<time>2024-05-10T11:49:12Z</time>
</trkpt>
<trkpt lat="49.6414337027818" lon="9.04704373329878">
<ele>386.4</ele>
<time>2024-05-10T11:49:13Z</time>
</trkpt>
<trkpt lat="49.641414592042565" lon="9.047011295333505">
<ele>385.8</ele>
<time>2024-05-10T11:49:14Z</time>
</trkpt>
<trkpt lat="49.64139933697879" lon="9.046973157674074">
<ele>385.2</ele>
<time>2024-05-10T11:49:15Z</time>
</trkpt>
<trkpt lat="49.641380310058594" lon="9.046926470473409">
<ele>384.6</ele>
<time>2024-05-10T11:49:16Z</time>
</trkpt>
<trkpt lat="49.64136497117579" lon="9.046874921768904">
<ele>384</ele>
<time>2024-05-10T11:49:17Z</time>
</trkpt>
<trkpt lat="49.64134594425559" lon="9.046819685027003">
<ele>383.6</ele>
<time>2024-05-10T11:49:18Z</time>
</trkpt>
<trkpt lat="49.64133068919182" lon="9.046778613701465">
<ele>383.2</ele>
<time>2024-05-10T11:49:19Z</time>
</trkpt>
<trkpt lat="49.6413039509207" lon="9.04672329314053">
<ele>382.8</ele>
<time>2024-05-10T11:49:20Z</time>
</trkpt>
<trkpt lat="49.64127344079316" lon="9.04666512273252">
<ele>382.4</ele>
<time>2024-05-10T11:49:21Z</time>
</trkpt>
<trkpt lat="49.64124293066561" lon="9.046600330621004">
<ele>381.8</ele>
<time>2024-05-10T11:49:22Z</time>
</trkpt>
<trkpt lat="49.64121242053807" lon="9.046516343951224">
<ele>381.2</ele>
<time>2024-05-10T11:49:23Z</time>
</trkpt>
<trkpt lat="49.641197165474296" lon="9.046436296775935">
<ele>380.6</ele>
<time>2024-05-10T11:49:24Z</time>
</trkpt>
<trkpt lat="49.64118568226695" lon="9.046346610412002">
<ele>380.2</ele>
<time>2024-05-10T11:49:25Z</time>
</trkpt>
<trkpt lat="49.64117042720318" lon="9.046261785551906">
<ele>379.8</ele>
<time>2024-05-10T11:49:26Z</time>
</trkpt>
<trkpt lat="49.64116279967129" lon="9.046188276261091">
<ele>379.2</ele>
<time>2024-05-10T11:49:27Z</time>
</trkpt>
<trkpt lat="49.64114377275109" lon="9.046119628474116">
<ele>378.6</ele>
<time>2024-05-10T11:49:28Z</time>
</trkpt>
<trkpt lat="49.64113228954375" lon="9.046041425317526">
<ele>378</ele>
<time>2024-05-10T11:49:29Z</time>
</trkpt>
<trkpt lat="49.641120890155435" lon="9.0459736995399">
<ele>377.2</ele>
<time>2024-05-10T11:49:30Z</time>
</trkpt>
<trkpt lat="49.64110563509166" lon="9.045883174985647">
<ele>376.6</ele>
<time>2024-05-10T11:49:31Z</time>
</trkpt>
<trkpt lat="49.64108652435243" lon="9.045800194144247">
<ele>375.8</ele>
<time>2024-05-10T11:49:32Z</time>
</trkpt>
<trkpt lat="49.64106364175677" lon="9.04571620747447">
<ele>375.2</ele>
<time>2024-05-10T11:49:33Z</time>
</trkpt>
<trkpt lat="49.64105601422489" lon="9.04561704955995">
<ele>374.6</ele>
<time>2024-05-10T11:49:34Z</time>
</trkpt>
<trkpt lat="49.641044614836574" lon="9.045515041798351">
<ele>374</ele>
<time>2024-05-10T11:49:35Z</time>
</trkpt>
<trkpt lat="49.64103313162923" lon="9.045418733730912">
<ele>373.4</ele>
<time>2024-05-10T11:49:36Z</time>
</trkpt>
<trkpt lat="49.64102550409734" lon="9.04532527551055">
<ele>372.8</ele>
<time>2024-05-10T11:49:37Z</time>
</trkpt>
<trkpt lat="49.64101402089" lon="9.045236511155965">
<ele>372.2</ele>
<time>2024-05-10T11:49:38Z</time>
</trkpt>
<trkpt lat="49.64100262150168" lon="9.04514690861106">
<ele>371.6</ele>
<time>2024-05-10T11:49:39Z</time>
</trkpt>
<trkpt lat="49.6409949939698" lon="9.04506677761674">
<ele>371</ele>
<time>2024-05-10T11:49:40Z</time>
</trkpt>
<trkpt lat="49.64098736643791" lon="9.044991424307227">
<ele>370.6</ele>
<time>2024-05-10T11:49:41Z</time>
</trkpt>
<trkpt lat="49.64098351076245" lon="9.044917076826096">
<ele>370</ele>
<time>2024-05-10T11:49:42Z</time>
</trkpt>
<trkpt lat="49.64097588323057" lon="9.044843651354311">
<ele>369.4</ele>
<time>2024-05-10T11:49:43Z</time>
</trkpt>
<trkpt lat="49.64096825569868" lon="9.044766370207071">
<ele>368.8</ele>
<time>2024-05-10T11:49:44Z</time>
</trkpt>
<trkpt lat="49.640964483842254" lon="9.044694872573018">
<ele>368.4</ele>
<time>2024-05-10T11:49:45Z</time>
</trkpt>
<trkpt lat="49.64095685631037" lon="9.044626224786043">
<ele>367.8</ele>
<time>2024-05-10T11:49:46Z</time>
</trkpt>
<trkpt lat="49.640941601246595" lon="9.044558499008415">
<ele>367.4</ele>
<time>2024-05-10T11:49:47Z</time>
</trkpt>
<trkpt lat="49.64093397371471" lon="9.044481217861176">
<ele>366.8</ele>
<time>2024-05-10T11:49:48Z</time>
</trkpt>
<trkpt lat="49.64092634618282" lon="9.044402092695236">
<ele>366.4</ele>
<time>2024-05-10T11:49:49Z</time>
</trkpt>
<trkpt lat="49.64091871865094" lon="9.044322967529297">
<ele>365.8</ele>
<time>2024-05-10T11:49:50Z</time>
</trkpt>
<trkpt lat="49.64091486297548" lon="9.04425809159875">
<ele>365.4</ele>
<time>2024-05-10T11:49:51Z</time>
</trkpt>
<trkpt lat="49.64091871865094" lon="9.044186510145664">
<ele>364.8</ele>
<time>2024-05-10T11:49:52Z</time>
</trkpt>
<trkpt lat="49.64092249050736" lon="9.04411694034934">
<ele>364.2</ele>
<time>2024-05-10T11:49:53Z</time>
</trkpt>
<trkpt lat="49.64091871865094" lon="9.0440568421036">
<ele>363.6</ele>
<time>2024-05-10T11:49:54Z</time>
</trkpt>
<trkpt lat="49.64091871865094" lon="9.043966233730316">
<ele>363.2</ele>
<time>2024-05-10T11:49:55Z</time>
</trkpt>
<trkpt lat="49.64091486297548" lon="9.043869925662875">
<ele>362.6</ele>
<time>2024-05-10T11:49:56Z</time>
</trkpt>
<trkpt lat="49.64091486297548" lon="9.043785016983747">
<ele>362.2</ele>
<time>2024-05-10T11:49:57Z</time>
</trkpt>
<trkpt lat="49.64091871865094" lon="9.043708741664886">
<ele>361.8</ele>
<time>2024-05-10T11:49:58Z</time>
</trkpt>
<trkpt lat="49.64092634618282" lon="9.043640093877912">
<ele>361.4</ele>
<time>2024-05-10T11:49:59Z</time>
</trkpt>
<trkpt lat="49.640941601246595" lon="9.043571446090937">
<ele>361</ele>
<time>2024-05-10T11:50:00Z</time>
</trkpt>
<trkpt lat="49.64095300063491" lon="9.043506570160387">
<ele>360.6</ele>
<time>2024-05-10T11:50:01Z</time>
</trkpt>
<trkpt lat="49.64096825569868" lon="9.043431216850877">
<ele>360.2</ele>
<time>2024-05-10T11:50:02Z</time>
</trkpt>
<trkpt lat="49.64097211137414" lon="9.043354941532016">
<ele>359.8</ele>
<time>2024-05-10T11:50:03Z</time>
</trkpt>
<trkpt lat="49.64098736643791" lon="9.04328528791666">
<ele>359.4</ele>
<time>2024-05-10T11:50:04Z</time>
</trkpt>
<trkpt lat="49.640998765826225" lon="9.04320809058845">
<ele>359.2</ele>
<time>2024-05-10T11:50:05Z</time>
</trkpt>
<trkpt lat="49.64101024903357" lon="9.04312988743186">
<ele>358.8</ele>
<time>2024-05-10T11:50:06Z</time>
</trkpt>
<trkpt lat="49.64102550409734" lon="9.043053612113">
<ele>358.4</ele>
<time>2024-05-10T11:50:07Z</time>
</trkpt>
<trkpt lat="49.641040759161115" lon="9.042983036488296">
<ele>358.2</ele>
<time>2024-05-10T11:50:08Z</time>
</trkpt>
<trkpt lat="49.641048386693" lon="9.042920088395476">
<ele>358</ele>
<time>2024-05-10T11:50:09Z</time>
</trkpt>
<trkpt lat="49.641059869900346" lon="9.042856134474276">
<ele>357.8</ele>
<time>2024-05-10T11:50:10Z</time>
</trkpt>
<trkpt lat="49.64107512496412" lon="9.042799891903996">
<ele>357.4</ele>
<time>2024-05-10T11:50:11Z</time>
</trkpt>
<trkpt lat="49.641082752496" lon="9.042751276865602">
<ele>357.2</ele>
<time>2024-05-10T11:50:12Z</time>
</trkpt>
<trkpt lat="49.64109038002789" lon="9.0427150670439">
<ele>357</ele>
<time>2024-05-10T11:50:13Z</time>
</trkpt>
<trkpt lat="49.64110940694809" lon="9.042679779231548">
<ele>357</ele>
<time>2024-05-10T11:50:14Z</time>
</trkpt>
<trkpt lat="49.641117034479976" lon="9.042638707906008">
<ele>356.8</ele>
<time>2024-05-10T11:50:15Z</time>
</trkpt>
<trkpt lat="49.64112466201186" lon="9.042592942714691">
<ele>356.8</ele>
<time>2024-05-10T11:50:16Z</time>
</trkpt>
<trkpt lat="49.64112851768732" lon="9.042551955208182">
<ele>356.6</ele>
<time>2024-05-10T11:50:17Z</time>
</trkpt>
<trkpt lat="49.64113228954375" lon="9.0425147395581">
<ele>356.6</ele>
<time>2024-05-10T11:50:18Z</time>
</trkpt>
<trkpt lat="49.641139917075634" lon="9.042486157268286">
<ele>356.6</ele>
<time>2024-05-10T11:50:19Z</time>
</trkpt>
<trkpt lat="49.64114754460752" lon="9.04245656915009">
<ele>356.4</ele>
<time>2024-05-10T11:50:20Z</time>
</trkpt>
<trkpt lat="49.641155172139406" lon="9.042426981031896">
<ele>356.4</ele>
<time>2024-05-10T11:50:21Z</time>
</trkpt>
<trkpt lat="49.641159027814865" lon="9.042394626885653">
<ele>356.2</ele>
<time>2024-05-10T11:50:22Z</time>
</trkpt>
<trkpt lat="49.64116665534675" lon="9.042373588308692">
<ele>356.2</ele>
<time>2024-05-10T11:50:23Z</time>
</trkpt>
<trkpt lat="49.64116665534675" lon="9.042341150343418">
<ele>356</ele>
<time>2024-05-10T11:50:24Z</time>
</trkpt>
<trkpt lat="49.641159027814865" lon="9.042308796197176">
<ele>356</ele>
<time>2024-05-10T11:50:25Z</time>
</trkpt>
<trkpt lat="49.64116279967129" lon="9.04228013008833">
<ele>355.8</ele>
<time>2024-05-10T11:50:26Z</time>
</trkpt>
<trkpt lat="49.64116665534675" lon="9.042253475636244">
<ele>355.6</ele>
<time>2024-05-10T11:50:27Z</time>
</trkpt>
<trkpt lat="49.64117428287864" lon="9.042224809527395">
<ele>355.4</ele>
<time>2024-05-10T11:50:28Z</time>
</trkpt>
<trkpt lat="49.64118191041052" lon="9.04220192693174">
<ele>355.2</ele>
<time>2024-05-10T11:50:29Z</time>
</trkpt>
<trkpt lat="49.64119330979884" lon="9.042173344641924">
<ele>355</ele>
<time>2024-05-10T11:50:30Z</time>
</trkpt>
<trkpt lat="49.64121242053807" lon="9.042144762352107">
<ele>355</ele>
<time>2024-05-10T11:50:31Z</time>
</trkpt>
<trkpt lat="49.64122390374541" lon="9.042103691026568">
<ele>354.8</ele>
<time>2024-05-10T11:50:32Z</time>
</trkpt>
<trkpt lat="49.641239158809185" lon="9.042050298303366">
<ele>354.8</ele>
<time>2024-05-10T11:50:33Z</time>
</trkpt>
<trkpt lat="49.641258185729384" lon="9.041996905580165">
<ele>354.8</ele>
<time>2024-05-10T11:50:34Z</time>
</trkpt>
<trkpt lat="49.64127344079316" lon="9.041938735172153">
<ele>354.6</ele>
<time>2024-05-10T11:50:35Z</time>
</trkpt>
<trkpt lat="49.641300179064274" lon="9.041878636926413">
<ele>354.6</ele>
<time>2024-05-10T11:50:36Z</time>
</trkpt>
<trkpt lat="49.64131920598447" lon="9.041816694661977">
<ele>354.4</ele>
<time>2024-05-10T11:50:37Z</time>
</trkpt>
<trkpt lat="49.641338316723704" lon="9.041748046875">
<ele>354.4</ele>
<time>2024-05-10T11:50:38Z</time>
</trkpt>
<trkpt lat="49.64135357178748" lon="9.04168794862926">
<ele>354.4</ele>
<time>2024-05-10T11:50:39Z</time>
</trkpt>
<trkpt lat="49.64136497117579" lon="9.041631622239947">
<ele>354.2</ele>
<time>2024-05-10T11:50:40Z</time>
</trkpt>
<trkpt lat="49.641376454383135" lon="9.041576385498049">
<ele>354</ele>
<time>2024-05-10T11:50:41Z</time>
</trkpt>
<trkpt lat="49.64138793759048" lon="9.041518131271005">
<ele>353.8</ele>
<time>2024-05-10T11:50:42Z</time>
</trkpt>
<trkpt lat="49.64139933697879" lon="9.041458116844296">
<ele>353.6</ele>
<time>2024-05-10T11:50:43Z</time>
</trkpt>
<trkpt lat="49.641414592042565" lon="9.041397012770176">
<ele>353.4</ele>
<time>2024-05-10T11:50:44Z</time>
</trkpt>
<trkpt lat="49.64142984710634" lon="9.041326520964503">
<ele>353.2</ele>
<time>2024-05-10T11:50:45Z</time>
</trkpt>
<trkpt lat="49.64144895784557" lon="9.041254939511418">
<ele>353</ele>
<time>2024-05-10T11:50:46Z</time>
</trkpt>
<trkpt lat="49.641475612297654" lon="9.041181514039636">
<ele>352.6</ele>
<time>2024-05-10T11:50:47Z</time>
</trkpt>
<trkpt lat="49.64150235056877" lon="9.041101383045316">
<ele>352.2</ele>
<time>2024-05-10T11:50:48Z</time>
</trkpt>
<trkpt lat="49.64152900502086" lon="9.04101848602295">
<ele>351.8</ele>
<time>2024-05-10T11:50:49Z</time>
</trkpt>
<trkpt lat="49.641555743291974" lon="9.04093449935317">
<ele>351.4</ele>
<time>2024-05-10T11:50:50Z</time>
</trkpt>
<trkpt lat="49.64159010909498" lon="9.040851518511772">
<ele>351</ele>
<time>2024-05-10T11:50:51Z</time>
</trkpt>
<trkpt lat="49.64162824675441" lon="9.040749510750176">
<ele>350.6</ele>
<time>2024-05-10T11:50:52Z</time>
</trkpt>
<trkpt lat="49.641674011945724" lon="9.040653202682734">
<ele>350.2</ele>
<time>2024-05-10T11:50:53Z</time>
</trkpt>
<trkpt lat="49.64171592146158" lon="9.04056452214718">
<ele>349.8</ele>
<time>2024-05-10T11:50:54Z</time>
</trkpt>
<trkpt lat="49.64176177047193" lon="9.04048346914351">
<ele>349.4</ele>
<time>2024-05-10T11:50:55Z</time>
</trkpt>
<trkpt lat="49.64179990813136" lon="9.040409959852695">
<ele>349.2</ele>
<time>2024-05-10T11:50:56Z</time>
</trkpt>
<trkpt lat="49.64183804579079" lon="9.040334690362217">
<ele>348.8</ele>
<time>2024-05-10T11:50:57Z</time>
</trkpt>
<trkpt lat="49.64187995530665" lon="9.040254559367895">
<ele>348.4</ele>
<time>2024-05-10T11:50:58Z</time>
</trkpt>
<trkpt lat="49.641925804317" lon="9.040178284049034">
<ele>348</ele>
<time>2024-05-10T11:50:59Z</time>
</trkpt>
<trkpt lat="49.641971569508314" lon="9.040102930739522">
<ele>347.8</ele>
<time>2024-05-10T11:51:00Z</time>
</trkpt>
<trkpt lat="49.64201347902417" lon="9.04002950526774">
<ele>347.4</ele>
<time>2024-05-10T11:51:01Z</time>
</trkpt>
<trkpt lat="49.64205924421549" lon="9.039951302111149">
<ele>347</ele>
<time>2024-05-10T11:51:02Z</time>
</trkpt>
<trkpt lat="49.64209746569395" lon="9.03988835401833">
<ele>346.6</ele>
<time>2024-05-10T11:51:03Z</time>
</trkpt>
<trkpt lat="49.64213560335338" lon="9.03982825577259">
<ele>346.4</ele>
<time>2024-05-10T11:51:04Z</time>
</trkpt>
<trkpt lat="49.64216988533735" lon="9.03977008536458">
<ele>346</ele>
<time>2024-05-10T11:51:05Z</time>
</trkpt>
<trkpt lat="49.64221187867224" lon="9.03971191495657">
<ele>345.8</ele>
<time>2024-05-10T11:51:06Z</time>
</trkpt>
<trkpt lat="49.642246244475245" lon="9.039648044854404">
<ele>345.6</ele>
<time>2024-05-10T11:51:07Z</time>
</trkpt>
<trkpt lat="49.64228438213467" lon="9.039586940780282">
<ele>345.2</ele>
<time>2024-05-10T11:51:08Z</time>
</trkpt>
<trkpt lat="49.64231489226222" lon="9.039529776200652">
<ele>345</ele>
<time>2024-05-10T11:51:09Z</time>
</trkpt>
<trkpt lat="49.64235680177808" lon="9.039469677954912">
<ele>344.8</ele>
<time>2024-05-10T11:51:10Z</time>
</trkpt>
<trkpt lat="49.64239493943751" lon="9.039401952177286">
<ele>344.6</ele>
<time>2024-05-10T11:51:11Z</time>
</trkpt>
<trkpt lat="49.64244078844786" lon="9.039346631616354">
<ele>344.4</ele>
<time>2024-05-10T11:51:12Z</time>
</trkpt>
<trkpt lat="49.64248655363917" lon="9.039288461208344">
<ele>344</ele>
<time>2024-05-10T11:51:13Z</time>
</trkpt>
<trkpt lat="49.64253231883049" lon="9.03923506848514">
<ele>343.8</ele>
<time>2024-05-10T11:51:14Z</time>
</trkpt>
<trkpt lat="49.64257808402181" lon="9.039190225303171">
<ele>343.6</ele>
<time>2024-05-10T11:51:15Z</time>
</trkpt>
<trkpt lat="49.64262770488858" lon="9.039146387949586">
<ele>343.2</ele>
<time>2024-05-10T11:51:16Z</time>
</trkpt>
<trkpt lat="49.642681097611785" lon="9.039103472605348">
<ele>343</ele>
<time>2024-05-10T11:51:17Z</time>
</trkpt>
<trkpt lat="49.64273063465953" lon="9.039054857566953">
<ele>342.8</ele>
<time>2024-05-10T11:51:18Z</time>
</trkpt>
<trkpt lat="49.642780255526304" lon="9.039006158709526">
<ele>342.6</ele>
<time>2024-05-10T11:51:19Z</time>
</trkpt>
<trkpt lat="49.64283364824951" lon="9.038953771814704">
<ele>342.4</ele>
<time>2024-05-10T11:51:20Z</time>
</trkpt>
<trkpt lat="49.64288704097271" lon="9.03890130110085">
<ele>342</ele>
<time>2024-05-10T11:51:21Z</time>
</trkpt>
<trkpt lat="49.642936661839485" lon="9.038847908377647">
<ele>341.8</ele>
<time>2024-05-10T11:51:22Z</time>
</trkpt>
<trkpt lat="49.6429824270308" lon="9.038793509826064">
<ele>341.4</ele>
<time>2024-05-10T11:51:23Z</time>
</trkpt>
<trkpt lat="49.64302442036569" lon="9.03874204494059">
<ele>341.2</ele>
<time>2024-05-10T11:51:24Z</time>
</trkpt>
<trkpt lat="49.643093068152666" lon="9.03864473104477">
<ele>341</ele>
<time>2024-05-10T11:51:25Z</time>
</trkpt>
<trkpt lat="49.64312357828021" lon="9.038598043844104">
<ele>340.6</ele>
<time>2024-05-10T11:51:26Z</time>
</trkpt>
<trkpt lat="49.643157944083214" lon="9.038548422977328">
<ele>340.4</ele>
<time>2024-05-10T11:51:28Z</time>
</trkpt>
<trkpt lat="49.64318845421076" lon="9.038495030254126">
<ele>340</ele>
<time>2024-05-10T11:51:29Z</time>
</trkpt>
<trkpt lat="49.6432189643383" lon="9.038430154323578">
<ele>339.6</ele>
<time>2024-05-10T11:51:30Z</time>
</trkpt>
<trkpt lat="49.64324947446585" lon="9.038354801014066">
<ele>339.2</ele>
<time>2024-05-10T11:51:31Z</time>
</trkpt>
<trkpt lat="49.64327621273696" lon="9.038274753838778">
<ele>338.8</ele>
<time>2024-05-10T11:51:32Z</time>
</trkpt>
<trkpt lat="49.64329909533262" lon="9.03819177299738">
<ele>338.4</ele>
<time>2024-05-10T11:51:33Z</time>
</trkpt>
<trkpt lat="49.64332197792828" lon="9.038104936480522">
<ele>338.2</ele>
<time>2024-05-10T11:51:34Z</time>
</trkpt>
<trkpt lat="49.64334486052394" lon="9.038022039458156">
<ele>337.8</ele>
<time>2024-05-10T11:51:35Z</time>
</trkpt>
<trkpt lat="49.64336011558771" lon="9.037939980626106">
<ele>337.4</ele>
<time>2024-05-10T11:51:36Z</time>
</trkpt>
<trkpt lat="49.643371514976025" lon="9.037864627316594">
<ele>337.2</ele>
<time>2024-05-10T11:51:37Z</time>
</trkpt>
<trkpt lat="49.64338299818337" lon="9.037786424160004">
<ele>337</ele>
<time>2024-05-10T11:51:38Z</time>
</trkpt>
<trkpt lat="49.6433867700398" lon="9.037706293165684">
<ele>336.8</ele>
<time>2024-05-10T11:51:39Z</time>
</trkpt>
<trkpt lat="49.64339439757168" lon="9.037631945684552">
<ele>336.4</ele>
<time>2024-05-10T11:51:40Z</time>
</trkpt>
<trkpt lat="49.64339825324714" lon="9.03755659237504">
<ele>336</ele>
<time>2024-05-10T11:51:41Z</time>
</trkpt>
<trkpt lat="49.64340202510357" lon="9.037474617362022">
<ele>335.6</ele>
<time>2024-05-10T11:51:42Z</time>
</trkpt>
<trkpt lat="49.64339825324714" lon="9.037396414205432">
<ele>335.2</ele>
<time>2024-05-10T11:51:43Z</time>
</trkpt>
<trkpt lat="49.64339825324714" lon="9.037321982905269">
<ele>335</ele>
<time>2024-05-10T11:51:44Z</time>
</trkpt>
<trkpt lat="49.64339825324714" lon="9.037255262956023">
<ele>334.6</ele>
<time>2024-05-10T11:51:45Z</time>
</trkpt>
<trkpt lat="49.64339439757168" lon="9.037190387025476">
<ele>334.2</ele>
<time>2024-05-10T11:51:46Z</time>
</trkpt>
<trkpt lat="49.64339825324714" lon="9.0371217392385">
<ele>333.8</ele>
<time>2024-05-10T11:51:47Z</time>
</trkpt>
<trkpt lat="49.64339439757168" lon="9.037056863307953">
<ele>333.4</ele>
<time>2024-05-10T11:51:48Z</time>
</trkpt>
<trkpt lat="49.64339825324714" lon="9.036986287683249">
<ele>333</ele>
<time>2024-05-10T11:51:49Z</time>
</trkpt>
<trkpt lat="49.64339825324714" lon="9.036919567734005">
<ele>332.6</ele>
<time>2024-05-10T11:51:50Z</time>
</trkpt>
<trkpt lat="49.64339439757168" lon="9.036849914118648">
<ele>332.2</ele>
<time>2024-05-10T11:51:51Z</time>
</trkpt>
<trkpt lat="49.64339825324714" lon="9.036778416484594">
<ele>331.8</ele>
<time>2024-05-10T11:51:52Z</time>
</trkpt>
<trkpt lat="49.64340202510357" lon="9.036704991012812">
<ele>331.4</ele>
<time>2024-05-10T11:51:53Z</time>
</trkpt>
<trkpt lat="49.64340588077903" lon="9.036635337397456">
<ele>331.2</ele>
<time>2024-05-10T11:51:54Z</time>
</trkpt>
<trkpt lat="49.64341728016734" lon="9.036561911925672">
<ele>330.8</ele>
<time>2024-05-10T11:51:55Z</time>
</trkpt>
<trkpt lat="49.643428763374686" lon="9.036477087065578">
<ele>330.4</ele>
<time>2024-05-10T11:51:56Z</time>
</trkpt>
<trkpt lat="49.64344401843846" lon="9.036388322710993">
<ele>330.2</ele>
<time>2024-05-10T11:51:57Z</time>
</trkpt>
<trkpt lat="49.64346312917769" lon="9.036294864490628">
<ele>329.8</ele>
<time>2024-05-10T11:51:58Z</time>
</trkpt>
<trkpt lat="49.64348601177335" lon="9.036203334107997">
<ele>329.6</ele>
<time>2024-05-10T11:51:59Z</time>
</trkpt>
<trkpt lat="49.64350126683712" lon="9.036113731563091">
<ele>329.6</ele>
<time>2024-05-10T11:52:00Z</time>
</trkpt>
<trkpt lat="49.643531776964664" lon="9.036013567820191">
<ele>329.6</ele>
<time>2024-05-10T11:52:01Z</time>
</trkpt>
<trkpt lat="49.64355843141675" lon="9.035926815122366">
<ele>329.4</ele>
<time>2024-05-10T11:52:02Z</time>
</trkpt>
<trkpt lat="49.64359656907618" lon="9.035836206749082">
<ele>329.4</ele>
<time>2024-05-10T11:52:03Z</time>
</trkpt>
<trkpt lat="49.64362716302276" lon="9.035753225907683">
<ele>329.4</ele>
<time>2024-05-10T11:52:04Z</time>
</trkpt>
<trkpt lat="49.64364618994296" lon="9.035677872598171">
<ele>329.2</ele>
<time>2024-05-10T11:52:05Z</time>
</trkpt>
<trkpt lat="49.643688183277845" lon="9.035605369135736">
<ele>329.4</ele>
<time>2024-05-10T11:52:06Z</time>
</trkpt>
<trkpt lat="49.64378356933594" lon="9.035458518192172">
<ele>329.6</ele>
<time>2024-05-10T11:52:08Z</time>
</trkpt>
<trkpt lat="49.64383310638368" lon="9.035378387197852">
<ele>329.6</ele>
<time>2024-05-10T11:52:09Z</time>
</trkpt>
<trkpt lat="49.64388272725046" lon="9.035300184041262">
<ele>329.6</ele>
<time>2024-05-10T11:52:10Z</time>
</trkpt>
<trkpt lat="49.64392849244177" lon="9.03522675856948">
<ele>329.6</ele>
<time>2024-05-10T11:52:11Z</time>
</trkpt>
<trkpt lat="49.64397048577666" lon="9.035158110782504">
<ele>329.4</ele>
<time>2024-05-10T11:52:12Z</time>
</trkpt>
<trkpt lat="49.64401239529252" lon="9.035093234851956">
<ele>329.2</ele>
<time>2024-05-10T11:52:13Z</time>
</trkpt>
<trkpt lat="49.64405816048384" lon="9.035023665055633">
<ele>329</ele>
<time>2024-05-10T11:52:14Z</time>
</trkpt>
<trkpt lat="49.64410778135061" lon="9.034959711134434">
<ele>328.8</ele>
<time>2024-05-10T11:52:15Z</time>
</trkpt>
<trkpt lat="49.6441497746855" lon="9.034906318411233">
<ele>328.2</ele>
<time>2024-05-10T11:52:16Z</time>
</trkpt>
<trkpt lat="49.644199311733246" lon="9.034854853525758">
<ele>327.6</ele>
<time>2024-05-10T11:52:17Z</time>
</trkpt>
<trkpt lat="49.644241305068135" lon="9.034805232658982">
<ele>326.8</ele>
<time>2024-05-10T11:52:18Z</time>
</trkpt>
<trkpt lat="49.6442985534668" lon="9.034763323143125">
<ele>326.2</ele>
<time>2024-05-10T11:52:19Z</time>
</trkpt>
<trkpt lat="49.64435571804643" lon="9.034709930419922">
<ele>325.6</ele>
<time>2024-05-10T11:52:20Z</time>
</trkpt>
<trkpt lat="49.64441673830152" lon="9.034667015075684">
<ele>325.2</ele>
<time>2024-05-10T11:52:21Z</time>
</trkpt>
<trkpt lat="49.64447784237563" lon="9.034641198813915">
<ele>324.6</ele>
<time>2024-05-10T11:52:22Z</time>
</trkpt>
<trkpt lat="49.64454649016261" lon="9.034623093903065">
<ele>324</ele>
<time>2024-05-10T11:52:23Z</time>
</trkpt>
<trkpt lat="49.644615137949586" lon="9.034621166065335">
<ele>323.4</ele>
<time>2024-05-10T11:52:24Z</time>
</trkpt>
<trkpt lat="49.64467238634825" lon="9.034623093903065">
<ele>322.8</ele>
<time>2024-05-10T11:52:25Z</time>
</trkpt>
<trkpt lat="49.64472577907145" lon="9.034638348966835">
<ele>322.2</ele>
<time>2024-05-10T11:52:26Z</time>
</trkpt>
<trkpt lat="49.64477917179465" lon="9.034673636779187">
<ele>321.6</ele>
<time>2024-05-10T11:52:27Z</time>
</trkpt>
<trkpt lat="49.644832564517856" lon="9.034723257645965">
<ele>321.2</ele>
<time>2024-05-10T11:52:28Z</time>
</trkpt>
<trkpt lat="49.64488595724106" lon="9.034792827442288">
<ele>320.6</ele>
<time>2024-05-10T11:52:29Z</time>
</trkpt>
<trkpt lat="49.644935578107834" lon="9.034856781363487">
<ele>320.2</ele>
<time>2024-05-10T11:52:30Z</time>
</trkpt>
<trkpt lat="49.64498519897461" lon="9.034923501312733">
<ele>319.6</ele>
<time>2024-05-10T11:52:31Z</time>
</trkpt>
<trkpt lat="49.64504236355424" lon="9.034984521567822">
<ele>319.2</ele>
<time>2024-05-10T11:52:32Z</time>
</trkpt>
<trkpt lat="49.645091984421015" lon="9.035039842128754">
<ele>318.8</ele>
<time>2024-05-10T11:52:33Z</time>
</trkpt>
<trkpt lat="49.64514537714422" lon="9.035081835463645">
<ele>318.4</ele>
<time>2024-05-10T11:52:34Z</time>
</trkpt>
<trkpt lat="49.64520262554288" lon="9.035110417753458">
<ele>318</ele>
<time>2024-05-10T11:52:35Z</time>
</trkpt>
<trkpt lat="49.645267417654395" lon="9.035128522664309">
<ele>317.4</ele>
<time>2024-05-10T11:52:36Z</time>
</trkpt>
<trkpt lat="49.64532852172851" lon="9.035135228186846">
<ele>317</ele>
<time>2024-05-10T11:52:37Z</time>
</trkpt>
<trkpt lat="49.64539716951549" lon="9.035133300349116">
<ele>316.4</ele>
<time>2024-05-10T11:52:38Z</time>
</trkpt>
<trkpt lat="49.64545818977058" lon="9.035113267600536">
<ele>316</ele>
<time>2024-05-10T11:52:39Z</time>
</trkpt>
<trkpt lat="49.64551921002567" lon="9.03507135808468">
<ele>315.6</ele>
<time>2024-05-10T11:52:40Z</time>
</trkpt>
<trkpt lat="49.64557260274887" lon="9.035017965361476">
<ele>315.4</ele>
<time>2024-05-10T11:52:41Z</time>
</trkpt>
<trkpt lat="49.64561836794019" lon="9.034955017268658">
<ele>315</ele>
<time>2024-05-10T11:52:42Z</time>
</trkpt>
<trkpt lat="49.64565273374319" lon="9.034899696707726">
<ele>314.8</ele>
<time>2024-05-10T11:52:43Z</time>
</trkpt>
<trkpt lat="49.645683243870735" lon="9.0348319709301">
<ele>314.4</ele>
<time>2024-05-10T11:52:44Z</time>
</trkpt>
<trkpt lat="49.64571760967374" lon="9.034763323143125">
<ele>314.2</ele>
<time>2024-05-10T11:52:45Z</time>
</trkpt>
<trkpt lat="49.64575574733317" lon="9.034693669527767">
<ele>314</ele>
<time>2024-05-10T11:52:46Z</time>
</trkpt>
<trkpt lat="49.645801512524486" lon="9.034626949578524">
<ele>313.6</ele>
<time>2024-05-10T11:52:47Z</time>
</trkpt>
<trkpt lat="49.64583579450846" lon="9.034531563520432">
<ele>313.2</ele>
<time>2024-05-10T11:52:48Z</time>
</trkpt>
<trkpt lat="49.64587778784335" lon="9.03443617746234">
<ele>312.8</ele>
<time>2024-05-10T11:52:49Z</time>
</trkpt>
<trkpt lat="49.64591215364635" lon="9.034351268783212">
<ele>312.4</ele>
<time>2024-05-10T11:52:50Z</time>
</trkpt>
<trkpt lat="49.64594643563032" lon="9.034264516085386">
<ele>312.2</ele>
<time>2024-05-10T11:52:51Z</time>
</trkpt>
<trkpt lat="49.645980801433325" lon="9.03417675755918">
<ele>311.8</ele>
<time>2024-05-10T11:52:52Z</time>
</trkpt>
<trkpt lat="49.64601516723633" lon="9.034083299338818">
<ele>311.4</ele>
<time>2024-05-10T11:52:53Z</time>
</trkpt>
<trkpt lat="49.6460494492203" lon="9.033991768956184">
<ele>311</ele>
<time>2024-05-10T11:52:54Z</time>
</trkpt>
<trkpt lat="49.6460838150233" lon="9.033893533051014">
<ele>310.6</ele>
<time>2024-05-10T11:52:55Z</time>
</trkpt>
<trkpt lat="49.64611046947539" lon="9.033786747604609">
<ele>310.2</ele>
<time>2024-05-10T11:52:56Z</time>
</trkpt>
<trkpt lat="49.64614483527839" lon="9.033678034320474">
<ele>310</ele>
<time>2024-05-10T11:52:57Z</time>
</trkpt>
<trkpt lat="49.646175345405936" lon="9.033575020730495">
<ele>309.6</ele>
<time>2024-05-10T11:52:58Z</time>
</trkpt>
<trkpt lat="49.64620971120894" lon="9.033479634672403">
<ele>309.2</ele>
<time>2024-05-10T11:52:59Z</time>
</trkpt>
<trkpt lat="49.64624784886837" lon="9.033391876146196">
<ele>308.6</ele>
<time>2024-05-10T11:53:00Z</time>
</trkpt>
<trkpt lat="49.64628975838423" lon="9.03330990113318">
<ele>308.2</ele>
<time>2024-05-10T11:53:01Z</time>
</trkpt>
<trkpt lat="49.64633175171912" lon="9.03322692029178">
<ele>307.8</ele>
<time>2024-05-10T11:53:02Z</time>
</trkpt>
<trkpt lat="49.64637374505401" lon="9.033140167593956">
<ele>307.2</ele>
<time>2024-05-10T11:53:03Z</time>
</trkpt>
<trkpt lat="49.64642328210175" lon="9.033056180924175">
<ele>306.8</ele>
<time>2024-05-10T11:53:04Z</time>
</trkpt>
<trkpt lat="49.646514812484384" lon="9.03289508074522">
<ele>306.4</ele>
<time>2024-05-10T11:53:05Z</time>
</trkpt>
<trkpt lat="49.64656443335116" lon="9.03281687758863">
<ele>306</ele>
<time>2024-05-10T11:53:07Z</time>
</trkpt>
<trkpt lat="49.64661019854248" lon="9.03273674659431">
<ele>305.6</ele>
<time>2024-05-10T11:53:08Z</time>
</trkpt>
<trkpt lat="49.64665596373379" lon="9.03265468776226">
<ele>305.2</ele>
<time>2024-05-10T11:53:09Z</time>
</trkpt>
<trkpt lat="49.64675520546734" lon="9.03249828144908">
<ele>304.8</ele>
<time>2024-05-10T11:53:10Z</time>
</trkpt>
<trkpt lat="49.64681622572243" lon="9.032413456588984">
<ele>304.2</ele>
<time>2024-05-10T11:53:12Z</time>
</trkpt>
<trkpt lat="49.646873474121094" lon="9.032333325594664">
<ele>303.8</ele>
<time>2024-05-10T11:53:13Z</time>
</trkpt>
<trkpt lat="49.6469268668443" lon="9.032257972285151">
<ele>303.4</ele>
<time>2024-05-10T11:53:14Z</time>
</trkpt>
<trkpt lat="49.6469802595675" lon="9.032186474651098">
<ele>303</ele>
<time>2024-05-10T11:53:15Z</time>
</trkpt>
<trkpt lat="49.64703742414713" lon="9.03212352655828">
<ele>302.4</ele>
<time>2024-05-10T11:53:16Z</time>
</trkpt>
<trkpt lat="49.64709852822125" lon="9.03206535615027">
<ele>302</ele>
<time>2024-05-10T11:53:17Z</time>
</trkpt>
<trkpt lat="49.64715569280088" lon="9.032011963427069">
<ele>301.6</ele>
<time>2024-05-10T11:53:18Z</time>
</trkpt>
<trkpt lat="49.647216796875" lon="9.031961420550942">
<ele>301.4</ele>
<time>2024-05-10T11:53:19Z</time>
</trkpt>
<trkpt lat="49.64727781713009" lon="9.031920433044434">
<ele>301</ele>
<time>2024-05-10T11:53:20Z</time>
</trkpt>
<trkpt lat="49.64736549183726" lon="9.031876511871817">
<ele>300.8</ele>
<time>2024-05-10T11:53:21Z</time>
</trkpt>
<trkpt lat="49.64743422344327" lon="9.03184692375362">
<ele>300.6</ele>
<time>2024-05-10T11:53:22Z</time>
</trkpt>
<trkpt lat="49.647502871230245" lon="9.031796380877497">
<ele>300.2</ele>
<time>2024-05-10T11:53:23Z</time>
</trkpt>
<trkpt lat="49.64757151901722" lon="9.031753465533257">
<ele>300</ele>
<time>2024-05-10T11:53:24Z</time>
</trkpt>
<trkpt lat="49.64763639494777" lon="9.031704850494862">
<ele>299.6</ele>
<time>2024-05-10T11:53:25Z</time>
</trkpt>
<trkpt lat="49.64770118705928" lon="9.031658163294196">
<ele>299.4</ele>
<time>2024-05-10T11:53:26Z</time>
</trkpt>
<trkpt lat="49.647758435457945" lon="9.031606614589691">
<ele>299.2</ele>
<time>2024-05-10T11:53:27Z</time>
</trkpt>
<trkpt lat="49.64781182818115" lon="9.03154844418168">
<ele>299</ele>
<time>2024-05-10T11:53:28Z</time>
</trkpt>
<trkpt lat="49.647857593372464" lon="9.03149027377367">
<ele>298.8</ele>
<time>2024-05-10T11:53:29Z</time>
</trkpt>
<trkpt lat="49.64790344238281" lon="9.031428331509233">
<ele>298.6</ele>
<time>2024-05-10T11:53:30Z</time>
</trkpt>
<trkpt lat="49.64795297943056" lon="9.031368233263493">
<ele>298.6</ele>
<time>2024-05-10T11:53:31Z</time>
</trkpt>
<trkpt lat="49.64801022782922" lon="9.031303357332945">
<ele>298.2</ele>
<time>2024-05-10T11:53:32Z</time>
</trkpt>
<trkpt lat="49.64805976487696" lon="9.031241415068507">
<ele>298</ele>
<time>2024-05-10T11:53:33Z</time>
</trkpt>
<trkpt lat="49.6481132414192" lon="9.031185088679194">
<ele>298</ele>
<time>2024-05-10T11:53:34Z</time>
</trkpt>
<trkpt lat="49.6481666341424" lon="9.031129768118262">
<ele>297.8</ele>
<time>2024-05-10T11:53:35Z</time>
</trkpt>
<trkpt lat="49.6482200268656" lon="9.03107444755733">
<ele>297.8</ele>
<time>2024-05-10T11:53:36Z</time>
</trkpt>
<trkpt lat="49.6482734195888" lon="9.031022060662508">
<ele>297.8</ele>
<time>2024-05-10T11:53:37Z</time>
</trkpt>
<trkpt lat="49.648330667987466" lon="9.030976295471191">
<ele>297.6</ele>
<time>2024-05-10T11:53:38Z</time>
</trkpt>
<trkpt lat="49.64838406071067" lon="9.030924746766686">
<ele>297.6</ele>
<time>2024-05-10T11:53:39Z</time>
</trkpt>
<trkpt lat="49.64844130910933" lon="9.030870432034137">
<ele>297.4</ele>
<time>2024-05-10T11:53:40Z</time>
</trkpt>
<trkpt lat="49.64849470183253" lon="9.03081988915801">
<ele>297.4</ele>
<time>2024-05-10T11:53:41Z</time>
</trkpt>
<trkpt lat="49.64854423888028" lon="9.030771190300584">
<ele>297.4</ele>
<time>2024-05-10T11:53:42Z</time>
</trkpt>
<trkpt lat="49.64860148727894" lon="9.030718803405762">
<ele>297.2</ele>
<time>2024-05-10T11:53:43Z</time>
</trkpt>
<trkpt lat="49.64866250753403" lon="9.030665326863527">
<ele>297.2</ele>
<time>2024-05-10T11:53:44Z</time>
</trkpt>
<trkpt lat="49.64871975593269" lon="9.030611934140325">
<ele>297</ele>
<time>2024-05-10T11:53:45Z</time>
</trkpt>
<trkpt lat="49.64877700433135" lon="9.030558541417122">
<ele>296.8</ele>
<time>2024-05-10T11:53:46Z</time>
</trkpt>
<trkpt lat="49.64883039705455" lon="9.030509926378729">
<ele>296.6</ele>
<time>2024-05-10T11:53:47Z</time>
</trkpt>
<trkpt lat="49.64888756163418" lon="9.03046315535903">
<ele>296.2</ele>
<time>2024-05-10T11:53:48Z</time>
</trkpt>
<trkpt lat="49.64894103817642" lon="9.030416468158364">
<ele>296</ele>
<time>2024-05-10T11:53:49Z</time>
</trkpt>
<trkpt lat="49.64899443089962" lon="9.030376402661204">
<ele>295.6</ele>
<time>2024-05-10T11:53:50Z</time>
</trkpt>
<trkpt lat="49.64904782362282" lon="9.030331559479237">
<ele>295.4</ele>
<time>2024-05-10T11:53:51Z</time>
</trkpt>
<trkpt lat="49.649101216346025" lon="9.030309598892927">
<ele>295.2</ele>
<time>2024-05-10T11:53:52Z</time>
</trkpt>
<trkpt lat="49.64917371980846" lon="9.03028193861246">
<ele>295</ele>
<time>2024-05-10T11:53:53Z</time>
</trkpt>
<trkpt lat="49.64924999512732" lon="9.030244806781411">
<ele>294.8</ele>
<time>2024-05-10T11:53:54Z</time>
</trkpt>
<trkpt lat="49.649322498589754" lon="9.03022955171764">
<ele>294.6</ele>
<time>2024-05-10T11:53:55Z</time>
</trkpt>
<trkpt lat="49.64938351884484" lon="9.030221924185753">
<ele>294.4</ele>
<time>2024-05-10T11:53:56Z</time>
</trkpt>
<trkpt lat="49.64944453909993" lon="9.030221924185753">
<ele>294.4</ele>
<time>2024-05-10T11:53:57Z</time>
</trkpt>
<trkpt lat="49.64951318688691" lon="9.030224774032831">
<ele>294.2</ele>
<time>2024-05-10T11:53:58Z</time>
</trkpt>
<trkpt lat="49.64958569034934" lon="9.03022670187056">
<ele>294</ele>
<time>2024-05-10T11:53:59Z</time>
</trkpt>
<trkpt lat="49.64965056627989" lon="9.030231395736337">
<ele>293.8</ele>
<time>2024-05-10T11:54:00Z</time>
</trkpt>
<trkpt lat="49.64971535839141" lon="9.03024673461914">
<ele>293.2</ele>
<time>2024-05-10T11:54:01Z</time>
</trkpt>
<trkpt lat="49.64977637864649" lon="9.030264839529991">
<ele>293</ele>
<time>2024-05-10T11:54:02Z</time>
</trkpt>
<trkpt lat="49.64984125457704" lon="9.030288644134998">
<ele>292.6</ele>
<time>2024-05-10T11:54:03Z</time>
</trkpt>
<trkpt lat="49.64990227483213" lon="9.030311526730657">
<ele>292.4</ele>
<time>2024-05-10T11:54:04Z</time>
</trkpt>
<trkpt lat="49.64996337890625" lon="9.030331559479237">
<ele>292</ele>
<time>2024-05-10T11:54:05Z</time>
</trkpt>
<trkpt lat="49.65002439916134" lon="9.030355447903275">
<ele>291.8</ele>
<time>2024-05-10T11:54:06Z</time>
</trkpt>
<trkpt lat="49.650093046948314" lon="9.030376402661204">
<ele>291.4</ele>
<time>2024-05-10T11:54:07Z</time>
</trkpt>
<trkpt lat="49.6501540672034" lon="9.030398363247514">
<ele>291.2</ele>
<time>2024-05-10T11:54:08Z</time>
</trkpt>
<trkpt lat="49.65021894313395" lon="9.030407834798098">
<ele>291</ele>
<time>2024-05-10T11:54:09Z</time>
</trkpt>
<trkpt lat="49.65027996338904" lon="9.030416468158364">
<ele>291</ele>
<time>2024-05-10T11:54:10Z</time>
</trkpt>
<trkpt lat="49.65034483931959" lon="9.03042308986187">
<ele>290.8</ele>
<time>2024-05-10T11:54:11Z</time>
</trkpt>
<trkpt lat="49.65041348710656" lon="9.030414540320637">
<ele>290.8</ele>
<time>2024-05-10T11:54:12Z</time>
</trkpt>
<trkpt lat="49.65047836303711" lon="9.03040305711329">
<ele>290.6</ele>
<time>2024-05-10T11:54:13Z</time>
</trkpt>
<trkpt lat="49.650543155148625" lon="9.030386880040169">
<ele>290.6</ele>
<time>2024-05-10T11:54:14Z</time>
</trkpt>
<trkpt lat="49.65058892033994" lon="9.030358297750354">
<ele>290.4</ele>
<time>2024-05-10T11:54:15Z</time>
</trkpt>
<trkpt lat="49.650623286142945" lon="9.030326781794429">
<ele>290.4</ele>
<time>2024-05-10T11:54:16Z</time>
</trkpt>
<trkpt lat="49.65067667886615" lon="9.030288644134998">
<ele>290.2</ele>
<time>2024-05-10T11:54:17Z</time>
</trkpt>
<trkpt lat="49.650722444057465" lon="9.03024958446622">
<ele>290.2</ele>
<time>2024-05-10T11:54:18Z</time>
</trkpt>
<trkpt lat="49.65077206492424" lon="9.030202813446522">
<ele>290</ele>
<time>2024-05-10T11:54:19Z</time>
</trkpt>
<trkpt lat="49.650821685791016" lon="9.030155120417476">
<ele>290</ele>
<time>2024-05-10T11:54:20Z</time>
</trkpt>
<trkpt lat="49.650882706046104" lon="9.030103655532002">
<ele>290</ele>
<time>2024-05-10T11:54:21Z</time>
</trkpt>
<trkpt lat="49.65092461556196" lon="9.030055040493608">
<ele>290</ele>
<time>2024-05-10T11:54:22Z</time>
</trkpt>
<trkpt lat="49.65096660889685" lon="9.03001019731164">
<ele>290</ele>
<time>2024-05-10T11:54:23Z</time>
</trkpt>
<trkpt lat="49.65102385729551" lon="9.029958648607137">
<ele>289.8</ele>
<time>2024-05-10T11:54:24Z</time>
</trkpt>
<trkpt lat="49.65107339434326" lon="9.02990810573101">
<ele>289.8</ele>
<time>2024-05-10T11:54:25Z</time>
</trkpt>
<trkpt lat="49.65112678706646" lon="9.029865190386772">
<ele>289.8</ele>
<time>2024-05-10T11:54:26Z</time>
</trkpt>
<trkpt lat="49.651176407933235" lon="9.029818503186108">
<ele>289.8</ele>
<time>2024-05-10T11:54:27Z</time>
</trkpt>
<trkpt lat="49.651214545592666" lon="9.029778437688949">
<ele>289.8</ele>
<time>2024-05-10T11:54:28Z</time>
</trkpt>
<trkpt lat="49.651252683252096" lon="9.029741222038863">
<ele>289.8</ele>
<time>2024-05-10T11:54:29Z</time>
</trkpt>
<trkpt lat="49.651294676586986" lon="9.029703084379436">
<ele>289.8</ele>
<time>2024-05-10T11:54:30Z</time>
</trkpt>
<trkpt lat="49.651332814246416" lon="9.029664946720004">
<ele>289.8</ele>
<time>2024-05-10T11:54:31Z</time>
</trkpt>
<trkpt lat="49.65137095190585" lon="9.029629658907652">
<ele>289.8</ele>
<time>2024-05-10T11:54:32Z</time>
</trkpt>
<trkpt lat="49.65140908956528" lon="9.02959822677076">
<ele>289.8</ele>
<time>2024-05-10T11:54:33Z</time>
</trkpt>
<trkpt lat="49.65144722722471" lon="9.029564782977104">
<ele>289.8</ele>
<time>2024-05-10T11:54:34Z</time>
</trkpt>
<trkpt lat="49.65149684809148" lon="9.029526645317674">
<ele>289.8</ele>
<time>2024-05-10T11:54:35Z</time>
</trkpt>
<trkpt lat="49.651534985750914" lon="9.029501834884286">
<ele>289.8</ele>
<time>2024-05-10T11:54:36Z</time>
</trkpt>
<trkpt lat="49.65158075094223" lon="9.02947710826993">
<ele>289.8</ele>
<time>2024-05-10T11:54:37Z</time>
</trkpt>
<trkpt lat="49.651630371809006" lon="9.0294579975307">
<ele>289.8</ele>
<time>2024-05-10T11:54:38Z</time>
</trkpt>
<trkpt lat="49.65167999267578" lon="9.029444670304656">
<ele>289.6</ele>
<time>2024-05-10T11:54:39Z</time>
</trkpt>
<trkpt lat="49.651729529723525" lon="9.02943796478212">
<ele>289.4</ele>
<time>2024-05-10T11:54:40Z</time>
</trkpt>
<trkpt lat="49.65178292244673" lon="9.02943704277277">
<ele>289.4</ele>
<time>2024-05-10T11:54:41Z</time>
</trkpt>
<trkpt lat="49.65184017084539" lon="9.02943704277277">
<ele>289.2</ele>
<time>2024-05-10T11:54:42Z</time>
</trkpt>
<trkpt lat="49.65189356356859" lon="9.029443664476275">
<ele>289</ele>
<time>2024-05-10T11:54:43Z</time>
</trkpt>
<trkpt lat="49.651946956291795" lon="9.0294579975307">
<ele>288.8</ele>
<time>2024-05-10T11:54:44Z</time>
</trkpt>
<trkpt lat="49.652000349015" lon="9.029471324756742">
<ele>288.6</ele>
<time>2024-05-10T11:54:45Z</time>
</trkpt>
<trkpt lat="49.65206145308912" lon="9.029479958117008">
<ele>288.4</ele>
<time>2024-05-10T11:54:46Z</time>
</trkpt>
<trkpt lat="49.65213010087609" lon="9.029488507658243">
<ele>288.2</ele>
<time>2024-05-10T11:54:47Z</time>
</trkpt>
<trkpt lat="49.652206376194954" lon="9.029491357505322">
<ele>288</ele>
<time>2024-05-10T11:54:48Z</time>
</trkpt>
<trkpt lat="49.652286507189274" lon="9.02949806302786">
<ele>287.8</ele>
<time>2024-05-10T11:54:49Z</time>
</trkpt>
<trkpt lat="49.65237041004002" lon="9.029499990865588">
<ele>287.6</ele>
<time>2024-05-10T11:54:50Z</time>
</trkpt>
<trkpt lat="49.65244668535888" lon="9.02949613519013">
<ele>287.2</ele>
<time>2024-05-10T11:54:51Z</time>
</trkpt>
<trkpt lat="49.65251918882131" lon="9.029493285343053">
<ele>287</ele>
<time>2024-05-10T11:54:52Z</time>
</trkpt>
<trkpt lat="49.65259169228375" lon="9.02947710826993">
<ele>286.8</ele>
<time>2024-05-10T11:54:53Z</time>
</trkpt>
<trkpt lat="49.65266411192715" lon="9.029450369998813">
<ele>286.6</ele>
<time>2024-05-10T11:54:54Z</time>
</trkpt>
<trkpt lat="49.65274047106504" lon="9.029419859871268">
<ele>286.4</ele>
<time>2024-05-10T11:54:55Z</time>
</trkpt>
<trkpt lat="49.65280526317656" lon="9.029381722211838">
<ele>286.2</ele>
<time>2024-05-10T11:54:56Z</time>
</trkpt>
<trkpt lat="49.652877766638994" lon="9.02933780103922">
<ele>286</ele>
<time>2024-05-10T11:54:57Z</time>
</trkpt>
<trkpt lat="49.65294264256954" lon="9.029293041676285">
<ele>285.8</ele>
<time>2024-05-10T11:54:58Z</time>
</trkpt>
<trkpt lat="49.65299980714917" lon="9.02923671528697">
<ele>285.6</ele>
<time>2024-05-10T11:54:59Z</time>
</trkpt>
<trkpt lat="49.653053283691406" lon="9.029176700860262">
<ele>285.4</ele>
<time>2024-05-10T11:55:00Z</time>
</trkpt>
<trkpt lat="49.65309904888272" lon="9.029111824929714">
<ele>285.4</ele>
<time>2024-05-10T11:55:01Z</time>
</trkpt>
<trkpt lat="49.65314858593047" lon="9.02904317714274">
<ele>285.2</ele>
<time>2024-05-10T11:55:02Z</time>
</trkpt>
<trkpt lat="49.65319057926536" lon="9.028968745842576">
<ele>285</ele>
<time>2024-05-10T11:55:03Z</time>
</trkpt>
<trkpt lat="49.653232572600245" lon="9.028896326199174">
<ele>285</ele>
<time>2024-05-10T11:55:04Z</time>
</trkpt>
<trkpt lat="49.65327833779156" lon="9.028828600421548">
<ele>284.8</ele>
<time>2024-05-10T11:55:05Z</time>
</trkpt>
<trkpt lat="49.65332024730742" lon="9.028757018968465">
<ele>284.8</ele>
<time>2024-05-10T11:55:06Z</time>
</trkpt>
<trkpt lat="49.653369868174195" lon="9.028681749477984">
<ele>284.8</ele>
<time>2024-05-10T11:55:07Z</time>
</trkpt>
<trkpt lat="49.653411861509085" lon="9.028610168024898">
<ele>284.6</ele>
<time>2024-05-10T11:55:08Z</time>
</trkpt>
<trkpt lat="49.65345377102494" lon="9.028534814715384">
<ele>284.6</ele>
<time>2024-05-10T11:55:09Z</time>
</trkpt>
<trkpt lat="49.65349953621626" lon="9.028463317081332">
<ele>284.6</ele>
<time>2024-05-10T11:55:10Z</time>
</trkpt>
<trkpt lat="49.653545301407576" lon="9.028394669294356">
<ele>284.6</ele>
<time>2024-05-10T11:55:11Z</time>
</trkpt>
<trkpt lat="49.653587294742465" lon="9.02832979336381">
<ele>284.4</ele>
<time>2024-05-10T11:55:12Z</time>
</trkpt>
<trkpt lat="49.65363691560924" lon="9.02826969511807">
<ele>284.4</ele>
<time>2024-05-10T11:55:13Z</time>
</trkpt>
<trkpt lat="49.653686452656984" lon="9.028204903006554">
<ele>284.2</ele>
<time>2024-05-10T11:55:14Z</time>
</trkpt>
<trkpt lat="49.653728445991874" lon="9.028135249391198">
<ele>284</ele>
<time>2024-05-10T11:55:15Z</time>
</trkpt>
<trkpt lat="49.65377043932676" lon="9.028063751757143">
<ele>284</ele>
<time>2024-05-10T11:55:16Z</time>
</trkpt>
<trkpt lat="49.65381234884262" lon="9.027988398447633">
<ele>284</ele>
<time>2024-05-10T11:55:17Z</time>
</trkpt>
<trkpt lat="49.65385434217751" lon="9.027910195291042">
<ele>283.8</ele>
<time>2024-05-10T11:55:18Z</time>
</trkpt>
<trkpt lat="49.65389625169337" lon="9.027828136458991">
<ele>283.8</ele>
<time>2024-05-10T11:55:19Z</time>
</trkpt>
<trkpt lat="49.65393824502826" lon="9.027745239436626">
<ele>283.8</ele>
<time>2024-05-10T11:55:20Z</time>
</trkpt>
<trkpt lat="49.65397261083126" lon="9.027665108442308">
<ele>283.6</ele>
<time>2024-05-10T11:55:21Z</time>
</trkpt>
<trkpt lat="49.653999265283346" lon="9.02757827192545">
<ele>283.6</ele>
<time>2024-05-10T11:55:22Z</time>
</trkpt>
<trkpt lat="49.65402600355446" lon="9.027493447065352">
<ele>283.4</ele>
<time>2024-05-10T11:55:23Z</time>
</trkpt>
<trkpt lat="49.65405265800655" lon="9.027416165918112">
<ele>283.4</ele>
<time>2024-05-10T11:55:24Z</time>
</trkpt>
<trkpt lat="49.654083251953125" lon="9.027337040752172">
<ele>283.2</ele>
<time>2024-05-10T11:55:25Z</time>
</trkpt>
<trkpt lat="49.65410990640521" lon="9.027251210063696">
<ele>283</ele>
<time>2024-05-10T11:55:26Z</time>
</trkpt>
<trkpt lat="49.65413664467633" lon="9.02716345153749">
<ele>282.6</ele>
<time>2024-05-10T11:55:27Z</time>
</trkpt>
<trkpt lat="49.65416329912841" lon="9.027081476524472">
<ele>282.4</ele>
<time>2024-05-10T11:55:28Z</time>
</trkpt>
<trkpt lat="49.65419003739953" lon="9.026998495683074">
<ele>282</ele>
<time>2024-05-10T11:55:29Z</time>
</trkpt>
<trkpt lat="49.654220547527075" lon="9.026913587003946">
<ele>281.6</ele>
<time>2024-05-10T11:55:30Z</time>
</trkpt>
<trkpt lat="49.65424343012273" lon="9.026818200945854">
<ele>281.2</ele>
<time>2024-05-10T11:55:31Z</time>
</trkpt>
<trkpt lat="49.65427016839385" lon="9.02672667056322">
<ele>280.8</ele>
<time>2024-05-10T11:55:32Z</time>
</trkpt>
<trkpt lat="49.654300678521395" lon="9.026637068018315">
<ele>280.6</ele>
<time>2024-05-10T11:55:33Z</time>
</trkpt>
<trkpt lat="49.65433118864894" lon="9.02655023150146">
<ele>280.2</ele>
<time>2024-05-10T11:55:34Z</time>
</trkpt>
<trkpt lat="49.654357843101025" lon="9.026461550965903">
<ele>279.8</ele>
<time>2024-05-10T11:55:35Z</time>
</trkpt>
<trkpt lat="49.65438458137214" lon="9.026366164907811">
<ele>279.4</ele>
<time>2024-05-10T11:55:36Z</time>
</trkpt>
<trkpt lat="49.654415091499686" lon="9.026267929002644">
<ele>279</ele>
<time>2024-05-10T11:55:37Z</time>
</trkpt>
<trkpt lat="49.6544418297708" lon="9.02617639862001">
<ele>278.6</ele>
<time>2024-05-10T11:55:38Z</time>
</trkpt>
<trkpt lat="49.654479967430234" lon="9.02607816271484">
<ele>278.2</ele>
<time>2024-05-10T11:55:39Z</time>
</trkpt>
<trkpt lat="49.654518105089664" lon="9.025984704494476">
<ele>277.8</ele>
<time>2024-05-10T11:55:40Z</time>
</trkpt>
<trkpt lat="49.65456001460552" lon="9.025890324264765">
<ele>277.4</ele>
<time>2024-05-10T11:55:41Z</time>
</trkpt>
<trkpt lat="49.6546096354723" lon="9.025798793882132">
<ele>277</ele>
<time>2024-05-10T11:55:42Z</time>
</trkpt>
<trkpt lat="49.65464777313173" lon="9.02570147998631">
<ele>276.4</ele>
<time>2024-05-10T11:55:43Z</time>
</trkpt>
<trkpt lat="49.65468591079116" lon="9.02560324408114">
<ele>276</ele>
<time>2024-05-10T11:55:44Z</time>
</trkpt>
<trkpt lat="49.65472790412605" lon="9.025507858023047">
<ele>275.8</ele>
<time>2024-05-10T11:55:45Z</time>
</trkpt>
<trkpt lat="49.65476218611002" lon="9.025403000414371">
<ele>275.4</ele>
<time>2024-05-10T11:55:46Z</time>
</trkpt>
<trkpt lat="49.65479655191302" lon="9.025298058986664">
<ele>275.2</ele>
<time>2024-05-10T11:55:47Z</time>
</trkpt>
<trkpt lat="49.65482706204057" lon="9.025199823081492">
<ele>274.8</ele>
<time>2024-05-10T11:55:48Z</time>
</trkpt>
<trkpt lat="49.65486142784357" lon="9.025101587176325">
<ele>274.4</ele>
<time>2024-05-10T11:55:49Z</time>
</trkpt>
<trkpt lat="49.654899565503" lon="9.02501005679369">
<ele>274.2</ele>
<time>2024-05-10T11:55:50Z</time>
</trkpt>
<trkpt lat="49.65493770316243" lon="9.024923304095864">
<ele>274</ele>
<time>2024-05-10T11:55:51Z</time>
</trkpt>
<trkpt lat="49.65497584082186" lon="9.024836467579007">
<ele>273.8</ele>
<time>2024-05-10T11:55:52Z</time>
</trkpt>
<trkpt lat="49.65500635094941" lon="9.024748792871833">
<ele>273.6</ele>
<time>2024-05-10T11:55:53Z</time>
</trkpt>
<trkpt lat="49.655048344284296" lon="9.024669583886862">
<ele>273.4</ele>
<time>2024-05-10T11:55:54Z</time>
</trkpt>
<trkpt lat="49.65509788133204" lon="9.024598086252809">
<ele>273.2</ele>
<time>2024-05-10T11:55:55Z</time>
</trkpt>
<trkpt lat="49.65514373034239" lon="9.024524660781026">
<ele>273</ele>
<time>2024-05-10T11:55:56Z</time>
</trkpt>
<trkpt lat="49.65517801232636" lon="9.02443497441709">
<ele>272.8</ele>
<time>2024-05-10T11:55:57Z</time>
</trkpt>
<trkpt lat="49.65521614998579" lon="9.024352999404073">
<ele>272.6</ele>
<time>2024-05-10T11:55:58Z</time>
</trkpt>
<trkpt lat="49.65525814332068" lon="9.024274796247482">
<ele>272.4</ele>
<time>2024-05-10T11:55:59Z</time>
</trkpt>
<trkpt lat="49.65529250912368" lon="9.024194665253162">
<ele>272.4</ele>
<time>2024-05-10T11:56:00Z</time>
</trkpt>
<trkpt lat="49.65533064678311" lon="9.0241183899343">
<ele>272.2</ele>
<time>2024-05-10T11:56:01Z</time>
</trkpt>
<trkpt lat="49.655368784442544" lon="9.024036331102252">
<ele>272.2</ele>
<time>2024-05-10T11:56:02Z</time>
</trkpt>
<trkpt lat="49.65540306642651" lon="9.023949578404428">
<ele>272.2</ele>
<time>2024-05-10T11:56:03Z</time>
</trkpt>
<trkpt lat="49.655445059761405" lon="9.023873303085566">
<ele>272</ele>
<time>2024-05-10T11:56:04Z</time>
</trkpt>
<trkpt lat="49.655487053096294" lon="9.023797949776052">
<ele>271.8</ele>
<time>2024-05-10T11:56:05Z</time>
</trkpt>
<trkpt lat="49.65552896261215" lon="9.023726452142">
<ele>271.8</ele>
<time>2024-05-10T11:56:06Z</time>
</trkpt>
<trkpt lat="49.65557095594704" lon="9.023653026670218">
<ele>271.6</ele>
<time>2024-05-10T11:56:07Z</time>
</trkpt>
<trkpt lat="49.65561672113836" lon="9.023574823513629">
<ele>271.6</ele>
<time>2024-05-10T11:56:08Z</time>
</trkpt>
<trkpt lat="49.65565871447325" lon="9.023507097736">
<ele>271.6</ele>
<time>2024-05-10T11:56:09Z</time>
</trkpt>
<trkpt lat="49.655700623989105" lon="9.023434594273567">
<ele>271.6</ele>
<time>2024-05-10T11:56:10Z</time>
</trkpt>
<trkpt lat="49.65575024485588" lon="9.023356391116977">
<ele>271.4</ele>
<time>2024-05-10T11:56:11Z</time>
</trkpt>
<trkpt lat="49.65580363757908" lon="9.023278187960386">
<ele>271.4</ele>
<time>2024-05-10T11:56:12Z</time>
</trkpt>
<trkpt lat="49.655857030302286" lon="9.023204762488604">
<ele>271.4</ele>
<time>2024-05-10T11:56:13Z</time>
</trkpt>
<trkpt lat="49.65591427870095" lon="9.023137036710978">
<ele>271.2</ele>
<time>2024-05-10T11:56:14Z</time>
</trkpt>
<trkpt lat="49.65596767142415" lon="9.023068388924004">
<ele>271.2</ele>
<time>2024-05-10T11:56:15Z</time>
</trkpt>
<trkpt lat="49.65602106414735" lon="9.02299496345222">
<ele>271</ele>
<time>2024-05-10T11:56:16Z</time>
</trkpt>
<trkpt lat="49.656078312546015" lon="9.022921537980436">
<ele>271</ele>
<time>2024-05-10T11:56:17Z</time>
</trkpt>
<trkpt lat="49.65613170526922" lon="9.022848112508656">
<ele>270.8</ele>
<time>2024-05-10T11:56:18Z</time>
</trkpt>
<trkpt lat="49.65618895366788" lon="9.022773681208491">
<ele>270.6</ele>
<time>2024-05-10T11:56:19Z</time>
</trkpt>
<trkpt lat="49.65624611824751" lon="9.022685000672936">
<ele>270.6</ele>
<time>2024-05-10T11:56:20Z</time>
</trkpt>
<trkpt lat="49.65630336664617" lon="9.022591542452574">
<ele>270.4</ele>
<time>2024-05-10T11:56:21Z</time>
</trkpt>
<trkpt lat="49.65635675936937" lon="9.022495234385133">
<ele>270</ele>
<time>2024-05-10T11:56:22Z</time>
</trkpt>
<trkpt lat="49.656414007768035" lon="9.022395070642231">
<ele>269.8</ele>
<time>2024-05-10T11:56:23Z</time>
</trkpt>
<trkpt lat="49.65647502802312" lon="9.022290213033555">
<ele>269.6</ele>
<time>2024-05-10T11:56:24Z</time>
</trkpt>
<trkpt lat="49.6565246488899" lon="9.022179571911693">
<ele>269.4</ele>
<time>2024-05-10T11:56:25Z</time>
</trkpt>
<trkpt lat="49.6565780416131" lon="9.022069852799175">
<ele>269.2</ele>
<time>2024-05-10T11:56:26Z</time>
</trkpt>
<trkpt lat="49.656631434336305" lon="9.021958289667964">
<ele>269</ele>
<time>2024-05-10T11:56:27Z</time>
</trkpt>
<trkpt lat="49.65668482705951" lon="9.021842954680324">
<ele>268.6</ele>
<time>2024-05-10T11:56:28Z</time>
</trkpt>
<trkpt lat="49.65673444792628" lon="9.021723680198193">
<ele>268</ele>
<time>2024-05-10T11:56:29Z</time>
</trkpt>
<trkpt lat="49.65678398497403" lon="9.021604489535092">
<ele>267.6</ele>
<time>2024-05-10T11:56:30Z</time>
</trkpt>
<trkpt lat="49.6568336058408" lon="9.021485298871994">
<ele>267</ele>
<time>2024-05-10T11:56:31Z</time>
</trkpt>
<trkpt lat="49.65688322670758" lon="9.021363258361816">
<ele>266.4</ele>
<time>2024-05-10T11:56:32Z</time>
</trkpt>
<trkpt lat="49.656925136223435" lon="9.021243061870337">
<ele>265.6</ele>
<time>2024-05-10T11:56:33Z</time>
</trkpt>
<trkpt lat="49.65697090141475" lon="9.021124793216586">
<ele>264.8</ele>
<time>2024-05-10T11:56:34Z</time>
</trkpt>
<trkpt lat="49.657009122893214" lon="9.021010380238296">
<ele>264</ele>
<time>2024-05-10T11:56:35Z</time>
</trkpt>
<trkpt lat="49.65705103240907" lon="9.020903510972856">
<ele>263.4</ele>
<time>2024-05-10T11:56:36Z</time>
</trkpt>
<trkpt lat="49.65710828080773" lon="9.020794797688724">
<ele>262.6</ele>
<time>2024-05-10T11:56:37Z</time>
</trkpt>
<trkpt lat="49.65715019032359" lon="9.02068516239524">
<ele>262</ele>
<time>2024-05-10T11:56:38Z</time>
</trkpt>
<trkpt lat="49.65719981119037" lon="9.020573599264026">
<ele>261.2</ele>
<time>2024-05-10T11:56:39Z</time>
</trkpt>
<trkpt lat="49.65724943205714" lon="9.020471507683396">
<ele>260.6</ele>
<time>2024-05-10T11:56:40Z</time>
</trkpt>
<trkpt lat="49.65730659663677" lon="9.020368494093418">
<ele>259.799</ele>
<time>2024-05-10T11:56:41Z</time>
</trkpt>
<trkpt lat="49.65735244564712" lon="9.0202503092587">
<ele>259.2</ele>
<time>2024-05-10T11:56:42Z</time>
</trkpt>
<trkpt lat="49.65739435516298" lon="9.020121563225985">
<ele>258.6</ele>
<time>2024-05-10T11:56:43Z</time>
</trkpt>
<trkpt lat="49.65745537541807" lon="9.020028105005622">
<ele>258</ele>
<time>2024-05-10T11:56:44Z</time>
</trkpt>
<trkpt lat="49.65753550641239" lon="9.019889803603292">
<ele>257.2</ele>
<time>2024-05-10T11:56:45Z</time>
</trkpt>
<trkpt lat="49.65758512727916" lon="9.01973339729011">
<ele>256.6</ele>
<time>2024-05-10T11:56:46Z</time>
</trkpt>
<trkpt lat="49.65759275481105" lon="9.019548408687116">
<ele>256</ele>
<time>2024-05-10T11:56:47Z</time>
</trkpt>
<trkpt lat="49.65760415419936" lon="9.019386218860744">
<ele>255.2</ele>
<time>2024-05-10T11:56:48Z</time>
</trkpt>
<trkpt lat="49.657638520002365" lon="9.019218413159251">
<ele>254.6</ele>
<time>2024-05-10T11:56:49Z</time>
</trkpt>
<trkpt lat="49.65767665766179" lon="9.01906007900834">
<ele>253.8</ele>
<time>2024-05-10T11:56:50Z</time>
</trkpt>
<trkpt lat="49.657718650996685" lon="9.018910378217695">
<ele>253.2</ele>
<time>2024-05-10T11:56:51Z</time>
</trkpt>
<trkpt lat="49.65776056051254" lon="9.01874634437263">
<ele>252.4</ele>
<time>2024-05-10T11:56:52Z</time>
</trkpt>
<trkpt lat="49.65778729878366" lon="9.018598487600684">
<ele>251.6</ele>
<time>2024-05-10T11:56:53Z</time>
</trkpt>
<trkpt lat="49.65782158076763" lon="9.018456414341928">
<ele>251</ele>
<time>2024-05-10T11:56:54Z</time>
</trkpt>
<trkpt lat="49.657859802246094" lon="9.018315263092518">
<ele>250.2</ele>
<time>2024-05-10T11:56:55Z</time>
</trkpt>
<trkpt lat="49.65790556743741" lon="9.018177967518568">
<ele>249.6</ele>
<time>2024-05-10T11:56:56Z</time>
</trkpt>
<trkpt lat="49.65793984942138" lon="9.018045365810394">
<ele>249</ele>
<time>2024-05-10T11:56:57Z</time>
</trkpt>
<trkpt lat="49.6579665876925" lon="9.017903292551637">
<ele>248.4</ele>
<time>2024-05-10T11:56:58Z</time>
</trkpt>
<trkpt lat="49.65799709782005" lon="9.017766918987036">
<ele>247.8</ele>
<time>2024-05-10T11:56:59Z</time>
</trkpt>
<trkpt lat="49.65802375227213" lon="9.017626689746976">
<ele>247.4</ele>
<time>2024-05-10T11:57:00Z</time>
</trkpt>
<trkpt lat="49.658050490543246" lon="9.017493166029452">
<ele>246.8</ele>
<time>2024-05-10T11:57:01Z</time>
</trkpt>
<trkpt lat="49.65807722881436" lon="9.017366347834468">
<ele>246.4</ele>
<time>2024-05-10T11:57:02Z</time>
</trkpt>
<trkpt lat="49.65810388326645" lon="9.017241457477212">
<ele>246</ele>
<time>2024-05-10T11:57:03Z</time>
</trkpt>
<trkpt lat="49.658130621537566" lon="9.017113633453846">
<ele>245.6</ele>
<time>2024-05-10T11:57:04Z</time>
</trkpt>
<trkpt lat="49.658153504133224" lon="9.01698874309659">
<ele>245.2</ele>
<time>2024-05-10T11:57:05Z</time>
</trkpt>
<trkpt lat="49.658172531053424" lon="9.016858069226146">
<ele>244.8</ele>
<time>2024-05-10T11:57:06Z</time>
</trkpt>
<trkpt lat="49.6581877861172" lon="9.01673024520278">
<ele>244.6</ele>
<time>2024-05-10T11:57:07Z</time>
</trkpt>
<trkpt lat="49.65819926932454" lon="9.016599655151367">
<ele>244.2</ele>
<time>2024-05-10T11:57:08Z</time>
</trkpt>
<trkpt lat="49.658210752531886" lon="9.01647468097508">
<ele>244</ele>
<time>2024-05-10T11:57:09Z</time>
</trkpt>
<trkpt lat="49.65821838006377" lon="9.01635356247425">
<ele>243.8</ele>
<time>2024-05-10T11:57:10Z</time>
</trkpt>
<trkpt lat="49.658229779452085" lon="9.016231521964071">
<ele>243.6</ele>
<time>2024-05-10T11:57:11Z</time>
</trkpt>
<trkpt lat="49.65824126265943" lon="9.016106547787786">
<ele>243.2</ele>
<time>2024-05-10T11:57:12Z</time>
</trkpt>
<trkpt lat="49.65824889019132" lon="9.01598165743053">
<ele>243</ele>
<time>2024-05-10T11:57:13Z</time>
</trkpt>
<trkpt lat="49.658252662047744" lon="9.015854755416512">
<ele>242.8</ele>
<time>2024-05-10T11:57:14Z</time>
</trkpt>
<trkpt lat="49.65826028957963" lon="9.015738414600492">
<ele>242.6</ele>
<time>2024-05-10T11:57:15Z</time>
</trkpt>
<trkpt lat="49.658271772786975" lon="9.015620229765773">
<ele>242.6</ele>
<time>2024-05-10T11:57:16Z</time>
</trkpt>
<trkpt lat="49.6582755446434" lon="9.015508582815528">
<ele>242.4</ele>
<time>2024-05-10T11:57:17Z</time>
</trkpt>
<trkpt lat="49.65828702785075" lon="9.015397019684317">
<ele>242.2</ele>
<time>2024-05-10T11:57:18Z</time>
</trkpt>
<trkpt lat="49.65830228291452" lon="9.01529023423791">
<ele>242</ele>
<time>2024-05-10T11:57:19Z</time>
</trkpt>
<trkpt lat="49.65832130983472" lon="9.015185292810202">
<ele>241.6</ele>
<time>2024-05-10T11:57:20Z</time>
</trkpt>
<trkpt lat="49.65834042057395" lon="9.01507180184126">
<ele>241.4</ele>
<time>2024-05-10T11:57:21Z</time>
</trkpt>
<trkpt lat="49.658367075026035" lon="9.014963088557124">
<ele>241.2</ele>
<time>2024-05-10T11:57:22Z</time>
</trkpt>
<trkpt lat="49.658390041440725" lon="9.014862002804875">
<ele>240.8</ele>
<time>2024-05-10T11:57:23Z</time>
</trkpt>
<trkpt lat="49.658412924036384" lon="9.014749517664312">
<ele>240.6</ele>
<time>2024-05-10T11:57:24Z</time>
</trkpt>
<trkpt lat="49.6584243234247" lon="9.014639798551798">
<ele>240.2</ele>
<time>2024-05-10T11:57:25Z</time>
</trkpt>
<trkpt lat="49.658447206020355" lon="9.014525385573506">
<ele>240</ele>
<time>2024-05-10T11:57:26Z</time>
</trkpt>
<trkpt lat="49.65847008861601" lon="9.014409966766834">
<ele>239.6</ele>
<time>2024-05-10T11:57:27Z</time>
</trkpt>
<trkpt lat="49.65850059874356" lon="9.0143012534827">
<ele>239.4</ele>
<time>2024-05-10T11:57:28Z</time>
</trkpt>
<trkpt lat="49.6585311088711" lon="9.014195390045645">
<ele>239</ele>
<time>2024-05-10T11:57:29Z</time>
</trkpt>
<trkpt lat="49.65856170281768" lon="9.014093382284043">
<ele>238.8</ele>
<time>2024-05-10T11:57:30Z</time>
</trkpt>
<trkpt lat="49.65858835726976" lon="9.013988440856338">
<ele>238.6</ele>
<time>2024-05-10T11:57:31Z</time>
</trkpt>
<trkpt lat="49.65862272307277" lon="9.01388643309474">
<ele>238.4</ele>
<time>2024-05-10T11:57:32Z</time>
</trkpt>
<trkpt lat="49.65864937752485" lon="9.013783419504762">
<ele>238.2</ele>
<time>2024-05-10T11:57:33Z</time>
</trkpt>
<trkpt lat="49.6586798876524" lon="9.013674706220629">
<ele>237.8</ele>
<time>2024-05-10T11:57:34Z</time>
</trkpt>
<trkpt lat="49.65871039777994" lon="9.01356976479292">
<ele>237.6</ele>
<time>2024-05-10T11:57:35Z</time>
</trkpt>
<trkpt lat="49.65873713605106" lon="9.01346867904067">
<ele>237.6</ele>
<time>2024-05-10T11:57:36Z</time>
</trkpt>
<trkpt lat="49.65877150185406" lon="9.013368599116802">
<ele>237.4</ele>
<time>2024-05-10T11:57:37Z</time>
</trkpt>
<trkpt lat="49.65880201198161" lon="9.013270363211632">
<ele>237.2</ele>
<time>2024-05-10T11:57:38Z</time>
</trkpt>
<trkpt lat="49.65883629396558" lon="9.013170199468732">
<ele>237.2</ele>
<time>2024-05-10T11:57:39Z</time>
</trkpt>
<trkpt lat="49.65886680409312" lon="9.013065258041024">
<ele>237</ele>
<time>2024-05-10T11:57:40Z</time>
</trkpt>
<trkpt lat="49.65889354236424" lon="9.012960400432348">
<ele>236.8</ele>
<time>2024-05-10T11:57:41Z</time>
</trkpt>
<trkpt lat="49.65893168002367" lon="9.012853614985945">
<ele>236.8</ele>
<time>2024-05-10T11:57:42Z</time>
</trkpt>
<trkpt lat="49.65896604582667" lon="9.012753451243045">
<ele>236.6</ele>
<time>2024-05-10T11:57:43Z</time>
</trkpt>
<trkpt lat="49.659004183486104" lon="9.01265613734722">
<ele>236.4</ele>
<time>2024-05-10T11:57:44Z</time>
</trkpt>
<trkpt lat="49.65904609300196" lon="9.012571312487124">
<ele>236.2</ele>
<time>2024-05-10T11:57:45Z</time>
</trkpt>
<trkpt lat="49.65908808633685" lon="9.012490259483457">
<ele>236</ele>
<time>2024-05-10T11:57:46Z</time>
</trkpt>
<trkpt lat="49.65913007967174" lon="9.012408200651407">
<ele>235.8</ele>
<time>2024-05-10T11:57:47Z</time>
</trkpt>
<trkpt lat="49.65916821733117" lon="9.012325219810007">
<ele>235.6</ele>
<time>2024-05-10T11:57:48Z</time>
</trkpt>
<trkpt lat="49.65920249931514" lon="9.012231761589646">
<ele>235.4</ele>
<time>2024-05-10T11:57:49Z</time>
</trkpt>
<trkpt lat="49.659236865118146" lon="9.012143081054091">
<ele>235.2</ele>
<time>2024-05-10T11:57:50Z</time>
</trkpt>
<trkpt lat="49.65926737524569" lon="9.012060100212691">
<ele>235</ele>
<time>2024-05-10T11:57:51Z</time>
</trkpt>
<trkpt lat="49.65930551290512" lon="9.011975275352595">
<ele>234.8</ele>
<time>2024-05-10T11:57:52Z</time>
</trkpt>
<trkpt lat="49.65933987870813" lon="9.011891288682818">
<ele>234.6</ele>
<time>2024-05-10T11:57:53Z</time>
</trkpt>
<trkpt lat="49.659378016367555" lon="9.011806463822722">
<ele>234.4</ele>
<time>2024-05-10T11:57:54Z</time>
</trkpt>
<trkpt lat="49.65942000970245" lon="9.011726332828404">
<ele>234.2</ele>
<time>2024-05-10T11:57:55Z</time>
</trkpt>
<trkpt lat="49.659454291686416" lon="9.011639580130575">
<ele>233.8</ele>
<time>2024-05-10T11:57:56Z</time>
</trkpt>
<trkpt lat="49.65948480181396" lon="9.011543272063136">
<ele>233.6</ele>
<time>2024-05-10T11:57:57Z</time>
</trkpt>
<trkpt lat="49.65951916761696" lon="9.011449813842772">
<ele>233.4</ele>
<time>2024-05-10T11:57:58Z</time>
</trkpt>
<trkpt lat="49.65954967774451" lon="9.011360127478838">
<ele>233</ele>
<time>2024-05-10T11:57:59Z</time>
</trkpt>
<trkpt lat="49.65958404354751" lon="9.011273374781013">
<ele>232.8</ele>
<time>2024-05-10T11:58:00Z</time>
</trkpt>
<trkpt lat="49.65961832553148" lon="9.011193243786693">
<ele>232.6</ele>
<time>2024-05-10T11:58:01Z</time>
</trkpt>
<trkpt lat="49.659652691334486" lon="9.011115040630102">
<ele>232.2</ele>
<time>2024-05-10T11:58:02Z</time>
</trkpt>
<trkpt lat="49.65968320146203" lon="9.011032059788704">
<ele>232</ele>
<time>2024-05-10T11:58:03Z</time>
</trkpt>
<trkpt lat="49.65970985591411" lon="9.010948156937957">
<ele>231.8</ele>
<time>2024-05-10T11:58:04Z</time>
</trkpt>
<trkpt lat="49.65974422171712" lon="9.01086517609656">
<ele>231.4</ele>
<time>2024-05-10T11:58:05Z</time>
</trkpt>
<trkpt lat="49.659774731844664" lon="9.010781273245811">
<ele>231.2</ele>
<time>2024-05-10T11:58:06Z</time>
</trkpt>
<trkpt lat="49.65980524197221" lon="9.010696364566684">
<ele>231</ele>
<time>2024-05-10T11:58:07Z</time>
</trkpt>
<trkpt lat="49.65983575209975" lon="9.01060290634632">
<ele>230.8</ele>
<time>2024-05-10T11:58:08Z</time>
</trkpt>
<trkpt lat="49.65986249037087" lon="9.01050852611661">
<ele>230.8</ele>
<time>2024-05-10T11:58:09Z</time>
</trkpt>
<trkpt lat="49.65988537296653" lon="9.010413140058516">
<ele>230.6</ele>
<time>2024-05-10T11:58:10Z</time>
</trkpt>
<trkpt lat="49.659889144822955" lon="9.010314904153349">
<ele>230.4</ele>
<time>2024-05-10T11:58:11Z</time>
</trkpt>
<trkpt lat="49.659889144822955" lon="9.010216668248177">
<ele>230.2</ele>
<time>2024-05-10T11:58:12Z</time>
</trkpt>
<trkpt lat="49.659889144822955" lon="9.010111726820467">
<ele>230</ele>
<time>2024-05-10T11:58:13Z</time>
</trkpt>
<trkpt lat="49.65987774543464" lon="9.010009719058871">
<ele>229.8</ele>
<time>2024-05-10T11:58:14Z</time>
</trkpt>
<trkpt lat="49.65986249037087" lon="9.009904861450195">
<ele>229.6</ele>
<time>2024-05-10T11:58:15Z</time>
</trkpt>
<trkpt lat="49.6598472353071" lon="9.009804697707295">
<ele>229.4</ele>
<time>2024-05-10T11:58:16Z</time>
</trkpt>
<trkpt lat="49.65983960777521" lon="9.009708389639854">
<ele>229</ele>
<time>2024-05-10T11:58:17Z</time>
</trkpt>
<trkpt lat="49.65984337963164" lon="9.009610153734684">
<ele>228.8</ele>
<time>2024-05-10T11:58:18Z</time>
</trkpt>
<trkpt lat="49.65985486283898" lon="9.009514767676592">
<ele>228.2</ele>
<time>2024-05-10T11:58:19Z</time>
</trkpt>
<trkpt lat="49.65988151729107" lon="9.00941845960915">
<ele>227.8</ele>
<time>2024-05-10T11:58:20Z</time>
</trkpt>
<trkpt lat="49.65991202741861" lon="9.009327851235868">
<ele>227.4</ele>
<time>2024-05-10T11:58:21Z</time>
</trkpt>
<trkpt lat="49.65995024889707" lon="9.009264903143048">
<ele>227.2</ele>
<time>2024-05-10T11:58:22Z</time>
</trkpt>
<trkpt lat="49.65999601408839" lon="9.009231543168426">
<ele>227</ele>
<time>2024-05-10T11:58:23Z</time>
</trkpt>
<trkpt lat="49.660045551136136" lon="9.009209582582116">
<ele>226.8</ele>
<time>2024-05-10T11:58:24Z</time>
</trkpt>
<trkpt lat="49.66009902767837" lon="9.009189549833536">
<ele>226.6</ele>
<time>2024-05-10T11:58:25Z</time>
</trkpt>
<trkpt lat="49.66014479286969" lon="9.009169517084956">
<ele>226.4</ele>
<time>2024-05-10T11:58:26Z</time>
</trkpt>
<trkpt lat="49.66019432991743" lon="9.009146634489298">
<ele>226.2</ele>
<time>2024-05-10T11:58:27Z</time>
</trkpt>
<trkpt lat="49.66024009510875" lon="9.00912375189364">
<ele>226.2</ele>
<time>2024-05-10T11:58:28Z</time>
</trkpt>
<trkpt lat="49.660285944119096" lon="9.009097097441554">
<ele>226</ele>
<time>2024-05-10T11:58:29Z</time>
</trkpt>
<trkpt lat="49.66033548116684" lon="9.009071281179786">
<ele>226</ele>
<time>2024-05-10T11:58:30Z</time>
</trkpt>
<trkpt lat="49.66038124635816" lon="9.0090446267277">
<ele>226</ele>
<time>2024-05-10T11:58:31Z</time>
</trkpt>
<trkpt lat="49.66042701154947" lon="9.009015038609505">
<ele>226</ele>
<time>2024-05-10T11:58:32Z</time>
</trkpt>
<trkpt lat="49.66047663241625" lon="9.008981678634882">
<ele>226</ele>
<time>2024-05-10T11:58:33Z</time>
</trkpt>
<trkpt lat="49.66051862575114" lon="9.00894538499415">
<ele>226.2</ele>
<time>2024-05-10T11:58:34Z</time>
</trkpt>
<trkpt lat="49.660564390942454" lon="9.008903475478292">
<ele>226.2</ele>
<time>2024-05-10T11:58:35Z</time>
</trkpt>
<trkpt lat="49.660606384277344" lon="9.008856704458594">
<ele>226.4</ele>
<time>2024-05-10T11:58:36Z</time>
</trkpt>
<trkpt lat="49.660640666261315" lon="9.008816638961434">
<ele>226.4</ele>
<time>2024-05-10T11:58:37Z</time>
</trkpt>
<trkpt lat="49.660682659596205" lon="9.008771879598498">
<ele>226.4</ele>
<time>2024-05-10T11:58:38Z</time>
</trkpt>
<trkpt lat="49.660716941580176" lon="9.0087251085788">
<ele>226.6</ele>
<time>2024-05-10T11:58:39Z</time>
</trkpt>
<trkpt lat="49.66074745170772" lon="9.008678421378136">
<ele>226.6</ele>
<time>2024-05-10T11:58:40Z</time>
</trkpt>
<trkpt lat="49.6607780456543" lon="9.008634500205517">
<ele>226.6</ele>
<time>2024-05-10T11:58:41Z</time>
</trkpt>
<trkpt lat="49.66080470010638" lon="9.008595440536736">
<ele>226.6</ele>
<time>2024-05-10T11:58:42Z</time>
</trkpt>
<trkpt lat="49.66083521023393" lon="9.008560152724383">
<ele>226.6</ele>
<time>2024-05-10T11:58:43Z</time>
</trkpt>
<trkpt lat="49.66086194850504" lon="9.008526792749764">
<ele>226.8</ele>
<time>2024-05-10T11:58:44Z</time>
</trkpt>
<trkpt lat="49.66088860295713" lon="9.00849150493741">
<ele>226.8</ele>
<time>2024-05-10T11:58:45Z</time>
</trkpt>
<trkpt lat="49.660919113084674" lon="9.008462838828564">
<ele>227</ele>
<time>2024-05-10T11:58:46Z</time>
</trkpt>
<trkpt lat="49.66095347888768" lon="9.008439956232904">
<ele>227.2</ele>
<time>2024-05-10T11:58:47Z</time>
</trkpt>
<trkpt lat="49.660980217158794" lon="9.008424701169131">
<ele>227.4</ele>
<time>2024-05-10T11:58:48Z</time>
</trkpt>
<trkpt lat="49.66101072728634" lon="9.008417073637249">
<ele>227.6</ele>
<time>2024-05-10T11:58:49Z</time>
</trkpt>
<trkpt lat="49.66104123741388" lon="9.00841137394309">
<ele>227.8</ele>
<time>2024-05-10T11:58:50Z</time>
</trkpt>
<trkpt lat="49.661075519397855" lon="9.008406596258284">
<ele>228.2</ele>
<time>2024-05-10T11:58:51Z</time>
</trkpt>
<trkpt lat="49.66110988520086" lon="9.008399890735744">
<ele>228.4</ele>
<time>2024-05-10T11:58:52Z</time>
</trkpt>
<trkpt lat="49.6611403953284" lon="9.008395113050938">
<ele>228.6</ele>
<time>2024-05-10T11:58:53Z</time>
</trkpt>
<trkpt lat="49.66117853298783" lon="9.008398046717048">
<ele>228.8</ele>
<time>2024-05-10T11:58:54Z</time>
</trkpt>
<trkpt lat="49.66121289879083" lon="9.008403746411204">
<ele>228.8</ele>
<time>2024-05-10T11:58:55Z</time>
</trkpt>
<trkpt lat="49.66125103645027" lon="9.008404668420551">
<ele>228.8</ele>
<time>2024-05-10T11:58:56Z</time>
</trkpt>
<trkpt lat="49.66129302978515" lon="9.008401818573477">
<ele>229</ele>
<time>2024-05-10T11:58:57Z</time>
</trkpt>
<trkpt lat="49.66132731176913" lon="9.008395113050938">
<ele>229</ele>
<time>2024-05-10T11:58:58Z</time>
</trkpt>
<trkpt lat="49.66136167757213" lon="9.00839134119451">
<ele>229</ele>
<time>2024-05-10T11:58:59Z</time>
</trkpt>
<trkpt lat="49.6613959595561" lon="9.008386563509704">
<ele>229</ele>
<time>2024-05-10T11:59:00Z</time>
</trkpt>
<trkpt lat="49.661430325359106" lon="9.008379857987164">
<ele>229</ele>
<time>2024-05-10T11:59:01Z</time>
</trkpt>
<trkpt lat="49.66146469116211" lon="9.00837323628366">
<ele>229</ele>
<time>2024-05-10T11:59:02Z</time>
</trkpt>
<trkpt lat="49.66149897314608" lon="9.008368458598852">
<ele>229</ele>
<time>2024-05-10T11:59:03Z</time>
</trkpt>
<trkpt lat="49.66153333894909" lon="9.008363680914044">
<ele>229.2</ele>
<time>2024-05-10T11:59:04Z</time>
</trkpt>
<trkpt lat="49.661571476608515" lon="9.008359909057615">
<ele>229.4</ele>
<time>2024-05-10T11:59:05Z</time>
</trkpt>
<trkpt lat="49.661605758592486" lon="9.008356975391507">
<ele>229.4</ele>
<time>2024-05-10T11:59:06Z</time>
</trkpt>
<trkpt lat="49.66164012439549" lon="9.008350353688002">
<ele>229.6</ele>
<time>2024-05-10T11:59:07Z</time>
</trkpt>
<trkpt lat="49.66167449019849" lon="9.008339876309035">
<ele>229.6</ele>
<time>2024-05-10T11:59:08Z</time>
</trkpt>
<trkpt lat="49.66170500032604" lon="9.008330320939422">
<ele>229.8</ele>
<time>2024-05-10T11:59:09Z</time>
</trkpt>
<trkpt lat="49.66173928231001" lon="9.008324621245263">
<ele>229.8</ele>
<time>2024-05-10T11:59:10Z</time>
</trkpt>
<trkpt lat="49.661766020581126" lon="9.008319843560455">
<ele>230</ele>
<time>2024-05-10T11:59:11Z</time>
</trkpt>
<trkpt lat="49.66179267503321" lon="9.00831313803792">
<ele>230.2</ele>
<time>2024-05-10T11:59:12Z</time>
</trkpt>
<trkpt lat="49.66181178577244" lon="9.00831121020019">
<ele>230.4</ele>
<time>2024-05-10T11:59:13Z</time>
</trkpt>
<trkpt lat="49.6618346683681" lon="9.008306432515385">
<ele>230.4</ele>
<time>2024-05-10T11:59:14Z</time>
</trkpt>
<trkpt lat="49.66185755096376" lon="9.008299810811875">
<ele>230.6</ele>
<time>2024-05-10T11:59:15Z</time>
</trkpt>
<trkpt lat="49.66188043355942" lon="9.00829310528934">
<ele>230.8</ele>
<time>2024-05-10T11:59:16Z</time>
</trkpt>
<trkpt lat="49.661907171830535" lon="9.008283549919724">
<ele>230.8</ele>
<time>2024-05-10T11:59:17Z</time>
</trkpt>
<trkpt lat="49.66193382628262" lon="9.008279778063295">
<ele>231</ele>
<time>2024-05-10T11:59:18Z</time>
</trkpt>
<trkpt lat="49.661964336410165" lon="9.008266367018225">
<ele>231</ele>
<time>2024-05-10T11:59:19Z</time>
</trkpt>
<trkpt lat="49.66199107468128" lon="9.00825689546764">
<ele>231.2</ele>
<time>2024-05-10T11:59:20Z</time>
</trkpt>
<trkpt lat="49.662021584808826" lon="9.008250189945102">
<ele>231.2</ele>
<time>2024-05-10T11:59:21Z</time>
</trkpt>
<trkpt lat="49.66205209493637" lon="9.008243484422565">
<ele>231.2</ele>
<time>2024-05-10T11:59:22Z</time>
</trkpt>
<trkpt lat="49.66207883320749" lon="9.0082330070436">
<ele>231.4</ele>
<time>2024-05-10T11:59:23Z</time>
</trkpt>
<trkpt lat="49.662105487659574" lon="9.008225379511714">
<ele>231.4</ele>
<time>2024-05-10T11:59:24Z</time>
</trkpt>
<trkpt lat="49.66213222593069" lon="9.00821682997048">
<ele>231.4</ele>
<time>2024-05-10T11:59:25Z</time>
</trkpt>
<trkpt lat="49.66215896420181" lon="9.008205346763134">
<ele>231.4</ele>
<time>2024-05-10T11:59:26Z</time>
</trkpt>
<trkpt lat="49.662181846797466" lon="9.0081967972219">
<ele>231.4</ele>
<time>2024-05-10T11:59:27Z</time>
</trkpt>
<trkpt lat="49.66221235692501" lon="9.008188247680664">
<ele>231.4</ele>
<time>2024-05-10T11:59:28Z</time>
</trkpt>
<trkpt lat="49.662239011377096" lon="9.008179614320396">
<ele>231.6</ele>
<time>2024-05-10T11:59:29Z</time>
</trkpt>
<trkpt lat="49.66226574964821" lon="9.00817483663559">
<ele>231.6</ele>
<time>2024-05-10T11:59:30Z</time>
</trkpt>
<trkpt lat="49.6622924041003" lon="9.008170058950782">
<ele>231.8</ele>
<time>2024-05-10T11:59:31Z</time>
</trkpt>
<trkpt lat="49.662319142371416" lon="9.008163437247276">
<ele>231.8</ele>
<time>2024-05-10T11:59:32Z</time>
</trkpt>
<trkpt lat="49.662342024967074" lon="9.008150026202202">
<ele>232</ele>
<time>2024-05-10T11:59:33Z</time>
</trkpt>
<trkpt lat="49.66236490756273" lon="9.008126221597196">
<ele>232</ele>
<time>2024-05-10T11:59:34Z</time>
</trkpt>
<trkpt lat="49.66239164583385" lon="9.008105266839266">
<ele>232.2</ele>
<time>2024-05-10T11:59:35Z</time>
</trkpt>
<trkpt lat="49.662422155961394" lon="9.008090011775494">
<ele>232.4</ele>
<time>2024-05-10T11:59:36Z</time>
</trkpt>
<trkpt lat="49.66245266608894" lon="9.008071823045611">
<ele>232.6</ele>
<time>2024-05-10T11:59:37Z</time>
</trkpt>
<trkpt lat="49.66248317621648" lon="9.008051790297031">
<ele>232.8</ele>
<time>2024-05-10T11:59:38Z</time>
</trkpt>
<trkpt lat="49.6625099144876" lon="9.008027063682675">
<ele>232.8</ele>
<time>2024-05-10T11:59:39Z</time>
</trkpt>
<trkpt lat="49.662536568939686" lon="9.008001247420909">
<ele>233</ele>
<time>2024-05-10T11:59:40Z</time>
</trkpt>
<trkpt lat="49.6625633072108" lon="9.007973670959473">
<ele>233.2</ele>
<time>2024-05-10T11:59:41Z</time>
</trkpt>
<trkpt lat="49.662582334131" lon="9.007945004850626">
<ele>233.4</ele>
<time>2024-05-10T11:59:42Z</time>
</trkpt>
<trkpt lat="49.66260521672666" lon="9.007920194417238">
<ele>233.6</ele>
<time>2024-05-10T11:59:43Z</time>
</trkpt>
<trkpt lat="49.66262809932232" lon="9.007895467802882">
<ele>233.8</ele>
<time>2024-05-10T11:59:44Z</time>
</trkpt>
<trkpt lat="49.66265098191798" lon="9.007864873856306">
<ele>234</ele>
<time>2024-05-10T11:59:45Z</time>
</trkpt>
<trkpt lat="49.66267394833267" lon="9.007833441719413">
<ele>234.2</ele>
<time>2024-05-10T11:59:46Z</time>
</trkpt>
<trkpt lat="49.662696830928326" lon="9.00780008174479">
<ele>234.4</ele>
<time>2024-05-10T11:59:47Z</time>
</trkpt>
<trkpt lat="49.66272734105587" lon="9.007768565788863">
<ele>234.8</ele>
<time>2024-05-10T11:59:48Z</time>
</trkpt>
<trkpt lat="49.66276162303984" lon="9.007733277976511">
<ele>235</ele>
<time>2024-05-10T11:59:49Z</time>
</trkpt>
<trkpt lat="49.662795988842845" lon="9.007695140317082">
<ele>235.2</ele>
<time>2024-05-10T11:59:50Z</time>
</trkpt>
<trkpt lat="49.662834126502275" lon="9.007650297135116">
<ele>235.4</ele>
<time>2024-05-10T11:59:51Z</time>
</trkpt>
<trkpt lat="49.662876119837165" lon="9.007597910240293">
<ele>235.4</ele>
<time>2024-05-10T11:59:52Z</time>
</trkpt>
<trkpt lat="49.66292188502848" lon="9.00756161659956">
<ele>235.6</ele>
<time>2024-05-10T11:59:53Z</time>
</trkpt>
<trkpt lat="49.662971422076225" lon="9.007514929398894">
<ele>235.8</ele>
<time>2024-05-10T11:59:54Z</time>
</trkpt>
<trkpt lat="49.66302489861846" lon="9.007461536675692">
<ele>235.8</ele>
<time>2024-05-10T11:59:55Z</time>
</trkpt>
<trkpt lat="49.66307829134166" lon="9.007408060133455">
<ele>235.8</ele>
<time>2024-05-10T11:59:56Z</time>
</trkpt>
<trkpt lat="49.663131684064865" lon="9.007354667410254">
<ele>235.8</ele>
<time>2024-05-10T11:59:57Z</time>
</trkpt>
<trkpt lat="49.66318893246353" lon="9.00730320252478">
<ele>236</ele>
<time>2024-05-10T11:59:58Z</time>
</trkpt>
<trkpt lat="49.66324609704316" lon="9.007253581658006">
<ele>236</ele>
<time>2024-05-10T11:59:59Z</time>
</trkpt>
<trkpt lat="49.663307117298245" lon="9.00720496661961">
<ele>236</ele>
<time>2024-05-10T12:00:00Z</time>
</trkpt>
<trkpt lat="49.663368221372366" lon="9.007155345752835">
<ele>236</ele>
<time>2024-05-10T12:00:01Z</time>
</trkpt>
<trkpt lat="49.663429241627455" lon="9.007104802876711">
<ele>235.8</ele>
<time>2024-05-10T12:00:02Z</time>
</trkpt>
<trkpt lat="49.663486406207085" lon="9.007061887532473">
<ele>235.8</ele>
<time>2024-05-10T12:00:03Z</time>
</trkpt>
<trkpt lat="49.66353988274932" lon="9.007018050178885">
<ele>235.6</ele>
<time>2024-05-10T12:00:04Z</time>
</trkpt>
<trkpt lat="49.66359327547252" lon="9.006975134834647">
<ele>235.4</ele>
<time>2024-05-10T12:00:05Z</time>
</trkpt>
<trkpt lat="49.663646668195724" lon="9.006936997175217">
<ele>235.4</ele>
<time>2024-05-10T12:00:06Z</time>
</trkpt>
<trkpt lat="49.663703916594386" lon="9.006897853687406">
<ele>235.2</ele>
<time>2024-05-10T12:00:07Z</time>
</trkpt>
<trkpt lat="49.66375345364213" lon="9.006859716027975">
<ele>235.2</ele>
<time>2024-05-10T12:00:08Z</time>
</trkpt>
<trkpt lat="49.66380684636533" lon="9.006821578368545">
<ele>235</ele>
<time>2024-05-10T12:00:09Z</time>
</trkpt>
<trkpt lat="49.66385261155665" lon="9.006783440709114">
<ele>235</ele>
<time>2024-05-10T12:00:10Z</time>
</trkpt>
<trkpt lat="49.663898460567" lon="9.006745303049684">
<ele>235</ele>
<time>2024-05-10T12:00:11Z</time>
</trkpt>
<trkpt lat="49.663944225758314" lon="9.006708087399602">
<ele>234.8</ele>
<time>2024-05-10T12:00:12Z</time>
</trkpt>
<trkpt lat="49.66398999094963" lon="9.00667279958725">
<ele>234.8</ele>
<time>2024-05-10T12:00:13Z</time>
</trkpt>
<trkpt lat="49.66403190046549" lon="9.00663466192782">
<ele>234.8</ele>
<time>2024-05-10T12:00:14Z</time>
</trkpt>
<trkpt lat="49.66407774947584" lon="9.006600379943848">
<ele>234.8</ele>
<time>2024-05-10T12:00:15Z</time>
</trkpt>
<trkpt lat="49.664119658991694" lon="9.006565092131495">
<ele>234.8</ele>
<time>2024-05-10T12:00:16Z</time>
</trkpt>
<trkpt lat="49.66416542418301" lon="9.006531648337841">
<ele>234.8</ele>
<time>2024-05-10T12:00:17Z</time>
</trkpt>
<trkpt lat="49.6642074175179" lon="9.00649543851614">
<ele>234.8</ele>
<time>2024-05-10T12:00:18Z</time>
</trkpt>
<trkpt lat="49.66424555517733" lon="9.006458222866058">
<ele>234.6</ele>
<time>2024-05-10T12:00:19Z</time>
</trkpt>
<trkpt lat="49.664279920980334" lon="9.006424862891436">
<ele>234.8</ele>
<time>2024-05-10T12:00:20Z</time>
</trkpt>
<trkpt lat="49.66432183049619" lon="9.00639527477324">
<ele>234.8</ele>
<time>2024-05-10T12:00:21Z</time>
</trkpt>
<trkpt lat="49.664352340623736" lon="9.006364764645696">
<ele>234.8</ele>
<time>2024-05-10T12:00:22Z</time>
</trkpt>
<trkpt lat="49.66438670642674" lon="9.00633811019361">
<ele>234.8</ele>
<time>2024-05-10T12:00:23Z</time>
</trkpt>
<trkpt lat="49.66442107222974" lon="9.006315227597952">
<ele>234.8</ele>
<time>2024-05-10T12:00:24Z</time>
</trkpt>
<trkpt lat="49.66445158235729" lon="9.006291339173913">
<ele>234.8</ele>
<time>2024-05-10T12:00:25Z</time>
</trkpt>
<trkpt lat="49.66447823680937" lon="9.006271306425333">
<ele>234.8</ele>
<time>2024-05-10T12:00:26Z</time>
</trkpt>
<trkpt lat="49.66450497508049" lon="9.00625797919929">
<ele>234.8</ele>
<time>2024-05-10T12:00:27Z</time>
</trkpt>
<trkpt lat="49.66452400200069" lon="9.006243646144867">
<ele>234.8</ele>
<time>2024-05-10T12:00:28Z</time>
</trkpt>
<trkpt lat="49.66454311273992" lon="9.006231240928173">
<ele>234.8</ele>
<time>2024-05-10T12:00:29Z</time>
</trkpt>
<trkpt lat="49.66456985101104" lon="9.00621791370213">
<ele>234.8</ele>
<time>2024-05-10T12:00:30Z</time>
</trkpt>
<trkpt lat="49.664592733606696" lon="9.006208358332515">
<ele>235</ele>
<time>2024-05-10T12:00:31Z</time>
</trkpt>
<trkpt lat="49.664611760526896" lon="9.006203580647707">
<ele>235</ele>
<time>2024-05-10T12:00:32Z</time>
</trkpt>
<trkpt lat="49.66463849879801" lon="9.006210286170244">
<ele>235</ele>
<time>2024-05-10T12:00:33Z</time>
</trkpt>
<trkpt lat="49.66466138139367" lon="9.006215063855052">
<ele>235</ele>
<time>2024-05-10T12:00:34Z</time>
</trkpt>
<trkpt lat="49.66468803584576" lon="9.006226463243365">
<ele>235</ele>
<time>2024-05-10T12:00:35Z</time>
</trkpt>
<trkpt lat="49.66470714658499" lon="9.006237024441361">
<ele>235.2</ele>
<time>2024-05-10T12:00:36Z</time>
</trkpt>
<trkpt lat="49.66472625732422" lon="9.006243646144867">
<ele>235.2</ele>
<time>2024-05-10T12:00:37Z</time>
</trkpt>
<trkpt lat="49.66474528424442" lon="9.006237024441361">
<ele>235.2</ele>
<time>2024-05-10T12:00:38Z</time>
</trkpt>
<trkpt lat="49.66476816684008" lon="9.00620173662901">
<ele>235.2</ele>
<time>2024-05-10T12:00:39Z</time>
</trkpt>
<trkpt lat="49.66478727757931" lon="9.006154965609312">
<ele>235.4</ele>
<time>2024-05-10T12:00:40Z</time>
</trkpt>
<trkpt lat="49.66480630449951" lon="9.006103500723839">
<ele>235.4</ele>
<time>2024-05-10T12:00:41Z</time>
</trkpt>
<trkpt lat="49.66482155956328" lon="9.006046252325177">
<ele>235.4</ele>
<time>2024-05-10T12:00:42Z</time>
</trkpt>
<trkpt lat="49.664833042770624" lon="9.005986154079437">
<ele>235.4</ele>
<time>2024-05-10T12:00:43Z</time>
</trkpt>
<trkpt lat="49.66484444215894" lon="9.005927061662078">
<ele>235.4</ele>
<time>2024-05-10T12:00:44Z</time>
</trkpt>
<trkpt lat="49.66485592536628" lon="9.005867885425687">
<ele>235.6</ele>
<time>2024-05-10T12:00:45Z</time>
</trkpt>
<trkpt lat="49.66486355289817" lon="9.005813570693135">
<ele>235.6</ele>
<time>2024-05-10T12:00:46Z</time>
</trkpt>
<trkpt lat="49.66487495228648" lon="9.005758250132203">
<ele>235.6</ele>
<time>2024-05-10T12:00:47Z</time>
</trkpt>
<trkpt lat="49.66488257981837" lon="9.005702007561922">
<ele>235.6</ele>
<time>2024-05-10T12:00:48Z</time>
</trkpt>
<trkpt lat="49.664890207350254" lon="9.00564668700099">
<ele>235.6</ele>
<time>2024-05-10T12:00:49Z</time>
</trkpt>
<trkpt lat="49.6649016905576" lon="9.005590360611677">
<ele>235.6</ele>
<time>2024-05-10T12:00:50Z</time>
</trkpt>
<trkpt lat="49.66491694562137" lon="9.005535123869777">
<ele>235.6</ele>
<time>2024-05-10T12:00:51Z</time>
</trkpt>
<trkpt lat="49.6649360563606" lon="9.005481647327542">
<ele>235.4</ele>
<time>2024-05-10T12:00:52Z</time>
</trkpt>
<trkpt lat="49.664951311424375" lon="9.00542632676661">
<ele>235.2</ele>
<time>2024-05-10T12:00:53Z</time>
</trkpt>
<trkpt lat="49.66496656648815" lon="9.005374861881137">
<ele>235</ele>
<time>2024-05-10T12:00:54Z</time>
</trkpt>
<trkpt lat="49.66498182155192" lon="9.005321469157934">
<ele>235</ele>
<time>2024-05-10T12:00:55Z</time>
</trkpt>
<trkpt lat="49.66499322094023" lon="9.005271848291159">
<ele>234.8</ele>
<time>2024-05-10T12:00:56Z</time>
</trkpt>
<trkpt lat="49.66500084847212" lon="9.005221305415034">
<ele>234.6</ele>
<time>2024-05-10T12:00:57Z</time>
</trkpt>
<trkpt lat="49.66501233167946" lon="9.005169840529561">
<ele>234.6</ele>
<time>2024-05-10T12:00:58Z</time>
</trkpt>
<trkpt lat="49.66502373106778" lon="9.005120219662786">
<ele>234.4</ele>
<time>2024-05-10T12:00:59Z</time>
</trkpt>
<trkpt lat="49.66503898613155" lon="9.005066826939583">
<ele>234.4</ele>
<time>2024-05-10T12:01:00Z</time>
</trkpt>
<trkpt lat="49.665050469338894" lon="9.00501536205411">
<ele>234.2</ele>
<time>2024-05-10T12:01:01Z</time>
</trkpt>
<trkpt lat="49.66506186872721" lon="9.004961885511875">
<ele>234.2</ele>
<time>2024-05-10T12:01:02Z</time>
</trkpt>
<trkpt lat="49.66507335193455" lon="9.004908492788672">
<ele>234</ele>
<time>2024-05-10T12:01:03Z</time>
</trkpt>
<trkpt lat="49.66508097946644" lon="9.00485510006547">
<ele>233.8</ele>
<time>2024-05-10T12:01:04Z</time>
</trkpt>
<trkpt lat="49.66508860699832" lon="9.004801707342267">
<ele>233.8</ele>
<time>2024-05-10T12:01:05Z</time>
</trkpt>
<trkpt lat="49.66510009020567" lon="9.004746386781335">
<ele>233.6</ele>
<time>2024-05-10T12:01:06Z</time>
</trkpt>
<trkpt lat="49.66511534526944" lon="9.004692072048783">
<ele>233.4</ele>
<time>2024-05-10T12:01:07Z</time>
</trkpt>
<trkpt lat="49.66513437218964" lon="9.004632895812392">
<ele>233.2</ele>
<time>2024-05-10T12:01:08Z</time>
</trkpt>
<trkpt lat="49.665145855396986" lon="9.004568019881845">
<ele>233</ele>
<time>2024-05-10T12:01:09Z</time>
</trkpt>
<trkpt lat="49.665164882317185" lon="9.004505155608058">
<ele>232.8</ele>
<time>2024-05-10T12:01:10Z</time>
</trkpt>
<trkpt lat="49.66517636552453" lon="9.00444120168686">
<ele>232.6</ele>
<time>2024-05-10T12:01:11Z</time>
</trkpt>
<trkpt lat="49.6651916205883" lon="9.004376409575343">
<ele>232.6</ele>
<time>2024-05-10T12:01:12Z</time>
</trkpt>
<trkpt lat="49.665206875652075" lon="9.004308683797717">
<ele>232.4</ele>
<time>2024-05-10T12:01:13Z</time>
</trkpt>
<trkpt lat="49.66522213071585" lon="9.00424188002944">
<ele>232.4</ele>
<time>2024-05-10T12:01:14Z</time>
</trkpt>
<trkpt lat="49.66524124145508" lon="9.004173232242465">
<ele>232.2</ele>
<time>2024-05-10T12:01:15Z</time>
</trkpt>
<trkpt lat="49.66525264084339" lon="9.00410458445549">
<ele>232.2</ele>
<time>2024-05-10T12:01:16Z</time>
</trkpt>
<trkpt lat="49.66526789590717" lon="9.004034930840135">
<ele>232.2</ele>
<time>2024-05-10T12:01:17Z</time>
</trkpt>
<trkpt lat="49.665283150970936" lon="9.00396628305316">
<ele>232.2</ele>
<time>2024-05-10T12:01:18Z</time>
</trkpt>
<trkpt lat="49.66529840603471" lon="9.003898557275534">
<ele>232.2</ele>
<time>2024-05-10T12:01:19Z</time>
</trkpt>
<trkpt lat="49.66531366109848" lon="9.003831837326288">
<ele>232.2</ele>
<time>2024-05-10T12:01:20Z</time>
</trkpt>
<trkpt lat="49.66532891616225" lon="9.003765033558011">
<ele>232</ele>
<time>2024-05-10T12:01:21Z</time>
</trkpt>
<trkpt lat="49.665344171226025" lon="9.003696385771036">
<ele>232</ele>
<time>2024-05-10T12:01:22Z</time>
</trkpt>
<trkpt lat="49.66535565443337" lon="9.003631509840488">
<ele>231.8</ele>
<time>2024-05-10T12:01:23Z</time>
</trkpt>
<trkpt lat="49.66536705382168" lon="9.00356956757605">
<ele>231.6</ele>
<time>2024-05-10T12:01:24Z</time>
</trkpt>
<trkpt lat="49.665382308885455" lon="9.003510475158691">
<ele>231.4</ele>
<time>2024-05-10T12:01:25Z</time>
</trkpt>
<trkpt lat="49.66539756394923" lon="9.0034512989223">
<ele>231.2</ele>
<time>2024-05-10T12:01:26Z</time>
</trkpt>
<trkpt lat="49.66541290283203" lon="9.00339120067656">
<ele>231.2</ele>
<time>2024-05-10T12:01:27Z</time>
</trkpt>
<trkpt lat="49.6654281578958" lon="9.003330180421472">
<ele>231</ele>
<time>2024-05-10T12:01:28Z</time>
</trkpt>
<trkpt lat="49.66543578542769" lon="9.003265304490924">
<ele>230.8</ele>
<time>2024-05-10T12:01:29Z</time>
</trkpt>
<trkpt lat="49.665443412959576" lon="9.003196656703949">
<ele>230.6</ele>
<time>2024-05-10T12:01:30Z</time>
</trkpt>
<trkpt lat="49.66545104049146" lon="9.003128008916974">
<ele>230.4</ele>
<time>2024-05-10T12:01:31Z</time>
</trkpt>
<trkpt lat="49.66545481234789" lon="9.003061288967729">
<ele>230.2</ele>
<time>2024-05-10T12:01:32Z</time>
</trkpt>
<trkpt lat="49.66545481234789" lon="9.002996413037181">
<ele>230</ele>
<time>2024-05-10T12:01:33Z</time>
</trkpt>
<trkpt lat="49.66545481234789" lon="9.002929609268904">
<ele>229.8</ele>
<time>2024-05-10T12:01:34Z</time>
</trkpt>
<trkpt lat="49.66545866802335" lon="9.002868589013815">
<ele>229.6</ele>
<time>2024-05-10T12:01:35Z</time>
</trkpt>
<trkpt lat="49.66547006741166" lon="9.00280186906457">
<ele>229.4</ele>
<time>2024-05-10T12:01:36Z</time>
</trkpt>
<trkpt lat="49.665481550619006" lon="9.002737998962402">
<ele>229.4</ele>
<time>2024-05-10T12:01:37Z</time>
</trkpt>
<trkpt lat="49.66549680568278" lon="9.002677900716662">
<ele>229.2</ele>
<time>2024-05-10T12:01:38Z</time>
</trkpt>
<trkpt lat="49.665504433214664" lon="9.002618724480271">
<ele>229.2</ele>
<time>2024-05-10T12:01:39Z</time>
</trkpt>
<trkpt lat="49.66550820507109" lon="9.002558626234531">
<ele>229</ele>
<time>2024-05-10T12:01:40Z</time>
</trkpt>
<trkpt lat="49.66551206074655" lon="9.002496683970094">
<ele>229</ele>
<time>2024-05-10T12:01:41Z</time>
</trkpt>
<trkpt lat="49.66551583260298" lon="9.002434657886624">
<ele>229</ele>
<time>2024-05-10T12:01:42Z</time>
</trkpt>
<trkpt lat="49.66551206074655" lon="9.002371709793806">
<ele>229</ele>
<time>2024-05-10T12:01:43Z</time>
</trkpt>
<trkpt lat="49.66550820507109" lon="9.002307839691639">
<ele>229</ele>
<time>2024-05-10T12:01:44Z</time>
</trkpt>
<trkpt lat="49.66550820507109" lon="9.00224489159882">
<ele>228.8</ele>
<time>2024-05-10T12:01:45Z</time>
</trkpt>
<trkpt lat="49.665504433214664" lon="9.002181943506002">
<ele>228.8</ele>
<time>2024-05-10T12:01:46Z</time>
</trkpt>
<trkpt lat="49.66549680568278" lon="9.002120001241565">
<ele>228.6</ele>
<time>2024-05-10T12:01:47Z</time>
</trkpt>
<trkpt lat="49.66549295000732" lon="9.002063674852252">
<ele>228.6</ele>
<time>2024-05-10T12:01:48Z</time>
</trkpt>
<trkpt lat="49.66548917815089" lon="9.002004582434893">
<ele>228.4</ele>
<time>2024-05-10T12:01:49Z</time>
</trkpt>
<trkpt lat="49.66548532247543" lon="9.001948339864612">
<ele>228.4</ele>
<time>2024-05-10T12:01:50Z</time>
</trkpt>
<trkpt lat="49.66547769494355" lon="9.00189301930368">
<ele>228.4</ele>
<time>2024-05-10T12:01:51Z</time>
</trkpt>
<trkpt lat="49.66547006741166" lon="9.001843398436904">
<ele>228.4</ele>
<time>2024-05-10T12:01:52Z</time>
</trkpt>
<trkpt lat="49.665462439879775" lon="9.001794783398509">
<ele>228.4</ele>
<time>2024-05-10T12:01:53Z</time>
</trkpt>
<trkpt lat="49.66545866802335" lon="9.001753795892">
<ele>228.6</ele>
<time>2024-05-10T12:01:54Z</time>
</trkpt>
<trkpt lat="49.66545481234789" lon="9.001720352098346">
<ele>228.6</ele>
<time>2024-05-10T12:01:55Z</time>
</trkpt>
<trkpt lat="49.66545481234789" lon="9.001696547493339">
<ele>228.6</ele>
<time>2024-05-10T12:01:56Z</time>
</trkpt>
<trkpt lat="49.66545104049146" lon="9.00167173705995">
<ele>228.8</ele>
<time>2024-05-10T12:01:57Z</time>
</trkpt>
<trkpt lat="49.665447184816" lon="9.00165170431137">
<ele>228.8</ele>
<time>2024-05-10T12:01:58Z</time>
</trkpt>
<trkpt lat="49.665447184816" lon="9.001629827544093">
<ele>228.8</ele>
<time>2024-05-10T12:01:59Z</time>
</trkpt>
<trkpt lat="49.665447184816" lon="9.00161356665194">
<ele>228.8</ele>
<time>2024-05-10T12:02:00Z</time>
</trkpt>
<trkpt lat="49.665447184816" lon="9.001607866957784">
<ele>228.8</ele>
<time>2024-05-10T12:02:01Z</time>
</trkpt>
<trkpt lat="49.665443412959576" lon="9.001607866957784">
<ele>228.8</ele>
<time>2024-05-10T12:02:08Z</time>
</trkpt>
<trkpt lat="49.665443412959576" lon="9.001603089272976">
<ele>228.8</ele>
<time>2024-05-10T12:02:10Z</time>
</trkpt>
<trkpt lat="49.665443412959576" lon="9.001600239425898">
<ele>229</ele>
<time>2024-05-10T12:02:11Z</time>
</trkpt>
<trkpt lat="49.665443412959576" lon="9.001598311588168">
<ele>229</ele>
<time>2024-05-10T12:02:14Z</time>
</trkpt>
<trkpt lat="49.66543955728412" lon="9.001596383750439">
<ele>229</ele>
<time>2024-05-10T12:02:16Z</time>
</trkpt>
<trkpt lat="49.66543955728412" lon="9.001594539731741">
<ele>229</ele>
<time>2024-05-10T12:02:17Z</time>
</trkpt>
<trkpt lat="49.66543955728412" lon="9.001589762046933">
<ele>229.2</ele>
<time>2024-05-10T12:02:18Z</time>
</trkpt>
<trkpt lat="49.66543578542769" lon="9.001586912199855">
<ele>229.2</ele>
<time>2024-05-10T12:02:19Z</time>
</trkpt>
<trkpt lat="49.66543578542769" lon="9.001587834209204">
<ele>229.2</ele>
<time>2024-05-10T12:02:20Z</time>
</trkpt>
<trkpt lat="49.66543578542769" lon="9.001584984362125">
<ele>229.2</ele>
<time>2024-05-10T12:02:22Z</time>
</trkpt>
<trkpt lat="49.6654281578958" lon="9.001578278839588">
<ele>229.2</ele>
<time>2024-05-10T12:02:23Z</time>
</trkpt>
<trkpt lat="49.66543192975223" lon="9.001576351001859">
<ele>229.4</ele>
<time>2024-05-10T12:02:24Z</time>
</trkpt>
<trkpt lat="49.6654281578958" lon="9.001578278839588">
<ele>229.4</ele>
<time>2024-05-10T12:02:25Z</time>
</trkpt>
<trkpt lat="49.6654281578958" lon="9.001581128686666">
<ele>229.4</ele>
<time>2024-05-10T12:02:26Z</time>
</trkpt>
<trkpt lat="49.6654281578958" lon="9.001607866957784">
<ele>229.4</ele>
<time>2024-05-10T12:02:27Z</time>
</trkpt>
<trkpt lat="49.6654281578958" lon="9.001643154770136">
<ele>229.4</ele>
<time>2024-05-10T12:02:28Z</time>
</trkpt>
<trkpt lat="49.66543192975223" lon="9.001689841970801">
<ele>229.4</ele>
<time>2024-05-10T12:02:29Z</time>
</trkpt>
<trkpt lat="49.66543955728412" lon="9.001749940216541">
<ele>229.4</ele>
<time>2024-05-10T12:02:30Z</time>
</trkpt>
<trkpt lat="49.665447184816" lon="9.001810038462281">
<ele>229.4</ele>
<time>2024-05-10T12:02:31Z</time>
</trkpt>
<trkpt lat="49.66545481234789" lon="9.001865359023213">
<ele>229.4</ele>
<time>2024-05-10T12:02:32Z</time>
</trkpt>
<trkpt lat="49.665462439879775" lon="9.001925457268953">
<ele>229.4</ele>
<time>2024-05-10T12:02:33Z</time>
</trkpt>
<trkpt lat="49.66547006741166" lon="9.001984549686313">
<ele>229.4</ele>
<time>2024-05-10T12:02:34Z</time>
</trkpt>
<trkpt lat="49.665481550619006" lon="9.002044647932053">
<ele>229.4</ele>
<time>2024-05-10T12:02:35Z</time>
</trkpt>
<trkpt lat="49.66548917815089" lon="9.002103740349412">
<ele>229.4</ele>
<time>2024-05-10T12:02:36Z</time>
</trkpt>
<trkpt lat="49.66549680568278" lon="9.002161910757422">
<ele>229.4</ele>
<time>2024-05-10T12:02:37Z</time>
</trkpt>
<trkpt lat="49.66549680568278" lon="9.00222485885024">
<ele>229.4</ele>
<time>2024-05-10T12:02:38Z</time>
</trkpt>
<trkpt lat="49.66549680568278" lon="9.002287806943059">
<ele>229.4</ele>
<time>2024-05-10T12:02:39Z</time>
</trkpt>
<trkpt lat="49.66549680568278" lon="9.002353604882956">
<ele>229.4</ele>
<time>2024-05-10T12:02:40Z</time>
</trkpt>
<trkpt lat="49.66549680568278" lon="9.002411775290966">
<ele>229.4</ele>
<time>2024-05-10T12:02:41Z</time>
</trkpt>
<trkpt lat="49.66549680568278" lon="9.002451840788126">
<ele>229.4</ele>
<time>2024-05-10T12:02:42Z</time>
</trkpt>
<trkpt lat="49.66549295000732" lon="9.00248620659113">
<ele>229.4</ele>
<time>2024-05-10T12:02:43Z</time>
</trkpt>
<trkpt lat="49.66549295000732" lon="9.002521494403481">
<ele>229.4</ele>
<time>2024-05-10T12:02:44Z</time>
</trkpt>
<trkpt lat="49.66548532247543" lon="9.002552926540375">
<ele>229.4</ele>
<time>2024-05-10T12:02:45Z</time>
</trkpt>
<trkpt lat="49.66548532247543" lon="9.002581592649221">
<ele>229.4</ele>
<time>2024-05-10T12:02:46Z</time>
</trkpt>
<trkpt lat="49.665481550619006" lon="9.002613024786115">
<ele>229.4</ele>
<time>2024-05-10T12:02:47Z</time>
</trkpt>
<trkpt lat="49.66547769494355" lon="9.002648312598467">
<ele>229.4</ele>
<time>2024-05-10T12:02:48Z</time>
</trkpt>
<trkpt lat="49.66547392308712" lon="9.002684522420168">
<ele>229.4</ele>
<time>2024-05-10T12:02:49Z</time>
</trkpt>
<trkpt lat="49.665466295555234" lon="9.002735065296292">
<ele>229.4</ele>
<time>2024-05-10T12:02:50Z</time>
</trkpt>
<trkpt lat="49.66545481234789" lon="9.00278183631599">
<ele>229.4</ele>
<time>2024-05-10T12:02:51Z</time>
</trkpt>
<trkpt lat="49.665443412959576" lon="9.002836151048541">
<ele>229.4</ele>
<time>2024-05-10T12:02:52Z</time>
</trkpt>
<trkpt lat="49.66543955728412" lon="9.002896249294281">
<ele>229.4</ele>
<time>2024-05-10T12:02:53Z</time>
</trkpt>
<trkpt lat="49.66543578542769" lon="9.002946792170405">
<ele>229.4</ele>
<time>2024-05-10T12:02:54Z</time>
</trkpt>
<trkpt lat="49.66543192975223" lon="9.002989707514644">
<ele>229.4</ele>
<time>2024-05-10T12:02:55Z</time>
</trkpt>
<trkpt lat="49.66543192975223" lon="9.003031700849533">
<ele>229.4</ele>
<time>2024-05-10T12:02:56Z</time>
</trkpt>
<trkpt lat="49.6654281578958" lon="9.003067910671234">
<ele>229.4</ele>
<time>2024-05-10T12:02:57Z</time>
</trkpt>
<trkpt lat="49.6654281578958" lon="9.003103198483586">
<ele>229.4</ele>
<time>2024-05-10T12:02:58Z</time>
</trkpt>
<trkpt lat="49.6654281578958" lon="9.00313370861113">
<ele>229.4</ele>
<time>2024-05-10T12:02:59Z</time>
</trkpt>
<trkpt lat="49.6654281578958" lon="9.003166146576405">
<ele>229.4</ele>
<time>2024-05-10T12:03:00Z</time>
</trkpt>
<trkpt lat="49.6654281578958" lon="9.003198584541678">
<ele>229.4</ele>
<time>2024-05-10T12:03:01Z</time>
</trkpt>
<trkpt lat="49.66543192975223" lon="9.003228172659874">
<ele>229.4</ele>
<time>2024-05-10T12:03:02Z</time>
</trkpt>
<trkpt lat="49.66543578542769" lon="9.003261532634497">
<ele>229.4</ele>
<time>2024-05-10T12:03:03Z</time>
</trkpt>
<trkpt lat="49.66543955728412" lon="9.003296820446849">
<ele>229.4</ele>
<time>2024-05-10T12:03:04Z</time>
</trkpt>
<trkpt lat="49.66545104049146" lon="9.003326408565044">
<ele>229.4</ele>
<time>2024-05-10T12:03:05Z</time>
</trkpt>
<trkpt lat="49.66547006741166" lon="9.00335306301713">
<ele>229.4</ele>
<time>2024-05-10T12:03:06Z</time>
</trkpt>
<trkpt lat="49.66549295000732" lon="9.00337502360344">
<ele>229.4</ele>
<time>2024-05-10T12:03:07Z</time>
</trkpt>
<trkpt lat="49.66551968827844" lon="9.003388350829482">
<ele>229.4</ele>
<time>2024-05-10T12:03:08Z</time>
</trkpt>
<trkpt lat="49.66555019840598" lon="9.003390278667212">
<ele>229.4</ele>
<time>2024-05-10T12:03:09Z</time>
</trkpt>
<trkpt lat="49.66559219174087" lon="9.003381729125977">
<ele>229.4</ele>
<time>2024-05-10T12:03:10Z</time>
</trkpt>
<trkpt lat="49.66563410125673" lon="9.003361696377397">
<ele>229.2</ele>
<time>2024-05-10T12:03:11Z</time>
</trkpt>
<trkpt lat="49.66567223891616" lon="9.003330180421472">
<ele>229.2</ele>
<time>2024-05-10T12:03:12Z</time>
</trkpt>
<trkpt lat="49.665718004107475" lon="9.003286343067884">
<ele>229</ele>
<time>2024-05-10T12:03:13Z</time>
</trkpt>
<trkpt lat="49.665763853117824" lon="9.003239572048187">
<ele>228.6</ele>
<time>2024-05-10T12:03:14Z</time>
</trkpt>
<trkpt lat="49.665801990777254" lon="9.003186179324985">
<ele>228.4</ele>
<time>2024-05-10T12:03:15Z</time>
</trkpt>
<trkpt lat="49.66584390029311" lon="9.003128008916974">
<ele>228</ele>
<time>2024-05-10T12:03:16Z</time>
</trkpt>
<trkpt lat="49.665878266096115" lon="9.003054583445191">
<ele>227.8</ele>
<time>2024-05-10T12:03:17Z</time>
</trkpt>
<trkpt lat="49.66590877622366" lon="9.00297830812633">
<ele>227.6</ele>
<time>2024-05-10T12:03:18Z</time>
</trkpt>
<trkpt lat="49.66593551449478" lon="9.002896249294281">
<ele>227.2</ele>
<time>2024-05-10T12:03:19Z</time>
</trkpt>
<trkpt lat="49.665958397090435" lon="9.002811424434185">
<ele>227</ele>
<time>2024-05-10T12:03:20Z</time>
</trkpt>
<trkpt lat="49.665977424010634" lon="9.00272173807025">
<ele>226.8</ele>
<time>2024-05-10T12:03:21Z</time>
</trkpt>
<trkpt lat="49.66599267907441" lon="9.002639763057232">
<ele>226.6</ele>
<time>2024-05-10T12:03:22Z</time>
</trkpt>
<trkpt lat="49.66600793413818" lon="9.002574887126684">
<ele>226.4</ele>
<time>2024-05-10T12:03:23Z</time>
</trkpt>
<trkpt lat="49.66602318920195" lon="9.002523422241211">
<ele>226.2</ele>
<time>2024-05-10T12:03:24Z</time>
</trkpt>
<trkpt lat="49.66604992747307" lon="9.002479501068592">
<ele>226</ele>
<time>2024-05-10T12:03:25Z</time>
</trkpt>
<trkpt lat="49.666076581925154" lon="9.002448068931699">
<ele>225.6</ele>
<time>2024-05-10T12:03:26Z</time>
</trkpt>
<trkpt lat="49.666114803403616" lon="9.002418480813503">
<ele>225.4</ele>
<time>2024-05-10T12:03:27Z</time>
</trkpt>
<trkpt lat="49.66615294106305" lon="9.002389898523688">
<ele>225</ele>
<time>2024-05-10T12:03:28Z</time>
</trkpt>
<trkpt lat="49.666194850578904" lon="9.002358382567763">
<ele>224.6</ele>
<time>2024-05-10T12:03:29Z</time>
</trkpt>
<trkpt lat="49.66624447144568" lon="9.002321166917682">
<ele>224.2</ele>
<time>2024-05-10T12:03:30Z</time>
</trkpt>
<trkpt lat="49.666294092312455" lon="9.002278251573443">
<ele>224</ele>
<time>2024-05-10T12:03:31Z</time>
</trkpt>
<trkpt lat="49.6663436293602" lon="9.0022287145257">
<ele>223.8</ele>
<time>2024-05-10T12:03:32Z</time>
</trkpt>
<trkpt lat="49.666393250226974" lon="9.002169538289309">
<ele>223.6</ele>
<time>2024-05-10T12:03:33Z</time>
</trkpt>
<trkpt lat="49.66643515974283" lon="9.00210659019649">
<ele>223.4</ele>
<time>2024-05-10T12:03:34Z</time>
</trkpt>
<trkpt lat="49.66647715307772" lon="9.002035092562437">
<ele>223</ele>
<time>2024-05-10T12:03:35Z</time>
</trkpt>
<trkpt lat="49.66651529073715" lon="9.001963594928384">
<ele>222.6</ele>
<time>2024-05-10T12:03:36Z</time>
</trkpt>
<trkpt lat="49.666549656540155" lon="9.001885391771793">
<ele>222</ele>
<time>2024-05-10T12:03:37Z</time>
</trkpt>
<trkpt lat="49.6665801666677" lon="9.001810038462281">
<ele>221.6</ele>
<time>2024-05-10T12:03:38Z</time>
</trkpt>
<trkpt lat="49.66660304926336" lon="9.001734685152769">
<ele>221.2</ele>
<time>2024-05-10T12:03:39Z</time>
</trkpt>
<trkpt lat="49.666629787534475" lon="9.001658409833908">
<ele>220.8</ele>
<time>2024-05-10T12:03:40Z</time>
</trkpt>
<trkpt lat="49.666648814454675" lon="9.001576351001859">
<ele>220.6</ele>
<time>2024-05-10T12:03:41Z</time>
</trkpt>
<trkpt lat="49.66666406951845" lon="9.00149529799819">
<ele>220.4</ele>
<time>2024-05-10T12:03:42Z</time>
</trkpt>
<trkpt lat="49.66668318025768" lon="9.00141617283225">
<ele>220</ele>
<time>2024-05-10T12:03:43Z</time>
</trkpt>
<trkpt lat="49.66669843532145" lon="9.00133989751339">
<ele>219.8</ele>
<time>2024-05-10T12:03:44Z</time>
</trkpt>
<trkpt lat="49.66670983470976" lon="9.001266472041607">
<ele>219.4</ele>
<time>2024-05-10T12:03:45Z</time>
</trkpt>
<trkpt lat="49.666725089773536" lon="9.001193046569824">
<ele>219.2</ele>
<time>2024-05-10T12:03:46Z</time>
</trkpt>
<trkpt lat="49.66673657298088" lon="9.00112146511674">
<ele>218.8</ele>
<time>2024-05-10T12:03:47Z</time>
</trkpt>
<trkpt lat="49.66674034483731" lon="9.001049967482686">
<ele>218.4</ele>
<time>2024-05-10T12:03:48Z</time>
</trkpt>
<trkpt lat="49.66675182804465" lon="9.000971764326096">
<ele>218</ele>
<time>2024-05-10T12:03:49Z</time>
</trkpt>
<trkpt lat="49.66675945557654" lon="9.000896411016583">
<ele>217.6</ele>
<time>2024-05-10T12:03:50Z</time>
</trkpt>
<trkpt lat="49.666767083108425" lon="9.000820135697722">
<ele>217.2</ele>
<time>2024-05-10T12:03:51Z</time>
</trkpt>
<trkpt lat="49.66677471064031" lon="9.00074285455048">
<ele>217.4</ele>
<time>2024-05-10T12:03:52Z</time>
</trkpt>
<trkpt lat="49.6667823381722" lon="9.00066465139389">
<ele>217.4</ele>
<time>2024-05-10T12:03:53Z</time>
</trkpt>
<trkpt lat="49.66678996570408" lon="9.000591225922108">
<ele>217</ele>
<time>2024-05-10T12:03:54Z</time>
</trkpt>
<trkpt lat="49.66678996570408" lon="9.000516878440976">
<ele>216.8</ele>
<time>2024-05-10T12:03:55Z</time>
</trkpt>
<trkpt lat="49.66679759323597" lon="9.000450074672699">
<ele>216.4</ele>
<time>2024-05-10T12:03:56Z</time>
</trkpt>
<trkpt lat="49.666809076443315" lon="9.000389976426959">
<ele>216</ele>
<time>2024-05-10T12:03:57Z</time>
</trkpt>
<trkpt lat="49.66682433150709" lon="9.000336583703756">
<ele>215.8</ele>
<time>2024-05-10T12:03:58Z</time>
</trkpt>
<trkpt lat="49.666847214102745" lon="9.000294674187899">
<ele>215.6</ele>
<time>2024-05-10T12:03:59Z</time>
</trkpt>
<trkpt lat="49.66687772423029" lon="9.000278413295746">
<ele>215.6</ele>
<time>2024-05-10T12:04:00Z</time>
</trkpt>
<trkpt lat="49.66691963374615" lon="9.000298446044326">
<ele>215.4</ele>
<time>2024-05-10T12:04:01Z</time>
</trkpt>
<trkpt lat="49.66696162708104" lon="9.000340439379215">
<ele>215.2</ele>
<time>2024-05-10T12:04:02Z</time>
</trkpt>
<trkpt lat="49.66700739227235" lon="9.000391904264688">
<ele>214.8</ele>
<time>2024-05-10T12:04:03Z</time>
</trkpt>
<trkpt lat="49.66705701313913" lon="9.000439597293735">
<ele>214.2</ele>
<time>2024-05-10T12:04:04Z</time>
</trkpt>
<trkpt lat="49.667102778330445" lon="9.00048821233213">
<ele>213.8</ele>
<time>2024-05-10T12:04:05Z</time>
</trkpt>
<trkpt lat="49.667144771665335" lon="9.000534983351827">
<ele>213.4</ele>
<time>2024-05-10T12:04:06Z</time>
</trkpt>
<trkpt lat="49.66718668118119" lon="9.000579826533794">
<ele>213.2</ele>
<time>2024-05-10T12:04:07Z</time>
</trkpt>
<trkpt lat="49.66722867451608" lon="9.000623663887382">
<ele>213</ele>
<time>2024-05-10T12:04:08Z</time>
</trkpt>
<trkpt lat="49.66727058403194" lon="9.000659873709083">
<ele>212.8</ele>
<time>2024-05-10T12:04:09Z</time>
</trkpt>
<trkpt lat="49.6673088055104" lon="9.000698011368513">
<ele>212.4</ele>
<time>2024-05-10T12:04:10Z</time>
</trkpt>
<trkpt lat="49.66735071502626" lon="9.000731455162168">
<ele>212.2</ele>
<time>2024-05-10T12:04:11Z</time>
</trkpt>
<trkpt lat="49.66738885268569" lon="9.00076481513679">
<ele>212.2</ele>
<time>2024-05-10T12:04:12Z</time>
</trkpt>
<trkpt lat="49.66742699034512" lon="9.000800102949142">
<ele>212</ele>
<time>2024-05-10T12:04:13Z</time>
</trkpt>
<trkpt lat="49.66746898368001" lon="9.000833462923765">
<ele>211.8</ele>
<time>2024-05-10T12:04:14Z</time>
</trkpt>
<trkpt lat="49.66750334948301" lon="9.000868750736117">
<ele>211.6</ele>
<time>2024-05-10T12:04:15Z</time>
</trkpt>
<trkpt lat="49.667537631466985" lon="9.000900266692042">
<ele>211.4</ele>
<time>2024-05-10T12:04:16Z</time>
</trkpt>
<trkpt lat="49.66757199726999" lon="9.000931698828936">
<ele>211.2</ele>
<time>2024-05-10T12:04:17Z</time>
</trkpt>
<trkpt lat="49.66760627925396" lon="9.00096028111875">
<ele>211</ele>
<time>2024-05-10T12:04:18Z</time>
</trkpt>
<trkpt lat="49.66764064505696" lon="9.000978469848633">
<ele>210.8</ele>
<time>2024-05-10T12:04:19Z</time>
</trkpt>
<trkpt lat="49.667675010859966" lon="9.000989869236946">
<ele>210.4</ele>
<time>2024-05-10T12:04:20Z</time>
</trkpt>
<trkpt lat="49.6677131485194" lon="9.00100034661591">
<ele>210.2</ele>
<time>2024-05-10T12:04:21Z</time>
</trkpt>
<trkpt lat="49.66774365864694" lon="9.001001352444291">
<ele>209.8</ele>
<time>2024-05-10T12:04:22Z</time>
</trkpt>
<trkpt lat="49.66777794063091" lon="9.001001352444291">
<ele>209.4</ele>
<time>2024-05-10T12:04:23Z</time>
</trkpt>
<trkpt lat="49.66780845075846" lon="9.001001352444291">
<ele>209</ele>
<time>2024-05-10T12:04:24Z</time>
</trkpt>
<trkpt lat="49.66784281656146" lon="9.001005124300718">
<ele>208.6</ele>
<time>2024-05-10T12:04:25Z</time>
</trkpt>
<trkpt lat="49.66786955483258" lon="9.00102037936449">
<ele>208.2</ele>
<time>2024-05-10T12:04:26Z</time>
</trkpt>
<trkpt lat="49.66790006496012" lon="9.001048039644957">
<ele>207.6</ele>
<time>2024-05-10T12:04:27Z</time>
</trkpt>
<trkpt lat="49.66792671941221" lon="9.001092882826924">
<ele>207.2</ele>
<time>2024-05-10T12:04:28Z</time>
</trkpt>
<trkpt lat="49.66794197447598" lon="9.001143425703049">
<ele>206.8</ele>
<time>2024-05-10T12:04:29Z</time>
</trkpt>
<trkpt lat="49.667953457683325" lon="9.00117963552475">
<ele>206.4</ele>
<time>2024-05-10T12:04:30Z</time>
</trkpt>
<trkpt lat="49.66796485707164" lon="9.001212995499372">
<ele>206.2</ele>
<time>2024-05-10T12:04:31Z</time>
</trkpt>
<trkpt lat="49.66797634027898" lon="9.00124166160822">
<ele>205.8</ele>
<time>2024-05-10T12:04:32Z</time>
</trkpt>
<trkpt lat="49.667991595342755" lon="9.001266472041607">
<ele>205.6</ele>
<time>2024-05-10T12:04:33Z</time>
</trkpt>
<trkpt lat="49.668010706081986" lon="9.001291198655963">
<ele>205.4</ele>
<time>2024-05-10T12:04:34Z</time>
</trkpt>
<trkpt lat="49.668029733002186" lon="9.001315087080002">
<ele>205</ele>
<time>2024-05-10T12:04:35Z</time>
</trkpt>
<trkpt lat="49.66804884374142" lon="9.00133796967566">
<ele>204.8</ele>
<time>2024-05-10T12:04:36Z</time>
</trkpt>
<trkpt lat="49.668067870661616" lon="9.001361774280667">
<ele>204.4</ele>
<time>2024-05-10T12:04:37Z</time>
</trkpt>
<trkpt lat="49.66808312572539" lon="9.001383734866977">
<ele>204.2</ele>
<time>2024-05-10T12:04:38Z</time>
</trkpt>
<trkpt lat="49.66810223646462" lon="9.001408545300364">
<ele>204</ele>
<time>2024-05-10T12:04:39Z</time>
</trkpt>
<trkpt lat="49.66812511906028" lon="9.001433355733752">
<ele>203.8</ele>
<time>2024-05-10T12:04:40Z</time>
</trkpt>
<trkpt lat="49.66815177351236" lon="9.001460010185838">
<ele>203.6</ele>
<time>2024-05-10T12:04:41Z</time>
</trkpt>
<trkpt lat="49.668170884251595" lon="9.001488676294684">
<ele>203.4</ele>
<time>2024-05-10T12:04:42Z</time>
</trkpt>
<trkpt lat="49.66818613931537" lon="9.001504853367805">
<ele>203.2</ele>
<time>2024-05-10T12:04:43Z</time>
</trkpt>
<trkpt lat="49.6682052500546" lon="9.001508709043264">
<ele>203</ele>
<time>2024-05-10T12:04:44Z</time>
</trkpt>
<trkpt lat="49.668228132650256" lon="9.001493453979492">
<ele>202.8</ele>
<time>2024-05-10T12:04:45Z</time>
</trkpt>
<trkpt lat="49.668251015245914" lon="9.001462860032916">
<ele>202.8</ele>
<time>2024-05-10T12:04:46Z</time>
</trkpt>
<trkpt lat="49.668277669698" lon="9.001429500058293">
<ele>202.6</ele>
<time>2024-05-10T12:04:47Z</time>
</trkpt>
<trkpt lat="49.66830440796912" lon="9.00139706209302">
<ele>202.6</ele>
<time>2024-05-10T12:04:48Z</time>
</trkpt>
<trkpt lat="49.66833491809666" lon="9.001361774280667">
<ele>202.4</ele>
<time>2024-05-10T12:04:49Z</time>
</trkpt>
<trkpt lat="49.668369283899665" lon="9.001326486468315">
<ele>202.4</ele>
<time>2024-05-10T12:04:50Z</time>
</trkpt>
<trkpt lat="49.66839979402721" lon="9.001293126493692">
<ele>202.4</ele>
<time>2024-05-10T12:04:51Z</time>
</trkpt>
<trkpt lat="49.668430304154754" lon="9.00125976651907">
<ele>202.4</ele>
<time>2024-05-10T12:04:52Z</time>
</trkpt>
<trkpt lat="49.668464586138725" lon="9.00123780593276">
<ele>202.4</ele>
<time>2024-05-10T12:04:53Z</time>
</trkpt>
<trkpt lat="49.66849895194173" lon="9.00121877901256">
<ele>202.4</ele>
<time>2024-05-10T12:04:54Z</time>
</trkpt>
<trkpt lat="49.66853331774473" lon="9.00119966827333">
<ele>202.6</ele>
<time>2024-05-10T12:04:55Z</time>
</trkpt>
<trkpt lat="49.66856382787227" lon="9.001186341047287">
<ele>202.6</ele>
<time>2024-05-10T12:04:56Z</time>
</trkpt>
<trkpt lat="49.66860196553171" lon="9.001174857839942">
<ele>202.8</ele>
<time>2024-05-10T12:04:57Z</time>
</trkpt>
<trkpt lat="49.66864010319114" lon="9.001168236136436">
<ele>203</ele>
<time>2024-05-10T12:04:58Z</time>
</trkpt>
<trkpt lat="49.66866675764322" lon="9.00115960277617">
<ele>203</ele>
<time>2024-05-10T12:04:59Z</time>
</trkpt>
<trkpt lat="49.668701123446226" lon="9.001150131225586">
<ele>203.2</ele>
<time>2024-05-10T12:05:00Z</time>
</trkpt>
<trkpt lat="49.66872786171734" lon="9.00114149786532">
<ele>203.4</ele>
<time>2024-05-10T12:05:01Z</time>
</trkpt>
<trkpt lat="49.66875837184489" lon="9.001128170639277">
<ele>203.4</ele>
<time>2024-05-10T12:05:02Z</time>
</trkpt>
<trkpt lat="49.66878502629697" lon="9.001116687431931">
<ele>203.4</ele>
<time>2024-05-10T12:05:03Z</time>
</trkpt>
<trkpt lat="49.66881176456809" lon="9.00110143236816">
<ele>203.6</ele>
<time>2024-05-10T12:05:04Z</time>
</trkpt>
<trkpt lat="49.668838419020176" lon="9.001088105142117">
<ele>203.6</ele>
<time>2024-05-10T12:05:05Z</time>
</trkpt>
<trkpt lat="49.668861385434866" lon="9.001074777916074">
<ele>203.4</ele>
<time>2024-05-10T12:05:06Z</time>
</trkpt>
<trkpt lat="49.668880412355065" lon="9.001059522852302">
<ele>203.4</ele>
<time>2024-05-10T12:05:07Z</time>
</trkpt>
<trkpt lat="49.66890329495072" lon="9.00104133412242">
<ele>203.4</ele>
<time>2024-05-10T12:05:08Z</time>
</trkpt>
<trkpt lat="49.668922405689955" lon="9.001027084887028">
<ele>203.2</ele>
<time>2024-05-10T12:05:09Z</time>
</trkpt>
<trkpt lat="49.66893380507827" lon="9.001005124300718">
<ele>203.2</ele>
<time>2024-05-10T12:05:10Z</time>
</trkpt>
<trkpt lat="49.66894528828561" lon="9.000993724912405">
<ele>203.2</ele>
<time>2024-05-10T12:05:11Z</time>
</trkpt>
<trkpt lat="49.668956687673926" lon="9.00098031386733">
<ele>203.2</ele>
<time>2024-05-10T12:05:12Z</time>
</trkpt>
<trkpt lat="49.66896817088127" lon="9.000967908650637">
<ele>203</ele>
<time>2024-05-10T12:05:13Z</time>
</trkpt>
<trkpt lat="49.66898342594504" lon="9.000949803739786">
<ele>203</ele>
<time>2024-05-10T12:05:14Z</time>
</trkpt>
<trkpt lat="49.668998681008816" lon="9.000931698828936">
<ele>203</ele>
<time>2024-05-10T12:05:15Z</time>
</trkpt>
<trkpt lat="49.669021563604474" lon="9.000916443765163">
<ele>203</ele>
<time>2024-05-10T12:05:16Z</time>
</trkpt>
<trkpt lat="49.669040674343705" lon="9.000900266692042">
<ele>203</ele>
<time>2024-05-10T12:05:17Z</time>
</trkpt>
<trkpt lat="49.669059701263905" lon="9.000889705494046">
<ele>203</ele>
<time>2024-05-10T12:05:18Z</time>
</trkpt>
<trkpt lat="49.66908258385956" lon="9.000884927809238">
<ele>203</ele>
<time>2024-05-10T12:05:19Z</time>
</trkpt>
<trkpt lat="49.669097838923335" lon="9.000880233943462">
<ele>203</ele>
<time>2024-05-10T12:05:20Z</time>
</trkpt>
<trkpt lat="49.66911309398711" lon="9.000875456258655">
<ele>203</ele>
<time>2024-05-10T12:05:21Z</time>
</trkpt>
<trkpt lat="49.66912834905088" lon="9.00086497887969">
<ele>203.2</ele>
<time>2024-05-10T12:05:22Z</time>
</trkpt>
<trkpt lat="49.66914360411465" lon="9.000856345519423">
<ele>203.2</ele>
<time>2024-05-10T12:05:23Z</time>
</trkpt>
<trkpt lat="49.66916271485388" lon="9.000848717987537">
<ele>203.4</ele>
<time>2024-05-10T12:05:24Z</time>
</trkpt>
<trkpt lat="49.669177969917655" lon="9.000831535086036">
<ele>203.4</ele>
<time>2024-05-10T12:05:25Z</time>
</trkpt>
<trkpt lat="49.669197080656886" lon="9.000813430175185">
<ele>203.6</ele>
<time>2024-05-10T12:05:26Z</time>
</trkpt>
<trkpt lat="49.669216107577085" lon="9.000796247273684">
<ele>203.6</ele>
<time>2024-05-10T12:05:27Z</time>
</trkpt>
<trkpt lat="49.66923521831632" lon="9.000781998038292">
<ele>203.8</ele>
<time>2024-05-10T12:05:28Z</time>
</trkpt>
<trkpt lat="49.66925424523651" lon="9.000771520659328">
<ele>203.8</ele>
<time>2024-05-10T12:05:29Z</time>
</trkpt>
<trkpt lat="49.66928098350763" lon="9.000773364678025">
<ele>203.8</ele>
<time>2024-05-10T12:05:30Z</time>
</trkpt>
<trkpt lat="49.66930763795972" lon="9.000771520659328">
<ele>204</ele>
<time>2024-05-10T12:05:31Z</time>
</trkpt>
<trkpt lat="49.66933052055538" lon="9.000771520659328">
<ele>204</ele>
<time>2024-05-10T12:05:32Z</time>
</trkpt>
<trkpt lat="49.669357258826494" lon="9.000775292515755">
<ele>204</ele>
<time>2024-05-10T12:05:33Z</time>
</trkpt>
<trkpt lat="49.66938399709761" lon="9.000771520659328">
<ele>204</ele>
<time>2024-05-10T12:05:34Z</time>
</trkpt>
<trkpt lat="49.66940687969327" lon="9.00076481513679">
<ele>204</ele>
<time>2024-05-10T12:05:35Z</time>
</trkpt>
<trkpt lat="49.669433534145355" lon="9.000753331929445">
<ele>204</ele>
<time>2024-05-10T12:05:36Z</time>
</trkpt>
<trkpt lat="49.66946027241647" lon="9.000740004703403">
<ele>204</ele>
<time>2024-05-10T12:05:37Z</time>
</trkpt>
<trkpt lat="49.66948315501213" lon="9.00072667747736">
<ele>203.8</ele>
<time>2024-05-10T12:05:38Z</time>
</trkpt>
<trkpt lat="49.669509809464216" lon="9.000718044117093">
<ele>203.8</ele>
<time>2024-05-10T12:05:39Z</time>
</trkpt>
<trkpt lat="49.66954040341079" lon="9.00070857256651">
<ele>203.6</ele>
<time>2024-05-10T12:05:40Z</time>
</trkpt>
<trkpt lat="49.66957468539477" lon="9.000701867043972">
<ele>203.6</ele>
<time>2024-05-10T12:05:41Z</time>
</trkpt>
<trkpt lat="49.66960905119777" lon="9.000697089359164">
<ele>203.6</ele>
<time>2024-05-10T12:05:42Z</time>
</trkpt>
<trkpt lat="49.66964333318174" lon="9.000690383836627">
<ele>203.4</ele>
<time>2024-05-10T12:05:43Z</time>
</trkpt>
<trkpt lat="49.66967384330928" lon="9.0006866119802">
<ele>203.4</ele>
<time>2024-05-10T12:05:44Z</time>
</trkpt>
<trkpt lat="49.66970820911229" lon="9.000683762133121">
<ele>203.4</ele>
<time>2024-05-10T12:05:45Z</time>
</trkpt>
<trkpt lat="49.66973871923983" lon="9.000673284754157">
<ele>203.2</ele>
<time>2024-05-10T12:05:46Z</time>
</trkpt>
<trkpt lat="49.669769229367375" lon="9.000651324167848">
<ele>203.2</ele>
<time>2024-05-10T12:05:47Z</time>
</trkpt>
<trkpt lat="49.66979973949492" lon="9.000635147094727">
<ele>203.2</ele>
<time>2024-05-10T12:05:48Z</time>
</trkpt>
<trkpt lat="49.669830249622464" lon="9.000619808211923">
<ele>203.2</ele>
<time>2024-05-10T12:05:49Z</time>
</trkpt>
<trkpt lat="49.66986461542547" lon="9.000596925616264">
<ele>203.2</ele>
<time>2024-05-10T12:05:50Z</time>
</trkpt>
<trkpt lat="49.66989898122847" lon="9.000577898696065">
<ele>203</ele>
<time>2024-05-10T12:05:51Z</time>
</trkpt>
<trkpt lat="49.66993326321244" lon="9.00054831057787">
<ele>203</ele>
<time>2024-05-10T12:05:52Z</time>
</trkpt>
<trkpt lat="49.66996000148356" lon="9.00050824508071">
<ele>203</ele>
<time>2024-05-10T12:05:53Z</time>
</trkpt>
<trkpt lat="49.669986655935645" lon="9.000459630042315">
<ele>203</ele>
<time>2024-05-10T12:05:54Z</time>
</trkpt>
<trkpt lat="49.67001339420676" lon="9.000412859022617">
<ele>203.2</ele>
<time>2024-05-10T12:05:55Z</time>
</trkpt>
<trkpt lat="49.67003242112696" lon="9.000361394137144">
<ele>203.2</ele>
<time>2024-05-10T12:05:56Z</time>
</trkpt>
<trkpt lat="49.67005153186619" lon="9.000311773270369">
<ele>203.2</ele>
<time>2024-05-10T12:05:57Z</time>
</trkpt>
<trkpt lat="49.67007827013731" lon="9.000267935916781">
<ele>203.2</ele>
<time>2024-05-10T12:05:58Z</time>
</trkpt>
<trkpt lat="49.670104924589396" lon="9.000225020572543">
<ele>203.2</ele>
<time>2024-05-10T12:05:59Z</time>
</trkpt>
<trkpt lat="49.67013166286051" lon="9.000183027237654">
<ele>203.4</ele>
<time>2024-05-10T12:06:00Z</time>
</trkpt>
<trkpt lat="49.6701583173126" lon="9.000146817415953">
<ele>203.4</ele>
<time>2024-05-10T12:06:01Z</time>
</trkpt>
<trkpt lat="49.670185055583715" lon="9.000120162963867">
<ele>203.4</ele>
<time>2024-05-10T12:06:02Z</time>
</trkpt>
<trkpt lat="49.6702117100358" lon="9.000108679756522">
<ele>203.4</ele>
<time>2024-05-10T12:06:03Z</time>
</trkpt>
<trkpt lat="49.67024230398238" lon="9.00011345744133">
<ele>203.4</ele>
<time>2024-05-10T12:06:04Z</time>
</trkpt>
<trkpt lat="49.67026895843446" lon="9.000142039731145">
<ele>203.4</ele>
<time>2024-05-10T12:06:05Z</time>
</trkpt>
<trkpt lat="49.67029946856201" lon="9.000176405534148">
<ele>203.4</ele>
<time>2024-05-10T12:06:06Z</time>
</trkpt>
<trkpt lat="49.67032997868955" lon="9.00021362118423">
<ele>203.4</ele>
<time>2024-05-10T12:06:07Z</time>
</trkpt>
<trkpt lat="49.670364344492555" lon="9.000253602862358">
<ele>203.4</ele>
<time>2024-05-10T12:06:08Z</time>
</trkpt>
<trkpt lat="49.6703948546201" lon="9.00029182434082">
<ele>203.6</ele>
<time>2024-05-10T12:06:09Z</time>
</trkpt>
<trkpt lat="49.6704292204231" lon="9.000321328639984">
<ele>203.6</ele>
<time>2024-05-10T12:06:10Z</time>
</trkpt>
<trkpt lat="49.670463502407074" lon="9.00035284459591">
<ele>203.6</ele>
<time>2024-05-10T12:06:11Z</time>
</trkpt>
<trkpt lat="49.67049401253462" lon="9.000381426885724">
<ele>203.6</ele>
<time>2024-05-10T12:06:12Z</time>
</trkpt>
<trkpt lat="49.67052837833762" lon="9.000411937013268">
<ele>203.4</ele>
<time>2024-05-10T12:06:13Z</time>
</trkpt>
<trkpt lat="49.670558888465166" lon="9.000441525131464">
<ele>203.4</ele>
<time>2024-05-10T12:06:14Z</time>
</trkpt>
<trkpt lat="49.67058939859271" lon="9.00046817958355">
<ele>203.4</ele>
<time>2024-05-10T12:06:15Z</time>
</trkpt>
<trkpt lat="49.670619908720255" lon="9.000494917854667">
<ele>203.2</ele>
<time>2024-05-10T12:06:16Z</time>
</trkpt>
<trkpt lat="49.6706504188478" lon="9.000521656125784">
<ele>203</ele>
<time>2024-05-10T12:06:17Z</time>
</trkpt>
<trkpt lat="49.67067715711892" lon="9.000550238415599">
<ele>203</ele>
<time>2024-05-10T12:06:18Z</time>
</trkpt>
<trkpt lat="49.67070766724646" lon="9.000576892867684">
<ele>202.8</ele>
<time>2024-05-10T12:06:19Z</time>
</trkpt>
<trkpt lat="49.67073054984212" lon="9.000601703301072">
<ele>202.6</ele>
<time>2024-05-10T12:06:20Z</time>
</trkpt>
<trkpt lat="49.67075728811323" lon="9.00062458589673">
<ele>202.4</ele>
<time>2024-05-10T12:06:21Z</time>
</trkpt>
<trkpt lat="49.670780170708895" lon="9.000641768798232">
<ele>202.2</ele>
<time>2024-05-10T12:06:22Z</time>
</trkpt>
<trkpt lat="49.67081068083644" lon="9.000659873709083">
<ele>202</ele>
<time>2024-05-10T12:06:23Z</time>
</trkpt>
<trkpt lat="49.6708335634321" lon="9.000673284754157">
<ele>202</ele>
<time>2024-05-10T12:06:24Z</time>
</trkpt>
<trkpt lat="49.67085644602776" lon="9.000681834295392">
<ele>201.8</ele>
<time>2024-05-10T12:06:25Z</time>
</trkpt>
<trkpt lat="49.670875472947955" lon="9.000698011368513">
<ele>201.8</ele>
<time>2024-05-10T12:06:26Z</time>
</trkpt>
<trkpt lat="49.67089835554361" lon="9.000715194270015">
<ele>201.8</ele>
<time>2024-05-10T12:06:27Z</time>
</trkpt>
<trkpt lat="49.670917466282845" lon="9.00072474963963">
<ele>201.6</ele>
<time>2024-05-10T12:06:28Z</time>
</trkpt>
<trkpt lat="49.67093272134662" lon="9.00072667747736">
<ele>201.6</ele>
<time>2024-05-10T12:06:29Z</time>
</trkpt>
<trkpt lat="49.67095183208585" lon="9.000729527324438">
<ele>201.6</ele>
<time>2024-05-10T12:06:30Z</time>
</trkpt>
<trkpt lat="49.670974714681506" lon="9.000729527324438">
<ele>201.4</ele>
<time>2024-05-10T12:06:31Z</time>
</trkpt>
<trkpt lat="49.67100522480905" lon="9.000735227018595">
<ele>201.2</ele>
<time>2024-05-10T12:06:32Z</time>
</trkpt>
<trkpt lat="49.671031879261136" lon="9.000740004703403">
<ele>201.2</ele>
<time>2024-05-10T12:06:33Z</time>
</trkpt>
<trkpt lat="49.671054761856794" lon="9.00074285455048">
<ele>201</ele>
<time>2024-05-10T12:06:34Z</time>
</trkpt>
<trkpt lat="49.671073872596025" lon="9.000749560073018">
<ele>201</ele>
<time>2024-05-10T12:06:35Z</time>
</trkpt>
<trkpt lat="49.67109298333526" lon="9.000755259767175">
<ele>200.8</ele>
<time>2024-05-10T12:06:36Z</time>
</trkpt>
<trkpt lat="49.67110438272357" lon="9.000761965289712">
<ele>200.8</ele>
<time>2024-05-10T12:06:37Z</time>
</trkpt>
<trkpt lat="49.671112010255456" lon="9.00076481513679">
<ele>200.6</ele>
<time>2024-05-10T12:06:38Z</time>
</trkpt>
<trkpt lat="49.67110823839903" lon="9.00076481513679">
<ele>200.6</ele>
<time>2024-05-10T12:06:39Z</time>
</trkpt>
<trkpt lat="49.671112010255456" lon="9.00076481513679">
<ele>200.6</ele>
<time>2024-05-10T12:06:42Z</time>
</trkpt>
<trkpt lat="49.671115865930915" lon="9.00076674297452">
<ele>200.6</ele>
<time>2024-05-10T12:06:43Z</time>
</trkpt>
<trkpt lat="49.671112010255456" lon="9.00076674297452">
<ele>200.8</ele>
<time>2024-05-10T12:06:44Z</time>
</trkpt>
<trkpt lat="49.671112010255456" lon="9.000768586993217">
<ele>200.8</ele>
<time>2024-05-10T12:06:46Z</time>
</trkpt>
<trkpt lat="49.671112010255456" lon="9.00076674297452">
<ele>200.8</ele>
<time>2024-05-10T12:06:47Z</time>
</trkpt>
<trkpt lat="49.671115865930915" lon="9.000768586993217">
<ele>201</ele>
<time>2024-05-10T12:06:48Z</time>
</trkpt>
<trkpt lat="49.671115865930915" lon="9.000769592821598">
<ele>201</ele>
<time>2024-05-10T12:06:53Z</time>
</trkpt>
<trkpt lat="49.67111963778734" lon="9.000769592821598">
<ele>201.2</ele>
<time>2024-05-10T12:06:55Z</time>
</trkpt>
<trkpt lat="49.67113112099469" lon="9.000781998038292">
<ele>201.2</ele>
<time>2024-05-10T12:06:58Z</time>
</trkpt>
<trkpt lat="49.67115014791489" lon="9.000789625570178">
<ele>201</ele>
<time>2024-05-10T12:06:59Z</time>
</trkpt>
<trkpt lat="49.67116925865412" lon="9.000796247273684">
<ele>201</ele>
<time>2024-05-10T12:07:00Z</time>
</trkpt>
<trkpt lat="49.67118828557432" lon="9.000800102949142">
<ele>200.8</ele>
<time>2024-05-10T12:07:01Z</time>
</trkpt>
<trkpt lat="49.671211168169975" lon="9.000798175111413">
<ele>200.8</ele>
<time>2024-05-10T12:07:02Z</time>
</trkpt>
<trkpt lat="49.671234050765634" lon="9.000795325264335">
<ele>200.6</ele>
<time>2024-05-10T12:07:03Z</time>
</trkpt>
<trkpt lat="49.67126078903675" lon="9.000791469588876">
<ele>200.6</ele>
<time>2024-05-10T12:07:04Z</time>
</trkpt>
<trkpt lat="49.67128752730787" lon="9.000791469588876">
<ele>200.6</ele>
<time>2024-05-10T12:07:05Z</time>
</trkpt>
<trkpt lat="49.67131803743541" lon="9.000788619741797">
<ele>200.6</ele>
<time>2024-05-10T12:07:06Z</time>
</trkpt>
<trkpt lat="49.67134854756296" lon="9.000778142362833">
<ele>200.6</ele>
<time>2024-05-10T12:07:07Z</time>
</trkpt>
<trkpt lat="49.67137520201504" lon="9.000768586993217">
<ele>200.6</ele>
<time>2024-05-10T12:07:08Z</time>
</trkpt>
<trkpt lat="49.671409567818046" lon="9.000769592821598">
<ele>200.6</ele>
<time>2024-05-10T12:07:09Z</time>
</trkpt>
<trkpt lat="49.67144770547747" lon="9.00076481513679">
<ele>200.6</ele>
<time>2024-05-10T12:07:10Z</time>
</trkpt>
<trkpt lat="49.67147821560502" lon="9.000760037451982">
<ele>200.6</ele>
<time>2024-05-10T12:07:11Z</time>
</trkpt>
<trkpt lat="49.671508725732565" lon="9.000756181776524">
<ele>200.6</ele>
<time>2024-05-10T12:07:12Z</time>
</trkpt>
<trkpt lat="49.67153923586011" lon="9.000755259767175">
<ele>200.6</ele>
<time>2024-05-10T12:07:13Z</time>
</trkpt>
<trkpt lat="49.67157360166311" lon="9.000751487910748">
<ele>200.6</ele>
<time>2024-05-10T12:07:14Z</time>
</trkpt>
<trkpt lat="49.67160796746611" lon="9.000748554244637">
<ele>200.6</ele>
<time>2024-05-10T12:07:15Z</time>
</trkpt>
<trkpt lat="49.67163847759366" lon="9.00074671022594">
<ele>200.6</ele>
<time>2024-05-10T12:07:16Z</time>
</trkpt>
<trkpt lat="49.67167275957763" lon="9.000741932541132">
<ele>200.6</ele>
<time>2024-05-10T12:07:17Z</time>
</trkpt>
<trkpt lat="49.67169949784875" lon="9.000738076865673">
<ele>200.6</ele>
<time>2024-05-10T12:07:18Z</time>
</trkpt>
<trkpt lat="49.671730007976294" lon="9.000731455162168">
<ele>200.8</ele>
<time>2024-05-10T12:07:19Z</time>
</trkpt>
<trkpt lat="49.67175666242838" lon="9.00072667747736">
<ele>200.8</ele>
<time>2024-05-10T12:07:20Z</time>
</trkpt>
<trkpt lat="49.67177962884307" lon="9.00072474963963">
<ele>200.8</ele>
<time>2024-05-10T12:07:21Z</time>
</trkpt>
<trkpt lat="49.67179865576327" lon="9.00072474963963">
<ele>200.8</ele>
<time>2024-05-10T12:07:22Z</time>
</trkpt>
<trkpt lat="49.67182153835893" lon="9.000721899792552">
<ele>200.8</ele>
<time>2024-05-10T12:07:23Z</time>
</trkpt>
<trkpt lat="49.67184064909816" lon="9.000719971954823">
<ele>200.8</ele>
<time>2024-05-10T12:07:24Z</time>
</trkpt>
<trkpt lat="49.67185967601836" lon="9.000719971954823">
<ele>200.8</ele>
<time>2024-05-10T12:07:25Z</time>
</trkpt>
<trkpt lat="49.67187878675759" lon="9.000718044117093">
<ele>201</ele>
<time>2024-05-10T12:07:26Z</time>
</trkpt>
<trkpt lat="49.67190166935325" lon="9.000718044117093">
<ele>201</ele>
<time>2024-05-10T12:07:27Z</time>
</trkpt>
<trkpt lat="49.671920696273446" lon="9.000709494575858">
<ele>201.2</ele>
<time>2024-05-10T12:07:28Z</time>
</trkpt>
<trkpt lat="49.67193980701268" lon="9.00070471689105">
<ele>201.2</ele>
<time>2024-05-10T12:07:29Z</time>
</trkpt>
<trkpt lat="49.671962689608335" lon="9.000701867043972">
<ele>201.4</ele>
<time>2024-05-10T12:07:30Z</time>
</trkpt>
<trkpt lat="49.67198942787945" lon="9.000699939206243">
<ele>201.4</ele>
<time>2024-05-10T12:07:31Z</time>
</trkpt>
<trkpt lat="49.67200845479965" lon="9.000697089359164">
<ele>201.6</ele>
<time>2024-05-10T12:07:32Z</time>
</trkpt>
<trkpt lat="49.67203133739531" lon="9.000691389665008">
<ele>201.6</ele>
<time>2024-05-10T12:07:33Z</time>
</trkpt>
<trkpt lat="49.67205044813454" lon="9.000690383836627">
<ele>201.6</ele>
<time>2024-05-10T12:07:34Z</time>
</trkpt>
<trkpt lat="49.6720733307302" lon="9.00068853981793">
<ele>201.8</ele>
<time>2024-05-10T12:07:35Z</time>
</trkpt>
<trkpt lat="49.67209621332586" lon="9.0006866119802">
<ele>201.8</ele>
<time>2024-05-10T12:07:36Z</time>
</trkpt>
<trkpt lat="49.67211909592152" lon="9.000679906457663">
<ele>201.8</ele>
<time>2024-05-10T12:07:37Z</time>
</trkpt>
<trkpt lat="49.672141978517175" lon="9.000677056610584">
<ele>201.8</ele>
<time>2024-05-10T12:07:38Z</time>
</trkpt>
<trkpt lat="49.67216871678829" lon="9.000670351088047">
<ele>202</ele>
<time>2024-05-10T12:07:39Z</time>
</trkpt>
<trkpt lat="49.67219537124038" lon="9.000663729384542">
<ele>202</ele>
<time>2024-05-10T12:07:40Z</time>
</trkpt>
<trkpt lat="49.67222973704338" lon="9.000659873709083">
<ele>202</ele>
<time>2024-05-10T12:07:41Z</time>
</trkpt>
<trkpt lat="49.672256391495466" lon="9.000659873709083">
<ele>202</ele>
<time>2024-05-10T12:07:42Z</time>
</trkpt>
<trkpt lat="49.67228698544204" lon="9.000663729384542">
<ele>202</ele>
<time>2024-05-10T12:07:43Z</time>
</trkpt>
<trkpt lat="49.67231749556959" lon="9.000659873709083">
<ele>202</ele>
<time>2024-05-10T12:07:44Z</time>
</trkpt>
<trkpt lat="49.67234800569713" lon="9.000653252005577">
<ele>202</ele>
<time>2024-05-10T12:07:45Z</time>
</trkpt>
<trkpt lat="49.6723822876811" lon="9.000655096024275">
<ele>202</ele>
<time>2024-05-10T12:07:46Z</time>
</trkpt>
<trkpt lat="49.67241279780865" lon="9.000655096024275">
<ele>201.8</ele>
<time>2024-05-10T12:07:47Z</time>
</trkpt>
<trkpt lat="49.67244716361165" lon="9.000655096024275">
<ele>201.6</ele>
<time>2024-05-10T12:07:48Z</time>
</trkpt>
<trkpt lat="49.67248530127108" lon="9.000661801546812">
<ele>201.6</ele>
<time>2024-05-10T12:07:49Z</time>
</trkpt>
<trkpt lat="49.67251966707408" lon="9.00066850706935">
<ele>201.6</ele>
<time>2024-05-10T12:07:50Z</time>
</trkpt>
<trkpt lat="49.672553949058056" lon="9.000670351088047">
<ele>201.6</ele>
<time>2024-05-10T12:07:51Z</time>
</trkpt>
<trkpt lat="49.67258831486106" lon="9.000670351088047">
<ele>201.6</ele>
<time>2024-05-10T12:07:52Z</time>
</trkpt>
<trkpt lat="49.67262268066406" lon="9.000671356916428">
<ele>201.6</ele>
<time>2024-05-10T12:07:53Z</time>
</trkpt>
<trkpt lat="49.67265319079161" lon="9.000675128772855">
<ele>201.6</ele>
<time>2024-05-10T12:07:54Z</time>
</trkpt>
<trkpt lat="49.67268370091915" lon="9.000679906457663">
<ele>201.6</ele>
<time>2024-05-10T12:07:55Z</time>
</trkpt>
<trkpt lat="49.672714211046696" lon="9.000679906457663">
<ele>201.8</ele>
<time>2024-05-10T12:07:56Z</time>
</trkpt>
<trkpt lat="49.67274086549878" lon="9.000681834295392">
<ele>201.8</ele>
<time>2024-05-10T12:07:57Z</time>
</trkpt>
<trkpt lat="49.6727676037699" lon="9.0006866119802">
<ele>201.8</ele>
<time>2024-05-10T12:07:58Z</time>
</trkpt>
<trkpt lat="49.67279811389744" lon="9.000691389665008">
<ele>201.8</ele>
<time>2024-05-10T12:07:59Z</time>
</trkpt>
<trkpt lat="49.6728209964931" lon="9.000695161521435">
<ele>202</ele>
<time>2024-05-10T12:08:00Z</time>
</trkpt>
<trkpt lat="49.67284010723233" lon="9.000701867043972">
<ele>202</ele>
<time>2024-05-10T12:08:01Z</time>
</trkpt>
<trkpt lat="49.67285913415253" lon="9.00070278905332">
<ele>202.2</ele>
<time>2024-05-10T12:08:02Z</time>
</trkpt>
<trkpt lat="49.67287824489176" lon="9.00070471689105">
<ele>202.2</ele>
<time>2024-05-10T12:08:03Z</time>
</trkpt>
<trkpt lat="49.67290112748742" lon="9.000709494575858">
<ele>202.4</ele>
<time>2024-05-10T12:08:04Z</time>
</trkpt>
<trkpt lat="49.672931637614965" lon="9.000716200098395">
<ele>202.4</ele>
<time>2024-05-10T12:08:05Z</time>
</trkpt>
<trkpt lat="49.67295829206705" lon="9.000718044117093">
<ele>202.6</ele>
<time>2024-05-10T12:08:06Z</time>
</trkpt>
<trkpt lat="49.67298503033817" lon="9.0007228218019">
<ele>202.6</ele>
<time>2024-05-10T12:08:07Z</time>
</trkpt>
<trkpt lat="49.67301939614117" lon="9.00072667747736">
<ele>202.8</ele>
<time>2024-05-10T12:08:08Z</time>
</trkpt>
<trkpt lat="49.6730575338006" lon="9.000729527324438">
<ele>202.8</ele>
<time>2024-05-10T12:08:09Z</time>
</trkpt>
<trkpt lat="49.673088043928146" lon="9.000733299180865">
<ele>202.8</ele>
<time>2024-05-10T12:08:10Z</time>
</trkpt>
<trkpt lat="49.67311855405569" lon="9.000735227018595">
<ele>202.8</ele>
<time>2024-05-10T12:08:11Z</time>
</trkpt>
<trkpt lat="49.673149064183235" lon="9.000740004703403">
<ele>202.8</ele>
<time>2024-05-10T12:08:12Z</time>
</trkpt>
<trkpt lat="49.67318342998624" lon="9.000748554244637">
<ele>202.8</ele>
<time>2024-05-10T12:08:13Z</time>
</trkpt>
<trkpt lat="49.67321771197021" lon="9.000756181776524">
<ele>202.6</ele>
<time>2024-05-10T12:08:14Z</time>
</trkpt>
<trkpt lat="49.673248222097754" lon="9.00076288729906">
<ele>202.6</ele>
<time>2024-05-10T12:08:15Z</time>
</trkpt>
<trkpt lat="49.673286359757185" lon="9.000771520659328">
<ele>202.4</ele>
<time>2024-05-10T12:08:16Z</time>
</trkpt>
<trkpt lat="49.67332458123565" lon="9.000781998038292">
<ele>202.4</ele>
<time>2024-05-10T12:08:17Z</time>
</trkpt>
<trkpt lat="49.67335509136319" lon="9.000800102949142">
<ele>202.2</ele>
<time>2024-05-10T12:08:18Z</time>
</trkpt>
<trkpt lat="49.67339322902262" lon="9.000808652490377">
<ele>202</ele>
<time>2024-05-10T12:08:19Z</time>
</trkpt>
<trkpt lat="49.673427511006594" lon="9.000815358012915">
<ele>201.8</ele>
<time>2024-05-10T12:08:20Z</time>
</trkpt>
<trkpt lat="49.6734618768096" lon="9.000835390761495">
<ele>201.8</ele>
<time>2024-05-10T12:08:21Z</time>
</trkpt>
<trkpt lat="49.6734962426126" lon="9.000849723815918">
<ele>201.6</ele>
<time>2024-05-10T12:08:22Z</time>
</trkpt>
<trkpt lat="49.67353052459657" lon="9.000858273357153">
<ele>201.4</ele>
<time>2024-05-10T12:08:23Z</time>
</trkpt>
<trkpt lat="49.673564890399575" lon="9.000868750736117">
<ele>201.4</ele>
<time>2024-05-10T12:08:24Z</time>
</trkpt>
<trkpt lat="49.67359540052712" lon="9.00088308379054">
<ele>201.2</ele>
<time>2024-05-10T12:08:25Z</time>
</trkpt>
<trkpt lat="49.67362968251109" lon="9.000894483178854">
<ele>201.2</ele>
<time>2024-05-10T12:08:26Z</time>
</trkpt>
<trkpt lat="49.67366027645767" lon="9.00090311653912">
<ele>201</ele>
<time>2024-05-10T12:08:27Z</time>
</trkpt>
<trkpt lat="49.6736984141171" lon="9.000916443765163">
<ele>201</ele>
<time>2024-05-10T12:08:28Z</time>
</trkpt>
<trkpt lat="49.67372892424464" lon="9.000931698828936">
<ele>201</ele>
<time>2024-05-10T12:08:29Z</time>
</trkpt>
<trkpt lat="49.673763206228614" lon="9.000949803739786">
<ele>201</ele>
<time>2024-05-10T12:08:30Z</time>
</trkpt>
<trkpt lat="49.67379757203162" lon="9.000965058803558">
<ele>201.2</ele>
<time>2024-05-10T12:08:31Z</time>
</trkpt>
<trkpt lat="49.67382808215916" lon="9.000985091552138">
<ele>201.2</ele>
<time>2024-05-10T12:08:32Z</time>
</trkpt>
<trkpt lat="49.67386621981859" lon="9.001007052138448">
<ele>201.2</ele>
<time>2024-05-10T12:08:33Z</time>
</trkpt>
<trkpt lat="49.673900585621595" lon="9.001021385192871">
<ele>201.2</ele>
<time>2024-05-10T12:08:34Z</time>
</trkpt>
<trkpt lat="49.673938723281026" lon="9.001036640256643">
<ele>201.2</ele>
<time>2024-05-10T12:08:35Z</time>
</trkpt>
<trkpt lat="49.673976860940456" lon="9.001049967482686">
<ele>201</ele>
<time>2024-05-10T12:08:36Z</time>
</trkpt>
<trkpt lat="49.67401499859989" lon="9.001072850078344">
<ele>201</ele>
<time>2024-05-10T12:08:37Z</time>
</trkpt>
<trkpt lat="49.67404936440289" lon="9.001092882826924">
<ele>201</ele>
<time>2024-05-10T12:08:38Z</time>
</trkpt>
<trkpt lat="49.67408750206232" lon="9.001112915575504">
<ele>200.8</ele>
<time>2024-05-10T12:08:39Z</time>
</trkpt>
<trkpt lat="49.67412563972175" lon="9.001136720180511">
<ele>200.8</ele>
<time>2024-05-10T12:08:40Z</time>
</trkpt>
<trkpt lat="49.67416377738118" lon="9.001163458451629">
<ele>200.8</ele>
<time>2024-05-10T12:08:41Z</time>
</trkpt>
<trkpt lat="49.67420577071607" lon="9.001183491200209">
<ele>200.8</ele>
<time>2024-05-10T12:08:42Z</time>
</trkpt>
<trkpt lat="49.67424005270004" lon="9.001203523948789">
<ele>200.8</ele>
<time>2024-05-10T12:08:43Z</time>
</trkpt>
<trkpt lat="49.67428204603493" lon="9.001216851174831">
<ele>200.8</ele>
<time>2024-05-10T12:08:44Z</time>
</trkpt>
<trkpt lat="49.67432395555079" lon="9.001234956085682">
<ele>200.6</ele>
<time>2024-05-10T12:08:45Z</time>
</trkpt>
<trkpt lat="49.67435832135379" lon="9.001250211149454">
<ele>200.6</ele>
<time>2024-05-10T12:08:46Z</time>
</trkpt>
<trkpt lat="49.6743926871568" lon="9.001264544203877">
<ele>200.4</ele>
<time>2024-05-10T12:08:47Z</time>
</trkpt>
<trkpt lat="49.67442696914077" lon="9.001283571124077">
<ele>200.6</ele>
<time>2024-05-10T12:08:48Z</time>
</trkpt>
<trkpt lat="49.67445747926831" lon="9.001303603872657">
<ele>200.8</ele>
<time>2024-05-10T12:08:49Z</time>
</trkpt>
<trkpt lat="49.67449561692774" lon="9.001321792602539">
<ele>200.8</ele>
<time>2024-05-10T12:08:50Z</time>
</trkpt>
<trkpt lat="49.674529982730746" lon="9.001343669369817">
<ele>201</ele>
<time>2024-05-10T12:08:51Z</time>
</trkpt>
<trkpt lat="49.67456812039018" lon="9.001361774280667">
<ele>201.2</ele>
<time>2024-05-10T12:08:52Z</time>
</trkpt>
<trkpt lat="49.67459863051772" lon="9.001386584714055">
<ele>201.2</ele>
<time>2024-05-10T12:08:53Z</time>
</trkpt>
<trkpt lat="49.674629140645266" lon="9.001406617462635">
<ele>201.4</ele>
<time>2024-05-10T12:08:54Z</time>
</trkpt>
<trkpt lat="49.67466350644827" lon="9.001426650211215">
<ele>201.4</ele>
<time>2024-05-10T12:08:55Z</time>
</trkpt>
<trkpt lat="49.6747016441077" lon="9.001442827284336">
<ele>201.6</ele>
<time>2024-05-10T12:08:56Z</time>
</trkpt>
<trkpt lat="49.67473978176713" lon="9.001462860032916">
<ele>201.8</ele>
<time>2024-05-10T12:08:57Z</time>
</trkpt>
<trkpt lat="49.67477791942656" lon="9.001481970772147">
<ele>201.8</ele>
<time>2024-05-10T12:08:58Z</time>
</trkpt>
<trkpt lat="49.67481605708599" lon="9.001502925530076">
<ele>202</ele>
<time>2024-05-10T12:08:59Z</time>
</trkpt>
<trkpt lat="49.67485427856445" lon="9.001522958278656">
<ele>202</ele>
<time>2024-05-10T12:09:00Z</time>
</trkpt>
<trkpt lat="49.674888560548425" lon="9.001546846702695">
<ele>202</ele>
<time>2024-05-10T12:09:01Z</time>
</trkpt>
<trkpt lat="49.674926698207855" lon="9.001568723469973">
<ele>202.2</ele>
<time>2024-05-10T12:09:02Z</time>
</trkpt>
<trkpt lat="49.67496106401086" lon="9.001587834209204">
<ele>202.2</ele>
<time>2024-05-10T12:09:03Z</time>
</trkpt>
<trkpt lat="49.67499534599483" lon="9.001606861129403">
<ele>202.2</ele>
<time>2024-05-10T12:09:04Z</time>
</trkpt>
<trkpt lat="49.67503356747329" lon="9.001626893877983">
<ele>202.2</ele>
<time>2024-05-10T12:09:05Z</time>
</trkpt>
<trkpt lat="49.675067849457264" lon="9.001640304923058">
<ele>202.2</ele>
<time>2024-05-10T12:09:06Z</time>
</trkpt>
<trkpt lat="49.67509835958481" lon="9.00165455415845">
<ele>202.2</ele>
<time>2024-05-10T12:09:07Z</time>
</trkpt>
<trkpt lat="49.67513649724424" lon="9.001669809222221">
<ele>202.2</ele>
<time>2024-05-10T12:09:08Z</time>
</trkpt>
<trkpt lat="49.67517463490367" lon="9.001687997952104">
<ele>202.2</ele>
<time>2024-05-10T12:09:09Z</time>
</trkpt>
<trkpt lat="49.675205228850245" lon="9.001705097034574">
<ele>202</ele>
<time>2024-05-10T12:09:10Z</time>
</trkpt>
<trkpt lat="49.67524336650968" lon="9.00171373039484">
<ele>202</ele>
<time>2024-05-10T12:09:11Z</time>
</trkpt>
<trkpt lat="49.67527764849365" lon="9.001727057620883">
<ele>201.8</ele>
<time>2024-05-10T12:09:12Z</time>
</trkpt>
<trkpt lat="49.67530815862119" lon="9.001741390675306">
<ele>201.8</ele>
<time>2024-05-10T12:09:13Z</time>
</trkpt>
<trkpt lat="49.675342524424195" lon="9.001753795892">
<ele>201.6</ele>
<time>2024-05-10T12:09:14Z</time>
</trkpt>
<trkpt lat="49.67537303455174" lon="9.001766201108694">
<ele>201.6</ele>
<time>2024-05-10T12:09:15Z</time>
</trkpt>
<trkpt lat="49.67540354467928" lon="9.001783300191164">
<ele>201.4</ele>
<time>2024-05-10T12:09:16Z</time>
</trkpt>
<trkpt lat="49.67543791048229" lon="9.001796711236238">
<ele>201.4</ele>
<time>2024-05-10T12:09:17Z</time>
</trkpt>
<trkpt lat="49.67546842060983" lon="9.001806182786822">
<ele>201.4</ele>
<time>2024-05-10T12:09:18Z</time>
</trkpt>
<trkpt lat="49.67549130320549" lon="9.001819593831897">
<ele>201.4</ele>
<time>2024-05-10T12:09:19Z</time>
</trkpt>
<trkpt lat="49.675521813333035" lon="9.001823365688324">
<ele>201.2</ele>
<time>2024-05-10T12:09:20Z</time>
</trkpt>
<trkpt lat="49.67555617913604" lon="9.001821437850595">
<ele>201.2</ele>
<time>2024-05-10T12:09:21Z</time>
</trkpt>
<trkpt lat="49.67559046112001" lon="9.001825293526053">
<ele>201.2</ele>
<time>2024-05-10T12:09:22Z</time>
</trkpt>
<trkpt lat="49.67562859877944" lon="9.001830071210861">
<ele>201</ele>
<time>2024-05-10T12:09:23Z</time>
</trkpt>
<trkpt lat="49.67566296458244" lon="9.001836776733398">
<ele>201</ele>
<time>2024-05-10T12:09:24Z</time>
</trkpt>
<trkpt lat="49.675697246566415" lon="9.001843398436904">
<ele>201</ele>
<time>2024-05-10T12:09:25Z</time>
</trkpt>
<trkpt lat="49.67573161236942" lon="9.001848176121712">
<ele>201</ele>
<time>2024-05-10T12:09:26Z</time>
</trkpt>
<trkpt lat="49.67576597817242" lon="9.001854881644249">
<ele>201</ele>
<time>2024-05-10T12:09:27Z</time>
</trkpt>
<trkpt lat="49.67580026015639" lon="9.001863431185484">
<ele>200.8</ele>
<time>2024-05-10T12:09:28Z</time>
</trkpt>
<trkpt lat="49.67583462595939" lon="9.0018729865551">
<ele>200.8</ele>
<time>2024-05-10T12:09:29Z</time>
</trkpt>
<trkpt lat="49.67586890794337" lon="9.001881536096334">
<ele>200.8</ele>
<time>2024-05-10T12:09:30Z</time>
</trkpt>
<trkpt lat="49.675899501889944" lon="9.001892013475299">
<ele>201</ele>
<time>2024-05-10T12:09:31Z</time>
</trkpt>
<trkpt lat="49.675937639549375" lon="9.001905424520373">
<ele>201</ele>
<time>2024-05-10T12:09:32Z</time>
</trkpt>
<trkpt lat="49.675971921533346" lon="9.00191305205226">
<ele>200.8</ele>
<time>2024-05-10T12:09:33Z</time>
</trkpt>
<trkpt lat="49.67601005919278" lon="9.001919673755765">
<ele>200.8</ele>
<time>2024-05-10T12:09:34Z</time>
</trkpt>
<trkpt lat="49.67604442499578" lon="9.001934928819537">
<ele>200.8</ele>
<time>2024-05-10T12:09:35Z</time>
</trkpt>
<trkpt lat="49.67607879079878" lon="9.00195118971169">
<ele>201</ele>
<time>2024-05-10T12:09:36Z</time>
</trkpt>
<trkpt lat="49.676116928458214" lon="9.001963594928384">
<ele>201</ele>
<time>2024-05-10T12:09:37Z</time>
</trkpt>
<trkpt lat="49.67615506611765" lon="9.001973150298">
<ele>201</ele>
<time>2024-05-10T12:09:38Z</time>
</trkpt>
<trkpt lat="49.676189348101616" lon="9.001984549686313">
<ele>201.2</ele>
<time>2024-05-10T12:09:39Z</time>
</trkpt>
<trkpt lat="49.67622371390462" lon="9.001997876912355">
<ele>201.2</ele>
<time>2024-05-10T12:09:40Z</time>
</trkpt>
<trkpt lat="49.67625807970762" lon="9.002008438110352">
<ele>201.2</ele>
<time>2024-05-10T12:09:41Z</time>
</trkpt>
<trkpt lat="49.67628858983517" lon="9.002021765336394">
<ele>201.2</ele>
<time>2024-05-10T12:09:42Z</time>
</trkpt>
<trkpt lat="49.67631909996271" lon="9.002037942409515">
<ele>201</ele>
<time>2024-05-10T12:09:43Z</time>
</trkpt>
<trkpt lat="49.676349610090256" lon="9.002046575769782">
<ele>201</ele>
<time>2024-05-10T12:09:44Z</time>
</trkpt>
<trkpt lat="49.6763801202178" lon="9.002055125311017">
<ele>200.8</ele>
<time>2024-05-10T12:09:45Z</time>
</trkpt>
<trkpt lat="49.676410630345345" lon="9.002061830833554">
<ele>200.8</ele>
<time>2024-05-10T12:09:46Z</time>
</trkpt>
<trkpt lat="49.67644114047289" lon="9.00206845253706">
<ele>200.6</ele>
<time>2024-05-10T12:09:47Z</time>
</trkpt>
<trkpt lat="49.67647165060043" lon="9.002079935744405">
<ele>200.4</ele>
<time>2024-05-10T12:09:48Z</time>
</trkpt>
<trkpt lat="49.67649838887155" lon="9.00208848528564">
<ele>200.2</ele>
<time>2024-05-10T12:09:49Z</time>
</trkpt>
<trkpt lat="49.676528898999095" lon="9.002098040655255">
<ele>200</ele>
<time>2024-05-10T12:09:50Z</time>
</trkpt>
<trkpt lat="49.67655555345118" lon="9.0021095238626">
<ele>200</ele>
<time>2024-05-10T12:09:51Z</time>
</trkpt>
<trkpt lat="49.6765822917223" lon="9.002121845260262">
<ele>199.8</ele>
<time>2024-05-10T12:09:52Z</time>
</trkpt>
<trkpt lat="49.67661280184984" lon="9.002131400629878">
<ele>199.8</ele>
<time>2024-05-10T12:09:53Z</time>
</trkpt>
<trkpt lat="49.67664331197739" lon="9.002140033990145">
<ele>199.6</ele>
<time>2024-05-10T12:09:54Z</time>
</trkpt>
<trkpt lat="49.676670050248504" lon="9.002153361216187">
<ele>199.6</ele>
<time>2024-05-10T12:09:55Z</time>
</trkpt>
<trkpt lat="49.676708187907934" lon="9.002161910757422">
<ele>199.6</ele>
<time>2024-05-10T12:09:56Z</time>
</trkpt>
<trkpt lat="49.676746325567365" lon="9.00216861627996">
<ele>199.4</ele>
<time>2024-05-10T12:09:57Z</time>
</trkpt>
<trkpt lat="49.67678069137037" lon="9.002173393964767">
<ele>199.4</ele>
<time>2024-05-10T12:09:58Z</time>
</trkpt>
<trkpt lat="49.6768188290298" lon="9.002175321802497">
<ele>199.4</ele>
<time>2024-05-10T12:09:59Z</time>
</trkpt>
<trkpt lat="49.67685311101377" lon="9.002182949334383">
<ele>199.4</ele>
<time>2024-05-10T12:10:00Z</time>
</trkpt>
<trkpt lat="49.67689887620509" lon="9.002193426713347">
<ele>199.4</ele>
<time>2024-05-10T12:10:01Z</time>
</trkpt>
<trkpt lat="49.676940869539976" lon="9.002201976254582">
<ele>199.4</ele>
<time>2024-05-10T12:10:02Z</time>
</trkpt>
<trkpt lat="49.67697900719941" lon="9.002215303480625">
<ele>199.6</ele>
<time>2024-05-10T12:10:03Z</time>
</trkpt>
<trkpt lat="49.67701337300241" lon="9.002229636535048">
<ele>199.6</ele>
<time>2024-05-10T12:10:04Z</time>
</trkpt>
<trkpt lat="49.677040027454495" lon="9.002242963761091">
<ele>199.6</ele>
<time>2024-05-10T12:10:05Z</time>
</trkpt>
<trkpt lat="49.6770743932575" lon="9.002260146662593">
<ele>199.6</ele>
<time>2024-05-10T12:10:06Z</time>
</trkpt>
<trkpt lat="49.67710490338504" lon="9.002275401726365">
<ele>199.6</ele>
<time>2024-05-10T12:10:07Z</time>
</trkpt>
<trkpt lat="49.67713926918805" lon="9.002287806943059">
<ele>199.6</ele>
<time>2024-05-10T12:10:08Z</time>
</trkpt>
<trkpt lat="49.67716592364013" lon="9.002300212159753">
<ele>199.6</ele>
<time>2024-05-10T12:10:09Z</time>
</trkpt>
<trkpt lat="49.67719266191125" lon="9.002309767529368">
<ele>199.6</ele>
<time>2024-05-10T12:10:10Z</time>
</trkpt>
<trkpt lat="49.67721554450691" lon="9.002321166917682">
<ele>199.6</ele>
<time>2024-05-10T12:10:11Z</time>
</trkpt>
<trkpt lat="49.677238427102566" lon="9.002327872440219">
<ele>199.6</ele>
<time>2024-05-10T12:10:12Z</time>
</trkpt>
<trkpt lat="49.677261309698224" lon="9.002334577962756">
<ele>199.6</ele>
<time>2024-05-10T12:10:13Z</time>
</trkpt>
<trkpt lat="49.677280420437455" lon="9.002340277656913">
<ele>199.6</ele>
<time>2024-05-10T12:10:14Z</time>
</trkpt>
<trkpt lat="49.677299447357655" lon="9.00234698317945">
<ele>199.6</ele>
<time>2024-05-10T12:10:15Z</time>
</trkpt>
<trkpt lat="49.677318558096886" lon="9.002354610711336">
<ele>199.6</ele>
<time>2024-05-10T12:10:16Z</time>
</trkpt>
<trkpt lat="49.677341440692544" lon="9.002361232414842">
<ele>199.6</ele>
<time>2024-05-10T12:10:17Z</time>
</trkpt>
<trkpt lat="49.6773643232882" lon="9.002367937937379">
<ele>199.6</ele>
<time>2024-05-10T12:10:18Z</time>
</trkpt>
<trkpt lat="49.677379578351974" lon="9.002373637631536">
<ele>199.6</ele>
<time>2024-05-10T12:10:19Z</time>
</trkpt>
<trkpt lat="49.67739483341575" lon="9.002378415316343">
<ele>199.6</ele>
<time>2024-05-10T12:10:20Z</time>
</trkpt>
<trkpt lat="49.67741008847952" lon="9.00238512083888">
<ele>199.6</ele>
<time>2024-05-10T12:10:21Z</time>
</trkpt>
<trkpt lat="49.677417716011405" lon="9.002386964857578">
<ele>199.6</ele>
<time>2024-05-10T12:10:22Z</time>
</trkpt>
<trkpt lat="49.67742148786783" lon="9.002387970685959">
<ele>199.6</ele>
<time>2024-05-10T12:10:23Z</time>
</trkpt>
<trkpt lat="49.67742148786783" lon="9.002389898523688">
<ele>199.6</ele>
<time>2024-05-10T12:10:24Z</time>
</trkpt>
<trkpt lat="49.67742148786783" lon="9.002391742542386">
<ele>199.6</ele>
<time>2024-05-10T12:10:25Z</time>
</trkpt>
<trkpt lat="49.67742534354329" lon="9.002391742542386">
<ele>199.6</ele>
<time>2024-05-10T12:10:26Z</time>
</trkpt>
<trkpt lat="49.67742919921875" lon="9.002391742542386">
<ele>199.6</ele>
<time>2024-05-10T12:10:28Z</time>
</trkpt>
<trkpt lat="49.67742919921875" lon="9.002393670380116">
<ele>199.6</ele>
<time>2024-05-10T12:10:30Z</time>
</trkpt>
<trkpt lat="49.67743297107518" lon="9.002394676208496">
<ele>199.6</ele>
<time>2024-05-10T12:10:32Z</time>
</trkpt>
<trkpt lat="49.67744059860706" lon="9.002398448064923">
<ele>199.6</ele>
<time>2024-05-10T12:10:33Z</time>
</trkpt>
<trkpt lat="49.677455853670835" lon="9.002401297912002">
<ele>199.6</ele>
<time>2024-05-10T12:10:34Z</time>
</trkpt>
<trkpt lat="49.67747496441007" lon="9.002408003434539">
<ele>199.6</ele>
<time>2024-05-10T12:10:35Z</time>
</trkpt>
<trkpt lat="49.677493991330266" lon="9.002420408651233">
<ele>199.6</ele>
<time>2024-05-10T12:10:36Z</time>
</trkpt>
<trkpt lat="49.6775131020695" lon="9.002429880201817">
<ele>199.6</ele>
<time>2024-05-10T12:10:37Z</time>
</trkpt>
<trkpt lat="49.6775321289897" lon="9.002436585724354">
<ele>199.4</ele>
<time>2024-05-10T12:10:38Z</time>
</trkpt>
<trkpt lat="49.677555011585355" lon="9.002441363409162">
<ele>199.4</ele>
<time>2024-05-10T12:10:39Z</time>
</trkpt>
<trkpt lat="49.67758174985647" lon="9.002448068931699">
<ele>199.2</ele>
<time>2024-05-10T12:10:40Z</time>
</trkpt>
<trkpt lat="49.67760848812759" lon="9.002458546310663">
<ele>199.2</ele>
<time>2024-05-10T12:10:41Z</time>
</trkpt>
<trkpt lat="49.67762751504779" lon="9.002468101680279">
<ele>199</ele>
<time>2024-05-10T12:10:42Z</time>
</trkpt>
<trkpt lat="49.677654253318906" lon="9.002478579059243">
<ele>199</ele>
<time>2024-05-10T12:10:43Z</time>
</trkpt>
<trkpt lat="49.677673280239105" lon="9.00248620659113">
<ele>198.8</ele>
<time>2024-05-10T12:10:44Z</time>
</trkpt>
<trkpt lat="49.67770001851022" lon="9.002496683970094">
<ele>198.8</ele>
<time>2024-05-10T12:10:45Z</time>
</trkpt>
<trkpt lat="49.67773052863777" lon="9.002508083358407">
<ele>198.8</ele>
<time>2024-05-10T12:10:46Z</time>
</trkpt>
<trkpt lat="49.67775718308985" lon="9.002518644556403">
<ele>198.6</ele>
<time>2024-05-10T12:10:47Z</time>
</trkpt>
<trkpt lat="49.67778014950454" lon="9.002534821629524">
<ele>198.6</ele>
<time>2024-05-10T12:10:48Z</time>
</trkpt>
<trkpt lat="49.67780680395663" lon="9.002550076693296">
<ele>198.6</ele>
<time>2024-05-10T12:10:49Z</time>
</trkpt>
<trkpt lat="49.677829686552286" lon="9.002561559900641">
<ele>198.6</ele>
<time>2024-05-10T12:10:50Z</time>
</trkpt>
<trkpt lat="49.6778564248234" lon="9.002574887126684">
<ele>198.6</ele>
<time>2024-05-10T12:10:51Z</time>
</trkpt>
<trkpt lat="49.67788307927549" lon="9.002590142190456">
<ele>198.6</ele>
<time>2024-05-10T12:10:52Z</time>
</trkpt>
<trkpt lat="49.67790596187115" lon="9.002605397254229">
<ele>198.6</ele>
<time>2024-05-10T12:10:53Z</time>
</trkpt>
<trkpt lat="49.67793647199869" lon="9.002619730308652">
<ele>198.6</ele>
<time>2024-05-10T12:10:54Z</time>
</trkpt>
<trkpt lat="49.67795943841338" lon="9.002636829391122">
<ele>198.6</ele>
<time>2024-05-10T12:10:55Z</time>
</trkpt>
<trkpt lat="49.67798609286547" lon="9.002653090283275">
<ele>198.6</ele>
<time>2024-05-10T12:10:56Z</time>
</trkpt>
<trkpt lat="49.678008975461125" lon="9.002668345347047">
<ele>198.6</ele>
<time>2024-05-10T12:10:57Z</time>
</trkpt>
<trkpt lat="49.67803571373224" lon="9.00267974473536">
<ele>198.6</ele>
<time>2024-05-10T12:10:58Z</time>
</trkpt>
<trkpt lat="49.6780585963279" lon="9.002691227942705">
<ele>198.6</ele>
<time>2024-05-10T12:10:59Z</time>
</trkpt>
<trkpt lat="49.678085250779986" lon="9.002703633159399">
<ele>198.6</ele>
<time>2024-05-10T12:11:00Z</time>
</trkpt>
<trkpt lat="49.67810436151922" lon="9.002717966213822">
<ele>198.6</ele>
<time>2024-05-10T12:11:01Z</time>
</trkpt>
<trkpt lat="49.67812347225845" lon="9.002730287611485">
<ele>198.6</ele>
<time>2024-05-10T12:11:02Z</time>
</trkpt>
<trkpt lat="49.67814249917865" lon="9.00274177081883">
<ele>198.6</ele>
<time>2024-05-10T12:11:03Z</time>
</trkpt>
<trkpt lat="49.67816160991788" lon="9.002746548503637">
<ele>198.4</ele>
<time>2024-05-10T12:11:04Z</time>
</trkpt>
<trkpt lat="49.67817686498165" lon="9.002753254026175">
<ele>198.4</ele>
<time>2024-05-10T12:11:05Z</time>
</trkpt>
<trkpt lat="49.678188264369965" lon="9.002757025882602">
<ele>198.4</ele>
<time>2024-05-10T12:11:06Z</time>
</trkpt>
<trkpt lat="49.67820351943374" lon="9.002764653414488">
<ele>198.4</ele>
<time>2024-05-10T12:11:07Z</time>
</trkpt>
<trkpt lat="49.67822263017297" lon="9.002773202955723">
<ele>198.4</ele>
<time>2024-05-10T12:11:08Z</time>
</trkpt>
<trkpt lat="49.67824165709317" lon="9.00277798064053">
<ele>198.4</ele>
<time>2024-05-10T12:11:09Z</time>
</trkpt>
<trkpt lat="49.6782607678324" lon="9.00278183631599">
<ele>198.4</ele>
<time>2024-05-10T12:11:10Z</time>
</trkpt>
<trkpt lat="49.67828365042806" lon="9.002786614000797">
<ele>198.6</ele>
<time>2024-05-10T12:11:11Z</time>
</trkpt>
<trkpt lat="49.678306533023715" lon="9.002790385857224">
<ele>198.6</ele>
<time>2024-05-10T12:11:12Z</time>
</trkpt>
<trkpt lat="49.67833327129483" lon="9.002788541838527">
<ele>198.6</ele>
<time>2024-05-10T12:11:13Z</time>
</trkpt>
<trkpt lat="49.67835992574692" lon="9.002784686163068">
<ele>198.4</ele>
<time>2024-05-10T12:11:14Z</time>
</trkpt>
<trkpt lat="49.678386664018035" lon="9.002791391685605">
<ele>198.4</ele>
<time>2024-05-10T12:11:15Z</time>
</trkpt>
<trkpt lat="49.678405690938234" lon="9.002795163542032">
<ele>198.4</ele>
<time>2024-05-10T12:11:16Z</time>
</trkpt>
<trkpt lat="49.67842857353389" lon="9.002797091379762">
<ele>198.4</ele>
<time>2024-05-10T12:11:17Z</time>
</trkpt>
<trkpt lat="49.67845145612955" lon="9.002791391685605">
<ele>198.2</ele>
<time>2024-05-10T12:11:18Z</time>
</trkpt>
<trkpt lat="49.67847819440067" lon="9.002793235704303">
<ele>198.2</ele>
<time>2024-05-10T12:11:19Z</time>
</trkpt>
<trkpt lat="49.678501076996326" lon="9.002793235704303">
<ele>198.2</ele>
<time>2024-05-10T12:11:20Z</time>
</trkpt>
<trkpt lat="49.67852018773556" lon="9.002791391685605">
<ele>198.2</ele>
<time>2024-05-10T12:11:21Z</time>
</trkpt>
<trkpt lat="49.67853921465576" lon="9.002793235704303">
<ele>198.2</ele>
<time>2024-05-10T12:11:22Z</time>
</trkpt>
<trkpt lat="49.67855832539499" lon="9.00280186906457">
<ele>198.4</ele>
<time>2024-05-10T12:11:23Z</time>
</trkpt>
<trkpt lat="49.678565952926874" lon="9.002811424434185">
<ele>198.4</ele>
<time>2024-05-10T12:11:24Z</time>
</trkpt>
<trkpt lat="49.67857358045876" lon="9.002824751660228">
<ele>198.6</ele>
<time>2024-05-10T12:11:25Z</time>
</trkpt>
<trkpt lat="49.67857735231519" lon="9.002844784408808">
<ele>198.6</ele>
<time>2024-05-10T12:11:26Z</time>
</trkpt>
<trkpt lat="49.678581207990646" lon="9.002862889319658">
<ele>198.6</ele>
<time>2024-05-10T12:11:27Z</time>
</trkpt>
<trkpt lat="49.67857735231519" lon="9.002884849905968">
<ele>198.6</ele>
<time>2024-05-10T12:11:28Z</time>
</trkpt>
<trkpt lat="49.67857358045876" lon="9.002911504358053">
<ele>198.6</ele>
<time>2024-05-10T12:11:29Z</time>
</trkpt>
<trkpt lat="49.67857358045876" lon="9.002936314791441">
<ele>198.8</ele>
<time>2024-05-10T12:11:30Z</time>
</trkpt>
<trkpt lat="49.6785697247833" lon="9.002966824918985">
<ele>198.8</ele>
<time>2024-05-10T12:11:31Z</time>
</trkpt>
<trkpt lat="49.6785697247833" lon="9.002994485199451">
<ele>198.6</ele>
<time>2024-05-10T12:11:32Z</time>
</trkpt>
<trkpt lat="49.6785697247833" lon="9.003020217642188">
<ele>198.6</ele>
<time>2024-05-10T12:11:33Z</time>
</trkpt>
<trkpt lat="49.67857358045876" lon="9.003043100237846">
<ele>198.6</ele>
<time>2024-05-10T12:11:34Z</time>
</trkpt>
<trkpt lat="49.67857358045876" lon="9.003069838508964">
<ele>198.4</ele>
<time>2024-05-10T12:11:35Z</time>
</trkpt>
<trkpt lat="49.67857735231519" lon="9.00309364311397">
<ele>198.2</ele>
<time>2024-05-10T12:11:36Z</time>
</trkpt>
<trkpt lat="49.678581207990646" lon="9.003114681690931">
<ele>198.2</ele>
<time>2024-05-10T12:11:37Z</time>
</trkpt>
<trkpt lat="49.67858883552253" lon="9.003151813521981">
<ele>198</ele>
<time>2024-05-10T12:11:38Z</time>
</trkpt>
<trkpt lat="49.67858883552253" lon="9.003190035000443">
<ele>197.8</ele>
<time>2024-05-10T12:11:39Z</time>
</trkpt>
<trkpt lat="49.678584979847074" lon="9.003225322812796">
<ele>197.6</ele>
<time>2024-05-10T12:11:40Z</time>
</trkpt>
<trkpt lat="49.678584979847074" lon="9.00325482711196">
<ele>197.6</ele>
<time>2024-05-10T12:11:41Z</time>
</trkpt>
<trkpt lat="49.67858883552253" lon="9.003281565383077">
<ele>197.6</ele>
<time>2024-05-10T12:11:42Z</time>
</trkpt>
<trkpt lat="49.67858883552253" lon="9.003305369988084">
<ele>197.6</ele>
<time>2024-05-10T12:11:43Z</time>
</trkpt>
<trkpt lat="49.67858883552253" lon="9.003328252583742">
<ele>197.6</ele>
<time>2024-05-10T12:11:44Z</time>
</trkpt>
<trkpt lat="49.678584979847074" lon="9.003364546224475">
<ele>197.6</ele>
<time>2024-05-10T12:11:45Z</time>
</trkpt>
<trkpt lat="49.678581207990646" lon="9.00339120067656">
<ele>197.6</ele>
<time>2024-05-10T12:11:46Z</time>
</trkpt>
<trkpt lat="49.678584979847074" lon="9.003417938947678">
<ele>197.6</ele>
<time>2024-05-10T12:11:47Z</time>
</trkpt>
<trkpt lat="49.678581207990646" lon="9.003444593399763">
<ele>197.8</ele>
<time>2024-05-10T12:11:48Z</time>
</trkpt>
<trkpt lat="49.678581207990646" lon="9.003468481823802">
<ele>197.8</ele>
<time>2024-05-10T12:11:49Z</time>
</trkpt>
<trkpt lat="49.678584979847074" lon="9.00349329225719">
<ele>198</ele>
<time>2024-05-10T12:11:50Z</time>
</trkpt>
<trkpt lat="49.678584979847074" lon="9.003518102690578">
<ele>198</ele>
<time>2024-05-10T12:11:51Z</time>
</trkpt>
<trkpt lat="49.678584979847074" lon="9.003542829304934">
<ele>198</ele>
<time>2024-05-10T12:11:52Z</time>
</trkpt>
<trkpt lat="49.678584979847074" lon="9.00356956757605">
<ele>198</ele>
<time>2024-05-10T12:11:53Z</time>
</trkpt>
<trkpt lat="49.67858883552253" lon="9.003595300018787">
<ele>198</ele>
<time>2024-05-10T12:11:54Z</time>
</trkpt>
<trkpt lat="49.67859260737896" lon="9.003616254776716">
<ele>198.2</ele>
<time>2024-05-10T12:11:55Z</time>
</trkpt>
<trkpt lat="49.67859646305442" lon="9.003642071038485">
<ele>198.4</ele>
<time>2024-05-10T12:11:56Z</time>
</trkpt>
<trkpt lat="49.678600234910846" lon="9.00366679765284">
<ele>198.4</ele>
<time>2024-05-10T12:11:57Z</time>
</trkpt>
<trkpt lat="49.67860786244273" lon="9.00368976406753">
<ele>198.6</ele>
<time>2024-05-10T12:11:58Z</time>
</trkpt>
<trkpt lat="49.67860786244273" lon="9.003705019131303">
<ele>198.8</ele>
<time>2024-05-10T12:11:59Z</time>
</trkpt>
<trkpt lat="49.67861171811819" lon="9.003711640834808">
<ele>199.2</ele>
<time>2024-05-10T12:12:00Z</time>
</trkpt>
<trkpt lat="49.67861548997462" lon="9.003720274195075">
<ele>199.4</ele>
<time>2024-05-10T12:12:01Z</time>
</trkpt>
<trkpt lat="49.67861934565008" lon="9.003727901726961">
<ele>199.6</ele>
<time>2024-05-10T12:12:02Z</time>
</trkpt>
<trkpt lat="49.678623117506504" lon="9.003736451268196">
<ele>199.8</ele>
<time>2024-05-10T12:12:03Z</time>
</trkpt>
<trkpt lat="49.67862697318196" lon="9.003745000809431">
<ele>200</ele>
<time>2024-05-10T12:12:04Z</time>
</trkpt>
<trkpt lat="49.67863082885742" lon="9.003749778494239">
<ele>200</ele>
<time>2024-05-10T12:12:05Z</time>
</trkpt>
<trkpt lat="49.67863082885742" lon="9.003751706331968">
<ele>200.2</ele>
<time>2024-05-10T12:12:06Z</time>
</trkpt>
<trkpt lat="49.67863082885742" lon="9.003754556179047">
<ele>200.2</ele>
<time>2024-05-10T12:12:07Z</time>
</trkpt>
<trkpt lat="49.67863082885742" lon="9.003760255873203">
<ele>200.2</ele>
<time>2024-05-10T12:12:08Z</time>
</trkpt>
<trkpt lat="49.67862697318196" lon="9.003761261701584">
<ele>200.2</ele>
<time>2024-05-10T12:12:09Z</time>
</trkpt>
<trkpt lat="49.67862697318196" lon="9.003763189539313">
<ele>200.2</ele>
<time>2024-05-10T12:12:10Z</time>
</trkpt>
<trkpt lat="49.67862697318196" lon="9.00376696139574">
<ele>200.2</ele>
<time>2024-05-10T12:12:12Z</time>
</trkpt>
<trkpt lat="49.67862697318196" lon="9.003773666918278">
<ele>200</ele>
<time>2024-05-10T12:12:13Z</time>
</trkpt>
<trkpt lat="49.67862697318196" lon="9.003774588927627">
<ele>200</ele>
<time>2024-05-10T12:12:14Z</time>
</trkpt>
<trkpt lat="49.67863082885742" lon="9.003776516765356">
<ele>199.8</ele>
<time>2024-05-10T12:12:16Z</time>
</trkpt>
<trkpt lat="49.67863460071385" lon="9.003778444603086">
<ele>199.8</ele>
<time>2024-05-10T12:12:17Z</time>
</trkpt>
<trkpt lat="49.67863845638931" lon="9.003774588927627">
<ele>199.6</ele>
<time>2024-05-10T12:12:18Z</time>
</trkpt>
<trkpt lat="49.67863845638931" lon="9.003771739080548">
<ele>199.4</ele>
<time>2024-05-10T12:12:19Z</time>
</trkpt>
<trkpt lat="49.67863845638931" lon="9.003769811242819">
<ele>199.2</ele>
<time>2024-05-10T12:12:20Z</time>
</trkpt>
<trkpt lat="49.67863845638931" lon="9.003767967224121">
<ele>199</ele>
<time>2024-05-10T12:12:21Z</time>
</trkpt>
<trkpt lat="49.67863845638931" lon="9.00376696139574">
<ele>198.8</ele>
<time>2024-05-10T12:12:22Z</time>
</trkpt>
<trkpt lat="49.67863845638931" lon="9.003765033558011">
<ele>198.8</ele>
<time>2024-05-10T12:12:24Z</time>
</trkpt>
<trkpt lat="49.678642228245735" lon="9.003765033558011">
<ele>198.6</ele>
<time>2024-05-10T12:12:26Z</time>
</trkpt>
<trkpt lat="49.67863845638931" lon="9.003763189539313">
<ele>198.4</ele>
<time>2024-05-10T12:12:27Z</time>
</trkpt>
<trkpt lat="49.678642228245735" lon="9.003761261701584">
<ele>198.2</ele>
<time>2024-05-10T12:12:28Z</time>
</trkpt>
<trkpt lat="49.678642228245735" lon="9.003760255873203">
<ele>198</ele>
<time>2024-05-10T12:12:29Z</time>
</trkpt>
<trkpt lat="49.678642228245735" lon="9.003758411854506">
<ele>197.8</ele>
<time>2024-05-10T12:12:30Z</time>
</trkpt>
<trkpt lat="49.678642228245735" lon="9.003756484016776">
<ele>197.6</ele>
<time>2024-05-10T12:12:31Z</time>
</trkpt>
<trkpt lat="49.678642228245735" lon="9.003758411854506">
<ele>197.6</ele>
<time>2024-05-10T12:12:33Z</time>
</trkpt>
<trkpt lat="49.678642228245735" lon="9.003756484016776">
<ele>197.4</ele>
<time>2024-05-10T12:12:35Z</time>
</trkpt>
<trkpt lat="49.678642228245735" lon="9.003753634169698">
<ele>197.4</ele>
<time>2024-05-10T12:12:42Z</time>
</trkpt>
<trkpt lat="49.67863845638931" lon="9.003754556179047">
<ele>197.2</ele>
<time>2024-05-10T12:12:43Z</time>
</trkpt>
<trkpt lat="49.67863845638931" lon="9.003756484016776">
<ele>197</ele>
<time>2024-05-10T12:12:44Z</time>
</trkpt>
<trkpt lat="49.67863845638931" lon="9.003758411854506">
<ele>196.8</ele>
<time>2024-05-10T12:12:45Z</time>
</trkpt>
<trkpt lat="49.678642228245735" lon="9.003758411854506">
<ele>196.6</ele>
<time>2024-05-10T12:12:47Z</time>
</trkpt>
<trkpt lat="49.67863845638931" lon="9.003760255873203">
<ele>196.6</ele>
<time>2024-05-10T12:12:48Z</time>
</trkpt>
<trkpt lat="49.67863845638931" lon="9.003761261701584">
<ele>196.4</ele>
<time>2024-05-10T12:12:49Z</time>
</trkpt>
<trkpt lat="49.67863845638931" lon="9.003760255873203">
<ele>196.4</ele>
<time>2024-05-10T12:12:53Z</time>
</trkpt>
<trkpt lat="49.67863845638931" lon="9.003758411854506">
<ele>196.2</ele>
<time>2024-05-10T12:12:55Z</time>
</trkpt>
<trkpt lat="49.67863845638931" lon="9.003760255873203">
<ele>196.2</ele>
<time>2024-05-10T12:12:56Z</time>
</trkpt>
<trkpt lat="49.67863845638931" lon="9.003758411854506">
<ele>196</ele>
<time>2024-05-10T12:12:58Z</time>
</trkpt>
<trkpt lat="49.67863845638931" lon="9.003756484016776">
<ele>196</ele>
<time>2024-05-10T12:12:59Z</time>
</trkpt>
<trkpt lat="49.67863845638931" lon="9.003754556179047">
<ele>196</ele>
<time>2024-05-10T12:13:01Z</time>
</trkpt>
<trkpt lat="49.67863845638931" lon="9.003753634169698">
<ele>196</ele>
<time>2024-05-10T12:13:04Z</time>
</trkpt>
<trkpt lat="49.67863845638931" lon="9.003751706331968">
<ele>196</ele>
<time>2024-05-10T12:13:05Z</time>
</trkpt>
<trkpt lat="49.67863460071385" lon="9.003751706331968">
<ele>196</ele>
<time>2024-05-10T12:13:06Z</time>
</trkpt>
<trkpt lat="49.67863845638931" lon="9.003751706331968">
<ele>196</ele>
<time>2024-05-10T12:13:07Z</time>
</trkpt>
<trkpt lat="49.67863460071385" lon="9.003749778494239">
<ele>196</ele>
<time>2024-05-10T12:13:09Z</time>
</trkpt>
<trkpt lat="49.67863845638931" lon="9.003747934475541">
<ele>196</ele>
<time>2024-05-10T12:13:13Z</time>
</trkpt>
<trkpt lat="49.67863460071385" lon="9.003749778494239">
<ele>196</ele>
<time>2024-05-10T12:13:14Z</time>
</trkpt>
<trkpt lat="49.67863460071385" lon="9.003747934475541">
<ele>196</ele>
<time>2024-05-10T12:13:15Z</time>
</trkpt>
<trkpt lat="49.67863460071385" lon="9.00374692864716">
<ele>196</ele>
<time>2024-05-10T12:13:20Z</time>
</trkpt>
<trkpt lat="49.67863460071385" lon="9.003743156790733">
<ele>196</ele>
<time>2024-05-10T12:13:23Z</time>
</trkpt>
<trkpt lat="49.67863082885742" lon="9.003740306943655">
<ele>196</ele>
<time>2024-05-10T12:13:24Z</time>
</trkpt>
<trkpt lat="49.67863460071385" lon="9.003741228953004">
<ele>196</ele>
<time>2024-05-10T12:13:27Z</time>
</trkpt>
<trkpt lat="49.67863460071385" lon="9.003743156790733">
<ele>196</ele>
<time>2024-05-10T12:13:28Z</time>
</trkpt>
<trkpt lat="49.67863460071385" lon="9.003745000809431">
<ele>196</ele>
<time>2024-05-10T12:13:29Z</time>
</trkpt>
<trkpt lat="49.67863082885742" lon="9.003745000809431">
<ele>196</ele>
<time>2024-05-10T12:13:30Z</time>
</trkpt>
<trkpt lat="49.67863082885742" lon="9.003743156790733">
<ele>196.2</ele>
<time>2024-05-10T12:13:31Z</time>
</trkpt>
<trkpt lat="49.67863460071385" lon="9.003743156790733">
<ele>196.2</ele>
<time>2024-05-10T12:13:32Z</time>
</trkpt>
<trkpt lat="49.67863460071385" lon="9.003741228953004">
<ele>196.4</ele>
<time>2024-05-10T12:13:33Z</time>
</trkpt>
<trkpt lat="49.67866511084139" lon="9.003761261701584">
<ele>197.2</ele>
<time>2024-05-10T12:13:33Z</time>
</trkpt>
<trkpt lat="49.678661338984966" lon="9.003765033558011">
<ele>197.2</ele>
<time>2024-05-10T12:13:35Z</time>
</trkpt>
<trkpt lat="49.67865748330951" lon="9.00376696139574">
<ele>197.2</ele>
<time>2024-05-10T12:13:36Z</time>
</trkpt>
<trkpt lat="49.678661338984966" lon="9.003765033558011">
<ele>197.2</ele>
<time>2024-05-10T12:13:37Z</time>
</trkpt>
<trkpt lat="49.67865748330951" lon="9.003767967224121">
<ele>197.2</ele>
<time>2024-05-10T12:13:39Z</time>
</trkpt>
<trkpt lat="49.67865371145308" lon="9.003769811242819">
<ele>197.2</ele>
<time>2024-05-10T12:13:40Z</time>
</trkpt>
<trkpt lat="49.67865371145308" lon="9.003767967224121">
<ele>197.2</ele>
<time>2024-05-10T12:13:41Z</time>
</trkpt>
<trkpt lat="49.67865371145308" lon="9.003769811242819">
<ele>197.2</ele>
<time>2024-05-10T12:13:42Z</time>
</trkpt>
<trkpt lat="49.67864985577762" lon="9.003773666918278">
<ele>197.2</ele>
<time>2024-05-10T12:13:43Z</time>
</trkpt>
<trkpt lat="49.67864985577762" lon="9.003771739080548">
<ele>197.2</ele>
<time>2024-05-10T12:13:45Z</time>
</trkpt>
<trkpt lat="49.67864985577762" lon="9.003774588927627">
<ele>197.2</ele>
<time>2024-05-10T12:13:48Z</time>
</trkpt>
<trkpt lat="49.67864985577762" lon="9.003773666918278">
<ele>197.2</ele>
<time>2024-05-10T12:13:50Z</time>
</trkpt>
<trkpt lat="49.67864985577762" lon="9.003771739080548">
<ele>197.2</ele>
<time>2024-05-10T12:13:51Z</time>
</trkpt>
<trkpt lat="49.67864985577762" lon="9.003767967224121">
<ele>197.2</ele>
<time>2024-05-10T12:13:53Z</time>
</trkpt>
<trkpt lat="49.67864985577762" lon="9.00376696139574">
<ele>197.2</ele>
<time>2024-05-10T12:13:56Z</time>
</trkpt>
<trkpt lat="49.67864985577762" lon="9.003765033558011">
<ele>197.2</ele>
<time>2024-05-10T12:13:58Z</time>
</trkpt>
<trkpt lat="49.678646083921194" lon="9.00376696139574">
<ele>197.2</ele>
<time>2024-05-10T12:13:59Z</time>
</trkpt>
<trkpt lat="49.678642228245735" lon="9.003767967224121">
<ele>197.2</ele>
<time>2024-05-10T12:14:01Z</time>
</trkpt>
<trkpt lat="49.678642228245735" lon="9.00376696139574">
<ele>197.2</ele>
<time>2024-05-10T12:14:02Z</time>
</trkpt>
<trkpt lat="49.67863845638931" lon="9.003769811242819">
<ele>197.2</ele>
<time>2024-05-10T12:14:03Z</time>
</trkpt>
<trkpt lat="49.67863845638931" lon="9.003767967224121">
<ele>197.2</ele>
<time>2024-05-10T12:14:04Z</time>
</trkpt>
<trkpt lat="49.67863460071385" lon="9.003769811242819">
<ele>197.2</ele>
<time>2024-05-10T12:14:06Z</time>
</trkpt>
<trkpt lat="49.67863082885742" lon="9.003769811242819">
<ele>197.2</ele>
<time>2024-05-10T12:14:07Z</time>
</trkpt>
<trkpt lat="49.67863082885742" lon="9.003767967224121">
<ele>197.2</ele>
<time>2024-05-10T12:14:08Z</time>
</trkpt>
<trkpt lat="49.67863082885742" lon="9.00376696139574">
<ele>197.2</ele>
<time>2024-05-10T12:14:10Z</time>
</trkpt>
<trkpt lat="49.67863460071385" lon="9.00376696139574">
<ele>197.2</ele>
<time>2024-05-10T12:14:12Z</time>
</trkpt>
<trkpt lat="49.67863460071385" lon="9.003765033558011">
<ele>197.2</ele>
<time>2024-05-10T12:14:13Z</time>
</trkpt>
<trkpt lat="49.67863460071385" lon="9.003763189539313">
<ele>197.2</ele>
<time>2024-05-10T12:14:17Z</time>
</trkpt>
<trkpt lat="49.67863845638931" lon="9.003763189539313">
<ele>197.2</ele>
<time>2024-05-10T12:14:20Z</time>
</trkpt>
<trkpt lat="49.67863845638931" lon="9.003761261701584">
<ele>197.2</ele>
<time>2024-05-10T12:14:22Z</time>
</trkpt>
<trkpt lat="49.67863845638931" lon="9.003763189539313">
<ele>197.2</ele>
<time>2024-05-10T12:14:26Z</time>
</trkpt>
<trkpt lat="49.67863845638931" lon="9.003765033558011">
<ele>197.2</ele>
<time>2024-05-10T12:14:29Z</time>
</trkpt>
<trkpt lat="49.67863845638931" lon="9.003767967224121">
<ele>197.2</ele>
<time>2024-05-10T12:14:32Z</time>
</trkpt>
<trkpt lat="49.67863845638931" lon="9.003771739080548">
<ele>197.2</ele>
<time>2024-05-10T12:14:34Z</time>
</trkpt>
<trkpt lat="49.67863845638931" lon="9.003769811242819">
<ele>197.2</ele>
<time>2024-05-10T12:14:37Z</time>
</trkpt>
<trkpt lat="49.67863845638931" lon="9.003767967224121">
<ele>197.2</ele>
<time>2024-05-10T12:14:38Z</time>
</trkpt>
<trkpt lat="49.67863845638931" lon="9.00376696139574">
<ele>197.2</ele>
<time>2024-05-10T12:14:41Z</time>
</trkpt>
<trkpt lat="49.67863845638931" lon="9.003765033558011">
<ele>197.2</ele>
<time>2024-05-10T12:14:42Z</time>
</trkpt>
<trkpt lat="49.678642228245735" lon="9.003761261701584">
<ele>197.2</ele>
<time>2024-05-10T12:14:43Z</time>
</trkpt>
<trkpt lat="49.678642228245735" lon="9.003760255873203">
<ele>197.2</ele>
<time>2024-05-10T12:14:45Z</time>
</trkpt>
<trkpt lat="49.678646083921194" lon="9.003756484016776">
<ele>197.2</ele>
<time>2024-05-10T12:14:48Z</time>
</trkpt>
<trkpt lat="49.678642228245735" lon="9.003758411854506">
<ele>197.2</ele>
<time>2024-05-10T12:14:49Z</time>
</trkpt>
<trkpt lat="49.67863845638931" lon="9.003756484016776">
<ele>197.2</ele>
<time>2024-05-10T12:14:51Z</time>
</trkpt>
<trkpt lat="49.67863845638931" lon="9.003754556179047">
<ele>197.2</ele>
<time>2024-05-10T12:14:53Z</time>
</trkpt>
<trkpt lat="49.67863845638931" lon="9.003753634169698">
<ele>197.2</ele>
<time>2024-05-10T12:14:56Z</time>
</trkpt>
<trkpt lat="49.67863845638931" lon="9.003754556179047">
<ele>197.2</ele>
<time>2024-05-10T12:14:57Z</time>
</trkpt>
<trkpt lat="49.67863845638931" lon="9.003753634169698">
<ele>197.2</ele>
<time>2024-05-10T12:15:01Z</time>
</trkpt>
<trkpt lat="49.67863460071385" lon="9.003753634169698">
<ele>197.2</ele>
<time>2024-05-10T12:15:03Z</time>
</trkpt>
<trkpt lat="49.67863460071385" lon="9.003751706331968">
<ele>197.2</ele>
<time>2024-05-10T12:15:05Z</time>
</trkpt>
<trkpt lat="49.67863460071385" lon="9.003749778494239">
<ele>197.2</ele>
<time>2024-05-10T12:15:07Z</time>
</trkpt>
<trkpt lat="49.67863082885742" lon="9.003751706331968">
<ele>197.2</ele>
<time>2024-05-10T12:15:09Z</time>
</trkpt>
<trkpt lat="49.67863082885742" lon="9.003749778494239">
<ele>197.2</ele>
<time>2024-05-10T12:15:11Z</time>
</trkpt>
<trkpt lat="49.67863082885742" lon="9.003747934475541">
<ele>197.2</ele>
<time>2024-05-10T12:15:14Z</time>
</trkpt>
<trkpt lat="49.67863460071385" lon="9.003747934475541">
<ele>197.2</ele>
<time>2024-05-10T12:15:17Z</time>
</trkpt>
<trkpt lat="49.67863460071385" lon="9.00374692864716">
<ele>197.2</ele>
<time>2024-05-10T12:15:20Z</time>
</trkpt>
<trkpt lat="49.67863082885742" lon="9.003747934475541">
<ele>197.2</ele>
<time>2024-05-10T12:15:21Z</time>
</trkpt>
<trkpt lat="49.67863082885742" lon="9.00374692864716">
<ele>197.2</ele>
<time>2024-05-10T12:15:23Z</time>
</trkpt>
<trkpt lat="49.67863460071385" lon="9.00374692864716">
<ele>197.2</ele>
<time>2024-05-10T12:15:26Z</time>
</trkpt>
<trkpt lat="49.67863460071385" lon="9.003747934475541">
<ele>197.2</ele>
<time>2024-05-10T12:15:28Z</time>
</trkpt>
<trkpt lat="49.67863460071385" lon="9.00374692864716">
<ele>197.2</ele>
<time>2024-05-10T12:15:29Z</time>
</trkpt>
<trkpt lat="49.67863460071385" lon="9.003745000809431">
<ele>197.2</ele>
<time>2024-05-10T12:15:31Z</time>
</trkpt>
<trkpt lat="49.67863845638931" lon="9.003745000809431">
<ele>197.2</ele>
<time>2024-05-10T12:15:33Z</time>
</trkpt>
<trkpt lat="49.67863460071385" lon="9.00374692864716">
<ele>197.2</ele>
<time>2024-05-10T12:15:34Z</time>
</trkpt>
<trkpt lat="49.67863460071385" lon="9.003745000809431">
<ele>197.2</ele>
<time>2024-05-10T12:15:35Z</time>
</trkpt>
<trkpt lat="49.67863845638931" lon="9.003745000809431">
<ele>197.2</ele>
<time>2024-05-10T12:15:36Z</time>
</trkpt>
<trkpt lat="49.67863845638931" lon="9.003743156790733">
<ele>197.2</ele>
<time>2024-05-10T12:15:38Z</time>
</trkpt>
<trkpt lat="49.67863845638931" lon="9.003741228953004">
<ele>197.2</ele>
<time>2024-05-10T12:15:42Z</time>
</trkpt>
<trkpt lat="49.67863845638931" lon="9.003740306943655">
<ele>197.2</ele>
<time>2024-05-10T12:15:43Z</time>
</trkpt>
<trkpt lat="49.678642228245735" lon="9.003740306943655">
<ele>197.2</ele>
<time>2024-05-10T12:15:44Z</time>
</trkpt>
<trkpt lat="49.678642228245735" lon="9.003738379105926">
<ele>197.2</ele>
<time>2024-05-10T12:15:47Z</time>
</trkpt>
<trkpt lat="49.678646083921194" lon="9.003738379105926">
<ele>197.2</ele>
<time>2024-05-10T12:15:49Z</time>
</trkpt>
<trkpt lat="49.678646083921194" lon="9.003736451268196">
<ele>197.2</ele>
<time>2024-05-10T12:15:52Z</time>
</trkpt>
<trkpt lat="49.67864985577762" lon="9.003736451268196">
<ele>197.2</ele>
<time>2024-05-10T12:15:54Z</time>
</trkpt>
<trkpt lat="49.67864985577762" lon="9.003734523430467">
<ele>197.2</ele>
<time>2024-05-10T12:15:55Z</time>
</trkpt>
<trkpt lat="49.67864985577762" lon="9.003733601421118">
<ele>197.2</ele>
<time>2024-05-10T12:15:58Z</time>
</trkpt>
<trkpt lat="49.67864985577762" lon="9.003734523430467">
<ele>197.2</ele>
<time>2024-05-10T12:16:00Z</time>
</trkpt>
<trkpt lat="49.67864985577762" lon="9.003733601421118">
<ele>197.2</ele>
<time>2024-05-10T12:16:02Z</time>
</trkpt>
<trkpt lat="49.67864985577762" lon="9.003731673583388">
<ele>197.2</ele>
<time>2024-05-10T12:16:03Z</time>
</trkpt>
<trkpt lat="49.67864985577762" lon="9.003729745745659">
<ele>197.2</ele>
<time>2024-05-10T12:16:04Z</time>
</trkpt>
<trkpt lat="49.67864985577762" lon="9.003733601421118">
<ele>197.2</ele>
<time>2024-05-10T12:16:05Z</time>
</trkpt>
<trkpt lat="49.67864985577762" lon="9.003734523430467">
<ele>197.2</ele>
<time>2024-05-10T12:16:07Z</time>
</trkpt>
<trkpt lat="49.67864985577762" lon="9.003729745745659">
<ele>197.2</ele>
<time>2024-05-10T12:16:10Z</time>
</trkpt>
<trkpt lat="49.67864985577762" lon="9.00372689589858">
<ele>197.2</ele>
<time>2024-05-10T12:16:11Z</time>
</trkpt>
<trkpt lat="49.678642228245735" lon="9.00372689589858">
<ele>197.2</ele>
<time>2024-05-10T12:16:12Z</time>
</trkpt>
<trkpt lat="49.67863845638931" lon="9.003723124042153">
<ele>197.2</ele>
<time>2024-05-10T12:16:13Z</time>
</trkpt>
<trkpt lat="49.67863845638931" lon="9.003720274195075">
<ele>197.2</ele>
<time>2024-05-10T12:16:14Z</time>
</trkpt>
<trkpt lat="49.67863845638931" lon="9.003721196204424">
<ele>197.2</ele>
<time>2024-05-10T12:16:15Z</time>
</trkpt>
<trkpt lat="49.67863845638931" lon="9.003723124042153">
<ele>197.2</ele>
<time>2024-05-10T12:16:16Z</time>
</trkpt>
<trkpt lat="49.67863845638931" lon="9.003720274195075">
<ele>197.2</ele>
<time>2024-05-10T12:16:18Z</time>
</trkpt>
<trkpt lat="49.67863845638931" lon="9.003713568672538">
<ele>197.2</ele>
<time>2024-05-10T12:16:20Z</time>
</trkpt>
<trkpt lat="49.67863845638931" lon="9.003707868978381">
<ele>197.2</ele>
<time>2024-05-10T12:16:21Z</time>
</trkpt>
<trkpt lat="49.678642228245735" lon="9.003709712997079">
<ele>197.2</ele>
<time>2024-05-10T12:16:22Z</time>
</trkpt>
<trkpt lat="49.67863460071385" lon="9.00372689589858">
<ele>197.2</ele>
<time>2024-05-10T12:16:23Z</time>
</trkpt>
<trkpt lat="49.67863460071385" lon="9.003734523430467">
<ele>197.2</ele>
<time>2024-05-10T12:16:24Z</time>
</trkpt>
<trkpt lat="49.67863082885742" lon="9.003745000809431">
<ele>197.2</ele>
<time>2024-05-10T12:16:25Z</time>
</trkpt>
<trkpt lat="49.67863082885742" lon="9.003743156790733">
<ele>197.2</ele>
<time>2024-05-10T12:16:26Z</time>
</trkpt>
<trkpt lat="49.67863082885742" lon="9.003741228953004">
<ele>197.2</ele>
<time>2024-05-10T12:16:27Z</time>
</trkpt>
<trkpt lat="49.67863460071385" lon="9.003741228953004">
<ele>197.2</ele>
<time>2024-05-10T12:16:28Z</time>
</trkpt>
<trkpt lat="49.67863845638931" lon="9.003741228953004">
<ele>197.2</ele>
<time>2024-05-10T12:16:30Z</time>
</trkpt>
<trkpt lat="49.67863845638931" lon="9.003740306943655">
<ele>197.2</ele>
<time>2024-05-10T12:16:32Z</time>
</trkpt>
<trkpt lat="49.67863845638931" lon="9.003738379105926">
<ele>197.2</ele>
<time>2024-05-10T12:16:34Z</time>
</trkpt>
<trkpt lat="49.67863845638931" lon="9.003736451268196">
<ele>197.2</ele>
<time>2024-05-10T12:16:35Z</time>
</trkpt>
<trkpt lat="49.67863845638931" lon="9.003740306943655">
<ele>197.2</ele>
<time>2024-05-10T12:16:36Z</time>
</trkpt>
<trkpt lat="49.67863845638931" lon="9.00374692864716">
<ele>197.2</ele>
<time>2024-05-10T12:16:37Z</time>
</trkpt>
<trkpt lat="49.67863845638931" lon="9.003753634169698">
<ele>197.2</ele>
<time>2024-05-10T12:16:38Z</time>
</trkpt>
<trkpt lat="49.67863845638931" lon="9.003761261701584">
<ele>197.2</ele>
<time>2024-05-10T12:16:39Z</time>
</trkpt>
<trkpt lat="49.67863845638931" lon="9.003767967224121">
<ele>197.2</ele>
<time>2024-05-10T12:16:40Z</time>
</trkpt>
<trkpt lat="49.67863845638931" lon="9.003776516765356">
<ele>197.2</ele>
<time>2024-05-10T12:16:41Z</time>
</trkpt>
<trkpt lat="49.67863460071385" lon="9.003783222287893">
<ele>197.2</ele>
<time>2024-05-10T12:16:42Z</time>
</trkpt>
<trkpt lat="49.67863082885742" lon="9.00378699414432">
<ele>197.2</ele>
<time>2024-05-10T12:16:43Z</time>
</trkpt>
<trkpt lat="49.67862697318196" lon="9.00378791615367">
<ele>197.2</ele>
<time>2024-05-10T12:16:44Z</time>
</trkpt>
<trkpt lat="49.67862697318196" lon="9.003791771829128">
<ele>197.2</ele>
<time>2024-05-10T12:16:45Z</time>
</trkpt>
<trkpt lat="49.67862697318196" lon="9.003800321370363">
<ele>197.2</ele>
<time>2024-05-10T12:16:46Z</time>
</trkpt>
<trkpt lat="49.67863082885742" lon="9.003805099055171">
<ele>197.2</ele>
<time>2024-05-10T12:16:47Z</time>
</trkpt>
<trkpt lat="49.67862697318196" lon="9.003809876739979">
<ele>197.2</ele>
<time>2024-05-10T12:16:48Z</time>
</trkpt>
<trkpt lat="49.67863082885742" lon="9.003814654424787">
<ele>197.2</ele>
<time>2024-05-10T12:16:49Z</time>
</trkpt>
<trkpt lat="49.67862697318196" lon="9.003816582262516">
<ele>197.2</ele>
<time>2024-05-10T12:16:50Z</time>
</trkpt>
<trkpt lat="49.678623117506504" lon="9.003816582262516">
<ele>197.2</ele>
<time>2024-05-10T12:16:51Z</time>
</trkpt>
<trkpt lat="49.678623117506504" lon="9.003818510100245">
<ele>197.2</ele>
<time>2024-05-10T12:16:55Z</time>
</trkpt>
<trkpt lat="49.67862697318196" lon="9.003818510100245">
<ele>197.2</ele>
<time>2024-05-10T12:16:56Z</time>
</trkpt>
<trkpt lat="49.67862697318196" lon="9.003820354118943">
<ele>197.2</ele>
<time>2024-05-10T12:16:57Z</time>
</trkpt>
<trkpt lat="49.67862697318196" lon="9.003818510100245">
<ele>197.2</ele>
<time>2024-05-10T12:16:58Z</time>
</trkpt>
<trkpt lat="49.67862697318196" lon="9.003820354118943">
<ele>197.2</ele>
<time>2024-05-10T12:17:01Z</time>
</trkpt>
<trkpt lat="49.67862697318196" lon="9.003821359947324">
<ele>197.2</ele>
<time>2024-05-10T12:17:04Z</time>
</trkpt>
<trkpt lat="49.67862697318196" lon="9.003820354118943">
<ele>197.2</ele>
<time>2024-05-10T12:17:05Z</time>
</trkpt>
<trkpt lat="49.67862697318196" lon="9.003818510100245">
<ele>197.2</ele>
<time>2024-05-10T12:17:07Z</time>
</trkpt>
<trkpt lat="49.678623117506504" lon="9.003820354118943">
<ele>197.2</ele>
<time>2024-05-10T12:17:10Z</time>
</trkpt>
<trkpt lat="49.678623117506504" lon="9.003821359947324">
<ele>197.2</ele>
<time>2024-05-10T12:17:16Z</time>
</trkpt>
<trkpt lat="49.678623117506504" lon="9.003823203966022">
<ele>197.2</ele>
<time>2024-05-10T12:17:20Z</time>
</trkpt>
<trkpt lat="49.678623117506504" lon="9.003825131803751">
<ele>197.2</ele>
<time>2024-05-10T12:17:21Z</time>
</trkpt>
<trkpt lat="49.678623117506504" lon="9.00382705964148">
<ele>197.2</ele>
<time>2024-05-10T12:17:23Z</time>
</trkpt>
<trkpt lat="49.678623117506504" lon="9.00382798165083">
<ele>197.2</ele>
<time>2024-05-10T12:17:25Z</time>
</trkpt>
<trkpt lat="49.678623117506504" lon="9.003829909488559">
<ele>197.2</ele>
<time>2024-05-10T12:17:26Z</time>
</trkpt>
<trkpt lat="49.678623117506504" lon="9.003831837326288">
<ele>197.2</ele>
<time>2024-05-10T12:17:28Z</time>
</trkpt>
<trkpt lat="49.67861934565008" lon="9.003833765164018">
<ele>197.2</ele>
<time>2024-05-10T12:17:29Z</time>
</trkpt>
<trkpt lat="49.67861934565008" lon="9.003834687173367">
<ele>197.2</ele>
<time>2024-05-10T12:17:30Z</time>
</trkpt>
<trkpt lat="49.67861934565008" lon="9.003836615011096">
<ele>197.2</ele>
<time>2024-05-10T12:17:33Z</time>
</trkpt>
<trkpt lat="49.67861934565008" lon="9.003838459029794">
<ele>197.2</ele>
<time>2024-05-10T12:17:34Z</time>
</trkpt>
<trkpt lat="49.67861548997462" lon="9.003840386867523">
<ele>197.2</ele>
<time>2024-05-10T12:17:37Z</time>
</trkpt>
<trkpt lat="49.67861548997462" lon="9.003843236714602">
<ele>197.2</ele>
<time>2024-05-10T12:17:39Z</time>
</trkpt>
<trkpt lat="49.67861548997462" lon="9.003845164552331">
<ele>197.2</ele>
<time>2024-05-10T12:17:41Z</time>
</trkpt>
<trkpt lat="49.67861548997462" lon="9.00384709239006">
<ele>197.2</ele>
<time>2024-05-10T12:17:43Z</time>
</trkpt>
<trkpt lat="49.67861934565008" lon="9.003845164552331">
<ele>197.2</ele>
<time>2024-05-10T12:17:44Z</time>
</trkpt>
<trkpt lat="49.67861934565008" lon="9.00384709239006">
<ele>197.2</ele>
<time>2024-05-10T12:17:45Z</time>
</trkpt>
<trkpt lat="49.67861934565008" lon="9.00384801439941">
<ele>197.2</ele>
<time>2024-05-10T12:17:47Z</time>
</trkpt>
<trkpt lat="49.67861934565008" lon="9.003849942237139">
<ele>197.2</ele>
<time>2024-05-10T12:17:49Z</time>
</trkpt>
<trkpt lat="49.67861934565008" lon="9.00384801439941">
<ele>197.2</ele>
<time>2024-05-10T12:17:50Z</time>
</trkpt>
<trkpt lat="49.678623117506504" lon="9.00384801439941">
<ele>197.2</ele>
<time>2024-05-10T12:17:53Z</time>
</trkpt>
<trkpt lat="49.678623117506504" lon="9.003849942237139">
<ele>197.2</ele>
<time>2024-05-10T12:17:55Z</time>
</trkpt>
<trkpt lat="49.67861934565008" lon="9.003849942237139">
<ele>197.2</ele>
<time>2024-05-10T12:17:56Z</time>
</trkpt>
<trkpt lat="49.67861934565008" lon="9.00384801439941">
<ele>197.2</ele>
<time>2024-05-10T12:17:58Z</time>
</trkpt>
<trkpt lat="49.678623117506504" lon="9.003845164552331">
<ele>197.2</ele>
<time>2024-05-10T12:17:59Z</time>
</trkpt>
<trkpt lat="49.678623117506504" lon="9.00384709239006">
<ele>197.2</ele>
<time>2024-05-10T12:18:04Z</time>
</trkpt>
<trkpt lat="49.678623117506504" lon="9.003849942237139">
<ele>197.2</ele>
<time>2024-05-10T12:18:05Z</time>
</trkpt>
<trkpt lat="49.678623117506504" lon="9.00384709239006">
<ele>197.2</ele>
<time>2024-05-10T12:18:06Z</time>
</trkpt>
<trkpt lat="49.678623117506504" lon="9.003845164552331">
<ele>197.2</ele>
<time>2024-05-10T12:18:07Z</time>
</trkpt>
<trkpt lat="49.678623117506504" lon="9.003843236714602">
<ele>197.2</ele>
<time>2024-05-10T12:18:08Z</time>
</trkpt>
<trkpt lat="49.678623117506504" lon="9.003841392695904">
<ele>197.2</ele>
<time>2024-05-10T12:18:09Z</time>
</trkpt>
<trkpt lat="49.67861934565008" lon="9.003841392695904">
<ele>197.2</ele>
<time>2024-05-10T12:18:10Z</time>
</trkpt>
<trkpt lat="49.67861934565008" lon="9.003853797912598">
<ele>197.2</ele>
<time>2024-05-10T12:18:11Z</time>
</trkpt>
<trkpt lat="49.678623117506504" lon="9.003861425444484">
<ele>197.2</ele>
<time>2024-05-10T12:18:12Z</time>
</trkpt>
<trkpt lat="49.678623117506504" lon="9.003869974985719">
<ele>197.2</ele>
<time>2024-05-10T12:18:13Z</time>
</trkpt>
<trkpt lat="49.678623117506504" lon="9.003883302211761">
<ele>197.2</ele>
<time>2024-05-10T12:18:14Z</time>
</trkpt>
<trkpt lat="49.67863082885742" lon="9.00390811264515">
<ele>197.2</ele>
<time>2024-05-10T12:18:15Z</time>
</trkpt>
<trkpt lat="49.67863845638931" lon="9.003923367708921">
<ele>197.2</ele>
<time>2024-05-10T12:18:16Z</time>
</trkpt>
<trkpt lat="49.67865371145308" lon="9.00394625030458">
<ele>197.2</ele>
<time>2024-05-10T12:18:17Z</time>
</trkpt>
<trkpt lat="49.67866511084139" lon="9.003959577530622">
<ele>197.2</ele>
<time>2024-05-10T12:18:18Z</time>
</trkpt>
<trkpt lat="49.67867659404874" lon="9.003972988575697">
<ele>197.2</ele>
<time>2024-05-10T12:18:19Z</time>
</trkpt>
<trkpt lat="49.67867659404874" lon="9.003981538116932">
<ele>197.2</ele>
<time>2024-05-10T12:18:20Z</time>
</trkpt>
<trkpt lat="49.67867659404874" lon="9.003990171477199">
<ele>197.2</ele>
<time>2024-05-10T12:18:21Z</time>
</trkpt>
<trkpt lat="49.67867273837328" lon="9.003992015495896">
<ele>197.2</ele>
<time>2024-05-10T12:18:23Z</time>
</trkpt>
<trkpt lat="49.67867273837328" lon="9.003994865342975">
<ele>197.2</ele>
<time>2024-05-10T12:18:24Z</time>
</trkpt>
<trkpt lat="49.67866896651685" lon="9.003996793180704">
<ele>197.2</ele>
<time>2024-05-10T12:18:25Z</time>
</trkpt>
<trkpt lat="49.67866896651685" lon="9.003999643027782">
<ele>197.2</ele>
<time>2024-05-10T12:18:26Z</time>
</trkpt>
<trkpt lat="49.678661338984966" lon="9.004010120406747">
<ele>197.2</ele>
<time>2024-05-10T12:18:28Z</time>
</trkpt>
<trkpt lat="49.67865371145308" lon="9.004019675776362">
<ele>197.2</ele>
<time>2024-05-10T12:18:29Z</time>
</trkpt>
<trkpt lat="49.678646083921194" lon="9.004030153155327">
<ele>197.2</ele>
<time>2024-05-10T12:18:30Z</time>
</trkpt>
<trkpt lat="49.67863845638931" lon="9.00404641404748">
<ele>197.2</ele>
<time>2024-05-10T12:18:31Z</time>
</trkpt>
<trkpt lat="49.67863082885742" lon="9.00406644679606">
<ele>197.2</ele>
<time>2024-05-10T12:18:32Z</time>
</trkpt>
<trkpt lat="49.67862697318196" lon="9.00408455170691">
<ele>197.2</ele>
<time>2024-05-10T12:18:33Z</time>
</trkpt>
<trkpt lat="49.67862697318196" lon="9.004099806770682">
<ele>197.2</ele>
<time>2024-05-10T12:18:34Z</time>
</trkpt>
<trkpt lat="49.67862697318196" lon="9.004117911681533">
<ele>197.2</ele>
<time>2024-05-10T12:18:35Z</time>
</trkpt>
<trkpt lat="49.67863460071385" lon="9.004135094583035">
<ele>197.2</ele>
<time>2024-05-10T12:18:36Z</time>
</trkpt>
<trkpt lat="49.67862697318196" lon="9.004131238907576">
<ele>197.2</ele>
<time>2024-05-10T12:18:37Z</time>
</trkpt>
<trkpt lat="49.67863082885742" lon="9.004137022420764">
<ele>197.2</ele>
<time>2024-05-10T12:18:40Z</time>
</trkpt>
<trkpt lat="49.67862697318196" lon="9.00414364412427">
<ele>197.2</ele>
<time>2024-05-10T12:18:41Z</time>
</trkpt>
<trkpt lat="49.67862697318196" lon="9.004151271656156">
<ele>197.2</ele>
<time>2024-05-10T12:18:42Z</time>
</trkpt>
<trkpt lat="49.678623117506504" lon="9.00416468270123">
<ele>197.2</ele>
<time>2024-05-10T12:18:43Z</time>
</trkpt>
<trkpt lat="49.67861934565008" lon="9.004175160080194">
<ele>197.2</ele>
<time>2024-05-10T12:18:44Z</time>
</trkpt>
<trkpt lat="49.67861934565008" lon="9.0041817817837">
<ele>197.2</ele>
<time>2024-05-10T12:18:45Z</time>
</trkpt>
<trkpt lat="49.67861548997462" lon="9.004190415143967">
<ele>197.2</ele>
<time>2024-05-10T12:18:46Z</time>
</trkpt>
<trkpt lat="49.678604090586305" lon="9.004199970513582">
<ele>197.2</ele>
<time>2024-05-10T12:18:47Z</time>
</trkpt>
<trkpt lat="49.67858883552253" lon="9.004191337153316">
<ele>197.2</ele>
<time>2024-05-10T12:18:48Z</time>
</trkpt>
<trkpt lat="49.67857358045876" lon="9.004193264991045">
<ele>197.2</ele>
<time>2024-05-10T12:18:49Z</time>
</trkpt>
<trkpt lat="49.67855832539499" lon="9.004186559468508">
<ele>197.2</ele>
<time>2024-05-10T12:18:50Z</time>
</trkpt>
<trkpt lat="49.678543070331216" lon="9.0041817817837">
<ele>197.2</ele>
<time>2024-05-10T12:18:51Z</time>
</trkpt>
<trkpt lat="49.67852018773556" lon="9.004171304404736">
<ele>197.2</ele>
<time>2024-05-10T12:18:52Z</time>
</trkpt>
<trkpt lat="49.67849344946444" lon="9.004171304404736">
<ele>197.2</ele>
<time>2024-05-10T12:18:53Z</time>
</trkpt>
<trkpt lat="49.67847056686878" lon="9.004159905016422">
<ele>197.2</ele>
<time>2024-05-10T12:18:54Z</time>
</trkpt>
<trkpt lat="49.67845145612955" lon="9.004151271656156">
<ele>197.2</ele>
<time>2024-05-10T12:18:55Z</time>
</trkpt>
<trkpt lat="49.67843242920935" lon="9.00414364412427">
<ele>197.2</ele>
<time>2024-05-10T12:18:56Z</time>
</trkpt>
<trkpt lat="49.67841331847012" lon="9.004139872267842">
<ele>197.2</ele>
<time>2024-05-10T12:18:57Z</time>
</trkpt>
<trkpt lat="49.67839043587446" lon="9.004139872267842">
<ele>197.2</ele>
<time>2024-05-10T12:18:58Z</time>
</trkpt>
<trkpt lat="49.67837518081069" lon="9.004137022420764">
<ele>197.2</ele>
<time>2024-05-10T12:18:59Z</time>
</trkpt>
<trkpt lat="49.67834852635861" lon="9.004131238907576">
<ele>197.2</ele>
<time>2024-05-10T12:19:00Z</time>
</trkpt>
<trkpt lat="49.67833327129483" lon="9.00412461720407">
<ele>197.2</ele>
<time>2024-05-10T12:19:01Z</time>
</trkpt>
<trkpt lat="49.6783141605556" lon="9.004119839519262">
<ele>197.2</ele>
<time>2024-05-10T12:19:02Z</time>
</trkpt>
<trkpt lat="49.67829890549183" lon="9.00412361137569">
<ele>197.2</ele>
<time>2024-05-10T12:19:03Z</time>
</trkpt>
<trkpt lat="49.6782797947526" lon="9.004121767356992">
<ele>197.2</ele>
<time>2024-05-10T12:19:04Z</time>
</trkpt>
<trkpt lat="49.6782607678324" lon="9.004115061834455">
<ele>197.2</ele>
<time>2024-05-10T12:19:05Z</time>
</trkpt>
<trkpt lat="49.67823402956128" lon="9.00410458445549">
<ele>197.2</ele>
<time>2024-05-10T12:19:06Z</time>
</trkpt>
<trkpt lat="49.67821500264108" lon="9.004077846184373">
<ele>197.2</ele>
<time>2024-05-10T12:19:07Z</time>
</trkpt>
<trkpt lat="49.67819212004542" lon="9.004053035750985">
<ele>197.2</ele>
<time>2024-05-10T12:19:08Z</time>
</trkpt>
<trkpt lat="49.67817300930619" lon="9.004036858677864">
<ele>197.2</ele>
<time>2024-05-10T12:19:09Z</time>
</trkpt>
<trkpt lat="49.678169237449765" lon="9.004014898091555">
<ele>197.2</ele>
<time>2024-05-10T12:19:10Z</time>
</trkpt>
<trkpt lat="49.67817300930619" lon="9.003978688269854">
<ele>197.2</ele>
<time>2024-05-10T12:19:11Z</time>
</trkpt>
<trkpt lat="49.67817686498165" lon="9.003939628601074">
<ele>197.2</ele>
<time>2024-05-10T12:19:12Z</time>
</trkpt>
<trkpt lat="49.67818063683808" lon="9.003896713256836">
<ele>197.2</ele>
<time>2024-05-10T12:19:13Z</time>
</trkpt>
<trkpt lat="49.67818063683808" lon="9.003849942237139">
<ele>197.2</ele>
<time>2024-05-10T12:19:14Z</time>
</trkpt>
<trkpt lat="49.67819974757731" lon="9.0038070268929">
<ele>197.2</ele>
<time>2024-05-10T12:19:15Z</time>
</trkpt>
<trkpt lat="49.6782073751092" lon="9.003765033558011">
<ele>197.2</ele>
<time>2024-05-10T12:19:16Z</time>
</trkpt>
<trkpt lat="49.678226402029395" lon="9.003731673583388">
<ele>197.2</ele>
<time>2024-05-10T12:19:17Z</time>
</trkpt>
<trkpt lat="49.67823402956128" lon="9.00368976406753">
<ele>197.2</ele>
<time>2024-05-10T12:19:18Z</time>
</trkpt>
<trkpt lat="49.67824165709317" lon="9.003644920885563">
<ele>197.2</ele>
<time>2024-05-10T12:19:19Z</time>
</trkpt>
<trkpt lat="49.67823788523674" lon="9.00359152816236">
<ele>197.2</ele>
<time>2024-05-10T12:19:20Z</time>
</trkpt>
<trkpt lat="49.67823788523674" lon="9.003536207601428">
<ele>197.2</ele>
<time>2024-05-10T12:19:21Z</time>
</trkpt>
<trkpt lat="49.67823402956128" lon="9.003481809049845">
<ele>197.2</ele>
<time>2024-05-10T12:19:22Z</time>
</trkpt>
<trkpt lat="49.67823402956128" lon="9.003436965867877">
<ele>197.2</ele>
<time>2024-05-10T12:19:23Z</time>
</trkpt>
<trkpt lat="49.67823402956128" lon="9.003397906199098">
<ele>197.2</ele>
<time>2024-05-10T12:19:24Z</time>
</trkpt>
<trkpt lat="49.67823402956128" lon="9.00337309576571">
<ele>197.2</ele>
<time>2024-05-10T12:19:25Z</time>
</trkpt>
<trkpt lat="49.67824165709317" lon="9.003361696377397">
<ele>197.2</ele>
<time>2024-05-10T12:19:26Z</time>
</trkpt>
<trkpt lat="49.67824165709317" lon="9.0033511351794">
<ele>197.2</ele>
<time>2024-05-10T12:19:27Z</time>
</trkpt>
<trkpt lat="49.678245512768626" lon="9.003341663628817">
<ele>197.2</ele>
<time>2024-05-10T12:19:28Z</time>
</trkpt>
<trkpt lat="49.67824928462505" lon="9.003305369988084">
<ele>197.2</ele>
<time>2024-05-10T12:19:29Z</time>
</trkpt>
<trkpt lat="49.67823402956128" lon="9.003239572048187">
<ele>197.2</ele>
<time>2024-05-10T12:19:30Z</time>
</trkpt>
<trkpt lat="49.67821877449751" lon="9.00319472886622">
<ele>197.2</ele>
<time>2024-05-10T12:19:31Z</time>
</trkpt>
<trkpt lat="49.67821877449751" lon="9.00315374135971">
<ele>197.2</ele>
<time>2024-05-10T12:19:32Z</time>
</trkpt>
<trkpt lat="49.67821500264108" lon="9.003111831843853">
<ele>197.2</ele>
<time>2024-05-10T12:19:33Z</time>
</trkpt>
<trkpt lat="49.67821500264108" lon="9.003065060824156">
<ele>197.2</ele>
<time>2024-05-10T12:19:34Z</time>
</trkpt>
<trkpt lat="49.67821500264108" lon="9.003021223470569">
<ele>197.2</ele>
<time>2024-05-10T12:19:35Z</time>
</trkpt>
<trkpt lat="49.678226402029395" lon="9.002993563190103">
<ele>197.2</ele>
<time>2024-05-10T12:19:36Z</time>
</trkpt>
<trkpt lat="49.67823788523674" lon="9.00296020321548">
<ele>197.2</ele>
<time>2024-05-10T12:19:37Z</time>
</trkpt>
<trkpt lat="49.67824165709317" lon="9.00292013771832">
<ele>197.2</ele>
<time>2024-05-10T12:19:38Z</time>
</trkpt>
<trkpt lat="49.67824928462505" lon="9.002891471609473">
<ele>197.2</ele>
<time>2024-05-10T12:19:39Z</time>
</trkpt>
<trkpt lat="49.67825314030051" lon="9.002866744995117">
<ele>197.2</ele>
<time>2024-05-10T12:19:40Z</time>
</trkpt>
<trkpt lat="49.67824928462505" lon="9.002836151048541">
<ele>197.2</ele>
<time>2024-05-10T12:19:41Z</time>
</trkpt>
<trkpt lat="49.678230257704854" lon="9.002808490768075">
<ele>197.2</ele>
<time>2024-05-10T12:19:42Z</time>
</trkpt>
<trkpt lat="49.67821114696562" lon="9.00278183631599">
<ele>197.2</ele>
<time>2024-05-10T12:19:43Z</time>
</trkpt>
<trkpt lat="49.67818449251354" lon="9.00275794789195">
<ele>197.2</ele>
<time>2024-05-10T12:19:44Z</time>
</trkpt>
<trkpt lat="49.67815775424242" lon="9.002733221277595">
<ele>197.4</ele>
<time>2024-05-10T12:19:45Z</time>
</trkpt>
<trkpt lat="49.67812724411488" lon="9.002711260691285">
<ele>197.8</ele>
<time>2024-05-10T12:19:46Z</time>
</trkpt>
<trkpt lat="49.67809673398733" lon="9.002691227942705">
<ele>198</ele>
<time>2024-05-10T12:19:47Z</time>
</trkpt>
<trkpt lat="49.6780585963279" lon="9.002684522420168">
<ele>198.2</ele>
<time>2024-05-10T12:19:48Z</time>
</trkpt>
<trkpt lat="49.6780242305249" lon="9.00267974473536">
<ele>198.4</ele>
<time>2024-05-10T12:19:49Z</time>
</trkpt>
<trkpt lat="49.677989948540926" lon="9.002668345347047">
<ele>198.6</ele>
<time>2024-05-10T12:19:50Z</time>
</trkpt>
<trkpt lat="49.67796706594527" lon="9.002651162445545">
<ele>198.6</ele>
<time>2024-05-10T12:19:51Z</time>
</trkpt>
<trkpt lat="49.67794032767415" lon="9.002625430002809">
<ele>198.8</ele>
<time>2024-05-10T12:19:52Z</time>
</trkpt>
<trkpt lat="49.677909817546606" lon="9.002614952623844">
<ele>198.8</ele>
<time>2024-05-10T12:19:53Z</time>
</trkpt>
<trkpt lat="49.67789833433926" lon="9.002598691731691">
<ele>198.8</ele>
<time>2024-05-10T12:19:54Z</time>
</trkpt>
<trkpt lat="49.677871679887176" lon="9.002599697560072">
<ele>199</ele>
<time>2024-05-10T12:19:55Z</time>
</trkpt>
<trkpt lat="49.67784116975963" lon="9.002592992037535">
<ele>199</ele>
<time>2024-05-10T12:19:56Z</time>
</trkpt>
<trkpt lat="49.677814431488514" lon="9.002579664811492">
<ele>199</ele>
<time>2024-05-10T12:19:57Z</time>
</trkpt>
<trkpt lat="49.67778777703643" lon="9.00256340391934">
<ele>199</ele>
<time>2024-05-10T12:19:58Z</time>
</trkpt>
<trkpt lat="49.67776481062174" lon="9.002550076693296">
<ele>199</ele>
<time>2024-05-10T12:19:59Z</time>
</trkpt>
<trkpt lat="49.67774192802608" lon="9.00254630483687">
<ele>199</ele>
<time>2024-05-10T12:20:00Z</time>
</trkpt>
<trkpt lat="49.67771904543042" lon="9.00254337117076">
<ele>199</ele>
<time>2024-05-10T12:20:01Z</time>
</trkpt>
<trkpt lat="49.67770001851022" lon="9.002538677304983">
<ele>199</ele>
<time>2024-05-10T12:20:02Z</time>
</trkpt>
<trkpt lat="49.67768476344645" lon="9.002528116106987">
<ele>198.8</ele>
<time>2024-05-10T12:20:03Z</time>
</trkpt>
<trkpt lat="49.67766950838268" lon="9.002512861043215">
<ele>198.8</ele>
<time>2024-05-10T12:20:04Z</time>
</trkpt>
<trkpt lat="49.67766188085079" lon="9.002503389492631">
<ele>198.8</ele>
<time>2024-05-10T12:20:05Z</time>
</trkpt>
<trkpt lat="49.67766565270722" lon="9.002499533817172">
<ele>198.8</ele>
<time>2024-05-10T12:20:06Z</time>
</trkpt>
<trkpt lat="49.67766950838268" lon="9.002503389492631">
<ele>198.6</ele>
<time>2024-05-10T12:20:07Z</time>
</trkpt>
<trkpt lat="49.677673280239105" lon="9.002503389492631">
<ele>198.6</ele>
<time>2024-05-10T12:20:08Z</time>
</trkpt>
<trkpt lat="49.677673280239105" lon="9.002501461654902">
<ele>198.4</ele>
<time>2024-05-10T12:20:09Z</time>
</trkpt>
<trkpt lat="49.677673280239105" lon="9.002503389492631">
<ele>198.4</ele>
<time>2024-05-10T12:20:10Z</time>
</trkpt>
<trkpt lat="49.67766950838268" lon="9.002494756132364">
<ele>198.2</ele>
<time>2024-05-10T12:20:12Z</time>
</trkpt>
<trkpt lat="49.67766950838268" lon="9.002478579059243">
<ele>198.2</ele>
<time>2024-05-10T12:20:13Z</time>
</trkpt>
<trkpt lat="49.67766565270722" lon="9.002458546310663">
<ele>198</ele>
<time>2024-05-10T12:20:14Z</time>
</trkpt>
<trkpt lat="49.67766565270722" lon="9.002431808039546">
<ele>198</ele>
<time>2024-05-10T12:20:15Z</time>
</trkpt>
<trkpt lat="49.67766950838268" lon="9.002393670380116">
<ele>198</ele>
<time>2024-05-10T12:20:16Z</time>
</trkpt>
<trkpt lat="49.67766950838268" lon="9.002349833026528">
<ele>197.8</ele>
<time>2024-05-10T12:20:17Z</time>
</trkpt>
<trkpt lat="49.677673280239105" lon="9.002294512465596">
<ele>197.8</ele>
<time>2024-05-10T12:20:18Z</time>
</trkpt>
<trkpt lat="49.67767713591456" lon="9.002262996509671">
<ele>197.8</ele>
<time>2024-05-10T12:20:19Z</time>
</trkpt>
<trkpt lat="49.67768853530288" lon="9.002231564372778">
<ele>197.8</ele>
<time>2024-05-10T12:20:20Z</time>
</trkpt>
<trkpt lat="49.67770379036665" lon="9.002200048416853">
<ele>197.8</ele>
<time>2024-05-10T12:20:21Z</time>
</trkpt>
<trkpt lat="49.677711417898536" lon="9.002169538289309">
<ele>197.8</ele>
<time>2024-05-10T12:20:22Z</time>
</trkpt>
<trkpt lat="49.67772290110588" lon="9.002144811674953">
<ele>197.8</ele>
<time>2024-05-10T12:20:23Z</time>
</trkpt>
<trkpt lat="49.67772667296231" lon="9.002122851088643">
<ele>197.6</ele>
<time>2024-05-10T12:20:24Z</time>
</trkpt>
<trkpt lat="49.677734300494194" lon="9.002101896330714">
<ele>197.6</ele>
<time>2024-05-10T12:20:25Z</time>
</trkpt>
<trkpt lat="49.67773815616965" lon="9.002079935744405">
<ele>197.6</ele>
<time>2024-05-10T12:20:26Z</time>
</trkpt>
<trkpt lat="49.67774192802608" lon="9.002055125311017">
<ele>197.6</ele>
<time>2024-05-10T12:20:27Z</time>
</trkpt>
<trkpt lat="49.67774578370154" lon="9.002035092562437">
<ele>197.6</ele>
<time>2024-05-10T12:20:28Z</time>
</trkpt>
<trkpt lat="49.67774578370154" lon="9.002024615183473">
<ele>197.6</ele>
<time>2024-05-10T12:20:29Z</time>
</trkpt>
<trkpt lat="49.677749555557966" lon="9.002021765336394">
<ele>197.6</ele>
<time>2024-05-10T12:20:30Z</time>
</trkpt>
<trkpt lat="49.67774578370154" lon="9.002023693174124">
<ele>197.6</ele>
<time>2024-05-10T12:20:32Z</time>
</trkpt>
<trkpt lat="49.67774578370154" lon="9.002021765336394">
<ele>197.6</ele>
<time>2024-05-10T12:20:33Z</time>
</trkpt>
<trkpt lat="49.67774192802608" lon="9.002019837498665">
<ele>197.6</ele>
<time>2024-05-10T12:20:36Z</time>
</trkpt>
<trkpt lat="49.67774192802608" lon="9.002021765336394">
<ele>197.6</ele>
<time>2024-05-10T12:20:37Z</time>
</trkpt>
<trkpt lat="49.67774192802608" lon="9.002019837498665">
<ele>197.8</ele>
<time>2024-05-10T12:20:38Z</time>
</trkpt>
<trkpt lat="49.67773815616965" lon="9.002017909660935">
<ele>197.8</ele>
<time>2024-05-10T12:20:39Z</time>
</trkpt>
<trkpt lat="49.67773815616965" lon="9.002016987651587">
<ele>197.8</ele>
<time>2024-05-10T12:20:40Z</time>
</trkpt>
<trkpt lat="49.677734300494194" lon="9.002017909660935">
<ele>197.8</ele>
<time>2024-05-10T12:20:41Z</time>
</trkpt>
<trkpt lat="49.677734300494194" lon="9.002019837498665">
<ele>197.6</ele>
<time>2024-05-10T12:20:42Z</time>
</trkpt>
<trkpt lat="49.677734300494194" lon="9.002017909660935">
<ele>197.6</ele>
<time>2024-05-10T12:20:44Z</time>
</trkpt>
<trkpt lat="49.677734300494194" lon="9.002016987651587">
<ele>197.6</ele>
<time>2024-05-10T12:20:45Z</time>
</trkpt>
<trkpt lat="49.677734300494194" lon="9.002015059813857">
<ele>197.4</ele>
<time>2024-05-10T12:20:47Z</time>
</trkpt>
<trkpt lat="49.67773052863777" lon="9.002015059813857">
<ele>197.4</ele>
<time>2024-05-10T12:20:48Z</time>
</trkpt>
<trkpt lat="49.677734300494194" lon="9.002016987651587">
<ele>197.4</ele>
<time>2024-05-10T12:20:49Z</time>
</trkpt>
<trkpt lat="49.67773815616965" lon="9.002013131976128">
<ele>197.4</ele>
<time>2024-05-10T12:20:50Z</time>
</trkpt>
<trkpt lat="49.67774578370154" lon="9.002004582434893">
<ele>197.4</ele>
<time>2024-05-10T12:20:51Z</time>
</trkpt>
<trkpt lat="49.677753411233425" lon="9.001986477524042">
<ele>197.4</ele>
<time>2024-05-10T12:20:52Z</time>
</trkpt>
<trkpt lat="49.67776481062174" lon="9.001963594928384">
<ele>197.4</ele>
<time>2024-05-10T12:20:53Z</time>
</trkpt>
<trkpt lat="49.67777629382908" lon="9.001934928819537">
<ele>197.4</ele>
<time>2024-05-10T12:20:54Z</time>
</trkpt>
<trkpt lat="49.67778392136097" lon="9.001908274367452">
<ele>197.4</ele>
<time>2024-05-10T12:20:55Z</time>
</trkpt>
<trkpt lat="49.67778777703643" lon="9.001874914392829">
<ele>197.2</ele>
<time>2024-05-10T12:20:56Z</time>
</trkpt>
<trkpt lat="49.677791548892856" lon="9.001859659329057">
<ele>197.2</ele>
<time>2024-05-10T12:20:57Z</time>
</trkpt>
<trkpt lat="49.677791548892856" lon="9.00183199904859">
<ele>197.2</ele>
<time>2024-05-10T12:20:58Z</time>
</trkpt>
<trkpt lat="49.677795404568315" lon="9.001810038462281">
<ele>197.2</ele>
<time>2024-05-10T12:20:59Z</time>
</trkpt>
<trkpt lat="49.67779917642474" lon="9.001803332939744">
<ele>197.2</ele>
<time>2024-05-10T12:21:00Z</time>
</trkpt>
<trkpt lat="49.677795404568315" lon="9.001796711236238">
<ele>197.2</ele>
<time>2024-05-10T12:21:01Z</time>
</trkpt>
<trkpt lat="49.67779917642474" lon="9.001779528334737">
<ele>197</ele>
<time>2024-05-10T12:21:02Z</time>
</trkpt>
<trkpt lat="49.6778030321002" lon="9.001749940216541">
<ele>197</ele>
<time>2024-05-10T12:21:03Z</time>
</trkpt>
<trkpt lat="49.67781065963209" lon="9.001720352098346">
<ele>197</ele>
<time>2024-05-10T12:21:04Z</time>
</trkpt>
<trkpt lat="49.67780680395663" lon="9.001663187518716">
<ele>196.8</ele>
<time>2024-05-10T12:21:05Z</time>
</trkpt>
<trkpt lat="49.67781828716397" lon="9.001629827544093">
<ele>196.8</ele>
<time>2024-05-10T12:21:06Z</time>
</trkpt>
<trkpt lat="49.67782591469586" lon="9.001600239425898">
<ele>196.6</ele>
<time>2024-05-10T12:21:07Z</time>
</trkpt>
<trkpt lat="49.67783731408417" lon="9.001569729298353">
<ele>196.6</ele>
<time>2024-05-10T12:21:08Z</time>
</trkpt>
<trkpt lat="49.67784494161606" lon="9.001529663801193">
<ele>196.4</ele>
<time>2024-05-10T12:21:09Z</time>
</trkpt>
<trkpt lat="49.67784879729152" lon="9.001488676294684">
<ele>196.4</ele>
<time>2024-05-10T12:21:10Z</time>
</trkpt>
<trkpt lat="49.6778564248234" lon="9.001453388482332">
<ele>196.4</ele>
<time>2024-05-10T12:21:11Z</time>
</trkpt>
<trkpt lat="49.67786019667983" lon="9.001419944688678">
<ele>196.4</ele>
<time>2024-05-10T12:21:12Z</time>
</trkpt>
<trkpt lat="49.67786405235529" lon="9.001388512551785">
<ele>196.4</ele>
<time>2024-05-10T12:21:13Z</time>
</trkpt>
<trkpt lat="49.677871679887176" lon="9.00135800242424">
<ele>196.6</ele>
<time>2024-05-10T12:21:14Z</time>
</trkpt>
<trkpt lat="49.677871679887176" lon="9.00131986476481">
<ele>196.6</ele>
<time>2024-05-10T12:21:15Z</time>
</trkpt>
<trkpt lat="49.67787930741906" lon="9.001275021582842">
<ele>196.6</ele>
<time>2024-05-10T12:21:16Z</time>
</trkpt>
<trkpt lat="49.67788307927549" lon="9.001228250563145">
<ele>196.6</ele>
<time>2024-05-10T12:21:17Z</time>
</trkpt>
<trkpt lat="49.677890706807375" lon="9.00117963552475">
<ele>196.6</ele>
<time>2024-05-10T12:21:18Z</time>
</trkpt>
<trkpt lat="49.677894562482834" lon="9.001128170639277">
<ele>196.6</ele>
<time>2024-05-10T12:21:19Z</time>
</trkpt>
<trkpt lat="49.677890706807375" lon="9.001056589186192">
<ele>196.6</ele>
<time>2024-05-10T12:21:20Z</time>
</trkpt>
<trkpt lat="49.677894562482834" lon="9.000991797074676">
<ele>196.4</ele>
<time>2024-05-10T12:21:21Z</time>
</trkpt>
<trkpt lat="49.677894562482834" lon="9.000929770991206">
<ele>196.4</ele>
<time>2024-05-10T12:21:22Z</time>
</trkpt>
<trkpt lat="49.67789833433926" lon="9.000866822898388">
<ele>196.2</ele>
<time>2024-05-10T12:21:23Z</time>
</trkpt>
<trkpt lat="49.67789833433926" lon="9.000808652490377">
<ele>196.4</ele>
<time>2024-05-10T12:21:24Z</time>
</trkpt>
<trkpt lat="49.67789833433926" lon="9.00074671022594">
<ele>196.4</ele>
<time>2024-05-10T12:21:25Z</time>
</trkpt>
<trkpt lat="49.67789833433926" lon="9.00068853981793">
<ele>196.6</ele>
<time>2024-05-10T12:21:26Z</time>
</trkpt>
<trkpt lat="49.67789833433926" lon="9.00062844157219">
<ele>196.6</ele>
<time>2024-05-10T12:21:27Z</time>
</trkpt>
<trkpt lat="49.67789833433926" lon="9.000575048848987">
<ele>196.6</ele>
<time>2024-05-10T12:21:28Z</time>
</trkpt>
<trkpt lat="49.67790219001472" lon="9.000523500144482">
<ele>196.6</ele>
<time>2024-05-10T12:21:29Z</time>
</trkpt>
<trkpt lat="49.67790596187115" lon="9.000485362485051">
<ele>196.4</ele>
<time>2024-05-10T12:21:30Z</time>
</trkpt>
<trkpt lat="49.677909817546606" lon="9.000454852357507">
<ele>196.4</ele>
<time>2024-05-10T12:21:31Z</time>
</trkpt>
<trkpt lat="49.677909817546606" lon="9.000436747446656">
<ele>196.4</ele>
<time>2024-05-10T12:21:32Z</time>
</trkpt>
<trkpt lat="49.677909817546606" lon="9.000438675284386">
<ele>196.4</ele>
<time>2024-05-10T12:21:33Z</time>
</trkpt>
<trkpt lat="49.677909817546606" lon="9.000436747446656">
<ele>196.4</ele>
<time>2024-05-10T12:21:34Z</time>
</trkpt>
<trkpt lat="49.677909817546606" lon="9.000434819608927">
<ele>196.4</ele>
<time>2024-05-10T12:21:43Z</time>
</trkpt>
<trkpt lat="49.677909817546606" lon="9.000432891771197">
<ele>196.4</ele>
<time>2024-05-10T12:21:47Z</time>
</trkpt>
<trkpt lat="49.677909817546606" lon="9.000431969761848">
<ele>196.6</ele>
<time>2024-05-10T12:21:50Z</time>
</trkpt>
<trkpt lat="49.67791358940303" lon="9.000430041924119">
<ele>196.8</ele>
<time>2024-05-10T12:21:52Z</time>
</trkpt>
<trkpt lat="49.67791358940303" lon="9.000428197905421">
<ele>196.8</ele>
<time>2024-05-10T12:21:54Z</time>
</trkpt>
<trkpt lat="49.67791358940303" lon="9.000426270067692">
<ele>197</ele>
<time>2024-05-10T12:21:56Z</time>
</trkpt>
<trkpt lat="49.67791358940303" lon="9.000423420220613">
<ele>197.2</ele>
<time>2024-05-10T12:21:57Z</time>
</trkpt>
<trkpt lat="49.677909817546606" lon="9.000423420220613">
<ele>197.2</ele>
<time>2024-05-10T12:21:58Z</time>
</trkpt>
<trkpt lat="49.677909817546606" lon="9.000421492382884">
<ele>197.2</ele>
<time>2024-05-10T12:22:02Z</time>
</trkpt>
<trkpt lat="49.677909817546606" lon="9.000419564545155">
<ele>197.2</ele>
<time>2024-05-10T12:22:07Z</time>
</trkpt>
<trkpt lat="49.677909817546606" lon="9.000421492382884">
<ele>197.2</ele>
<time>2024-05-10T12:22:08Z</time>
</trkpt>
<trkpt lat="49.677909817546606" lon="9.000419564545155">
<ele>197.2</ele>
<time>2024-05-10T12:22:11Z</time>
</trkpt>
<trkpt lat="49.677909817546606" lon="9.000421492382884">
<ele>197.2</ele>
<time>2024-05-10T12:22:12Z</time>
</trkpt>
<trkpt lat="49.677909817546606" lon="9.000419564545155">
<ele>197.2</ele>
<time>2024-05-10T12:22:22Z</time>
</trkpt>
<trkpt lat="49.67790596187115" lon="9.000419564545155">
<ele>197</ele>
<time>2024-05-10T12:22:26Z</time>
</trkpt>
<trkpt lat="49.67790596187115" lon="9.000418642535806">
<ele>197</ele>
<time>2024-05-10T12:22:27Z</time>
</trkpt>
<trkpt lat="49.677909817546606" lon="9.000418642535806">
<ele>196.8</ele>
<time>2024-05-10T12:22:29Z</time>
</trkpt>
<trkpt lat="49.67790596187115" lon="9.000418642535806">
<ele>196.8</ele>
<time>2024-05-10T12:22:32Z</time>
</trkpt>
<trkpt lat="49.677909817546606" lon="9.000418642535806">
<ele>196.6</ele>
<time>2024-05-10T12:22:43Z</time>
</trkpt>
<trkpt lat="49.677909817546606" lon="9.000419564545155">
<ele>196.6</ele>
<time>2024-05-10T12:22:46Z</time>
</trkpt>
<trkpt lat="49.677909817546606" lon="9.000418642535806">
<ele>196.4</ele>
<time>2024-05-10T12:22:48Z</time>
</trkpt>
<trkpt lat="49.67791744507849" lon="9.000399531796575">
<ele>196.2</ele>
<time>2024-05-10T12:22:49Z</time>
</trkpt>
<trkpt lat="49.67791744507849" lon="9.000363321974874">
<ele>196.2</ele>
<time>2024-05-10T12:22:50Z</time>
</trkpt>
<trkpt lat="49.67791744507849" lon="9.000323256477714">
<ele>196</ele>
<time>2024-05-10T12:22:51Z</time>
</trkpt>
<trkpt lat="49.677909817546606" lon="9.000274641439319">
<ele>195.8</ele>
<time>2024-05-10T12:22:52Z</time>
</trkpt>
<trkpt lat="49.67790219001472" lon="9.000220242887735">
<ele>195.8</ele>
<time>2024-05-10T12:22:53Z</time>
</trkpt>
<trkpt lat="49.677894562482834" lon="9.000156372785568">
<ele>195.6</ele>
<time>2024-05-10T12:22:54Z</time>
</trkpt>
<trkpt lat="49.677894562482834" lon="9.00009342469275">
<ele>195.4</ele>
<time>2024-05-10T12:22:55Z</time>
</trkpt>
<trkpt lat="49.677890706807375" lon="9.000026620924473">
<ele>195.2</ele>
<time>2024-05-10T12:22:56Z</time>
</trkpt>
<trkpt lat="49.677890706807375" lon="8.999963756650686">
<ele>195.2</ele>
<time>2024-05-10T12:22:57Z</time>
</trkpt>
<trkpt lat="49.677890706807375" lon="8.99989502504468">
<ele>195</ele>
<time>2024-05-10T12:22:58Z</time>
</trkpt>
<trkpt lat="49.677894562482834" lon="8.999826377257705">
<ele>194.8</ele>
<time>2024-05-10T12:22:59Z</time>
</trkpt>
<trkpt lat="49.677894562482834" lon="8.999756807461381">
<ele>194.8</ele>
<time>2024-05-10T12:23:00Z</time>
</trkpt>
<trkpt lat="49.67789833433926" lon="8.99967952631414">
<ele>194.6</ele>
<time>2024-05-10T12:23:01Z</time>
</trkpt>
<trkpt lat="49.67790596187115" lon="8.999607022851706">
<ele>194.6</ele>
<time>2024-05-10T12:23:02Z</time>
</trkpt>
<trkpt lat="49.67791358940303" lon="8.999529825523496">
<ele>194.4</ele>
<time>2024-05-10T12:23:03Z</time>
</trkpt>
<trkpt lat="49.67792507261038" lon="8.999454472213984">
<ele>194.6</ele>
<time>2024-05-10T12:23:04Z</time>
</trkpt>
<trkpt lat="49.677932700142264" lon="8.999391524121165">
<ele>194.6</ele>
<time>2024-05-10T12:23:05Z</time>
</trkpt>
<trkpt lat="49.67794032767415" lon="8.999338131397963">
<ele>194.6</ele>
<time>2024-05-10T12:23:06Z</time>
</trkpt>
<trkpt lat="49.67794418334961" lon="8.999293288215995">
<ele>194.6</ele>
<time>2024-05-10T12:23:07Z</time>
</trkpt>
<trkpt lat="49.67794032767415" lon="8.999248445034027">
<ele>194.6</ele>
<time>2024-05-10T12:23:08Z</time>
</trkpt>
<trkpt lat="49.67794795520604" lon="8.999210307374597">
<ele>194.6</ele>
<time>2024-05-10T12:23:09Z</time>
</trkpt>
<trkpt lat="49.677951810881495" lon="8.999157836660743">
<ele>194.8</ele>
<time>2024-05-10T12:23:10Z</time>
</trkpt>
<trkpt lat="49.67795558273792" lon="8.999116849154234">
<ele>194.8</ele>
<time>2024-05-10T12:23:11Z</time>
</trkpt>
<trkpt lat="49.67793647199869" lon="8.999081561341882">
<ele>194.8</ele>
<time>2024-05-10T12:23:12Z</time>
</trkpt>
<trkpt lat="49.677909817546606" lon="8.999059600755572">
<ele>194.8</ele>
<time>2024-05-10T12:23:13Z</time>
</trkpt>
<trkpt lat="49.6778754517436" lon="8.999054906889796">
<ele>195</ele>
<time>2024-05-10T12:23:14Z</time>
</trkpt>
<trkpt lat="49.677833542227745" lon="8.99904627352953">
<ele>195</ele>
<time>2024-05-10T12:23:15Z</time>
</trkpt>
<trkpt lat="49.677791548892856" lon="8.999034874141216">
<ele>195</ele>
<time>2024-05-10T12:23:16Z</time>
</trkpt>
<trkpt lat="49.677749555557966" lon="8.999021463096142">
<ele>195</ele>
<time>2024-05-10T12:23:17Z</time>
</trkpt>
<trkpt lat="49.67770379036665" lon="8.999010063707829">
<ele>195</ele>
<time>2024-05-10T12:23:18Z</time>
</trkpt>
<trkpt lat="49.67765802517533" lon="8.998992880806327">
<ele>195.2</ele>
<time>2024-05-10T12:23:19Z</time>
</trkpt>
<trkpt lat="49.677612259984016" lon="8.998974775895476">
<ele>195.2</ele>
<time>2024-05-10T12:23:20Z</time>
</trkpt>
<trkpt lat="49.6775664947927" lon="8.998952815309167">
<ele>195.2</ele>
<time>2024-05-10T12:23:21Z</time>
</trkpt>
<trkpt lat="49.67752072960138" lon="8.998926160857081">
<ele>195.4</ele>
<time>2024-05-10T12:23:22Z</time>
</trkpt>
<trkpt lat="49.67747496441007" lon="8.998894644901156">
<ele>195.4</ele>
<time>2024-05-10T12:23:23Z</time>
</trkpt>
<trkpt lat="49.67742534354329" lon="8.99886698462069">
<ele>195.6</ele>
<time>2024-05-10T12:23:24Z</time>
</trkpt>
<trkpt lat="49.67737572267651" lon="8.998831696808338">
<ele>195.6</ele>
<time>2024-05-10T12:23:25Z</time>
</trkpt>
<trkpt lat="49.6773299574852" lon="8.998800264671445">
<ele>195.8</ele>
<time>2024-05-10T12:23:26Z</time>
</trkpt>
<trkpt lat="49.677280420437455" lon="8.99876682087779">
<ele>195.8</ele>
<time>2024-05-10T12:23:27Z</time>
</trkpt>
<trkpt lat="49.67723079957068" lon="8.998731533065438">
<ele>196</ele>
<time>2024-05-10T12:23:28Z</time>
</trkpt>
<trkpt lat="49.677181178703904" lon="8.998700100928545">
<ele>196.2</ele>
<time>2024-05-10T12:23:29Z</time>
</trkpt>
<trkpt lat="49.67713164165616" lon="8.998668668791652">
<ele>196.2</ele>
<time>2024-05-10T12:23:30Z</time>
</trkpt>
<trkpt lat="49.677078165113926" lon="8.998640002682805">
<ele>196.4</ele>
<time>2024-05-10T12:23:31Z</time>
</trkpt>
<trkpt lat="49.67702477239072" lon="8.99861142039299">
<ele>196.6</ele>
<time>2024-05-10T12:23:32Z</time>
</trkpt>
<trkpt lat="49.67697137966752" lon="8.998582838103175">
<ele>196.8</ele>
<time>2024-05-10T12:23:33Z</time>
</trkpt>
<trkpt lat="49.67691798694432" lon="8.998559871688485">
<ele>196.8</ele>
<time>2024-05-10T12:23:34Z</time>
</trkpt>
<trkpt lat="49.676864594221115" lon="8.998541766777635">
<ele>197</ele>
<time>2024-05-10T12:23:35Z</time>
</trkpt>
<trkpt lat="49.67681497335434" lon="8.998517962172627">
<ele>197</ele>
<time>2024-05-10T12:23:36Z</time>
</trkpt>
<trkpt lat="49.67676543630659" lon="8.998497007414699">
<ele>197.2</ele>
<time>2024-05-10T12:23:37Z</time>
</trkpt>
<trkpt lat="49.67671958729625" lon="8.99847504682839">
<ele>197.2</ele>
<time>2024-05-10T12:23:38Z</time>
</trkpt>
<trkpt lat="49.676670050248504" lon="8.99845308624208">
<ele>197.2</ele>
<time>2024-05-10T12:23:39Z</time>
</trkpt>
<trkpt lat="49.67662042938173" lon="8.998430203646421">
<ele>197.2</ele>
<time>2024-05-10T12:23:40Z</time>
</trkpt>
<trkpt lat="49.676570892333984" lon="8.998405393213034">
<ele>197.2</ele>
<time>2024-05-10T12:23:41Z</time>
</trkpt>
<trkpt lat="49.67652127146721" lon="8.998381588608027">
<ele>197.4</ele>
<time>2024-05-10T12:23:42Z</time>
</trkpt>
<trkpt lat="49.67647165060043" lon="8.998356778174639">
<ele>197.4</ele>
<time>2024-05-10T12:23:43Z</time>
</trkpt>
<trkpt lat="49.67642211355269" lon="8.998332973569632">
<ele>197.4</ele>
<time>2024-05-10T12:23:44Z</time>
</trkpt>
<trkpt lat="49.67637626454234" lon="8.998308163136244">
<ele>197.6</ele>
<time>2024-05-10T12:23:45Z</time>
</trkpt>
<trkpt lat="49.6763267274946" lon="8.998283352702856">
<ele>197.6</ele>
<time>2024-05-10T12:23:46Z</time>
</trkpt>
<trkpt lat="49.676273334771395" lon="8.998261392116547">
<ele>197.8</ele>
<time>2024-05-10T12:23:47Z</time>
</trkpt>
<trkpt lat="49.67622371390462" lon="8.998238509520888">
<ele>197.8</ele>
<time>2024-05-10T12:23:48Z</time>
</trkpt>
<trkpt lat="49.67617409303784" lon="8.998216548934579">
<ele>197.8</ele>
<time>2024-05-10T12:23:49Z</time>
</trkpt>
<trkpt lat="49.67612070031464" lon="8.998191822320223">
<ele>198</ele>
<time>2024-05-10T12:23:50Z</time>
</trkpt>
<trkpt lat="49.67606730759144" lon="8.998169861733913">
<ele>198</ele>
<time>2024-05-10T12:23:51Z</time>
</trkpt>
<trkpt lat="49.67601768672466" lon="8.998147901147604">
<ele>198.2</ele>
<time>2024-05-10T12:23:52Z</time>
</trkpt>
<trkpt lat="49.67596429400146" lon="8.998125018551946">
<ele>198.2</ele>
<time>2024-05-10T12:23:53Z</time>
</trkpt>
<trkpt lat="49.67591090127826" lon="8.998103141784668">
<ele>198.4</ele>
<time>2024-05-10T12:23:54Z</time>
</trkpt>
<trkpt lat="49.6758536528796" lon="8.99807833135128">
<ele>198.4</ele>
<time>2024-05-10T12:23:55Z</time>
</trkpt>
<trkpt lat="49.675796488299966" lon="8.99805637076497">
<ele>198.4</ele>
<time>2024-05-10T12:23:56Z</time>
</trkpt>
<trkpt lat="49.67574309557676" lon="8.99803826585412">
<ele>198.4</ele>
<time>2024-05-10T12:23:57Z</time>
</trkpt>
<trkpt lat="49.67568961903453" lon="8.998015383258462">
<ele>198.4</ele>
<time>2024-05-10T12:23:58Z</time>
</trkpt>
<trkpt lat="49.675636226311326" lon="8.997991494834423">
<ele>198.4</ele>
<time>2024-05-10T12:23:59Z</time>
</trkpt>
<trkpt lat="49.67558283358812" lon="8.997973389923573">
<ele>198.4</ele>
<time>2024-05-10T12:24:00Z</time>
</trkpt>
<trkpt lat="49.67553321272135" lon="8.99795620702207">
<ele>198.4</ele>
<time>2024-05-10T12:24:01Z</time>
</trkpt>
<trkpt lat="49.6754836756736" lon="8.997936174273491">
<ele>198.4</ele>
<time>2024-05-10T12:24:02Z</time>
</trkpt>
<trkpt lat="49.67543791048229" lon="8.997915219515562">
<ele>198.6</ele>
<time>2024-05-10T12:24:03Z</time>
</trkpt>
<trkpt lat="49.67538828961551" lon="8.997895186766982">
<ele>198.6</ele>
<time>2024-05-10T12:24:04Z</time>
</trkpt>
<trkpt lat="49.675342524424195" lon="8.997877081856132">
<ele>198.6</ele>
<time>2024-05-10T12:24:05Z</time>
</trkpt>
<trkpt lat="49.67529675923288" lon="8.9978579711169">
<ele>198.8</ele>
<time>2024-05-10T12:24:06Z</time>
</trkpt>
<trkpt lat="49.67525476589799" lon="8.99783793836832">
<ele>198.8</ele>
<time>2024-05-10T12:24:07Z</time>
</trkpt>
<trkpt lat="49.675224255770445" lon="8.997808434069157">
<ele>198.8</ele>
<time>2024-05-10T12:24:08Z</time>
</trkpt>
<trkpt lat="49.67520137317479" lon="8.997770296409726">
<ele>199</ele>
<time>2024-05-10T12:24:09Z</time>
</trkpt>
<trkpt lat="49.67518988996744" lon="8.997730230912566">
<ele>199</ele>
<time>2024-05-10T12:24:10Z</time>
</trkpt>
<trkpt lat="49.67518988996744" lon="8.997666276991367">
<ele>199.2</ele>
<time>2024-05-10T12:24:11Z</time>
</trkpt>
<trkpt lat="49.67520137317479" lon="8.997592851519585">
<ele>199.2</ele>
<time>2024-05-10T12:24:12Z</time>
</trkpt>
<trkpt lat="49.67521662823856" lon="8.997516576200724">
<ele>199.2</ele>
<time>2024-05-10T12:24:13Z</time>
</trkpt>
<trkpt lat="49.67523188330233" lon="8.997443150728941">
<ele>199.2</ele>
<time>2024-05-10T12:24:14Z</time>
</trkpt>
<trkpt lat="49.6752471383661" lon="8.997367797419429">
<ele>199</ele>
<time>2024-05-10T12:24:15Z</time>
</trkpt>
<trkpt lat="49.675262393429875" lon="8.997295377776027">
<ele>199</ele>
<time>2024-05-10T12:24:16Z</time>
</trkpt>
<trkpt lat="49.67528150416911" lon="8.997222874313593">
<ele>198.8</ele>
<time>2024-05-10T12:24:17Z</time>
</trkpt>
<trkpt lat="49.675300531089306" lon="8.997151292860508">
<ele>198.8</ele>
<time>2024-05-10T12:24:18Z</time>
</trkpt>
<trkpt lat="49.67531578615308" lon="8.997079795226455">
<ele>198.6</ele>
<time>2024-05-10T12:24:19Z</time>
</trkpt>
<trkpt lat="49.67533104121685" lon="8.99701114743948">
<ele>198.6</ele>
<time>2024-05-10T12:24:20Z</time>
</trkpt>
<trkpt lat="49.67534629628062" lon="8.996939649805427">
<ele>198.6</ele>
<time>2024-05-10T12:24:21Z</time>
</trkpt>
<trkpt lat="49.675361551344395" lon="8.99687284603715">
<ele>198.6</ele>
<time>2024-05-10T12:24:22Z</time>
</trkpt>
<trkpt lat="49.6753768902272" lon="8.996809897944331">
<ele>198.6</ele>
<time>2024-05-10T12:24:23Z</time>
</trkpt>
<trkpt lat="49.6753959171474" lon="8.996741250157356">
<ele>198.6</ele>
<time>2024-05-10T12:24:24Z</time>
</trkpt>
<trkpt lat="49.675418799743056" lon="8.996667824685574">
<ele>198.6</ele>
<time>2024-05-10T12:24:25Z</time>
</trkpt>
<trkpt lat="49.675441682338715" lon="8.99659339338541">
<ele>198.6</ele>
<time>2024-05-10T12:24:26Z</time>
</trkpt>
<trkpt lat="49.67545316554606" lon="8.996528601273894">
<ele>198.6</ele>
<time>2024-05-10T12:24:27Z</time>
</trkpt>
<trkpt lat="49.67546842060983" lon="8.996469425037503">
<ele>198.6</ele>
<time>2024-05-10T12:24:28Z</time>
</trkpt>
<trkpt lat="49.675479819998145" lon="8.996426509693265">
<ele>198.8</ele>
<time>2024-05-10T12:24:29Z</time>
</trkpt>
<trkpt lat="49.675479819998145" lon="8.996388372033834">
<ele>198.8</ele>
<time>2024-05-10T12:24:30Z</time>
</trkpt>
<trkpt lat="49.67546842060983" lon="8.996363561600447">
<ele>199</ele>
<time>2024-05-10T12:24:31Z</time>
</trkpt>
<trkpt lat="49.675441682338715" lon="8.996348306536674">
<ele>199.2</ele>
<time>2024-05-10T12:24:32Z</time>
</trkpt>
<trkpt lat="49.675418799743056" lon="8.996351240202785">
<ele>199.2</ele>
<time>2024-05-10T12:24:33Z</time>
</trkpt>
<trkpt lat="49.67538828961551" lon="8.996363561600447">
<ele>199.4</ele>
<time>2024-05-10T12:24:34Z</time>
</trkpt>
<trkpt lat="49.67535015195608" lon="8.99635978974402">
<ele>199.4</ele>
<time>2024-05-10T12:24:35Z</time>
</trkpt>
<trkpt lat="49.67530815862119" lon="8.996355012059212">
<ele>199.4</ele>
<time>2024-05-10T12:24:36Z</time>
</trkpt>
<trkpt lat="49.675266249105334" lon="8.996356939896941">
<ele>199.4</ele>
<time>2024-05-10T12:24:37Z</time>
</trkpt>
<trkpt lat="49.67521285638213" lon="8.996366495266557">
<ele>199.2</ele>
<time>2024-05-10T12:24:38Z</time>
</trkpt>
<trkpt lat="49.67515560798347" lon="8.996371189132333">
<ele>199.2</ele>
<time>2024-05-10T12:24:39Z</time>
</trkpt>
<trkpt lat="49.67509835958481" lon="8.996371189132333">
<ele>199.2</ele>
<time>2024-05-10T12:24:40Z</time>
</trkpt>
<trkpt lat="49.675044966861606" lon="8.996368339285254">
<ele>199.2</ele>
<time>2024-05-10T12:24:41Z</time>
</trkpt>
<trkpt lat="49.67499534599483" lon="8.996368339285254">
<ele>199.2</ele>
<time>2024-05-10T12:24:42Z</time>
</trkpt>
<trkpt lat="49.6749381814152" lon="8.996370267122984">
<ele>199.2</ele>
<time>2024-05-10T12:24:43Z</time>
</trkpt>
<trkpt lat="49.674884788692" lon="8.996371189132333">
<ele>199.4</ele>
<time>2024-05-10T12:24:44Z</time>
</trkpt>
<trkpt lat="49.67483516782522" lon="8.996376972645521">
<ele>199.4</ele>
<time>2024-05-10T12:24:45Z</time>
</trkpt>
<trkpt lat="49.67477791942656" lon="8.996376972645521">
<ele>199.4</ele>
<time>2024-05-10T12:24:46Z</time>
</trkpt>
<trkpt lat="49.67472452670336" lon="8.996375044807792">
<ele>199.4</ele>
<time>2024-05-10T12:24:47Z</time>
</trkpt>
<trkpt lat="49.674671133980155" lon="8.996375044807792">
<ele>199.4</ele>
<time>2024-05-10T12:24:48Z</time>
</trkpt>
<trkpt lat="49.67461774125695" lon="8.996375044807792">
<ele>199.4</ele>
<time>2024-05-10T12:24:49Z</time>
</trkpt>
<trkpt lat="49.67456049285829" lon="8.9963798224926">
<ele>199.6</ele>
<time>2024-05-10T12:24:50Z</time>
</trkpt>
<trkpt lat="49.67450710013509" lon="8.996384600177407">
<ele>199.6</ele>
<time>2024-05-10T12:24:51Z</time>
</trkpt>
<trkpt lat="49.674449851736426" lon="8.996388372033834">
<ele>199.6</ele>
<time>2024-05-10T12:24:52Z</time>
</trkpt>
<trkpt lat="49.674396459013224" lon="8.996393149718642">
<ele>199.6</ele>
<time>2024-05-10T12:24:53Z</time>
</trkpt>
<trkpt lat="49.674339294433594" lon="8.996388372033834">
<ele>199.6</ele>
<time>2024-05-10T12:24:54Z</time>
</trkpt>
<trkpt lat="49.67428967356682" lon="8.996381750330329">
<ele>199.8</ele>
<time>2024-05-10T12:24:55Z</time>
</trkpt>
<trkpt lat="49.6742439083755" lon="8.996375044807792">
<ele>199.8</ele>
<time>2024-05-10T12:24:56Z</time>
</trkpt>
<trkpt lat="49.674198143184185" lon="8.996366495266557">
<ele>199.8</ele>
<time>2024-05-10T12:24:57Z</time>
</trkpt>
<trkpt lat="49.67414852231741" lon="8.996355012059212">
<ele>199.8</ele>
<time>2024-05-10T12:24:58Z</time>
</trkpt>
<trkpt lat="49.674098901450634" lon="8.996348306536674">
<ele>199.8</ele>
<time>2024-05-10T12:24:59Z</time>
</trkpt>
<trkpt lat="49.67404550872743" lon="8.996328273788095">
<ele>199.8</ele>
<time>2024-05-10T12:25:00Z</time>
</trkpt>
<trkpt lat="49.67398826032877" lon="8.996301619336009">
<ele>199.8</ele>
<time>2024-05-10T12:25:01Z</time>
</trkpt>
<trkpt lat="49.67394635081291" lon="8.996274881064892">
<ele>199.8</ele>
<time>2024-05-10T12:25:02Z</time>
</trkpt>
<trkpt lat="49.67389295808971" lon="8.99623959325254">
<ele>199.8</ele>
<time>2024-05-10T12:25:03Z</time>
</trkpt>
<trkpt lat="49.673843337222934" lon="8.996208161115646">
<ele>199.8</ele>
<time>2024-05-10T12:25:04Z</time>
</trkpt>
<trkpt lat="49.67380134388805" lon="8.996171951293945">
<ele>199.8</ele>
<time>2024-05-10T12:25:05Z</time>
</trkpt>
<trkpt lat="49.67375943437219" lon="8.996134735643864">
<ele>199.8</ele>
<time>2024-05-10T12:25:06Z</time>
</trkpt>
<trkpt lat="49.67371366918087" lon="8.996089892461896">
<ele>199.8</ele>
<time>2024-05-10T12:25:07Z</time>
</trkpt>
<trkpt lat="49.673664048314095" lon="8.99604027159512">
<ele>199.8</ele>
<time>2024-05-10T12:25:08Z</time>
</trkpt>
<trkpt lat="49.67361828312278" lon="8.995991656556726">
<ele>199.8</ele>
<time>2024-05-10T12:25:09Z</time>
</trkpt>
<trkpt lat="49.67357251793146" lon="8.995941113680601">
<ele>200</ele>
<time>2024-05-10T12:25:10Z</time>
</trkpt>
<trkpt lat="49.673526752740145" lon="8.995889648795128">
<ele>200</ele>
<time>2024-05-10T12:25:11Z</time>
</trkpt>
<trkpt lat="49.673488615080714" lon="8.995851511135697">
<ele>200.2</ele>
<time>2024-05-10T12:25:12Z</time>
</trkpt>
<trkpt lat="49.67345424927771" lon="8.995803818106651">
<ele>200.2</ele>
<time>2024-05-10T12:25:13Z</time>
</trkpt>
<trkpt lat="49.67341611161828" lon="8.995757047086954">
<ele>200.4</ele>
<time>2024-05-10T12:25:14Z</time>
</trkpt>
<trkpt lat="49.67337411828339" lon="8.99570843204856">
<ele>200.4</ele>
<time>2024-05-10T12:25:15Z</time>
</trkpt>
<trkpt lat="49.67333220876753" lon="8.995651183649898">
<ele>200.4</ele>
<time>2024-05-10T12:25:16Z</time>
</trkpt>
<trkpt lat="49.673286359757185" lon="8.995601646602154">
<ele>200.6</ele>
<time>2024-05-10T12:25:17Z</time>
</trkpt>
<trkpt lat="49.67325207777321" lon="8.995550097897649">
<ele>200.6</ele>
<time>2024-05-10T12:25:18Z</time>
</trkpt>
<trkpt lat="49.67321771197021" lon="8.995494777336717">
<ele>200.6</ele>
<time>2024-05-10T12:25:19Z</time>
</trkpt>
<trkpt lat="49.67318342998624" lon="8.995451861992478">
<ele>200.6</ele>
<time>2024-05-10T12:25:20Z</time>
</trkpt>
<trkpt lat="49.67315669171512" lon="8.995413724333048">
<ele>200.6</ele>
<time>2024-05-10T12:25:21Z</time>
</trkpt>
<trkpt lat="49.673110926523805" lon="8.995367037132382">
<ele>200.6</ele>
<time>2024-05-10T12:25:22Z</time>
</trkpt>
<trkpt lat="49.67306516133249" lon="8.995314566418529">
<ele>200.6</ele>
<time>2024-05-10T12:25:23Z</time>
</trkpt>
<trkpt lat="49.673007912933826" lon="8.995266873389482">
<ele>200.8</ele>
<time>2024-05-10T12:25:24Z</time>
</trkpt>
<trkpt lat="49.6729697752744" lon="8.995236363261938">
<ele>200.8</ele>
<time>2024-05-10T12:25:25Z</time>
</trkpt>
<trkpt lat="49.67292778193951" lon="8.995206775143743">
<ele>200.8</ele>
<time>2024-05-10T12:25:26Z</time>
</trkpt>
<trkpt lat="49.67289727181196" lon="8.995180120691657">
<ele>200.8</ele>
<time>2024-05-10T12:25:27Z</time>
</trkpt>
<trkpt lat="49.672855362296104" lon="8.995149610564113">
<ele>200.8</ele>
<time>2024-05-10T12:25:28Z</time>
</trkpt>
<trkpt lat="49.6728019695729" lon="8.99511331692338">
<ele>200.8</ele>
<time>2024-05-10T12:25:29Z</time>
</trkpt>
<trkpt lat="49.672752348706126" lon="8.995069479569793">
<ele>200.8</ele>
<time>2024-05-10T12:25:30Z</time>
</trkpt>
<trkpt lat="49.67270658351481" lon="8.995028492063284">
<ele>200.8</ele>
<time>2024-05-10T12:25:31Z</time>
</trkpt>
<trkpt lat="49.672656962648034" lon="8.994990270584822">
<ele>200.8</ele>
<time>2024-05-10T12:25:32Z</time>
</trkpt>
<trkpt lat="49.67261882498861" lon="8.994950288906693">
<ele>200.8</ele>
<time>2024-05-10T12:25:33Z</time>
</trkpt>
<trkpt lat="49.67257305979729" lon="8.994908295571804">
<ele>201</ele>
<time>2024-05-10T12:25:34Z</time>
</trkpt>
<trkpt lat="49.672515811398625" lon="8.994863452389836">
<ele>201.2</ele>
<time>2024-05-10T12:25:35Z</time>
</trkpt>
<trkpt lat="49.67246627435088" lon="8.994821542873979">
<ele>201.2</ele>
<time>2024-05-10T12:25:36Z</time>
</trkpt>
<trkpt lat="49.672416653484106" lon="8.99477862752974">
<ele>201.2</ele>
<time>2024-05-10T12:25:37Z</time>
</trkpt>
<trkpt lat="49.67237851582467" lon="8.994729928672314">
<ele>201.4</ele>
<time>2024-05-10T12:25:38Z</time>
</trkpt>
<trkpt lat="49.672340378165245" lon="8.99468039162457">
<ele>201.4</ele>
<time>2024-05-10T12:25:39Z</time>
</trkpt>
<trkpt lat="49.67230601236224" lon="8.994629848748446">
<ele>201.4</ele>
<time>2024-05-10T12:25:40Z</time>
</trkpt>
<trkpt lat="49.67227164655924" lon="8.994571678340435">
<ele>201.4</ele>
<time>2024-05-10T12:25:41Z</time>
</trkpt>
<trkpt lat="49.67224499210715" lon="8.994509652256966">
<ele>201.4</ele>
<time>2024-05-10T12:25:42Z</time>
</trkpt>
<trkpt lat="49.67221062630415" lon="8.99444293230772">
<ele>201.4</ele>
<time>2024-05-10T12:25:43Z</time>
</trkpt>
<trkpt lat="49.67217634432018" lon="8.99438476189971">
<ele>201.2</ele>
<time>2024-05-10T12:25:44Z</time>
</trkpt>
<trkpt lat="49.672141978517175" lon="8.994330363348126">
<ele>201.2</ele>
<time>2024-05-10T12:25:45Z</time>
</trkpt>
<trkpt lat="49.672122951596975" lon="8.994293147698045">
<ele>201.2</ele>
<time>2024-05-10T12:25:46Z</time>
</trkpt>
<trkpt lat="49.67209621332586" lon="8.994255010038614">
<ele>201.2</ele>
<time>2024-05-10T12:25:47Z</time>
</trkpt>
<trkpt lat="49.672061847522855" lon="8.994210166856647">
<ele>201.2</ele>
<time>2024-05-10T12:25:48Z</time>
</trkpt>
<trkpt lat="49.672023709863424" lon="8.994156774133444">
<ele>201.2</ele>
<time>2024-05-10T12:25:49Z</time>
</trkpt>
<trkpt lat="49.67198180034757" lon="8.99410623125732">
<ele>201.2</ele>
<time>2024-05-10T12:25:50Z</time>
</trkpt>
<trkpt lat="49.67192832380533" lon="8.994054766371846">
<ele>201.2</ele>
<time>2024-05-10T12:25:51Z</time>
</trkpt>
<trkpt lat="49.67187878675759" lon="8.994016628712416">
<ele>201.2</ele>
<time>2024-05-10T12:25:52Z</time>
</trkpt>
<trkpt lat="49.6718367934227" lon="8.993976563215256">
<ele>201.2</ele>
<time>2024-05-10T12:25:53Z</time>
</trkpt>
<trkpt lat="49.67181013897061" lon="8.99394504725933">
<ele>201.2</ele>
<time>2024-05-10T12:25:54Z</time>
</trkpt>
<trkpt lat="49.67176814563573" lon="8.9939069095999">
<ele>201.2</ele>
<time>2024-05-10T12:25:55Z</time>
</trkpt>
<trkpt lat="49.671726152300835" lon="8.993881177157164">
<ele>201.2</ele>
<time>2024-05-10T12:25:56Z</time>
</trkpt>
<trkpt lat="49.67169187031686" lon="8.993856366723776">
<ele>201.4</ele>
<time>2024-05-10T12:25:57Z</time>
</trkpt>
<trkpt lat="49.671665132045746" lon="8.993835411965847">
<ele>201.4</ele>
<time>2024-05-10T12:25:58Z</time>
</trkpt>
<trkpt lat="49.671626994386315" lon="8.993806829676032">
<ele>201.6</ele>
<time>2024-05-10T12:25:59Z</time>
</trkpt>
<trkpt lat="49.67160411179066" lon="8.99379157461226">
<ele>201.6</ele>
<time>2024-05-10T12:26:00Z</time>
</trkpt>
<trkpt lat="49.67157360166311" lon="8.993766764178872">
<ele>201.8</ele>
<time>2024-05-10T12:26:01Z</time>
</trkpt>
<trkpt lat="49.671550719067454" lon="8.993755280971527">
<ele>201.8</ele>
<time>2024-05-10T12:26:02Z</time>
</trkpt>
<trkpt lat="49.67153160832822" lon="8.993741953745484">
<ele>202</ele>
<time>2024-05-10T12:26:03Z</time>
</trkpt>
<trkpt lat="49.671508725732565" lon="8.993728626519442">
<ele>201.8</ele>
<time>2024-05-10T12:26:04Z</time>
</trkpt>
<trkpt lat="49.67148584313691" lon="8.993715215474367">
<ele>201.8</ele>
<time>2024-05-10T12:26:05Z</time>
</trkpt>
<trkpt lat="49.67146681621671" lon="8.993702810257673">
<ele>201.8</ele>
<time>2024-05-10T12:26:06Z</time>
</trkpt>
<trkpt lat="49.671451561152935" lon="8.993686633184552">
<ele>201.8</ele>
<time>2024-05-10T12:26:07Z</time>
</trkpt>
<trkpt lat="49.671432450413704" lon="8.99366945028305">
<ele>201.6</ele>
<time>2024-05-10T12:26:08Z</time>
</trkpt>
<trkpt lat="49.67141719534993" lon="8.993646567687392">
<ele>201.6</ele>
<time>2024-05-10T12:26:09Z</time>
</trkpt>
<trkpt lat="49.67141333967447" lon="8.993623685091734">
<ele>201.4</ele>
<time>2024-05-10T12:26:10Z</time>
</trkpt>
<trkpt lat="49.67140194028616" lon="8.993595102801919">
<ele>201.4</ele>
<time>2024-05-10T12:26:11Z</time>
</trkpt>
<trkpt lat="49.671390457078815" lon="8.993570292368531">
<ele>201.4</ele>
<time>2024-05-10T12:26:12Z</time>
</trkpt>
<trkpt lat="49.671371430158615" lon="8.993546403944492">
<ele>201.4</ele>
<time>2024-05-10T12:26:13Z</time>
</trkpt>
<trkpt lat="49.67134854756296" lon="8.993537854403257">
<ele>201.4</ele>
<time>2024-05-10T12:26:14Z</time>
</trkpt>
<trkpt lat="49.6713256649673" lon="8.99353114888072">
<ele>201.2</ele>
<time>2024-05-10T12:26:15Z</time>
</trkpt>
<trkpt lat="49.671295154839754" lon="8.993514971807599">
<ele>201.2</ele>
<time>2024-05-10T12:26:16Z</time>
</trkpt>
<trkpt lat="49.67126841656864" lon="8.993508266285062">
<ele>201</ele>
<time>2024-05-10T12:26:17Z</time>
</trkpt>
<trkpt lat="49.67124167829752" lon="8.993508266285062">
<ele>201</ele>
<time>2024-05-10T12:26:18Z</time>
</trkpt>
<trkpt lat="49.67122265137732" lon="8.99353114888072">
<ele>201</ele>
<time>2024-05-10T12:26:19Z</time>
</trkpt>
<trkpt lat="49.671211168169975" lon="8.993576997891068">
<ele>201</ele>
<time>2024-05-10T12:26:20Z</time>
</trkpt>
<trkpt lat="49.67119976878166" lon="8.993621757254004">
<ele>201</ele>
<time>2024-05-10T12:26:21Z</time>
</trkpt>
<trkpt lat="49.671192141249776" lon="8.993659894913435">
<ele>201</ele>
<time>2024-05-10T12:26:22Z</time>
</trkpt>
<trkpt lat="49.67118451371789" lon="8.993688561022282">
<ele>201</ele>
<time>2024-05-10T12:26:23Z</time>
</trkpt>
<trkpt lat="49.671176886186" lon="8.993716221302748">
<ele>200.8</ele>
<time>2024-05-10T12:26:24Z</time>
</trkpt>
<trkpt lat="49.67116925865412" lon="8.993742875754833">
<ele>200.8</ele>
<time>2024-05-10T12:26:25Z</time>
</trkpt>
<trkpt lat="49.67116540297866" lon="8.993766764178872">
<ele>200.8</ele>
<time>2024-05-10T12:26:26Z</time>
</trkpt>
<trkpt lat="49.67116163112223" lon="8.99379157461226">
<ele>200.8</ele>
<time>2024-05-10T12:26:27Z</time>
</trkpt>
<trkpt lat="49.67115014791489" lon="8.993813451379538">
<ele>200.6</ele>
<time>2024-05-10T12:26:28Z</time>
</trkpt>
<trkpt lat="49.671134892851114" lon="8.99382971227169">
<ele>200.6</ele>
<time>2024-05-10T12:26:29Z</time>
</trkpt>
<trkpt lat="49.67111963778734" lon="8.993833484128118">
<ele>200.6</ele>
<time>2024-05-10T12:26:30Z</time>
</trkpt>
<trkpt lat="49.67110061086714" lon="8.993833484128118">
<ele>200.6</ele>
<time>2024-05-10T12:26:31Z</time>
</trkpt>
<trkpt lat="49.67108150012791" lon="8.99382971227169">
<ele>200.6</ele>
<time>2024-05-10T12:26:32Z</time>
</trkpt>
<trkpt lat="49.67105861753225" lon="8.993818229064345">
<ele>200.6</ele>
<time>2024-05-10T12:26:33Z</time>
</trkpt>
<trkpt lat="49.67102810740471" lon="8.993802974000573">
<ele>200.6</ele>
<time>2024-05-10T12:26:34Z</time>
</trkpt>
<trkpt lat="49.670993741601706" lon="8.993795346468687">
<ele>200.4</ele>
<time>2024-05-10T12:26:35Z</time>
</trkpt>
<trkpt lat="49.67095183208585" lon="8.993793418630958">
<ele>200.4</ele>
<time>2024-05-10T12:26:36Z</time>
</trkpt>
<trkpt lat="49.67090983875096" lon="8.993802051991224">
<ele>200.4</ele>
<time>2024-05-10T12:26:37Z</time>
</trkpt>
<trkpt lat="49.67086784541607" lon="8.993802051991224">
<ele>200.4</ele>
<time>2024-05-10T12:26:38Z</time>
</trkpt>
<trkpt lat="49.67082208022475" lon="8.99380967952311">
<ele>200.4</ele>
<time>2024-05-10T12:26:39Z</time>
</trkpt>
<trkpt lat="49.670780170708895" lon="8.993813451379538">
<ele>200.4</ele>
<time>2024-05-10T12:26:40Z</time>
</trkpt>
<trkpt lat="49.67073440551758" lon="8.993822084739804">
<ele>200.4</ele>
<time>2024-05-10T12:26:41Z</time>
</trkpt>
<trkpt lat="49.67068855650723" lon="8.99382971227169">
<ele>200.4</ele>
<time>2024-05-10T12:26:42Z</time>
</trkpt>
<trkpt lat="49.67064664699137" lon="8.993843039497733">
<ele>200.4</ele>
<time>2024-05-10T12:26:43Z</time>
</trkpt>
<trkpt lat="49.67060850933194" lon="8.993856366723776">
<ele>200.4</ele>
<time>2024-05-10T12:26:44Z</time>
</trkpt>
<trkpt lat="49.67057037167251" lon="8.993865000084043">
<ele>200.4</ele>
<time>2024-05-10T12:26:45Z</time>
</trkpt>
<trkpt lat="49.67052837833762" lon="8.993875477463007">
<ele>200.4</ele>
<time>2024-05-10T12:26:46Z</time>
</trkpt>
<trkpt lat="49.67048638500273" lon="8.993885032832623">
<ele>200.4</ele>
<time>2024-05-10T12:26:47Z</time>
</trkpt>
<trkpt lat="49.670444475486875" lon="8.993894504383206">
<ele>200.4</ele>
<time>2024-05-10T12:26:48Z</time>
</trkpt>
<trkpt lat="49.67039871029556" lon="8.993901209905744">
<ele>200.2</ele>
<time>2024-05-10T12:26:49Z</time>
</trkpt>
<trkpt lat="49.67035671696067" lon="8.993911687284708">
<ele>200.2</ele>
<time>2024-05-10T12:26:50Z</time>
</trkpt>
<trkpt lat="49.67031472362578" lon="8.993916464969516">
<ele>200</ele>
<time>2024-05-10T12:26:51Z</time>
</trkpt>
<trkpt lat="49.67027658596635" lon="8.993920320644975">
<ele>199.8</ele>
<time>2024-05-10T12:26:52Z</time>
</trkpt>
<trkpt lat="49.67023844830692" lon="8.993920320644975">
<ele>199.8</ele>
<time>2024-05-10T12:26:53Z</time>
</trkpt>
<trkpt lat="49.6701926831156" lon="8.993921242654324">
<ele>199.8</ele>
<time>2024-05-10T12:26:54Z</time>
</trkpt>
<trkpt lat="49.67015068978071" lon="8.993920320644975">
<ele>199.6</ele>
<time>2024-05-10T12:26:55Z</time>
</trkpt>
<trkpt lat="49.67011255212128" lon="8.993916464969516">
<ele>199.6</ele>
<time>2024-05-10T12:26:56Z</time>
</trkpt>
<trkpt lat="49.67007441446185" lon="8.993913615122437">
<ele>199.6</ele>
<time>2024-05-10T12:26:57Z</time>
</trkpt>
<trkpt lat="49.67004004865885" lon="8.993913615122437">
<ele>199.4</ele>
<time>2024-05-10T12:26:58Z</time>
</trkpt>
<trkpt lat="49.66999813914299" lon="8.9939069095999">
<ele>199.4</ele>
<time>2024-05-10T12:26:59Z</time>
</trkpt>
<trkpt lat="49.66996000148356" lon="8.993898360058665">
<ele>199.4</ele>
<time>2024-05-10T12:27:00Z</time>
</trkpt>
<trkpt lat="49.66990660876036" lon="8.993883104994893">
<ele>199.4</ele>
<time>2024-05-10T12:27:01Z</time>
</trkpt>
<trkpt lat="49.66985698789358" lon="8.99386684410274">
<ele>199.4</ele>
<time>2024-05-10T12:27:02Z</time>
</trkpt>
<trkpt lat="49.669807367026806" lon="8.993843039497733">
<ele>199.6</ele>
<time>2024-05-10T12:27:03Z</time>
</trkpt>
<trkpt lat="49.66976160183549" lon="8.993815379217267">
<ele>199.6</ele>
<time>2024-05-10T12:27:04Z</time>
</trkpt>
<trkpt lat="49.66972346417606" lon="8.993784869089723">
<ele>199.8</ele>
<time>2024-05-10T12:27:05Z</time>
</trkpt>
<trkpt lat="49.669692954048514" lon="8.993760058656335">
<ele>200</ele>
<time>2024-05-10T12:27:06Z</time>
</trkpt>
<trkpt lat="49.66965481638909" lon="8.99372954852879">
<ele>200.2</ele>
<time>2024-05-10T12:27:07Z</time>
</trkpt>
<trkpt lat="49.66962045058608" lon="8.993699960410595">
<ele>200.2</ele>
<time>2024-05-10T12:27:08Z</time>
</trkpt>
<trkpt lat="49.669589940458536" lon="8.993668528273702">
<ele>200.4</ele>
<time>2024-05-10T12:27:09Z</time>
</trkpt>
<trkpt lat="49.669551802799106" lon="8.993630390614271">
<ele>200.6</ele>
<time>2024-05-10T12:27:10Z</time>
</trkpt>
<trkpt lat="49.669513665139675" lon="8.993590325117111">
<ele>200.6</ele>
<time>2024-05-10T12:27:11Z</time>
</trkpt>
<trkpt lat="49.669475527480245" lon="8.99355310946703">
<ele>200.6</ele>
<time>2024-05-10T12:27:12Z</time>
</trkpt>
<trkpt lat="49.66944116167724" lon="8.993518827483058">
<ele>200.8</ele>
<time>2024-05-10T12:27:13Z</time>
</trkpt>
<trkpt lat="49.66940687969327" lon="8.993486389517784">
<ele>200.8</ele>
<time>2024-05-10T12:27:14Z</time>
</trkpt>
<trkpt lat="49.66938014142215" lon="8.99345294572413">
<ele>200.8</ele>
<time>2024-05-10T12:27:15Z</time>
</trkpt>
<trkpt lat="49.66934963129461" lon="8.993418663740158">
<ele>200.8</ele>
<time>2024-05-10T12:27:16Z</time>
</trkpt>
<trkpt lat="49.669319121167064" lon="8.993381448090076">
<ele>201</ele>
<time>2024-05-10T12:27:17Z</time>
</trkpt>
<trkpt lat="49.66928861103952" lon="8.993350015953183">
<ele>201</ele>
<time>2024-05-10T12:27:18Z</time>
</trkpt>
<trkpt lat="49.669258100911975" lon="8.993314728140831">
<ele>201</ele>
<time>2024-05-10T12:27:19Z</time>
</trkpt>
<trkpt lat="49.66922373510897" lon="8.993278434500098">
<ele>201</ele>
<time>2024-05-10T12:27:20Z</time>
</trkpt>
<trkpt lat="49.669189453125" lon="8.993240296840668">
<ele>201</ele>
<time>2024-05-10T12:27:21Z</time>
</trkpt>
<trkpt lat="49.669155087322" lon="8.993201237171888">
<ele>201</ele>
<time>2024-05-10T12:27:22Z</time>
</trkpt>
<trkpt lat="49.669116949662566" lon="8.993160165846348">
<ele>201</ele>
<time>2024-05-10T12:27:23Z</time>
</trkpt>
<trkpt lat="49.66908643953502" lon="8.99311632849276">
<ele>201</ele>
<time>2024-05-10T12:27:24Z</time>
</trkpt>
<trkpt lat="49.66905207373202" lon="8.993075340986252">
<ele>201</ele>
<time>2024-05-10T12:27:25Z</time>
</trkpt>
<trkpt lat="49.66901779174805" lon="8.99303812533617">
<ele>201</ele>
<time>2024-05-10T12:27:26Z</time>
</trkpt>
<trkpt lat="49.66898342594504" lon="8.99300191551447">
<ele>201</ele>
<time>2024-05-10T12:27:27Z</time>
</trkpt>
<trkpt lat="49.66894528828561" lon="8.992968555539846">
<ele>201.2</ele>
<time>2024-05-10T12:27:28Z</time>
</trkpt>
<trkpt lat="49.66891092248261" lon="8.99293796159327">
<ele>201.2</ele>
<time>2024-05-10T12:27:29Z</time>
</trkpt>
<trkpt lat="49.66887664049864" lon="8.992904601618648">
<ele>201.2</ele>
<time>2024-05-10T12:27:30Z</time>
</trkpt>
<trkpt lat="49.668842274695635" lon="8.992866463959217">
<ele>201.2</ele>
<time>2024-05-10T12:27:31Z</time>
</trkpt>
<trkpt lat="49.66881176456809" lon="8.99282455444336">
<ele>201.2</ele>
<time>2024-05-10T12:27:32Z</time>
</trkpt>
<trkpt lat="49.66877739876509" lon="8.992793038487434">
<ele>201.2</ele>
<time>2024-05-10T12:27:33Z</time>
</trkpt>
<trkpt lat="49.66874311678112" lon="8.992758672684431">
<ele>201.2</ele>
<time>2024-05-10T12:27:34Z</time>
</trkpt>
<trkpt lat="49.66871260665357" lon="8.992732018232346">
<ele>201.2</ele>
<time>2024-05-10T12:27:35Z</time>
</trkpt>
<trkpt lat="49.66867824085057" lon="8.992701508104801">
<ele>201.2</ele>
<time>2024-05-10T12:27:36Z</time>
</trkpt>
<trkpt lat="49.668643875047565" lon="8.992666220292449">
<ele>201.4</ele>
<time>2024-05-10T12:27:37Z</time>
</trkpt>
<trkpt lat="49.66860959306359" lon="8.992638560011983">
<ele>201.4</ele>
<time>2024-05-10T12:27:38Z</time>
</trkpt>
<trkpt lat="49.66857145540416" lon="8.99260520003736">
<ele>201.4</ele>
<time>2024-05-10T12:27:39Z</time>
</trkpt>
<trkpt lat="49.66853708960116" lon="8.992573684081435">
<ele>201.6</ele>
<time>2024-05-10T12:27:40Z</time>
</trkpt>
<trkpt lat="49.66850280761719" lon="8.992547951638699">
<ele>201.6</ele>
<time>2024-05-10T12:27:41Z</time>
</trkpt>
<trkpt lat="49.668468441814184" lon="8.99252506904304">
<ele>201.8</ele>
<time>2024-05-10T12:27:42Z</time>
</trkpt>
<trkpt lat="49.66843407601118" lon="8.99250503629446">
<ele>201.8</ele>
<time>2024-05-10T12:27:43Z</time>
</trkpt>
<trkpt lat="49.66840356588364" lon="8.992480225861073">
<ele>202</ele>
<time>2024-05-10T12:27:44Z</time>
</trkpt>
<trkpt lat="49.668369283899665" lon="8.992458265274763">
<ele>202</ele>
<time>2024-05-10T12:27:45Z</time>
</trkpt>
<trkpt lat="49.66833491809666" lon="8.992438316345215">
<ele>202</ele>
<time>2024-05-10T12:27:46Z</time>
</trkpt>
<trkpt lat="49.66830055229366" lon="8.992422055453062">
<ele>202.2</ele>
<time>2024-05-10T12:27:47Z</time>
</trkpt>
<trkpt lat="49.668270042166114" lon="8.99240487255156">
<ele>202.2</ele>
<time>2024-05-10T12:27:48Z</time>
</trkpt>
<trkpt lat="49.66823953203857" lon="8.992391545325518">
<ele>202.2</ele>
<time>2024-05-10T12:27:49Z</time>
</trkpt>
<trkpt lat="49.66821287758648" lon="8.992378218099475">
<ele>202.2</ele>
<time>2024-05-10T12:27:50Z</time>
</trkpt>
<trkpt lat="49.668189994990826" lon="8.99236673489213">
<ele>202.2</ele>
<time>2024-05-10T12:27:51Z</time>
</trkpt>
<trkpt lat="49.66817473992705" lon="8.992356257513165">
<ele>202.2</ele>
<time>2024-05-10T12:27:52Z</time>
</trkpt>
<trkpt lat="49.66815562918782" lon="8.99234670214355">
<ele>202.2</ele>
<time>2024-05-10T12:27:53Z</time>
</trkpt>
<trkpt lat="49.66813651844859" lon="8.992340080440044">
<ele>202.2</ele>
<time>2024-05-10T12:27:54Z</time>
</trkpt>
<trkpt lat="49.66811749152839" lon="8.992329519242048">
<ele>202.2</ele>
<time>2024-05-10T12:27:55Z</time>
</trkpt>
<trkpt lat="49.668090753257275" lon="8.992313342168927">
<ele>202.2</ele>
<time>2024-05-10T12:27:56Z</time>
</trkpt>
<trkpt lat="49.66806409880519" lon="8.992295237258077">
<ele>202.2</ele>
<time>2024-05-10T12:27:57Z</time>
</trkpt>
<trkpt lat="49.668029733002186" lon="8.992275204509497">
<ele>202.2</ele>
<time>2024-05-10T12:27:58Z</time>
</trkpt>
<trkpt lat="49.667991595342755" lon="8.992250394076109">
<ele>202.2</ele>
<time>2024-05-10T12:27:59Z</time>
</trkpt>
<trkpt lat="49.667949602007866" lon="8.992224661633372">
<ele>202.2</ele>
<time>2024-05-10T12:28:00Z</time>
</trkpt>
<trkpt lat="49.66790383681655" lon="8.992199851199985">
<ele>202.2</ele>
<time>2024-05-10T12:28:01Z</time>
</trkpt>
<trkpt lat="49.66786569915712" lon="8.992179818451405">
<ele>202.2</ele>
<time>2024-05-10T12:28:02Z</time>
</trkpt>
<trkpt lat="49.66782378964126" lon="8.992163641378284">
<ele>202.2</ele>
<time>2024-05-10T12:28:03Z</time>
</trkpt>
<trkpt lat="49.6677855681628" lon="8.992148386314511">
<ele>202.2</ele>
<time>2024-05-10T12:28:04Z</time>
</trkpt>
<trkpt lat="49.66775128617883" lon="8.992136903107166">
<ele>202.2</ele>
<time>2024-05-10T12:28:05Z</time>
</trkpt>
<trkpt lat="49.6677131485194" lon="8.992121648043394">
<ele>202.2</ele>
<time>2024-05-10T12:28:06Z</time>
</trkpt>
<trkpt lat="49.667675010859966" lon="8.992108320817351">
<ele>202.2</ele>
<time>2024-05-10T12:28:07Z</time>
</trkpt>
<trkpt lat="49.667636789381504" lon="8.992092059925199">
<ele>202.2</ele>
<time>2024-05-10T12:28:08Z</time>
</trkpt>
<trkpt lat="49.667594879865646" lon="8.992074960842729">
<ele>202.2</ele>
<time>2024-05-10T12:28:09Z</time>
</trkpt>
<trkpt lat="49.66755288653076" lon="8.992056772112846">
<ele>202.4</ele>
<time>2024-05-10T12:28:10Z</time>
</trkpt>
<trkpt lat="49.6675109770149" lon="8.992043444886804">
<ele>202.4</ele>
<time>2024-05-10T12:28:11Z</time>
</trkpt>
<trkpt lat="49.66746512800455" lon="8.992034895345569">
<ele>202.6</ele>
<time>2024-05-10T12:28:12Z</time>
</trkpt>
<trkpt lat="49.66741559095681" lon="8.992028189823031">
<ele>202.6</ele>
<time>2024-05-10T12:28:13Z</time>
</trkpt>
<trkpt lat="49.66736982576549" lon="8.992019640281796">
<ele>202.6</ele>
<time>2024-05-10T12:28:14Z</time>
</trkpt>
<trkpt lat="49.667324060574174" lon="8.99201201274991">
<ele>202.6</ele>
<time>2024-05-10T12:28:15Z</time>
</trkpt>
<trkpt lat="49.667278211563826" lon="8.992001451551914">
<ele>202.4</ele>
<time>2024-05-10T12:28:16Z</time>
</trkpt>
<trkpt lat="49.66723244637251" lon="8.991994829848409">
<ele>202.4</ele>
<time>2024-05-10T12:28:17Z</time>
</trkpt>
<trkpt lat="49.66718668118119" lon="8.991988124325871">
<ele>202.6</ele>
<time>2024-05-10T12:28:18Z</time>
</trkpt>
<trkpt lat="49.66714091598987" lon="8.991981502622366">
<ele>202.6</ele>
<time>2024-05-10T12:28:19Z</time>
</trkpt>
<trkpt lat="49.66709515079856" lon="8.991970019415021">
<ele>202.6</ele>
<time>2024-05-10T12:28:20Z</time>
</trkpt>
<trkpt lat="49.66704938560724" lon="8.991961469873786">
<ele>202.6</ele>
<time>2024-05-10T12:28:21Z</time>
</trkpt>
<trkpt lat="49.66699976474047" lon="8.991956692188978">
<ele>202.8</ele>
<time>2024-05-10T12:28:22Z</time>
</trkpt>
<trkpt lat="49.66695399954915" lon="8.991948058828712">
<ele>202.8</ele>
<time>2024-05-10T12:28:23Z</time>
</trkpt>
<trkpt lat="49.666908234357834" lon="8.991936659440398">
<ele>202.8</ele>
<time>2024-05-10T12:28:24Z</time>
</trkpt>
<trkpt lat="49.66685861349106" lon="8.991928026080132">
<ele>202.8</ele>
<time>2024-05-10T12:28:25Z</time>
</trkpt>
<trkpt lat="49.6668167039752" lon="8.991918554529548">
<ele>203</ele>
<time>2024-05-10T12:28:26Z</time>
</trkpt>
<trkpt lat="49.66677085496485" lon="8.991907071322203">
<ele>203</ele>
<time>2024-05-10T12:28:27Z</time>
</trkpt>
<trkpt lat="49.666725089773536" lon="8.991901371628046">
<ele>203</ele>
<time>2024-05-10T12:28:28Z</time>
</trkpt>
<trkpt lat="49.66667932458222" lon="8.99189181625843">
<ele>203</ele>
<time>2024-05-10T12:28:29Z</time>
</trkpt>
<trkpt lat="49.666629787534475" lon="8.991883266717196">
<ele>203</ele>
<time>2024-05-10T12:28:30Z</time>
</trkpt>
<trkpt lat="49.66658393852413" lon="8.991878489032388">
<ele>203</ele>
<time>2024-05-10T12:28:31Z</time>
</trkpt>
<trkpt lat="49.66653817333281" lon="8.99187178350985">
<ele>203</ele>
<time>2024-05-10T12:28:32Z</time>
</trkpt>
<trkpt lat="49.66648863628507" lon="8.991856528446078">
<ele>203</ele>
<time>2024-05-10T12:28:33Z</time>
</trkpt>
<trkpt lat="49.66644287109375" lon="8.991841273382306">
<ele>203</ele>
<time>2024-05-10T12:28:34Z</time>
</trkpt>
<trkpt lat="49.6663970220834" lon="8.991827946156263">
<ele>203</ele>
<time>2024-05-10T12:28:35Z</time>
</trkpt>
<trkpt lat="49.666351256892085" lon="8.991816462948918">
<ele>203</ele>
<time>2024-05-10T12:28:36Z</time>
</trkpt>
<trkpt lat="49.66630934737623" lon="8.991805063560605">
<ele>203.2</ele>
<time>2024-05-10T12:28:37Z</time>
</trkpt>
<trkpt lat="49.66626349836588" lon="8.99179165251553">
<ele>203.2</ele>
<time>2024-05-10T12:28:38Z</time>
</trkpt>
<trkpt lat="49.66622158885002" lon="8.99177455343306">
<ele>203.4</ele>
<time>2024-05-10T12:28:39Z</time>
</trkpt>
<trkpt lat="49.66618345119059" lon="8.99175452068448">
<ele>203.4</ele>
<time>2024-05-10T12:28:40Z</time>
</trkpt>
<trkpt lat="49.666137685999274" lon="8.99173540994525">
<ele>203.6</ele>
<time>2024-05-10T12:28:41Z</time>
</trkpt>
<trkpt lat="49.666095692664385" lon="8.99171537719667">
<ele>203.6</ele>
<time>2024-05-10T12:28:42Z</time>
</trkpt>
<trkpt lat="49.66604992747307" lon="8.99169635027647">
<ele>203.8</ele>
<time>2024-05-10T12:28:43Z</time>
</trkpt>
<trkpt lat="49.66600030660629" lon="8.99167631752789">
<ele>203.8</ele>
<time>2024-05-10T12:28:44Z</time>
</trkpt>
<trkpt lat="49.665958397090435" lon="8.991649579256773">
<ele>204</ele>
<time>2024-05-10T12:28:45Z</time>
</trkpt>
<trkpt lat="49.665916403755546" lon="8.99161814711988">
<ele>204</ele>
<time>2024-05-10T12:28:46Z</time>
</trkpt>
<trkpt lat="49.665874410420656" lon="8.991581853479147">
<ele>204</ele>
<time>2024-05-10T12:28:47Z</time>
</trkpt>
<trkpt lat="49.665836272761226" lon="8.991546565666795">
<ele>204</ele>
<time>2024-05-10T12:28:48Z</time>
</trkpt>
<trkpt lat="49.665798135101795" lon="8.991513205692172">
<ele>204.2</ele>
<time>2024-05-10T12:28:49Z</time>
</trkpt>
<trkpt lat="49.665759997442365" lon="8.99147791787982">
<ele>204.2</ele>
<time>2024-05-10T12:28:50Z</time>
</trkpt>
<trkpt lat="49.66572948731482" lon="8.991441708058119">
<ele>204.2</ele>
<time>2024-05-10T12:28:51Z</time>
</trkpt>
<trkpt lat="49.66569512151182" lon="8.99139971472323">
<ele>204.2</ele>
<time>2024-05-10T12:28:52Z</time>
</trkpt>
<trkpt lat="49.66565698385239" lon="8.991353027522564">
<ele>204.2</ele>
<time>2024-05-10T12:28:53Z</time>
</trkpt>
<trkpt lat="49.66561884619296" lon="8.991306256502867">
<ele>204.2</ele>
<time>2024-05-10T12:28:54Z</time>
</trkpt>
<trkpt lat="49.665584564208984" lon="8.991261413320899">
<ele>204.2</ele>
<time>2024-05-10T12:28:55Z</time>
</trkpt>
<trkpt lat="49.66554634273052" lon="8.991211876273155">
<ele>204.2</ele>
<time>2024-05-10T12:28:56Z</time>
</trkpt>
<trkpt lat="49.66551583260298" lon="8.991167033091187">
<ele>204.2</ele>
<time>2024-05-10T12:28:57Z</time>
</trkpt>
<trkpt lat="49.665481550619006" lon="8.991116490215063">
<ele>204.2</ele>
<time>2024-05-10T12:28:58Z</time>
</trkpt>
<trkpt lat="49.665447184816" lon="8.99106309749186">
<ele>204.2</ele>
<time>2024-05-10T12:28:59Z</time>
</trkpt>
<trkpt lat="49.66540904715657" lon="8.991008698940277">
<ele>204.2</ele>
<time>2024-05-10T12:29:00Z</time>
</trkpt>
<trkpt lat="49.66537090949714" lon="8.990951534360647">
<ele>204.4</ele>
<time>2024-05-10T12:29:01Z</time>
</trkpt>
<trkpt lat="49.66533654369414" lon="8.990893363952637">
<ele>204.4</ele>
<time>2024-05-10T12:29:02Z</time>
</trkpt>
<trkpt lat="49.66530988924205" lon="8.990831337869167">
<ele>204.4</ele>
<time>2024-05-10T12:29:03Z</time>
</trkpt>
<trkpt lat="49.66527937911451" lon="8.990761684253812">
<ele>204.6</ele>
<time>2024-05-10T12:29:04Z</time>
</trkpt>
<trkpt lat="49.66524886898696" lon="8.990692114457488">
<ele>204.6</ele>
<time>2024-05-10T12:29:05Z</time>
</trkpt>
<trkpt lat="49.66521827504039" lon="8.990621538832784">
<ele>204.8</ele>
<time>2024-05-10T12:29:06Z</time>
</trkpt>
<trkpt lat="49.6651916205883" lon="8.990552891045809">
<ele>204.8</ele>
<time>2024-05-10T12:29:07Z</time>
</trkpt>
<trkpt lat="49.66516873799264" lon="8.990485165268183">
<ele>204.8</ele>
<time>2024-05-10T12:29:08Z</time>
</trkpt>
<trkpt lat="49.665145855396986" lon="8.990420289337635">
<ele>205</ele>
<time>2024-05-10T12:29:09Z</time>
</trkpt>
<trkpt lat="49.66512297280133" lon="8.990356419235468">
<ele>205</ele>
<time>2024-05-10T12:29:10Z</time>
</trkpt>
<trkpt lat="49.66510009020567" lon="8.99029347114265">
<ele>205</ele>
<time>2024-05-10T12:29:11Z</time>
</trkpt>
<trkpt lat="49.66507720761001" lon="8.990228595212102">
<ele>205</ele>
<time>2024-05-10T12:29:12Z</time>
</trkpt>
<trkpt lat="49.66505424119532" lon="8.990163803100586">
<ele>205</ele>
<time>2024-05-10T12:29:13Z</time>
</trkpt>
<trkpt lat="49.66503135859966" lon="8.990099849179387">
<ele>205</ele>
<time>2024-05-10T12:29:14Z</time>
</trkpt>
<trkpt lat="49.665008476004" lon="8.990035057067871">
<ele>205</ele>
<time>2024-05-10T12:29:15Z</time>
</trkpt>
<trkpt lat="49.66498182155192" lon="8.989970181137323">
<ele>205</ele>
<time>2024-05-10T12:29:16Z</time>
</trkpt>
<trkpt lat="49.6649550832808" lon="8.989903377369046">
<ele>204.8</ele>
<time>2024-05-10T12:29:17Z</time>
</trkpt>
<trkpt lat="49.66493220068514" lon="8.9898366574198">
<ele>204.8</ele>
<time>2024-05-10T12:29:18Z</time>
</trkpt>
<trkpt lat="49.66490554623306" lon="8.989771781489253">
<ele>204.6</ele>
<time>2024-05-10T12:29:19Z</time>
</trkpt>
<trkpt lat="49.66488643549383" lon="8.989707911387086">
<ele>204.6</ele>
<time>2024-05-10T12:29:20Z</time>
</trkpt>
<trkpt lat="49.66486355289817" lon="8.989644963294268">
<ele>204.4</ele>
<time>2024-05-10T12:29:21Z</time>
</trkpt>
<trkpt lat="49.66484067030251" lon="8.989586792886257">
<ele>204.4</ele>
<time>2024-05-10T12:29:22Z</time>
</trkpt>
<trkpt lat="49.66481778770685" lon="8.989528622478247">
<ele>204.4</ele>
<time>2024-05-10T12:29:23Z</time>
</trkpt>
<trkpt lat="49.664791049435735" lon="8.989466596394777">
<ele>204.4</ele>
<time>2024-05-10T12:29:24Z</time>
</trkpt>
<trkpt lat="49.66475676745176" lon="8.98940465413034">
<ele>204.4</ele>
<time>2024-05-10T12:29:25Z</time>
</trkpt>
<trkpt lat="49.66472240164876" lon="8.98934648372233">
<ele>204.4</ele>
<time>2024-05-10T12:29:26Z</time>
</trkpt>
<trkpt lat="49.66468803584576" lon="8.989292085170746">
<ele>204.4</ele>
<time>2024-05-10T12:29:27Z</time>
</trkpt>
<trkpt lat="49.664649898186326" lon="8.98924631997943">
<ele>204.4</ele>
<time>2024-05-10T12:29:28Z</time>
</trkpt>
<trkpt lat="49.664611760526896" lon="8.989203404635191">
<ele>204.4</ele>
<time>2024-05-10T12:29:29Z</time>
</trkpt>
<trkpt lat="49.66457747854293" lon="8.989163339138031">
<ele>204.6</ele>
<time>2024-05-10T12:29:30Z</time>
</trkpt>
<trkpt lat="49.66454688459635" lon="8.9891252014786">
<ele>204.6</ele>
<time>2024-05-10T12:29:31Z</time>
</trkpt>
<trkpt lat="49.66450874693692" lon="8.989089913666248">
<ele>204.6</ele>
<time>2024-05-10T12:29:32Z</time>
</trkpt>
<trkpt lat="49.66446683742106" lon="8.989060325548053">
<ele>204.6</ele>
<time>2024-05-10T12:29:33Z</time>
</trkpt>
<trkpt lat="49.66442484408617" lon="8.989031743258238">
<ele>204.8</ele>
<time>2024-05-10T12:29:34Z</time>
</trkpt>
<trkpt lat="49.66438670642674" lon="8.98900793865323">
<ele>204.8</ele>
<time>2024-05-10T12:29:35Z</time>
</trkpt>
<trkpt lat="49.664356196299195" lon="8.988989749923348">
<ele>205</ele>
<time>2024-05-10T12:29:36Z</time>
</trkpt>
<trkpt lat="49.66432183049619" lon="8.988971645012498">
<ele>205</ele>
<time>2024-05-10T12:29:37Z</time>
</trkpt>
<trkpt lat="49.66429132036865" lon="8.988953540101647">
<ele>205</ele>
<time>2024-05-10T12:29:38Z</time>
</trkpt>
<trkpt lat="49.6642608102411" lon="8.988941134884953">
<ele>205.2</ele>
<time>2024-05-10T12:29:39Z</time>
</trkpt>
<trkpt lat="49.66423030011356" lon="8.988933507353067">
<ele>205.2</ele>
<time>2024-05-10T12:29:40Z</time>
</trkpt>
<trkpt lat="49.664199789986014" lon="8.988923029974103">
<ele>205.2</ele>
<time>2024-05-10T12:29:41Z</time>
</trkpt>
<trkpt lat="49.66416542418301" lon="8.988913474604487">
<ele>205.2</ele>
<time>2024-05-10T12:29:42Z</time>
</trkpt>
<trkpt lat="49.66413491405547" lon="8.988902997225523">
<ele>205.2</ele>
<time>2024-05-10T12:29:43Z</time>
</trkpt>
<trkpt lat="49.66410440392792" lon="8.98888966999948">
<ele>205.2</ele>
<time>2024-05-10T12:29:44Z</time>
</trkpt>
<trkpt lat="49.66407389380038" lon="8.988882042467594">
<ele>205.2</ele>
<time>2024-05-10T12:29:45Z</time>
</trkpt>
<trkpt lat="49.66404723934829" lon="8.98887156508863">
<ele>205.2</ele>
<time>2024-05-10T12:29:46Z</time>
</trkpt>
<trkpt lat="49.664020501077175" lon="8.988860081881285">
<ele>205</ele>
<time>2024-05-10T12:29:47Z</time>
</trkpt>
<trkpt lat="49.66398999094963" lon="8.98884960450232">
<ele>205</ele>
<time>2024-05-10T12:29:48Z</time>
</trkpt>
<trkpt lat="49.663959480822086" lon="8.988841976970434">
<ele>204.8</ele>
<time>2024-05-10T12:29:49Z</time>
</trkpt>
<trkpt lat="49.66393274255097" lon="8.988844826817513">
<ele>204.8</ele>
<time>2024-05-10T12:29:50Z</time>
</trkpt>
<trkpt lat="49.663902232423425" lon="8.98885153234005">
<ele>204.6</ele>
<time>2024-05-10T12:29:51Z</time>
</trkpt>
<trkpt lat="49.66387557797134" lon="8.988858154043555">
<ele>204.6</ele>
<time>2024-05-10T12:29:52Z</time>
</trkpt>
<trkpt lat="49.66384883970022" lon="8.988860081881285">
<ele>204.4</ele>
<time>2024-05-10T12:29:53Z</time>
</trkpt>
<trkpt lat="49.663822101429105" lon="8.988862009719014">
<ele>204.4</ele>
<time>2024-05-10T12:29:54Z</time>
</trkpt>
<trkpt lat="49.66379159130156" lon="8.988858154043555">
<ele>204.4</ele>
<time>2024-05-10T12:29:55Z</time>
</trkpt>
<trkpt lat="49.663764936849475" lon="8.988856310024858">
<ele>204.4</ele>
<time>2024-05-10T12:29:56Z</time>
</trkpt>
<trkpt lat="49.66374205425382" lon="8.988855304196477">
<ele>204.2</ele>
<time>2024-05-10T12:29:57Z</time>
</trkpt>
<trkpt lat="49.66371917165816" lon="8.98885153234005">
<ele>204.2</ele>
<time>2024-05-10T12:29:58Z</time>
</trkpt>
<trkpt lat="49.66370006091893" lon="8.988855304196477">
<ele>204.2</ele>
<time>2024-05-10T12:29:59Z</time>
</trkpt>
<trkpt lat="49.663684805855155" lon="8.988862931728363">
<ele>204.2</ele>
<time>2024-05-10T12:30:00Z</time>
</trkpt>
<trkpt lat="49.66366955079138" lon="8.988864859566092">
<ele>204.2</ele>
<time>2024-05-10T12:30:01Z</time>
</trkpt>
<trkpt lat="49.66365044005215" lon="8.988858154043555">
<ele>204.2</ele>
<time>2024-05-10T12:30:02Z</time>
</trkpt>
<trkpt lat="49.66363518498838" lon="8.98885153234005">
<ele>204.2</ele>
<time>2024-05-10T12:30:03Z</time>
</trkpt>
<trkpt lat="49.66361992992461" lon="8.988855304196477">
<ele>204</ele>
<time>2024-05-10T12:30:04Z</time>
</trkpt>
<trkpt lat="49.663608530536294" lon="8.98885153234005">
<ele>204</ele>
<time>2024-05-10T12:30:05Z</time>
</trkpt>
<trkpt lat="49.66359327547252" lon="8.988848682492971">
<ele>204</ele>
<time>2024-05-10T12:30:06Z</time>
</trkpt>
<trkpt lat="49.66358179226518" lon="8.988842898979783">
<ele>203.8</ele>
<time>2024-05-10T12:30:07Z</time>
</trkpt>
<trkpt lat="49.66357416473329" lon="8.988846754655242">
<ele>203.8</ele>
<time>2024-05-10T12:30:08Z</time>
</trkpt>
<trkpt lat="49.66356276534498" lon="8.988846754655242">
<ele>203.8</ele>
<time>2024-05-10T12:30:09Z</time>
</trkpt>
<trkpt lat="49.66355513781309" lon="8.988848682492971">
<ele>203.8</ele>
<time>2024-05-10T12:30:10Z</time>
</trkpt>
<trkpt lat="49.66353988274932" lon="8.988848682492971">
<ele>203.6</ele>
<time>2024-05-10T12:30:11Z</time>
</trkpt>
<trkpt lat="49.66350551694632" lon="8.98883149959147">
<ele>203.6</ele>
<time>2024-05-10T12:30:12Z</time>
</trkpt>
<trkpt lat="49.663486406207085" lon="8.988835271447897">
<ele>203.6</ele>
<time>2024-05-10T12:30:13Z</time>
</trkpt>
<trkpt lat="49.663459751755" lon="8.98882957175374">
<ele>203.6</ele>
<time>2024-05-10T12:30:14Z</time>
</trkpt>
<trkpt lat="49.663429241627455" lon="8.98883149959147">
<ele>203.6</ele>
<time>2024-05-10T12:30:15Z</time>
</trkpt>
<trkpt lat="49.66340250335634" lon="8.988836277276278">
<ele>203.6</ele>
<time>2024-05-10T12:30:16Z</time>
</trkpt>
<trkpt lat="49.66337584890425" lon="8.988835271447897">
<ele>203.8</ele>
<time>2024-05-10T12:30:17Z</time>
</trkpt>
<trkpt lat="49.663349110633135" lon="8.9888334274292">
<ele>203.8</ele>
<time>2024-05-10T12:30:18Z</time>
</trkpt>
<trkpt lat="49.66332237236202" lon="8.988835271447897">
<ele>203.8</ele>
<time>2024-05-10T12:30:19Z</time>
</trkpt>
<trkpt lat="49.66329186223447" lon="8.9888334274292">
<ele>203.8</ele>
<time>2024-05-10T12:30:20Z</time>
</trkpt>
<trkpt lat="49.66326135210693" lon="8.98882957175374">
<ele>203.8</ele>
<time>2024-05-10T12:30:21Z</time>
</trkpt>
<trkpt lat="49.66322707012296" lon="8.988826721906662">
<ele>203.6</ele>
<time>2024-05-10T12:30:22Z</time>
</trkpt>
<trkpt lat="49.663192704319954" lon="8.988818088546395">
<ele>203.6</ele>
<time>2024-05-10T12:30:23Z</time>
</trkpt>
<trkpt lat="49.66315456666052" lon="8.98881146684289">
<ele>203.4</ele>
<time>2024-05-10T12:30:24Z</time>
</trkpt>
<trkpt lat="49.66311642900109" lon="8.988808616995811">
<ele>203.4</ele>
<time>2024-05-10T12:30:25Z</time>
</trkpt>
<trkpt lat="49.66307829134166" lon="8.988804761320353">
<ele>203.2</ele>
<time>2024-05-10T12:30:26Z</time>
</trkpt>
<trkpt lat="49.66304392553866" lon="8.988801911473274">
<ele>203.2</ele>
<time>2024-05-10T12:30:27Z</time>
</trkpt>
<trkpt lat="49.66300964355469" lon="8.988796211779118">
<ele>203.2</ele>
<time>2024-05-10T12:30:28Z</time>
</trkpt>
<trkpt lat="49.66297527775168" lon="8.98878950625658">
<ele>203.2</ele>
<time>2024-05-10T12:30:29Z</time>
</trkpt>
<trkpt lat="49.662937140092254" lon="8.988784728571773">
<ele>203.2</ele>
<time>2024-05-10T12:30:30Z</time>
</trkpt>
<trkpt lat="49.66289900243282" lon="8.988777101039886">
<ele>203.4</ele>
<time>2024-05-10T12:30:31Z</time>
</trkpt>
<trkpt lat="49.662857009097934" lon="8.98877140134573">
<ele>203.4</ele>
<time>2024-05-10T12:30:32Z</time>
</trkpt>
<trkpt lat="49.66281124390662" lon="8.988768551498652">
<ele>203.2</ele>
<time>2024-05-10T12:30:33Z</time>
</trkpt>
<trkpt lat="49.66276925057173" lon="8.988763773813844">
<ele>203.2</ele>
<time>2024-05-10T12:30:34Z</time>
</trkpt>
<trkpt lat="49.66272348538041" lon="8.988759918138385">
<ele>203</ele>
<time>2024-05-10T12:30:35Z</time>
</trkpt>
<trkpt lat="49.66268157586455" lon="8.988759918138385">
<ele>202.8</ele>
<time>2024-05-10T12:30:36Z</time>
</trkpt>
<trkpt lat="49.66264335438609" lon="8.988758074119687">
<ele>202.8</ele>
<time>2024-05-10T12:30:37Z</time>
</trkpt>
<trkpt lat="49.66260144487023" lon="8.98875329643488">
<ele>202.6</ele>
<time>2024-05-10T12:30:38Z</time>
</trkpt>
<trkpt lat="49.6625633072108" lon="8.988742819055915">
<ele>202.6</ele>
<time>2024-05-10T12:30:39Z</time>
</trkpt>
<trkpt lat="49.662521313875914" lon="8.988737035542727">
<ele>202.6</ele>
<time>2024-05-10T12:30:40Z</time>
</trkpt>
<trkpt lat="49.662479320541024" lon="8.988730413839221">
<ele>202.6</ele>
<time>2024-05-10T12:30:41Z</time>
</trkpt>
<trkpt lat="49.662441182881594" lon="8.988721780478954">
<ele>202.8</ele>
<time>2024-05-10T12:30:42Z</time>
</trkpt>
<trkpt lat="49.662399273365736" lon="8.988715158775449">
<ele>202.8</ele>
<time>2024-05-10T12:30:43Z</time>
</trkpt>
<trkpt lat="49.66235728003085" lon="8.988710381090641">
<ele>202.8</ele>
<time>2024-05-10T12:30:44Z</time>
</trkpt>
<trkpt lat="49.66231528669596" lon="8.988706525415182">
<ele>202.8</ele>
<time>2024-05-10T12:30:45Z</time>
</trkpt>
<trkpt lat="49.662281004711986" lon="8.988706525415182">
<ele>202.8</ele>
<time>2024-05-10T12:30:46Z</time>
</trkpt>
<trkpt lat="49.662242867052555" lon="8.988704681396484">
<ele>202.8</ele>
<time>2024-05-10T12:30:47Z</time>
</trkpt>
<trkpt lat="49.66220850124955" lon="8.988701747730374">
<ele>202.8</ele>
<time>2024-05-10T12:30:48Z</time>
</trkpt>
<trkpt lat="49.66217421926558" lon="8.988695126026869">
<ele>202.8</ele>
<time>2024-05-10T12:30:49Z</time>
</trkpt>
<trkpt lat="49.66214362531901" lon="8.988684648647904">
<ele>202.8</ele>
<time>2024-05-10T12:30:50Z</time>
</trkpt>
<trkpt lat="49.66210934333503" lon="8.988677943125367">
<ele>203</ele>
<time>2024-05-10T12:30:51Z</time>
</trkpt>
<trkpt lat="49.66207497753203" lon="8.98867123760283">
<ele>203.2</ele>
<time>2024-05-10T12:30:52Z</time>
</trkpt>
<trkpt lat="49.66203306801617" lon="8.988666459918022">
<ele>203.2</ele>
<time>2024-05-10T12:30:53Z</time>
</trkpt>
<trkpt lat="49.66199493035674" lon="8.988659838214517">
<ele>203.2</ele>
<time>2024-05-10T12:30:54Z</time>
</trkpt>
<trkpt lat="49.66195670887828" lon="8.98865313269198">
<ele>203.4</ele>
<time>2024-05-10T12:30:55Z</time>
</trkpt>
<trkpt lat="49.66191857121885" lon="8.988639805465937">
<ele>203.4</ele>
<time>2024-05-10T12:30:56Z</time>
</trkpt>
<trkpt lat="49.66188043355942" lon="8.988630250096321">
<ele>203.4</ele>
<time>2024-05-10T12:30:57Z</time>
</trkpt>
<trkpt lat="49.66184229589999" lon="8.988623544573784">
<ele>203.4</ele>
<time>2024-05-10T12:30:58Z</time>
</trkpt>
<trkpt lat="49.66180415824056" lon="8.988614995032549">
<ele>203.4</ele>
<time>2024-05-10T12:30:59Z</time>
</trkpt>
<trkpt lat="49.661766020581126" lon="8.988605439662933">
<ele>203.4</ele>
<time>2024-05-10T12:31:00Z</time>
</trkpt>
<trkpt lat="49.66172402724624" lon="8.988594962283969">
<ele>203.4</ele>
<time>2024-05-10T12:31:01Z</time>
</trkpt>
<trkpt lat="49.66168211773038" lon="8.988588256761432">
<ele>203.4</ele>
<time>2024-05-10T12:31:02Z</time>
</trkpt>
<trkpt lat="49.66164012439549" lon="8.988583562895656">
<ele>203.4</ele>
<time>2024-05-10T12:31:03Z</time>
</trkpt>
<trkpt lat="49.6615981310606" lon="8.988579707220197">
<ele>203.4</ele>
<time>2024-05-10T12:31:04Z</time>
</trkpt>
<trkpt lat="49.66155999340117" lon="8.988576857373118">
<ele>203.4</ele>
<time>2024-05-10T12:31:05Z</time>
</trkpt>
<trkpt lat="49.66152185574174" lon="8.988574929535389">
<ele>203.4</ele>
<time>2024-05-10T12:31:06Z</time>
</trkpt>
<trkpt lat="49.66147994622588" lon="8.988576857373118">
<ele>203.6</ele>
<time>2024-05-10T12:31:07Z</time>
</trkpt>
<trkpt lat="49.66144172474742" lon="8.988574929535389">
<ele>203.6</ele>
<time>2024-05-10T12:31:08Z</time>
</trkpt>
<trkpt lat="49.66140358708799" lon="8.988571157678962">
<ele>203.8</ele>
<time>2024-05-10T12:31:09Z</time>
</trkpt>
<trkpt lat="49.66136167757213" lon="8.988568224012852">
<ele>203.8</ele>
<time>2024-05-10T12:31:10Z</time>
</trkpt>
<trkpt lat="49.6613235399127" lon="8.988563530147076">
<ele>203.8</ele>
<time>2024-05-10T12:31:11Z</time>
</trkpt>
<trkpt lat="49.66128531843424" lon="8.988556824624538">
<ele>204</ele>
<time>2024-05-10T12:31:12Z</time>
</trkpt>
<trkpt lat="49.66125103645027" lon="8.988554896786809">
<ele>204</ele>
<time>2024-05-10T12:31:13Z</time>
</trkpt>
<trkpt lat="49.66121667064726" lon="8.988558752462268">
<ele>204</ele>
<time>2024-05-10T12:31:14Z</time>
</trkpt>
<trkpt lat="49.66118238866329" lon="8.988561602309346">
<ele>204.2</ele>
<time>2024-05-10T12:31:15Z</time>
</trkpt>
<trkpt lat="49.66115187853575" lon="8.988563530147076">
<ele>204.2</ele>
<time>2024-05-10T12:31:16Z</time>
</trkpt>
<trkpt lat="49.6611213684082" lon="8.988565374165773">
<ele>204.4</ele>
<time>2024-05-10T12:31:17Z</time>
</trkpt>
<trkpt lat="49.6610870026052" lon="8.988566379994154">
<ele>204.4</ele>
<time>2024-05-10T12:31:18Z</time>
</trkpt>
<trkpt lat="49.6610526368022" lon="8.988568224012852">
<ele>204.4</ele>
<time>2024-05-10T12:31:19Z</time>
</trkpt>
<trkpt lat="49.661018354818225" lon="8.98857300169766">
<ele>204.6</ele>
<time>2024-05-10T12:31:20Z</time>
</trkpt>
<trkpt lat="49.660980217158794" lon="8.988578785210848">
<ele>204.6</ele>
<time>2024-05-10T12:31:21Z</time>
</trkpt>
<trkpt lat="49.66094199568033" lon="8.988584484905005">
<ele>204.6</ele>
<time>2024-05-10T12:31:22Z</time>
</trkpt>
<trkpt lat="49.6609038580209" lon="8.988590184599161">
<ele>204.6</ele>
<time>2024-05-10T12:31:23Z</time>
</trkpt>
<trkpt lat="49.66086572036147" lon="8.988597812131047">
<ele>204.6</ele>
<time>2024-05-10T12:31:24Z</time>
</trkpt>
<trkpt lat="49.6608314383775" lon="8.988605439662933">
<ele>204.8</ele>
<time>2024-05-10T12:31:25Z</time>
</trkpt>
<trkpt lat="49.660797072574496" lon="8.98861306719482">
<ele>204.8</ele>
<time>2024-05-10T12:31:26Z</time>
</trkpt>
<trkpt lat="49.66076656244695" lon="8.988619772717357">
<ele>205</ele>
<time>2024-05-10T12:31:27Z</time>
</trkpt>
<trkpt lat="49.66073219664395" lon="8.988637877628207">
<ele>205.2</ele>
<time>2024-05-10T12:31:28Z</time>
</trkpt>
<trkpt lat="49.66069405898452" lon="8.988659838214517">
<ele>205.2</ele>
<time>2024-05-10T12:31:29Z</time>
</trkpt>
<trkpt lat="49.66065592132509" lon="8.988679870963097">
<ele>205.4</ele>
<time>2024-05-10T12:31:30Z</time>
</trkpt>
<trkpt lat="49.66061778366566" lon="8.988695126026869">
<ele>205.4</ele>
<time>2024-05-10T12:31:31Z</time>
</trkpt>
<trkpt lat="49.66057579033077" lon="8.98871323093772">
<ele>205.6</ele>
<time>2024-05-10T12:31:32Z</time>
</trkpt>
<trkpt lat="49.66053388081491" lon="8.988730413839221">
<ele>205.6</ele>
<time>2024-05-10T12:31:33Z</time>
</trkpt>
<trkpt lat="49.66049188748002" lon="8.988744663074613">
<ele>205.8</ele>
<time>2024-05-10T12:31:34Z</time>
</trkpt>
<trkpt lat="49.66045374982059" lon="8.988759918138385">
<ele>205.8</ele>
<time>2024-05-10T12:31:35Z</time>
</trkpt>
<trkpt lat="49.6604117564857" lon="8.988768551498652">
<ele>206</ele>
<time>2024-05-10T12:31:36Z</time>
</trkpt>
<trkpt lat="49.66037361882627" lon="8.988779950886965">
<ele>206.2</ele>
<time>2024-05-10T12:31:37Z</time>
</trkpt>
<trkpt lat="49.66033548116684" lon="8.988795205950737">
<ele>206.2</ele>
<time>2024-05-10T12:31:38Z</time>
</trkpt>
<trkpt lat="49.66029357165098" lon="8.98881146684289">
<ele>206.2</ele>
<time>2024-05-10T12:31:39Z</time>
</trkpt>
<trkpt lat="49.66025535017252" lon="8.98882957175374">
<ele>206.4</ele>
<time>2024-05-10T12:31:40Z</time>
</trkpt>
<trkpt lat="49.66022106818855" lon="8.98884960450232">
<ele>206.4</ele>
<time>2024-05-10T12:31:41Z</time>
</trkpt>
<trkpt lat="49.660186702385545" lon="8.98886863142252">
<ele>206.4</ele>
<time>2024-05-10T12:31:42Z</time>
</trkpt>
<trkpt lat="49.660148564726114" lon="8.98888966999948">
<ele>206.4</ele>
<time>2024-05-10T12:31:43Z</time>
</trkpt>
<trkpt lat="49.66011428274214" lon="8.98890869691968">
<ele>206.6</ele>
<time>2024-05-10T12:31:44Z</time>
</trkpt>
<trkpt lat="49.66007606126368" lon="8.988926885649562">
<ele>206.6</ele>
<time>2024-05-10T12:31:45Z</time>
</trkpt>
<trkpt lat="49.66004177927971" lon="8.988941134884953">
<ele>206.6</ele>
<time>2024-05-10T12:31:46Z</time>
</trkpt>
<trkpt lat="49.66000364162028" lon="8.988958317786455">
<ele>206.6</ele>
<time>2024-05-10T12:31:47Z</time>
</trkpt>
<trkpt lat="49.65996550396085" lon="8.988976422697306">
<ele>206.6</ele>
<time>2024-05-10T12:31:48Z</time>
</trkpt>
<trkpt lat="49.659931138157845" lon="8.988991677761078">
<ele>206.4</ele>
<time>2024-05-10T12:31:49Z</time>
</trkpt>
<trkpt lat="49.659893000498414" lon="8.989005088806152">
<ele>206.4</ele>
<time>2024-05-10T12:31:50Z</time>
</trkpt>
<trkpt lat="49.65985863469541" lon="8.989020343869925">
<ele>206.6</ele>
<time>2024-05-10T12:31:51Z</time>
</trkpt>
<trkpt lat="49.65982049703598" lon="8.989034593105316">
<ele>206.6</ele>
<time>2024-05-10T12:31:52Z</time>
</trkpt>
<trkpt lat="49.65978621505201" lon="8.989053703844547">
<ele>206.4</ele>
<time>2024-05-10T12:31:53Z</time>
</trkpt>
<trkpt lat="49.659751849249005" lon="8.989076586440206">
<ele>206.4</ele>
<time>2024-05-10T12:31:54Z</time>
</trkpt>
<trkpt lat="49.659717483446" lon="8.989094691351056">
<ele>206.4</ele>
<time>2024-05-10T12:31:55Z</time>
</trkpt>
<trkpt lat="49.65968320146203" lon="8.989111874252558">
<ele>206.2</ele>
<time>2024-05-10T12:31:56Z</time>
</trkpt>
<trkpt lat="49.6596450638026" lon="8.989128051325679">
<ele>206.2</ele>
<time>2024-05-10T12:31:57Z</time>
</trkpt>
<trkpt lat="49.6596106979996" lon="8.989141462370753">
<ele>206.2</ele>
<time>2024-05-10T12:31:58Z</time>
</trkpt>
<trkpt lat="49.659576416015625" lon="8.989156717434525">
<ele>206.4</ele>
<time>2024-05-10T12:31:59Z</time>
</trkpt>
<trkpt lat="49.65954205021262" lon="8.989171972498298">
<ele>206.4</ele>
<time>2024-05-10T12:32:00Z</time>
</trkpt>
<trkpt lat="49.65951154008508" lon="8.989188149571419">
<ele>206.4</ele>
<time>2024-05-10T12:32:01Z</time>
</trkpt>
<trkpt lat="49.659477174282074" lon="8.98920625448227">
<ele>206.4</ele>
<time>2024-05-10T12:32:02Z</time>
</trkpt>
<trkpt lat="49.65944666415453" lon="8.989219665527344">
<ele>206.2</ele>
<time>2024-05-10T12:32:03Z</time>
</trkpt>
<trkpt lat="49.65941238217056" lon="8.989232992753386">
<ele>206.2</ele>
<time>2024-05-10T12:32:04Z</time>
</trkpt>
<trkpt lat="49.65938178822398" lon="8.98924631997943">
<ele>206</ele>
<time>2024-05-10T12:32:05Z</time>
</trkpt>
<trkpt lat="49.659355133771896" lon="8.989258725196123">
<ele>206</ele>
<time>2024-05-10T12:32:06Z</time>
</trkpt>
<trkpt lat="49.65933225117624" lon="8.989274902269244">
<ele>206</ele>
<time>2024-05-10T12:32:07Z</time>
</trkpt>
<trkpt lat="49.65931314043701" lon="8.989293090999126">
<ele>205.8</ele>
<time>2024-05-10T12:32:08Z</time>
</trkpt>
<trkpt lat="49.65928648598492" lon="8.989317817613482">
<ele>205.8</ele>
<time>2024-05-10T12:32:09Z</time>
</trkpt>
<trkpt lat="49.65925974771381" lon="8.98934363387525">
<ele>205.8</ele>
<time>2024-05-10T12:32:10Z</time>
</trkpt>
<trkpt lat="49.65923309326172" lon="8.989370288327336">
<ele>205.6</ele>
<time>2024-05-10T12:32:11Z</time>
</trkpt>
<trkpt lat="49.65920249931514" lon="8.989393170922995">
<ele>205.6</ele>
<time>2024-05-10T12:32:12Z</time>
</trkpt>
<trkpt lat="49.65917584486306" lon="8.989417981356382">
<ele>205.6</ele>
<time>2024-05-10T12:32:13Z</time>
</trkpt>
<trkpt lat="49.65914533473551" lon="8.989453269168735">
<ele>205.6</ele>
<time>2024-05-10T12:32:14Z</time>
</trkpt>
<trkpt lat="49.65911482460797" lon="8.989486629143357">
<ele>205.6</ele>
<time>2024-05-10T12:32:15Z</time>
</trkpt>
<trkpt lat="49.65908808633685" lon="8.989518145099282">
<ele>205.6</ele>
<time>2024-05-10T12:32:16Z</time>
</trkpt>
<trkpt lat="49.65906520374119" lon="8.989549577236176">
<ele>205.6</ele>
<time>2024-05-10T12:32:17Z</time>
</trkpt>
<trkpt lat="49.65904994867742" lon="8.989576315507293">
<ele>205.6</ele>
<time>2024-05-10T12:32:18Z</time>
</trkpt>
<trkpt lat="49.65903083793819" lon="8.98960204795003">
<ele>205.6</ele>
<time>2024-05-10T12:32:19Z</time>
</trkpt>
<trkpt lat="49.65901181101799" lon="8.989623002707958">
<ele>205.8</ele>
<time>2024-05-10T12:32:20Z</time>
</trkpt>
<trkpt lat="49.65899655595422" lon="8.98963825777173">
<ele>205.8</ele>
<time>2024-05-10T12:32:21Z</time>
</trkpt>
<trkpt lat="49.658981300890446" lon="8.98966021835804">
<ele>205.8</ele>
<time>2024-05-10T12:32:22Z</time>
</trkpt>
<trkpt lat="49.658962190151215" lon="8.989673545584083">
<ele>205.8</ele>
<time>2024-05-10T12:32:23Z</time>
</trkpt>
<trkpt lat="49.65894693508744" lon="8.989689806476235">
<ele>205.8</ele>
<time>2024-05-10T12:32:24Z</time>
</trkpt>
<trkpt lat="49.65893168002367" lon="8.98969835601747">
<ele>205.8</ele>
<time>2024-05-10T12:32:25Z</time>
</trkpt>
<trkpt lat="49.65891265310347" lon="8.989706989377737">
<ele>205.8</ele>
<time>2024-05-10T12:32:26Z</time>
</trkpt>
<trkpt lat="49.6588973980397" lon="8.98971646092832">
<ele>205.8</ele>
<time>2024-05-10T12:32:27Z</time>
</trkpt>
<trkpt lat="49.65888977050781" lon="8.989713611081243">
<ele>205.8</ele>
<time>2024-05-10T12:32:28Z</time>
</trkpt>
<trkpt lat="49.658885914832354" lon="8.989711683243513">
<ele>205.8</ele>
<time>2024-05-10T12:32:29Z</time>
</trkpt>
<trkpt lat="49.658882059156895" lon="8.989706989377737">
<ele>205.8</ele>
<time>2024-05-10T12:32:30Z</time>
</trkpt>
<trkpt lat="49.65887828730047" lon="8.989701205864549">
<ele>205.8</ele>
<time>2024-05-10T12:32:31Z</time>
</trkpt>
<trkpt lat="49.65887065976858" lon="8.989696428179741">
<ele>205.8</ele>
<time>2024-05-10T12:32:32Z</time>
</trkpt>
<trkpt lat="49.65886680409312" lon="8.989689806476235">
<ele>205.8</ele>
<time>2024-05-10T12:32:33Z</time>
</trkpt>
<trkpt lat="49.65885917656123" lon="8.989681173115969">
<ele>205.6</ele>
<time>2024-05-10T12:32:34Z</time>
</trkpt>
<trkpt lat="49.65884777717292" lon="8.989673545584083">
<ele>205.6</ele>
<time>2024-05-10T12:32:35Z</time>
</trkpt>
<trkpt lat="49.658843921497464" lon="8.989671701565385">
<ele>205.4</ele>
<time>2024-05-10T12:32:36Z</time>
</trkpt>
<trkpt lat="49.65884014964104" lon="8.989671701565385">
<ele>205.2</ele>
<time>2024-05-10T12:32:37Z</time>
</trkpt>
<trkpt lat="49.65884014964104" lon="8.989667845889926">
<ele>205.2</ele>
<time>2024-05-10T12:32:38Z</time>
</trkpt>
<trkpt lat="49.65883629396558" lon="8.98966021835804">
<ele>205.2</ele>
<time>2024-05-10T12:32:39Z</time>
</trkpt>
<trkpt lat="49.65883629396558" lon="8.989654518663883">
<ele>205.4</ele>
<time>2024-05-10T12:32:40Z</time>
</trkpt>
<trkpt lat="49.65883252210915" lon="8.989649740979075">
<ele>205.4</ele>
<time>2024-05-10T12:32:41Z</time>
</trkpt>
<trkpt lat="49.65882866643369" lon="8.989648818969727">
<ele>205.4</ele>
<time>2024-05-10T12:32:42Z</time>
</trkpt>
<trkpt lat="49.658824894577265" lon="8.989644963294268">
<ele>205.4</ele>
<time>2024-05-10T12:32:44Z</time>
</trkpt>
<trkpt lat="49.658824894577265" lon="8.989643035456538">
<ele>205.4</ele>
<time>2024-05-10T12:32:45Z</time>
</trkpt>
<trkpt lat="49.658824894577265" lon="8.989641107618809">
<ele>205.4</ele>
<time>2024-05-10T12:32:46Z</time>
</trkpt>
<trkpt lat="49.658821038901806" lon="8.98964018560946">
<ele>205.4</ele>
<time>2024-05-10T12:32:48Z</time>
</trkpt>
<trkpt lat="49.658821038901806" lon="8.98963825777173">
<ele>205.4</ele>
<time>2024-05-10T12:32:49Z</time>
</trkpt>
<trkpt lat="49.658821038901806" lon="8.989636413753033">
<ele>205.4</ele>
<time>2024-05-10T12:32:50Z</time>
</trkpt>
<trkpt lat="49.658821038901806" lon="8.989633480086923">
<ele>205.4</ele>
<time>2024-05-10T12:32:51Z</time>
</trkpt>
<trkpt lat="49.65881726704538" lon="8.989627780392766">
<ele>205.4</ele>
<time>2024-05-10T12:32:52Z</time>
</trkpt>
<trkpt lat="49.65881726704538" lon="8.98962208069861">
<ele>205.6</ele>
<time>2024-05-10T12:32:53Z</time>
</trkpt>
<trkpt lat="49.65881341136992" lon="8.989616381004453">
<ele>205.6</ele>
<time>2024-05-10T12:32:54Z</time>
</trkpt>
<trkpt lat="49.65880963951349" lon="8.989611603319645">
<ele>205.6</ele>
<time>2024-05-10T12:32:55Z</time>
</trkpt>
<trkpt lat="49.658805783838034" lon="8.989609675481915">
<ele>205.8</ele>
<time>2024-05-10T12:32:56Z</time>
</trkpt>
<trkpt lat="49.65879815630615" lon="8.989602969959378">
<ele>205.8</ele>
<time>2024-05-10T12:32:57Z</time>
</trkpt>
<trkpt lat="49.65879438444972" lon="8.989595342427492">
<ele>205.8</ele>
<time>2024-05-10T12:32:58Z</time>
</trkpt>
<trkpt lat="49.65879438444972" lon="8.989584865048528">
<ele>205.8</ele>
<time>2024-05-10T12:32:59Z</time>
</trkpt>
<trkpt lat="49.65879438444972" lon="8.989573465660214">
<ele>206</ele>
<time>2024-05-10T12:33:00Z</time>
</trkpt>
<trkpt lat="49.65879438444972" lon="8.98956198245287">
<ele>206</ele>
<time>2024-05-10T12:33:01Z</time>
</trkpt>
<trkpt lat="49.65879438444972" lon="8.989551505073905">
<ele>206</ele>
<time>2024-05-10T12:33:02Z</time>
</trkpt>
<trkpt lat="49.65879815630615" lon="8.989548655226827">
<ele>206</ele>
<time>2024-05-10T12:33:03Z</time>
</trkpt>
<trkpt lat="49.65880201198161" lon="8.98954295553267">
<ele>206.2</ele>
<time>2024-05-10T12:33:04Z</time>
</trkpt>
<trkpt lat="49.65881341136992" lon="8.989538177847862">
<ele>206.2</ele>
<time>2024-05-10T12:33:05Z</time>
</trkpt>
<trkpt lat="49.65881726704538" lon="8.989531472325325">
<ele>206.2</ele>
<time>2024-05-10T12:33:06Z</time>
</trkpt>
<trkpt lat="49.658821038901806" lon="8.989511439576745">
<ele>206.2</ele>
<time>2024-05-10T12:33:07Z</time>
</trkpt>
<trkpt lat="49.658824894577265" lon="8.98950188420713">
<ele>206.2</ele>
<time>2024-05-10T12:33:08Z</time>
</trkpt>
<trkpt lat="49.658824894577265" lon="8.989491406828165">
<ele>206.2</ele>
<time>2024-05-10T12:33:09Z</time>
</trkpt>
<trkpt lat="49.65882866643369" lon="8.98948285728693">
<ele>206.2</ele>
<time>2024-05-10T12:33:10Z</time>
</trkpt>
<trkpt lat="49.658824894577265" lon="8.989478079602122">
<ele>206.2</ele>
<time>2024-05-10T12:33:11Z</time>
</trkpt>
<trkpt lat="49.658824894577265" lon="8.989469446241856">
<ele>206.2</ele>
<time>2024-05-10T12:33:12Z</time>
</trkpt>
<trkpt lat="49.65881341136992" lon="8.989451341331005">
<ele>206.2</ele>
<time>2024-05-10T12:33:13Z</time>
</trkpt>
<trkpt lat="49.65879815630615" lon="8.98942468687892">
<ele>206.2</ele>
<time>2024-05-10T12:33:14Z</time>
</trkpt>
<trkpt lat="49.65877150185406" lon="8.989401804283261">
<ele>206.4</ele>
<time>2024-05-10T12:33:15Z</time>
</trkpt>
<trkpt lat="49.65875239111483" lon="8.989399876445532">
<ele>206.4</ele>
<time>2024-05-10T12:33:16Z</time>
</trkpt>
<trkpt lat="49.65873336419463" lon="8.989399876445532">
<ele>206.4</ele>
<time>2024-05-10T12:33:17Z</time>
</trkpt>
<trkpt lat="49.65871039777994" lon="8.989406581968069">
<ele>206.2</ele>
<time>2024-05-10T12:33:18Z</time>
</trkpt>
<trkpt lat="49.658683743327856" lon="8.989411275833845">
<ele>206.2</ele>
<time>2024-05-10T12:33:19Z</time>
</trkpt>
<trkpt lat="49.65865700505674" lon="8.989415131509304">
<ele>206.2</ele>
<time>2024-05-10T12:33:20Z</time>
</trkpt>
<trkpt lat="49.65863412246108" lon="8.989419909194112">
<ele>206.2</ele>
<time>2024-05-10T12:33:21Z</time>
</trkpt>
<trkpt lat="49.65861123986542" lon="8.989421837031841">
<ele>206.4</ele>
<time>2024-05-10T12:33:22Z</time>
</trkpt>
<trkpt lat="49.65858458541334" lon="8.989415131509304">
<ele>206.4</ele>
<time>2024-05-10T12:33:23Z</time>
</trkpt>
<trkpt lat="49.65856170281768" lon="8.989406581968069">
<ele>206.6</ele>
<time>2024-05-10T12:33:24Z</time>
</trkpt>
<trkpt lat="49.65853496454656" lon="8.989397026598454">
<ele>206.8</ele>
<time>2024-05-10T12:33:25Z</time>
</trkpt>
<trkpt lat="49.65850445441902" lon="8.989383615553379">
<ele>207</ele>
<time>2024-05-10T12:33:26Z</time>
</trkpt>
<trkpt lat="49.6584777161479" lon="8.989370288327336">
<ele>207</ele>
<time>2024-05-10T12:33:27Z</time>
</trkpt>
<trkpt lat="49.658451061695814" lon="8.989356961101294">
<ele>207.2</ele>
<time>2024-05-10T12:33:28Z</time>
</trkpt>
<trkpt lat="49.65842817910016" lon="8.989355033263564">
<ele>207.4</ele>
<time>2024-05-10T12:33:29Z</time>
</trkpt>
<trkpt lat="49.6584052965045" lon="8.989348411560059">
<ele>207.6</ele>
<time>2024-05-10T12:33:30Z</time>
</trkpt>
<trkpt lat="49.65838241390884" lon="8.989337850362062">
<ele>207.8</ele>
<time>2024-05-10T12:33:31Z</time>
</trkpt>
<trkpt lat="49.65836330316961" lon="8.989330222830176">
<ele>208</ele>
<time>2024-05-10T12:33:32Z</time>
</trkpt>
<trkpt lat="49.65834042057395" lon="8.989321673288941">
<ele>208.2</ele>
<time>2024-05-10T12:33:33Z</time>
</trkpt>
<trkpt lat="49.65831753797829" lon="8.989313123747706">
<ele>208.4</ele>
<time>2024-05-10T12:33:34Z</time>
</trkpt>
<trkpt lat="49.658290799707174" lon="8.989299712702632">
<ele>208.4</ele>
<time>2024-05-10T12:33:35Z</time>
</trkpt>
<trkpt lat="49.65826414525509" lon="8.989288313314319">
<ele>208.6</ele>
<time>2024-05-10T12:33:36Z</time>
</trkpt>
<trkpt lat="49.65823740698397" lon="8.989278757944703">
<ele>208.6</ele>
<time>2024-05-10T12:33:37Z</time>
</trkpt>
<trkpt lat="49.658210752531886" lon="8.98926635272801">
<ele>208.8</ele>
<time>2024-05-10T12:33:38Z</time>
</trkpt>
<trkpt lat="49.6581877861172" lon="8.989258725196123">
<ele>208.8</ele>
<time>2024-05-10T12:33:39Z</time>
</trkpt>
<trkpt lat="49.65816490352154" lon="8.989248247817159">
<ele>208.8</ele>
<time>2024-05-10T12:33:40Z</time>
</trkpt>
<trkpt lat="49.65814202092588" lon="8.989238692447543">
<ele>208.8</ele>
<time>2024-05-10T12:33:41Z</time>
</trkpt>
<trkpt lat="49.65811913833022" lon="8.989228215068579">
<ele>209</ele>
<time>2024-05-10T12:33:42Z</time>
</trkpt>
<trkpt lat="49.65809625573456" lon="8.989221509546041">
<ele>209</ele>
<time>2024-05-10T12:33:43Z</time>
</trkpt>
<trkpt lat="49.658073373138905" lon="8.989214887842536">
<ele>209</ele>
<time>2024-05-10T12:33:44Z</time>
</trkpt>
<trkpt lat="49.65804671868682" lon="8.989210110157728">
<ele>209</ele>
<time>2024-05-10T12:33:45Z</time>
</trkpt>
<trkpt lat="49.6580199804157" lon="8.989203404635191">
<ele>209</ele>
<time>2024-05-10T12:33:46Z</time>
</trkpt>
<trkpt lat="49.65799709782005" lon="8.989196699112654">
<ele>209.2</ele>
<time>2024-05-10T12:33:47Z</time>
</trkpt>
<trkpt lat="49.657970359548926" lon="8.989192927256227">
<ele>209.2</ele>
<time>2024-05-10T12:33:48Z</time>
</trkpt>
<trkpt lat="49.65794370509684" lon="8.989192005246878">
<ele>209.4</ele>
<time>2024-05-10T12:33:49Z</time>
</trkpt>
<trkpt lat="49.65792082250118" lon="8.989192927256227">
<ele>209.4</ele>
<time>2024-05-10T12:33:50Z</time>
</trkpt>
<trkpt lat="49.657894084230065" lon="8.98920533247292">
<ele>209.4</ele>
<time>2024-05-10T12:33:51Z</time>
</trkpt>
<trkpt lat="49.65787120163441" lon="8.989219665527344">
<ele>209.6</ele>
<time>2024-05-10T12:33:52Z</time>
</trkpt>
<trkpt lat="49.65784446336329" lon="8.989239614456892">
<ele>209.8</ele>
<time>2024-05-10T12:33:53Z</time>
</trkpt>
<trkpt lat="49.6578178089112" lon="8.98926543071866">
<ele>210</ele>
<time>2024-05-10T12:33:54Z</time>
</trkpt>
<trkpt lat="49.65779107064009" lon="8.989292085170746">
<ele>210.2</ele>
<time>2024-05-10T12:33:55Z</time>
</trkpt>
<trkpt lat="49.65776818804443" lon="8.989317817613482">
<ele>210.4</ele>
<time>2024-05-10T12:33:56Z</time>
</trkpt>
<trkpt lat="49.65774153359234" lon="8.98934648372233">
<ele>210.6</ele>
<time>2024-05-10T12:33:57Z</time>
</trkpt>
<trkpt lat="49.65772242285311" lon="8.989377915859222">
<ele>210.8</ele>
<time>2024-05-10T12:33:58Z</time>
</trkpt>
<trkpt lat="49.657699540257454" lon="8.989406581968069">
<ele>211.2</ele>
<time>2024-05-10T12:33:59Z</time>
</trkpt>
<trkpt lat="49.65767280198634" lon="8.989437092095613">
<ele>211.6</ele>
<time>2024-05-10T12:34:00Z</time>
</trkpt>
<trkpt lat="49.65764991939068" lon="8.989468524232507">
<ele>211.8</ele>
<time>2024-05-10T12:34:01Z</time>
</trkpt>
<trkpt lat="49.65762326493859" lon="8.989498112350702">
<ele>212.2</ele>
<time>2024-05-10T12:34:02Z</time>
</trkpt>
<trkpt lat="49.65760415419936" lon="8.989526694640517">
<ele>212.6</ele>
<time>2024-05-10T12:34:03Z</time>
</trkpt>
<trkpt lat="49.65757749974728" lon="8.989556282758713">
<ele>213</ele>
<time>2024-05-10T12:34:04Z</time>
</trkpt>
<trkpt lat="49.65755461715162" lon="8.989588720723987">
<ele>213.4</ele>
<time>2024-05-10T12:34:05Z</time>
</trkpt>
<trkpt lat="49.6575278788805" lon="8.98961822502315">
<ele>213.8</ele>
<time>2024-05-10T12:34:06Z</time>
</trkpt>
<trkpt lat="49.6574935130775" lon="8.989646891131997">
<ele>214.2</ele>
<time>2024-05-10T12:34:07Z</time>
</trkpt>
<trkpt lat="49.65746300294995" lon="8.989669773727655">
<ele>214.6</ele>
<time>2024-05-10T12:34:08Z</time>
</trkpt>
<trkpt lat="49.65743634849787" lon="8.989691734313965">
<ele>215</ele>
<time>2024-05-10T12:34:09Z</time>
</trkpt>
<trkpt lat="49.65740583837032" lon="8.98971646092832">
<ele>215.2</ele>
<time>2024-05-10T12:34:10Z</time>
</trkpt>
<trkpt lat="49.657379100099206" lon="8.989741271361709">
<ele>215.6</ele>
<time>2024-05-10T12:34:11Z</time>
</trkpt>
<trkpt lat="49.65734858997166" lon="8.989769853651524">
<ele>216</ele>
<time>2024-05-10T12:34:12Z</time>
</trkpt>
<trkpt lat="49.657321851700544" lon="8.989793742075562">
<ele>216.2</ele>
<time>2024-05-10T12:34:13Z</time>
</trkpt>
<trkpt lat="49.657291341573" lon="8.989814696833491">
<ele>216.4</ele>
<time>2024-05-10T12:34:14Z</time>
</trkpt>
<trkpt lat="49.657260831445456" lon="8.98983858525753">
<ele>216.8</ele>
<time>2024-05-10T12:34:15Z</time>
</trkpt>
<trkpt lat="49.65723032131791" lon="8.989859540015459">
<ele>217</ele>
<time>2024-05-10T12:34:16Z</time>
</trkpt>
<trkpt lat="49.65719981119037" lon="8.989881500601768">
<ele>217.2</ele>
<time>2024-05-10T12:34:17Z</time>
</trkpt>
<trkpt lat="49.657161673530936" lon="8.989905305206776">
<ele>217.4</ele>
<time>2024-05-10T12:34:18Z</time>
</trkpt>
<trkpt lat="49.65712730772793" lon="8.989928187802434">
<ele>217.6</ele>
<time>2024-05-10T12:34:19Z</time>
</trkpt>
<trkpt lat="49.65709302574396" lon="8.989948220551014">
<ele>217.8</ele>
<time>2024-05-10T12:34:20Z</time>
</trkpt>
<trkpt lat="49.65705488808453" lon="8.989968253299594">
<ele>217.8</ele>
<time>2024-05-10T12:34:21Z</time>
</trkpt>
<trkpt lat="49.6570167504251" lon="8.989988286048174">
<ele>218</ele>
<time>2024-05-10T12:34:22Z</time>
</trkpt>
<trkpt lat="49.65697852894664" lon="8.990001613274217">
<ele>218</ele>
<time>2024-05-10T12:34:23Z</time>
</trkpt>
<trkpt lat="49.65694039128721" lon="8.99001787416637">
<ele>218.2</ele>
<time>2024-05-10T12:34:24Z</time>
</trkpt>
<trkpt lat="49.65690225362778" lon="8.990036901086569">
<ele>218.2</ele>
<time>2024-05-10T12:34:25Z</time>
</trkpt>
<trkpt lat="49.65686411596835" lon="8.99005793966353">
<ele>218.4</ele>
<time>2024-05-10T12:34:26Z</time>
</trkpt>
<trkpt lat="49.656829833984375" lon="8.990084594115615">
<ele>218.4</ele>
<time>2024-05-10T12:34:27Z</time>
</trkpt>
<trkpt lat="49.65679161250591" lon="8.990110326558352">
<ele>218.4</ele>
<time>2024-05-10T12:34:28Z</time>
</trkpt>
<trkpt lat="49.656749702990055" lon="8.99013320915401">
<ele>218.6</ele>
<time>2024-05-10T12:34:29Z</time>
</trkpt>
<trkpt lat="49.656711565330625" lon="8.990158019587398">
<ele>218.6</ele>
<time>2024-05-10T12:34:30Z</time>
</trkpt>
<trkpt lat="49.656669571995735" lon="8.990184757858515">
<ele>218.6</ele>
<time>2024-05-10T12:34:31Z</time>
</trkpt>
<trkpt lat="49.656631434336305" lon="8.99021334014833">
<ele>218.8</ele>
<time>2024-05-10T12:34:32Z</time>
</trkpt>
<trkpt lat="49.65658566914499" lon="8.990244856104255">
<ele>218.8</ele>
<time>2024-05-10T12:34:33Z</time>
</trkpt>
<trkpt lat="49.65654753148556" lon="8.990280143916607">
<ele>218.8</ele>
<time>2024-05-10T12:34:34Z</time>
</trkpt>
<trkpt lat="49.65650553815067" lon="8.990316353738308">
<ele>218.8</ele>
<time>2024-05-10T12:34:35Z</time>
</trkpt>
<trkpt lat="49.65646354481578" lon="8.99035164155066">
<ele>218.8</ele>
<time>2024-05-10T12:34:36Z</time>
</trkpt>
<trkpt lat="49.65642163529992" lon="8.99038977921009">
<ele>218.8</ele>
<time>2024-05-10T12:34:37Z</time>
</trkpt>
<trkpt lat="49.65637964196503" lon="8.990427916869521">
<ele>218.8</ele>
<time>2024-05-10T12:34:38Z</time>
</trkpt>
<trkpt lat="49.656337732449174" lon="8.990461276844144">
<ele>218.8</ele>
<time>2024-05-10T12:34:39Z</time>
</trkpt>
<trkpt lat="49.656295739114285" lon="8.990491786971688">
<ele>218.6</ele>
<time>2024-05-10T12:34:40Z</time>
</trkpt>
<trkpt lat="49.656253745779395" lon="8.990521375089884">
<ele>218.6</ele>
<time>2024-05-10T12:34:41Z</time>
</trkpt>
<trkpt lat="49.65621183626354" lon="8.990546185523272">
<ele>218.4</ele>
<time>2024-05-10T12:34:42Z</time>
</trkpt>
<trkpt lat="49.65616984292865" lon="8.990572923794389">
<ele>218.4</ele>
<time>2024-05-10T12:34:43Z</time>
</trkpt>
<trkpt lat="49.65612784959376" lon="8.990598656237125">
<ele>218.4</ele>
<time>2024-05-10T12:34:44Z</time>
</trkpt>
<trkpt lat="49.65608208440244" lon="8.990625310689211">
<ele>218.4</ele>
<time>2024-05-10T12:34:45Z</time>
</trkpt>
<trkpt lat="49.656040174886584" lon="8.990652970969677">
<ele>218.4</ele>
<time>2024-05-10T12:34:46Z</time>
</trkpt>
<trkpt lat="49.655998181551695" lon="8.990684486925602">
<ele>218.4</ele>
<time>2024-05-10T12:34:47Z</time>
</trkpt>
<trkpt lat="49.655956188216805" lon="8.990714997053146">
<ele>218.6</ele>
<time>2024-05-10T12:34:48Z</time>
</trkpt>
<trkpt lat="49.65591042302549" lon="8.990744585171342">
<ele>218.6</ele>
<time>2024-05-10T12:34:49Z</time>
</trkpt>
<trkpt lat="49.65586851350963" lon="8.990776939317584">
<ele>218.8</ele>
<time>2024-05-10T12:34:50Z</time>
</trkpt>
<trkpt lat="49.65582652017474" lon="8.99080652743578">
<ele>218.8</ele>
<time>2024-05-10T12:34:51Z</time>
</trkpt>
<trkpt lat="49.65578452683985" lon="8.990838043391705">
<ele>218.8</ele>
<time>2024-05-10T12:34:52Z</time>
</trkpt>
<trkpt lat="49.655738761648536" lon="8.990868553519249">
<ele>218.8</ele>
<time>2024-05-10T12:34:53Z</time>
</trkpt>
<trkpt lat="49.65569685213268" lon="8.990896213799715">
<ele>218.8</ele>
<time>2024-05-10T12:34:54Z</time>
</trkpt>
<trkpt lat="49.65565485879779" lon="8.990921946242452">
<ele>218.6</ele>
<time>2024-05-10T12:34:55Z</time>
</trkpt>
<trkpt lat="49.65561672113836" lon="8.990949606522918">
<ele>218.6</ele>
<time>2024-05-10T12:34:56Z</time>
</trkpt>
<trkpt lat="49.65557472780347" lon="8.990980116650462">
<ele>218.6</ele>
<time>2024-05-10T12:34:57Z</time>
</trkpt>
<trkpt lat="49.65553281828761" lon="8.991009704768658">
<ele>218.6</ele>
<time>2024-05-10T12:34:58Z</time>
</trkpt>
<trkpt lat="49.65549468062818" lon="8.991036359220743">
<ele>218.4</ele>
<time>2024-05-10T12:34:59Z</time>
</trkpt>
<trkpt lat="49.65545654296875" lon="8.99106502532959">
<ele>218.4</ele>
<time>2024-05-10T12:35:00Z</time>
</trkpt>
<trkpt lat="49.65542217716575" lon="8.991093607619405">
<ele>218.4</ele>
<time>2024-05-10T12:35:01Z</time>
</trkpt>
<trkpt lat="49.65538781136274" lon="8.99112126789987">
<ele>218.4</ele>
<time>2024-05-10T12:35:02Z</time>
</trkpt>
<trkpt lat="49.65535352937877" lon="8.991151778027415">
<ele>218.2</ele>
<time>2024-05-10T12:35:03Z</time>
</trkpt>
<trkpt lat="49.65531539171934" lon="8.991176588460803">
<ele>218.2</ele>
<time>2024-05-10T12:35:04Z</time>
</trkpt>
<trkpt lat="49.65528102591634" lon="8.991189915686846">
<ele>218</ele>
<time>2024-05-10T12:35:05Z</time>
</trkpt>
<trkpt lat="49.65524288825691" lon="8.99119846522808">
<ele>218</ele>
<time>2024-05-10T12:35:06Z</time>
</trkpt>
<trkpt lat="49.65520475059748" lon="8.991191843524575">
<ele>217.8</ele>
<time>2024-05-10T12:35:07Z</time>
</trkpt>
<trkpt lat="49.65517424046993" lon="8.991171810775995">
<ele>217.6</ele>
<time>2024-05-10T12:35:08Z</time>
</trkpt>
<trkpt lat="49.655151357874274" lon="8.991138450801373">
<ele>217.6</ele>
<time>2024-05-10T12:35:09Z</time>
</trkpt>
<trkpt lat="49.655128475278616" lon="8.991089751943946">
<ele>217.4</ele>
<time>2024-05-10T12:35:10Z</time>
</trkpt>
<trkpt lat="49.65511322021485" lon="8.991035437211394">
<ele>217.2</ele>
<time>2024-05-10T12:35:11Z</time>
</trkpt>
<trkpt lat="49.6551017370075" lon="8.990978188812733">
<ele>217</ele>
<time>2024-05-10T12:35:12Z</time>
</trkpt>
<trkpt lat="49.65508648194373" lon="8.99092479608953">
<ele>216.8</ele>
<time>2024-05-10T12:35:13Z</time>
</trkpt>
<trkpt lat="49.65507499873638" lon="8.990878025069833">
<ele>216.8</ele>
<time>2024-05-10T12:35:14Z</time>
</trkpt>
<trkpt lat="49.655048344284296" lon="8.990833265706897">
<ele>216.6</ele>
<time>2024-05-10T12:35:15Z</time>
</trkpt>
<trkpt lat="49.65502160601318" lon="8.990817004814744">
<ele>216.6</ele>
<time>2024-05-10T12:35:16Z</time>
</trkpt>
<trkpt lat="49.65499495156109" lon="8.990821782499552">
<ele>216.6</ele>
<time>2024-05-10T12:35:17Z</time>
</trkpt>
<trkpt lat="49.65496058575809" lon="8.990841815248132">
<ele>216.8</ele>
<time>2024-05-10T12:35:18Z</time>
</trkpt>
<trkpt lat="49.65492621995509" lon="8.990861847996712">
<ele>216.8</ele>
<time>2024-05-10T12:35:19Z</time>
</trkpt>
<trkpt lat="49.654888082295656" lon="8.990890430286527">
<ele>216.8</ele>
<time>2024-05-10T12:35:20Z</time>
</trkpt>
<trkpt lat="49.654849944636226" lon="8.990920018404722">
<ele>216.8</ele>
<time>2024-05-10T12:35:21Z</time>
</trkpt>
<trkpt lat="49.654811806976795" lon="8.99094482883811">
<ele>216.8</ele>
<time>2024-05-10T12:35:22Z</time>
</trkpt>
<trkpt lat="49.65476989746094" lon="8.990968633443117">
<ele>216.6</ele>
<time>2024-05-10T12:35:23Z</time>
</trkpt>
<trkpt lat="49.654731675982475" lon="8.990988666191697">
<ele>216.6</ele>
<time>2024-05-10T12:35:24Z</time>
</trkpt>
<trkpt lat="49.654697393998504" lon="8.991006771102548">
<ele>216.6</ele>
<time>2024-05-10T12:35:25Z</time>
</trkpt>
<trkpt lat="49.6546630281955" lon="8.99102495983243">
<ele>216.4</ele>
<time>2024-05-10T12:35:26Z</time>
</trkpt>
<trkpt lat="49.65462874621153" lon="8.991040214896202">
<ele>216.4</ele>
<time>2024-05-10T12:35:27Z</time>
</trkpt>
<trkpt lat="49.654594380408525" lon="8.991049686446786">
<ele>216.2</ele>
<time>2024-05-10T12:35:28Z</time>
</trkpt>
<trkpt lat="49.65456001460552" lon="8.991051614284515">
<ele>216.2</ele>
<time>2024-05-10T12:35:29Z</time>
</trkpt>
<trkpt lat="49.65452950447798" lon="8.991046836599708">
<ele>216</ele>
<time>2024-05-10T12:35:30Z</time>
</trkpt>
<trkpt lat="49.654495222494006" lon="8.991041136905551">
<ele>216</ele>
<time>2024-05-10T12:35:31Z</time>
</trkpt>
<trkpt lat="49.654460856691" lon="8.991036359220743">
<ele>215.8</ele>
<time>2024-05-10T12:35:32Z</time>
</trkpt>
<trkpt lat="49.65442657470703" lon="8.991026803851128">
<ele>215.6</ele>
<time>2024-05-10T12:35:33Z</time>
</trkpt>
<trkpt lat="49.654399836435914" lon="8.991020182147622">
<ele>215.6</ele>
<time>2024-05-10T12:35:34Z</time>
</trkpt>
<trkpt lat="49.6543730981648" lon="8.991015404462814">
<ele>215.6</ele>
<time>2024-05-10T12:35:35Z</time>
</trkpt>
<trkpt lat="49.65434644371271" lon="8.991013476625085">
<ele>215.4</ele>
<time>2024-05-10T12:35:36Z</time>
</trkpt>
<trkpt lat="49.65432356111705" lon="8.991020182147622">
<ele>215.6</ele>
<time>2024-05-10T12:35:37Z</time>
</trkpt>
<trkpt lat="49.65429305098951" lon="8.991022109985352">
<ele>215.6</ele>
<time>2024-05-10T12:35:38Z</time>
</trkpt>
<trkpt lat="49.654258685186505" lon="8.991029737517238">
<ele>215.8</ele>
<time>2024-05-10T12:35:39Z</time>
</trkpt>
<trkpt lat="49.65422817505896" lon="8.99104306474328">
<ele>215.8</ele>
<time>2024-05-10T12:35:40Z</time>
</trkpt>
<trkpt lat="49.65419380925596" lon="8.991060247644782">
<ele>216</ele>
<time>2024-05-10T12:35:41Z</time>
</trkpt>
<trkpt lat="49.65416329912841" lon="8.991076424717903">
<ele>216</ele>
<time>2024-05-10T12:35:42Z</time>
</trkpt>
<trkpt lat="49.65413278900087" lon="8.991093607619405">
<ele>216</ele>
<time>2024-05-10T12:35:43Z</time>
</trkpt>
<trkpt lat="49.6540985070169" lon="8.991109784692526">
<ele>216</ele>
<time>2024-05-10T12:35:44Z</time>
</trkpt>
<trkpt lat="49.65406791307032" lon="8.991126967594028">
<ele>216</ele>
<time>2024-05-10T12:35:45Z</time>
</trkpt>
<trkpt lat="49.65404125861824" lon="8.991147000342607">
<ele>216</ele>
<time>2024-05-10T12:35:46Z</time>
</trkpt>
<trkpt lat="49.65401074849069" lon="8.99116133339703">
<ele>216</ele>
<time>2024-05-10T12:35:47Z</time>
</trkpt>
<trkpt lat="49.653984010219574" lon="8.991169882938266">
<ele>216</ele>
<time>2024-05-10T12:35:48Z</time>
</trkpt>
<trkpt lat="49.65395735576749" lon="8.99118036031723">
<ele>216</ele>
<time>2024-05-10T12:35:49Z</time>
</trkpt>
<trkpt lat="49.65393447317183" lon="8.99119846522808">
<ele>216</ele>
<time>2024-05-10T12:35:50Z</time>
</trkpt>
<trkpt lat="49.65391159057617" lon="8.991214726120234">
<ele>215.8</ele>
<time>2024-05-10T12:35:51Z</time>
</trkpt>
<trkpt lat="49.653884852305055" lon="8.991228053346276">
<ele>215.8</ele>
<time>2024-05-10T12:35:52Z</time>
</trkpt>
<trkpt lat="49.65385434217751" lon="8.991241380572319">
<ele>215.8</ele>
<time>2024-05-10T12:35:53Z</time>
</trkpt>
<trkpt lat="49.653823832049966" lon="8.991254791617393">
<ele>215.6</ele>
<time>2024-05-10T12:35:54Z</time>
</trkpt>
<trkpt lat="49.65379709377885" lon="8.991272896528244">
<ele>215.6</ele>
<time>2024-05-10T12:35:55Z</time>
</trkpt>
<trkpt lat="49.65377806685865" lon="8.99129862897098">
<ele>215.8</ele>
<time>2024-05-10T12:35:56Z</time>
</trkpt>
<trkpt lat="49.65375132858753" lon="8.991316733881831">
<ele>215.8</ele>
<time>2024-05-10T12:35:57Z</time>
</trkpt>
<trkpt lat="49.65372081845999" lon="8.991336766630411">
<ele>215.8</ele>
<time>2024-05-10T12:35:58Z</time>
</trkpt>
<trkpt lat="49.65369030833244" lon="8.991356799378991">
<ele>215.8</ele>
<time>2024-05-10T12:35:59Z</time>
</trkpt>
<trkpt lat="49.65365594252944" lon="8.991381609812379">
<ele>215.6</ele>
<time>2024-05-10T12:36:00Z</time>
</trkpt>
<trkpt lat="49.65362166054547" lon="8.99139971472323">
<ele>215.4</ele>
<time>2024-05-10T12:36:01Z</time>
</trkpt>
<trkpt lat="49.65358352288604" lon="8.991423603147268">
<ele>215.2</ele>
<time>2024-05-10T12:36:02Z</time>
</trkpt>
<trkpt lat="49.65353390201926" lon="8.991446485742927">
<ele>215.2</ele>
<time>2024-05-10T12:36:03Z</time>
</trkpt>
<trkpt lat="49.65348428115249" lon="8.991466518491507">
<ele>215</ele>
<time>2024-05-10T12:36:04Z</time>
</trkpt>
<trkpt lat="49.65343088842928" lon="8.99147791787982">
<ele>214.8</ele>
<time>2024-05-10T12:36:05Z</time>
</trkpt>
<trkpt lat="49.65337364003062" lon="8.991488395258784">
<ele>214.8</ele>
<time>2024-05-10T12:36:06Z</time>
</trkpt>
<trkpt lat="49.653312619775534" lon="8.991504656150937">
<ele>214.6</ele>
<time>2024-05-10T12:36:07Z</time>
</trkpt>
<trkpt lat="49.653255455195904" lon="8.99151991121471">
<ele>214.6</ele>
<time>2024-05-10T12:36:08Z</time>
</trkpt>
<trkpt lat="49.65319435112178" lon="8.991537094116211">
<ele>214.6</ele>
<time>2024-05-10T12:36:09Z</time>
</trkpt>
<trkpt lat="49.65313718654215" lon="8.991555199027061">
<ele>214.4</ele>
<time>2024-05-10T12:36:10Z</time>
</trkpt>
<trkpt lat="49.653076166287065" lon="8.991569448262453">
<ele>214.2</ele>
<time>2024-05-10T12:36:11Z</time>
</trkpt>
<trkpt lat="49.653015062212944" lon="8.991581853479147">
<ele>214.2</ele>
<time>2024-05-10T12:36:12Z</time>
</trkpt>
<trkpt lat="49.65295027010143" lon="8.991588559001684">
<ele>214</ele>
<time>2024-05-10T12:36:13Z</time>
</trkpt>
<trkpt lat="49.65288924984634" lon="8.991586631163955">
<ele>213.8</ele>
<time>2024-05-10T12:36:14Z</time>
</trkpt>
<trkpt lat="49.65282437391579" lon="8.991575231775641">
<ele>213.6</ele>
<time>2024-05-10T12:36:15Z</time>
</trkpt>
<trkpt lat="49.6527633536607" lon="8.99155612103641">
<ele>213.4</ele>
<time>2024-05-10T12:36:16Z</time>
</trkpt>
<trkpt lat="49.65270610526204" lon="8.991528460755944">
<ele>213.4</ele>
<time>2024-05-10T12:36:17Z</time>
</trkpt>
<trkpt lat="49.65264885686338" lon="8.991495100781322">
<ele>213.2</ele>
<time>2024-05-10T12:36:18Z</time>
</trkpt>
<trkpt lat="49.65259931981563" lon="8.99145788513124">
<ele>213.2</ele>
<time>2024-05-10T12:36:19Z</time>
</trkpt>
<trkpt lat="49.65255355462432" lon="8.991414969787002">
<ele>213</ele>
<time>2024-05-10T12:36:20Z</time>
</trkpt>
<trkpt lat="49.65251918882131" lon="8.991363504901528">
<ele>213</ele>
<time>2024-05-10T12:36:21Z</time>
</trkpt>
<trkpt lat="49.652500078082085" lon="8.991306256502867">
<ele>213</ele>
<time>2024-05-10T12:36:22Z</time>
</trkpt>
<trkpt lat="49.65248867869377" lon="8.991250013932586">
<ele>213</ele>
<time>2024-05-10T12:36:23Z</time>
</trkpt>
<trkpt lat="49.65248482301831" lon="8.991189915686846">
<ele>213.2</ele>
<time>2024-05-10T12:36:24Z</time>
</trkpt>
<trkpt lat="49.65248867869377" lon="8.991136522963643">
<ele>213.2</ele>
<time>2024-05-10T12:36:25Z</time>
</trkpt>
<trkpt lat="49.65249630622566" lon="8.99108313024044">
<ele>213</ele>
<time>2024-05-10T12:36:26Z</time>
</trkpt>
<trkpt lat="49.6524924505502" lon="8.99104306474328">
<ele>213</ele>
<time>2024-05-10T12:36:27Z</time>
</trkpt>
<trkpt lat="49.652477195486426" lon="8.991009704768658">
<ele>213</ele>
<time>2024-05-10T12:36:28Z</time>
</trkpt>
<trkpt lat="49.65245816856623" lon="8.990988666191697">
<ele>213.2</ele>
<time>2024-05-10T12:36:29Z</time>
</trkpt>
<trkpt lat="49.65243143029511" lon="8.99098296649754">
<ele>213.4</ele>
<time>2024-05-10T12:36:30Z</time>
</trkpt>
<trkpt lat="49.652404775843024" lon="8.99098296649754">
<ele>213.6</ele>
<time>2024-05-10T12:36:31Z</time>
</trkpt>
<trkpt lat="49.65237041004002" lon="8.990989672020078">
<ele>214</ele>
<time>2024-05-10T12:36:32Z</time>
</trkpt>
<trkpt lat="49.65233604423702" lon="8.990995371714234">
<ele>214.4</ele>
<time>2024-05-10T12:36:33Z</time>
</trkpt>
<trkpt lat="49.65229790657759" lon="8.990995371714234">
<ele>214.6</ele>
<time>2024-05-10T12:36:34Z</time>
</trkpt>
<trkpt lat="49.65225976891816" lon="8.990998221561313">
<ele>214.8</ele>
<time>2024-05-10T12:36:35Z</time>
</trkpt>
<trkpt lat="49.6522178594023" lon="8.990998221561313">
<ele>215</ele>
<time>2024-05-10T12:36:36Z</time>
</trkpt>
<trkpt lat="49.65217201039195" lon="8.990993443876505">
<ele>215.2</ele>
<time>2024-05-10T12:36:37Z</time>
</trkpt>
<trkpt lat="49.652126245200634" lon="8.990989672020078">
<ele>215.4</ele>
<time>2024-05-10T12:36:38Z</time>
</trkpt>
<trkpt lat="49.65208048000932" lon="8.990986822173">
<ele>215.4</ele>
<time>2024-05-10T12:36:39Z</time>
</trkpt>
<trkpt lat="49.652034714818" lon="8.990986822173">
<ele>215.6</ele>
<time>2024-05-10T12:36:40Z</time>
</trkpt>
<trkpt lat="49.65198894962669" lon="8.990986822173">
<ele>215.6</ele>
<time>2024-05-10T12:36:41Z</time>
</trkpt>
<trkpt lat="49.65194318443537" lon="8.990989672020078">
<ele>215.6</ele>
<time>2024-05-10T12:36:42Z</time>
</trkpt>
<trkpt lat="49.65189356356859" lon="8.990991516038775">
<ele>215.6</ele>
<time>2024-05-10T12:36:43Z</time>
</trkpt>
<trkpt lat="49.651847798377275" lon="8.990991516038775">
<ele>215.6</ele>
<time>2024-05-10T12:36:44Z</time>
</trkpt>
<trkpt lat="49.65180203318596" lon="8.990991516038775">
<ele>215.6</ele>
<time>2024-05-10T12:36:45Z</time>
</trkpt>
<trkpt lat="49.65176003985107" lon="8.990993443876505">
<ele>215.8</ele>
<time>2024-05-10T12:36:46Z</time>
</trkpt>
<trkpt lat="49.65171813033521" lon="8.990993443876505">
<ele>215.8</ele>
<time>2024-05-10T12:36:47Z</time>
</trkpt>
<trkpt lat="49.65167999267578" lon="8.990993443876505">
<ele>215.8</ele>
<time>2024-05-10T12:36:48Z</time>
</trkpt>
<trkpt lat="49.65163799934089" lon="8.990995371714234">
<ele>215.8</ele>
<time>2024-05-10T12:36:49Z</time>
</trkpt>
<trkpt lat="49.65159986168146" lon="8.990998221561313">
<ele>215.8</ele>
<time>2024-05-10T12:36:50Z</time>
</trkpt>
<trkpt lat="49.65156172402203" lon="8.991000149399042">
<ele>215.8</ele>
<time>2024-05-10T12:36:51Z</time>
</trkpt>
<trkpt lat="49.65151973068714" lon="8.990995371714234">
<ele>215.8</ele>
<time>2024-05-10T12:36:52Z</time>
</trkpt>
<trkpt lat="49.651473965495825" lon="8.990991516038775">
<ele>215.8</ele>
<time>2024-05-10T12:36:53Z</time>
</trkpt>
<trkpt lat="49.651435827836394" lon="8.990986822173">
<ele>215.8</ele>
<time>2024-05-10T12:36:54Z</time>
</trkpt>
<trkpt lat="49.651393834501505" lon="8.99098296649754">
<ele>216</ele>
<time>2024-05-10T12:36:55Z</time>
</trkpt>
<trkpt lat="49.65135955251753" lon="8.990982044488192">
<ele>216</ele>
<time>2024-05-10T12:36:56Z</time>
</trkpt>
<trkpt lat="49.65132133103907" lon="8.990978188812733">
<ele>215.8</ele>
<time>2024-05-10T12:36:57Z</time>
</trkpt>
<trkpt lat="49.6512870490551" lon="8.990975338965654">
<ele>215.8</ele>
<time>2024-05-10T12:36:58Z</time>
</trkpt>
<trkpt lat="49.65124891139567" lon="8.990971483290195">
<ele>216</ele>
<time>2024-05-10T12:36:59Z</time>
</trkpt>
<trkpt lat="49.651218401268125" lon="8.990968633443117">
<ele>215.8</ele>
<time>2024-05-10T12:37:00Z</time>
</trkpt>
<trkpt lat="49.65119166299701" lon="8.99096678942442">
<ele>215.8</ele>
<time>2024-05-10T12:37:01Z</time>
</trkpt>
<trkpt lat="49.65116115286946" lon="8.99096486158669">
<ele>215.6</ele>
<time>2024-05-10T12:37:02Z</time>
</trkpt>
<trkpt lat="49.651134414598346" lon="8.990960083901882">
<ele>215.6</ele>
<time>2024-05-10T12:37:03Z</time>
</trkpt>
<trkpt lat="49.6511039044708" lon="8.990951534360647">
<ele>215.4</ele>
<time>2024-05-10T12:37:04Z</time>
</trkpt>
<trkpt lat="49.65107339434326" lon="8.99094290100038">
<ele>215.4</ele>
<time>2024-05-10T12:37:05Z</time>
</trkpt>
<trkpt lat="49.65104673989117" lon="8.990933345630765">
<ele>215.2</ele>
<time>2024-05-10T12:37:06Z</time>
</trkpt>
<trkpt lat="49.65101622976363" lon="8.99092672392726">
<ele>215.2</ele>
<time>2024-05-10T12:37:07Z</time>
</trkpt>
<trkpt lat="49.650981863960624" lon="8.990916246548295">
<ele>215</ele>
<time>2024-05-10T12:37:08Z</time>
</trkpt>
<trkpt lat="49.65095135383308" lon="8.99090283550322">
<ele>215</ele>
<time>2024-05-10T12:37:09Z</time>
</trkpt>
<trkpt lat="49.65091698803008" lon="8.99088473059237">
<ele>215</ele>
<time>2024-05-10T12:37:10Z</time>
</trkpt>
<trkpt lat="49.65088647790253" lon="8.990869475528598">
<ele>214.8</ele>
<time>2024-05-10T12:37:11Z</time>
</trkpt>
<trkpt lat="49.65085219591856" lon="8.990858076140285">
<ele>214.8</ele>
<time>2024-05-10T12:37:12Z</time>
</trkpt>
<trkpt lat="49.650821685791016" lon="8.990851370617747">
<ele>214.8</ele>
<time>2024-05-10T12:37:13Z</time>
</trkpt>
<trkpt lat="49.65079109184444" lon="8.990851370617747">
<ele>214.8</ele>
<time>2024-05-10T12:37:14Z</time>
</trkpt>
<trkpt lat="49.65075680986047" lon="8.990855142474174">
<ele>214.8</ele>
<time>2024-05-10T12:37:15Z</time>
</trkpt>
<trkpt lat="49.65072629973292" lon="8.990868553519249">
<ele>214.8</ele>
<time>2024-05-10T12:37:16Z</time>
</trkpt>
<trkpt lat="49.65068816207349" lon="8.990877103060484">
<ele>214.8</ele>
<time>2024-05-10T12:37:17Z</time>
</trkpt>
<trkpt lat="49.65065002441406" lon="8.9908866584301">
<ele>215</ele>
<time>2024-05-10T12:37:18Z</time>
</trkpt>
<trkpt lat="49.6506118029356" lon="8.990895207971334">
<ele>215.2</ele>
<time>2024-05-10T12:37:19Z</time>
</trkpt>
<trkpt lat="49.65057366527617" lon="8.990901913493872">
<ele>215.2</ele>
<time>2024-05-10T12:37:20Z</time>
</trkpt>
<trkpt lat="49.65053175576031" lon="8.990909541025758">
<ele>215.4</ele>
<time>2024-05-10T12:37:21Z</time>
</trkpt>
<trkpt lat="49.65049738995731" lon="8.990920018404722">
<ele>215.6</ele>
<time>2024-05-10T12:37:22Z</time>
</trkpt>
<trkpt lat="49.65045539662242" lon="8.99092479608953">
<ele>215.8</ele>
<time>2024-05-10T12:37:23Z</time>
</trkpt>
<trkpt lat="49.65041348710656" lon="8.990928567945957">
<ele>215.8</ele>
<time>2024-05-10T12:37:24Z</time>
</trkpt>
<trkpt lat="49.65037912130356" lon="8.990929573774338">
<ele>216</ele>
<time>2024-05-10T12:37:25Z</time>
</trkpt>
<trkpt lat="49.65034483931959" lon="8.99092672392726">
<ele>216.2</ele>
<time>2024-05-10T12:37:26Z</time>
</trkpt>
<trkpt lat="49.65030670166016" lon="8.990921946242452">
<ele>216.2</ele>
<time>2024-05-10T12:37:27Z</time>
</trkpt>
<trkpt lat="49.650268480181694" lon="8.990920018404722">
<ele>216.2</ele>
<time>2024-05-10T12:37:28Z</time>
</trkpt>
<trkpt lat="49.65023034252226" lon="8.990918090566993">
<ele>216.4</ele>
<time>2024-05-10T12:37:29Z</time>
</trkpt>
<trkpt lat="49.65019220486283" lon="8.990911468863487">
<ele>216.6</ele>
<time>2024-05-10T12:37:30Z</time>
</trkpt>
<trkpt lat="49.650150295346975" lon="8.99090669117868">
<ele>216.8</ele>
<time>2024-05-10T12:37:31Z</time>
</trkpt>
<trkpt lat="49.65011207386851" lon="8.99090283550322">
<ele>217</ele>
<time>2024-05-10T12:37:32Z</time>
</trkpt>
<trkpt lat="49.65007393620908" lon="8.990899985656142">
<ele>217.2</ele>
<time>2024-05-10T12:37:33Z</time>
</trkpt>
<trkpt lat="49.650032026693225" lon="8.990896213799715">
<ele>217.4</ele>
<time>2024-05-10T12:37:34Z</time>
</trkpt>
<trkpt lat="49.649993889033794" lon="8.990895207971334">
<ele>217.6</ele>
<time>2024-05-10T12:37:35Z</time>
</trkpt>
<trkpt lat="49.64995566755533" lon="8.990891436114907">
<ele>217.6</ele>
<time>2024-05-10T12:37:36Z</time>
</trkpt>
<trkpt lat="49.6499175298959" lon="8.99088280275464">
<ele>217.8</ele>
<time>2024-05-10T12:37:37Z</time>
</trkpt>
<trkpt lat="49.64988324791193" lon="8.990875175222754">
<ele>218</ele>
<time>2024-05-10T12:37:38Z</time>
</trkpt>
<trkpt lat="49.6498451102525" lon="8.99086469784379">
<ele>218.2</ele>
<time>2024-05-10T12:37:39Z</time>
</trkpt>
<trkpt lat="49.649814600124955" lon="8.990850448608398">
<ele>218.4</ele>
<time>2024-05-10T12:37:40Z</time>
</trkpt>
<trkpt lat="49.64978023432195" lon="8.990837037563324">
<ele>218.8</ele>
<time>2024-05-10T12:37:41Z</time>
</trkpt>
<trkpt lat="49.64974972419441" lon="8.99082656018436">
<ele>219</ele>
<time>2024-05-10T12:37:42Z</time>
</trkpt>
<trkpt lat="49.64972298592329" lon="8.990817004814744">
<ele>219.4</ele>
<time>2024-05-10T12:37:43Z</time>
</trkpt>
<trkpt lat="49.64970010332763" lon="8.99080459959805">
<ele>219.8</ele>
<time>2024-05-10T12:37:44Z</time>
</trkpt>
<trkpt lat="49.64966582134366" lon="8.990788422524929">
<ele>220.2</ele>
<time>2024-05-10T12:37:45Z</time>
</trkpt>
<trkpt lat="49.64963908307254" lon="8.990770317614079">
<ele>220.6</ele>
<time>2024-05-10T12:37:46Z</time>
</trkpt>
<trkpt lat="49.649612344801426" lon="8.990761684253812">
<ele>221.2</ele>
<time>2024-05-10T12:37:47Z</time>
</trkpt>
<trkpt lat="49.649578062817454" lon="8.990751206874847">
<ele>221.6</ele>
<time>2024-05-10T12:37:48Z</time>
</trkpt>
<trkpt lat="49.64954755268991" lon="8.99074642919004">
<ele>222</ele>
<time>2024-05-10T12:37:49Z</time>
</trkpt>
<trkpt lat="49.64951318688691" lon="8.990739807486534">
<ele>222.4</ele>
<time>2024-05-10T12:37:50Z</time>
</trkpt>
<trkpt lat="49.64948653243482" lon="8.990733101963997">
<ele>222.8</ele>
<time>2024-05-10T12:37:51Z</time>
</trkpt>
<trkpt lat="49.649459794163704" lon="8.990730252116919">
<ele>223.2</ele>
<time>2024-05-10T12:37:52Z</time>
</trkpt>
<trkpt lat="49.649436911568046" lon="8.990731174126267">
<ele>223.6</ele>
<time>2024-05-10T12:37:53Z</time>
</trkpt>
<trkpt lat="49.64941402897239" lon="8.990737879648805">
<ele>224</ele>
<time>2024-05-10T12:37:54Z</time>
</trkpt>
<trkpt lat="49.64939114637673" lon="8.990744585171342">
<ele>224.4</ele>
<time>2024-05-10T12:37:55Z</time>
</trkpt>
<trkpt lat="49.64936826378107" lon="8.990756906569004">
<ele>224.6</ele>
<time>2024-05-10T12:37:56Z</time>
</trkpt>
<trkpt lat="49.64934538118541" lon="8.990761684253812">
<ele>225</ele>
<time>2024-05-10T12:37:57Z</time>
</trkpt>
<trkpt lat="49.64933012612164" lon="8.990776939317584">
<ele>225.2</ele>
<time>2024-05-10T12:37:58Z</time>
</trkpt>
<trkpt lat="49.64930724352598" lon="8.990796972066164">
<ele>225.4</ele>
<time>2024-05-10T12:37:59Z</time>
</trkpt>
<trkpt lat="49.64928436093032" lon="8.990817004814744">
<ele>225.6</ele>
<time>2024-05-10T12:38:00Z</time>
</trkpt>
<trkpt lat="49.64925376698375" lon="8.990843743085861">
<ele>225.6</ele>
<time>2024-05-10T12:38:01Z</time>
</trkpt>
<trkpt lat="49.64922711253166" lon="8.99088280275464">
<ele>225.8</ele>
<time>2024-05-10T12:38:02Z</time>
</trkpt>
<trkpt lat="49.64919660240412" lon="8.990935273468494">
<ele>225.8</ele>
<time>2024-05-10T12:38:03Z</time>
</trkpt>
<trkpt lat="49.64915846474469" lon="8.990989672020078">
<ele>225.8</ele>
<time>2024-05-10T12:38:04Z</time>
</trkpt>
<trkpt lat="49.6491164714098" lon="8.991049686446786">
<ele>225.8</ele>
<time>2024-05-10T12:38:05Z</time>
</trkpt>
<trkpt lat="49.64906685054302" lon="8.991111712530255">
<ele>225.6</ele>
<time>2024-05-10T12:38:06Z</time>
</trkpt>
<trkpt lat="49.64901731349528" lon="8.991171810775995">
<ele>225.4</ele>
<time>2024-05-10T12:38:07Z</time>
</trkpt>
<trkpt lat="49.64896392077208" lon="8.991231909021735">
<ele>225.2</ele>
<time>2024-05-10T12:38:08Z</time>
</trkpt>
<trkpt lat="49.64891044422984" lon="8.991292929276824">
<ele>225</ele>
<time>2024-05-10T12:38:09Z</time>
</trkpt>
<trkpt lat="49.64885327965021" lon="8.991352021694183">
<ele>224.6</ele>
<time>2024-05-10T12:38:10Z</time>
</trkpt>
<trkpt lat="49.64879603125155" lon="8.991410192102194">
<ele>224.4</ele>
<time>2024-05-10T12:38:11Z</time>
</trkpt>
<trkpt lat="49.648746410384774" lon="8.991475068032742">
<ele>224</ele>
<time>2024-05-10T12:38:12Z</time>
</trkpt>
<trkpt lat="49.64869301766157" lon="8.991541787981987">
<ele>223.8</ele>
<time>2024-05-10T12:38:13Z</time>
</trkpt>
<trkpt lat="49.64863962493837" lon="8.991601886227727">
<ele>223.4</ele>
<time>2024-05-10T12:38:14Z</time>
</trkpt>
<trkpt lat="49.648590087890625" lon="8.991651507094502">
<ele>223</ele>
<time>2024-05-10T12:38:15Z</time>
</trkpt>
<trkpt lat="49.64854046702385" lon="8.99169341661036">
<ele>222.8</ele>
<time>2024-05-10T12:38:16Z</time>
</trkpt>
<trkpt lat="49.64848707430065" lon="8.99173348210752">
<ele>222.4</ele>
<time>2024-05-10T12:38:17Z</time>
</trkpt>
<trkpt lat="49.64843745343387" lon="8.991762148216367">
<ele>222.2</ele>
<time>2024-05-10T12:38:18Z</time>
</trkpt>
<trkpt lat="49.64839546009898" lon="8.991783102974296">
<ele>222</ele>
<time>2024-05-10T12:38:19Z</time>
</trkpt>
<trkpt lat="49.64835355058312" lon="8.991801207885146">
<ele>221.8</ele>
<time>2024-05-10T12:38:20Z</time>
</trkpt>
<trkpt lat="49.64831918478012" lon="8.991820318624377">
<ele>221.8</ele>
<time>2024-05-10T12:38:21Z</time>
</trkpt>
<trkpt lat="49.64828490279615" lon="8.991836495697498">
<ele>221.8</ele>
<time>2024-05-10T12:38:22Z</time>
</trkpt>
<trkpt lat="49.648254392668605" lon="8.991853678599">
<ele>221.8</ele>
<time>2024-05-10T12:38:23Z</time>
</trkpt>
<trkpt lat="49.64822765439749" lon="8.991865077987313">
<ele>221.8</ele>
<time>2024-05-10T12:38:24Z</time>
</trkpt>
<trkpt lat="49.64820477180183" lon="8.991874633356929">
<ele>221.8</ele>
<time>2024-05-10T12:38:25Z</time>
</trkpt>
<trkpt lat="49.64817803353071" lon="8.991883266717196">
<ele>221.8</ele>
<time>2024-05-10T12:38:26Z</time>
</trkpt>
<trkpt lat="49.64815900661051" lon="8.991896593943238">
<ele>222</ele>
<time>2024-05-10T12:38:27Z</time>
</trkpt>
<trkpt lat="49.64813989587128" lon="8.991914698854089">
<ele>222</ele>
<time>2024-05-10T12:38:28Z</time>
</trkpt>
<trkpt lat="49.64812086895108" lon="8.991929953917861">
<ele>222</ele>
<time>2024-05-10T12:38:29Z</time>
</trkpt>
<trkpt lat="49.64810175821185" lon="8.991945208981633">
<ele>222.2</ele>
<time>2024-05-10T12:38:30Z</time>
</trkpt>
<trkpt lat="49.64808273129165" lon="8.991966247558594">
<ele>222.2</ele>
<time>2024-05-10T12:38:31Z</time>
</trkpt>
<trkpt lat="49.64806739240885" lon="8.991990052163601">
<ele>222.2</ele>
<time>2024-05-10T12:38:32Z</time>
</trkpt>
<trkpt lat="49.64805976487696" lon="8.992014862596989">
<ele>222.4</ele>
<time>2024-05-10T12:38:33Z</time>
</trkpt>
<trkpt lat="49.64805213734507" lon="8.992045372724533">
<ele>222.4</ele>
<time>2024-05-10T12:38:34Z</time>
</trkpt>
<trkpt lat="49.64804450981319" lon="8.992083510383964">
<ele>222.4</ele>
<time>2024-05-10T12:38:35Z</time>
</trkpt>
<trkpt lat="49.64804073795676" lon="8.99213120341301">
<ele>222.4</ele>
<time>2024-05-10T12:38:36Z</time>
</trkpt>
<trkpt lat="49.6480368822813" lon="8.992179818451405">
<ele>222.4</ele>
<time>2024-05-10T12:38:37Z</time>
</trkpt>
<trkpt lat="49.64802925474942" lon="8.992235139012337">
<ele>222.4</ele>
<time>2024-05-10T12:38:38Z</time>
</trkpt>
<trkpt lat="49.64802162721753" lon="8.992291381582618">
<ele>222.2</ele>
<time>2024-05-10T12:38:39Z</time>
</trkpt>
<trkpt lat="49.64800260029733" lon="8.992351479828358">
<ele>221.8</ele>
<time>2024-05-10T12:38:40Z</time>
</trkpt>
<trkpt lat="49.6479834895581" lon="8.992403028532863">
<ele>221.6</ele>
<time>2024-05-10T12:38:41Z</time>
</trkpt>
<trkpt lat="49.64796060696244" lon="8.992456421256065">
<ele>221.2</ele>
<time>2024-05-10T12:38:42Z</time>
</trkpt>
<trkpt lat="49.6479300968349" lon="8.992498330771923">
<ele>221</ele>
<time>2024-05-10T12:38:43Z</time>
</trkpt>
<trkpt lat="49.64789195917547" lon="8.992536468431354">
<ele>220.6</ele>
<time>2024-05-10T12:38:44Z</time>
</trkpt>
<trkpt lat="49.64785382151604" lon="8.99258516728878">
<ele>220.2</ele>
<time>2024-05-10T12:38:45Z</time>
</trkpt>
<trkpt lat="49.64781182818115" lon="8.992633782327175">
<ele>220</ele>
<time>2024-05-10T12:38:46Z</time>
</trkpt>
<trkpt lat="49.64776606298983" lon="8.992678625509143">
<ele>219.6</ele>
<time>2024-05-10T12:38:47Z</time>
</trkpt>
<trkpt lat="49.647720297798514" lon="8.992723384872079">
<ele>219.2</ele>
<time>2024-05-10T12:38:48Z</time>
</trkpt>
<trkpt lat="49.6476745326072" lon="8.992772083729506">
<ele>218.6</ele>
<time>2024-05-10T12:38:49Z</time>
</trkpt>
<trkpt lat="49.64762876741588" lon="8.992819776758552">
<ele>218.2</ele>
<time>2024-05-10T12:38:50Z</time>
</trkpt>
<trkpt lat="49.647583002224565" lon="8.992866463959217">
<ele>217.8</ele>
<time>2024-05-10T12:38:51Z</time>
</trkpt>
<trkpt lat="49.64753338135779" lon="8.992913234978914">
<ele>217.4</ele>
<time>2024-05-10T12:38:52Z</time>
</trkpt>
<trkpt lat="49.64748376049101" lon="8.99295799434185">
<ele>217</ele>
<time>2024-05-10T12:38:53Z</time>
</trkpt>
<trkpt lat="49.6474379952997" lon="8.99299805983901">
<ele>216.6</ele>
<time>2024-05-10T12:38:54Z</time>
</trkpt>
<trkpt lat="49.64738845825195" lon="8.99303812533617">
<ele>216.2</ele>
<time>2024-05-10T12:38:55Z</time>
</trkpt>
<trkpt lat="49.647342609241605" lon="8.99307819083333">
<ele>215.8</ele>
<time>2024-05-10T12:38:56Z</time>
</trkpt>
<trkpt lat="49.64730069972575" lon="8.993115406483412">
<ele>215.6</ele>
<time>2024-05-10T12:38:57Z</time>
</trkpt>
<trkpt lat="49.64725870639086" lon="8.993151616305113">
<ele>215.2</ele>
<time>2024-05-10T12:38:58Z</time>
</trkpt>
<trkpt lat="49.64722056873143" lon="8.993183132261038">
<ele>215.2</ele>
<time>2024-05-10T12:38:59Z</time>
</trkpt>
<trkpt lat="49.64717857539654" lon="8.99321649223566">
<ele>215</ele>
<time>2024-05-10T12:39:00Z</time>
</trkpt>
<trkpt lat="49.647144293412566" lon="8.993253707885742">
<ele>214.8</ele>
<time>2024-05-10T12:39:01Z</time>
</trkpt>
<trkpt lat="49.64710992760956" lon="8.993287989869714">
<ele>214.8</ele>
<time>2024-05-10T12:39:02Z</time>
</trkpt>
<trkpt lat="49.64707564562559" lon="8.993320427834988">
<ele>214.6</ele>
<time>2024-05-10T12:39:03Z</time>
</trkpt>
<trkpt lat="49.64704513549805" lon="8.993356637656689">
<ele>214.6</ele>
<time>2024-05-10T12:39:04Z</time>
</trkpt>
<trkpt lat="49.64701454155147" lon="8.99339192546904">
<ele>214.6</ele>
<time>2024-05-10T12:39:05Z</time>
</trkpt>
<trkpt lat="49.646987887099385" lon="8.993430063128471">
<ele>214.6</ele>
<time>2024-05-10T12:39:06Z</time>
</trkpt>
<trkpt lat="49.64696114882827" lon="8.993468284606934">
<ele>214.6</ele>
<time>2024-05-10T12:39:07Z</time>
</trkpt>
<trkpt lat="49.64693449437618" lon="8.993503488600254">
<ele>214.8</ele>
<time>2024-05-10T12:39:08Z</time>
</trkpt>
<trkpt lat="49.646907756105065" lon="8.993536932393909">
<ele>214.8</ele>
<time>2024-05-10T12:39:09Z</time>
</trkpt>
<trkpt lat="49.64688487350941" lon="8.993568364530802">
<ele>215</ele>
<time>2024-05-10T12:39:10Z</time>
</trkpt>
<trkpt lat="49.64686199091375" lon="8.993595102801919">
<ele>215</ele>
<time>2024-05-10T12:39:11Z</time>
</trkpt>
<trkpt lat="49.64683910831809" lon="8.993616979569197">
<ele>215.2</ele>
<time>2024-05-10T12:39:12Z</time>
</trkpt>
<trkpt lat="49.64681999757886" lon="8.99363131262362">
<ele>215.4</ele>
<time>2024-05-10T12:39:13Z</time>
</trkpt>
<trkpt lat="49.646793343126774" lon="8.993658050894737">
<ele>215.4</ele>
<time>2024-05-10T12:39:14Z</time>
</trkpt>
<trkpt lat="49.64676660485566" lon="8.993696188554168">
<ele>215.6</ele>
<time>2024-05-10T12:39:15Z</time>
</trkpt>
<trkpt lat="49.64674372226" lon="8.993741953745484">
<ele>215.6</ele>
<time>2024-05-10T12:39:16Z</time>
</trkpt>
<trkpt lat="49.646713212132454" lon="8.993798196315765">
<ele>215.8</ele>
<time>2024-05-10T12:39:17Z</time>
</trkpt>
<trkpt lat="49.64667884632945" lon="8.99384974502027">
<ele>216</ele>
<time>2024-05-10T12:39:18Z</time>
</trkpt>
<trkpt lat="49.64664456434548" lon="8.993900287896395">
<ele>216</ele>
<time>2024-05-10T12:39:19Z</time>
</trkpt>
<trkpt lat="49.64660642668605" lon="8.99394798092544">
<ele>216.2</ele>
<time>2024-05-10T12:39:20Z</time>
</trkpt>
<trkpt lat="49.646572060883045" lon="8.993996595963836">
<ele>216.2</ele>
<time>2024-05-10T12:39:21Z</time>
</trkpt>
<trkpt lat="49.646537778899074" lon="8.994041439145803">
<ele>216.2</ele>
<time>2024-05-10T12:39:22Z</time>
</trkpt>
<trkpt lat="49.64650341309607" lon="8.994081420823932">
<ele>216.2</ele>
<time>2024-05-10T12:39:23Z</time>
</trkpt>
<trkpt lat="49.64646141976118" lon="8.994121486321092">
<ele>216.2</ele>
<time>2024-05-10T12:39:24Z</time>
</trkpt>
<trkpt lat="49.64642713777721" lon="8.994158701971173">
<ele>216.4</ele>
<time>2024-05-10T12:39:25Z</time>
</trkpt>
<trkpt lat="49.64638900011778" lon="8.994194911792874">
<ele>216.2</ele>
<time>2024-05-10T12:39:26Z</time>
</trkpt>
<trkpt lat="49.64634700678289" lon="8.9942264277488">
<ele>216.2</ele>
<time>2024-05-10T12:39:27Z</time>
</trkpt>
<trkpt lat="49.64630886912346" lon="8.994256937876344">
<ele>216</ele>
<time>2024-05-10T12:39:28Z</time>
</trkpt>
<trkpt lat="49.646274503320456" lon="8.994291303679347">
<ele>216</ele>
<time>2024-05-10T12:39:29Z</time>
</trkpt>
<trkpt lat="49.64624022133648" lon="8.994331285357475">
<ele>215.8</ele>
<time>2024-05-10T12:39:30Z</time>
</trkpt>
<trkpt lat="49.64621348306537" lon="8.994366573169827">
<ele>215.8</ele>
<time>2024-05-10T12:39:31Z</time>
</trkpt>
<trkpt lat="49.64618682861328" lon="8.994398089125752">
<ele>215.6</ele>
<time>2024-05-10T12:39:32Z</time>
</trkpt>
<trkpt lat="49.64616009034216" lon="8.99442289955914">
<ele>215.4</ele>
<time>2024-05-10T12:39:33Z</time>
</trkpt>
<trkpt lat="49.64614483527839" lon="8.99443999864161">
<ele>215.2</ele>
<time>2024-05-10T12:39:34Z</time>
</trkpt>
<trkpt lat="49.64612958021462" lon="8.994453409686685">
<ele>215.2</ele>
<time>2024-05-10T12:39:35Z</time>
</trkpt>
<trkpt lat="49.64611046947539" lon="8.9944629650563">
<ele>215</ele>
<time>2024-05-10T12:39:36Z</time>
</trkpt>
<trkpt lat="49.646095214411616" lon="8.994476292282343">
<ele>214.8</ele>
<time>2024-05-10T12:39:37Z</time>
</trkpt>
<trkpt lat="49.6460838150233" lon="8.994489619508386">
<ele>214.8</ele>
<time>2024-05-10T12:39:38Z</time>
</trkpt>
<trkpt lat="49.64607233181596" lon="8.994508730247617">
<ele>214.8</ele>
<time>2024-05-10T12:39:39Z</time>
</trkpt>
<trkpt lat="49.646060932427645" lon="8.994529685005546">
<ele>214.6</ele>
<time>2024-05-10T12:39:40Z</time>
</trkpt>
<trkpt lat="49.64605330489576" lon="8.99455826729536">
<ele>214.6</ele>
<time>2024-05-10T12:39:41Z</time>
</trkpt>
<trkpt lat="49.64604567736387" lon="8.994589783251286">
<ele>214.4</ele>
<time>2024-05-10T12:39:42Z</time>
</trkpt>
<trkpt lat="49.646041821688414" lon="8.9946183655411">
<ele>214.2</ele>
<time>2024-05-10T12:39:43Z</time>
</trkpt>
<trkpt lat="49.64604567736387" lon="8.994656503200531">
<ele>214</ele>
<time>2024-05-10T12:39:44Z</time>
</trkpt>
<trkpt lat="49.64604567736387" lon="8.99470042437315">
<ele>213.6</ele>
<time>2024-05-10T12:39:45Z</time>
</trkpt>
<trkpt lat="49.646041821688414" lon="8.99473948404193">
<ele>213.2</ele>
<time>2024-05-10T12:39:46Z</time>
</trkpt>
<trkpt lat="49.646041821688414" lon="8.99477954953909">
<ele>213</ele>
<time>2024-05-10T12:39:47Z</time>
</trkpt>
<trkpt lat="49.64604567736387" lon="8.994823386892676">
<ele>213</ele>
<time>2024-05-10T12:39:48Z</time>
</trkpt>
<trkpt lat="49.6460494492203" lon="8.994872085750103">
<ele>213</ele>
<time>2024-05-10T12:39:49Z</time>
</trkpt>
<trkpt lat="49.64605330489576" lon="8.994916845113039">
<ele>213</ele>
<time>2024-05-10T12:39:50Z</time>
</trkpt>
<trkpt lat="49.64606470428407" lon="8.994963616132736">
<ele>212.8</ele>
<time>2024-05-10T12:39:51Z</time>
</trkpt>
<trkpt lat="49.64606855995953" lon="8.995008459314704">
<ele>212.8</ele>
<time>2024-05-10T12:39:52Z</time>
</trkpt>
<trkpt lat="49.64607618749142" lon="8.99505321867764">
<ele>212.8</ele>
<time>2024-05-10T12:39:53Z</time>
</trkpt>
<trkpt lat="49.64607995934784" lon="8.995101917535067">
<ele>212.6</ele>
<time>2024-05-10T12:39:54Z</time>
</trkpt>
<trkpt lat="49.64607995934784" lon="8.995149610564113">
<ele>212.6</ele>
<time>2024-05-10T12:39:55Z</time>
</trkpt>
<trkpt lat="49.64607995934784" lon="8.995196297764778">
<ele>212.6</ele>
<time>2024-05-10T12:39:56Z</time>
</trkpt>
<trkpt lat="49.6460838150233" lon="8.995243068784475">
<ele>212.4</ele>
<time>2024-05-10T12:39:57Z</time>
</trkpt>
<trkpt lat="49.6460838150233" lon="8.995281206443906">
<ele>212.4</ele>
<time>2024-05-10T12:39:58Z</time>
</trkpt>
<trkpt lat="49.6460838150233" lon="8.995306938886642">
<ele>212.2</ele>
<time>2024-05-10T12:39:59Z</time>
</trkpt>
<trkpt lat="49.64609144255519" lon="8.995327893644571">
<ele>212</ele>
<time>2024-05-10T12:40:00Z</time>
</trkpt>
<trkpt lat="49.64609144255519" lon="8.995341220870614">
<ele>211.8</ele>
<time>2024-05-10T12:40:01Z</time>
</trkpt>
<trkpt lat="49.64609144255519" lon="8.995353626087308">
<ele>211.8</ele>
<time>2024-05-10T12:40:02Z</time>
</trkpt>
<trkpt lat="49.64609144255519" lon="8.995360331609845">
<ele>211.6</ele>
<time>2024-05-10T12:40:03Z</time>
</trkpt>
<trkpt lat="49.646095214411616" lon="8.995365109294653">
<ele>211.4</ele>
<time>2024-05-10T12:40:04Z</time>
</trkpt>
<trkpt lat="49.64609144255519" lon="8.995365109294653">
<ele>211.4</ele>
<time>2024-05-10T12:40:05Z</time>
</trkpt>
<trkpt lat="49.64609144255519" lon="8.995373658835888">
<ele>211.4</ele>
<time>2024-05-10T12:40:06Z</time>
</trkpt>
<trkpt lat="49.64609144255519" lon="8.995383214205503">
<ele>211.4</ele>
<time>2024-05-10T12:40:07Z</time>
</trkpt>
<trkpt lat="49.64609144255519" lon="8.99538991972804">
<ele>211.4</ele>
<time>2024-05-10T12:40:08Z</time>
</trkpt>
<trkpt lat="49.64609144255519" lon="8.995394697412848">
<ele>211.6</ele>
<time>2024-05-10T12:40:09Z</time>
</trkpt>
<trkpt lat="49.64609144255519" lon="8.995401319116354">
<ele>211.6</ele>
<time>2024-05-10T12:40:10Z</time>
</trkpt>
<trkpt lat="49.646095214411616" lon="8.995405174791813">
<ele>211.8</ele>
<time>2024-05-10T12:40:11Z</time>
</trkpt>
<trkpt lat="49.646099070087075" lon="8.995418502017856">
<ele>211.8</ele>
<time>2024-05-10T12:40:12Z</time>
</trkpt>
<trkpt lat="49.646099070087075" lon="8.995436606928706">
<ele>212</ele>
<time>2024-05-10T12:40:13Z</time>
</trkpt>
<trkpt lat="49.6461028419435" lon="8.995443312451243">
<ele>212</ele>
<time>2024-05-10T12:40:14Z</time>
</trkpt>
<trkpt lat="49.64610669761896" lon="8.995456639677286">
<ele>211.8</ele>
<time>2024-05-10T12:40:15Z</time>
</trkpt>
<trkpt lat="49.64610669761896" lon="8.995465273037553">
<ele>212</ele>
<time>2024-05-10T12:40:16Z</time>
</trkpt>
<trkpt lat="49.64611046947539" lon="8.995469966903329">
<ele>212</ele>
<time>2024-05-10T12:40:17Z</time>
</trkpt>
<trkpt lat="49.64611432515085" lon="8.995479522272944">
<ele>212</ele>
<time>2024-05-10T12:40:18Z</time>
</trkpt>
<trkpt lat="49.646118097007275" lon="8.995489999651909">
<ele>212</ele>
<time>2024-05-10T12:40:19Z</time>
</trkpt>
<trkpt lat="49.646118097007275" lon="8.995501482859254">
<ele>212.2</ele>
<time>2024-05-10T12:40:20Z</time>
</trkpt>
<trkpt lat="49.64612195268273" lon="8.995510032400489">
<ele>212.2</ele>
<time>2024-05-10T12:40:21Z</time>
</trkpt>
<trkpt lat="49.64612195268273" lon="8.995521515607834">
<ele>212.4</ele>
<time>2024-05-10T12:40:22Z</time>
</trkpt>
<trkpt lat="49.64612572453916" lon="8.995531992986798">
<ele>212.6</ele>
<time>2024-05-10T12:40:23Z</time>
</trkpt>
<trkpt lat="49.64613335207105" lon="8.995536770671606">
<ele>212.6</ele>
<time>2024-05-10T12:40:24Z</time>
</trkpt>
<trkpt lat="49.64613335207105" lon="8.995541548356414">
<ele>213</ele>
<time>2024-05-10T12:40:25Z</time>
</trkpt>
<trkpt lat="49.64613335207105" lon="8.995550097897649">
<ele>213.2</ele>
<time>2024-05-10T12:40:26Z</time>
</trkpt>
<trkpt lat="49.64613335207105" lon="8.995556803420186">
<ele>213.4</ele>
<time>2024-05-10T12:40:27Z</time>
</trkpt>
<trkpt lat="49.646137207746506" lon="8.995561581104994">
<ele>213.8</ele>
<time>2024-05-10T12:40:28Z</time>
</trkpt>
<trkpt lat="49.646137207746506" lon="8.995572058483958">
<ele>214</ele>
<time>2024-05-10T12:40:29Z</time>
</trkpt>
<trkpt lat="49.64614097960293" lon="8.995578764006495">
<ele>214.2</ele>
<time>2024-05-10T12:40:30Z</time>
</trkpt>
<trkpt lat="49.64614097960293" lon="8.995583457872272">
<ele>214.4</ele>
<time>2024-05-10T12:40:31Z</time>
</trkpt>
<trkpt lat="49.64614483527839" lon="8.995586391538382">
<ele>214.6</ele>
<time>2024-05-10T12:40:32Z</time>
</trkpt>
<trkpt lat="49.64614483527839" lon="8.995592091232538">
<ele>214.8</ele>
<time>2024-05-10T12:40:33Z</time>
</trkpt>
<trkpt lat="49.64614860713482" lon="8.995603490620852">
<ele>214.8</ele>
<time>2024-05-10T12:40:34Z</time>
</trkpt>
<trkpt lat="49.64614860713482" lon="8.995623523369431">
<ele>215</ele>
<time>2024-05-10T12:40:35Z</time>
</trkpt>
<trkpt lat="49.64614860713482" lon="8.995639784261584">
<ele>215</ele>
<time>2024-05-10T12:40:36Z</time>
</trkpt>
<trkpt lat="49.64615246281028" lon="8.995656967163086">
<ele>215</ele>
<time>2024-05-10T12:40:37Z</time>
</trkpt>
<trkpt lat="49.646156234666705" lon="8.99568839929998">
<ele>215</ele>
<time>2024-05-10T12:40:38Z</time>
</trkpt>
<trkpt lat="49.64616009034216" lon="8.995713209733367">
<ele>215</ele>
<time>2024-05-10T12:40:39Z</time>
</trkpt>
<trkpt lat="49.64616009034216" lon="8.995723687112331">
<ele>215.2</ele>
<time>2024-05-10T12:40:40Z</time>
</trkpt>
<trkpt lat="49.64616386219859" lon="8.995737014338374">
<ele>215.2</ele>
<time>2024-05-10T12:40:41Z</time>
</trkpt>
<trkpt lat="49.64616771787405" lon="8.99574656970799">
<ele>215.2</ele>
<time>2024-05-10T12:40:42Z</time>
</trkpt>
<trkpt lat="49.64616771787405" lon="8.995757047086954">
<ele>215.4</ele>
<time>2024-05-10T12:40:43Z</time>
</trkpt>
<trkpt lat="49.64616386219859" lon="8.9957685302943">
<ele>215.6</ele>
<time>2024-05-10T12:40:44Z</time>
</trkpt>
<trkpt lat="49.64616009034216" lon="8.995775151997805">
<ele>215.6</ele>
<time>2024-05-10T12:40:45Z</time>
</trkpt>
<trkpt lat="49.646156234666705" lon="8.995779929682612">
<ele>215.8</ele>
<time>2024-05-10T12:40:46Z</time>
</trkpt>
<trkpt lat="49.646156234666705" lon="8.99578277952969">
<ele>216</ele>
<time>2024-05-10T12:40:47Z</time>
</trkpt>
<trkpt lat="49.64615246281028" lon="8.995788563042879">
<ele>216</ele>
<time>2024-05-10T12:40:48Z</time>
</trkpt>
<trkpt lat="49.64614483527839" lon="8.995791412889957">
<ele>216.2</ele>
<time>2024-05-10T12:40:49Z</time>
</trkpt>
<trkpt lat="49.64614097960293" lon="8.995793340727687">
<ele>216.2</ele>
<time>2024-05-10T12:40:50Z</time>
</trkpt>
<trkpt lat="49.64613335207105" lon="8.995796190574765">
<ele>216.2</ele>
<time>2024-05-10T12:40:51Z</time>
</trkpt>
<trkpt lat="49.64612958021462" lon="8.995798034593463">
<ele>216.2</ele>
<time>2024-05-10T12:40:52Z</time>
</trkpt>
<trkpt lat="49.64612958021462" lon="8.995796190574765">
<ele>216.4</ele>
<time>2024-05-10T12:40:53Z</time>
</trkpt>
<trkpt lat="49.64613335207105" lon="8.995795184746385">
<ele>216.6</ele>
<time>2024-05-10T12:40:54Z</time>
</trkpt>
<trkpt lat="49.64612958021462" lon="8.995795184746385">
<ele>216.6</ele>
<time>2024-05-10T12:40:56Z</time>
</trkpt>
<trkpt lat="49.64612195268273" lon="8.995796190574765">
<ele>216.8</ele>
<time>2024-05-10T12:40:57Z</time>
</trkpt>
<trkpt lat="49.646118097007275" lon="8.995799962431192">
<ele>216.8</ele>
<time>2024-05-10T12:40:58Z</time>
</trkpt>
<trkpt lat="49.64611046947539" lon="8.995804740116">
<ele>217</ele>
<time>2024-05-10T12:40:59Z</time>
</trkpt>
<trkpt lat="49.64610669761896" lon="8.995808595791459">
<ele>217</ele>
<time>2024-05-10T12:41:00Z</time>
</trkpt>
<trkpt lat="49.64610669761896" lon="8.995809517800808">
<ele>217.2</ele>
<time>2024-05-10T12:41:01Z</time>
</trkpt>
<trkpt lat="49.6461028419435" lon="8.995813289657235">
<ele>217.2</ele>
<time>2024-05-10T12:41:02Z</time>
</trkpt>
<trkpt lat="49.646099070087075" lon="8.995815217494965">
<ele>217.2</ele>
<time>2024-05-10T12:41:03Z</time>
</trkpt>
<trkpt lat="49.6460838150233" lon="8.995813289657235">
<ele>217.4</ele>
<time>2024-05-10T12:41:04Z</time>
</trkpt>
<trkpt lat="49.646057076752186" lon="8.995818067342043">
<ele>217.4</ele>
<time>2024-05-10T12:41:05Z</time>
</trkpt>
<trkpt lat="49.6460304223001" lon="8.995829550549388">
<ele>217.4</ele>
<time>2024-05-10T12:41:06Z</time>
</trkpt>
<trkpt lat="49.64600368402898" lon="8.995840027928352">
<ele>217.4</ele>
<time>2024-05-10T12:41:07Z</time>
</trkpt>
<trkpt lat="49.64597317390144" lon="8.995851511135697">
<ele>217.4</ele>
<time>2024-05-10T12:41:08Z</time>
</trkpt>
<trkpt lat="49.645942663773894" lon="8.995861988514662">
<ele>217.4</ele>
<time>2024-05-10T12:41:09Z</time>
</trkpt>
<trkpt lat="49.64590829797089" lon="8.995878165587783">
<ele>217.4</ele>
<time>2024-05-10T12:41:10Z</time>
</trkpt>
<trkpt lat="49.64587401598692" lon="8.995891492813826">
<ele>217.6</ele>
<time>2024-05-10T12:41:11Z</time>
</trkpt>
<trkpt lat="49.64583965018392" lon="8.9959049038589">
<ele>217.8</ele>
<time>2024-05-10T12:41:12Z</time>
</trkpt>
<trkpt lat="49.64579765684903" lon="8.995920158922672">
<ele>218</ele>
<time>2024-05-10T12:41:13Z</time>
</trkpt>
<trkpt lat="49.6457595191896" lon="8.995938263833523">
<ele>218</ele>
<time>2024-05-10T12:41:14Z</time>
</trkpt>
<trkpt lat="49.645721381530166" lon="8.995954440906644">
<ele>218.2</ele>
<time>2024-05-10T12:41:15Z</time>
</trkpt>
<trkpt lat="49.645683243870735" lon="8.995973551645875">
<ele>218.2</ele>
<time>2024-05-10T12:41:16Z</time>
</trkpt>
<trkpt lat="49.645645106211305" lon="8.995991656556726">
<ele>218.2</ele>
<time>2024-05-10T12:41:17Z</time>
</trkpt>
<trkpt lat="49.6456107404083" lon="8.996006911620498">
<ele>218.2</ele>
<time>2024-05-10T12:41:18Z</time>
</trkpt>
<trkpt lat="49.64557645842433" lon="8.996014539152384">
<ele>218.2</ele>
<time>2024-05-10T12:41:19Z</time>
</trkpt>
<trkpt lat="49.6455383207649" lon="8.996021244674921">
<ele>218.2</ele>
<time>2024-05-10T12:41:20Z</time>
</trkpt>
<trkpt lat="49.64550018310547" lon="8.996034571900964">
<ele>218.2</ele>
<time>2024-05-10T12:41:21Z</time>
</trkpt>
<trkpt lat="49.64546196162701" lon="8.99604320526123">
<ele>218.4</ele>
<time>2024-05-10T12:41:22Z</time>
</trkpt>
<trkpt lat="49.645427679643035" lon="8.996051754802465">
<ele>218.4</ele>
<time>2024-05-10T12:41:23Z</time>
</trkpt>
<trkpt lat="49.64539331384003" lon="8.996069859713316">
<ele>218.4</ele>
<time>2024-05-10T12:41:24Z</time>
</trkpt>
<trkpt lat="49.6453551761806" lon="8.996085114777088">
<ele>218.6</ele>
<time>2024-05-10T12:41:25Z</time>
</trkpt>
<trkpt lat="49.6453208103776" lon="8.996103219687939">
<ele>218.6</ele>
<time>2024-05-10T12:41:26Z</time>
</trkpt>
<trkpt lat="49.64528267271817" lon="8.996116630733013">
<ele>218.8</ele>
<time>2024-05-10T12:41:27Z</time>
</trkpt>
<trkpt lat="49.64524839073419" lon="8.996131885796785">
<ele>218.8</ele>
<time>2024-05-10T12:41:28Z</time>
</trkpt>
<trkpt lat="49.645210253074765" lon="8.996151918545365">
<ele>219</ele>
<time>2024-05-10T12:41:29Z</time>
</trkpt>
<trkpt lat="49.64516825973987" lon="8.996170023456216">
<ele>219.2</ele>
<time>2024-05-10T12:41:30Z</time>
</trkpt>
<trkpt lat="49.64512249454856" lon="8.996196677908301">
<ele>219.4</ele>
<time>2024-05-10T12:41:31Z</time>
</trkpt>
<trkpt lat="49.645072873681784" lon="8.99621863849461">
<ele>219.6</ele>
<time>2024-05-10T12:41:32Z</time>
</trkpt>
<trkpt lat="49.64502333663404" lon="8.99623867124319">
<ele>219.6</ele>
<time>2024-05-10T12:41:33Z</time>
</trkpt>
<trkpt lat="49.644969860091805" lon="8.99625870399177">
<ele>219.6</ele>
<time>2024-05-10T12:41:34Z</time>
</trkpt>
<trkpt lat="49.6449164673686" lon="8.996288292109966">
<ele>219.8</ele>
<time>2024-05-10T12:41:35Z</time>
</trkpt>
<trkpt lat="49.64485930278897" lon="8.996314946562052">
<ele>219.8</ele>
<time>2024-05-10T12:41:36Z</time>
</trkpt>
<trkpt lat="49.64480205439031" lon="8.99633782915771">
<ele>220</ele>
<time>2024-05-10T12:41:37Z</time>
</trkpt>
<trkpt lat="49.64474480599165" lon="8.996356939896941">
<ele>220</ele>
<time>2024-05-10T12:41:38Z</time>
</trkpt>
<trkpt lat="49.64469141326845" lon="8.99637789465487">
<ele>220</ele>
<time>2024-05-10T12:41:39Z</time>
</trkpt>
<trkpt lat="49.6446418762207" lon="8.996391221880913">
<ele>220</ele>
<time>2024-05-10T12:41:40Z</time>
</trkpt>
<trkpt lat="49.64459225535393" lon="8.996397005394101">
<ele>220</ele>
<time>2024-05-10T12:41:41Z</time>
</trkpt>
<trkpt lat="49.64454263448715" lon="8.996401783078909">
<ele>220</ele>
<time>2024-05-10T12:41:42Z</time>
</trkpt>
<trkpt lat="49.64449309743941" lon="8.996404632925987">
<ele>220</ele>
<time>2024-05-10T12:41:43Z</time>
</trkpt>
<trkpt lat="49.64445110410452" lon="8.996404632925987">
<ele>220</ele>
<time>2024-05-10T12:41:44Z</time>
</trkpt>
<trkpt lat="49.6444053389132" lon="8.996415110304952">
<ele>219.8</ele>
<time>2024-05-10T12:41:45Z</time>
</trkpt>
<trkpt lat="49.64436334557831" lon="8.996426509693265">
<ele>219.8</ele>
<time>2024-05-10T12:41:46Z</time>
</trkpt>
<trkpt lat="49.644321436062455" lon="8.996446542441845">
<ele>219.8</ele>
<time>2024-05-10T12:41:47Z</time>
</trkpt>
<trkpt lat="49.64427558705211" lon="8.996468503028154">
<ele>219.6</ele>
<time>2024-05-10T12:41:48Z</time>
</trkpt>
<trkpt lat="49.64423744939267" lon="8.996481830254197">
<ele>219.4</ele>
<time>2024-05-10T12:41:49Z</time>
</trkpt>
<trkpt lat="49.64419553987682" lon="8.996488535776734">
<ele>219.2</ele>
<time>2024-05-10T12:41:50Z</time>
</trkpt>
<trkpt lat="49.64415740221739" lon="8.996490463614464">
<ele>219.2</ele>
<time>2024-05-10T12:41:51Z</time>
</trkpt>
<trkpt lat="49.644119180738926" lon="8.996490463614464">
<ele>219</ele>
<time>2024-05-10T12:41:52Z</time>
</trkpt>
<trkpt lat="49.64407727122307" lon="8.996488535776734">
<ele>219</ele>
<time>2024-05-10T12:41:53Z</time>
</trkpt>
<trkpt lat="49.64403913356364" lon="8.996482836082578">
<ele>219</ele>
<time>2024-05-10T12:41:54Z</time>
</trkpt>
<trkpt lat="49.64399336837232" lon="8.99647805839777">
<ele>219</ele>
<time>2024-05-10T12:41:55Z</time>
</trkpt>
<trkpt lat="49.64395523071289" lon="8.99647705256939">
<ele>219</ele>
<time>2024-05-10T12:41:56Z</time>
</trkpt>
<trkpt lat="49.643913237378" lon="8.996475208550692">
<ele>219</ele>
<time>2024-05-10T12:41:57Z</time>
</trkpt>
<trkpt lat="49.64387124404311" lon="8.996473280712962">
<ele>219</ele>
<time>2024-05-10T12:41:58Z</time>
</trkpt>
<trkpt lat="49.643829334527254" lon="8.996471352875233">
<ele>219</ele>
<time>2024-05-10T12:41:59Z</time>
</trkpt>
<trkpt lat="49.643791196867824" lon="8.996468503028154">
<ele>219.2</ele>
<time>2024-05-10T12:42:00Z</time>
</trkpt>
<trkpt lat="49.64375297538936" lon="8.996464647352695">
<ele>219.2</ele>
<time>2024-05-10T12:42:01Z</time>
</trkpt>
<trkpt lat="49.64371483772993" lon="8.996461797505617">
<ele>219.2</ele>
<time>2024-05-10T12:42:02Z</time>
</trkpt>
<trkpt lat="49.64367292821407" lon="8.99645802564919">
<ele>219.2</ele>
<time>2024-05-10T12:42:03Z</time>
</trkpt>
<trkpt lat="49.64363479055464" lon="8.996453247964382">
<ele>219.4</ele>
<time>2024-05-10T12:42:04Z</time>
</trkpt>
<trkpt lat="49.64359656907618" lon="8.996448470279574">
<ele>219.4</ele>
<time>2024-05-10T12:42:05Z</time>
</trkpt>
<trkpt lat="49.64355465956032" lon="8.996444698423147">
<ele>219.6</ele>
<time>2024-05-10T12:42:06Z</time>
</trkpt>
<trkpt lat="49.64352029375732" lon="8.996441764757037">
<ele>219.6</ele>
<time>2024-05-10T12:42:07Z</time>
</trkpt>
<trkpt lat="49.64348215609789" lon="8.99643799290061">
<ele>219.6</ele>
<time>2024-05-10T12:42:08Z</time>
</trkpt>
<trkpt lat="49.64344787411392" lon="8.996435143053532">
<ele>219.8</ele>
<time>2024-05-10T12:42:09Z</time>
</trkpt>
<trkpt lat="49.643413508310914" lon="8.996430365368724">
<ele>219.8</ele>
<time>2024-05-10T12:42:10Z</time>
</trkpt>
<trkpt lat="49.64338299818337" lon="8.996423659846187">
<ele>219.6</ele>
<time>2024-05-10T12:42:11Z</time>
</trkpt>
<trkpt lat="49.64334486052394" lon="8.99641988798976">
<ele>219.6</ele>
<time>2024-05-10T12:42:12Z</time>
</trkpt>
<trkpt lat="49.643314350396395" lon="8.996421732008457">
<ele>219.6</ele>
<time>2024-05-10T12:42:13Z</time>
</trkpt>
<trkpt lat="49.64328384026885" lon="8.996421732008457">
<ele>219.6</ele>
<time>2024-05-10T12:42:14Z</time>
</trkpt>
<trkpt lat="49.643253246322274" lon="8.99641988798976">
<ele>219.6</ele>
<time>2024-05-10T12:42:15Z</time>
</trkpt>
<trkpt lat="49.64322659187019" lon="8.99641796015203">
<ele>219.6</ele>
<time>2024-05-10T12:42:16Z</time>
</trkpt>
<trkpt lat="49.64320370927453" lon="8.996417038142681">
<ele>219.6</ele>
<time>2024-05-10T12:42:17Z</time>
</trkpt>
<trkpt lat="49.64318082667887" lon="8.996411254629493">
<ele>219.6</ele>
<time>2024-05-10T12:42:18Z</time>
</trkpt>
<trkpt lat="49.643157944083214" lon="8.996411254629493">
<ele>219.6</ele>
<time>2024-05-10T12:42:19Z</time>
</trkpt>
<trkpt lat="49.6431312058121" lon="8.996410332620144">
<ele>219.4</ele>
<time>2024-05-10T12:42:20Z</time>
</trkpt>
<trkpt lat="49.64310069568455" lon="8.996408404782414">
<ele>219.4</ele>
<time>2024-05-10T12:42:21Z</time>
</trkpt>
<trkpt lat="49.64307018555701" lon="8.996404632925987">
<ele>219.4</ele>
<time>2024-05-10T12:42:22Z</time>
</trkpt>
<trkpt lat="49.64303967542946" lon="8.996397005394101">
<ele>219.4</ele>
<time>2024-05-10T12:42:23Z</time>
</trkpt>
<trkpt lat="49.64300916530192" lon="8.996391221880913">
<ele>219.4</ele>
<time>2024-05-10T12:42:24Z</time>
</trkpt>
<trkpt lat="49.6429824270308" lon="8.996391221880913">
<ele>219.4</ele>
<time>2024-05-10T12:42:25Z</time>
</trkpt>
<trkpt lat="49.64295191690326" lon="8.996395077556372">
<ele>219.4</ele>
<time>2024-05-10T12:42:26Z</time>
</trkpt>
<trkpt lat="49.64292140677571" lon="8.996397005394101">
<ele>219.4</ele>
<time>2024-05-10T12:42:27Z</time>
</trkpt>
<trkpt lat="49.64288704097271" lon="8.99639792740345">
<ele>219.4</ele>
<time>2024-05-10T12:42:28Z</time>
</trkpt>
<trkpt lat="49.64285275898874" lon="8.996401783078909">
<ele>219.4</ele>
<time>2024-05-10T12:42:29Z</time>
</trkpt>
<trkpt lat="49.642818393185735" lon="8.996410332620144">
<ele>219.4</ele>
<time>2024-05-10T12:42:30Z</time>
</trkpt>
<trkpt lat="49.64278411120176" lon="8.99641988798976">
<ele>219.4</ele>
<time>2024-05-10T12:42:31Z</time>
</trkpt>
<trkpt lat="49.64274974539876" lon="8.996430365368724">
<ele>219.4</ele>
<time>2024-05-10T12:42:32Z</time>
</trkpt>
<trkpt lat="49.64271160773933" lon="8.99643799290061">
<ele>219.4</ele>
<time>2024-05-10T12:42:33Z</time>
</trkpt>
<trkpt lat="49.642681097611785" lon="8.996446542441845">
<ele>219.4</ele>
<time>2024-05-10T12:42:34Z</time>
</trkpt>
<trkpt lat="49.64264673180878" lon="8.996453247964382">
<ele>219.4</ele>
<time>2024-05-10T12:42:35Z</time>
</trkpt>
<trkpt lat="49.64260859414935" lon="8.996463725343347">
<ele>219.4</ele>
<time>2024-05-10T12:42:36Z</time>
</trkpt>
<trkpt lat="49.64257808402181" lon="8.99647705256939">
<ele>219.4</ele>
<time>2024-05-10T12:42:37Z</time>
</trkpt>
<trkpt lat="49.6425437182188" lon="8.996493313461542">
<ele>219.4</ele>
<time>2024-05-10T12:42:38Z</time>
</trkpt>
<trkpt lat="49.64250558055937" lon="8.996506640687585">
<ele>219.4</ele>
<time>2024-05-10T12:42:39Z</time>
</trkpt>
<trkpt lat="49.64246744289994" lon="8.996521895751357">
<ele>219.4</ele>
<time>2024-05-10T12:42:40Z</time>
</trkpt>
<trkpt lat="49.64242930524051" lon="8.9965352229774">
<ele>219.4</ele>
<time>2024-05-10T12:42:41Z</time>
</trkpt>
<trkpt lat="49.64239116758108" lon="8.996549556031823">
<ele>219.4</ele>
<time>2024-05-10T12:42:42Z</time>
</trkpt>
<trkpt lat="49.64234917424619" lon="8.996562883257866">
<ele>219.4</ele>
<time>2024-05-10T12:42:43Z</time>
</trkpt>
<trkpt lat="49.64231103658676" lon="8.99657528847456">
<ele>219.4</ele>
<time>2024-05-10T12:42:44Z</time>
</trkpt>
<trkpt lat="49.642269127070904" lon="8.996586771681905">
<ele>219.4</ele>
<time>2024-05-10T12:42:45Z</time>
</trkpt>
<trkpt lat="49.64223090559244" lon="8.99659632705152">
<ele>219.4</ele>
<time>2024-05-10T12:42:46Z</time>
</trkpt>
<trkpt lat="49.64219276793301" lon="8.996609654277563">
<ele>219.4</ele>
<time>2024-05-10T12:42:47Z</time>
</trkpt>
<trkpt lat="49.64215848594904" lon="8.996624909341335">
<ele>219.4</ele>
<time>2024-05-10T12:42:48Z</time>
</trkpt>
<trkpt lat="49.64212034828961" lon="8.996640164405107">
<ele>219.4</ele>
<time>2024-05-10T12:42:49Z</time>
</trkpt>
<trkpt lat="49.642085982486606" lon="8.99665449745953">
<ele>219.2</ele>
<time>2024-05-10T12:42:50Z</time>
</trkpt>
<trkpt lat="49.6420516166836" lon="8.996667824685574">
<ele>219.2</ele>
<time>2024-05-10T12:42:51Z</time>
</trkpt>
<trkpt lat="49.64201733469963" lon="8.996680229902267">
<ele>219.2</ele>
<time>2024-05-10T12:42:52Z</time>
</trkpt>
<trkpt lat="49.64198296889663" lon="8.99669456295669">
<ele>219.2</ele>
<time>2024-05-10T12:42:53Z</time>
</trkpt>
<trkpt lat="49.641948686912656" lon="8.996707890182734">
<ele>219.2</ele>
<time>2024-05-10T12:42:54Z</time>
</trkpt>
<trkpt lat="49.641910549253225" lon="8.996721217408776">
<ele>219.2</ele>
<time>2024-05-10T12:42:55Z</time>
</trkpt>
<trkpt lat="49.64187618345022" lon="8.996736472472548">
<ele>219.4</ele>
<time>2024-05-10T12:42:56Z</time>
</trkpt>
<trkpt lat="49.64183804579079" lon="8.99675365537405">
<ele>219.4</ele>
<time>2024-05-10T12:42:57Z</time>
</trkpt>
<trkpt lat="49.64180367998779" lon="8.996769832447171">
<ele>219.4</ele>
<time>2024-05-10T12:42:58Z</time>
</trkpt>
<trkpt lat="49.64176554232836" lon="8.996787015348673">
<ele>219.4</ele>
<time>2024-05-10T12:42:59Z</time>
</trkpt>
<trkpt lat="49.64172740466893" lon="8.996800342574716">
<ele>219.4</ele>
<time>2024-05-10T12:43:00Z</time>
</trkpt>
<trkpt lat="49.64169303886592" lon="8.996814675629139">
<ele>219.4</ele>
<time>2024-05-10T12:43:01Z</time>
</trkpt>
<trkpt lat="49.64165490120649" lon="8.996828002855182">
<ele>219.6</ele>
<time>2024-05-10T12:43:02Z</time>
</trkpt>
<trkpt lat="49.64161676354706" lon="8.996843257918954">
<ele>219.8</ele>
<time>2024-05-10T12:43:03Z</time>
</trkpt>
<trkpt lat="49.64157862588763" lon="8.996860440820456">
<ele>219.8</ele>
<time>2024-05-10T12:43:04Z</time>
</trkpt>
<trkpt lat="49.6415404882282" lon="8.996878545731306">
<ele>220</ele>
<time>2024-05-10T12:43:05Z</time>
</trkpt>
<trkpt lat="49.64149849489331" lon="8.996894806623459">
<ele>220.2</ele>
<time>2024-05-10T12:43:06Z</time>
</trkpt>
<trkpt lat="49.64146421290934" lon="8.99691198952496">
<ele>220.2</ele>
<time>2024-05-10T12:43:07Z</time>
</trkpt>
<trkpt lat="49.64142607524991" lon="8.996930094435811">
<ele>220.4</ele>
<time>2024-05-10T12:43:08Z</time>
</trkpt>
<trkpt lat="49.64138793759048" lon="8.996943421661854">
<ele>220.4</ele>
<time>2024-05-10T12:43:09Z</time>
</trkpt>
<trkpt lat="49.64135357178748" lon="8.996958676725626">
<ele>220.6</ele>
<time>2024-05-10T12:43:10Z</time>
</trkpt>
<trkpt lat="49.64131920598447" lon="8.996972003951669">
<ele>220.6</ele>
<time>2024-05-10T12:43:11Z</time>
</trkpt>
<trkpt lat="49.64128106832504" lon="8.996990192681551">
<ele>220.6</ele>
<time>2024-05-10T12:43:12Z</time>
</trkpt>
<trkpt lat="49.64124678634107" lon="8.997008297592402">
<ele>220.8</ele>
<time>2024-05-10T12:43:13Z</time>
</trkpt>
<trkpt lat="49.64120864868164" lon="8.997023552656174">
<ele>220.8</ele>
<time>2024-05-10T12:43:14Z</time>
</trkpt>
<trkpt lat="49.64117042720318" lon="8.997039729729295">
<ele>220.8</ele>
<time>2024-05-10T12:43:15Z</time>
</trkpt>
<trkpt lat="49.64113228954375" lon="8.997059762477875">
<ele>220.8</ele>
<time>2024-05-10T12:43:16Z</time>
</trkpt>
<trkpt lat="49.64109415188432" lon="8.997079795226455">
<ele>220.8</ele>
<time>2024-05-10T12:43:17Z</time>
</trkpt>
<trkpt lat="49.64105601422489" lon="8.997099827975035">
<ele>220.8</ele>
<time>2024-05-10T12:43:18Z</time>
</trkpt>
<trkpt lat="49.641017876565456" lon="8.997121788561344">
<ele>220.8</ele>
<time>2024-05-10T12:43:19Z</time>
</trkpt>
<trkpt lat="49.64097588323057" lon="8.997137965634465">
<ele>220.8</ele>
<time>2024-05-10T12:43:20Z</time>
</trkpt>
<trkpt lat="49.64093774557114" lon="8.997157998383045">
<ele>220.8</ele>
<time>2024-05-10T12:43:21Z</time>
</trkpt>
<trkpt lat="49.640899607911706" lon="8.997177109122276">
<ele>220.8</ele>
<time>2024-05-10T12:43:22Z</time>
</trkpt>
<trkpt lat="49.640861470252275" lon="8.997196136042476">
<ele>220.8</ele>
<time>2024-05-10T12:43:23Z</time>
</trkpt>
<trkpt lat="49.640823332592845" lon="8.997215246781707">
<ele>220.8</ele>
<time>2024-05-10T12:43:24Z</time>
</trkpt>
<trkpt lat="49.64078896678984" lon="8.997233351692557">
<ele>221</ele>
<time>2024-05-10T12:43:25Z</time>
</trkpt>
<trkpt lat="49.64075468480587" lon="8.997253384441137">
<ele>221</ele>
<time>2024-05-10T12:43:26Z</time>
</trkpt>
<trkpt lat="49.64072031900287" lon="8.997273417189717">
<ele>221.2</ele>
<time>2024-05-10T12:43:27Z</time>
</trkpt>
<trkpt lat="49.64068595319986" lon="8.997295377776027">
<ele>221.2</ele>
<time>2024-05-10T12:43:28Z</time>
</trkpt>
<trkpt lat="49.64065544307232" lon="8.997315326705575">
<ele>221.4</ele>
<time>2024-05-10T12:43:29Z</time>
</trkpt>
<trkpt lat="49.64062116108835" lon="8.997333515435457">
<ele>221.4</ele>
<time>2024-05-10T12:43:30Z</time>
</trkpt>
<trkpt lat="49.640586795285344" lon="8.997349692508578">
<ele>221.6</ele>
<time>2024-05-10T12:43:31Z</time>
</trkpt>
<trkpt lat="49.64055251330137" lon="8.99736687541008">
<ele>221.6</ele>
<time>2024-05-10T12:43:32Z</time>
</trkpt>
<trkpt lat="49.64051429182291" lon="8.99738498032093">
<ele>221.6</ele>
<time>2024-05-10T12:43:33Z</time>
</trkpt>
<trkpt lat="49.640483781695366" lon="8.997401157394052">
<ele>221.6</ele>
<time>2024-05-10T12:43:34Z</time>
</trkpt>
<trkpt lat="49.640449499711394" lon="8.997414568439126">
<ele>221.8</ele>
<time>2024-05-10T12:43:35Z</time>
</trkpt>
<trkpt lat="49.64041136205197" lon="8.997433595359325">
<ele>221.8</ele>
<time>2024-05-10T12:43:36Z</time>
</trkpt>
<trkpt lat="49.64037322439253" lon="8.997449856251478">
<ele>222</ele>
<time>2024-05-10T12:43:37Z</time>
</trkpt>
<trkpt lat="49.64033500291407" lon="8.997463183477521">
<ele>222</ele>
<time>2024-05-10T12:43:38Z</time>
</trkpt>
<trkpt lat="49.64029686525464" lon="8.997478438541293">
<ele>222.2</ele>
<time>2024-05-10T12:43:39Z</time>
</trkpt>
<trkpt lat="49.64025872759521" lon="8.997493693605065">
<ele>222.2</ele>
<time>2024-05-10T12:43:40Z</time>
</trkpt>
<trkpt lat="49.64022058993578" lon="8.997503248974681">
<ele>222.4</ele>
<time>2024-05-10T12:43:41Z</time>
</trkpt>
<trkpt lat="49.64017868041992" lon="8.997509954497218">
<ele>222.4</ele>
<time>2024-05-10T12:43:42Z</time>
</trkpt>
<trkpt lat="49.64014045894146" lon="8.997516576200724">
<ele>222.6</ele>
<time>2024-05-10T12:43:43Z</time>
</trkpt>
<trkpt lat="49.6400985494256" lon="8.997520431876183">
<ele>222.6</ele>
<time>2024-05-10T12:43:44Z</time>
</trkpt>
<trkpt lat="49.64006041176617" lon="8.99752328172326">
<ele>222.8</ele>
<time>2024-05-10T12:43:45Z</time>
</trkpt>
<trkpt lat="49.64002227410674" lon="8.99752520956099">
<ele>222.8</ele>
<time>2024-05-10T12:43:46Z</time>
</trkpt>
<trkpt lat="49.63998405262828" lon="8.997529903426766">
<ele>223</ele>
<time>2024-05-10T12:43:47Z</time>
</trkpt>
<trkpt lat="49.63994591496885" lon="8.997531831264496">
<ele>223</ele>
<time>2024-05-10T12:43:48Z</time>
</trkpt>
<trkpt lat="49.63990777730942" lon="8.997533759102225">
<ele>223.2</ele>
<time>2024-05-10T12:43:49Z</time>
</trkpt>
<trkpt lat="49.63986586779356" lon="8.997533759102225">
<ele>223.2</ele>
<time>2024-05-10T12:43:50Z</time>
</trkpt>
<trkpt lat="49.6398276463151" lon="8.997533759102225">
<ele>223.4</ele>
<time>2024-05-10T12:43:51Z</time>
</trkpt>
<trkpt lat="49.63978573679924" lon="8.997533759102225">
<ele>223.4</ele>
<time>2024-05-10T12:43:52Z</time>
</trkpt>
<trkpt lat="49.63974759913981" lon="8.997534681111574">
<ele>223.4</ele>
<time>2024-05-10T12:43:53Z</time>
</trkpt>
<trkpt lat="49.63970946148038" lon="8.997538536787033">
<ele>223.4</ele>
<time>2024-05-10T12:43:54Z</time>
</trkpt>
<trkpt lat="49.63966746814549" lon="8.997538536787033">
<ele>223.6</ele>
<time>2024-05-10T12:43:55Z</time>
</trkpt>
<trkpt lat="49.63962933048606" lon="8.997538536787033">
<ele>223.6</ele>
<time>2024-05-10T12:43:56Z</time>
</trkpt>
<trkpt lat="49.63959119282663" lon="8.997536608949304">
<ele>223.8</ele>
<time>2024-05-10T12:43:57Z</time>
</trkpt>
<trkpt lat="49.63954919949174" lon="8.997536608949304">
<ele>223.8</ele>
<time>2024-05-10T12:43:58Z</time>
</trkpt>
<trkpt lat="49.63951106183231" lon="8.997533759102225">
<ele>224</ele>
<time>2024-05-10T12:43:59Z</time>
</trkpt>
<trkpt lat="49.63947292417288" lon="8.997533759102225">
<ele>224</ele>
<time>2024-05-10T12:44:00Z</time>
</trkpt>
<trkpt lat="49.63943478651345" lon="8.997534681111574">
<ele>224</ele>
<time>2024-05-10T12:44:01Z</time>
</trkpt>
<trkpt lat="49.63939664885402" lon="8.997533759102225">
<ele>224.2</ele>
<time>2024-05-10T12:44:02Z</time>
</trkpt>
<trkpt lat="49.63935851119459" lon="8.997529903426766">
<ele>224.2</ele>
<time>2024-05-10T12:44:03Z</time>
</trkpt>
<trkpt lat="49.63932037353515" lon="8.99752520956099">
<ele>224.2</ele>
<time>2024-05-10T12:44:04Z</time>
</trkpt>
<trkpt lat="49.63927838020027" lon="8.997521353885531">
<ele>224.2</ele>
<time>2024-05-10T12:44:05Z</time>
</trkpt>
<trkpt lat="49.63923638686538" lon="8.997514648362994">
<ele>224.2</ele>
<time>2024-05-10T12:44:06Z</time>
</trkpt>
<trkpt lat="49.63919824920595" lon="8.997511798515916">
<ele>224.2</ele>
<time>2024-05-10T12:44:07Z</time>
</trkpt>
<trkpt lat="49.63915633969009" lon="8.997508026659489">
<ele>224.4</ele>
<time>2024-05-10T12:44:08Z</time>
</trkpt>
<trkpt lat="49.63911811821163" lon="8.997503248974681">
<ele>224.4</ele>
<time>2024-05-10T12:44:09Z</time>
</trkpt>
<trkpt lat="49.63907620869577" lon="8.997498471289873">
<ele>224.6</ele>
<time>2024-05-10T12:44:10Z</time>
</trkpt>
<trkpt lat="49.63903807103634" lon="8.997494615614414">
<ele>224.6</ele>
<time>2024-05-10T12:44:11Z</time>
</trkpt>
<trkpt lat="49.63899993337691" lon="8.997493693605065">
<ele>224.8</ele>
<time>2024-05-10T12:44:12Z</time>
</trkpt>
<trkpt lat="49.63895794004202" lon="8.997487993910909">
<ele>224.8</ele>
<time>2024-05-10T12:44:13Z</time>
</trkpt>
<trkpt lat="49.63891594670713" lon="8.997481288388371">
<ele>225</ele>
<time>2024-05-10T12:44:14Z</time>
</trkpt>
<trkpt lat="49.6388778090477" lon="8.997471733018756">
<ele>225</ele>
<time>2024-05-10T12:44:15Z</time>
</trkpt>
<trkpt lat="49.63883204385638" lon="8.997461255639791">
<ele>225</ele>
<time>2024-05-10T12:44:16Z</time>
</trkpt>
<trkpt lat="49.63879005052149" lon="8.997449856251478">
<ele>225.2</ele>
<time>2024-05-10T12:44:17Z</time>
</trkpt>
<trkpt lat="49.638748141005635" lon="8.997441222891212">
<ele>225.4</ele>
<time>2024-05-10T12:44:18Z</time>
</trkpt>
<trkpt lat="49.638710003346205" lon="8.997431751340628">
<ele>225.6</ele>
<time>2024-05-10T12:44:19Z</time>
</trkpt>
<trkpt lat="49.63866423815489" lon="8.99742504581809">
<ele>225.6</ele>
<time>2024-05-10T12:44:20Z</time>
</trkpt>
<trkpt lat="49.638626016676426" lon="8.997420268133283">
<ele>225.8</ele>
<time>2024-05-10T12:44:21Z</time>
</trkpt>
<trkpt lat="49.63858025148511" lon="8.997411718592048">
<ele>226</ele>
<time>2024-05-10T12:44:22Z</time>
</trkpt>
<trkpt lat="49.63853834196925" lon="8.997403085231781">
<ele>226</ele>
<time>2024-05-10T12:44:23Z</time>
</trkpt>
<trkpt lat="49.63849634863436" lon="8.997396463528275">
<ele>226.2</ele>
<time>2024-05-10T12:44:24Z</time>
</trkpt>
<trkpt lat="49.63845435529947" lon="8.997391685843468">
<ele>226.2</ele>
<time>2024-05-10T12:44:25Z</time>
</trkpt>
<trkpt lat="49.638412445783615" lon="8.997391685843468">
<ele>226.2</ele>
<time>2024-05-10T12:44:26Z</time>
</trkpt>
<trkpt lat="49.6383666805923" lon="8.99738883599639">
<ele>226.2</ele>
<time>2024-05-10T12:44:27Z</time>
</trkpt>
<trkpt lat="49.63832091540098" lon="8.99738498032093">
<ele>226.4</ele>
<time>2024-05-10T12:44:28Z</time>
</trkpt>
<trkpt lat="49.638275066390634" lon="8.997383052483201">
<ele>226.4</ele>
<time>2024-05-10T12:44:29Z</time>
</trkpt>
<trkpt lat="49.638233156874776" lon="8.997381208464503">
<ele>226.4</ele>
<time>2024-05-10T12:44:30Z</time>
</trkpt>
<trkpt lat="49.638183536008" lon="8.997371653094888">
<ele>226.4</ele>
<time>2024-05-10T12:44:31Z</time>
</trkpt>
<trkpt lat="49.63813399896026" lon="8.997360169887543">
<ele>226.4</ele>
<time>2024-05-10T12:44:32Z</time>
</trkpt>
<trkpt lat="49.63808437809348" lon="8.997349692508578">
<ele>226.4</ele>
<time>2024-05-10T12:44:33Z</time>
</trkpt>
<trkpt lat="49.638034757226706" lon="8.997338293120265">
<ele>226.4</ele>
<time>2024-05-10T12:44:34Z</time>
</trkpt>
<trkpt lat="49.6379813645035" lon="8.997329659759998">
<ele>226.4</ele>
<time>2024-05-10T12:44:35Z</time>
</trkpt>
<trkpt lat="49.63793174363673" lon="8.99732488207519">
<ele>226.4</ele>
<time>2024-05-10T12:44:36Z</time>
</trkpt>
<trkpt lat="49.637878350913525" lon="8.997322032228112">
<ele>226.4</ele>
<time>2024-05-10T12:44:37Z</time>
</trkpt>
<trkpt lat="49.63782881386578" lon="8.997316332533956">
<ele>226.4</ele>
<time>2024-05-10T12:44:38Z</time>
</trkpt>
<trkpt lat="49.637779192999005" lon="8.997315326705575">
<ele>226.4</ele>
<time>2024-05-10T12:44:39Z</time>
</trkpt>
<trkpt lat="49.6377258002758" lon="8.997316332533956">
<ele>226.4</ele>
<time>2024-05-10T12:44:40Z</time>
</trkpt>
<trkpt lat="49.6376724075526" lon="8.997320104390383">
<ele>226.4</ele>
<time>2024-05-10T12:44:41Z</time>
</trkpt>
<trkpt lat="49.6376190148294" lon="8.99732680991292">
<ele>226.2</ele>
<time>2024-05-10T12:44:42Z</time>
</trkpt>
<trkpt lat="49.63756939396262" lon="8.997336365282536">
<ele>226.2</ele>
<time>2024-05-10T12:44:43Z</time>
</trkpt>
<trkpt lat="49.637519773095846" lon="8.997354470193386">
<ele>226</ele>
<time>2024-05-10T12:44:44Z</time>
</trkpt>
<trkpt lat="49.63747786357999" lon="8.997376430779696">
<ele>225.8</ele>
<time>2024-05-10T12:44:45Z</time>
</trkpt>
<trkpt lat="49.63743209838867" lon="8.997401157394052">
<ele>225.8</ele>
<time>2024-05-10T12:44:46Z</time>
</trkpt>
<trkpt lat="49.63738624937832" lon="8.997427895665169">
<ele>225.6</ele>
<time>2024-05-10T12:44:47Z</time>
</trkpt>
<trkpt lat="49.637344339862466" lon="8.997454633936286">
<ele>225.6</ele>
<time>2024-05-10T12:44:48Z</time>
</trkpt>
<trkpt lat="49.637302346527576" lon="8.997483216226101">
<ele>225.4</ele>
<time>2024-05-10T12:44:49Z</time>
</trkpt>
<trkpt lat="49.63726043701172" lon="8.997516576200724">
<ele>225.4</ele>
<time>2024-05-10T12:44:50Z</time>
</trkpt>
<trkpt lat="49.63722221553326" lon="8.997552869841456">
<ele>225.2</ele>
<time>2024-05-10T12:44:51Z</time>
</trkpt>
<trkpt lat="49.637184077873826" lon="8.997591929510236">
<ele>225.2</ele>
<time>2024-05-10T12:44:52Z</time>
</trkpt>
<trkpt lat="49.6371459402144" lon="8.997628139331937">
<ele>225.2</ele>
<time>2024-05-10T12:44:53Z</time>
</trkpt>
<trkpt lat="49.637107802554965" lon="8.997665354982018">
<ele>225.2</ele>
<time>2024-05-10T12:44:54Z</time>
</trkpt>
<trkpt lat="49.637069664895535" lon="8.997706342488527">
<ele>225</ele>
<time>2024-05-10T12:44:55Z</time>
</trkpt>
<trkpt lat="49.637031527236104" lon="8.997746407985687">
<ele>225</ele>
<time>2024-05-10T12:44:56Z</time>
</trkpt>
<trkpt lat="49.6369971614331" lon="8.997788401320577">
<ele>225</ele>
<time>2024-05-10T12:44:57Z</time>
</trkpt>
<trkpt lat="49.63696287944913" lon="8.997828466817737">
<ele>225</ele>
<time>2024-05-10T12:44:58Z</time>
</trkpt>
<trkpt lat="49.636928513646126" lon="8.997868532314897">
<ele>225</ele>
<time>2024-05-10T12:44:59Z</time>
</trkpt>
<trkpt lat="49.63689414784312" lon="8.997906669974327">
<ele>225</ele>
<time>2024-05-10T12:45:00Z</time>
</trkpt>
<trkpt lat="49.63685986585915" lon="8.997944807633758">
<ele>225</ele>
<time>2024-05-10T12:45:01Z</time>
</trkpt>
<trkpt lat="49.63682550005615" lon="8.997984873130918">
<ele>225</ele>
<time>2024-05-10T12:45:02Z</time>
</trkpt>
<trkpt lat="49.636791218072176" lon="8.998023010790348">
<ele>225</ele>
<time>2024-05-10T12:45:03Z</time>
</trkpt>
<trkpt lat="49.63675685226917" lon="8.998064920306206">
<ele>225</ele>
<time>2024-05-10T12:45:04Z</time>
</trkpt>
<trkpt lat="49.63672634214163" lon="8.998106913641095">
<ele>224.8</ele>
<time>2024-05-10T12:45:05Z</time>
</trkpt>
<trkpt lat="49.636691976338625" lon="8.998147901147604">
<ele>224.8</ele>
<time>2024-05-10T12:45:06Z</time>
</trkpt>
<trkpt lat="49.63666146621108" lon="8.998187966644764">
<ele>224.6</ele>
<time>2024-05-10T12:45:07Z</time>
</trkpt>
<trkpt lat="49.636630956083536" lon="8.998229959979653">
<ele>224.6</ele>
<time>2024-05-10T12:45:08Z</time>
</trkpt>
<trkpt lat="49.63660044595599" lon="8.998268097639084">
<ele>224.6</ele>
<time>2024-05-10T12:45:09Z</time>
</trkpt>
<trkpt lat="49.636573791503906" lon="8.998305313289165">
<ele>224.4</ele>
<time>2024-05-10T12:45:10Z</time>
</trkpt>
<trkpt lat="49.63654705323279" lon="8.998338673263788">
<ele>224.4</ele>
<time>2024-05-10T12:45:11Z</time>
</trkpt>
<trkpt lat="49.63652794249356" lon="8.998365327715874">
<ele>224.2</ele>
<time>2024-05-10T12:45:12Z</time>
</trkpt>
<trkpt lat="49.6365050598979" lon="8.998392065986991">
<ele>224.2</ele>
<time>2024-05-10T12:45:13Z</time>
</trkpt>
<trkpt lat="49.6364860329777" lon="8.99841494858265">
<ele>224.2</ele>
<time>2024-05-10T12:45:14Z</time>
</trkpt>
<trkpt lat="49.63647077791393" lon="8.998436909168959">
<ele>224</ele>
<time>2024-05-10T12:45:15Z</time>
</trkpt>
<trkpt lat="49.6364516671747" lon="8.998457863926888">
<ele>224</ele>
<time>2024-05-10T12:45:16Z</time>
</trkpt>
<trkpt lat="49.6364326402545" lon="8.998476974666119">
<ele>224</ele>
<time>2024-05-10T12:45:17Z</time>
</trkpt>
<trkpt lat="49.636413529515266" lon="8.99849315173924">
<ele>224.2</ele>
<time>2024-05-10T12:45:18Z</time>
</trkpt>
<trkpt lat="49.636394418776035" lon="8.998510334640741">
<ele>224.2</ele>
<time>2024-05-10T12:45:19Z</time>
</trkpt>
<trkpt lat="49.63637916371226" lon="8.998530367389321">
<ele>224.2</ele>
<time>2024-05-10T12:45:20Z</time>
</trkpt>
<trkpt lat="49.636360136792064" lon="8.998546544462442">
<ele>224.2</ele>
<time>2024-05-10T12:45:21Z</time>
</trkpt>
<trkpt lat="49.63634488172829" lon="8.998561799526215">
<ele>224.2</ele>
<time>2024-05-10T12:45:22Z</time>
</trkpt>
<trkpt lat="49.63633339852095" lon="8.998575210571289">
<ele>224</ele>
<time>2024-05-10T12:45:23Z</time>
</trkpt>
<trkpt lat="49.63632199913263" lon="8.998588537797332">
<ele>224</ele>
<time>2024-05-10T12:45:24Z</time>
</trkpt>
<trkpt lat="49.63631051592529" lon="8.998601865023375">
<ele>223.8</ele>
<time>2024-05-10T12:45:25Z</time>
</trkpt>
<trkpt lat="49.636299116536975" lon="8.998615192249417">
<ele>223.6</ele>
<time>2024-05-10T12:45:26Z</time>
</trkpt>
<trkpt lat="49.63628763332963" lon="8.998626675456762">
<ele>223.6</ele>
<time>2024-05-10T12:45:27Z</time>
</trkpt>
<trkpt lat="49.63627623394132" lon="8.998641930520535">
<ele>223.4</ele>
<time>2024-05-10T12:45:28Z</time>
</trkpt>
<trkpt lat="49.636260978877544" lon="8.998660035431385">
<ele>223.4</ele>
<time>2024-05-10T12:45:29Z</time>
</trkpt>
<trkpt lat="49.63625335134566" lon="8.998675290495157">
<ele>223.2</ele>
<time>2024-05-10T12:45:30Z</time>
</trkpt>
<trkpt lat="49.636238096281886" lon="8.99869155138731">
<ele>223.2</ele>
<time>2024-05-10T12:45:31Z</time>
</trkpt>
<trkpt lat="49.63622661307454" lon="8.99870865046978">
<ele>223</ele>
<time>2024-05-10T12:45:32Z</time>
</trkpt>
<trkpt lat="49.6362151298672" lon="8.998726839199662">
<ele>222.8</ele>
<time>2024-05-10T12:45:33Z</time>
</trkpt>
<trkpt lat="49.636199874803424" lon="8.998743016272783">
<ele>222.8</ele>
<time>2024-05-10T12:45:34Z</time>
</trkpt>
<trkpt lat="49.63618847541511" lon="8.998758271336555">
<ele>222.6</ele>
<time>2024-05-10T12:45:35Z</time>
</trkpt>
<trkpt lat="49.63617322035134" lon="8.998773526400328">
<ele>222.6</ele>
<time>2024-05-10T12:45:36Z</time>
</trkpt>
<trkpt lat="49.636157965287566" lon="8.998781153932214">
<ele>222.4</ele>
<time>2024-05-10T12:45:37Z</time>
</trkpt>
<trkpt lat="49.636138854548335" lon="8.998778304085135">
<ele>222.4</ele>
<time>2024-05-10T12:45:38Z</time>
</trkpt>
<trkpt lat="49.636119827628136" lon="8.998758271336555">
<ele>222.4</ele>
<time>2024-05-10T12:45:39Z</time>
</trkpt>
<trkpt lat="49.636100716888905" lon="8.998736310750246">
<ele>222.2</ele>
<time>2024-05-10T12:45:40Z</time>
</trkpt>
<trkpt lat="49.63608546182513" lon="8.998716278001666">
<ele>222.2</ele>
<time>2024-05-10T12:45:41Z</time>
</trkpt>
<trkpt lat="49.63607020676136" lon="8.998702950775623">
<ele>222</ele>
<time>2024-05-10T12:45:42Z</time>
</trkpt>
<trkpt lat="49.63605495169759" lon="8.998693395406008">
<ele>222</ele>
<time>2024-05-10T12:45:43Z</time>
</trkpt>
<trkpt lat="49.636039696633816" lon="8.998698173090816">
<ele>221.8</ele>
<time>2024-05-10T12:45:44Z</time>
</trkpt>
<trkpt lat="49.63600533083081" lon="8.998753493651748">
<ele>221.8</ele>
<time>2024-05-10T12:45:45Z</time>
</trkpt>
<trkpt lat="49.63597482070327" lon="8.998780231922865">
<ele>221.8</ele>
<time>2024-05-10T12:45:46Z</time>
</trkpt>
<trkpt lat="49.6359405387193" lon="8.998794481158257">
<ele>221.6</ele>
<time>2024-05-10T12:45:47Z</time>
</trkpt>
<trkpt lat="49.63591002859175" lon="8.998796408995986">
<ele>221.6</ele>
<time>2024-05-10T12:45:48Z</time>
</trkpt>
<trkpt lat="49.635883290320635" lon="8.998785009607673">
<ele>221.6</ele>
<time>2024-05-10T12:45:49Z</time>
</trkpt>
<trkpt lat="49.63586040772498" lon="8.9987697545439">
<ele>221.6</ele>
<time>2024-05-10T12:45:50Z</time>
</trkpt>
<trkpt lat="49.6358451526612" lon="8.998753493651748">
<ele>221.6</ele>
<time>2024-05-10T12:45:51Z</time>
</trkpt>
<trkpt lat="49.63583366945386" lon="8.998735388740897">
<ele>221.4</ele>
<time>2024-05-10T12:45:52Z</time>
</trkpt>
<trkpt lat="49.63582604192197" lon="8.99871158413589">
<ele>221.4</ele>
<time>2024-05-10T12:45:53Z</time>
</trkpt>
<trkpt lat="49.63581841439009" lon="8.998693395406008">
<ele>221.4</ele>
<time>2024-05-10T12:45:54Z</time>
</trkpt>
<trkpt lat="49.635803159326315" lon="8.998676296323538">
<ele>221.2</ele>
<time>2024-05-10T12:45:55Z</time>
</trkpt>
<trkpt lat="49.635791759938" lon="8.998653329908848">
<ele>221.2</ele>
<time>2024-05-10T12:45:56Z</time>
</trkpt>
<trkpt lat="49.63578027673066" lon="8.998635224997997">
<ele>221.4</ele>
<time>2024-05-10T12:45:57Z</time>
</trkpt>
<trkpt lat="49.63576502166688" lon="8.998615192249417">
<ele>221.4</ele>
<time>2024-05-10T12:45:58Z</time>
</trkpt>
<trkpt lat="49.635745994746685" lon="8.998586609959602">
<ele>221.4</ele>
<time>2024-05-10T12:45:59Z</time>
</trkpt>
<trkpt lat="49.63571925647557" lon="8.99855132214725">
<ele>221.4</ele>
<time>2024-05-10T12:46:00Z</time>
</trkpt>
<trkpt lat="49.63569637387991" lon="8.998508406803012">
<ele>221.6</ele>
<time>2024-05-10T12:46:01Z</time>
</trkpt>
<trkpt lat="49.63566963560879" lon="8.998459791764617">
<ele>221.6</ele>
<time>2024-05-10T12:46:02Z</time>
</trkpt>
<trkpt lat="49.635646753013134" lon="8.99841302074492">
<ele>221.6</ele>
<time>2024-05-10T12:46:03Z</time>
</trkpt>
<trkpt lat="49.63562009856105" lon="8.998370105400681">
<ele>221.6</ele>
<time>2024-05-10T12:46:04Z</time>
</trkpt>
<trkpt lat="49.63559336028993" lon="8.998321490362287">
<ele>221.6</ele>
<time>2024-05-10T12:46:05Z</time>
</trkpt>
<trkpt lat="49.63557047769427" lon="8.998271869495511">
<ele>221.8</ele>
<time>2024-05-10T12:46:06Z</time>
</trkpt>
<trkpt lat="49.63554382324219" lon="8.998218476772308">
<ele>221.8</ele>
<time>2024-05-10T12:46:07Z</time>
</trkpt>
<trkpt lat="49.63551708497107" lon="8.998167011886835">
<ele>221.8</ele>
<time>2024-05-10T12:46:08Z</time>
</trkpt>
<trkpt lat="49.63549034669995" lon="8.998114541172981">
<ele>222</ele>
<time>2024-05-10T12:46:09Z</time>
</trkpt>
<trkpt lat="49.63545983657241" lon="8.998066848143935">
<ele>222</ele>
<time>2024-05-10T12:46:10Z</time>
</trkpt>
<trkpt lat="49.63542555458844" lon="8.99801823310554">
<ele>222</ele>
<time>2024-05-10T12:46:11Z</time>
</trkpt>
<trkpt lat="49.63539504446089" lon="8.99797623977065">
<ele>222</ele>
<time>2024-05-10T12:46:12Z</time>
</trkpt>
<trkpt lat="49.635353051126" lon="8.997936174273491">
<ele>222.2</ele>
<time>2024-05-10T12:46:13Z</time>
</trkpt>
<trkpt lat="49.63531491346657" lon="8.997904742136598">
<ele>222.2</ele>
<time>2024-05-10T12:46:14Z</time>
</trkpt>
<trkpt lat="49.63527677580714" lon="8.99787993170321">
<ele>222.4</ele>
<time>2024-05-10T12:46:15Z</time>
</trkpt>
<trkpt lat="49.635250037536025" lon="8.9978579711169">
<ele>222.4</ele>
<time>2024-05-10T12:46:16Z</time>
</trkpt>
<trkpt lat="49.63521952740848" lon="8.99783986620605">
<ele>222.6</ele>
<time>2024-05-10T12:46:17Z</time>
</trkpt>
<trkpt lat="49.63519278913736" lon="8.997824611142278">
<ele>222.6</ele>
<time>2024-05-10T12:46:18Z</time>
</trkpt>
<trkpt lat="49.63516613468528" lon="8.997808434069157">
<ele>222.8</ele>
<time>2024-05-10T12:46:19Z</time>
</trkpt>
<trkpt lat="49.63513939641416" lon="8.997793179005384">
<ele>222.8</ele>
<time>2024-05-10T12:46:20Z</time>
</trkpt>
<trkpt lat="49.635108886286616" lon="8.997784545645118">
<ele>223</ele>
<time>2024-05-10T12:46:21Z</time>
</trkpt>
<trkpt lat="49.63507837615907" lon="8.997771218419075">
<ele>223</ele>
<time>2024-05-10T12:46:22Z</time>
</trkpt>
<trkpt lat="49.635051721706986" lon="8.997756885364652">
<ele>223</ele>
<time>2024-05-10T12:46:23Z</time>
</trkpt>
<trkpt lat="49.63501735590398" lon="8.99774163030088">
<ele>223.2</ele>
<time>2024-05-10T12:46:24Z</time>
</trkpt>
<trkpt lat="49.634990617632866" lon="8.997728303074837">
<ele>223.2</ele>
<time>2024-05-10T12:46:25Z</time>
</trkpt>
<trkpt lat="49.63496396318078" lon="8.997716903686523">
<ele>223.2</ele>
<time>2024-05-10T12:46:26Z</time>
</trkpt>
<trkpt lat="49.63493345305323" lon="8.997706342488527">
<ele>223.2</ele>
<time>2024-05-10T12:46:27Z</time>
</trkpt>
<trkpt lat="49.63490671478212" lon="8.997694943100214">
<ele>223.4</ele>
<time>2024-05-10T12:46:28Z</time>
</trkpt>
<trkpt lat="49.63487243279815" lon="8.997683459892869">
<ele>223.4</ele>
<time>2024-05-10T12:46:29Z</time>
</trkpt>
<trkpt lat="49.634838066995144" lon="8.997666276991367">
<ele>223.4</ele>
<time>2024-05-10T12:46:30Z</time>
</trkpt>
<trkpt lat="49.63479992933571" lon="8.997650099918246">
<ele>223.2</ele>
<time>2024-05-10T12:46:31Z</time>
</trkpt>
<trkpt lat="49.63476556353271" lon="8.997632917016745">
<ele>223.2</ele>
<time>2024-05-10T12:46:32Z</time>
</trkpt>
<trkpt lat="49.63473128154874" lon="8.997612884268165">
<ele>223</ele>
<time>2024-05-10T12:46:33Z</time>
</trkpt>
<trkpt lat="49.634696915745735" lon="8.997596707195044">
<ele>223</ele>
<time>2024-05-10T12:46:34Z</time>
</trkpt>
<trkpt lat="49.63466254994273" lon="8.997579524293542">
<ele>223</ele>
<time>2024-05-10T12:46:35Z</time>
</trkpt>
<trkpt lat="49.63462826795876" lon="8.997561419382691">
<ele>222.8</ele>
<time>2024-05-10T12:46:36Z</time>
</trkpt>
<trkpt lat="49.634597757831216" lon="8.99754331447184">
<ele>222.8</ele>
<time>2024-05-10T12:46:37Z</time>
</trkpt>
<trkpt lat="49.63456724770367" lon="8.997528059408069">
<ele>222.8</ele>
<time>2024-05-10T12:46:38Z</time>
</trkpt>
<trkpt lat="49.63453673757613" lon="8.997509954497218">
<ele>222.8</ele>
<time>2024-05-10T12:46:39Z</time>
</trkpt>
<trkpt lat="49.63450999930501" lon="8.997491765767336">
<ele>223</ele>
<time>2024-05-10T12:46:40Z</time>
</trkpt>
<trkpt lat="49.63448326103389" lon="8.997473660856485">
<ele>223</ele>
<time>2024-05-10T12:46:41Z</time>
</trkpt>
<trkpt lat="49.63445660658181" lon="8.997454633936286">
<ele>223.2</ele>
<time>2024-05-10T12:46:42Z</time>
</trkpt>
<trkpt lat="49.63442986831069" lon="8.997433595359325">
<ele>223.2</ele>
<time>2024-05-10T12:46:43Z</time>
</trkpt>
<trkpt lat="49.63440321385861" lon="8.997413562610745">
<ele>223.4</ele>
<time>2024-05-10T12:46:44Z</time>
</trkpt>
<trkpt lat="49.63437647558749" lon="8.997389758005738">
<ele>223.4</ele>
<time>2024-05-10T12:46:45Z</time>
</trkpt>
<trkpt lat="49.6343498211354" lon="8.99736494757235">
<ele>223.4</ele>
<time>2024-05-10T12:46:46Z</time>
</trkpt>
<trkpt lat="49.634323082864285" lon="8.997338293120265">
<ele>223.4</ele>
<time>2024-05-10T12:46:47Z</time>
</trkpt>
<trkpt lat="49.63429634459317" lon="8.997311554849148">
<ele>223.6</ele>
<time>2024-05-10T12:46:48Z</time>
</trkpt>
<trkpt lat="49.63427346199751" lon="8.99728481657803">
<ele>223.6</ele>
<time>2024-05-10T12:46:49Z</time>
</trkpt>
<trkpt lat="49.63424680754542" lon="8.997258162125945">
<ele>223.8</ele>
<time>2024-05-10T12:46:50Z</time>
</trkpt>
<trkpt lat="49.63422769680619" lon="8.997235279530287">
<ele>223.8</ele>
<time>2024-05-10T12:46:51Z</time>
</trkpt>
<trkpt lat="49.634204814210534" lon="8.997204769402742">
<ele>223.8</ele>
<time>2024-05-10T12:46:52Z</time>
</trkpt>
<trkpt lat="49.63417815975845" lon="8.997175181284547">
<ele>224</ele>
<time>2024-05-10T12:46:53Z</time>
</trkpt>
<trkpt lat="49.63415519334376" lon="8.997146598994732">
<ele>224</ele>
<time>2024-05-10T12:46:54Z</time>
</trkpt>
<trkpt lat="49.63412853889167" lon="8.997117932885885">
<ele>224.2</ele>
<time>2024-05-10T12:46:55Z</time>
</trkpt>
<trkpt lat="49.634105656296015" lon="8.99709027260542">
<ele>224.2</ele>
<time>2024-05-10T12:46:56Z</time>
</trkpt>
<trkpt lat="49.63408277370036" lon="8.997064540162683">
<ele>224.4</ele>
<time>2024-05-10T12:46:57Z</time>
</trkpt>
<trkpt lat="49.6340598911047" lon="8.997036879882216">
<ele>224.4</ele>
<time>2024-05-10T12:46:58Z</time>
</trkpt>
<trkpt lat="49.63403315283358" lon="8.997006369754672">
<ele>224.4</ele>
<time>2024-05-10T12:46:59Z</time>
</trkpt>
<trkpt lat="49.634006498381495" lon="8.996979631483555">
<ele>224.6</ele>
<time>2024-05-10T12:47:00Z</time>
</trkpt>
<trkpt lat="49.63397976011038" lon="8.99695297703147">
<ele>224.6</ele>
<time>2024-05-10T12:47:01Z</time>
</trkpt>
<trkpt lat="49.63395302183926" lon="8.996926238760352">
<ele>224.6</ele>
<time>2024-05-10T12:47:02Z</time>
</trkpt>
<trkpt lat="49.633926367387176" lon="8.996901512145996">
<ele>224.6</ele>
<time>2024-05-10T12:47:03Z</time>
</trkpt>
<trkpt lat="49.63389585725963" lon="8.996878545731306">
<ele>224.8</ele>
<time>2024-05-10T12:47:04Z</time>
</trkpt>
<trkpt lat="49.63386534713209" lon="8.996858596801758">
<ele>224.8</ele>
<time>2024-05-10T12:47:05Z</time>
</trkpt>
<trkpt lat="49.63383860886097" lon="8.996834708377719">
<ele>225</ele>
<time>2024-05-10T12:47:06Z</time>
</trkpt>
<trkpt lat="49.633808098733425" lon="8.996814675629139">
<ele>225</ele>
<time>2024-05-10T12:47:07Z</time>
</trkpt>
<trkpt lat="49.63377758860588" lon="8.996798498556018">
<ele>225</ele>
<time>2024-05-10T12:47:08Z</time>
</trkpt>
<trkpt lat="49.633747078478336" lon="8.996787015348673">
<ele>225.2</ele>
<time>2024-05-10T12:47:09Z</time>
</trkpt>
<trkpt lat="49.63371271267533" lon="8.996778465807438">
<ele>225.2</ele>
<time>2024-05-10T12:47:10Z</time>
</trkpt>
<trkpt lat="49.6336745750159" lon="8.99677368812263">
<ele>225.4</ele>
<time>2024-05-10T12:47:11Z</time>
</trkpt>
<trkpt lat="49.63363643735647" lon="8.996766982600093">
<ele>225.4</ele>
<time>2024-05-10T12:47:12Z</time>
</trkpt>
<trkpt lat="49.63359829969704" lon="8.996763210743666">
<ele>225.6</ele>
<time>2024-05-10T12:47:13Z</time>
</trkpt>
<trkpt lat="49.63355630636215" lon="8.996767988428473">
<ele>225.6</ele>
<time>2024-05-10T12:47:14Z</time>
</trkpt>
<trkpt lat="49.633514396846294" lon="8.996780393645167">
<ele>225.6</ele>
<time>2024-05-10T12:47:15Z</time>
</trkpt>
<trkpt lat="49.633468547835946" lon="8.99679372087121">
<ele>225.8</ele>
<time>2024-05-10T12:47:16Z</time>
</trkpt>
<trkpt lat="49.63342278264463" lon="8.996807048097253">
<ele>225.8</ele>
<time>2024-05-10T12:47:17Z</time>
</trkpt>
<trkpt lat="49.633373245596886" lon="8.996818531304598">
<ele>225.8</ele>
<time>2024-05-10T12:47:18Z</time>
</trkpt>
<trkpt lat="49.63331985287368" lon="8.996826158836484">
<ele>225.8</ele>
<time>2024-05-10T12:47:19Z</time>
</trkpt>
<trkpt lat="49.63327023200691" lon="8.99683185853064">
<ele>225.8</ele>
<time>2024-05-10T12:47:20Z</time>
</trkpt>
<trkpt lat="49.633212983608246" lon="8.99683185853064">
<ele>225.8</ele>
<time>2024-05-10T12:47:21Z</time>
</trkpt>
<trkpt lat="49.633155819028616" lon="8.996829930692911">
<ele>225.6</ele>
<time>2024-05-10T12:47:22Z</time>
</trkpt>
<trkpt lat="49.633098570629954" lon="8.996825153008103">
<ele>225.6</ele>
<time>2024-05-10T12:47:23Z</time>
</trkpt>
<trkpt lat="49.63304132223129" lon="8.996807970106602">
<ele>225.6</ele>
<time>2024-05-10T12:47:24Z</time>
</trkpt>
<trkpt lat="49.63298792950809" lon="8.99679372087121">
<ele>225.6</ele>
<time>2024-05-10T12:47:25Z</time>
</trkpt>
<trkpt lat="49.63293068110943" lon="8.996781315654516">
<ele>225.6</ele>
<time>2024-05-10T12:47:26Z</time>
</trkpt>
<trkpt lat="49.6328735165298" lon="8.9967717602849">
<ele>225.6</ele>
<time>2024-05-10T12:47:27Z</time>
</trkpt>
<trkpt lat="49.63282012380659" lon="8.996763210743666">
<ele>225.6</ele>
<time>2024-05-10T12:47:28Z</time>
</trkpt>
<trkpt lat="49.63276664726436" lon="8.996754577383399">
<ele>225.6</ele>
<time>2024-05-10T12:47:29Z</time>
</trkpt>
<trkpt lat="49.63270948268473" lon="8.996743177995086">
<ele>225.6</ele>
<time>2024-05-10T12:47:30Z</time>
</trkpt>
<trkpt lat="49.63265608996153" lon="8.996727922931314">
<ele>225.6</ele>
<time>2024-05-10T12:47:31Z</time>
</trkpt>
<trkpt lat="49.63260646909475" lon="8.996714511886239">
<ele>225.6</ele>
<time>2024-05-10T12:47:32Z</time>
</trkpt>
<trkpt lat="49.63255307637155" lon="8.996701184660196">
<ele>225.6</ele>
<time>2024-05-10T12:47:33Z</time>
</trkpt>
<trkpt lat="49.632507311180234" lon="8.99669162929058">
<ele>225.6</ele>
<time>2024-05-10T12:47:34Z</time>
</trkpt>
<trkpt lat="49.63246154598892" lon="8.996681151911616">
<ele>225.4</ele>
<time>2024-05-10T12:47:35Z</time>
</trkpt>
<trkpt lat="49.63241569697857" lon="8.996671596542">
<ele>225.4</ele>
<time>2024-05-10T12:47:36Z</time>
</trkpt>
<trkpt lat="49.63237378746271" lon="8.996663047000766">
<ele>225.4</ele>
<time>2024-05-10T12:47:37Z</time>
</trkpt>
<trkpt lat="49.63233179412782" lon="8.99665449745953">
<ele>225.4</ele>
<time>2024-05-10T12:47:38Z</time>
</trkpt>
<trkpt lat="49.63228988461197" lon="8.996644942089915">
<ele>225.4</ele>
<time>2024-05-10T12:47:39Z</time>
</trkpt>
<trkpt lat="49.632247891277075" lon="8.996636308729649">
<ele>225.4</ele>
<time>2024-05-10T12:47:40Z</time>
</trkpt>
<trkpt lat="49.63220975361765" lon="8.996626837179065">
<ele>225.4</ele>
<time>2024-05-10T12:47:41Z</time>
</trkpt>
<trkpt lat="49.632167760282755" lon="8.9966163598001">
<ele>225.4</ele>
<time>2024-05-10T12:47:42Z</time>
</trkpt>
<trkpt lat="49.63213347829878" lon="8.996602948755026">
<ele>225.4</ele>
<time>2024-05-10T12:47:43Z</time>
</trkpt>
<trkpt lat="49.63209525682032" lon="8.996589621528983">
<ele>225.6</ele>
<time>2024-05-10T12:47:44Z</time>
</trkpt>
<trkpt lat="49.63205711916089" lon="8.99657629430294">
<ele>225.6</ele>
<time>2024-05-10T12:47:45Z</time>
</trkpt>
<trkpt lat="49.63201898150146" lon="8.996562883257866">
<ele>225.8</ele>
<time>2024-05-10T12:47:46Z</time>
</trkpt>
<trkpt lat="49.6319770719856" lon="8.996544778347015">
<ele>225.8</ele>
<time>2024-05-10T12:47:47Z</time>
</trkpt>
<trkpt lat="49.6319427061826" lon="8.996521895751357">
<ele>225.8</ele>
<time>2024-05-10T12:47:48Z</time>
</trkpt>
<trkpt lat="49.63190071284771" lon="8.99649616330862">
<ele>225.8</ele>
<time>2024-05-10T12:47:49Z</time>
</trkpt>
<trkpt lat="49.63186257518828" lon="8.996475208550692">
<ele>225.8</ele>
<time>2024-05-10T12:47:50Z</time>
</trkpt>
<trkpt lat="49.63182066567242" lon="8.996450398117304">
<ele>226</ele>
<time>2024-05-10T12:47:51Z</time>
</trkpt>
<trkpt lat="49.63177867233753" lon="8.996426509693265">
<ele>226</ele>
<time>2024-05-10T12:47:52Z</time>
</trkpt>
<trkpt lat="49.6317405346781" lon="8.996406476944685">
<ele>226</ele>
<time>2024-05-10T12:47:53Z</time>
</trkpt>
<trkpt lat="49.63169854134321" lon="8.996388372033834">
<ele>226</ele>
<time>2024-05-10T12:47:54Z</time>
</trkpt>
<trkpt lat="49.631656631827354" lon="8.996375044807792">
<ele>226</ele>
<time>2024-05-10T12:47:55Z</time>
</trkpt>
<trkpt lat="49.631614638492465" lon="8.996366495266557">
<ele>226</ele>
<time>2024-05-10T12:47:56Z</time>
</trkpt>
<trkpt lat="49.63156887330115" lon="8.996361717581749">
<ele>226</ele>
<time>2024-05-10T12:47:57Z</time>
</trkpt>
<trkpt lat="49.63152310810983" lon="8.996356939896941">
<ele>226</ele>
<time>2024-05-10T12:47:58Z</time>
</trkpt>
<trkpt lat="49.63148111477494" lon="8.99635978974402">
<ele>226</ele>
<time>2024-05-10T12:47:59Z</time>
</trkpt>
<trkpt lat="49.631435349583626" lon="8.996363561600447">
<ele>226</ele>
<time>2024-05-10T12:48:00Z</time>
</trkpt>
<trkpt lat="49.631393356248736" lon="8.996376972645521">
<ele>226.2</ele>
<time>2024-05-10T12:48:01Z</time>
</trkpt>
<trkpt lat="49.63134759105742" lon="8.99639792740345">
<ele>226.2</ele>
<time>2024-05-10T12:48:02Z</time>
</trkpt>
<trkpt lat="49.63130568154156" lon="8.996423659846187">
<ele>226.2</ele>
<time>2024-05-10T12:48:03Z</time>
</trkpt>
<trkpt lat="49.63126754388213" lon="8.996446542441845">
<ele>226.2</ele>
<time>2024-05-10T12:48:04Z</time>
</trkpt>
<trkpt lat="49.63122555054724" lon="8.996468503028154">
<ele>226.2</ele>
<time>2024-05-10T12:48:05Z</time>
</trkpt>
<trkpt lat="49.63118741288781" lon="8.996491385623813">
<ele>226.2</ele>
<time>2024-05-10T12:48:06Z</time>
</trkpt>
<trkpt lat="49.63114927522838" lon="8.9965161960572">
<ele>226</ele>
<time>2024-05-10T12:48:07Z</time>
</trkpt>
<trkpt lat="49.63110728189349" lon="8.996540000662208">
<ele>226</ele>
<time>2024-05-10T12:48:08Z</time>
</trkpt>
<trkpt lat="49.6310652885586" lon="8.996564811095595">
<ele>226</ele>
<time>2024-05-10T12:48:09Z</time>
</trkpt>
<trkpt lat="49.631023379042745" lon="8.996581993997097">
<ele>226</ele>
<time>2024-05-10T12:48:10Z</time>
</trkpt>
<trkpt lat="49.63097761385143" lon="8.99659632705152">
<ele>226</ele>
<time>2024-05-10T12:48:11Z</time>
</trkpt>
<trkpt lat="49.63093184866011" lon="8.996606804430485">
<ele>226</ele>
<time>2024-05-10T12:48:12Z</time>
</trkpt>
<trkpt lat="49.63087837211788" lon="8.996609654277563">
<ele>226</ele>
<time>2024-05-10T12:48:13Z</time>
</trkpt>
<trkpt lat="49.63083260692656" lon="8.996609654277563">
<ele>226</ele>
<time>2024-05-10T12:48:14Z</time>
</trkpt>
<trkpt lat="49.63078306987882" lon="8.996609654277563">
<ele>225.8</ele>
<time>2024-05-10T12:48:15Z</time>
</trkpt>
<trkpt lat="49.6307373046875" lon="8.996609654277563">
<ele>225.8</ele>
<time>2024-05-10T12:48:16Z</time>
</trkpt>
<trkpt lat="49.63068768382072" lon="8.996609654277563">
<ele>225.8</ele>
<time>2024-05-10T12:48:17Z</time>
</trkpt>
<trkpt lat="49.63064191862941" lon="8.996611582115293">
<ele>225.8</ele>
<time>2024-05-10T12:48:18Z</time>
</trkpt>
<trkpt lat="49.63059615343809" lon="8.99661342613399">
<ele>225.8</ele>
<time>2024-05-10T12:48:19Z</time>
</trkpt>
<trkpt lat="49.63055030442774" lon="8.99661342613399">
<ele>225.8</ele>
<time>2024-05-10T12:48:20Z</time>
</trkpt>
<trkpt lat="49.630504539236426" lon="8.99661342613399">
<ele>225.8</ele>
<time>2024-05-10T12:48:21Z</time>
</trkpt>
<trkpt lat="49.63046640157699" lon="8.996618203818798">
<ele>225.8</ele>
<time>2024-05-10T12:48:22Z</time>
</trkpt>
<trkpt lat="49.630432119593024" lon="8.996622059494257">
<ele>225.6</ele>
<time>2024-05-10T12:48:23Z</time>
</trkpt>
<trkpt lat="49.630393981933594" lon="8.996622059494257">
<ele>225.6</ele>
<time>2024-05-10T12:48:24Z</time>
</trkpt>
<trkpt lat="49.630348132923245" lon="8.996620131656528">
<ele>225.6</ele>
<time>2024-05-10T12:48:25Z</time>
</trkpt>
<trkpt lat="49.63030236773193" lon="8.996606804430485">
<ele>225.6</ele>
<time>2024-05-10T12:48:26Z</time>
</trkpt>
<trkpt lat="49.63026045821607" lon="8.996586771681905">
<ele>225.6</ele>
<time>2024-05-10T12:48:27Z</time>
</trkpt>
<trkpt lat="49.63022232055664" lon="8.996549556031823">
<ele>225.6</ele>
<time>2024-05-10T12:48:28Z</time>
</trkpt>
<trkpt lat="49.630191726610065" lon="8.9965161960572">
<ele>225.4</ele>
<time>2024-05-10T12:48:29Z</time>
</trkpt>
<trkpt lat="49.630153588950634" lon="8.996469425037503">
<ele>225.4</ele>
<time>2024-05-10T12:48:30Z</time>
</trkpt>
<trkpt lat="49.63011930696666" lon="8.996424665674567">
<ele>225.6</ele>
<time>2024-05-10T12:48:31Z</time>
</trkpt>
<trkpt lat="49.630092568695545" lon="8.996371189132333">
<ele>225.6</ele>
<time>2024-05-10T12:48:32Z</time>
</trkpt>
<trkpt lat="49.630062058568" lon="8.996316874399781">
<ele>225.8</ele>
<time>2024-05-10T12:48:33Z</time>
</trkpt>
<trkpt lat="49.630031548440456" lon="8.996265409514308">
<ele>226</ele>
<time>2024-05-10T12:48:34Z</time>
</trkpt>
<trkpt lat="49.62999718263745" lon="8.996216710656881">
<ele>226.2</ele>
<time>2024-05-10T12:48:35Z</time>
</trkpt>
<trkpt lat="49.62996290065348" lon="8.996170023456216">
<ele>226.2</ele>
<time>2024-05-10T12:48:36Z</time>
</trkpt>
<trkpt lat="49.62992853485048" lon="8.996123252436519">
<ele>226.4</ele>
<time>2024-05-10T12:48:37Z</time>
</trkpt>
<trkpt lat="49.629898024722934" lon="8.99608033709228">
<ele>226.6</ele>
<time>2024-05-10T12:48:38Z</time>
</trkpt>
<trkpt lat="49.62986365891993" lon="8.996034571900964">
<ele>226.6</ele>
<time>2024-05-10T12:48:39Z</time>
</trkpt>
<trkpt lat="49.6298255212605" lon="8.995998362079263">
<ele>226.8</ele>
<time>2024-05-10T12:48:40Z</time>
</trkpt>
<trkpt lat="49.62979123927653" lon="8.995960224419832">
<ele>227</ele>
<time>2024-05-10T12:48:41Z</time>
</trkpt>
<trkpt lat="49.629756873473525" lon="8.995916303247213">
<ele>227.2</ele>
<time>2024-05-10T12:48:42Z</time>
</trkpt>
<trkpt lat="49.62972636334598" lon="8.995875315740705">
<ele>227.4</ele>
<time>2024-05-10T12:48:43Z</time>
</trkpt>
<trkpt lat="49.62969199754298" lon="8.995835250243545">
<ele>227.6</ele>
<time>2024-05-10T12:48:44Z</time>
</trkpt>
<trkpt lat="49.629657715559006" lon="8.995798034593463">
<ele>227.8</ele>
<time>2024-05-10T12:48:45Z</time>
</trkpt>
<trkpt lat="49.62962720543146" lon="8.99576467461884">
<ele>227.8</ele>
<time>2024-05-10T12:48:46Z</time>
</trkpt>
<trkpt lat="49.62959669530392" lon="8.99572846479714">
<ele>228.2</ele>
<time>2024-05-10T12:48:47Z</time>
</trkpt>
<trkpt lat="49.629562329500914" lon="8.995693176984787">
<ele>228.4</ele>
<time>2024-05-10T12:48:48Z</time>
</trkpt>
<trkpt lat="49.62952796369791" lon="8.995664594694972">
<ele>228.6</ele>
<time>2024-05-10T12:48:49Z</time>
</trkpt>
<trkpt lat="49.62948982603848" lon="8.995636934414506">
<ele>228.8</ele>
<time>2024-05-10T12:48:50Z</time>
</trkpt>
<trkpt lat="49.62945168837905" lon="8.995611118152738">
<ele>229</ele>
<time>2024-05-10T12:48:51Z</time>
</trkpt>
<trkpt lat="49.62941355071962" lon="8.995583457872272">
<ele>229.2</ele>
<time>2024-05-10T12:48:52Z</time>
</trkpt>
<trkpt lat="49.62937541306019" lon="8.995558731257915">
<ele>229.4</ele>
<time>2024-05-10T12:48:53Z</time>
</trkpt>
<trkpt lat="49.629341047257185" lon="8.995534842833877">
<ele>229.6</ele>
<time>2024-05-10T12:48:54Z</time>
</trkpt>
<trkpt lat="49.62930676527321" lon="8.995514810085297">
<ele>229.6</ele>
<time>2024-05-10T12:48:55Z</time>
</trkpt>
<trkpt lat="49.62927625514567" lon="8.995499555021524">
<ele>229.8</ele>
<time>2024-05-10T12:48:56Z</time>
</trkpt>
<trkpt lat="49.62924951687455" lon="8.995489999651909">
<ele>230</ele>
<time>2024-05-10T12:48:57Z</time>
</trkpt>
<trkpt lat="49.62922663427889" lon="8.995481450110674">
<ele>230</ele>
<time>2024-05-10T12:48:58Z</time>
</trkpt>
<trkpt lat="49.629203751683235" lon="8.995472900569439">
<ele>230.2</ele>
<time>2024-05-10T12:48:59Z</time>
</trkpt>
<trkpt lat="49.629184640944" lon="8.995466195046902">
<ele>230.4</ele>
<time>2024-05-10T12:49:00Z</time>
</trkpt>
<trkpt lat="49.629165614023805" lon="8.995456639677286">
<ele>230.4</ele>
<time>2024-05-10T12:49:01Z</time>
</trkpt>
<trkpt lat="49.629142731428146" lon="8.99544708430767">
<ele>230.6</ele>
<time>2024-05-10T12:49:02Z</time>
</trkpt>
<trkpt lat="49.62911984883249" lon="8.995441384613514">
<ele>230.6</ele>
<time>2024-05-10T12:49:03Z</time>
</trkpt>
<trkpt lat="49.62910073809326" lon="8.995434679090977">
<ele>230.8</ele>
<time>2024-05-10T12:49:04Z</time>
</trkpt>
<trkpt lat="49.62908171117306" lon="8.995428057387471">
<ele>230.8</ele>
<time>2024-05-10T12:49:05Z</time>
</trkpt>
<trkpt lat="49.6290588285774" lon="8.995421351864934">
<ele>230.8</ele>
<time>2024-05-10T12:49:06Z</time>
</trkpt>
<trkpt lat="49.62903971783817" lon="8.995414730161428">
<ele>230.8</ele>
<time>2024-05-10T12:49:07Z</time>
</trkpt>
<trkpt lat="49.62901683524251" lon="8.995408024638891">
<ele>231</ele>
<time>2024-05-10T12:49:08Z</time>
</trkpt>
<trkpt lat="49.62899395264685" lon="8.995401319116354">
<ele>231</ele>
<time>2024-05-10T12:49:09Z</time>
</trkpt>
<trkpt lat="49.62897484190762" lon="8.995396541431546">
<ele>231.2</ele>
<time>2024-05-10T12:49:10Z</time>
</trkpt>
<trkpt lat="49.628948187455535" lon="8.995393691584468">
<ele>231.4</ele>
<time>2024-05-10T12:49:11Z</time>
</trkpt>
<trkpt lat="49.62892530485988" lon="8.995391763746738">
<ele>231.4</ele>
<time>2024-05-10T12:49:12Z</time>
</trkpt>
<trkpt lat="49.62890242226422" lon="8.995387069880962">
<ele>231.6</ele>
<time>2024-05-10T12:49:13Z</time>
</trkpt>
<trkpt lat="49.62888331152499" lon="8.995381286367774">
<ele>231.8</ele>
<time>2024-05-10T12:49:14Z</time>
</trkpt>
<trkpt lat="49.6288566570729" lon="8.995376508682966">
<ele>232</ele>
<time>2024-05-10T12:49:15Z</time>
</trkpt>
<trkpt lat="49.62883369065821" lon="8.99537181481719">
<ele>232.2</ele>
<time>2024-05-10T12:49:16Z</time>
</trkpt>
<trkpt lat="49.62881080806255" lon="8.995363181456923">
<ele>232.4</ele>
<time>2024-05-10T12:49:17Z</time>
</trkpt>
<trkpt lat="49.62878415361047" lon="8.99535178206861">
<ele>232.6</ele>
<time>2024-05-10T12:49:18Z</time>
</trkpt>
<trkpt lat="49.62875741533935" lon="8.995334599167109">
<ele>232.6</ele>
<time>2024-05-10T12:49:19Z</time>
</trkpt>
<trkpt lat="49.628726905211806" lon="8.99530978873372">
<ele>232.8</ele>
<time>2024-05-10T12:49:20Z</time>
</trkpt>
<trkpt lat="49.62870025075972" lon="8.995284978300333">
<ele>233</ele>
<time>2024-05-10T12:49:21Z</time>
</trkpt>
<trkpt lat="49.62866202928126" lon="8.995254468172789">
<ele>233</ele>
<time>2024-05-10T12:49:22Z</time>
</trkpt>
<trkpt lat="49.62862774729729" lon="8.995222030207515">
<ele>233.2</ele>
<time>2024-05-10T12:49:23Z</time>
</trkpt>
<trkpt lat="49.62858960963786" lon="8.995189592242241">
<ele>233.2</ele>
<time>2024-05-10T12:49:24Z</time>
</trkpt>
<trkpt lat="49.62854384444654" lon="8.995164865627885">
<ele>233.4</ele>
<time>2024-05-10T12:49:25Z</time>
</trkpt>
<trkpt lat="49.62849799543619" lon="8.995128571987152">
<ele>233.4</ele>
<time>2024-05-10T12:49:26Z</time>
</trkpt>
<trkpt lat="49.628452230244875" lon="8.995088506489992">
<ele>233.4</ele>
<time>2024-05-10T12:49:27Z</time>
</trkpt>
<trkpt lat="49.62839883752167" lon="8.995044669136405">
<ele>233.2</ele>
<time>2024-05-10T12:49:28Z</time>
</trkpt>
<trkpt lat="49.62834930047393" lon="8.994999825954437">
<ele>233.2</ele>
<time>2024-05-10T12:49:29Z</time>
</trkpt>
<trkpt lat="49.628295823931694" lon="8.994951210916042">
<ele>233</ele>
<time>2024-05-10T12:49:30Z</time>
</trkpt>
<trkpt lat="49.62824243120849" lon="8.994899746030569">
<ele>233</ele>
<time>2024-05-10T12:49:31Z</time>
</trkpt>
<trkpt lat="49.62818526662886" lon="8.994852053001523">
<ele>232.8</ele>
<time>2024-05-10T12:49:32Z</time>
</trkpt>
<trkpt lat="49.6281280182302" lon="8.994805281981826">
<ele>232.6</ele>
<time>2024-05-10T12:49:33Z</time>
</trkpt>
<trkpt lat="49.62807076983154" lon="8.994756666943431">
<ele>232.4</ele>
<time>2024-05-10T12:49:34Z</time>
</trkpt>
<trkpt lat="49.62800974957645" lon="8.994708051905036">
<ele>232.2</ele>
<time>2024-05-10T12:49:35Z</time>
</trkpt>
<trkpt lat="49.62794872932136" lon="8.994665136560798">
<ele>231.8</ele>
<time>2024-05-10T12:49:36Z</time>
</trkpt>
<trkpt lat="49.62788385339081" lon="8.994626998901367">
<ele>231.6</ele>
<time>2024-05-10T12:49:37Z</time>
</trkpt>
<trkpt lat="49.6278190612793" lon="8.994589783251286">
<ele>231.4</ele>
<time>2024-05-10T12:49:38Z</time>
</trkpt>
<trkpt lat="49.62775418534875" lon="8.994556423276663">
<ele>231.2</ele>
<time>2024-05-10T12:49:39Z</time>
</trkpt>
<trkpt lat="49.627685537561774" lon="8.994528762996197">
<ele>231.2</ele>
<time>2024-05-10T12:49:40Z</time>
</trkpt>
<trkpt lat="49.62761680595577" lon="8.994502946734428">
<ele>231</ele>
<time>2024-05-10T12:49:41Z</time>
</trkpt>
<trkpt lat="49.62755201384425" lon="8.99448006413877">
<ele>230.8</ele>
<time>2024-05-10T12:49:42Z</time>
</trkpt>
<trkpt lat="49.627487137913704" lon="8.994456259533763">
<ele>230.8</ele>
<time>2024-05-10T12:49:43Z</time>
</trkpt>
<trkpt lat="49.627426117658615" lon="8.994431449100375">
<ele>230.8</ele>
<time>2024-05-10T12:49:44Z</time>
</trkpt>
<trkpt lat="49.62736886925995" lon="8.994404710829258">
<ele>230.6</ele>
<time>2024-05-10T12:49:45Z</time>
</trkpt>
<trkpt lat="49.62731547653675" lon="8.994378056377172">
<ele>230.6</ele>
<time>2024-05-10T12:49:46Z</time>
</trkpt>
<trkpt lat="49.627265855669975" lon="8.994358023628592">
<ele>230.6</ele>
<time>2024-05-10T12:49:47Z</time>
</trkpt>
<trkpt lat="49.62722009047866" lon="8.994339918717742">
<ele>230.6</ele>
<time>2024-05-10T12:49:48Z</time>
</trkpt>
<trkpt lat="49.627170553430915" lon="8.99432365782559">
<ele>230.6</ele>
<time>2024-05-10T12:49:49Z</time>
</trkpt>
<trkpt lat="49.627128560096025" lon="8.994310330599546">
<ele>230.4</ele>
<time>2024-05-10T12:49:50Z</time>
</trkpt>
<trkpt lat="49.62708279490471" lon="8.994297003373504">
<ele>230.4</ele>
<time>2024-05-10T12:49:51Z</time>
</trkpt>
<trkpt lat="49.62703702971339" lon="8.994283676147461">
<ele>230.4</ele>
<time>2024-05-10T12:49:52Z</time>
</trkpt>
<trkpt lat="49.6269950363785" lon="8.994275042787194">
<ele>230.6</ele>
<time>2024-05-10T12:49:53Z</time>
</trkpt>
<trkpt lat="49.62695304304361" lon="8.994268337264657">
<ele>230.6</ele>
<time>2024-05-10T12:49:54Z</time>
</trkpt>
<trkpt lat="49.6269072778523" lon="8.994263643398881">
<ele>230.8</ele>
<time>2024-05-10T12:49:55Z</time>
</trkpt>
<trkpt lat="49.62686536833644" lon="8.994257859885693">
<ele>230.8</ele>
<time>2024-05-10T12:49:56Z</time>
</trkpt>
<trkpt lat="49.62682337500155" lon="8.994251238182187">
<ele>231</ele>
<time>2024-05-10T12:49:57Z</time>
</trkpt>
<trkpt lat="49.62678138166666" lon="8.994241682812572">
<ele>231</ele>
<time>2024-05-10T12:49:58Z</time>
</trkpt>
<trkpt lat="49.6267394721508" lon="8.994230199605227">
<ele>231.2</ele>
<time>2024-05-10T12:49:59Z</time>
</trkpt>
<trkpt lat="49.62669747881591" lon="8.994219722226262">
<ele>231.2</ele>
<time>2024-05-10T12:50:00Z</time>
</trkpt>
<trkpt lat="49.6266517136246" lon="8.99420639500022">
<ele>231.4</ele>
<time>2024-05-10T12:50:01Z</time>
</trkpt>
<trkpt lat="49.62660972028971" lon="8.994192061945796">
<ele>231.6</ele>
<time>2024-05-10T12:50:02Z</time>
</trkpt>
<trkpt lat="49.62656781077385" lon="8.994178734719753">
<ele>231.8</ele>
<time>2024-05-10T12:50:03Z</time>
</trkpt>
<trkpt lat="49.62652204558253" lon="8.99416632950306">
<ele>232</ele>
<time>2024-05-10T12:50:04Z</time>
</trkpt>
<trkpt lat="49.62648005224764" lon="8.994154930114746">
<ele>232.2</ele>
<time>2024-05-10T12:50:05Z</time>
</trkpt>
<trkpt lat="49.62643428705633" lon="8.99414537474513">
<ele>232.4</ele>
<time>2024-05-10T12:50:06Z</time>
</trkpt>
<trkpt lat="49.62638852186501" lon="8.994136741384864">
<ele>232.8</ele>
<time>2024-05-10T12:50:07Z</time>
</trkpt>
<trkpt lat="49.62634652853012" lon="8.9941262640059">
<ele>233</ele>
<time>2024-05-10T12:50:08Z</time>
</trkpt>
<trkpt lat="49.62630461901426" lon="8.994116708636284">
<ele>233.2</ele>
<time>2024-05-10T12:50:09Z</time>
</trkpt>
<trkpt lat="49.626262625679374" lon="8.994110086932778">
<ele>233.4</ele>
<time>2024-05-10T12:50:10Z</time>
</trkpt>
<trkpt lat="49.62622448801994" lon="8.994101453572512">
<ele>233.8</ele>
<time>2024-05-10T12:50:11Z</time>
</trkpt>
<trkpt lat="49.626182494685054" lon="8.994092904031277">
<ele>234</ele>
<time>2024-05-10T12:50:12Z</time>
</trkpt>
<trkpt lat="49.62614435702562" lon="8.99408527649939">
<ele>234.4</ele>
<time>2024-05-10T12:50:13Z</time>
</trkpt>
<trkpt lat="49.626102447509766" lon="8.994079576805234">
<ele>234.8</ele>
<time>2024-05-10T12:50:14Z</time>
</trkpt>
<trkpt lat="49.62606808170676" lon="8.994074799120426">
<ele>235</ele>
<time>2024-05-10T12:50:15Z</time>
</trkpt>
<trkpt lat="49.62603371590376" lon="8.994068093597889">
<ele>235.4</ele>
<time>2024-05-10T12:50:16Z</time>
</trkpt>
<trkpt lat="49.626003205776215" lon="8.99406524375081">
<ele>235.6</ele>
<time>2024-05-10T12:50:17Z</time>
</trkpt>
<trkpt lat="49.62596892379224" lon="8.994061388075352">
<ele>235.8</ele>
<time>2024-05-10T12:50:18Z</time>
</trkpt>
<trkpt lat="49.62593455798924" lon="8.994056694209576">
<ele>236</ele>
<time>2024-05-10T12:50:19Z</time>
</trkpt>
<trkpt lat="49.62590019218624" lon="8.994051916524768">
<ele>236.2</ele>
<time>2024-05-10T12:50:20Z</time>
</trkpt>
<trkpt lat="49.62586968205869" lon="8.994049988687038">
<ele>236.4</ele>
<time>2024-05-10T12:50:21Z</time>
</trkpt>
<trkpt lat="49.62583540007472" lon="8.994048060849309">
<ele>236.6</ele>
<time>2024-05-10T12:50:22Z</time>
</trkpt>
<trkpt lat="49.625804889947176" lon="8.994049988687038">
<ele>236.8</ele>
<time>2024-05-10T12:50:23Z</time>
</trkpt>
<trkpt lat="49.62577052414417" lon="8.994048060849309">
<ele>237</ele>
<time>2024-05-10T12:50:24Z</time>
</trkpt>
<trkpt lat="49.62573615834117" lon="8.994048060849309">
<ele>237</ele>
<time>2024-05-10T12:50:25Z</time>
</trkpt>
<trkpt lat="49.6257018763572" lon="8.99404713883996">
<ele>237.2</ele>
<time>2024-05-10T12:50:26Z</time>
</trkpt>
<trkpt lat="49.625667510554194" lon="8.994041439145803">
<ele>237.4</ele>
<time>2024-05-10T12:50:27Z</time>
</trkpt>
<trkpt lat="49.62563700042665" lon="8.994036661460996">
<ele>237.4</ele>
<time>2024-05-10T12:50:28Z</time>
</trkpt>
<trkpt lat="49.625606490299106" lon="8.994033811613917">
<ele>237.6</ele>
<time>2024-05-10T12:50:29Z</time>
</trkpt>
<trkpt lat="49.6255721244961" lon="8.994028028100729">
<ele>237.8</ele>
<time>2024-05-10T12:50:30Z</time>
</trkpt>
<trkpt lat="49.62553784251213" lon="8.994026184082031">
<ele>238</ele>
<time>2024-05-10T12:50:31Z</time>
</trkpt>
<trkpt lat="49.625507332384586" lon="8.994023250415921">
<ele>238.2</ele>
<time>2024-05-10T12:50:32Z</time>
</trkpt>
<trkpt lat="49.62547682225704" lon="8.994021406397223">
<ele>238.2</ele>
<time>2024-05-10T12:50:33Z</time>
</trkpt>
<trkpt lat="49.6254463121295" lon="8.994020400568843">
<ele>238.4</ele>
<time>2024-05-10T12:50:34Z</time>
</trkpt>
<trkpt lat="49.62541580200195" lon="8.994014700874686">
<ele>238.6</ele>
<time>2024-05-10T12:50:35Z</time>
</trkpt>
<trkpt lat="49.62538520805538" lon="8.994009923189878">
<ele>238.8</ele>
<time>2024-05-10T12:50:36Z</time>
</trkpt>
<trkpt lat="49.62535855360329" lon="8.9940070733428">
<ele>239</ele>
<time>2024-05-10T12:50:37Z</time>
</trkpt>
<trkpt lat="49.62532804347575" lon="8.994003217667341">
<ele>239.2</ele>
<time>2024-05-10T12:50:38Z</time>
</trkpt>
<trkpt lat="49.6252975333482" lon="8.994001373648643">
<ele>239.4</ele>
<time>2024-05-10T12:50:39Z</time>
</trkpt>
<trkpt lat="49.6252631675452" lon="8.994000367820263">
<ele>239.6</ele>
<time>2024-05-10T12:50:40Z</time>
</trkpt>
<trkpt lat="49.625232657417655" lon="8.994000367820263">
<ele>239.6</ele>
<time>2024-05-10T12:50:41Z</time>
</trkpt>
<trkpt lat="49.62519829161465" lon="8.993998523801565">
<ele>239.8</ele>
<time>2024-05-10T12:50:42Z</time>
</trkpt>
<trkpt lat="49.625171637162566" lon="8.993994668126106">
<ele>239.8</ele>
<time>2024-05-10T12:50:43Z</time>
</trkpt>
<trkpt lat="49.62514112703502" lon="8.993991818279028">
<ele>240</ele>
<time>2024-05-10T12:50:44Z</time>
</trkpt>
<trkpt lat="49.62511061690748" lon="8.993989890441298">
<ele>240</ele>
<time>2024-05-10T12:50:45Z</time>
</trkpt>
<trkpt lat="49.62508387863636" lon="8.993987962603569">
<ele>240.2</ele>
<time>2024-05-10T12:50:46Z</time>
</trkpt>
<trkpt lat="49.62505714036524" lon="8.993989890441298">
<ele>240.2</ele>
<time>2024-05-10T12:50:47Z</time>
</trkpt>
<trkpt lat="49.62503048591316" lon="8.993993746116757">
<ele>240.2</ele>
<time>2024-05-10T12:50:48Z</time>
</trkpt>
<trkpt lat="49.6250076033175" lon="8.993991818279028">
<ele>240.4</ele>
<time>2024-05-10T12:50:49Z</time>
</trkpt>
<trkpt lat="49.624977093189955" lon="8.993989890441298">
<ele>240.4</ele>
<time>2024-05-10T12:50:50Z</time>
</trkpt>
<trkpt lat="49.62495035491884" lon="8.99398704059422">
<ele>240.4</ele>
<time>2024-05-10T12:50:51Z</time>
</trkpt>
<trkpt lat="49.62491984479129" lon="8.993981340900064">
<ele>240.4</ele>
<time>2024-05-10T12:50:52Z</time>
</trkpt>
<trkpt lat="49.624893106520176" lon="8.993974635377526">
<ele>240.4</ele>
<time>2024-05-10T12:50:53Z</time>
</trkpt>
<trkpt lat="49.62485882453621" lon="8.993971785530448">
<ele>240.4</ele>
<time>2024-05-10T12:50:54Z</time>
</trkpt>
<trkpt lat="49.62482831440866" lon="8.993967929854989">
<ele>240.4</ele>
<time>2024-05-10T12:50:55Z</time>
</trkpt>
<trkpt lat="49.62479780428112" lon="8.99396508000791">
<ele>240.4</ele>
<time>2024-05-10T12:50:56Z</time>
</trkpt>
<trkpt lat="49.62476343847811" lon="8.993963235989213">
<ele>240.6</ele>
<time>2024-05-10T12:50:57Z</time>
</trkpt>
<trkpt lat="49.62472915649414" lon="8.993961308151484">
<ele>240.6</ele>
<time>2024-05-10T12:50:58Z</time>
</trkpt>
<trkpt lat="49.62469479069114" lon="8.993960302323103">
<ele>240.6</ele>
<time>2024-05-10T12:50:59Z</time>
</trkpt>
<trkpt lat="49.624660424888134" lon="8.993960302323103">
<ele>240.8</ele>
<time>2024-05-10T12:51:00Z</time>
</trkpt>
<trkpt lat="49.6246222872287" lon="8.993961308151484">
<ele>240.8</ele>
<time>2024-05-10T12:51:01Z</time>
</trkpt>
<trkpt lat="49.62458800524473" lon="8.993961308151484">
<ele>240.8</ele>
<time>2024-05-10T12:51:02Z</time>
</trkpt>
<trkpt lat="49.62455363944173" lon="8.993960302323103">
<ele>241</ele>
<time>2024-05-10T12:51:03Z</time>
</trkpt>
<trkpt lat="49.624519273638725" lon="8.993954602628946">
<ele>241</ele>
<time>2024-05-10T12:51:04Z</time>
</trkpt>
<trkpt lat="49.624484991654754" lon="8.993951752781868">
<ele>241</ele>
<time>2024-05-10T12:51:05Z</time>
</trkpt>
<trkpt lat="49.62444685399532" lon="8.99394697509706">
<ele>241</ele>
<time>2024-05-10T12:51:06Z</time>
</trkpt>
<trkpt lat="49.62440871633589" lon="8.993940353393555">
<ele>241</ele>
<time>2024-05-10T12:51:07Z</time>
</trkpt>
<trkpt lat="49.62437049485743" lon="8.993938425555825">
<ele>241</ele>
<time>2024-05-10T12:51:08Z</time>
</trkpt>
<trkpt lat="49.62432858534157" lon="8.993938425555825">
<ele>241</ele>
<time>2024-05-10T12:51:09Z</time>
</trkpt>
<trkpt lat="49.62428659200668" lon="8.993936497718096">
<ele>241</ele>
<time>2024-05-10T12:51:10Z</time>
</trkpt>
<trkpt lat="49.624244682490826" lon="8.993936497718096">
<ele>241</ele>
<time>2024-05-10T12:51:11Z</time>
</trkpt>
<trkpt lat="49.62419883348048" lon="8.993934569880366">
<ele>240.8</ele>
<time>2024-05-10T12:51:12Z</time>
</trkpt>
<trkpt lat="49.62415306828916" lon="8.993933647871017">
<ele>240.8</ele>
<time>2024-05-10T12:51:13Z</time>
</trkpt>
<trkpt lat="49.6241111587733" lon="8.993933647871017">
<ele>240.8</ele>
<time>2024-05-10T12:51:14Z</time>
</trkpt>
<trkpt lat="49.624065393581986" lon="8.993933647871017">
<ele>240.8</ele>
<time>2024-05-10T12:51:15Z</time>
</trkpt>
<trkpt lat="49.6240234002471" lon="8.993933647871017">
<ele>241</ele>
<time>2024-05-10T12:51:16Z</time>
</trkpt>
<trkpt lat="49.62397763505578" lon="8.993936497718096">
<ele>241</ele>
<time>2024-05-10T12:51:17Z</time>
</trkpt>
<trkpt lat="49.623931869864464" lon="8.993940353393555">
<ele>241</ele>
<time>2024-05-10T12:51:18Z</time>
</trkpt>
<trkpt lat="49.623889876529574" lon="8.99394504725933">
<ele>241.2</ele>
<time>2024-05-10T12:51:19Z</time>
</trkpt>
<trkpt lat="49.623847883194685" lon="8.993951752781868">
<ele>241.2</ele>
<time>2024-05-10T12:51:20Z</time>
</trkpt>
<trkpt lat="49.62380211800337" lon="8.993956530466676">
<ele>241.2</ele>
<time>2024-05-10T12:51:21Z</time>
</trkpt>
<trkpt lat="49.62376020848751" lon="8.993961308151484">
<ele>241.2</ele>
<time>2024-05-10T12:51:22Z</time>
</trkpt>
<trkpt lat="49.62371821515262" lon="8.993967929854989">
<ele>241.2</ele>
<time>2024-05-10T12:51:23Z</time>
</trkpt>
<trkpt lat="49.62368007749319" lon="8.993976563215256">
<ele>241.2</ele>
<time>2024-05-10T12:51:24Z</time>
</trkpt>
<trkpt lat="49.6236380841583" lon="8.99398704059422">
<ele>241.4</ele>
<time>2024-05-10T12:51:25Z</time>
</trkpt>
<trkpt lat="49.623592318966985" lon="8.993998523801565">
<ele>241.4</ele>
<time>2024-05-10T12:51:26Z</time>
</trkpt>
<trkpt lat="49.62355040945113" lon="8.994007995352149">
<ele>241.4</ele>
<time>2024-05-10T12:51:27Z</time>
</trkpt>
<trkpt lat="49.62350841611624" lon="8.994021406397223">
<ele>241.2</ele>
<time>2024-05-10T12:51:28Z</time>
</trkpt>
<trkpt lat="49.62346642278135" lon="8.994036661460996">
<ele>241.2</ele>
<time>2024-05-10T12:51:29Z</time>
</trkpt>
<trkpt lat="49.62342828512192" lon="8.994051916524768">
<ele>241</ele>
<time>2024-05-10T12:51:30Z</time>
</trkpt>
<trkpt lat="49.62338637560606" lon="8.99406524375081">
<ele>241</ele>
<time>2024-05-10T12:51:31Z</time>
</trkpt>
<trkpt lat="49.62334438227117" lon="8.994081420823932">
<ele>240.8</ele>
<time>2024-05-10T12:51:32Z</time>
</trkpt>
<trkpt lat="49.62330238893628" lon="8.994103381410241">
<ele>240.6</ele>
<time>2024-05-10T12:51:33Z</time>
</trkpt>
<trkpt lat="49.623256623744965" lon="8.9941262640059">
<ele>240.6</ele>
<time>2024-05-10T12:51:34Z</time>
</trkpt>
<trkpt lat="49.62321471422911" lon="8.994153002277017">
<ele>240.4</ele>
<time>2024-05-10T12:51:35Z</time>
</trkpt>
<trkpt lat="49.62316886521876" lon="8.994178734719753">
<ele>240.4</ele>
<time>2024-05-10T12:51:36Z</time>
</trkpt>
<trkpt lat="49.62312310002744" lon="8.994203545153141">
<ele>240.4</ele>
<time>2024-05-10T12:51:37Z</time>
</trkpt>
<trkpt lat="49.623077334836125" lon="8.994228355586529">
<ele>240.4</ele>
<time>2024-05-10T12:51:38Z</time>
</trkpt>
<trkpt lat="49.62303156964481" lon="8.994251238182187">
<ele>240.4</ele>
<time>2024-05-10T12:51:39Z</time>
</trkpt>
<trkpt lat="49.62298194877803" lon="8.994273114949465">
<ele>240.4</ele>
<time>2024-05-10T12:51:40Z</time>
</trkpt>
<trkpt lat="49.62293241173029" lon="8.994297003373504">
<ele>240.4</ele>
<time>2024-05-10T12:51:41Z</time>
</trkpt>
<trkpt lat="49.62288664653897" lon="8.994319885969162">
<ele>240.4</ele>
<time>2024-05-10T12:51:42Z</time>
</trkpt>
<trkpt lat="49.62284850887954" lon="8.994339918717742">
<ele>240.2</ele>
<time>2024-05-10T12:51:43Z</time>
</trkpt>
<trkpt lat="49.62281028740108" lon="8.994358023628592">
<ele>240.2</ele>
<time>2024-05-10T12:51:44Z</time>
</trkpt>
<trkpt lat="49.62277214974165" lon="8.994377134367824">
<ele>240.2</ele>
<time>2024-05-10T12:51:45Z</time>
</trkpt>
<trkpt lat="49.622741639614105" lon="8.994391383603215">
<ele>240</ele>
<time>2024-05-10T12:51:46Z</time>
</trkpt>
<trkpt lat="49.62271112948656" lon="8.994404710829258">
<ele>239.8</ele>
<time>2024-05-10T12:51:47Z</time>
</trkpt>
<trkpt lat="49.622680619359016" lon="8.994418121874332">
<ele>239.8</ele>
<time>2024-05-10T12:51:48Z</time>
</trkpt>
<trkpt lat="49.62265010923147" lon="8.994431449100375">
<ele>239.6</ele>
<time>2024-05-10T12:51:49Z</time>
</trkpt>
<trkpt lat="49.622623370960355" lon="8.994444776326418">
<ele>239.4</ele>
<time>2024-05-10T12:51:50Z</time>
</trkpt>
<trkpt lat="49.6226004883647" lon="8.99446003139019">
<ele>239.2</ele>
<time>2024-05-10T12:51:51Z</time>
</trkpt>
<trkpt lat="49.6225814614445" lon="8.994466736912727">
<ele>239.2</ele>
<time>2024-05-10T12:51:52Z</time>
</trkpt>
<trkpt lat="49.62255857884884" lon="8.994473442435265">
<ele>239</ele>
<time>2024-05-10T12:51:53Z</time>
</trkpt>
<trkpt lat="49.62254332378507" lon="8.994484841823578">
<ele>238.8</ele>
<time>2024-05-10T12:51:54Z</time>
</trkpt>
<trkpt lat="49.622528068721294" lon="8.99450009688735">
<ele>238.8</ele>
<time>2024-05-10T12:51:55Z</time>
</trkpt>
<trkpt lat="49.62251658551395" lon="8.994511580094695">
<ele>238.6</ele>
<time>2024-05-10T12:51:56Z</time>
</trkpt>
<trkpt lat="49.62250518612563" lon="8.994524907320738">
<ele>238.6</ele>
<time>2024-05-10T12:51:57Z</time>
</trkpt>
<trkpt lat="49.62249755859375" lon="8.994529685005546">
<ele>238.6</ele>
<time>2024-05-10T12:51:58Z</time>
</trkpt>
<trkpt lat="49.62249370291829" lon="8.994531612843275">
<ele>238.6</ele>
<time>2024-05-10T12:51:59Z</time>
</trkpt>
<trkpt lat="49.62248984724283" lon="8.994529685005546">
<ele>238.4</ele>
<time>2024-05-10T12:52:00Z</time>
</trkpt>
<trkpt lat="49.62248984724283" lon="8.994531612843275">
<ele>238.4</ele>
<time>2024-05-10T12:52:01Z</time>
</trkpt>
<trkpt lat="49.62249370291829" lon="8.994529685005546">
<ele>238.4</ele>
<time>2024-05-10T12:52:02Z</time>
</trkpt>
<trkpt lat="49.62249370291829" lon="8.994528762996197">
<ele>238.4</ele>
<time>2024-05-10T12:52:04Z</time>
</trkpt>
<trkpt lat="49.62248984724283" lon="8.994528762996197">
<ele>238.4</ele>
<time>2024-05-10T12:52:05Z</time>
</trkpt>
<trkpt lat="49.62248984724283" lon="8.994526835158467">
<ele>238.4</ele>
<time>2024-05-10T12:52:08Z</time>
</trkpt>
<trkpt lat="49.62248984724283" lon="8.994524907320738">
<ele>238.4</ele>
<time>2024-05-10T12:52:10Z</time>
</trkpt>
<trkpt lat="49.62248984724283" lon="8.994526835158467">
<ele>238.4</ele>
<time>2024-05-10T12:52:11Z</time>
</trkpt>
<trkpt lat="49.62248984724283" lon="8.994524907320738">
<ele>238.4</ele>
<time>2024-05-10T12:52:12Z</time>
</trkpt>
<trkpt lat="49.62248984724283" lon="8.994526835158467">
<ele>238.6</ele>
<time>2024-05-10T12:52:17Z</time>
</trkpt>
<trkpt lat="49.622482219710946" lon="8.994529685005546">
<ele>238.6</ele>
<time>2024-05-10T12:52:18Z</time>
</trkpt>
<trkpt lat="49.62247844785452" lon="8.994533456861973">
<ele>238.6</ele>
<time>2024-05-10T12:52:19Z</time>
</trkpt>
<trkpt lat="49.62247082032263" lon="8.99453823454678">
<ele>238.6</ele>
<time>2024-05-10T12:52:20Z</time>
</trkpt>
<trkpt lat="49.62246319279075" lon="8.99454116821289">
<ele>238.6</ele>
<time>2024-05-10T12:52:21Z</time>
</trkpt>
<trkpt lat="49.62245556525886" lon="8.994546867907047">
<ele>238.6</ele>
<time>2024-05-10T12:52:22Z</time>
</trkpt>
<trkpt lat="49.62243645451963" lon="8.994553489610553">
<ele>238.6</ele>
<time>2024-05-10T12:52:23Z</time>
</trkpt>
<trkpt lat="49.62241357192397" lon="8.994556423276663">
<ele>238.6</ele>
<time>2024-05-10T12:52:24Z</time>
</trkpt>
<trkpt lat="49.6223983168602" lon="8.994569750502706">
<ele>238.6</ele>
<time>2024-05-10T12:52:25Z</time>
</trkpt>
<trkpt lat="49.62238306179643" lon="8.994587855413556">
<ele>238.6</ele>
<time>2024-05-10T12:52:26Z</time>
</trkpt>
<trkpt lat="49.62238306179643" lon="8.994616437703371">
<ele>238.8</ele>
<time>2024-05-10T12:52:27Z</time>
</trkpt>
<trkpt lat="49.62238306179643" lon="8.994646947830915">
<ele>238.8</ele>
<time>2024-05-10T12:52:28Z</time>
</trkpt>
<trkpt lat="49.62238306179643" lon="8.994667986407876">
<ele>239</ele>
<time>2024-05-10T12:52:29Z</time>
</trkpt>
<trkpt lat="49.622386917471886" lon="8.994685169309378">
<ele>239</ele>
<time>2024-05-10T12:52:30Z</time>
</trkpt>
<trkpt lat="49.62239068932831" lon="8.99469849653542">
<ele>239</ele>
<time>2024-05-10T12:52:31Z</time>
</trkpt>
<trkpt lat="49.62239068932831" lon="8.994711823761463">
<ele>239</ele>
<time>2024-05-10T12:52:32Z</time>
</trkpt>
<trkpt lat="49.62239068932831" lon="8.994721379131079">
<ele>239</ele>
<time>2024-05-10T12:52:33Z</time>
</trkpt>
<trkpt lat="49.62239068932831" lon="8.994736634194851">
<ele>239</ele>
<time>2024-05-10T12:52:34Z</time>
</trkpt>
<trkpt lat="49.62237928994" lon="8.994752811267972">
<ele>239</ele>
<time>2024-05-10T12:52:35Z</time>
</trkpt>
<trkpt lat="49.62236017920077" lon="8.994768066331744">
<ele>239</ele>
<time>2024-05-10T12:52:36Z</time>
</trkpt>
<trkpt lat="49.62234492413699" lon="8.994783321395516">
<ele>239</ele>
<time>2024-05-10T12:52:37Z</time>
</trkpt>
<trkpt lat="49.62233352474868" lon="8.99479866027832">
<ele>239</ele>
<time>2024-05-10T12:52:38Z</time>
</trkpt>
<trkpt lat="49.622306786477566" lon="8.994812909513712">
<ele>239</ele>
<time>2024-05-10T12:52:39Z</time>
</trkpt>
<trkpt lat="49.62228004820645" lon="8.994838641956449">
<ele>239</ele>
<time>2024-05-10T12:52:40Z</time>
</trkpt>
<trkpt lat="49.622249538078904" lon="8.99485968053341">
<ele>238.8</ele>
<time>2024-05-10T12:52:41Z</time>
</trkpt>
<trkpt lat="49.62221525609493" lon="8.994881557300687">
<ele>238.8</ele>
<time>2024-05-10T12:52:42Z</time>
</trkpt>
<trkpt lat="49.6221771184355" lon="8.994899746030569">
<ele>238.6</ele>
<time>2024-05-10T12:52:43Z</time>
</trkpt>
<trkpt lat="49.62213512510061" lon="8.994918772950768">
<ele>238.4</ele>
<time>2024-05-10T12:52:44Z</time>
</trkpt>
<trkpt lat="49.62209313176572" lon="8.99493788369">
<ele>238.4</ele>
<time>2024-05-10T12:52:45Z</time>
</trkpt>
<trkpt lat="49.62204736657441" lon="8.994961688295007">
<ele>238.4</ele>
<time>2024-05-10T12:52:46Z</time>
</trkpt>
<trkpt lat="49.62200160138309" lon="8.994983648881316">
<ele>238.4</ele>
<time>2024-05-10T12:52:47Z</time>
</trkpt>
<trkpt lat="49.62195583619177" lon="8.995003681629896">
<ele>238.2</ele>
<time>2024-05-10T12:52:48Z</time>
</trkpt>
<trkpt lat="49.62191007100046" lon="8.995023714378476">
<ele>238.4</ele>
<time>2024-05-10T12:52:49Z</time>
</trkpt>
<trkpt lat="49.62186430580914" lon="8.995046596974134">
<ele>238.4</ele>
<time>2024-05-10T12:52:50Z</time>
</trkpt>
<trkpt lat="49.621818540617824" lon="8.995066629722714">
<ele>238.6</ele>
<time>2024-05-10T12:52:51Z</time>
</trkpt>
<trkpt lat="49.621772691607475" lon="8.995086662471294">
<ele>238.8</ele>
<time>2024-05-10T12:52:52Z</time>
</trkpt>
<trkpt lat="49.62172692641616" lon="8.995101917535067">
<ele>239</ele>
<time>2024-05-10T12:52:53Z</time>
</trkpt>
<trkpt lat="49.6216850169003" lon="8.99511331692338">
<ele>239.2</ele>
<time>2024-05-10T12:52:54Z</time>
</trkpt>
<trkpt lat="49.621639251708984" lon="8.995128571987152">
<ele>239.4</ele>
<time>2024-05-10T12:52:55Z</time>
</trkpt>
<trkpt lat="49.621597258374095" lon="8.995142905041575">
<ele>239.4</ele>
<time>2024-05-10T12:52:56Z</time>
</trkpt>
<trkpt lat="49.62155149318278" lon="8.99515531025827">
<ele>239.4</ele>
<time>2024-05-10T12:52:57Z</time>
</trkpt>
<trkpt lat="49.621498100459576" lon="8.995160087943077">
<ele>239.4</ele>
<time>2024-05-10T12:52:58Z</time>
</trkpt>
<trkpt lat="49.6214484795928" lon="8.995166709646583">
<ele>239.4</ele>
<time>2024-05-10T12:52:59Z</time>
</trkpt>
<trkpt lat="49.6213950868696" lon="8.99517341516912">
<ele>239.4</ele>
<time>2024-05-10T12:53:00Z</time>
</trkpt>
<trkpt lat="49.621341694146395" lon="8.995176265016198">
<ele>239.4</ele>
<time>2024-05-10T12:53:01Z</time>
</trkpt>
<trkpt lat="49.62129207327962" lon="8.995178192853928">
<ele>239.4</ele>
<time>2024-05-10T12:53:02Z</time>
</trkpt>
<trkpt lat="49.62124245241285" lon="8.995182970538735">
<ele>239.2</ele>
<time>2024-05-10T12:53:03Z</time>
</trkpt>
<trkpt lat="49.62119668722153" lon="8.995186742395163">
<ele>239.2</ele>
<time>2024-05-10T12:53:04Z</time>
</trkpt>
<trkpt lat="49.62114715017378" lon="8.995186742395163">
<ele>239</ele>
<time>2024-05-10T12:53:05Z</time>
</trkpt>
<trkpt lat="49.621105156838894" lon="8.995182970538735">
<ele>238.8</ele>
<time>2024-05-10T12:53:06Z</time>
</trkpt>
<trkpt lat="49.62105939164758" lon="8.995182970538735">
<ele>238.8</ele>
<time>2024-05-10T12:53:07Z</time>
</trkpt>
<trkpt lat="49.62101362645626" lon="8.995188670232892">
<ele>238.8</ele>
<time>2024-05-10T12:53:08Z</time>
</trkpt>
<trkpt lat="49.620964005589485" lon="8.995186742395163">
<ele>239</ele>
<time>2024-05-10T12:53:09Z</time>
</trkpt>
<trkpt lat="49.62091824039817" lon="8.995180120691657">
<ele>239</ele>
<time>2024-05-10T12:53:10Z</time>
</trkpt>
<trkpt lat="49.620864847674966" lon="8.99517341516912">
<ele>239.2</ele>
<time>2024-05-10T12:53:11Z</time>
</trkpt>
<trkpt lat="49.62081522680819" lon="8.995160087943077">
<ele>239.4</ele>
<time>2024-05-10T12:53:12Z</time>
</trkpt>
<trkpt lat="49.620765605941415" lon="8.995144832879305">
<ele>239.4</ele>
<time>2024-05-10T12:53:13Z</time>
</trkpt>
<trkpt lat="49.62071606889367" lon="8.99513142183423">
<ele>239.6</ele>
<time>2024-05-10T12:53:14Z</time>
</trkpt>
<trkpt lat="49.620666448026896" lon="8.995116166770458">
<ele>239.8</ele>
<time>2024-05-10T12:53:15Z</time>
</trkpt>
<trkpt lat="49.62061691097915" lon="8.995103761553764">
<ele>239.8</ele>
<time>2024-05-10T12:53:16Z</time>
</trkpt>
<trkpt lat="49.620567290112376" lon="8.995086662471294">
<ele>239.8</ele>
<time>2024-05-10T12:53:17Z</time>
</trkpt>
<trkpt lat="49.62051389738917" lon="8.995061852037907">
<ele>240</ele>
<time>2024-05-10T12:53:18Z</time>
</trkpt>
<trkpt lat="49.62046050466597" lon="8.99503511376679">
<ele>239.8</ele>
<time>2024-05-10T12:53:19Z</time>
</trkpt>
<trkpt lat="49.620410883799195" lon="8.995008459314704">
<ele>239.8</ele>
<time>2024-05-10T12:53:20Z</time>
</trkpt>
<trkpt lat="49.62036511860788" lon="8.994979793205857">
<ele>239.8</ele>
<time>2024-05-10T12:53:21Z</time>
</trkpt>
<trkpt lat="49.62031935341656" lon="8.994956910610199">
<ele>239.6</ele>
<time>2024-05-10T12:53:22Z</time>
</trkpt>
<trkpt lat="49.62026973254979" lon="8.994930256158113">
<ele>239.6</ele>
<time>2024-05-10T12:53:23Z</time>
</trkpt>
<trkpt lat="49.62022011168301" lon="8.994905445724726">
<ele>239.6</ele>
<time>2024-05-10T12:53:24Z</time>
</trkpt>
<trkpt lat="49.620174346491694" lon="8.994881557300687">
<ele>239.6</ele>
<time>2024-05-10T12:53:25Z</time>
</trkpt>
<trkpt lat="49.62012480944395" lon="8.99485683068633">
<ele>239.6</ele>
<time>2024-05-10T12:53:26Z</time>
</trkpt>
<trkpt lat="49.620075188577175" lon="8.994834870100021">
<ele>239.6</ele>
<time>2024-05-10T12:53:27Z</time>
</trkpt>
<trkpt lat="49.6200255677104" lon="8.994811987504363">
<ele>239.8</ele>
<time>2024-05-10T12:53:28Z</time>
</trkpt>
<trkpt lat="49.61997980251908" lon="8.994788099080324">
<ele>239.8</ele>
<time>2024-05-10T12:53:29Z</time>
</trkpt>
<trkpt lat="49.61992640979588" lon="8.994763372465968">
<ele>239.8</ele>
<time>2024-05-10T12:53:30Z</time>
</trkpt>
<trkpt lat="49.619876788929105" lon="8.99473948404193">
<ele>239.8</ele>
<time>2024-05-10T12:53:31Z</time>
</trkpt>
<trkpt lat="49.61982725188136" lon="8.994714673608541">
<ele>239.6</ele>
<time>2024-05-10T12:53:32Z</time>
</trkpt>
<trkpt lat="49.619777631014585" lon="8.994694640859962">
<ele>239.6</ele>
<time>2024-05-10T12:53:33Z</time>
</trkpt>
<trkpt lat="49.61972423829138" lon="8.994671758264303">
<ele>239.4</ele>
<time>2024-05-10T12:53:34Z</time>
</trkpt>
<trkpt lat="49.619678473100066" lon="8.994653653353453">
<ele>239.4</ele>
<time>2024-05-10T12:53:35Z</time>
</trkpt>
<trkpt lat="49.61962508037686" lon="8.994634626433253">
<ele>239.4</ele>
<time>2024-05-10T12:53:36Z</time>
</trkpt>
<trkpt lat="49.619583087041974" lon="8.994611660018563">
<ele>239.4</ele>
<time>2024-05-10T12:53:37Z</time>
</trkpt>
<trkpt lat="49.61953732185066" lon="8.994589783251286">
<ele>239.6</ele>
<time>2024-05-10T12:53:38Z</time>
</trkpt>
<trkpt lat="49.61949155665934" lon="8.994569750502706">
<ele>239.6</ele>
<time>2024-05-10T12:53:39Z</time>
</trkpt>
<trkpt lat="49.61944956332445" lon="8.994549717754126">
<ele>239.6</ele>
<time>2024-05-10T12:53:40Z</time>
</trkpt>
<trkpt lat="49.619403798133135" lon="8.994524907320738">
<ele>239.6</ele>
<time>2024-05-10T12:53:41Z</time>
</trkpt>
<trkpt lat="49.619361804798245" lon="8.994504874572158">
<ele>239.6</ele>
<time>2024-05-10T12:53:42Z</time>
</trkpt>
<trkpt lat="49.61931603960693" lon="8.994482913985848">
<ele>239.4</ele>
<time>2024-05-10T12:53:43Z</time>
</trkpt>
<trkpt lat="49.61927027441561" lon="8.994464809074998">
<ele>239.4</ele>
<time>2024-05-10T12:53:44Z</time>
</trkpt>
<trkpt lat="49.61922828108072" lon="8.994444776326418">
<ele>239.4</ele>
<time>2024-05-10T12:53:45Z</time>
</trkpt>
<trkpt lat="49.619182515889406" lon="8.99442289955914">
<ele>239.4</ele>
<time>2024-05-10T12:53:46Z</time>
</trkpt>
<trkpt lat="49.61914060637355" lon="8.99440186098218">
<ele>239.2</ele>
<time>2024-05-10T12:53:47Z</time>
</trkpt>
<trkpt lat="49.61909861303866" lon="8.9943818282336">
<ele>239.2</ele>
<time>2024-05-10T12:53:48Z</time>
</trkpt>
<trkpt lat="49.61905661970377" lon="8.994358023628592">
<ele>239.2</ele>
<time>2024-05-10T12:53:49Z</time>
</trkpt>
<trkpt lat="49.61901471018791" lon="8.994337990880013">
<ele>239.2</ele>
<time>2024-05-10T12:53:50Z</time>
</trkpt>
<trkpt lat="49.61897271685302" lon="8.994317958131433">
<ele>239.2</ele>
<time>2024-05-10T12:53:51Z</time>
</trkpt>
<trkpt lat="49.618930807337165" lon="8.994301781058311">
<ele>239.2</ele>
<time>2024-05-10T12:53:52Z</time>
</trkpt>
<trkpt lat="49.618888814002275" lon="8.994283676147461">
<ele>239.2</ele>
<time>2024-05-10T12:53:53Z</time>
</trkpt>
<trkpt lat="49.618846820667386" lon="8.99426456540823">
<ele>239.2</ele>
<time>2024-05-10T12:53:54Z</time>
</trkpt>
<trkpt lat="49.61880491115153" lon="8.99424453265965">
<ele>239.2</ele>
<time>2024-05-10T12:53:55Z</time>
</trkpt>
<trkpt lat="49.61876291781664" lon="8.99422449991107">
<ele>239.2</ele>
<time>2024-05-10T12:53:56Z</time>
</trkpt>
<trkpt lat="49.61871715262532" lon="8.994201617315412">
<ele>239.2</ele>
<time>2024-05-10T12:53:57Z</time>
</trkpt>
<trkpt lat="49.61867515929043" lon="8.994179656729102">
<ele>239.4</ele>
<time>2024-05-10T12:53:58Z</time>
</trkpt>
<trkpt lat="49.618633249774575" lon="8.994159623980522">
<ele>239.6</ele>
<time>2024-05-10T12:53:59Z</time>
</trkpt>
<trkpt lat="49.618591256439686" lon="8.994139591231942">
<ele>239.6</ele>
<time>2024-05-10T12:54:00Z</time>
</trkpt>
<trkpt lat="49.61854934692383" lon="8.994119642302394">
<ele>239.8</ele>
<time>2024-05-10T12:54:01Z</time>
</trkpt>
<trkpt lat="49.61850349791348" lon="8.994099609553814">
<ele>240</ele>
<time>2024-05-10T12:54:02Z</time>
</trkpt>
<trkpt lat="49.61846158839762" lon="8.994074799120426">
<ele>240</ele>
<time>2024-05-10T12:54:03Z</time>
</trkpt>
<trkpt lat="49.618415823206306" lon="8.994052838534117">
<ele>240.2</ele>
<time>2024-05-10T12:54:04Z</time>
</trkpt>
<trkpt lat="49.61836997419596" lon="8.994029955938458">
<ele>240.2</ele>
<time>2024-05-10T12:54:05Z</time>
</trkpt>
<trkpt lat="49.6183280646801" lon="8.994007995352149">
<ele>240.2</ele>
<time>2024-05-10T12:54:06Z</time>
</trkpt>
<trkpt lat="49.61828229948878" lon="8.993987962603569">
<ele>240.4</ele>
<time>2024-05-10T12:54:07Z</time>
</trkpt>
<trkpt lat="49.61824030615389" lon="8.993971785530448">
<ele>240.4</ele>
<time>2024-05-10T12:54:08Z</time>
</trkpt>
<trkpt lat="49.61819454096258" lon="8.993954602628946">
<ele>240.4</ele>
<time>2024-05-10T12:54:09Z</time>
</trkpt>
<trkpt lat="49.61815254762769" lon="8.993936497718096">
<ele>240.4</ele>
<time>2024-05-10T12:54:10Z</time>
</trkpt>
<trkpt lat="49.61810678243637" lon="8.993914537131786">
<ele>240.6</ele>
<time>2024-05-10T12:54:11Z</time>
</trkpt>
<trkpt lat="49.618061017245054" lon="8.993896432220936">
<ele>240.6</ele>
<time>2024-05-10T12:54:12Z</time>
</trkpt>
<trkpt lat="49.61801525205374" lon="8.993876399472356">
<ele>240.6</ele>
<time>2024-05-10T12:54:13Z</time>
</trkpt>
<trkpt lat="49.61797325871885" lon="8.993854522705078">
<ele>240.6</ele>
<time>2024-05-10T12:54:14Z</time>
</trkpt>
<trkpt lat="49.61792749352753" lon="8.993833484128118">
<ele>240.6</ele>
<time>2024-05-10T12:54:15Z</time>
</trkpt>
<trkpt lat="49.617881728336215" lon="8.99380967952311">
<ele>240.8</ele>
<time>2024-05-10T12:54:16Z</time>
</trkpt>
<trkpt lat="49.6178359631449" lon="8.993786796927452">
<ele>240.8</ele>
<time>2024-05-10T12:54:17Z</time>
</trkpt>
<trkpt lat="49.61779396981001" lon="8.993764836341143">
<ele>241</ele>
<time>2024-05-10T12:54:18Z</time>
</trkpt>
<trkpt lat="49.61774820461869" lon="8.993742875754833">
<ele>241</ele>
<time>2024-05-10T12:54:19Z</time>
</trkpt>
<trkpt lat="49.617706295102835" lon="8.993721920996904">
<ele>241</ele>
<time>2024-05-10T12:54:20Z</time>
</trkpt>
<trkpt lat="49.617660446092486" lon="8.993704738095403">
<ele>241</ele>
<time>2024-05-10T12:54:21Z</time>
</trkpt>
<trkpt lat="49.61761853657663" lon="8.99369141086936">
<ele>241</ele>
<time>2024-05-10T12:54:22Z</time>
</trkpt>
<trkpt lat="49.61757654324174" lon="8.993678083643317">
<ele>241</ele>
<time>2024-05-10T12:54:23Z</time>
</trkpt>
<trkpt lat="49.61753840558231" lon="8.993663750588894">
<ele>241</ele>
<time>2024-05-10T12:54:24Z</time>
</trkpt>
<trkpt lat="49.61749641224742" lon="8.993639945983887">
<ele>241</ele>
<time>2024-05-10T12:54:25Z</time>
</trkpt>
<trkpt lat="49.61746213026345" lon="8.99361320771277">
<ele>240.8</ele>
<time>2024-05-10T12:54:26Z</time>
</trkpt>
<trkpt lat="49.617427764460444" lon="8.99359124712646">
<ele>240.8</ele>
<time>2024-05-10T12:54:27Z</time>
</trkpt>
<trkpt lat="49.61739348247647" lon="8.99357314221561">
<ele>240.8</ele>
<time>2024-05-10T12:54:28Z</time>
</trkpt>
<trkpt lat="49.61735534481704" lon="8.99355310946703">
<ele>240.6</ele>
<time>2024-05-10T12:54:29Z</time>
</trkpt>
<trkpt lat="49.61731712333858" lon="8.993535004556179">
<ele>240.6</ele>
<time>2024-05-10T12:54:30Z</time>
</trkpt>
<trkpt lat="49.61727521382272" lon="8.993516899645329">
<ele>240.6</ele>
<time>2024-05-10T12:54:31Z</time>
</trkpt>
<trkpt lat="49.61723322048783" lon="8.993497788906097">
<ele>240.4</ele>
<time>2024-05-10T12:54:32Z</time>
</trkpt>
<trkpt lat="49.6171950828284" lon="8.993479683995247">
<ele>240.4</ele>
<time>2024-05-10T12:54:33Z</time>
</trkpt>
<trkpt lat="49.61715694516897" lon="8.993458729237318">
<ele>240.4</ele>
<time>2024-05-10T12:54:34Z</time>
</trkpt>
<trkpt lat="49.61712257936597" lon="8.99343484081328">
<ele>240.2</ele>
<time>2024-05-10T12:54:35Z</time>
</trkpt>
<trkpt lat="49.61708444170654" lon="8.993416735902429">
<ele>240.2</ele>
<time>2024-05-10T12:54:36Z</time>
</trkpt>
<trkpt lat="49.61705015972257" lon="8.993398630991578">
<ele>240.2</ele>
<time>2024-05-10T12:54:37Z</time>
</trkpt>
<trkpt lat="49.61701579391956" lon="8.993379520252347">
<ele>240.2</ele>
<time>2024-05-10T12:54:38Z</time>
</trkpt>
<trkpt lat="49.61698528379202" lon="8.993365271016955">
<ele>240.4</ele>
<time>2024-05-10T12:54:39Z</time>
</trkpt>
<trkpt lat="49.616954773664474" lon="8.993351859971881">
<ele>240.4</ele>
<time>2024-05-10T12:54:40Z</time>
</trkpt>
<trkpt lat="49.61692426353693" lon="8.993338532745838">
<ele>240.4</ele>
<time>2024-05-10T12:54:41Z</time>
</trkpt>
<trkpt lat="49.61689752526581" lon="8.993325205519795">
<ele>240.4</ele>
<time>2024-05-10T12:54:42Z</time>
</trkpt>
<trkpt lat="49.61687087081373" lon="8.993308022618294">
<ele>240.4</ele>
<time>2024-05-10T12:54:43Z</time>
</trkpt>
<trkpt lat="49.61684798821807" lon="8.99329368956387">
<ele>240.4</ele>
<time>2024-05-10T12:54:44Z</time>
</trkpt>
<trkpt lat="49.61682124994695" lon="8.993280362337828">
<ele>240.4</ele>
<time>2024-05-10T12:54:45Z</time>
</trkpt>
<trkpt lat="49.616798367351294" lon="8.993269884958863">
<ele>240.4</ele>
<time>2024-05-10T12:54:46Z</time>
</trkpt>
<trkpt lat="49.616775484755635" lon="8.993260329589248">
<ele>240.4</ele>
<time>2024-05-10T12:54:47Z</time>
</trkpt>
<trkpt lat="49.6167563740164" lon="8.993247924372554">
<ele>240.6</ele>
<time>2024-05-10T12:54:48Z</time>
</trkpt>
<trkpt lat="49.616737347096205" lon="8.993234597146511">
<ele>240.6</ele>
<time>2024-05-10T12:54:49Z</time>
</trkpt>
<trkpt lat="49.616718236356974" lon="8.993221269920468">
<ele>240.8</ele>
<time>2024-05-10T12:54:50Z</time>
</trkpt>
<trkpt lat="49.6167029812932" lon="8.993207858875394">
<ele>241</ele>
<time>2024-05-10T12:54:51Z</time>
</trkpt>
<trkpt lat="49.61668009869754" lon="8.993191681802273">
<ele>241</ele>
<time>2024-05-10T12:54:52Z</time>
</trkpt>
<trkpt lat="49.616661071777344" lon="8.993181204423308">
<ele>241.2</ele>
<time>2024-05-10T12:54:53Z</time>
</trkpt>
<trkpt lat="49.616638105362654" lon="8.993169721215963">
<ele>241.2</ele>
<time>2024-05-10T12:54:54Z</time>
</trkpt>
<trkpt lat="49.61662285029888" lon="8.99315639398992">
<ele>241.2</ele>
<time>2024-05-10T12:54:55Z</time>
</trkpt>
<trkpt lat="49.61659996770322" lon="8.993141138926148">
<ele>241.4</ele>
<time>2024-05-10T12:54:56Z</time>
</trkpt>
<trkpt lat="49.616577085107565" lon="8.993126805871725">
<ele>241.4</ele>
<time>2024-05-10T12:54:57Z</time>
</trkpt>
<trkpt lat="49.61655043065548" lon="8.993115406483412">
<ele>241.4</ele>
<time>2024-05-10T12:54:58Z</time>
</trkpt>
<trkpt lat="49.616519920527935" lon="8.993103001266718">
<ele>241.4</ele>
<time>2024-05-10T12:54:59Z</time>
</trkpt>
<trkpt lat="49.61649318225682" lon="8.993095373734832">
<ele>241.6</ele>
<time>2024-05-10T12:55:00Z</time>
</trkpt>
<trkpt lat="49.61646267212927" lon="8.993086740374565">
<ele>241.6</ele>
<time>2024-05-10T12:55:01Z</time>
</trkpt>
<trkpt lat="49.61643216200173" lon="8.9930762629956">
<ele>241.6</ele>
<time>2024-05-10T12:55:02Z</time>
</trkpt>
<trkpt lat="49.616401651874185" lon="8.993073413148522">
<ele>241.6</ele>
<time>2024-05-10T12:55:03Z</time>
</trkpt>
<trkpt lat="49.61636728607118" lon="8.993064863607287">
<ele>241.6</ele>
<time>2024-05-10T12:55:04Z</time>
</trkpt>
<trkpt lat="49.61633300408721" lon="8.99306008592248">
<ele>241.4</ele>
<time>2024-05-10T12:55:05Z</time>
</trkpt>
<trkpt lat="49.61629478260875" lon="8.993055308237672">
<ele>241.4</ele>
<time>2024-05-10T12:55:06Z</time>
</trkpt>
<trkpt lat="49.61625664494932" lon="8.993046758696437">
<ele>241.4</ele>
<time>2024-05-10T12:55:07Z</time>
</trkpt>
<trkpt lat="49.61621850728989" lon="8.9930400531739">
<ele>241.2</ele>
<time>2024-05-10T12:55:08Z</time>
</trkpt>
<trkpt lat="49.61617659777403" lon="8.9930400531739">
<ele>241.2</ele>
<time>2024-05-10T12:55:09Z</time>
</trkpt>
<trkpt lat="49.61613837629557" lon="8.993044830858707">
<ele>241</ele>
<time>2024-05-10T12:55:10Z</time>
</trkpt>
<trkpt lat="49.61609646677971" lon="8.993049608543515">
<ele>241</ele>
<time>2024-05-10T12:55:11Z</time>
</trkpt>
<trkpt lat="49.61605832912028" lon="8.99305623024702">
<ele>240.8</ele>
<time>2024-05-10T12:55:12Z</time>
</trkpt>
<trkpt lat="49.616023963317275" lon="8.993062013760209">
<ele>240.8</ele>
<time>2024-05-10T12:55:13Z</time>
</trkpt>
<trkpt lat="49.615985825657845" lon="8.993066707625985">
<ele>240.8</ele>
<time>2024-05-10T12:55:14Z</time>
</trkpt>
<trkpt lat="49.61595145985484" lon="8.993073413148522">
<ele>240.8</ele>
<time>2024-05-10T12:55:15Z</time>
</trkpt>
<trkpt lat="49.61591332219541" lon="8.993075340986252">
<ele>241</ele>
<time>2024-05-10T12:55:16Z</time>
</trkpt>
<trkpt lat="49.61587518453598" lon="8.99307819083333">
<ele>241</ele>
<time>2024-05-10T12:55:17Z</time>
</trkpt>
<trkpt lat="49.61584090255201" lon="8.993082968518138">
<ele>241</ele>
<time>2024-05-10T12:55:18Z</time>
</trkpt>
<trkpt lat="49.615806536749005" lon="8.993093445897102">
<ele>241</ele>
<time>2024-05-10T12:55:19Z</time>
</trkpt>
<trkpt lat="49.615768399089575" lon="8.993101995438337">
<ele>241</ele>
<time>2024-05-10T12:55:20Z</time>
</trkpt>
<trkpt lat="49.61573788896203" lon="8.993108700960875">
<ele>241.2</ele>
<time>2024-05-10T12:55:21Z</time>
</trkpt>
<trkpt lat="49.6156997513026" lon="8.993115406483412">
<ele>241.4</ele>
<time>2024-05-10T12:55:22Z</time>
</trkpt>
<trkpt lat="49.6156653854996" lon="8.99311825633049">
<ele>241.6</ele>
<time>2024-05-10T12:55:23Z</time>
</trkpt>
<trkpt lat="49.615631103515625" lon="8.993123034015298">
<ele>241.8</ele>
<time>2024-05-10T12:55:24Z</time>
</trkpt>
<trkpt lat="49.61559673771262" lon="8.993128733709455">
<ele>242</ele>
<time>2024-05-10T12:55:25Z</time>
</trkpt>
<trkpt lat="49.61556622758508" lon="8.993133511394262">
<ele>242.4</ele>
<time>2024-05-10T12:55:26Z</time>
</trkpt>
<trkpt lat="49.61553571745753" lon="8.99313828907907">
<ele>242.6</ele>
<time>2024-05-10T12:55:27Z</time>
</trkpt>
<trkpt lat="49.61550135165453" lon="8.993141138926148">
<ele>242.8</ele>
<time>2024-05-10T12:55:28Z</time>
</trkpt>
<trkpt lat="49.615470841526985" lon="8.993146838620305">
<ele>243</ele>
<time>2024-05-10T12:55:29Z</time>
</trkpt>
<trkpt lat="49.61544033139944" lon="8.993151616305113">
<ele>243.2</ele>
<time>2024-05-10T12:55:30Z</time>
</trkpt>
<trkpt lat="49.615409821271896" lon="8.99315639398992">
<ele>243.2</ele>
<time>2024-05-10T12:55:31Z</time>
</trkpt>
<trkpt lat="49.61537545546889" lon="8.993163099512458">
<ele>243.4</ele>
<time>2024-05-10T12:55:32Z</time>
</trkpt>
<trkpt lat="49.61534494534135" lon="8.993169721215963">
<ele>243.6</ele>
<time>2024-05-10T12:55:33Z</time>
</trkpt>
<trkpt lat="49.61531443521381" lon="8.9931764267385">
<ele>243.8</ele>
<time>2024-05-10T12:55:34Z</time>
</trkpt>
<trkpt lat="49.61528392508626" lon="8.993183132261038">
<ele>244</ele>
<time>2024-05-10T12:55:35Z</time>
</trkpt>
<trkpt lat="49.615253414958715" lon="8.993191681802273">
<ele>244.2</ele>
<time>2024-05-10T12:55:36Z</time>
</trkpt>
<trkpt lat="49.61522290483117" lon="8.993200231343508">
<ele>244.4</ele>
<time>2024-05-10T12:55:37Z</time>
</trkpt>
<trkpt lat="49.61518853902817" lon="8.993205009028316">
<ele>244.8</ele>
<time>2024-05-10T12:55:38Z</time>
</trkpt>
<trkpt lat="49.61515425704419" lon="8.993213642388582">
<ele>245</ele>
<time>2024-05-10T12:55:39Z</time>
</trkpt>
<trkpt lat="49.61511989124119" lon="8.99321842007339">
<ele>245.2</ele>
<time>2024-05-10T12:55:40Z</time>
</trkpt>
<trkpt lat="49.61508552543819" lon="8.993221269920468">
<ele>245.2</ele>
<time>2024-05-10T12:55:41Z</time>
</trkpt>
<trkpt lat="49.615055015310645" lon="8.993226969614625">
<ele>245.4</ele>
<time>2024-05-10T12:55:42Z</time>
</trkpt>
<trkpt lat="49.6150245051831" lon="8.993231747299433">
<ele>245.6</ele>
<time>2024-05-10T12:55:43Z</time>
</trkpt>
<trkpt lat="49.61499022319913" lon="8.993238369002938">
<ele>245.6</ele>
<time>2024-05-10T12:55:44Z</time>
</trkpt>
<trkpt lat="49.61496348492801" lon="8.993241302669048">
<ele>245.6</ele>
<time>2024-05-10T12:55:45Z</time>
</trkpt>
<trkpt lat="49.61493297480047" lon="8.993247002363205">
<ele>245.8</ele>
<time>2024-05-10T12:55:46Z</time>
</trkpt>
<trkpt lat="49.61490246467292" lon="8.993251780048013">
<ele>245.8</ele>
<time>2024-05-10T12:55:47Z</time>
</trkpt>
<trkpt lat="49.61486809886992" lon="8.99325655773282">
<ele>245.8</ele>
<time>2024-05-10T12:55:48Z</time>
</trkpt>
<trkpt lat="49.614837588742375" lon="8.993261335417628">
<ele>246</ele>
<time>2024-05-10T12:55:49Z</time>
</trkpt>
<trkpt lat="49.6148033067584" lon="8.993267957121134">
<ele>246.2</ele>
<time>2024-05-10T12:55:50Z</time>
</trkpt>
<trkpt lat="49.61477279663086" lon="8.993278434500098">
<ele>246.4</ele>
<time>2024-05-10T12:55:51Z</time>
</trkpt>
<trkpt lat="49.61474220268428" lon="8.993287989869714">
<ele>246.4</ele>
<time>2024-05-10T12:55:52Z</time>
</trkpt>
<trkpt lat="49.61471169255674" lon="8.99329662322998">
<ele>246.6</ele>
<time>2024-05-10T12:55:53Z</time>
</trkpt>
<trkpt lat="49.614681182429194" lon="8.993303244933486">
<ele>246.8</ele>
<time>2024-05-10T12:55:54Z</time>
</trkpt>
<trkpt lat="49.61465067230165" lon="8.993308022618294">
<ele>246.8</ele>
<time>2024-05-10T12:55:55Z</time>
</trkpt>
<trkpt lat="49.614620162174106" lon="8.993312800303102">
<ele>247</ele>
<time>2024-05-10T12:55:56Z</time>
</trkpt>
<trkpt lat="49.6145857963711" lon="8.993318499997258">
<ele>247.2</ele>
<time>2024-05-10T12:55:57Z</time>
</trkpt>
<trkpt lat="49.61455528624356" lon="8.993323277682066">
<ele>247.4</ele>
<time>2024-05-10T12:55:58Z</time>
</trkpt>
<trkpt lat="49.61452477611601" lon="8.993331827223301">
<ele>247.6</ele>
<time>2024-05-10T12:55:59Z</time>
</trkpt>
<trkpt lat="49.61449426598847" lon="8.993339538574219">
<ele>247.8</ele>
<time>2024-05-10T12:56:00Z</time>
</trkpt>
<trkpt lat="49.614463755860925" lon="8.993348088115454">
<ele>247.8</ele>
<time>2024-05-10T12:56:01Z</time>
</trkpt>
<trkpt lat="49.61443324573338" lon="8.993354793637991">
<ele>248</ele>
<time>2024-05-10T12:56:02Z</time>
</trkpt>
<trkpt lat="49.61440273560584" lon="8.993361415341496">
<ele>248</ele>
<time>2024-05-10T12:56:03Z</time>
</trkpt>
<trkpt lat="49.61436836980283" lon="8.993368120864034">
<ele>248.2</ele>
<time>2024-05-10T12:56:04Z</time>
</trkpt>
<trkpt lat="49.61434171535075" lon="8.993376670405269">
<ele>248.2</ele>
<time>2024-05-10T12:56:05Z</time>
</trkpt>
<trkpt lat="49.614307349547744" lon="8.993388153612614">
<ele>248.4</ele>
<time>2024-05-10T12:56:06Z</time>
</trkpt>
<trkpt lat="49.6142768394202" lon="8.993401480838656">
<ele>248.4</ele>
<time>2024-05-10T12:56:07Z</time>
</trkpt>
<trkpt lat="49.614246329292655" lon="8.993416735902429">
<ele>248.4</ele>
<time>2024-05-10T12:56:08Z</time>
</trkpt>
<trkpt lat="49.61421959102154" lon="8.993430063128471">
<ele>248.6</ele>
<time>2024-05-10T12:56:09Z</time>
</trkpt>
<trkpt lat="49.61418908089399" lon="8.993445318192244">
<ele>248.6</ele>
<time>2024-05-10T12:56:10Z</time>
</trkpt>
<trkpt lat="49.61415479891002" lon="8.993465350940824">
<ele>248.6</ele>
<time>2024-05-10T12:56:11Z</time>
</trkpt>
<trkpt lat="49.614128060638905" lon="8.993484461680055">
<ele>248.8</ele>
<time>2024-05-10T12:56:12Z</time>
</trkpt>
<trkpt lat="49.61409755051136" lon="8.993505416437984">
<ele>248.8</ele>
<time>2024-05-10T12:56:13Z</time>
</trkpt>
<trkpt lat="49.614067040383816" lon="8.993528299033642">
<ele>249</ele>
<time>2024-05-10T12:56:14Z</time>
</trkpt>
<trkpt lat="49.61403653025627" lon="8.993550259619951">
<ele>249.2</ele>
<time>2024-05-10T12:56:15Z</time>
</trkpt>
<trkpt lat="49.61400602012873" lon="8.99357121437788">
<ele>249.4</ele>
<time>2024-05-10T12:56:16Z</time>
</trkpt>
<trkpt lat="49.61397551000118" lon="8.99359317496419">
<ele>249.6</ele>
<time>2024-05-10T12:56:17Z</time>
</trkpt>
<trkpt lat="49.613948771730065" lon="8.993617985397577">
<ele>249.6</ele>
<time>2024-05-10T12:56:18Z</time>
</trkpt>
<trkpt lat="49.61392211727798" lon="8.993643717840314">
<ele>249.8</ele>
<time>2024-05-10T12:56:19Z</time>
</trkpt>
<trkpt lat="49.61389152333141" lon="8.993664672598243">
<ele>249.8</ele>
<time>2024-05-10T12:56:20Z</time>
</trkpt>
<trkpt lat="49.61386486887932" lon="8.993688561022282">
<ele>250</ele>
<time>2024-05-10T12:56:21Z</time>
</trkpt>
<trkpt lat="49.6138381306082" lon="8.993708593770862">
<ele>250.2</ele>
<time>2024-05-10T12:56:22Z</time>
</trkpt>
<trkpt lat="49.613811476156116" lon="8.99372954852879">
<ele>250.4</ele>
<time>2024-05-10T12:56:23Z</time>
</trkpt>
<trkpt lat="49.613784737885" lon="8.993753353133798">
<ele>250.4</ele>
<time>2024-05-10T12:56:24Z</time>
</trkpt>
<trkpt lat="49.613754227757454" lon="8.99377154186368">
<ele>250.8</ele>
<time>2024-05-10T12:56:25Z</time>
</trkpt>
<trkpt lat="49.61372371762991" lon="8.993795346468687">
<ele>251</ele>
<time>2024-05-10T12:56:26Z</time>
</trkpt>
<trkpt lat="49.613693207502365" lon="8.993820156902075">
<ele>251.2</ele>
<time>2024-05-10T12:56:27Z</time>
</trkpt>
<trkpt lat="49.61366646923125" lon="8.99384681135416">
<ele>251.6</ele>
<time>2024-05-10T12:56:28Z</time>
</trkpt>
<trkpt lat="49.61363981477916" lon="8.993873549625278">
<ele>251.8</ele>
<time>2024-05-10T12:56:29Z</time>
</trkpt>
<trkpt lat="49.613613076508045" lon="8.993901209905744">
<ele>252</ele>
<time>2024-05-10T12:56:30Z</time>
</trkpt>
<trkpt lat="49.61358642205596" lon="8.993933647871017">
<ele>252.2</ele>
<time>2024-05-10T12:56:31Z</time>
</trkpt>
<trkpt lat="49.61355968378484" lon="8.993963235989213">
<ele>252.4</ele>
<time>2024-05-10T12:56:32Z</time>
</trkpt>
<trkpt lat="49.613532945513725" lon="8.993989890441298">
<ele>252.4</ele>
<time>2024-05-10T12:56:33Z</time>
</trkpt>
<trkpt lat="49.61350243538618" lon="8.994012773036957">
<ele>252.6</ele>
<time>2024-05-10T12:56:34Z</time>
</trkpt>
<trkpt lat="49.613475780934095" lon="8.994038505479693">
<ele>252.6</ele>
<time>2024-05-10T12:56:35Z</time>
</trkpt>
<trkpt lat="49.61344904266298" lon="8.994061388075352">
<ele>252.8</ele>
<time>2024-05-10T12:56:36Z</time>
</trkpt>
<trkpt lat="49.61342238821089" lon="8.99408619850874">
<ele>253</ele>
<time>2024-05-10T12:56:37Z</time>
</trkpt>
<trkpt lat="49.613399505615234" lon="8.994110086932778">
<ele>253.2</ele>
<time>2024-05-10T12:56:38Z</time>
</trkpt>
<trkpt lat="49.61337276734412" lon="8.994131963700056">
<ele>253.4</ele>
<time>2024-05-10T12:56:39Z</time>
</trkpt>
<trkpt lat="49.61334988474846" lon="8.994154930114746">
<ele>253.6</ele>
<time>2024-05-10T12:56:40Z</time>
</trkpt>
<trkpt lat="49.61332314647734" lon="8.994179656729102">
<ele>253.6</ele>
<time>2024-05-10T12:56:41Z</time>
</trkpt>
<trkpt lat="49.613296492025256" lon="8.99420547299087">
<ele>253.8</ele>
<time>2024-05-10T12:56:42Z</time>
</trkpt>
<trkpt lat="49.61326975375414" lon="8.994230199605227">
<ele>254</ele>
<time>2024-05-10T12:56:43Z</time>
</trkpt>
<trkpt lat="49.61324309930205" lon="8.994251238182187">
<ele>254.2</ele>
<time>2024-05-10T12:56:44Z</time>
</trkpt>
<trkpt lat="49.61322013288736" lon="8.994273114949465">
<ele>254.4</ele>
<time>2024-05-10T12:56:45Z</time>
</trkpt>
<trkpt lat="49.61319347843528" lon="8.994293147698045">
<ele>254.6</ele>
<time>2024-05-10T12:56:46Z</time>
</trkpt>
<trkpt lat="49.61316674016416" lon="8.994317958131433">
<ele>254.8</ele>
<time>2024-05-10T12:56:47Z</time>
</trkpt>
<trkpt lat="49.613140085712075" lon="8.994341846555471">
<ele>255</ele>
<time>2024-05-10T12:56:48Z</time>
</trkpt>
<trkpt lat="49.61311334744096" lon="8.99436472915113">
<ele>255.2</ele>
<time>2024-05-10T12:56:49Z</time>
</trkpt>
<trkpt lat="49.613082837313414" lon="8.994379984214902">
<ele>255.2</ele>
<time>2024-05-10T12:56:50Z</time>
</trkpt>
<trkpt lat="49.61305232718587" lon="8.99438476189971">
<ele>255.4</ele>
<time>2024-05-10T12:56:51Z</time>
</trkpt>
<trkpt lat="49.613021817058325" lon="8.994388533756137">
<ele>255.6</ele>
<time>2024-05-10T12:56:52Z</time>
</trkpt>
<trkpt lat="49.61298745125532" lon="8.994391383603215">
<ele>255.6</ele>
<time>2024-05-10T12:56:53Z</time>
</trkpt>
<trkpt lat="49.61295316927135" lon="8.994395239278674">
<ele>255.8</ele>
<time>2024-05-10T12:56:54Z</time>
</trkpt>
<trkpt lat="49.612922659143806" lon="8.994398089125752">
<ele>255.8</ele>
<time>2024-05-10T12:56:55Z</time>
</trkpt>
<trkpt lat="49.6128882933408" lon="8.994400016963482">
<ele>256</ele>
<time>2024-05-10T12:56:56Z</time>
</trkpt>
<trkpt lat="49.6128539275378" lon="8.99440186098218">
<ele>256.2</ele>
<time>2024-05-10T12:56:57Z</time>
</trkpt>
<trkpt lat="49.612823417410254" lon="8.994398089125752">
<ele>256.2</ele>
<time>2024-05-10T12:56:58Z</time>
</trkpt>
<trkpt lat="49.61278913542628" lon="8.994391383603215">
<ele>256.4</ele>
<time>2024-05-10T12:56:59Z</time>
</trkpt>
<trkpt lat="49.61275476962328" lon="8.99438283406198">
<ele>256.6</ele>
<time>2024-05-10T12:57:00Z</time>
</trkpt>
<trkpt lat="49.61272048763931" lon="8.994375206530094">
<ele>256.799</ele>
<time>2024-05-10T12:57:01Z</time>
</trkpt>
<trkpt lat="49.612686121836305" lon="8.994366573169827">
<ele>257</ele>
<time>2024-05-10T12:57:02Z</time>
</trkpt>
<trkpt lat="49.6126517560333" lon="8.994357101619244">
<ele>257.2</ele>
<time>2024-05-10T12:57:03Z</time>
</trkpt>
<trkpt lat="49.61261747404933" lon="8.994346540421247">
<ele>257.4</ele>
<time>2024-05-10T12:57:04Z</time>
</trkpt>
<trkpt lat="49.612583108246326" lon="8.994331285357475">
<ele>257.6</ele>
<time>2024-05-10T12:57:05Z</time>
</trkpt>
<trkpt lat="49.612544970586896" lon="8.994319885969162">
<ele>257.6</ele>
<time>2024-05-10T12:57:06Z</time>
</trkpt>
<trkpt lat="49.61251060478389" lon="8.994311252608895">
<ele>257.799</ele>
<time>2024-05-10T12:57:07Z</time>
</trkpt>
<trkpt lat="49.61247246712446" lon="8.99430655874312">
<ele>257.799</ele>
<time>2024-05-10T12:57:08Z</time>
</trkpt>
<trkpt lat="49.61243432946503" lon="8.99430362507701">
<ele>258</ele>
<time>2024-05-10T12:57:09Z</time>
</trkpt>
<trkpt lat="49.61240004748106" lon="8.994297925382853">
<ele>258.2</ele>
<time>2024-05-10T12:57:10Z</time>
</trkpt>
<trkpt lat="49.61236568167806" lon="8.994290297850966">
<ele>258.2</ele>
<time>2024-05-10T12:57:11Z</time>
</trkpt>
<trkpt lat="49.61233517155051" lon="8.99428459815681">
<ele>258.4</ele>
<time>2024-05-10T12:57:12Z</time>
</trkpt>
<trkpt lat="49.61230080574751" lon="8.994279820472002">
<ele>258.4</ele>
<time>2024-05-10T12:57:13Z</time>
</trkpt>
<trkpt lat="49.61226652376354" lon="8.994271270930767">
<ele>258.6</ele>
<time>2024-05-10T12:57:14Z</time>
</trkpt>
<trkpt lat="49.612232157960534" lon="8.994263643398881">
<ele>258.799</ele>
<time>2024-05-10T12:57:15Z</time>
</trkpt>
<trkpt lat="49.61220164783299" lon="8.994248388335109">
<ele>259.2</ele>
<time>2024-05-10T12:57:16Z</time>
</trkpt>
<trkpt lat="49.61216351017356" lon="8.994236905127764">
<ele>259.4</ele>
<time>2024-05-10T12:57:17Z</time>
</trkpt>
<trkpt lat="49.61212914437056" lon="8.994230199605227">
<ele>259.6</ele>
<time>2024-05-10T12:57:18Z</time>
</trkpt>
<trkpt lat="49.612091006711125" lon="8.994223577901721">
<ele>259.799</ele>
<time>2024-05-10T12:57:19Z</time>
</trkpt>
<trkpt lat="49.612056724727154" lon="8.994219722226262">
<ele>260</ele>
<time>2024-05-10T12:57:20Z</time>
</trkpt>
<trkpt lat="49.61202235892415" lon="8.994214944541454">
<ele>260.2</ele>
<time>2024-05-10T12:57:21Z</time>
</trkpt>
<trkpt lat="49.611991848796606" lon="8.994208322837949">
<ele>260.4</ele>
<time>2024-05-10T12:57:22Z</time>
</trkpt>
<trkpt lat="49.6119574829936" lon="8.994201617315412">
<ele>260.6</ele>
<time>2024-05-10T12:57:23Z</time>
</trkpt>
<trkpt lat="49.61192697286606" lon="8.994196839630604">
<ele>260.799</ele>
<time>2024-05-10T12:57:24Z</time>
</trkpt>
<trkpt lat="49.611896462738514" lon="8.994190134108067">
<ele>261</ele>
<time>2024-05-10T12:57:25Z</time>
</trkpt>
<trkpt lat="49.61186218075454" lon="8.994183512404561">
<ele>261</ele>
<time>2024-05-10T12:57:26Z</time>
</trkpt>
<trkpt lat="49.611831586807966" lon="8.994178734719753">
<ele>261.2</ele>
<time>2024-05-10T12:57:27Z</time>
</trkpt>
<trkpt lat="49.611797304823995" lon="8.994174879044294">
<ele>261.2</ele>
<time>2024-05-10T12:57:28Z</time>
</trkpt>
<trkpt lat="49.61176293902099" lon="8.994172029197216">
<ele>261.2</ele>
<time>2024-05-10T12:57:29Z</time>
</trkpt>
<trkpt lat="49.61172480136156" lon="8.994168257340789">
<ele>261.4</ele>
<time>2024-05-10T12:57:30Z</time>
</trkpt>
<trkpt lat="49.611694291234016" lon="8.994163479655981">
<ele>261.4</ele>
<time>2024-05-10T12:57:31Z</time>
</trkpt>
<trkpt lat="49.61165992543101" lon="8.994159623980522">
<ele>261.4</ele>
<time>2024-05-10T12:57:32Z</time>
</trkpt>
<trkpt lat="49.61162564344704" lon="8.994158701971173">
<ele>261.4</ele>
<time>2024-05-10T12:57:33Z</time>
</trkpt>
<trkpt lat="49.6115951333195" lon="8.994156774133444">
<ele>261.6</ele>
<time>2024-05-10T12:57:34Z</time>
</trkpt>
<trkpt lat="49.61156462319195" lon="8.994159623980522">
<ele>261.6</ele>
<time>2024-05-10T12:57:35Z</time>
</trkpt>
<trkpt lat="49.61153411306441" lon="8.994161551818252">
<ele>261.799</ele>
<time>2024-05-10T12:57:36Z</time>
</trkpt>
<trkpt lat="49.611499747261405" lon="8.994159623980522">
<ele>261.799</ele>
<time>2024-05-10T12:57:37Z</time>
</trkpt>
<trkpt lat="49.6114653814584" lon="8.994159623980522">
<ele>261.799</ele>
<time>2024-05-10T12:57:38Z</time>
</trkpt>
<trkpt lat="49.61143109947443" lon="8.994161551818252">
<ele>261.799</ele>
<time>2024-05-10T12:57:39Z</time>
</trkpt>
<trkpt lat="49.611392961815" lon="8.99416540749371">
<ele>262</ele>
<time>2024-05-10T12:57:40Z</time>
</trkpt>
<trkpt lat="49.61135096848011" lon="8.99416540749371">
<ele>262</ele>
<time>2024-05-10T12:57:41Z</time>
</trkpt>
<trkpt lat="49.61130897514522" lon="8.994168257340789">
<ele>262</ele>
<time>2024-05-10T12:57:42Z</time>
</trkpt>
<trkpt lat="49.61126706562936" lon="8.994173035025597">
<ele>261.799</ele>
<time>2024-05-10T12:57:43Z</time>
</trkpt>
<trkpt lat="49.61122892796993" lon="8.994179656729102">
<ele>261.799</ele>
<time>2024-05-10T12:57:44Z</time>
</trkpt>
<trkpt lat="49.61118693463504" lon="8.994188290089369">
<ele>261.799</ele>
<time>2024-05-10T12:57:45Z</time>
</trkpt>
<trkpt lat="49.611144941300154" lon="8.994197845458984">
<ele>261.4</ele>
<time>2024-05-10T12:57:46Z</time>
</trkpt>
<trkpt lat="49.61110680364072" lon="8.994210166856647">
<ele>261.2</ele>
<time>2024-05-10T12:57:47Z</time>
</trkpt>
<trkpt lat="49.611064894124866" lon="8.994221650063992">
<ele>261</ele>
<time>2024-05-10T12:57:48Z</time>
</trkpt>
<trkpt lat="49.611026756465435" lon="8.994234977290034">
<ele>261</ele>
<time>2024-05-10T12:57:49Z</time>
</trkpt>
<trkpt lat="49.61097713559866" lon="8.99424646049738">
<ele>260.799</ele>
<time>2024-05-10T12:57:50Z</time>
</trkpt>
<trkpt lat="49.61093137040734" lon="8.994250232353806">
<ele>261</ele>
<time>2024-05-10T12:57:51Z</time>
</trkpt>
<trkpt lat="49.61088174954057" lon="8.994253082200885">
<ele>261</ele>
<time>2024-05-10T12:57:52Z</time>
</trkpt>
<trkpt lat="49.61083598434925" lon="8.994257859885693">
<ele>261</ele>
<time>2024-05-10T12:57:53Z</time>
</trkpt>
<trkpt lat="49.610790219157934" lon="8.99426456540823">
<ele>261.2</ele>
<time>2024-05-10T12:57:54Z</time>
</trkpt>
<trkpt lat="49.61074445396662" lon="8.994275042787194">
<ele>261.4</ele>
<time>2024-05-10T12:57:55Z</time>
</trkpt>
<trkpt lat="49.6106986887753" lon="8.994283676147461">
<ele>261.4</ele>
<time>2024-05-10T12:57:56Z</time>
</trkpt>
<trkpt lat="49.610652923583984" lon="8.994293147698045">
<ele>261.6</ele>
<time>2024-05-10T12:57:57Z</time>
</trkpt>
<trkpt lat="49.61060330271721" lon="8.994301781058311">
<ele>261.6</ele>
<time>2024-05-10T12:57:58Z</time>
</trkpt>
<trkpt lat="49.61055753752589" lon="8.994308402761817">
<ele>261.799</ele>
<time>2024-05-10T12:57:59Z</time>
</trkpt>
<trkpt lat="49.610511772334576" lon="8.994317036122084">
<ele>261.799</ele>
<time>2024-05-10T12:58:00Z</time>
</trkpt>
<trkpt lat="49.61045829579234" lon="8.994330363348126">
<ele>261.799</ele>
<time>2024-05-10T12:58:01Z</time>
</trkpt>
<trkpt lat="49.61040490306914" lon="8.994341846555471">
<ele>262</ele>
<time>2024-05-10T12:58:02Z</time>
</trkpt>
<trkpt lat="49.610355366021395" lon="8.994351318106055">
<ele>262</ele>
<time>2024-05-10T12:58:03Z</time>
</trkpt>
<trkpt lat="49.61030188947916" lon="8.99436179548502">
<ele>262</ele>
<time>2024-05-10T12:58:04Z</time>
</trkpt>
<trkpt lat="49.61025235243142" lon="8.994375206530094">
<ele>262</ele>
<time>2024-05-10T12:58:05Z</time>
</trkpt>
<trkpt lat="49.61020273156464" lon="8.99438283406198">
<ele>262</ele>
<time>2024-05-10T12:58:06Z</time>
</trkpt>
<trkpt lat="49.6101531945169" lon="8.994391383603215">
<ele>262</ele>
<time>2024-05-10T12:58:07Z</time>
</trkpt>
<trkpt lat="49.61010357365012" lon="8.994398089125752">
<ele>262</ele>
<time>2024-05-10T12:58:08Z</time>
</trkpt>
<trkpt lat="49.610057808458805" lon="8.994404710829258">
<ele>262</ele>
<time>2024-05-10T12:58:09Z</time>
</trkpt>
<trkpt lat="49.61000818759203" lon="8.994413344189525">
<ele>262</ele>
<time>2024-05-10T12:58:10Z</time>
</trkpt>
<trkpt lat="49.60996242240071" lon="8.994420049712062">
<ele>261.799</ele>
<time>2024-05-10T12:58:11Z</time>
</trkpt>
<trkpt lat="49.60991665720939" lon="8.994424743577838">
<ele>261.799</ele>
<time>2024-05-10T12:58:12Z</time>
</trkpt>
<trkpt lat="49.60987466387451" lon="8.994428599253297">
<ele>261.799</ele>
<time>2024-05-10T12:58:13Z</time>
</trkpt>
<trkpt lat="49.60982512682676" lon="8.994431449100375">
<ele>261.799</ele>
<time>2024-05-10T12:58:14Z</time>
</trkpt>
<trkpt lat="49.609783133491874" lon="8.994433376938105">
<ele>261.799</ele>
<time>2024-05-10T12:58:15Z</time>
</trkpt>
<trkpt lat="49.60973736830056" lon="8.994433376938105">
<ele>261.799</ele>
<time>2024-05-10T12:58:16Z</time>
</trkpt>
<trkpt lat="49.60969537496567" lon="8.994431449100375">
<ele>261.799</ele>
<time>2024-05-10T12:58:17Z</time>
</trkpt>
<trkpt lat="49.60965346544981" lon="8.994429521262646">
<ele>261.799</ele>
<time>2024-05-10T12:58:18Z</time>
</trkpt>
<trkpt lat="49.60961524397135" lon="8.994426671415567">
<ele>261.799</ele>
<time>2024-05-10T12:58:19Z</time>
</trkpt>
<trkpt lat="49.60957710631192" lon="8.99442289955914">
<ele>261.799</ele>
<time>2024-05-10T12:58:20Z</time>
</trkpt>
<trkpt lat="49.60953896865249" lon="8.994420049712062">
<ele>262</ele>
<time>2024-05-10T12:58:21Z</time>
</trkpt>
<trkpt lat="49.609504686668515" lon="8.994409488514066">
<ele>262</ele>
<time>2024-05-10T12:58:22Z</time>
</trkpt>
<trkpt lat="49.609466549009085" lon="8.994396161288023">
<ele>262.2</ele>
<time>2024-05-10T12:58:23Z</time>
</trkpt>
<trkpt lat="49.60943218320608" lon="8.99438283406198">
<ele>262.2</ele>
<time>2024-05-10T12:58:24Z</time>
</trkpt>
<trkpt lat="49.60940167307854" lon="8.994371350854635">
<ele>262.2</ele>
<time>2024-05-10T12:58:25Z</time>
</trkpt>
<trkpt lat="49.609367307275534" lon="8.994355173781514">
<ele>262.2</ele>
<time>2024-05-10T12:58:26Z</time>
</trkpt>
<trkpt lat="49.60933302529156" lon="8.994341846555471">
<ele>262.4</ele>
<time>2024-05-10T12:58:27Z</time>
</trkpt>
<trkpt lat="49.60929488763213" lon="8.9943265914917">
<ele>262.4</ele>
<time>2024-05-10T12:58:28Z</time>
</trkpt>
<trkpt lat="49.60926052182913" lon="8.994313180446625">
<ele>262.4</ele>
<time>2024-05-10T12:58:29Z</time>
</trkpt>
<trkpt lat="49.6092223841697" lon="8.994297003373504">
<ele>262.4</ele>
<time>2024-05-10T12:58:30Z</time>
</trkpt>
<trkpt lat="49.609188018366694" lon="8.994276970624924">
<ele>262.4</ele>
<time>2024-05-10T12:58:31Z</time>
</trkpt>
<trkpt lat="49.609149880707264" lon="8.994256937876344">
<ele>262.4</ele>
<time>2024-05-10T12:58:32Z</time>
</trkpt>
<trkpt lat="49.60911559872329" lon="8.994234977290034">
<ele>262.4</ele>
<time>2024-05-10T12:58:33Z</time>
</trkpt>
<trkpt lat="49.60908123292029" lon="8.994216872379184">
<ele>262.6</ele>
<time>2024-05-10T12:58:34Z</time>
</trkpt>
<trkpt lat="49.609046867117286" lon="8.994199689477682">
<ele>262.6</ele>
<time>2024-05-10T12:58:35Z</time>
</trkpt>
<trkpt lat="49.609012585133314" lon="8.994183512404561">
<ele>262.8</ele>
<time>2024-05-10T12:58:36Z</time>
</trkpt>
<trkpt lat="49.60897821933031" lon="8.99416632950306">
<ele>262.8</ele>
<time>2024-05-10T12:58:37Z</time>
</trkpt>
<trkpt lat="49.60894393734634" lon="8.994150152429938">
<ele>262.8</ele>
<time>2024-05-10T12:58:38Z</time>
</trkpt>
<trkpt lat="49.60891334339976" lon="8.994131963700056">
<ele>262.6</ele>
<time>2024-05-10T12:58:39Z</time>
</trkpt>
<trkpt lat="49.60887906141579" lon="8.994114864617586">
<ele>262.6</ele>
<time>2024-05-10T12:58:40Z</time>
</trkpt>
<trkpt lat="49.60884855128825" lon="8.994096675887704">
<ele>262.6</ele>
<time>2024-05-10T12:58:41Z</time>
</trkpt>
<trkpt lat="49.6088180411607" lon="8.994079576805234">
<ele>262.6</ele>
<time>2024-05-10T12:58:42Z</time>
</trkpt>
<trkpt lat="49.60878753103316" lon="8.994061388075352">
<ele>262.6</ele>
<time>2024-05-10T12:58:43Z</time>
</trkpt>
<trkpt lat="49.608753165230155" lon="8.994043283164501">
<ele>262.6</ele>
<time>2024-05-10T12:58:44Z</time>
</trkpt>
<trkpt lat="49.60872642695904" lon="8.994023250415921">
<ele>262.6</ele>
<time>2024-05-10T12:58:45Z</time>
</trkpt>
<trkpt lat="49.60869591683149" lon="8.994003217667341">
<ele>262.8</ele>
<time>2024-05-10T12:58:46Z</time>
</trkpt>
<trkpt lat="49.608676889911294" lon="8.993981340900064">
<ele>263</ele>
<time>2024-05-10T12:58:47Z</time>
</trkpt>
<trkpt lat="49.60865777917206" lon="8.993963235989213">
<ele>263.4</ele>
<time>2024-05-10T12:58:48Z</time>
</trkpt>
<trkpt lat="49.60863875225186" lon="8.99394798092544">
<ele>263.6</ele>
<time>2024-05-10T12:58:49Z</time>
</trkpt>
<trkpt lat="49.60860824212432" lon="8.993929792195559">
<ele>264</ele>
<time>2024-05-10T12:58:50Z</time>
</trkpt>
<trkpt lat="49.6085815038532" lon="8.993905065581203">
<ele>264.4</ele>
<time>2024-05-10T12:58:51Z</time>
</trkpt>
<trkpt lat="49.60855099372566" lon="8.993878327310085">
<ele>264.6</ele>
<time>2024-05-10T12:58:52Z</time>
</trkpt>
<trkpt lat="49.60852048359811" lon="8.993854522705078">
<ele>265</ele>
<time>2024-05-10T12:58:53Z</time>
</trkpt>
<trkpt lat="49.60848997347057" lon="8.993826862424612">
<ele>265.2</ele>
<time>2024-05-10T12:58:54Z</time>
</trkpt>
<trkpt lat="49.60846323519945" lon="8.993795346468687">
<ele>265.4</ele>
<time>2024-05-10T12:58:55Z</time>
</trkpt>
<trkpt lat="49.60843272507191" lon="8.993761986494064">
<ele>265.6</ele>
<time>2024-05-10T12:58:56Z</time>
</trkpt>
<trkpt lat="49.60840598680079" lon="8.99373340420425">
<ele>266</ele>
<time>2024-05-10T12:58:57Z</time>
</trkpt>
<trkpt lat="49.608375476673245" lon="8.993702810257673">
<ele>266.4</ele>
<time>2024-05-10T12:58:58Z</time>
</trkpt>
<trkpt lat="49.60834882222116" lon="8.99367137812078">
<ele>266.6</ele>
<time>2024-05-10T12:58:59Z</time>
</trkpt>
<trkpt lat="49.608318312093616" lon="8.993639945983887">
<ele>267.2</ele>
<time>2024-05-10T12:59:00Z</time>
</trkpt>
<trkpt lat="49.6082915738225" lon="8.99361320771277">
<ele>267.6</ele>
<time>2024-05-10T12:59:01Z</time>
</trkpt>
<trkpt lat="49.60826491937041" lon="8.993584625422955">
<ele>267.8</ele>
<time>2024-05-10T12:59:02Z</time>
</trkpt>
<trkpt lat="49.60824195295572" lon="8.993556965142488">
<ele>267.8</ele>
<time>2024-05-10T12:59:03Z</time>
</trkpt>
<trkpt lat="49.60822292603552" lon="8.993526455014944">
<ele>268</ele>
<time>2024-05-10T12:59:04Z</time>
</trkpt>
<trkpt lat="49.608200043439865" lon="8.993497788906097">
<ele>268.2</ele>
<time>2024-05-10T12:59:05Z</time>
</trkpt>
<trkpt lat="49.60817330516875" lon="8.993470128625631">
<ele>268.4</ele>
<time>2024-05-10T12:59:06Z</time>
</trkpt>
<trkpt lat="49.60814665071666" lon="8.993445318192244">
<ele>268.4</ele>
<time>2024-05-10T12:59:07Z</time>
</trkpt>
<trkpt lat="49.60812376812101" lon="8.993416735902429">
<ele>268.2</ele>
<time>2024-05-10T12:59:08Z</time>
</trkpt>
<trkpt lat="49.608100885525346" lon="8.993392931297421">
<ele>268.2</ele>
<time>2024-05-10T12:59:09Z</time>
</trkpt>
<trkpt lat="49.60807800292969" lon="8.993368120864034">
<ele>268</ele>
<time>2024-05-10T12:59:10Z</time>
</trkpt>
<trkpt lat="49.608055036515" lon="8.993345238268375">
<ele>268</ele>
<time>2024-05-10T12:59:11Z</time>
</trkpt>
<trkpt lat="49.60803215391934" lon="8.993320427834988">
<ele>267.8</ele>
<time>2024-05-10T12:59:12Z</time>
</trkpt>
<trkpt lat="49.60800927132368" lon="8.99329368956387">
<ele>267.8</ele>
<time>2024-05-10T12:59:13Z</time>
</trkpt>
<trkpt lat="49.60798638872802" lon="8.993265107274055">
<ele>267.6</ele>
<time>2024-05-10T12:59:14Z</time>
</trkpt>
<trkpt lat="49.60796350613237" lon="8.993240296840668">
<ele>267.4</ele>
<time>2024-05-10T12:59:15Z</time>
</trkpt>
<trkpt lat="49.607940623536706" lon="8.993214564397931">
<ele>267.2</ele>
<time>2024-05-10T12:59:16Z</time>
</trkpt>
<trkpt lat="49.60791774094105" lon="8.993189753964543">
<ele>267</ele>
<time>2024-05-10T12:59:17Z</time>
</trkpt>
<trkpt lat="49.6078872308135" lon="8.993163099512458">
<ele>267</ele>
<time>2024-05-10T12:59:18Z</time>
</trkpt>
<trkpt lat="49.607860492542386" lon="8.99313636124134">
<ele>267</ele>
<time>2024-05-10T12:59:19Z</time>
</trkpt>
<trkpt lat="49.60782998241484" lon="8.993109622970223">
<ele>267</ele>
<time>2024-05-10T12:59:20Z</time>
</trkpt>
<trkpt lat="49.60780332796275" lon="8.993082046508789">
<ele>267</ele>
<time>2024-05-10T12:59:21Z</time>
</trkpt>
<trkpt lat="49.60777658969164" lon="8.993055308237672">
<ele>267.2</ele>
<time>2024-05-10T12:59:22Z</time>
</trkpt>
<trkpt lat="49.60775370709598" lon="8.993026725947857">
<ele>267.2</ele>
<time>2024-05-10T12:59:23Z</time>
</trkpt>
<trkpt lat="49.60772696882486" lon="8.99299998767674">
<ele>267.4</ele>
<time>2024-05-10T12:59:24Z</time>
</trkpt>
<trkpt lat="49.607704086229205" lon="8.992973249405622">
<ele>267.6</ele>
<time>2024-05-10T12:59:25Z</time>
</trkpt>
<trkpt lat="49.60768120363355" lon="8.992943745106459">
<ele>267.6</ele>
<time>2024-05-10T12:59:26Z</time>
</trkpt>
<trkpt lat="49.60765832103789" lon="8.992918012663722">
<ele>267.8</ele>
<time>2024-05-10T12:59:27Z</time>
</trkpt>
<trkpt lat="49.6076316665858" lon="8.992890352383256">
<ele>267.8</ele>
<time>2024-05-10T12:59:28Z</time>
</trkpt>
<trkpt lat="49.607608783990145" lon="8.99286168627441">
<ele>268</ele>
<time>2024-05-10T12:59:29Z</time>
</trkpt>
<trkpt lat="49.607585901394486" lon="8.992831176146865">
<ele>267.8</ele>
<time>2024-05-10T12:59:30Z</time>
</trkpt>
<trkpt lat="49.60756301879883" lon="8.992803515866399">
<ele>267.8</ele>
<time>2024-05-10T12:59:31Z</time>
</trkpt>
<trkpt lat="49.60754005238414" lon="8.992774933576584">
<ele>267.8</ele>
<time>2024-05-10T12:59:32Z</time>
</trkpt>
<trkpt lat="49.60751716978848" lon="8.992745345458388">
<ele>267.8</ele>
<time>2024-05-10T12:59:33Z</time>
</trkpt>
<trkpt lat="49.607490515336394" lon="8.992716763168573">
<ele>268</ele>
<time>2024-05-10T12:59:34Z</time>
</trkpt>
<trkpt lat="49.60747140459716" lon="8.992688097059727">
<ele>268</ele>
<time>2024-05-10T12:59:35Z</time>
</trkpt>
<trkpt lat="49.607448522001505" lon="8.992656664922833">
<ele>268</ele>
<time>2024-05-10T12:59:36Z</time>
</trkpt>
<trkpt lat="49.60742563940585" lon="8.99262523278594">
<ele>267.8</ele>
<time>2024-05-10T12:59:37Z</time>
</trkpt>
<trkpt lat="49.60740661248565" lon="8.992591788992286">
<ele>267.8</ele>
<time>2024-05-10T12:59:38Z</time>
</trkpt>
<trkpt lat="49.607387501746416" lon="8.992561278864741">
<ele>267.8</ele>
<time>2024-05-10T12:59:39Z</time>
</trkpt>
<trkpt lat="49.60737224668264" lon="8.992529846727848">
<ele>267.8</ele>
<time>2024-05-10T12:59:40Z</time>
</trkpt>
<trkpt lat="49.60735313594341" lon="8.992498330771923">
<ele>267.8</ele>
<time>2024-05-10T12:59:41Z</time>
</trkpt>
<trkpt lat="49.60733410902321" lon="8.992469748482108">
<ele>267.8</ele>
<time>2024-05-10T12:59:42Z</time>
</trkpt>
<trkpt lat="49.60731499828398" lon="8.992443010210991">
<ele>267.6</ele>
<time>2024-05-10T12:59:43Z</time>
</trkpt>
<trkpt lat="49.60729597136378" lon="8.992413505911827">
<ele>267.6</ele>
<time>2024-05-10T12:59:44Z</time>
</trkpt>
<trkpt lat="49.607273088768125" lon="8.992381989955902">
<ele>267.8</ele>
<time>2024-05-10T12:59:45Z</time>
</trkpt>
<trkpt lat="49.60725397802889" lon="8.992349551990628">
<ele>267.8</ele>
<time>2024-05-10T12:59:46Z</time>
</trkpt>
<trkpt lat="49.607234951108694" lon="8.992321891710162">
<ele>267.8</ele>
<time>2024-05-10T12:59:47Z</time>
</trkpt>
<trkpt lat="49.607211984694" lon="8.992291381582618">
<ele>268</ele>
<time>2024-05-10T12:59:48Z</time>
</trkpt>
<trkpt lat="49.607192957773805" lon="8.992263721302152">
<ele>268</ele>
<time>2024-05-10T12:59:49Z</time>
</trkpt>
<trkpt lat="49.607173847034574" lon="8.992233211174607">
<ele>268.2</ele>
<time>2024-05-10T12:59:50Z</time>
</trkpt>
<trkpt lat="49.607154820114374" lon="8.99220840074122">
<ele>268.4</ele>
<time>2024-05-10T12:59:51Z</time>
</trkpt>
<trkpt lat="49.60713193751872" lon="8.992179818451405">
<ele>268.4</ele>
<time>2024-05-10T12:59:52Z</time>
</trkpt>
<trkpt lat="49.607112826779485" lon="8.99215123616159">
<ele>268.6</ele>
<time>2024-05-10T12:59:53Z</time>
</trkpt>
<trkpt lat="49.607089944183826" lon="8.992121648043394">
<ele>268.6</ele>
<time>2024-05-10T12:59:54Z</time>
</trkpt>
<trkpt lat="49.60707091726363" lon="8.99209306575358">
<ele>268.6</ele>
<time>2024-05-10T12:59:55Z</time>
</trkpt>
<trkpt lat="49.6070518065244" lon="8.992063477635384">
<ele>268.8</ele>
<time>2024-05-10T12:59:56Z</time>
</trkpt>
<trkpt lat="49.60702892392874" lon="8.992036739364266">
<ele>268.8</ele>
<time>2024-05-10T12:59:57Z</time>
</trkpt>
<trkpt lat="49.60700604133308" lon="8.992005307227373">
<ele>268.8</ele>
<time>2024-05-10T12:59:58Z</time>
</trkpt>
<trkpt lat="49.60698315873742" lon="8.991970019415021">
<ele>268.8</ele>
<time>2024-05-10T12:59:59Z</time>
</trkpt>
<trkpt lat="49.60696027614176" lon="8.991936659440398">
<ele>268.8</ele>
<time>2024-05-10T13:00:00Z</time>
</trkpt>
<trkpt lat="49.606937393546104" lon="8.991901371628046">
<ele>269</ele>
<time>2024-05-10T13:00:01Z</time>
</trkpt>
<trkpt lat="49.606914510950446" lon="8.991874633356929">
<ele>269.2</ele>
<time>2024-05-10T13:00:02Z</time>
</trkpt>
<trkpt lat="49.60689162835479" lon="8.991846973076463">
<ele>269.2</ele>
<time>2024-05-10T13:00:03Z</time>
</trkpt>
<trkpt lat="49.6068686619401" lon="8.991818390786648">
<ele>269.4</ele>
<time>2024-05-10T13:00:04Z</time>
</trkpt>
<trkpt lat="49.60684577934444" lon="8.991789808496833">
<ele>269.6</ele>
<time>2024-05-10T13:00:05Z</time>
</trkpt>
<trkpt lat="49.60682289674878" lon="8.991762148216367">
<ele>270</ele>
<time>2024-05-10T13:00:06Z</time>
</trkpt>
<trkpt lat="49.60680001415312" lon="8.99173540994525">
<ele>270.2</ele>
<time>2024-05-10T13:00:07Z</time>
</trkpt>
<trkpt lat="49.60678098723292" lon="8.991706827655435">
<ele>270.8</ele>
<time>2024-05-10T13:00:08Z</time>
</trkpt>
<trkpt lat="49.606758104637265" lon="8.991678161546588">
<ele>271.2</ele>
<time>2024-05-10T13:00:09Z</time>
</trkpt>
<trkpt lat="49.60673522204161" lon="8.991649579256773">
<ele>271.6</ele>
<time>2024-05-10T13:00:10Z</time>
</trkpt>
<trkpt lat="49.60671233944595" lon="8.991619991138577">
<ele>272</ele>
<time>2024-05-10T13:00:11Z</time>
</trkpt>
<trkpt lat="49.60669322870672" lon="8.991590486839414">
<ele>272.2</ele>
<time>2024-05-10T13:00:12Z</time>
</trkpt>
<trkpt lat="49.60667034611106" lon="8.99155804887414">
<ele>272.2</ele>
<time>2024-05-10T13:00:13Z</time>
</trkpt>
<trkpt lat="49.6066474635154" lon="8.991530388593674">
<ele>272.4</ele>
<time>2024-05-10T13:00:14Z</time>
</trkpt>
<trkpt lat="49.60662835277617" lon="8.991497028619051">
<ele>272.4</ele>
<time>2024-05-10T13:00:15Z</time>
</trkpt>
<trkpt lat="49.60660169832408" lon="8.991464590653777">
<ele>272.4</ele>
<time>2024-05-10T13:00:16Z</time>
</trkpt>
<trkpt lat="49.60658258758485" lon="8.991433074697852">
<ele>272.4</ele>
<time>2024-05-10T13:00:17Z</time>
</trkpt>
<trkpt lat="49.60655593313277" lon="8.991403570398688">
<ele>272.4</ele>
<time>2024-05-10T13:00:18Z</time>
</trkpt>
<trkpt lat="49.60653682239354" lon="8.991374904289842">
<ele>272.6</ele>
<time>2024-05-10T13:00:19Z</time>
</trkpt>
<trkpt lat="49.60651393979788" lon="8.991346322000027">
<ele>272.8</ele>
<time>2024-05-10T13:00:20Z</time>
</trkpt>
<trkpt lat="49.60649482905865" lon="8.99131958372891">
<ele>273</ele>
<time>2024-05-10T13:00:21Z</time>
</trkpt>
<trkpt lat="49.60647194646299" lon="8.991296701133251">
<ele>273</ele>
<time>2024-05-10T13:00:22Z</time>
</trkpt>
<trkpt lat="49.60645291954279" lon="8.991270046681166">
<ele>273.2</ele>
<time>2024-05-10T13:00:23Z</time>
</trkpt>
<trkpt lat="49.60643766447902" lon="8.99123853072524">
<ele>273.4</ele>
<time>2024-05-10T13:00:24Z</time>
</trkpt>
<trkpt lat="49.606418553739786" lon="8.991214726120234">
<ele>273.6</ele>
<time>2024-05-10T13:00:25Z</time>
</trkpt>
<trkpt lat="49.606403298676014" lon="8.991193771362305">
<ele>273.6</ele>
<time>2024-05-10T13:00:26Z</time>
</trkpt>
<trkpt lat="49.60638804361224" lon="8.991171810775995">
<ele>273.8</ele>
<time>2024-05-10T13:00:27Z</time>
</trkpt>
<trkpt lat="49.60636901669204" lon="8.991153705865145">
<ele>273.8</ele>
<time>2024-05-10T13:00:28Z</time>
</trkpt>
<trkpt lat="49.60635367780924" lon="8.991133673116565">
<ele>274</ele>
<time>2024-05-10T13:00:29Z</time>
</trkpt>
<trkpt lat="49.606342278420925" lon="8.991113640367985">
<ele>274</ele>
<time>2024-05-10T13:00:30Z</time>
</trkpt>
<trkpt lat="49.60633465088904" lon="8.991096457466483">
<ele>274.2</ele>
<time>2024-05-10T13:00:31Z</time>
</trkpt>
<trkpt lat="49.606323167681694" lon="8.991078352555633">
<ele>274.2</ele>
<time>2024-05-10T13:00:32Z</time>
</trkpt>
<trkpt lat="49.60631176829338" lon="8.991060247644782">
<ele>274.4</ele>
<time>2024-05-10T13:00:33Z</time>
</trkpt>
<trkpt lat="49.60629651322961" lon="8.991041136905551">
<ele>274.6</ele>
<time>2024-05-10T13:00:34Z</time>
</trkpt>
<trkpt lat="49.60628503002226" lon="8.9910230319947">
<ele>274.8</ele>
<time>2024-05-10T13:00:35Z</time>
</trkpt>
<trkpt lat="49.60626977495849" lon="8.99100492708385">
<ele>274.8</ele>
<time>2024-05-10T13:00:36Z</time>
</trkpt>
<trkpt lat="49.60625837557018" lon="8.99098489433527">
<ele>274.8</ele>
<time>2024-05-10T13:00:37Z</time>
</trkpt>
<trkpt lat="49.60624689236283" lon="8.99096678942442">
<ele>274.8</ele>
<time>2024-05-10T13:00:38Z</time>
</trkpt>
<trkpt lat="49.60623163729906" lon="8.990951534360647">
<ele>275</ele>
<time>2024-05-10T13:00:39Z</time>
</trkpt>
<trkpt lat="49.60622023791075" lon="8.990938123315573">
<ele>275.2</ele>
<time>2024-05-10T13:00:40Z</time>
</trkpt>
<trkpt lat="49.606204982846975" lon="8.99092479608953">
<ele>275.4</ele>
<time>2024-05-10T13:00:41Z</time>
</trkpt>
<trkpt lat="49.6061897277832" lon="8.990911468863487">
<ele>275.6</ele>
<time>2024-05-10T13:00:42Z</time>
</trkpt>
<trkpt lat="49.60617824457586" lon="8.990899985656142">
<ele>275.8</ele>
<time>2024-05-10T13:00:43Z</time>
</trkpt>
<trkpt lat="49.60616676136851" lon="8.990895207971334">
<ele>276.2</ele>
<time>2024-05-10T13:00:44Z</time>
</trkpt>
<trkpt lat="49.60615150630474" lon="8.99088280275464">
<ele>276.4</ele>
<time>2024-05-10T13:00:45Z</time>
</trkpt>
<trkpt lat="49.60613625124097" lon="8.99086469784379">
<ele>276.6</ele>
<time>2024-05-10T13:00:46Z</time>
</trkpt>
<trkpt lat="49.606124851852655" lon="8.990841815248132">
<ele>276.8</ele>
<time>2024-05-10T13:00:47Z</time>
</trkpt>
<trkpt lat="49.60610959678888" lon="8.99082656018436">
<ele>276.8</ele>
<time>2024-05-10T13:00:48Z</time>
</trkpt>
<trkpt lat="49.60609434172511" lon="8.990815160796046">
<ele>277</ele>
<time>2024-05-10T13:00:49Z</time>
</trkpt>
<trkpt lat="49.60607523098588" lon="8.990797977894545">
<ele>277.2</ele>
<time>2024-05-10T13:00:50Z</time>
</trkpt>
<trkpt lat="49.60605620406568" lon="8.990777945145965">
<ele>277.2</ele>
<time>2024-05-10T13:00:51Z</time>
</trkpt>
<trkpt lat="49.60602946579456" lon="8.990753134712577">
<ele>277.2</ele>
<time>2024-05-10T13:00:52Z</time>
</trkpt>
<trkpt lat="49.606006583198905" lon="8.99072639644146">
<ele>277.2</ele>
<time>2024-05-10T13:00:53Z</time>
</trkpt>
<trkpt lat="49.60597984492779" lon="8.990710219368339">
<ele>277.2</ele>
<time>2024-05-10T13:00:54Z</time>
</trkpt>
<trkpt lat="49.60596081800759" lon="8.990693036466837">
<ele>277</ele>
<time>2024-05-10T13:00:55Z</time>
</trkpt>
<trkpt lat="49.60594933480024" lon="8.990672081708908">
<ele>277</ele>
<time>2024-05-10T13:00:56Z</time>
</trkpt>
<trkpt lat="49.60593030788005" lon="8.990663448348641">
<ele>276.8</ele>
<time>2024-05-10T13:00:57Z</time>
</trkpt>
<trkpt lat="49.60591119714081" lon="8.990656826645136">
<ele>276.6</ele>
<time>2024-05-10T13:00:58Z</time>
</trkpt>
<trkpt lat="49.60589217022061" lon="8.990650121122599">
<ele>276.4</ele>
<time>2024-05-10T13:00:59Z</time>
</trkpt>
<trkpt lat="49.60587305948138" lon="8.990643499419093">
<ele>276.2</ele>
<time>2024-05-10T13:01:00Z</time>
</trkpt>
<trkpt lat="49.60585780441761" lon="8.990639643743634">
<ele>276</ele>
<time>2024-05-10T13:01:01Z</time>
</trkpt>
<trkpt lat="49.60584254935384" lon="8.990639643743634">
<ele>275.8</ele>
<time>2024-05-10T13:01:02Z</time>
</trkpt>
<trkpt lat="49.60582343861461" lon="8.990638721734285">
<ele>275.6</ele>
<time>2024-05-10T13:01:03Z</time>
</trkpt>
<trkpt lat="49.605812039226294" lon="8.990630088374019">
<ele>275.6</ele>
<time>2024-05-10T13:01:04Z</time>
</trkpt>
<trkpt lat="49.605808183550835" lon="8.990632938221097">
<ele>275.6</ele>
<time>2024-05-10T13:01:05Z</time>
</trkpt>
<trkpt lat="49.60580055601895" lon="8.990638721734285">
<ele>275.4</ele>
<time>2024-05-10T13:01:06Z</time>
</trkpt>
<trkpt lat="49.60579678416252" lon="8.990643499419093">
<ele>275.2</ele>
<time>2024-05-10T13:01:07Z</time>
</trkpt>
<trkpt lat="49.605789156630635" lon="8.990650121122599">
<ele>275.2</ele>
<time>2024-05-10T13:01:08Z</time>
</trkpt>
<trkpt lat="49.60578152909875" lon="8.990652048960328">
<ele>275</ele>
<time>2024-05-10T13:01:09Z</time>
</trkpt>
<trkpt lat="49.60577004589141" lon="8.99064819328487">
<ele>275</ele>
<time>2024-05-10T13:01:10Z</time>
</trkpt>
<trkpt lat="49.60575864650309" lon="8.990652970969677">
<ele>274.8</ele>
<time>2024-05-10T13:01:11Z</time>
</trkpt>
<trkpt lat="49.605751018971205" lon="8.990652970969677">
<ele>274.8</ele>
<time>2024-05-10T13:01:12Z</time>
</trkpt>
<trkpt lat="49.605747163295746" lon="8.990654898807406">
<ele>274.6</ele>
<time>2024-05-10T13:01:13Z</time>
</trkpt>
<trkpt lat="49.60574339143932" lon="8.990652970969677">
<ele>274.4</ele>
<time>2024-05-10T13:01:15Z</time>
</trkpt>
<trkpt lat="49.60573953576386" lon="8.990652048960328">
<ele>274.2</ele>
<time>2024-05-10T13:01:16Z</time>
</trkpt>
<trkpt lat="49.60573576390743" lon="8.990654898807406">
<ele>274.2</ele>
<time>2024-05-10T13:01:17Z</time>
</trkpt>
<trkpt lat="49.60573576390743" lon="8.990656826645136">
<ele>274</ele>
<time>2024-05-10T13:01:18Z</time>
</trkpt>
<trkpt lat="49.605731908231974" lon="8.990654898807406">
<ele>273.8</ele>
<time>2024-05-10T13:01:20Z</time>
</trkpt>
<trkpt lat="49.605731908231974" lon="8.990658754482865">
<ele>273.8</ele>
<time>2024-05-10T13:01:21Z</time>
</trkpt>
<trkpt lat="49.605731908231974" lon="8.990659676492214">
<ele>273.8</ele>
<time>2024-05-10T13:01:22Z</time>
</trkpt>
<trkpt lat="49.60573576390743" lon="8.990661604329944">
<ele>273.6</ele>
<time>2024-05-10T13:01:23Z</time>
</trkpt>
<trkpt lat="49.60573576390743" lon="8.990663448348641">
<ele>273.6</ele>
<time>2024-05-10T13:01:24Z</time>
</trkpt>
<trkpt lat="49.60573576390743" lon="8.99066537618637">
<ele>273.6</ele>
<time>2024-05-10T13:01:27Z</time>
</trkpt>
<trkpt lat="49.605731908231974" lon="8.99066537618637">
<ele>273.6</ele>
<time>2024-05-10T13:01:29Z</time>
</trkpt>
<trkpt lat="49.605731908231974" lon="8.990666382014751">
<ele>273.6</ele>
<time>2024-05-10T13:01:34Z</time>
</trkpt>
<trkpt lat="49.605731908231974" lon="8.99066822603345">
<ele>273.8</ele>
<time>2024-05-10T13:01:38Z</time>
</trkpt>
<trkpt lat="49.605731908231974" lon="8.990670153871179">
<ele>273.8</ele>
<time>2024-05-10T13:01:52Z</time>
</trkpt>
<trkpt lat="49.605731908231974" lon="8.99066822603345">
<ele>273.8</ele>
<time>2024-05-10T13:02:04Z</time>
</trkpt>
<trkpt lat="49.60572813637555" lon="8.99066822603345">
<ele>274</ele>
<time>2024-05-10T13:02:05Z</time>
</trkpt>
<trkpt lat="49.60572813637555" lon="8.990670153871179">
<ele>274</ele>
<time>2024-05-10T13:02:10Z</time>
</trkpt>
<trkpt lat="49.60572813637555" lon="8.99066822603345">
<ele>274.2</ele>
<time>2024-05-10T13:02:11Z</time>
</trkpt>
<trkpt lat="49.60572813637555" lon="8.990670153871179">
<ele>274.2</ele>
<time>2024-05-10T13:02:36Z</time>
</trkpt>
<trkpt lat="49.60572813637555" lon="8.990672081708908">
<ele>274.4</ele>
<time>2024-05-10T13:02:42Z</time>
</trkpt>
<trkpt lat="49.60572813637555" lon="8.990673003718257">
<ele>274.4</ele>
<time>2024-05-10T13:02:49Z</time>
</trkpt>
<trkpt lat="49.60572813637555" lon="8.990674931555986">
<ele>274.4</ele>
<time>2024-05-10T13:02:53Z</time>
</trkpt>
<trkpt lat="49.60572813637555" lon="8.990676859393716">
<ele>274.4</ele>
<time>2024-05-10T13:03:01Z</time>
</trkpt>
<trkpt lat="49.60572813637555" lon="8.990678787231445">
<ele>274.6</ele>
<time>2024-05-10T13:03:07Z</time>
</trkpt>
<trkpt lat="49.60572813637555" lon="8.990679709240794">
<ele>274.6</ele>
<time>2024-05-10T13:03:10Z</time>
</trkpt>
<trkpt lat="49.60572813637555" lon="8.990681637078524">
<ele>274.6</ele>
<time>2024-05-10T13:03:12Z</time>
</trkpt>
<trkpt lat="49.60572813637555" lon="8.990683481097221">
<ele>274.6</ele>
<time>2024-05-10T13:03:15Z</time>
</trkpt>
<trkpt lat="49.60572813637555" lon="8.990684486925602">
<ele>274.6</ele>
<time>2024-05-10T13:03:18Z</time>
</trkpt>
<trkpt lat="49.605731908231974" lon="8.990686414763331">
<ele>274.6</ele>
<time>2024-05-10T13:03:20Z</time>
</trkpt>
<trkpt lat="49.605731908231974" lon="8.99068825878203">
<ele>274.6</ele>
<time>2024-05-10T13:03:24Z</time>
</trkpt>
<trkpt lat="49.605731908231974" lon="8.990690186619759">
<ele>274.6</ele>
<time>2024-05-10T13:03:31Z</time>
</trkpt>
<trkpt lat="49.605731908231974" lon="8.990684486925602">
<ele>274.6</ele>
<time>2024-05-10T13:03:32Z</time>
</trkpt>
<trkpt lat="49.605731908231974" lon="8.990683481097221">
<ele>274.6</ele>
<time>2024-05-10T13:03:33Z</time>
</trkpt>
<trkpt lat="49.605731908231974" lon="8.990684486925602">
<ele>274.6</ele>
<time>2024-05-10T13:03:34Z</time>
</trkpt>
<trkpt lat="49.605731908231974" lon="8.990683481097221">
<ele>274.6</ele>
<time>2024-05-10T13:03:35Z</time>
</trkpt>
<trkpt lat="49.605731908231974" lon="8.990681637078524">
<ele>274.6</ele>
<time>2024-05-10T13:03:36Z</time>
</trkpt>
<trkpt lat="49.605731908231974" lon="8.990683481097221">
<ele>274.6</ele>
<time>2024-05-10T13:03:37Z</time>
</trkpt>
<trkpt lat="49.605731908231974" lon="8.990684486925602">
<ele>274.6</ele>
<time>2024-05-10T13:03:40Z</time>
</trkpt>
<trkpt lat="49.605731908231974" lon="8.990686414763331">
<ele>274.6</ele>
<time>2024-05-10T13:03:43Z</time>
</trkpt>
<trkpt lat="49.605731908231974" lon="8.990684486925602">
<ele>274.4</ele>
<time>2024-05-10T13:03:51Z</time>
</trkpt>
<trkpt lat="49.60572813637555" lon="8.990684486925602">
<ele>274.4</ele>
<time>2024-05-10T13:03:55Z</time>
</trkpt>
<trkpt lat="49.60572813637555" lon="8.990683481097221">
<ele>274.4</ele>
<time>2024-05-10T13:04:00Z</time>
</trkpt>
<trkpt lat="49.60572813637555" lon="8.990681637078524">
<ele>274.4</ele>
<time>2024-05-10T13:04:06Z</time>
</trkpt>
<trkpt lat="49.60572813637555" lon="8.990679709240794">
<ele>274.4</ele>
<time>2024-05-10T13:04:14Z</time>
</trkpt>
<trkpt lat="49.60572813637555" lon="8.990678787231445">
<ele>274.4</ele>
<time>2024-05-10T13:04:20Z</time>
</trkpt>
<trkpt lat="49.60572813637555" lon="8.990679709240794">
<ele>274.4</ele>
<time>2024-05-10T13:04:25Z</time>
</trkpt>
<trkpt lat="49.60572813637555" lon="8.990678787231445">
<ele>274.4</ele>
<time>2024-05-10T13:04:43Z</time>
</trkpt>
<trkpt lat="49.60572813637555" lon="8.990676859393716">
<ele>274.4</ele>
<time>2024-05-10T13:04:48Z</time>
</trkpt>
<trkpt lat="49.60572813637555" lon="8.990678787231445">
<ele>274.4</ele>
<time>2024-05-10T13:04:49Z</time>
</trkpt>
<trkpt lat="49.60572813637555" lon="8.990679709240794">
<ele>274.4</ele>
<time>2024-05-10T13:05:01Z</time>
</trkpt>
<trkpt lat="49.60572813637555" lon="8.990678787231445">
<ele>274.4</ele>
<time>2024-05-10T13:05:10Z</time>
</trkpt>
<trkpt lat="49.60572813637555" lon="8.990676859393716">
<ele>274.6</ele>
<time>2024-05-10T13:05:20Z</time>
</trkpt>
<trkpt lat="49.60572813637555" lon="8.990678787231445">
<ele>274.6</ele>
<time>2024-05-10T13:05:24Z</time>
</trkpt>
<trkpt lat="49.60572813637555" lon="8.990676859393716">
<ele>274.6</ele>
<time>2024-05-10T13:05:30Z</time>
</trkpt>
<trkpt lat="49.60572428070009" lon="8.990674931555986">
<ele>274.6</ele>
<time>2024-05-10T13:05:34Z</time>
</trkpt>
<trkpt lat="49.60572428070009" lon="8.990676859393716">
<ele>274.6</ele>
<time>2024-05-10T13:05:36Z</time>
</trkpt>
<trkpt lat="49.60572428070009" lon="8.990674931555986">
<ele>274.6</ele>
<time>2024-05-10T13:05:41Z</time>
</trkpt>
<trkpt lat="49.6057166531682" lon="8.990676859393716">
<ele>274.6</ele>
<time>2024-05-10T13:05:45Z</time>
</trkpt>
<trkpt lat="49.60570525377989" lon="8.990679709240794">
<ele>274.4</ele>
<time>2024-05-10T13:05:46Z</time>
</trkpt>
<trkpt lat="49.605697626248" lon="8.990684486925602">
<ele>274.4</ele>
<time>2024-05-10T13:05:47Z</time>
</trkpt>
<trkpt lat="49.60568999871611" lon="8.990690186619759">
<ele>274.4</ele>
<time>2024-05-10T13:05:48Z</time>
</trkpt>
<trkpt lat="49.60568237118423" lon="8.990696892142296">
<ele>274.2</ele>
<time>2024-05-10T13:05:49Z</time>
</trkpt>
<trkpt lat="49.605674743652344" lon="8.99070544168353">
<ele>274.2</ele>
<time>2024-05-10T13:05:50Z</time>
</trkpt>
<trkpt lat="49.605670887976885" lon="8.990714997053146">
<ele>274</ele>
<time>2024-05-10T13:05:51Z</time>
</trkpt>
<trkpt lat="49.60565563291311" lon="8.99072639644146">
<ele>274</ele>
<time>2024-05-10T13:05:52Z</time>
</trkpt>
<trkpt lat="49.60564037784934" lon="8.990739807486534">
<ele>273.8</ele>
<time>2024-05-10T13:05:53Z</time>
</trkpt>
<trkpt lat="49.605628894641995" lon="8.990750284865499">
<ele>273.8</ele>
<time>2024-05-10T13:05:54Z</time>
</trkpt>
<trkpt lat="49.60561749525368" lon="8.990757912397385">
<ele>273.6</ele>
<time>2024-05-10T13:05:55Z</time>
</trkpt>
<trkpt lat="49.60560224018991" lon="8.990768389776349">
<ele>273.6</ele>
<time>2024-05-10T13:05:56Z</time>
</trkpt>
<trkpt lat="49.605594612658024" lon="8.990779872983694">
<ele>273.4</ele>
<time>2024-05-10T13:05:57Z</time>
</trkpt>
<trkpt lat="49.60557935759425" lon="8.990788422524929">
<ele>273.2</ele>
<time>2024-05-10T13:05:58Z</time>
</trkpt>
<trkpt lat="49.60556787438691" lon="8.990793200209737">
<ele>273.2</ele>
<time>2024-05-10T13:05:59Z</time>
</trkpt>
<trkpt lat="49.605552619323134" lon="8.99080652743578">
<ele>273</ele>
<time>2024-05-10T13:06:00Z</time>
</trkpt>
<trkpt lat="49.60554884746671" lon="8.990808455273509">
<ele>273</ele>
<time>2024-05-10T13:06:01Z</time>
</trkpt>
<trkpt lat="49.60554884746671" lon="8.990810383111238">
<ele>272.8</ele>
<time>2024-05-10T13:06:02Z</time>
</trkpt>
<trkpt lat="49.60554884746671" lon="8.990811305120587">
<ele>272.8</ele>
<time>2024-05-10T13:06:04Z</time>
</trkpt>
<trkpt lat="49.60554499179125" lon="8.990815160796046">
<ele>272.8</ele>
<time>2024-05-10T13:06:05Z</time>
</trkpt>
<trkpt lat="49.60554499179125" lon="8.990817004814744">
<ele>272.8</ele>
<time>2024-05-10T13:06:07Z</time>
</trkpt>
<trkpt lat="49.60554499179125" lon="8.990818010643125">
<ele>272.6</ele>
<time>2024-05-10T13:06:08Z</time>
</trkpt>
<trkpt lat="49.60554499179125" lon="8.990821782499552">
<ele>272.6</ele>
<time>2024-05-10T13:06:09Z</time>
</trkpt>
<trkpt lat="49.60554499179125" lon="8.990823710337281">
<ele>272.6</ele>
<time>2024-05-10T13:06:11Z</time>
</trkpt>
<trkpt lat="49.60554499179125" lon="8.99082463234663">
<ele>272.6</ele>
<time>2024-05-10T13:06:19Z</time>
</trkpt>
<trkpt lat="49.60554499179125" lon="8.99082656018436">
<ele>272.6</ele>
<time>2024-05-10T13:06:22Z</time>
</trkpt>
<trkpt lat="49.60554499179125" lon="8.990830415859818">
<ele>272.6</ele>
<time>2024-05-10T13:06:24Z</time>
</trkpt>
<trkpt lat="49.60554499179125" lon="8.990831337869167">
<ele>272.6</ele>
<time>2024-05-10T13:06:25Z</time>
</trkpt>
<trkpt lat="49.60554884746671" lon="8.990831337869167">
<ele>272.6</ele>
<time>2024-05-10T13:06:26Z</time>
</trkpt>
<trkpt lat="49.60554884746671" lon="8.990830415859818">
<ele>272.6</ele>
<time>2024-05-10T13:06:28Z</time>
</trkpt>
<trkpt lat="49.60554884746671" lon="8.990831337869167">
<ele>272.6</ele>
<time>2024-05-10T13:06:34Z</time>
</trkpt>
<trkpt lat="49.60554884746671" lon="8.990833265706897">
<ele>272.6</ele>
<time>2024-05-10T13:06:36Z</time>
</trkpt>
<trkpt lat="49.605552619323134" lon="8.990835109725595">
<ele>272.6</ele>
<time>2024-05-10T13:06:37Z</time>
</trkpt>
<trkpt lat="49.60554884746671" lon="8.990837037563324">
<ele>272.6</ele>
<time>2024-05-10T13:06:40Z</time>
</trkpt>
<trkpt lat="49.60554121993482" lon="8.990841815248132">
<ele>272.6</ele>
<time>2024-05-10T13:06:41Z</time>
</trkpt>
<trkpt lat="49.605533592402935" lon="8.99084659293294">
<ele>272.6</ele>
<time>2024-05-10T13:06:42Z</time>
</trkpt>
<trkpt lat="49.60552210919559" lon="8.990858076140285">
<ele>272.6</ele>
<time>2024-05-10T13:06:43Z</time>
</trkpt>
<trkpt lat="49.60550685413182" lon="8.990881880745292">
<ele>272.6</ele>
<time>2024-05-10T13:06:44Z</time>
</trkpt>
<trkpt lat="49.605491599068046" lon="8.990909541025758">
<ele>272.6</ele>
<time>2024-05-10T13:06:45Z</time>
</trkpt>
<trkpt lat="49.60546871647239" lon="8.990933345630765">
<ele>272.6</ele>
<time>2024-05-10T13:06:46Z</time>
</trkpt>
<trkpt lat="49.60543820634484" lon="8.990958156064153">
<ele>272.6</ele>
<time>2024-05-10T13:06:47Z</time>
</trkpt>
<trkpt lat="49.6054076962173" lon="8.99098489433527">
<ele>272.6</ele>
<time>2024-05-10T13:06:48Z</time>
</trkpt>
<trkpt lat="49.605373330414295" lon="8.991011548787355">
<ele>272.6</ele>
<time>2024-05-10T13:06:49Z</time>
</trkpt>
<trkpt lat="49.605335192754865" lon="8.99104499258101">
<ele>272.6</ele>
<time>2024-05-10T13:06:50Z</time>
</trkpt>
<trkpt lat="49.60530082695186" lon="8.99108313024044">
<ele>272.6</ele>
<time>2024-05-10T13:06:51Z</time>
</trkpt>
<trkpt lat="49.60526654496789" lon="8.991118418052793">
<ele>272.6</ele>
<time>2024-05-10T13:06:52Z</time>
</trkpt>
<trkpt lat="49.60522840730846" lon="8.991151778027415">
<ele>272.8</ele>
<time>2024-05-10T13:06:53Z</time>
</trkpt>
<trkpt lat="49.605194041505456" lon="8.991183210164309">
<ele>272.8</ele>
<time>2024-05-10T13:06:54Z</time>
</trkpt>
<trkpt lat="49.60516353137791" lon="8.99121849797666">
<ele>272.8</ele>
<time>2024-05-10T13:06:55Z</time>
</trkpt>
<trkpt lat="49.60512153804302" lon="8.991250013932586">
<ele>272.8</ele>
<time>2024-05-10T13:06:56Z</time>
</trkpt>
<trkpt lat="49.60508340038359" lon="8.991285301744938">
<ele>272.8</ele>
<time>2024-05-10T13:06:57Z</time>
</trkpt>
<trkpt lat="49.605041490867734" lon="8.991323439404368">
<ele>272.8</ele>
<time>2024-05-10T13:06:58Z</time>
</trkpt>
<trkpt lat="49.6050033532083" lon="8.991365432739258">
<ele>272.8</ele>
<time>2024-05-10T13:06:59Z</time>
</trkpt>
<trkpt lat="49.60496513172984" lon="8.991408348083496">
<ele>272.8</ele>
<time>2024-05-10T13:07:00Z</time>
</trkpt>
<trkpt lat="49.60492322221398" lon="8.991448329761624">
<ele>272.8</ele>
<time>2024-05-10T13:07:01Z</time>
</trkpt>
<trkpt lat="49.60488885641098" lon="8.99147984571755">
<ele>272.8</ele>
<time>2024-05-10T13:07:02Z</time>
</trkpt>
<trkpt lat="49.60485457442701" lon="8.991515133529902">
<ele>272.8</ele>
<time>2024-05-10T13:07:03Z</time>
</trkpt>
<trkpt lat="49.604820208624005" lon="8.991546565666795">
<ele>273</ele>
<time>2024-05-10T13:07:04Z</time>
</trkpt>
<trkpt lat="49.60478969849646" lon="8.99157808162272">
<ele>273.2</ele>
<time>2024-05-10T13:07:05Z</time>
</trkpt>
<trkpt lat="49.604762960225344" lon="8.991609513759613">
<ele>273.4</ele>
<time>2024-05-10T13:07:06Z</time>
</trkpt>
<trkpt lat="49.60473630577326" lon="8.991646729409695">
<ele>273.4</ele>
<time>2024-05-10T13:07:07Z</time>
</trkpt>
<trkpt lat="49.60470956750214" lon="8.991678161546588">
<ele>273.2</ele>
<time>2024-05-10T13:07:08Z</time>
</trkpt>
<trkpt lat="49.60467528551817" lon="8.991709677502513">
<ele>272.8</ele>
<time>2024-05-10T13:07:09Z</time>
</trkpt>
<trkpt lat="49.60464854724705" lon="8.991741109639406">
<ele>272.4</ele>
<time>2024-05-10T13:07:10Z</time>
</trkpt>
<trkpt lat="49.60461418144405" lon="8.991780253127217">
<ele>272.2</ele>
<time>2024-05-10T13:07:11Z</time>
</trkpt>
<trkpt lat="49.60457604378462" lon="8.991809841245413">
<ele>272</ele>
<time>2024-05-10T13:07:12Z</time>
</trkpt>
<trkpt lat="49.60454176180065" lon="8.991843201220036">
<ele>271.8</ele>
<time>2024-05-10T13:07:13Z</time>
</trkpt>
<trkpt lat="49.604503624141216" lon="8.991880416870117">
<ele>271.4</ele>
<time>2024-05-10T13:07:14Z</time>
</trkpt>
<trkpt lat="49.60446925833821" lon="8.99191184900701">
<ele>271</ele>
<time>2024-05-10T13:07:15Z</time>
</trkpt>
<trkpt lat="49.60443489253521" lon="8.991945208981633">
<ele>270.8</ele>
<time>2024-05-10T13:07:16Z</time>
</trkpt>
<trkpt lat="49.60439675487578" lon="8.991974797099829">
<ele>270.6</ele>
<time>2024-05-10T13:07:17Z</time>
</trkpt>
<trkpt lat="49.60435861721635" lon="8.992008157074451">
<ele>270.4</ele>
<time>2024-05-10T13:07:18Z</time>
</trkpt>
<trkpt lat="49.60432433523238" lon="8.992043444886804">
<ele>270.2</ele>
<time>2024-05-10T13:07:19Z</time>
</trkpt>
<trkpt lat="49.6042937412858" lon="8.992074960842729">
<ele>270</ele>
<time>2024-05-10T13:07:20Z</time>
</trkpt>
<trkpt lat="49.60425945930183" lon="8.992105470970273">
<ele>269.8</ele>
<time>2024-05-10T13:07:21Z</time>
</trkpt>
<trkpt lat="49.604228949174285" lon="8.992137908935547">
<ele>269.6</ele>
<time>2024-05-10T13:07:22Z</time>
</trkpt>
<trkpt lat="49.60419843904674" lon="8.992170263081789">
<ele>269.2</ele>
<time>2024-05-10T13:07:23Z</time>
</trkpt>
<trkpt lat="49.60417170077562" lon="8.992201779037714">
<ele>269</ele>
<time>2024-05-10T13:07:24Z</time>
</trkpt>
<trkpt lat="49.60414504632354" lon="8.992237988859415">
<ele>268.6</ele>
<time>2024-05-10T13:07:25Z</time>
</trkpt>
<trkpt lat="49.60411445237696" lon="8.992266654968262">
<ele>268.4</ele>
<time>2024-05-10T13:07:26Z</time>
</trkpt>
<trkpt lat="49.60408017039299" lon="8.992295237258077">
<ele>268.2</ele>
<time>2024-05-10T13:07:27Z</time>
</trkpt>
<trkpt lat="49.604049660265446" lon="8.992321891710162">
<ele>268</ele>
<time>2024-05-10T13:07:28Z</time>
</trkpt>
<trkpt lat="49.6040191501379" lon="8.992349551990628">
<ele>267.6</ele>
<time>2024-05-10T13:07:29Z</time>
</trkpt>
<trkpt lat="49.60399626754224" lon="8.992380062118173">
<ele>267.6</ele>
<time>2024-05-10T13:07:30Z</time>
</trkpt>
<trkpt lat="49.6039657574147" lon="8.992409650236368">
<ele>267.4</ele>
<time>2024-05-10T13:07:31Z</time>
</trkpt>
<trkpt lat="49.60393901914358" lon="8.99244493804872">
<ele>267</ele>
<time>2024-05-10T13:07:32Z</time>
</trkpt>
<trkpt lat="49.60390850901604" lon="8.992471676319838">
<ele>266.6</ele>
<time>2024-05-10T13:07:33Z</time>
</trkpt>
<trkpt lat="49.60387799888849" lon="8.992496486753225">
<ele>266.2</ele>
<time>2024-05-10T13:07:34Z</time>
</trkpt>
<trkpt lat="49.60384748876095" lon="8.99252506904304">
<ele>265.8</ele>
<time>2024-05-10T13:07:35Z</time>
</trkpt>
<trkpt lat="49.603813122957945" lon="8.992553651332855">
<ele>265.4</ele>
<time>2024-05-10T13:07:36Z</time>
</trkpt>
<trkpt lat="49.60377875715494" lon="8.992593716830015">
<ele>265.4</ele>
<time>2024-05-10T13:07:37Z</time>
</trkpt>
<trkpt lat="49.60374447517097" lon="8.992626154795289">
<ele>265.2</ele>
<time>2024-05-10T13:07:38Z</time>
</trkpt>
<trkpt lat="49.60371010936797" lon="8.992666220292449">
<ele>265.2</ele>
<time>2024-05-10T13:07:39Z</time>
</trkpt>
<trkpt lat="49.60367959924042" lon="8.99270343594253">
<ele>265.4</ele>
<time>2024-05-10T13:07:40Z</time>
</trkpt>
<trkpt lat="49.60364531725645" lon="8.992739645764232">
<ele>265.4</ele>
<time>2024-05-10T13:07:41Z</time>
</trkpt>
<trkpt lat="49.60360709577799" lon="8.992766300216317">
<ele>265.4</ele>
<time>2024-05-10T13:07:42Z</time>
</trkpt>
<trkpt lat="49.60356895811856" lon="8.992790188640356">
<ele>266</ele>
<time>2024-05-10T13:07:43Z</time>
</trkpt>
<trkpt lat="49.6035270486027" lon="8.992808293551207">
<ele>266.2</ele>
<time>2024-05-10T13:07:44Z</time>
</trkpt>
<trkpt lat="49.60348505526781" lon="8.992814999073744">
<ele>266.4</ele>
<time>2024-05-10T13:07:45Z</time>
</trkpt>
<trkpt lat="49.60344314575195" lon="8.992810221388936">
<ele>266.4</ele>
<time>2024-05-10T13:07:46Z</time>
</trkpt>
<trkpt lat="49.603401152417064" lon="8.992814999073744">
<ele>266.4</ele>
<time>2024-05-10T13:07:47Z</time>
</trkpt>
<trkpt lat="49.60336678661406" lon="8.99280158802867">
<ele>266</ele>
<time>2024-05-10T13:07:48Z</time>
</trkpt>
<trkpt lat="49.6033248770982" lon="8.992788260802627">
<ele>265.8</ele>
<time>2024-05-10T13:07:49Z</time>
</trkpt>
<trkpt lat="49.60328673943877" lon="8.992773005738854">
<ele>265.6</ele>
<time>2024-05-10T13:07:50Z</time>
</trkpt>
<trkpt lat="49.60324474610388" lon="8.992761606350541">
<ele>265.2</ele>
<time>2024-05-10T13:07:51Z</time>
</trkpt>
<trkpt lat="49.60321038030088" lon="8.992743417620659">
<ele>265</ele>
<time>2024-05-10T13:07:52Z</time>
</trkpt>
<trkpt lat="49.60317609831691" lon="8.992728162556887">
<ele>265</ele>
<time>2024-05-10T13:07:53Z</time>
</trkpt>
<trkpt lat="49.60314558818936" lon="8.992712907493114">
<ele>264.8</ele>
<time>2024-05-10T13:07:54Z</time>
</trkpt>
<trkpt lat="49.603118849918246" lon="8.992699580267072">
<ele>264.8</ele>
<time>2024-05-10T13:07:55Z</time>
</trkpt>
<trkpt lat="49.60309211164713" lon="8.992681475356221">
<ele>264.8</ele>
<time>2024-05-10T13:07:56Z</time>
</trkpt>
<trkpt lat="49.60306922905147" lon="8.99266337044537">
<ele>264.8</ele>
<time>2024-05-10T13:07:57Z</time>
</trkpt>
<trkpt lat="49.60304634645581" lon="8.992645181715488">
<ele>264.8</ele>
<time>2024-05-10T13:07:58Z</time>
</trkpt>
<trkpt lat="49.603023463860154" lon="8.99262523278594">
<ele>264.8</ele>
<time>2024-05-10T13:07:59Z</time>
</trkpt>
<trkpt lat="49.603004436939955" lon="8.992609977722168">
<ele>264.8</ele>
<time>2024-05-10T13:08:00Z</time>
</trkpt>
<trkpt lat="49.60298532620072" lon="8.992598494514823">
<ele>264.6</ele>
<time>2024-05-10T13:08:01Z</time>
</trkpt>
<trkpt lat="49.60297007113695" lon="8.992587011307478">
<ele>264.4</ele>
<time>2024-05-10T13:08:02Z</time>
</trkpt>
<trkpt lat="49.60295481607318" lon="8.992574689909816">
<ele>264.4</ele>
<time>2024-05-10T13:08:03Z</time>
</trkpt>
<trkpt lat="49.60293956100941" lon="8.992561278864741">
<ele>264.4</ele>
<time>2024-05-10T13:08:04Z</time>
</trkpt>
<trkpt lat="49.602928161621094" lon="8.992554657161236">
<ele>264.4</ele>
<time>2024-05-10T13:08:05Z</time>
</trkpt>
<trkpt lat="49.602928161621094" lon="8.992553651332855">
<ele>264.4</ele>
<time>2024-05-10T13:08:07Z</time>
</trkpt>
<trkpt lat="49.602928161621094" lon="8.992551723495126">
<ele>264.4</ele>
<time>2024-05-10T13:08:10Z</time>
</trkpt>
<trkpt lat="49.602928161621094" lon="8.992547951638699">
<ele>264.2</ele>
<time>2024-05-10T13:08:13Z</time>
</trkpt>
<trkpt lat="49.602928161621094" lon="8.99254702962935">
<ele>264.2</ele>
<time>2024-05-10T13:08:15Z</time>
</trkpt>
<trkpt lat="49.602928161621094" lon="8.992547951638699">
<ele>264</ele>
<time>2024-05-10T13:08:16Z</time>
</trkpt>
<trkpt lat="49.602928161621094" lon="8.99254702962935">
<ele>264</ele>
<time>2024-05-10T13:08:19Z</time>
</trkpt>
<trkpt lat="49.602928161621094" lon="8.99254317395389">
<ele>263.8</ele>
<time>2024-05-10T13:08:22Z</time>
</trkpt>
<trkpt lat="49.602924305945635" lon="8.99254702962935">
<ele>263.8</ele>
<time>2024-05-10T13:08:23Z</time>
</trkpt>
<trkpt lat="49.602924305945635" lon="8.99254510179162">
<ele>263.6</ele>
<time>2024-05-10T13:08:24Z</time>
</trkpt>
<trkpt lat="49.602924305945635" lon="8.99254317395389">
<ele>263.6</ele>
<time>2024-05-10T13:08:25Z</time>
</trkpt>
<trkpt lat="49.602924305945635" lon="8.992538396269083">
<ele>263.4</ele>
<time>2024-05-10T13:08:26Z</time>
</trkpt>
<trkpt lat="49.602928161621094" lon="8.992534624412656">
<ele>263.4</ele>
<time>2024-05-10T13:08:27Z</time>
</trkpt>
<trkpt lat="49.602928161621094" lon="8.992533618584275">
<ele>263.4</ele>
<time>2024-05-10T13:08:28Z</time>
</trkpt>
<trkpt lat="49.602924305945635" lon="8.992536468431354">
<ele>263.4</ele>
<time>2024-05-10T13:08:30Z</time>
</trkpt>
<trkpt lat="49.602924305945635" lon="8.992533618584275">
<ele>263.2</ele>
<time>2024-05-10T13:08:31Z</time>
</trkpt>
<trkpt lat="49.602924305945635" lon="8.992531774565578">
<ele>263.2</ele>
<time>2024-05-10T13:08:34Z</time>
</trkpt>
<trkpt lat="49.602924305945635" lon="8.992529846727848">
<ele>263.2</ele>
<time>2024-05-10T13:08:35Z</time>
</trkpt>
<trkpt lat="49.602924305945635" lon="8.992527918890119">
<ele>263.2</ele>
<time>2024-05-10T13:08:36Z</time>
</trkpt>
<trkpt lat="49.602924305945635" lon="8.99252699688077">
<ele>263.2</ele>
<time>2024-05-10T13:08:41Z</time>
</trkpt>
<trkpt lat="49.602924305945635" lon="8.992527918890119">
<ele>263.2</ele>
<time>2024-05-10T13:08:43Z</time>
</trkpt>
<trkpt lat="49.602924305945635" lon="8.99252699688077">
<ele>263.4</ele>
<time>2024-05-10T13:08:46Z</time>
</trkpt>
<trkpt lat="49.602924305945635" lon="8.99252506904304">
<ele>263.4</ele>
<time>2024-05-10T13:08:50Z</time>
</trkpt>
<trkpt lat="49.602924305945635" lon="8.99252314120531">
<ele>263.6</ele>
<time>2024-05-10T13:08:56Z</time>
</trkpt>
<trkpt lat="49.602924305945635" lon="8.99252506904304">
<ele>263.6</ele>
<time>2024-05-10T13:08:57Z</time>
</trkpt>
<trkpt lat="49.602928161621094" lon="8.99252314120531">
<ele>263.8</ele>
<time>2024-05-10T13:08:58Z</time>
</trkpt>
<trkpt lat="49.602928161621094" lon="8.992527918890119">
<ele>263.8</ele>
<time>2024-05-10T13:09:03Z</time>
</trkpt>
<trkpt lat="49.602928161621094" lon="8.992529846727848">
<ele>263.8</ele>
<time>2024-05-10T13:09:04Z</time>
</trkpt>
<trkpt lat="49.60293193347752" lon="8.992529846727848">
<ele>263.8</ele>
<time>2024-05-10T13:09:07Z</time>
</trkpt>
<trkpt lat="49.60293193347752" lon="8.992533618584275">
<ele>263.6</ele>
<time>2024-05-10T13:09:08Z</time>
</trkpt>
<trkpt lat="49.60293193347752" lon="8.992534624412656">
<ele>263.6</ele>
<time>2024-05-10T13:09:11Z</time>
</trkpt>
<trkpt lat="49.60293193347752" lon="8.992536468431354">
<ele>263.6</ele>
<time>2024-05-10T13:09:13Z</time>
</trkpt>
<trkpt lat="49.60293578915298" lon="8.992536468431354">
<ele>263.6</ele>
<time>2024-05-10T13:09:17Z</time>
</trkpt>
<trkpt lat="49.60293578915298" lon="8.992534624412656">
<ele>263.4</ele>
<time>2024-05-10T13:09:21Z</time>
</trkpt>
<trkpt lat="49.60293956100941" lon="8.992534624412656">
<ele>263.4</ele>
<time>2024-05-10T13:09:23Z</time>
</trkpt>
<trkpt lat="49.60293956100941" lon="8.992533618584275">
<ele>263.4</ele>
<time>2024-05-10T13:09:27Z</time>
</trkpt>
<trkpt lat="49.602943416684866" lon="8.992533618584275">
<ele>263.4</ele>
<time>2024-05-10T13:09:32Z</time>
</trkpt>
<trkpt lat="49.602943416684866" lon="8.992531774565578">
<ele>263.4</ele>
<time>2024-05-10T13:09:33Z</time>
</trkpt>
<trkpt lat="49.602943416684866" lon="8.992529846727848">
<ele>263.2</ele>
<time>2024-05-10T13:09:34Z</time>
</trkpt>
<trkpt lat="49.60293956100941" lon="8.992533618584275">
<ele>263.2</ele>
<time>2024-05-10T13:09:36Z</time>
</trkpt>
<trkpt lat="49.60293956100941" lon="8.992534624412656">
<ele>263.2</ele>
<time>2024-05-10T13:09:37Z</time>
</trkpt>
<trkpt lat="49.60293956100941" lon="8.992533618584275">
<ele>263.2</ele>
<time>2024-05-10T13:09:38Z</time>
</trkpt>
<trkpt lat="49.60293578915298" lon="8.992533618584275">
<ele>263.4</ele>
<time>2024-05-10T13:09:39Z</time>
</trkpt>
<trkpt lat="49.60293193347752" lon="8.992529846727848">
<ele>263.4</ele>
<time>2024-05-10T13:09:41Z</time>
</trkpt>
<trkpt lat="49.602928161621094" lon="8.992527918890119">
<ele>263.6</ele>
<time>2024-05-10T13:09:42Z</time>
</trkpt>
<trkpt lat="49.60293193347752" lon="8.992527918890119">
<ele>263.8</ele>
<time>2024-05-10T13:09:43Z</time>
</trkpt>
<trkpt lat="49.60293193347752" lon="8.99252699688077">
<ele>263.8</ele>
<time>2024-05-10T13:09:44Z</time>
</trkpt>
<trkpt lat="49.602928161621094" lon="8.992521213367581">
<ele>264</ele>
<time>2024-05-10T13:09:45Z</time>
</trkpt>
<trkpt lat="49.602924305945635" lon="8.992514591664076">
<ele>264</ele>
<time>2024-05-10T13:09:46Z</time>
</trkpt>
<trkpt lat="49.602928161621094" lon="8.992513585835695">
<ele>264.2</ele>
<time>2024-05-10T13:09:47Z</time>
</trkpt>
<trkpt lat="49.602928161621094" lon="8.992507886141539">
<ele>264.2</ele>
<time>2024-05-10T13:09:48Z</time>
</trkpt>
<trkpt lat="49.602928161621094" lon="8.99250503629446">
<ele>264.2</ele>
<time>2024-05-10T13:09:49Z</time>
</trkpt>
<trkpt lat="49.602928161621094" lon="8.992500258609653">
<ele>264.4</ele>
<time>2024-05-10T13:09:50Z</time>
</trkpt>
<trkpt lat="49.602928161621094" lon="8.992501180619001">
<ele>264.4</ele>
<time>2024-05-10T13:09:51Z</time>
</trkpt>
<trkpt lat="49.602928161621094" lon="8.992498330771923">
<ele>264.4</ele>
<time>2024-05-10T13:09:52Z</time>
</trkpt>
<trkpt lat="49.602928161621094" lon="8.992494558915496">
<ele>264.4</ele>
<time>2024-05-10T13:09:53Z</time>
</trkpt>
<trkpt lat="49.602928161621094" lon="8.992493553087115">
<ele>264.4</ele>
<time>2024-05-10T13:09:54Z</time>
</trkpt>
<trkpt lat="49.602928161621094" lon="8.992489781230688">
<ele>264.4</ele>
<time>2024-05-10T13:09:55Z</time>
</trkpt>
<trkpt lat="49.602924305945635" lon="8.99248693138361">
<ele>264.6</ele>
<time>2024-05-10T13:09:56Z</time>
</trkpt>
<trkpt lat="49.602924305945635" lon="8.99248307570815">
<ele>264.6</ele>
<time>2024-05-10T13:09:58Z</time>
</trkpt>
<trkpt lat="49.602924305945635" lon="8.992481231689453">
<ele>264.6</ele>
<time>2024-05-10T13:09:59Z</time>
</trkpt>
<trkpt lat="49.602924305945635" lon="8.992476454004645">
<ele>264.6</ele>
<time>2024-05-10T13:10:00Z</time>
</trkpt>
<trkpt lat="49.602924305945635" lon="8.992474526166916">
<ele>264.6</ele>
<time>2024-05-10T13:10:01Z</time>
</trkpt>
<trkpt lat="49.602924305945635" lon="8.992471676319838">
<ele>264.6</ele>
<time>2024-05-10T13:10:02Z</time>
</trkpt>
<trkpt lat="49.602924305945635" lon="8.992469748482108">
<ele>264.6</ele>
<time>2024-05-10T13:10:03Z</time>
</trkpt>
<trkpt lat="49.602920450270176" lon="8.992467820644379">
<ele>264.6</ele>
<time>2024-05-10T13:10:04Z</time>
</trkpt>
<trkpt lat="49.602920450270176" lon="8.99246304295957">
<ele>264.6</ele>
<time>2024-05-10T13:10:05Z</time>
</trkpt>
<trkpt lat="49.60291667841375" lon="8.992460193112493">
<ele>264.6</ele>
<time>2024-05-10T13:10:06Z</time>
</trkpt>
<trkpt lat="49.60291667841375" lon="8.992458265274763">
<ele>264.4</ele>
<time>2024-05-10T13:10:07Z</time>
</trkpt>
<trkpt lat="49.60291667841375" lon="8.992454493418336">
<ele>264.4</ele>
<time>2024-05-10T13:10:08Z</time>
</trkpt>
<trkpt lat="49.60291667841375" lon="8.992453571408987">
<ele>264.4</ele>
<time>2024-05-10T13:10:09Z</time>
</trkpt>
<trkpt lat="49.60291282273829" lon="8.992449715733528">
<ele>264.4</ele>
<time>2024-05-10T13:10:10Z</time>
</trkpt>
<trkpt lat="49.60290905088186" lon="8.99244686588645">
<ele>264.4</ele>
<time>2024-05-10T13:10:11Z</time>
</trkpt>
<trkpt lat="49.60290905088186" lon="8.992443010210991">
<ele>264.4</ele>
<time>2024-05-10T13:10:12Z</time>
</trkpt>
<trkpt lat="49.60290905088186" lon="8.992441166192293">
<ele>264.4</ele>
<time>2024-05-10T13:10:13Z</time>
</trkpt>
<trkpt lat="49.60290905088186" lon="8.992440160363913">
<ele>264.4</ele>
<time>2024-05-10T13:10:14Z</time>
</trkpt>
<trkpt lat="49.60290905088186" lon="8.992438316345215">
<ele>264.4</ele>
<time>2024-05-10T13:10:15Z</time>
</trkpt>
<trkpt lat="49.60290905088186" lon="8.992436388507485">
<ele>264.6</ele>
<time>2024-05-10T13:10:16Z</time>
</trkpt>
<trkpt lat="49.60290905088186" lon="8.992435382679105">
<ele>264.6</ele>
<time>2024-05-10T13:10:17Z</time>
</trkpt>
<trkpt lat="49.60290905088186" lon="8.992433538660407">
<ele>264.6</ele>
<time>2024-05-10T13:10:18Z</time>
</trkpt>
<trkpt lat="49.6029051952064" lon="8.992433538660407">
<ele>264.8</ele>
<time>2024-05-10T13:10:23Z</time>
</trkpt>
<trkpt lat="49.6029051952064" lon="8.992431610822678">
<ele>264.8</ele>
<time>2024-05-10T13:10:24Z</time>
</trkpt>
<trkpt lat="49.6029051952064" lon="8.992429682984948">
<ele>265</ele>
<time>2024-05-10T13:10:25Z</time>
</trkpt>
<trkpt lat="49.6029051952064" lon="8.9924287609756">
<ele>265</ele>
<time>2024-05-10T13:10:26Z</time>
</trkpt>
<trkpt lat="49.6029051952064" lon="8.992429682984948">
<ele>265.2</ele>
<time>2024-05-10T13:10:29Z</time>
</trkpt>
<trkpt lat="49.60290142334998" lon="8.9924287609756">
<ele>265.2</ele>
<time>2024-05-10T13:10:30Z</time>
</trkpt>
<trkpt lat="49.60290142334998" lon="8.99242683313787">
<ele>265.2</ele>
<time>2024-05-10T13:10:35Z</time>
</trkpt>
<trkpt lat="49.60289756767452" lon="8.99242490530014">
<ele>265.2</ele>
<time>2024-05-10T13:10:36Z</time>
</trkpt>
<trkpt lat="49.60289756767452" lon="8.992422977462411">
<ele>265.2</ele>
<time>2024-05-10T13:10:37Z</time>
</trkpt>
<trkpt lat="49.60290142334998" lon="8.99242490530014">
<ele>265.2</ele>
<time>2024-05-10T13:10:38Z</time>
</trkpt>
<trkpt lat="49.60289756767452" lon="8.99242490530014">
<ele>265.2</ele>
<time>2024-05-10T13:10:39Z</time>
</trkpt>
<trkpt lat="49.60290142334998" lon="8.99242490530014">
<ele>265.2</ele>
<time>2024-05-10T13:10:40Z</time>
</trkpt>
<trkpt lat="49.60290142334998" lon="8.992422977462411">
<ele>265.2</ele>
<time>2024-05-10T13:10:41Z</time>
</trkpt>
<trkpt lat="49.6029051952064" lon="8.99242490530014">
<ele>265.2</ele>
<time>2024-05-10T13:10:47Z</time>
</trkpt>
<trkpt lat="49.6029051952064" lon="8.992422977462411">
<ele>265.2</ele>
<time>2024-05-10T13:10:50Z</time>
</trkpt>
<trkpt lat="49.60290142334998" lon="8.992422055453062">
<ele>265.2</ele>
<time>2024-05-10T13:10:54Z</time>
</trkpt>
<trkpt lat="49.60290142334998" lon="8.992416355758905">
<ele>265.2</ele>
<time>2024-05-10T13:10:55Z</time>
</trkpt>
<trkpt lat="49.60290142334998" lon="8.992415349930525">
<ele>265.2</ele>
<time>2024-05-10T13:10:56Z</time>
</trkpt>
<trkpt lat="49.60290142334998" lon="8.992413505911827">
<ele>265.2</ele>
<time>2024-05-10T13:10:57Z</time>
</trkpt>
<trkpt lat="49.60290142334998" lon="8.992411578074098">
<ele>265.2</ele>
<time>2024-05-10T13:10:58Z</time>
</trkpt>
<trkpt lat="49.60290142334998" lon="8.992409650236368">
<ele>265.2</ele>
<time>2024-05-10T13:11:00Z</time>
</trkpt>
<trkpt lat="49.60290142334998" lon="8.992411578074098">
<ele>265.2</ele>
<time>2024-05-10T13:11:01Z</time>
</trkpt>
<trkpt lat="49.60290142334998" lon="8.992413505911827">
<ele>265.2</ele>
<time>2024-05-10T13:11:03Z</time>
</trkpt>
<trkpt lat="49.60290142334998" lon="8.992415349930525">
<ele>265.2</ele>
<time>2024-05-10T13:11:04Z</time>
</trkpt>
<trkpt lat="49.60290142334998" lon="8.992416355758905">
<ele>265.2</ele>
<time>2024-05-10T13:11:06Z</time>
</trkpt>
<trkpt lat="49.60290142334998" lon="8.992418283596635">
<ele>265.2</ele>
<time>2024-05-10T13:11:08Z</time>
</trkpt>
<trkpt lat="49.60290142334998" lon="8.992416355758905">
<ele>265.2</ele>
<time>2024-05-10T13:11:09Z</time>
</trkpt>
<trkpt lat="49.60290142334998" lon="8.992415349930525">
<ele>265.2</ele>
<time>2024-05-10T13:11:15Z</time>
</trkpt>
<trkpt lat="49.60290142334998" lon="8.992413505911827">
<ele>265.2</ele>
<time>2024-05-10T13:11:16Z</time>
</trkpt>
<trkpt lat="49.60289756767452" lon="8.992413505911827">
<ele>265.2</ele>
<time>2024-05-10T13:11:17Z</time>
</trkpt>
<trkpt lat="49.60288616828621" lon="8.99240680038929">
<ele>265.2</ele>
<time>2024-05-10T13:11:18Z</time>
</trkpt>
<trkpt lat="49.60287468507886" lon="8.99240487255156">
<ele>265.2</ele>
<time>2024-05-10T13:11:19Z</time>
</trkpt>
<trkpt lat="49.60285943001509" lon="8.992411578074098">
<ele>265.2</ele>
<time>2024-05-10T13:11:20Z</time>
</trkpt>
<trkpt lat="49.602844174951315" lon="8.992416355758905">
<ele>265.2</ele>
<time>2024-05-10T13:11:21Z</time>
</trkpt>
<trkpt lat="49.60282514803112" lon="8.992416355758905">
<ele>265.2</ele>
<time>2024-05-10T13:11:22Z</time>
</trkpt>
<trkpt lat="49.60280989296734" lon="8.992416355758905">
<ele>265.2</ele>
<time>2024-05-10T13:11:23Z</time>
</trkpt>
<trkpt lat="49.602787010371685" lon="8.992415349930525">
<ele>265.2</ele>
<time>2024-05-10T13:11:24Z</time>
</trkpt>
<trkpt lat="49.602767899632454" lon="8.992416355758905">
<ele>265.2</ele>
<time>2024-05-10T13:11:25Z</time>
</trkpt>
<trkpt lat="49.6027450170368" lon="8.992415349930525">
<ele>265.2</ele>
<time>2024-05-10T13:11:26Z</time>
</trkpt>
<trkpt lat="49.60272213444114" lon="8.99240680038929">
<ele>265.2</ele>
<time>2024-05-10T13:11:27Z</time>
</trkpt>
<trkpt lat="49.60269925184548" lon="8.99240680038929">
<ele>265.4</ele>
<time>2024-05-10T13:11:28Z</time>
</trkpt>
<trkpt lat="49.60268014110625" lon="8.992403028532863">
<ele>265.6</ele>
<time>2024-05-10T13:11:29Z</time>
</trkpt>
<trkpt lat="49.60266111418605" lon="8.992396323010325">
<ele>265.8</ele>
<time>2024-05-10T13:11:30Z</time>
</trkpt>
<trkpt lat="49.60264200344682" lon="8.992391545325518">
<ele>265.8</ele>
<time>2024-05-10T13:11:31Z</time>
</trkpt>
<trkpt lat="49.602626748383045" lon="8.99238676764071">
<ele>266</ele>
<time>2024-05-10T13:11:32Z</time>
</trkpt>
<trkpt lat="49.60260009393096" lon="8.992380062118173">
<ele>266.2</ele>
<time>2024-05-10T13:11:33Z</time>
</trkpt>
<trkpt lat="49.60257712751627" lon="8.992375368252397">
<ele>266.4</ele>
<time>2024-05-10T13:11:34Z</time>
</trkpt>
<trkpt lat="49.602550473064184" lon="8.9923648070544">
<ele>266.4</ele>
<time>2024-05-10T13:11:35Z</time>
</trkpt>
<trkpt lat="49.60252373479307" lon="8.992360113188624">
<ele>266.6</ele>
<time>2024-05-10T13:11:36Z</time>
</trkpt>
<trkpt lat="49.60250085219741" lon="8.992358185350895">
<ele>266.8</ele>
<time>2024-05-10T13:11:37Z</time>
</trkpt>
<trkpt lat="49.602470342069864" lon="8.992349551990628">
<ele>267</ele>
<time>2024-05-10T13:11:38Z</time>
</trkpt>
<trkpt lat="49.60243983194232" lon="8.99234670214355">
<ele>267.2</ele>
<time>2024-05-10T13:11:39Z</time>
</trkpt>
<trkpt lat="49.602413177490234" lon="8.992338152602315">
<ele>267.6</ele>
<time>2024-05-10T13:11:40Z</time>
</trkpt>
<trkpt lat="49.60238643921912" lon="8.992331447079778">
<ele>267.8</ele>
<time>2024-05-10T13:11:41Z</time>
</trkpt>
<trkpt lat="49.60236355662346" lon="8.9923285972327">
<ele>268</ele>
<time>2024-05-10T13:11:42Z</time>
</trkpt>
<trkpt lat="49.60233681835234" lon="8.99232666939497">
<ele>268.2</ele>
<time>2024-05-10T13:11:43Z</time>
</trkpt>
<trkpt lat="49.60229868069291" lon="8.99232666939497">
<ele>268.4</ele>
<time>2024-05-10T13:11:44Z</time>
</trkpt>
<trkpt lat="49.60226439870894" lon="8.992321891710162">
<ele>268.6</ele>
<time>2024-05-10T13:11:45Z</time>
</trkpt>
<trkpt lat="49.602230032905936" lon="8.992316192016006">
<ele>268.8</ele>
<time>2024-05-10T13:11:46Z</time>
</trkpt>
<trkpt lat="49.60220329463482" lon="8.992302864789963">
<ele>269</ele>
<time>2024-05-10T13:11:47Z</time>
</trkpt>
<trkpt lat="49.60217664018273" lon="8.99230856448412">
<ele>269.2</ele>
<time>2024-05-10T13:11:48Z</time>
</trkpt>
<trkpt lat="49.60214613005519" lon="8.99230856448412">
<ele>269.4</ele>
<time>2024-05-10T13:11:49Z</time>
</trkpt>
<trkpt lat="49.602115619927645" lon="8.992313342168927">
<ele>269.6</ele>
<time>2024-05-10T13:11:50Z</time>
</trkpt>
<trkpt lat="49.6020851098001" lon="8.9923095703125">
<ele>269.8</ele>
<time>2024-05-10T13:11:51Z</time>
</trkpt>
<trkpt lat="49.60205837152898" lon="8.992300014942884">
<ele>270</ele>
<time>2024-05-10T13:11:52Z</time>
</trkpt>
<trkpt lat="49.602031633257866" lon="8.992291381582618">
<ele>270.4</ele>
<time>2024-05-10T13:11:53Z</time>
</trkpt>
<trkpt lat="49.60200497880578" lon="8.992293309420347">
<ele>270.6</ele>
<time>2024-05-10T13:11:54Z</time>
</trkpt>
<trkpt lat="49.60198209621012" lon="8.992293309420347">
<ele>270.6</ele>
<time>2024-05-10T13:11:55Z</time>
</trkpt>
<trkpt lat="49.601955357939005" lon="8.99228660389781">
<ele>271</ele>
<time>2024-05-10T13:11:56Z</time>
</trkpt>
<trkpt lat="49.60192107595503" lon="8.992284759879112">
<ele>271.2</ele>
<time>2024-05-10T13:11:57Z</time>
</trkpt>
<trkpt lat="49.60188671015203" lon="8.992278054356575">
<ele>271.4</ele>
<time>2024-05-10T13:11:58Z</time>
</trkpt>
<trkpt lat="49.601856200024486" lon="8.992275204509497">
<ele>271.6</ele>
<time>2024-05-10T13:11:59Z</time>
</trkpt>
<trkpt lat="49.60182568989694" lon="8.99226849898696">
<ele>272</ele>
<time>2024-05-10T13:12:00Z</time>
</trkpt>
<trkpt lat="49.601798951625824" lon="8.99226849898696">
<ele>272.2</ele>
<time>2024-05-10T13:12:01Z</time>
</trkpt>
<trkpt lat="49.60176844149828" lon="8.992264727130532">
<ele>272.4</ele>
<time>2024-05-10T13:12:02Z</time>
</trkpt>
<trkpt lat="49.601741787046194" lon="8.992263721302152">
<ele>272.6</ele>
<time>2024-05-10T13:12:03Z</time>
</trkpt>
<trkpt lat="49.60171119309962" lon="8.992271348834038">
<ele>272.8</ele>
<time>2024-05-10T13:12:04Z</time>
</trkpt>
<trkpt lat="49.601680682972074" lon="8.992275204509497">
<ele>273</ele>
<time>2024-05-10T13:12:05Z</time>
</trkpt>
<trkpt lat="49.601657800376415" lon="8.992275204509497">
<ele>273.4</ele>
<time>2024-05-10T13:12:06Z</time>
</trkpt>
<trkpt lat="49.601638773456216" lon="8.992275204509497">
<ele>273.6</ele>
<time>2024-05-10T13:12:07Z</time>
</trkpt>
<trkpt lat="49.60160826332867" lon="8.992277132347226">
<ele>273.8</ele>
<time>2024-05-10T13:12:08Z</time>
</trkpt>
<trkpt lat="49.60157012566924" lon="8.992273276671767">
<ele>274.2</ele>
<time>2024-05-10T13:12:09Z</time>
</trkpt>
<trkpt lat="49.60152813233435" lon="8.992266654968262">
<ele>274.4</ele>
<time>2024-05-10T13:12:10Z</time>
</trkpt>
<trkpt lat="49.60149376653135" lon="8.992264727130532">
<ele>274.6</ele>
<time>2024-05-10T13:12:11Z</time>
</trkpt>
<trkpt lat="49.60146325640381" lon="8.992256093770266">
<ele>274.8</ele>
<time>2024-05-10T13:12:12Z</time>
</trkpt>
<trkpt lat="49.60143274627626" lon="8.992251316085458">
<ele>275</ele>
<time>2024-05-10T13:12:13Z</time>
</trkpt>
<trkpt lat="49.601402236148715" lon="8.992243688553572">
<ele>275.2</ele>
<time>2024-05-10T13:12:14Z</time>
</trkpt>
<trkpt lat="49.6013754978776" lon="8.992237066850066">
<ele>275.4</ele>
<time>2024-05-10T13:12:15Z</time>
</trkpt>
<trkpt lat="49.60134884342551" lon="8.992235139012337">
<ele>275.6</ele>
<time>2024-05-10T13:12:16Z</time>
</trkpt>
<trkpt lat="49.601322105154395" lon="8.992233211174607">
<ele>276</ele>
<time>2024-05-10T13:12:17Z</time>
</trkpt>
<trkpt lat="49.60129159502685" lon="8.99223136715591">
<ele>276.2</ele>
<time>2024-05-10T13:12:18Z</time>
</trkpt>
<trkpt lat="49.601261084899306" lon="8.992230361327529">
<ele>276.4</ele>
<time>2024-05-10T13:12:19Z</time>
</trkpt>
<trkpt lat="49.60123820230365" lon="8.9922284334898">
<ele>276.6</ele>
<time>2024-05-10T13:12:20Z</time>
</trkpt>
<trkpt lat="49.601207692176104" lon="8.992219883948565">
<ele>276.8</ele>
<time>2024-05-10T13:12:21Z</time>
</trkpt>
<trkpt lat="49.6011733263731" lon="8.992221811786294">
<ele>277</ele>
<time>2024-05-10T13:12:22Z</time>
</trkpt>
<trkpt lat="49.60114281624555" lon="8.992226589471102">
<ele>277.2</ele>
<time>2024-05-10T13:12:23Z</time>
</trkpt>
<trkpt lat="49.601108534261584" lon="8.992230361327529">
<ele>277.4</ele>
<time>2024-05-10T13:12:24Z</time>
</trkpt>
<trkpt lat="49.60107802413404" lon="8.992224661633372">
<ele>277.6</ele>
<time>2024-05-10T13:12:25Z</time>
</trkpt>
<trkpt lat="49.60103988647461" lon="8.992217956110835">
<ele>277.8</ele>
<time>2024-05-10T13:12:26Z</time>
</trkpt>
<trkpt lat="49.60100929252803" lon="8.992215106263757">
<ele>278</ele>
<time>2024-05-10T13:12:27Z</time>
</trkpt>
<trkpt lat="49.60097501054406" lon="8.992213178426027">
<ele>278.2</ele>
<time>2024-05-10T13:12:28Z</time>
</trkpt>
<trkpt lat="49.60093687288463" lon="8.99220840074122">
<ele>278.4</ele>
<time>2024-05-10T13:12:29Z</time>
</trkpt>
<trkpt lat="49.60090636275709" lon="8.992204628884792">
<ele>278.8</ele>
<time>2024-05-10T13:12:30Z</time>
</trkpt>
<trkpt lat="49.60087585262954" lon="8.992201779037714">
<ele>279</ele>
<time>2024-05-10T13:12:31Z</time>
</trkpt>
<trkpt lat="49.600845258682966" lon="8.992197001352906">
<ele>279.2</ele>
<time>2024-05-10T13:12:32Z</time>
</trkpt>
<trkpt lat="49.60081474855542" lon="8.992193145677447">
<ele>279.4</ele>
<time>2024-05-10T13:12:33Z</time>
</trkpt>
<trkpt lat="49.600788094103336" lon="8.992190295830369">
<ele>279.6</ele>
<time>2024-05-10T13:12:34Z</time>
</trkpt>
<trkpt lat="49.60075758397579" lon="8.992184596136212">
<ele>279.8</ele>
<time>2024-05-10T13:12:35Z</time>
</trkpt>
<trkpt lat="49.60072321817279" lon="8.992175040766597">
<ele>280</ele>
<time>2024-05-10T13:12:36Z</time>
</trkpt>
<trkpt lat="49.60068508051336" lon="8.992163641378284">
<ele>280.2</ele>
<time>2024-05-10T13:12:37Z</time>
</trkpt>
<trkpt lat="49.600650714710355" lon="8.992156935855746">
<ele>280.4</ele>
<time>2024-05-10T13:12:38Z</time>
</trkpt>
<trkpt lat="49.60062020458281" lon="8.992153163999319">
<ele>280.6</ele>
<time>2024-05-10T13:12:39Z</time>
</trkpt>
<trkpt lat="49.600593550130725" lon="8.992148386314511">
<ele>280.8</ele>
<time>2024-05-10T13:12:40Z</time>
</trkpt>
<trkpt lat="49.60057066753507" lon="8.992148386314511">
<ele>281</ele>
<time>2024-05-10T13:12:41Z</time>
</trkpt>
<trkpt lat="49.60054392926395" lon="8.992150230333209">
<ele>281.2</ele>
<time>2024-05-10T13:12:42Z</time>
</trkpt>
<trkpt lat="49.600513419136405" lon="8.992150230333209">
<ele>281.4</ele>
<time>2024-05-10T13:12:43Z</time>
</trkpt>
<trkpt lat="49.6004790533334" lon="8.99215123616159">
<ele>281.6</ele>
<time>2024-05-10T13:12:44Z</time>
</trkpt>
<trkpt lat="49.60044477134943" lon="8.992150230333209">
<ele>281.8</ele>
<time>2024-05-10T13:12:45Z</time>
</trkpt>
<trkpt lat="49.60041040554643" lon="8.992144530639052">
<ele>281.8</ele>
<time>2024-05-10T13:12:46Z</time>
</trkpt>
<trkpt lat="49.600376123562455" lon="8.992144530639052">
<ele>282</ele>
<time>2024-05-10T13:12:47Z</time>
</trkpt>
<trkpt lat="49.60034175775945" lon="8.992139752954245">
<ele>282.2</ele>
<time>2024-05-10T13:12:48Z</time>
</trkpt>
<trkpt lat="49.60031124763191" lon="8.992126425728202">
<ele>282.2</ele>
<time>2024-05-10T13:12:49Z</time>
</trkpt>
<trkpt lat="49.600276881828904" lon="8.992116870358586">
<ele>282.2</ele>
<time>2024-05-10T13:12:50Z</time>
</trkpt>
<trkpt lat="49.60024637170136" lon="8.992106392979622">
<ele>282.4</ele>
<time>2024-05-10T13:12:51Z</time>
</trkpt>
<trkpt lat="49.60021208971739" lon="8.992096837610006">
<ele>282.4</ele>
<time>2024-05-10T13:12:52Z</time>
</trkpt>
<trkpt lat="49.60018157958984" lon="8.992088288068771">
<ele>282.6</ele>
<time>2024-05-10T13:12:53Z</time>
</trkpt>
<trkpt lat="49.60015484131873" lon="8.992079654708505">
<ele>282.8</ele>
<time>2024-05-10T13:12:54Z</time>
</trkpt>
<trkpt lat="49.60012433119118" lon="8.99207018315792">
<ele>282.8</ele>
<time>2024-05-10T13:12:55Z</time>
</trkpt>
<trkpt lat="49.600097592920065" lon="8.992058699950576">
<ele>283</ele>
<time>2024-05-10T13:12:56Z</time>
</trkpt>
<trkpt lat="49.60006708279252" lon="8.992046294733882">
<ele>283</ele>
<time>2024-05-10T13:12:57Z</time>
</trkpt>
<trkpt lat="49.600036572664976" lon="8.992034895345569">
<ele>283</ele>
<time>2024-05-10T13:12:58Z</time>
</trkpt>
<trkpt lat="49.60000991821289" lon="8.992025339975953">
<ele>283.2</ele>
<time>2024-05-10T13:12:59Z</time>
</trkpt>
<trkpt lat="49.5999869517982" lon="8.992014862596989">
<ele>283.2</ele>
<time>2024-05-10T13:13:00Z</time>
</trkpt>
<trkpt lat="49.599956441670656" lon="8.991998601704836">
<ele>283.4</ele>
<time>2024-05-10T13:13:01Z</time>
</trkpt>
<trkpt lat="49.59992593154311" lon="8.991983346641064">
<ele>283.4</ele>
<time>2024-05-10T13:13:02Z</time>
</trkpt>
<trkpt lat="49.59989542141557" lon="8.9919728692621">
<ele>283.6</ele>
<time>2024-05-10T13:13:03Z</time>
</trkpt>
<trkpt lat="49.59987253881991" lon="8.991959542036057">
<ele>283.8</ele>
<time>2024-05-10T13:13:04Z</time>
</trkpt>
<trkpt lat="49.599845884367824" lon="8.991948058828712">
<ele>283.8</ele>
<time>2024-05-10T13:13:05Z</time>
</trkpt>
<trkpt lat="49.59981151856482" lon="8.991929953917861">
<ele>284</ele>
<time>2024-05-10T13:13:06Z</time>
</trkpt>
<trkpt lat="49.59977715276182" lon="8.991909921169281">
<ele>284.2</ele>
<time>2024-05-10T13:13:07Z</time>
</trkpt>
<trkpt lat="49.599742870777845" lon="8.99189374409616">
<ele>284.2</ele>
<time>2024-05-10T13:13:08Z</time>
</trkpt>
<trkpt lat="49.599704733118415" lon="8.991867005825043">
<ele>284.4</ele>
<time>2024-05-10T13:13:09Z</time>
</trkpt>
<trkpt lat="49.5996779948473" lon="8.991845129057765">
<ele>284.6</ele>
<time>2024-05-10T13:13:10Z</time>
</trkpt>
<trkpt lat="49.59965511225164" lon="8.991821240633726">
<ele>284.8</ele>
<time>2024-05-10T13:13:11Z</time>
</trkpt>
<trkpt lat="49.599624602124095" lon="8.99179358035326">
<ele>285</ele>
<time>2024-05-10T13:13:12Z</time>
</trkpt>
<trkpt lat="49.59959409199655" lon="8.99177354760468">
<ele>285.2</ele>
<time>2024-05-10T13:13:13Z</time>
</trkpt>
<trkpt lat="49.599563581869006" lon="8.991744965314865">
<ele>285.4</ele>
<time>2024-05-10T13:13:14Z</time>
</trkpt>
<trkpt lat="49.599525444209576" lon="8.991720154881477">
<ele>285.6</ele>
<time>2024-05-10T13:13:15Z</time>
</trkpt>
<trkpt lat="49.599483450874686" lon="8.99169341661036">
<ele>285.6</ele>
<time>2024-05-10T13:13:16Z</time>
</trkpt>
<trkpt lat="49.599445313215256" lon="8.991671539843082">
<ele>285.8</ele>
<time>2024-05-10T13:13:17Z</time>
</trkpt>
<trkpt lat="49.599407175555825" lon="8.991653434932232">
<ele>285.8</ele>
<time>2024-05-10T13:13:18Z</time>
</trkpt>
<trkpt lat="49.59937280975282" lon="8.991628624498844">
<ele>286</ele>
<time>2024-05-10T13:13:19Z</time>
</trkpt>
<trkpt lat="49.59933852776885" lon="8.99159618653357">
<ele>286.2</ele>
<time>2024-05-10T13:13:20Z</time>
</trkpt>
<trkpt lat="49.59930030629039" lon="8.991561820730567">
<ele>286.2</ele>
<time>2024-05-10T13:13:21Z</time>
</trkpt>
<trkpt lat="49.59926602430642" lon="8.991526532918215">
<ele>286.4</ele>
<time>2024-05-10T13:13:22Z</time>
</trkpt>
<trkpt lat="49.59923165850341" lon="8.9914979506284">
<ele>286.6</ele>
<time>2024-05-10T13:13:23Z</time>
</trkpt>
<trkpt lat="49.59919737651944" lon="8.991468362510204">
<ele>286.6</ele>
<time>2024-05-10T13:13:24Z</time>
</trkpt>
<trkpt lat="49.59915538318455" lon="8.991441708058119">
<ele>286.6</ele>
<time>2024-05-10T13:13:25Z</time>
</trkpt>
<trkpt lat="49.59911338984966" lon="8.99141882546246">
<ele>286.8</ele>
<time>2024-05-10T13:13:26Z</time>
</trkpt>
<trkpt lat="49.599071480333805" lon="8.991394937038422">
<ele>286.8</ele>
<time>2024-05-10T13:13:27Z</time>
</trkpt>
<trkpt lat="49.59902948699891" lon="8.991374904289842">
<ele>286.8</ele>
<time>2024-05-10T13:13:28Z</time>
</trkpt>
<trkpt lat="49.59898757748306" lon="8.991356799378991">
<ele>286.8</ele>
<time>2024-05-10T13:13:29Z</time>
</trkpt>
<trkpt lat="49.59894935600459" lon="8.991348249837756">
<ele>286.8</ele>
<time>2024-05-10T13:13:30Z</time>
</trkpt>
<trkpt lat="49.598915074020624" lon="8.991341544315219">
<ele>286.8</ele>
<time>2024-05-10T13:13:31Z</time>
</trkpt>
<trkpt lat="49.598876936361194" lon="8.99133869446814">
<ele>286.8</ele>
<time>2024-05-10T13:13:32Z</time>
</trkpt>
<trkpt lat="49.59884257055819" lon="8.991341544315219">
<ele>287</ele>
<time>2024-05-10T13:13:33Z</time>
</trkpt>
<trkpt lat="49.59880828857422" lon="8.991350093856454">
<ele>286.8</ele>
<time>2024-05-10T13:13:34Z</time>
</trkpt>
<trkpt lat="49.598773922771215" lon="8.991365432739258">
<ele>286.8</ele>
<time>2024-05-10T13:13:35Z</time>
</trkpt>
<trkpt lat="49.598735785111785" lon="8.991383537650108">
<ele>286.8</ele>
<time>2024-05-10T13:13:36Z</time>
</trkpt>
<trkpt lat="49.59870527498424" lon="8.991405414417386">
<ele>286.8</ele>
<time>2024-05-10T13:13:37Z</time>
</trkpt>
<trkpt lat="49.59867090918124" lon="8.991430224850774">
<ele>287</ele>
<time>2024-05-10T13:13:38Z</time>
</trkpt>
<trkpt lat="49.59864039905369" lon="8.99145788513124">
<ele>287</ele>
<time>2024-05-10T13:13:39Z</time>
</trkpt>
<trkpt lat="49.59860988892615" lon="8.991490323096514">
<ele>287</ele>
<time>2024-05-10T13:13:40Z</time>
</trkpt>
<trkpt lat="49.59858315065503" lon="8.991523683071136">
<ele>287.2</ele>
<time>2024-05-10T13:13:41Z</time>
</trkpt>
<trkpt lat="49.598556496202946" lon="8.99155804887414">
<ele>287.4</ele>
<time>2024-05-10T13:13:42Z</time>
</trkpt>
<trkpt lat="49.59853361360729" lon="8.991595264524221">
<ele>287.6</ele>
<time>2024-05-10T13:13:43Z</time>
</trkpt>
<trkpt lat="49.598514502868056" lon="8.99163524620235">
<ele>287.8</ele>
<time>2024-05-10T13:13:44Z</time>
</trkpt>
<trkpt lat="49.5984916202724" lon="8.99167631752789">
<ele>288</ele>
<time>2024-05-10T13:13:45Z</time>
</trkpt>
<trkpt lat="49.598476365208626" lon="8.99171537719667">
<ele>288.2</ele>
<time>2024-05-10T13:13:46Z</time>
</trkpt>
<trkpt lat="49.598457254469395" lon="8.99175452068448">
<ele>288.4</ele>
<time>2024-05-10T13:13:47Z</time>
</trkpt>
<trkpt lat="49.598438227549195" lon="8.99179358035326">
<ele>288.4</ele>
<time>2024-05-10T13:13:48Z</time>
</trkpt>
<trkpt lat="49.59842297248542" lon="8.991841273382306">
<ele>288.6</ele>
<time>2024-05-10T13:13:49Z</time>
</trkpt>
<trkpt lat="49.59840771742165" lon="8.991885110735893">
<ele>288.8</ele>
<time>2024-05-10T13:13:50Z</time>
</trkpt>
<trkpt lat="49.598396234214306" lon="8.991928026080132">
<ele>289</ele>
<time>2024-05-10T13:13:51Z</time>
</trkpt>
<trkpt lat="49.59838483482599" lon="8.99197194725275">
<ele>289.2</ele>
<time>2024-05-10T13:13:52Z</time>
</trkpt>
<trkpt lat="49.59837720729411" lon="8.99201293475926">
<ele>289.6</ele>
<time>2024-05-10T13:13:53Z</time>
</trkpt>
<trkpt lat="49.59836572408676" lon="8.99205300025642">
<ele>289.8</ele>
<time>2024-05-10T13:13:54Z</time>
</trkpt>
<trkpt lat="49.598361952230334" lon="8.992088288068771">
<ele>290</ele>
<time>2024-05-10T13:13:55Z</time>
</trkpt>
<trkpt lat="49.59835432469845" lon="8.992126425728202">
<ele>290.2</ele>
<time>2024-05-10T13:13:56Z</time>
</trkpt>
<trkpt lat="49.59834669716656" lon="8.992170263081789">
<ele>290.4</ele>
<time>2024-05-10T13:13:57Z</time>
</trkpt>
<trkpt lat="49.59833906963467" lon="8.992213178426027">
<ele>290.6</ele>
<time>2024-05-10T13:13:58Z</time>
</trkpt>
<trkpt lat="49.59833521395922" lon="8.992256093770266">
<ele>290.6</ele>
<time>2024-05-10T13:13:59Z</time>
</trkpt>
<trkpt lat="49.59833521395922" lon="8.992295237258077">
<ele>290.8</ele>
<time>2024-05-10T13:14:00Z</time>
</trkpt>
<trkpt lat="49.59832758642733" lon="8.992336224764585">
<ele>290.8</ele>
<time>2024-05-10T13:14:01Z</time>
</trkpt>
<trkpt lat="49.598323814570904" lon="8.992376290261745">
<ele>291</ele>
<time>2024-05-10T13:14:02Z</time>
</trkpt>
<trkpt lat="49.598319958895445" lon="8.992420127615333">
<ele>291</ele>
<time>2024-05-10T13:14:03Z</time>
</trkpt>
<trkpt lat="49.59830855950713" lon="8.9924649707973">
<ele>291</ele>
<time>2024-05-10T13:14:04Z</time>
</trkpt>
<trkpt lat="49.59830470383167" lon="8.99250696413219">
<ele>291</ele>
<time>2024-05-10T13:14:05Z</time>
</trkpt>
<trkpt lat="49.59829707629979" lon="8.992549879476428">
<ele>291.2</ele>
<time>2024-05-10T13:14:06Z</time>
</trkpt>
<trkpt lat="49.5982894487679" lon="8.992593716830015">
<ele>291.2</ele>
<time>2024-05-10T13:14:07Z</time>
</trkpt>
<trkpt lat="49.598281821236014" lon="8.992638560011983">
<ele>291.4</ele>
<time>2024-05-10T13:14:08Z</time>
</trkpt>
<trkpt lat="49.598277965560555" lon="8.992681475356221">
<ele>291.4</ele>
<time>2024-05-10T13:14:09Z</time>
</trkpt>
<trkpt lat="49.59827033802867" lon="8.992728162556887">
<ele>291.4</ele>
<time>2024-05-10T13:14:10Z</time>
</trkpt>
<trkpt lat="49.59826271049678" lon="8.992768228054047">
<ele>291.6</ele>
<time>2024-05-10T13:14:11Z</time>
</trkpt>
<trkpt lat="49.5982550829649" lon="8.992808293551207">
<ele>291.6</ele>
<time>2024-05-10T13:14:12Z</time>
</trkpt>
<trkpt lat="49.598243683576584" lon="8.992851208895445">
<ele>291.8</ele>
<time>2024-05-10T13:14:13Z</time>
</trkpt>
<trkpt lat="49.598239827901125" lon="8.992891274392605">
<ele>291.8</ele>
<time>2024-05-10T13:14:14Z</time>
</trkpt>
<trkpt lat="49.59822842851281" lon="8.992933267727494">
<ele>292</ele>
<time>2024-05-10T13:14:15Z</time>
</trkpt>
<trkpt lat="49.59821694530547" lon="8.992971405386925">
<ele>292.2</ele>
<time>2024-05-10T13:14:16Z</time>
</trkpt>
<trkpt lat="49.598201690241694" lon="8.993011470884085">
<ele>292.4</ele>
<time>2024-05-10T13:14:17Z</time>
</trkpt>
<trkpt lat="49.598182663321495" lon="8.993048602715135">
<ele>292.6</ele>
<time>2024-05-10T13:14:18Z</time>
</trkpt>
<trkpt lat="49.59816740825772" lon="8.993082046508789">
<ele>292.8</ele>
<time>2024-05-10T13:14:19Z</time>
</trkpt>
<trkpt lat="49.59814829751849" lon="8.993108700960875">
<ele>293</ele>
<time>2024-05-10T13:14:20Z</time>
</trkpt>
<trkpt lat="49.59812541492283" lon="8.993133511394262">
<ele>293.2</ele>
<time>2024-05-10T13:14:21Z</time>
</trkpt>
<trkpt lat="49.5981063041836" lon="8.99315639398992">
<ele>293.4</ele>
<time>2024-05-10T13:14:22Z</time>
</trkpt>
<trkpt lat="49.59807964973152" lon="8.993183132261038">
<ele>293.6</ele>
<time>2024-05-10T13:14:23Z</time>
</trkpt>
<trkpt lat="49.59804913960397" lon="8.993206936866045">
<ele>293.6</ele>
<time>2024-05-10T13:14:24Z</time>
</trkpt>
<trkpt lat="49.598022401332855" lon="8.993226969614625">
<ele>293.8</ele>
<time>2024-05-10T13:14:25Z</time>
</trkpt>
<trkpt lat="49.59799574688077" lon="8.993249852210283">
<ele>293.8</ele>
<time>2024-05-10T13:14:26Z</time>
</trkpt>
<trkpt lat="49.59796900860965" lon="8.993267035111785">
<ele>294</ele>
<time>2024-05-10T13:14:27Z</time>
</trkpt>
<trkpt lat="49.597946126013994" lon="8.993285140022635">
<ele>294</ele>
<time>2024-05-10T13:14:28Z</time>
</trkpt>
<trkpt lat="49.59791561588645" lon="8.993303244933486">
<ele>294</ele>
<time>2024-05-10T13:14:29Z</time>
</trkpt>
<trkpt lat="49.597885105758905" lon="8.993320427834988">
<ele>294.2</ele>
<time>2024-05-10T13:14:30Z</time>
</trkpt>
<trkpt lat="49.5978507399559" lon="8.99333375506103">
<ele>294.4</ele>
<time>2024-05-10T13:14:31Z</time>
</trkpt>
<trkpt lat="49.59782408550382" lon="8.993334760889411">
<ele>294.6</ele>
<time>2024-05-10T13:14:32Z</time>
</trkpt>
<trkpt lat="49.59779357537627" lon="8.993343310430646">
<ele>294.8</ele>
<time>2024-05-10T13:14:33Z</time>
</trkpt>
<trkpt lat="49.597766837105155" lon="8.993354793637991">
<ele>295</ele>
<time>2024-05-10T13:14:34Z</time>
</trkpt>
<trkpt lat="49.59774009883404" lon="8.993365271016955">
<ele>295.2</ele>
<time>2024-05-10T13:14:35Z</time>
</trkpt>
<trkpt lat="49.59771344438195" lon="8.993372898548841">
<ele>295.4</ele>
<time>2024-05-10T13:14:36Z</time>
</trkpt>
<trkpt lat="49.59768293425441" lon="8.993381448090076">
<ele>295.4</ele>
<time>2024-05-10T13:14:37Z</time>
</trkpt>
<trkpt lat="49.59765619598329" lon="8.993385303765535">
<ele>295.6</ele>
<time>2024-05-10T13:14:38Z</time>
</trkpt>
<trkpt lat="49.597629541531205" lon="8.993388153612614">
<ele>295.8</ele>
<time>2024-05-10T13:14:39Z</time>
</trkpt>
<trkpt lat="49.59760280326009" lon="8.99339477531612">
<ele>296</ele>
<time>2024-05-10T13:14:40Z</time>
</trkpt>
<trkpt lat="49.59757992066443" lon="8.993399553000927">
<ele>296.2</ele>
<time>2024-05-10T13:14:41Z</time>
</trkpt>
<trkpt lat="49.59755318239331" lon="8.993405336514115">
<ele>296.4</ele>
<time>2024-05-10T13:14:42Z</time>
</trkpt>
<trkpt lat="49.59752652794123" lon="8.993410030379891">
<ele>296.4</ele>
<time>2024-05-10T13:14:43Z</time>
</trkpt>
<trkpt lat="49.597507417202" lon="8.993410030379891">
<ele>296.6</ele>
<time>2024-05-10T13:14:44Z</time>
</trkpt>
<trkpt lat="49.5974883902818" lon="8.99341195821762">
<ele>296.8</ele>
<time>2024-05-10T13:14:45Z</time>
</trkpt>
<trkpt lat="49.59746550768614" lon="8.9934148080647">
<ele>297</ele>
<time>2024-05-10T13:14:46Z</time>
</trkpt>
<trkpt lat="49.59743876941502" lon="8.993419585749507">
<ele>297.2</ele>
<time>2024-05-10T13:14:47Z</time>
</trkpt>
<trkpt lat="49.597412031143904" lon="8.993425369262695">
<ele>297.4</ele>
<time>2024-05-10T13:14:48Z</time>
</trkpt>
<trkpt lat="49.59738537669182" lon="8.993430063128471">
<ele>297.6</ele>
<time>2024-05-10T13:14:49Z</time>
</trkpt>
<trkpt lat="49.5973586384207" lon="8.993430063128471">
<ele>297.6</ele>
<time>2024-05-10T13:14:50Z</time>
</trkpt>
<trkpt lat="49.59732812829316" lon="8.9934319909662">
<ele>297.8</ele>
<time>2024-05-10T13:14:51Z</time>
</trkpt>
<trkpt lat="49.59730147384107" lon="8.993430063128471">
<ele>298</ele>
<time>2024-05-10T13:14:52Z</time>
</trkpt>
<trkpt lat="49.59727096371353" lon="8.9934319909662">
<ele>298</ele>
<time>2024-05-10T13:14:53Z</time>
</trkpt>
<trkpt lat="49.59724422544241" lon="8.993428219109774">
<ele>298.2</ele>
<time>2024-05-10T13:14:54Z</time>
</trkpt>
<trkpt lat="49.597213715314865" lon="8.993426291272044">
<ele>298.4</ele>
<time>2024-05-10T13:14:55Z</time>
</trkpt>
<trkpt lat="49.59718697704375" lon="8.993425369262695">
<ele>298.6</ele>
<time>2024-05-10T13:14:56Z</time>
</trkpt>
<trkpt lat="49.59716032259166" lon="8.993421513587236">
<ele>298.6</ele>
<time>2024-05-10T13:14:57Z</time>
</trkpt>
<trkpt lat="49.59714121185243" lon="8.9934148080647">
<ele>298.8</ele>
<time>2024-05-10T13:14:58Z</time>
</trkpt>
<trkpt lat="49.597114557400346" lon="8.99341195821762">
<ele>298.8</ele>
<time>2024-05-10T13:14:59Z</time>
</trkpt>
<trkpt lat="49.59709167480469" lon="8.993403408676386">
<ele>299</ele>
<time>2024-05-10T13:15:00Z</time>
</trkpt>
<trkpt lat="49.59706493653357" lon="8.99339477531612">
<ele>299.2</ele>
<time>2024-05-10T13:15:01Z</time>
</trkpt>
<trkpt lat="49.59703819826245" lon="8.993383375927806">
<ele>299.4</ele>
<time>2024-05-10T13:15:02Z</time>
</trkpt>
<trkpt lat="49.597015315666795" lon="8.993372898548841">
<ele>299.6</ele>
<time>2024-05-10T13:15:03Z</time>
</trkpt>
<trkpt lat="49.59700006060302" lon="8.993363343179226">
<ele>299.8</ele>
<time>2024-05-10T13:15:04Z</time>
</trkpt>
<trkpt lat="49.59696955047548" lon="8.993358565494418">
<ele>300</ele>
<time>2024-05-10T13:15:05Z</time>
</trkpt>
<trkpt lat="49.596939040347934" lon="8.993354793637991">
<ele>300.4</ele>
<time>2024-05-10T13:15:06Z</time>
</trkpt>
<trkpt lat="49.59690853022039" lon="8.993347166106105">
<ele>300.6</ele>
<time>2024-05-10T13:15:07Z</time>
</trkpt>
<trkpt lat="49.59687039256096" lon="8.99333375506103">
<ele>300.8</ele>
<time>2024-05-10T13:15:08Z</time>
</trkpt>
<trkpt lat="49.596839882433414" lon="8.993318499997258">
<ele>300.8</ele>
<time>2024-05-10T13:15:09Z</time>
</trkpt>
<trkpt lat="49.5968131441623" lon="8.993301317095757">
<ele>301</ele>
<time>2024-05-10T13:15:10Z</time>
</trkpt>
<trkpt lat="49.5967941172421" lon="8.993291845545173">
<ele>301.2</ele>
<time>2024-05-10T13:15:11Z</time>
</trkpt>
<trkpt lat="49.59677500650287" lon="8.993280362337828">
<ele>301.4</ele>
<time>2024-05-10T13:15:12Z</time>
</trkpt>
<trkpt lat="49.59675597958267" lon="8.993269884958863">
<ele>301.6</ele>
<time>2024-05-10T13:15:13Z</time>
</trkpt>
<trkpt lat="49.59673301316798" lon="8.993261335417628">
<ele>301.8</ele>
<time>2024-05-10T13:15:14Z</time>
</trkpt>
<trkpt lat="49.59671398624778" lon="8.99325655773282">
<ele>302.2</ele>
<time>2024-05-10T13:15:15Z</time>
</trkpt>
<trkpt lat="49.59669487550855" lon="8.993249852210283">
<ele>302.4</ele>
<time>2024-05-10T13:15:16Z</time>
</trkpt>
<trkpt lat="49.59667199291289" lon="8.993243146687746">
<ele>302.6</ele>
<time>2024-05-10T13:15:17Z</time>
</trkpt>
<trkpt lat="49.59664911031723" lon="8.993238369002938">
<ele>302.8</ele>
<time>2024-05-10T13:15:18Z</time>
</trkpt>
<trkpt lat="49.59662622772157" lon="8.993231747299433">
<ele>303</ele>
<time>2024-05-10T13:15:19Z</time>
</trkpt>
<trkpt lat="49.596599573269486" lon="8.993220264092088">
<ele>303.2</ele>
<time>2024-05-10T13:15:20Z</time>
</trkpt>
<trkpt lat="49.59657669067383" lon="8.993203081190586">
<ele>303.4</ele>
<time>2024-05-10T13:15:21Z</time>
</trkpt>
<trkpt lat="49.596542324870825" lon="8.993189753964543">
<ele>303.6</ele>
<time>2024-05-10T13:15:22Z</time>
</trkpt>
<trkpt lat="49.59651181474328" lon="8.993169721215963">
<ele>303.8</ele>
<time>2024-05-10T13:15:23Z</time>
</trkpt>
<trkpt lat="49.59647744894028" lon="8.993154466152191">
<ele>304</ele>
<time>2024-05-10T13:15:24Z</time>
</trkpt>
<trkpt lat="49.596443166956306" lon="8.993146838620305">
<ele>304.2</ele>
<time>2024-05-10T13:15:25Z</time>
</trkpt>
<trkpt lat="49.59641642868519" lon="8.993133511394262">
<ele>304.4</ele>
<time>2024-05-10T13:15:26Z</time>
</trkpt>
<trkpt lat="49.59638969041407" lon="8.99311825633049">
<ele>304.6</ele>
<time>2024-05-10T13:15:27Z</time>
</trkpt>
<trkpt lat="49.59636680781841" lon="8.993104929104447">
<ele>304.8</ele>
<time>2024-05-10T13:15:28Z</time>
</trkpt>
<trkpt lat="49.596343925222754" lon="8.99310015141964">
<ele>305</ele>
<time>2024-05-10T13:15:29Z</time>
</trkpt>
<trkpt lat="49.596321042627096" lon="8.993084896355867">
<ele>305.2</ele>
<time>2024-05-10T13:15:30Z</time>
</trkpt>
<trkpt lat="49.59629438817501" lon="8.993082968518138">
<ele>305.2</ele>
<time>2024-05-10T13:15:31Z</time>
</trkpt>
<trkpt lat="49.59626764990389" lon="8.993066707625985">
<ele>305.4</ele>
<time>2024-05-10T13:15:32Z</time>
</trkpt>
<trkpt lat="49.596244767308235" lon="8.993048602715135">
<ele>305.4</ele>
<time>2024-05-10T13:15:33Z</time>
</trkpt>
<trkpt lat="49.59621040150523" lon="8.993028569966555">
<ele>305.4</ele>
<time>2024-05-10T13:15:34Z</time>
</trkpt>
<trkpt lat="49.596183747053146" lon="8.993006693199277">
<ele>305.6</ele>
<time>2024-05-10T13:15:35Z</time>
</trkpt>
<trkpt lat="49.596164636313915" lon="8.992986660450697">
<ele>305.8</ele>
<time>2024-05-10T13:15:36Z</time>
</trkpt>
<trkpt lat="49.59614175371826" lon="8.99296185001731">
<ele>305.8</ele>
<time>2024-05-10T13:15:37Z</time>
</trkpt>
<trkpt lat="49.59612272679806" lon="8.99293796159327">
<ele>306</ele>
<time>2024-05-10T13:15:38Z</time>
</trkpt>
<trkpt lat="49.5960998442024" lon="8.992923712357879">
<ele>306.2</ele>
<time>2024-05-10T13:15:39Z</time>
</trkpt>
<trkpt lat="49.59608073346317" lon="8.992911307141185">
<ele>306.2</ele>
<time>2024-05-10T13:15:40Z</time>
</trkpt>
<trkpt lat="49.59606170654297" lon="8.992903679609299">
<ele>306.4</ele>
<time>2024-05-10T13:15:41Z</time>
</trkpt>
<trkpt lat="49.59603874012828" lon="8.992891274392605">
<ele>306.4</ele>
<time>2024-05-10T13:15:42Z</time>
</trkpt>
<trkpt lat="49.59602348506451" lon="8.992875097319484">
<ele>306.6</ele>
<time>2024-05-10T13:15:43Z</time>
</trkpt>
<trkpt lat="49.59599683061242" lon="8.992866463959217">
<ele>306.6</ele>
<time>2024-05-10T13:15:44Z</time>
</trkpt>
<trkpt lat="49.59597394801676" lon="8.992855064570904">
<ele>306.8</ele>
<time>2024-05-10T13:15:45Z</time>
</trkpt>
<trkpt lat="49.59595483727753" lon="8.992843581363559">
<ele>306.8</ele>
<time>2024-05-10T13:15:46Z</time>
</trkpt>
<trkpt lat="49.59593581035733" lon="8.992828326299787">
<ele>307</ele>
<time>2024-05-10T13:15:47Z</time>
</trkpt>
<trkpt lat="49.595912927761674" lon="8.992818770930171">
<ele>307.2</ele>
<time>2024-05-10T13:15:48Z</time>
</trkpt>
<trkpt lat="49.5958823338151" lon="8.992805443704128">
<ele>307.2</ele>
<time>2024-05-10T13:15:49Z</time>
</trkpt>
<trkpt lat="49.595848051831126" lon="8.992790188640356">
<ele>307.4</ele>
<time>2024-05-10T13:15:50Z</time>
</trkpt>
<trkpt lat="49.59581368602812" lon="8.992768228054047">
<ele>307.4</ele>
<time>2024-05-10T13:15:51Z</time>
</trkpt>
<trkpt lat="49.59578703157604" lon="8.992756828665733">
<ele>307.4</ele>
<time>2024-05-10T13:15:52Z</time>
</trkpt>
<trkpt lat="49.59576029330492" lon="8.992743417620659">
<ele>307.4</ele>
<time>2024-05-10T13:15:53Z</time>
</trkpt>
<trkpt lat="49.59573741070926" lon="8.992728162556887">
<ele>307.4</ele>
<time>2024-05-10T13:15:54Z</time>
</trkpt>
<trkpt lat="49.5957145281136" lon="8.992714835330844">
<ele>307.4</ele>
<time>2024-05-10T13:15:55Z</time>
</trkpt>
<trkpt lat="49.595691645517945" lon="8.992696730419993">
<ele>307.4</ele>
<time>2024-05-10T13:15:56Z</time>
</trkpt>
<trkpt lat="49.59566876292229" lon="8.992681475356221">
<ele>307.6</ele>
<time>2024-05-10T13:15:57Z</time>
</trkpt>
<trkpt lat="49.59564202465117" lon="8.992665214464068">
<ele>307.6</ele>
<time>2024-05-10T13:15:58Z</time>
</trkpt>
<trkpt lat="49.595611514523625" lon="8.992651887238026">
<ele>307.6</ele>
<time>2024-05-10T13:15:59Z</time>
</trkpt>
<trkpt lat="49.59558486007154" lon="8.992636632174253">
<ele>307.6</ele>
<time>2024-05-10T13:16:00Z</time>
</trkpt>
<trkpt lat="49.59555812180042" lon="8.992616599425673">
<ele>307.8</ele>
<time>2024-05-10T13:16:01Z</time>
</trkpt>
<trkpt lat="49.595531383529305" lon="8.99260327219963">
<ele>307.8</ele>
<time>2024-05-10T13:16:02Z</time>
</trkpt>
<trkpt lat="49.59550087340176" lon="8.99258323945105">
<ele>308</ele>
<time>2024-05-10T13:16:03Z</time>
</trkpt>
<trkpt lat="49.59547036327422" lon="8.9925651345402">
<ele>308.2</ele>
<time>2024-05-10T13:16:04Z</time>
</trkpt>
<trkpt lat="49.59543985314667" lon="8.992541246116161">
<ele>308.4</ele>
<time>2024-05-10T13:16:05Z</time>
</trkpt>
<trkpt lat="49.5954055711627" lon="8.992531774565578">
<ele>308.6</ele>
<time>2024-05-10T13:16:06Z</time>
</trkpt>
<trkpt lat="49.59537883289158" lon="8.992518363520503">
<ele>308.6</ele>
<time>2024-05-10T13:16:07Z</time>
</trkpt>
<trkpt lat="49.59534832276404" lon="8.99250696413219">
<ele>308.8</ele>
<time>2024-05-10T13:16:08Z</time>
</trkpt>
<trkpt lat="49.595317812636495" lon="8.992487853392959">
<ele>309</ele>
<time>2024-05-10T13:16:09Z</time>
</trkpt>
<trkpt lat="49.59528730250895" lon="8.992469748482108">
<ele>309</ele>
<time>2024-05-10T13:16:10Z</time>
</trkpt>
<trkpt lat="49.59525293670595" lon="8.992453571408987">
<ele>309.2</ele>
<time>2024-05-10T13:16:11Z</time>
</trkpt>
<trkpt lat="49.595218654721975" lon="8.992436388507485">
<ele>309.4</ele>
<time>2024-05-10T13:16:12Z</time>
</trkpt>
<trkpt lat="49.59518428891897" lon="8.992422055453062">
<ele>309.6</ele>
<time>2024-05-10T13:16:13Z</time>
</trkpt>
<trkpt lat="49.59514992311597" lon="8.992411578074098">
<ele>309.6</ele>
<time>2024-05-10T13:16:14Z</time>
</trkpt>
<trkpt lat="49.595115641132" lon="8.992396323010325">
<ele>309.8</ele>
<time>2024-05-10T13:16:15Z</time>
</trkpt>
<trkpt lat="49.595081275328994" lon="8.992382995784283">
<ele>309.8</ele>
<time>2024-05-10T13:16:16Z</time>
</trkpt>
<trkpt lat="49.59504699334502" lon="8.99236673489213">
<ele>309.8</ele>
<time>2024-05-10T13:16:17Z</time>
</trkpt>
<trkpt lat="49.59501262754202" lon="8.99234862998128">
<ele>309.8</ele>
<time>2024-05-10T13:16:18Z</time>
</trkpt>
<trkpt lat="49.594982117414474" lon="8.9923285972327">
<ele>309.8</ele>
<time>2024-05-10T13:16:19Z</time>
</trkpt>
<trkpt lat="49.59494775161147" lon="8.992311414331198">
<ele>309.6</ele>
<time>2024-05-10T13:16:20Z</time>
</trkpt>
<trkpt lat="49.5949134696275" lon="8.992296159267426">
<ele>309.6</ele>
<time>2024-05-10T13:16:21Z</time>
</trkpt>
<trkpt lat="49.594879103824496" lon="8.992278054356575">
<ele>309.4</ele>
<time>2024-05-10T13:16:22Z</time>
</trkpt>
<trkpt lat="49.59484473802149" lon="8.992261877283454">
<ele>309.4</ele>
<time>2024-05-10T13:16:23Z</time>
</trkpt>
<trkpt lat="49.59480660036206" lon="8.992243688553572">
<ele>309.4</ele>
<time>2024-05-10T13:16:24Z</time>
</trkpt>
<trkpt lat="49.59477231837809" lon="8.992226589471102">
<ele>309.4</ele>
<time>2024-05-10T13:16:25Z</time>
</trkpt>
<trkpt lat="49.59473795257509" lon="8.992210328578949">
<ele>309.4</ele>
<time>2024-05-10T13:16:26Z</time>
</trkpt>
<trkpt lat="49.59470367059112" lon="8.99219130165875">
<ele>309.4</ele>
<time>2024-05-10T13:16:27Z</time>
</trkpt>
<trkpt lat="49.594665449112654" lon="8.992177890613675">
<ele>309.4</ele>
<time>2024-05-10T13:16:28Z</time>
</trkpt>
<trkpt lat="49.59463116712868" lon="8.992164563387632">
<ele>309.4</ele>
<time>2024-05-10T13:16:29Z</time>
</trkpt>
<trkpt lat="49.59459302946925" lon="8.992146458476782">
<ele>309.2</ele>
<time>2024-05-10T13:16:30Z</time>
</trkpt>
<trkpt lat="49.59455489180982" lon="8.992126425728202">
<ele>309.2</ele>
<time>2024-05-10T13:16:31Z</time>
</trkpt>
<trkpt lat="49.59451675415039" lon="8.99211024865508">
<ele>309.2</ele>
<time>2024-05-10T13:16:32Z</time>
</trkpt>
<trkpt lat="49.59447853267193" lon="8.99209306575358">
<ele>309.2</ele>
<time>2024-05-10T13:16:33Z</time>
</trkpt>
<trkpt lat="49.59443662315607" lon="8.992078732699156">
<ele>309</ele>
<time>2024-05-10T13:16:34Z</time>
</trkpt>
<trkpt lat="49.59439848549664" lon="8.992063477635384">
<ele>309</ele>
<time>2024-05-10T13:16:35Z</time>
</trkpt>
<trkpt lat="49.59435649216175" lon="8.992043444886804">
<ele>309</ele>
<time>2024-05-10T13:16:36Z</time>
</trkpt>
<trkpt lat="49.59431835450232" lon="8.992019640281796">
<ele>309</ele>
<time>2024-05-10T13:16:37Z</time>
</trkpt>
<trkpt lat="49.59428398869932" lon="8.991996757686138">
<ele>309</ele>
<time>2024-05-10T13:16:38Z</time>
</trkpt>
<trkpt lat="49.59424207918346" lon="8.991970019415021">
<ele>309</ele>
<time>2024-05-10T13:16:39Z</time>
</trkpt>
<trkpt lat="49.59420394152403" lon="8.991945208981633">
<ele>309</ele>
<time>2024-05-10T13:16:40Z</time>
</trkpt>
<trkpt lat="49.59416194818914" lon="8.991920398548245">
<ele>309</ele>
<time>2024-05-10T13:16:41Z</time>
</trkpt>
<trkpt lat="49.59411995485425" lon="8.991896593943238">
<ele>309</ele>
<time>2024-05-10T13:16:42Z</time>
</trkpt>
<trkpt lat="49.59408181719482" lon="8.99187178350985">
<ele>309.2</ele>
<time>2024-05-10T13:16:43Z</time>
</trkpt>
<trkpt lat="49.59403990767896" lon="8.991847978904843">
<ele>309.2</ele>
<time>2024-05-10T13:16:44Z</time>
</trkpt>
<trkpt lat="49.59399791434407" lon="8.991826940327883">
<ele>309.4</ele>
<time>2024-05-10T13:16:45Z</time>
</trkpt>
<trkpt lat="49.59395592100918" lon="8.991805063560605">
<ele>309.4</ele>
<time>2024-05-10T13:16:46Z</time>
</trkpt>
<trkpt lat="49.593914011493325" lon="8.991783102974296">
<ele>309.6</ele>
<time>2024-05-10T13:16:47Z</time>
</trkpt>
<trkpt lat="49.593875873833895" lon="8.991763070225716">
<ele>309.8</ele>
<time>2024-05-10T13:16:48Z</time>
</trkpt>
<trkpt lat="49.593837736174464" lon="8.991744965314865">
<ele>309.8</ele>
<time>2024-05-10T13:16:49Z</time>
</trkpt>
<trkpt lat="49.593799514696" lon="8.991731638088822">
<ele>309.8</ele>
<time>2024-05-10T13:16:50Z</time>
</trkpt>
<trkpt lat="49.59376137703657" lon="8.991711605340242">
<ele>309.6</ele>
<time>2024-05-10T13:16:51Z</time>
</trkpt>
<trkpt lat="49.59372323937714" lon="8.991688722744584">
<ele>309.6</ele>
<time>2024-05-10T13:16:52Z</time>
</trkpt>
<trkpt lat="49.59368132986128" lon="8.991666762158275">
<ele>309.6</ele>
<time>2024-05-10T13:16:53Z</time>
</trkpt>
<trkpt lat="49.593639336526394" lon="8.991644801571965">
<ele>309.4</ele>
<time>2024-05-10T13:16:54Z</time>
</trkpt>
<trkpt lat="49.59360119886696" lon="8.991626696661115">
<ele>309.4</ele>
<time>2024-05-10T13:16:55Z</time>
</trkpt>
<trkpt lat="49.593559205532074" lon="8.991613369435072">
<ele>309.4</ele>
<time>2024-05-10T13:16:56Z</time>
</trkpt>
<trkpt lat="49.593517296016216" lon="8.99159618653357">
<ele>309.2</ele>
<time>2024-05-10T13:16:57Z</time>
</trkpt>
<trkpt lat="49.59348293021321" lon="8.991575231775641">
<ele>309.2</ele>
<time>2024-05-10T13:16:58Z</time>
</trkpt>
<trkpt lat="49.59344479255378" lon="8.991550421342254">
<ele>309.2</ele>
<time>2024-05-10T13:16:59Z</time>
</trkpt>
<trkpt lat="49.59340665489435" lon="8.991524688899517">
<ele>309.2</ele>
<time>2024-05-10T13:17:00Z</time>
</trkpt>
<trkpt lat="49.59336851723492" lon="8.991506500169635">
<ele>309.2</ele>
<time>2024-05-10T13:17:01Z</time>
</trkpt>
<trkpt lat="49.59333037957549" lon="8.991490323096514">
<ele>309</ele>
<time>2024-05-10T13:17:02Z</time>
</trkpt>
<trkpt lat="49.5932883862406" lon="8.991473140195012">
<ele>309</ele>
<time>2024-05-10T13:17:03Z</time>
</trkpt>
<trkpt lat="49.59325024858117" lon="8.99145788513124">
<ele>309</ele>
<time>2024-05-10T13:17:04Z</time>
</trkpt>
<trkpt lat="49.59321211092174" lon="8.99143785238266">
<ele>309</ele>
<time>2024-05-10T13:17:05Z</time>
</trkpt>
<trkpt lat="49.59317774511874" lon="8.99141974747181">
<ele>309</ele>
<time>2024-05-10T13:17:06Z</time>
</trkpt>
<trkpt lat="49.59313960745931" lon="8.991408348083496">
<ele>309</ele>
<time>2024-05-10T13:17:07Z</time>
</trkpt>
<trkpt lat="49.59310146979987" lon="8.991392087191343">
<ele>309</ele>
<time>2024-05-10T13:17:08Z</time>
</trkpt>
<trkpt lat="49.59307095967233" lon="8.9913787599653">
<ele>308.8</ele>
<time>2024-05-10T13:17:09Z</time>
</trkpt>
<trkpt lat="49.59303659386933" lon="8.991363504901528">
<ele>309</ele>
<time>2024-05-10T13:17:10Z</time>
</trkpt>
<trkpt lat="49.5929984562099" lon="8.991350093856454">
<ele>309</ele>
<time>2024-05-10T13:17:11Z</time>
</trkpt>
<trkpt lat="49.59296031855047" lon="8.991336766630411">
<ele>309</ele>
<time>2024-05-10T13:17:12Z</time>
</trkpt>
<trkpt lat="49.59292218089104" lon="8.991325367242098">
<ele>309</ele>
<time>2024-05-10T13:17:13Z</time>
</trkpt>
<trkpt lat="49.59288404323161" lon="8.991308184340596">
<ele>309.2</ele>
<time>2024-05-10T13:17:14Z</time>
</trkpt>
<trkpt lat="49.592845905572176" lon="8.991294857114553">
<ele>309.2</ele>
<time>2024-05-10T13:17:15Z</time>
</trkpt>
<trkpt lat="49.592807767912745" lon="8.9912785962224">
<ele>309.4</ele>
<time>2024-05-10T13:17:16Z</time>
</trkpt>
<trkpt lat="49.59277340210974" lon="8.991261413320899">
<ele>309.4</ele>
<time>2024-05-10T13:17:17Z</time>
</trkpt>
<trkpt lat="49.59273526445031" lon="8.991239536553621">
<ele>309.4</ele>
<time>2024-05-10T13:17:18Z</time>
</trkpt>
<trkpt lat="49.59270089864731" lon="8.99121849797666">
<ele>309.4</ele>
<time>2024-05-10T13:17:19Z</time>
</trkpt>
<trkpt lat="49.59266661666334" lon="8.991194693371654">
<ele>309.4</ele>
<time>2024-05-10T13:17:20Z</time>
</trkpt>
<trkpt lat="49.592628479003906" lon="8.991173738613725">
<ele>309.2</ele>
<time>2024-05-10T13:17:21Z</time>
</trkpt>
<trkpt lat="49.59258648566902" lon="8.991156555712223">
<ele>309.2</ele>
<time>2024-05-10T13:17:22Z</time>
</trkpt>
<trkpt lat="49.59255211986601" lon="8.99114130064845">
<ele>309.4</ele>
<time>2024-05-10T13:17:23Z</time>
</trkpt>
<trkpt lat="49.59251783788204" lon="8.991127889603376">
<ele>309.4</ele>
<time>2024-05-10T13:17:24Z</time>
</trkpt>
<trkpt lat="49.59247970022261" lon="8.99112126789987">
<ele>309.4</ele>
<time>2024-05-10T13:17:25Z</time>
</trkpt>
<trkpt lat="49.59244533441961" lon="8.991106934845448">
<ele>309.4</ele>
<time>2024-05-10T13:17:26Z</time>
</trkpt>
<trkpt lat="49.592414824292064" lon="8.991084974259138">
<ele>309.4</ele>
<time>2024-05-10T13:17:27Z</time>
</trkpt>
<trkpt lat="49.59238431416452" lon="8.991060247644782">
<ele>309.4</ele>
<time>2024-05-10T13:17:28Z</time>
</trkpt>
<trkpt lat="49.592353804036975" lon="8.991038287058473">
<ele>309.4</ele>
<time>2024-05-10T13:17:29Z</time>
</trkpt>
<trkpt lat="49.59232706576586" lon="8.991020182147622">
<ele>309.6</ele>
<time>2024-05-10T13:17:30Z</time>
</trkpt>
<trkpt lat="49.59229655563831" lon="8.991000149399042">
<ele>309.4</ele>
<time>2024-05-10T13:17:31Z</time>
</trkpt>
<trkpt lat="49.5922698173672" lon="8.990982044488192">
<ele>309.4</ele>
<time>2024-05-10T13:17:32Z</time>
</trkpt>
<trkpt lat="49.59224316291511" lon="8.99096293374896">
<ele>309.4</ele>
<time>2024-05-10T13:17:33Z</time>
</trkpt>
<trkpt lat="49.59221642464399" lon="8.99094482883811">
<ele>309.4</ele>
<time>2024-05-10T13:17:34Z</time>
</trkpt>
<trkpt lat="49.59218591451645" lon="8.990928567945957">
<ele>309.4</ele>
<time>2024-05-10T13:17:35Z</time>
</trkpt>
<trkpt lat="49.59215926006436" lon="8.990911468863487">
<ele>309.4</ele>
<time>2024-05-10T13:17:36Z</time>
</trkpt>
<trkpt lat="49.59212489426136" lon="8.990899985656142">
<ele>309.4</ele>
<time>2024-05-10T13:17:37Z</time>
</trkpt>
<trkpt lat="49.592094384133816" lon="8.990888586267829">
<ele>309.6</ele>
<time>2024-05-10T13:17:38Z</time>
</trkpt>
<trkpt lat="49.59206387400627" lon="8.990878025069833">
<ele>309.6</ele>
<time>2024-05-10T13:17:39Z</time>
</trkpt>
<trkpt lat="49.59203336387873" lon="8.99086662568152">
<ele>309.6</ele>
<time>2024-05-10T13:17:40Z</time>
</trkpt>
<trkpt lat="49.59200662560761" lon="8.990856148302555">
<ele>309.6</ele>
<time>2024-05-10T13:17:41Z</time>
</trkpt>
<trkpt lat="49.591976115480065" lon="8.99084466509521">
<ele>309.6</ele>
<time>2024-05-10T13:17:42Z</time>
</trkpt>
<trkpt lat="49.591941833496094" lon="8.990831337869167">
<ele>309.8</ele>
<time>2024-05-10T13:17:43Z</time>
</trkpt>
<trkpt lat="49.59191123954952" lon="8.990821782499552">
<ele>309.8</ele>
<time>2024-05-10T13:17:44Z</time>
</trkpt>
<trkpt lat="49.59188072942197" lon="8.99080652743578">
<ele>309.8</ele>
<time>2024-05-10T13:17:45Z</time>
</trkpt>
<trkpt lat="49.59185021929443" lon="8.9907864946872">
<ele>309.8</ele>
<time>2024-05-10T13:17:46Z</time>
</trkpt>
<trkpt lat="49.59181970916688" lon="8.990768389776349">
<ele>309.6</ele>
<time>2024-05-10T13:17:47Z</time>
</trkpt>
<trkpt lat="49.59178919903934" lon="8.990750284865499">
<ele>309.6</ele>
<time>2024-05-10T13:17:48Z</time>
</trkpt>
<trkpt lat="49.59175868891179" lon="8.990731174126267">
<ele>309.4</ele>
<time>2024-05-10T13:17:49Z</time>
</trkpt>
<trkpt lat="49.59172817878425" lon="8.990714997053146">
<ele>309.4</ele>
<time>2024-05-10T13:17:50Z</time>
</trkpt>
<trkpt lat="49.59169381298125" lon="8.990697814151645">
<ele>309.4</ele>
<time>2024-05-10T13:17:51Z</time>
</trkpt>
<trkpt lat="49.5916633028537" lon="8.990686414763331">
<ele>309.2</ele>
<time>2024-05-10T13:17:52Z</time>
</trkpt>
<trkpt lat="49.59162902086973" lon="8.990673003718257">
<ele>309.2</ele>
<time>2024-05-10T13:17:53Z</time>
</trkpt>
<trkpt lat="49.59159079939127" lon="8.99066537618637">
<ele>309.2</ele>
<time>2024-05-10T13:17:54Z</time>
</trkpt>
<trkpt lat="49.59155266173184" lon="8.990661604329944">
<ele>309</ele>
<time>2024-05-10T13:17:55Z</time>
</trkpt>
<trkpt lat="49.59151075221598" lon="8.990658754482865">
<ele>309</ele>
<time>2024-05-10T13:17:56Z</time>
</trkpt>
<trkpt lat="49.59147261455655" lon="8.990656826645136">
<ele>309</ele>
<time>2024-05-10T13:17:57Z</time>
</trkpt>
<trkpt lat="49.59143062122166" lon="8.990658754482865">
<ele>309</ele>
<time>2024-05-10T13:17:58Z</time>
</trkpt>
<trkpt lat="49.59138862788677" lon="8.990661604329944">
<ele>309</ele>
<time>2024-05-10T13:17:59Z</time>
</trkpt>
<trkpt lat="49.591346718370914" lon="8.99066537618637">
<ele>308.8</ele>
<time>2024-05-10T13:18:00Z</time>
</trkpt>
<trkpt lat="49.591304725036025" lon="8.990670153871179">
<ele>308.8</ele>
<time>2024-05-10T13:18:01Z</time>
</trkpt>
<trkpt lat="49.59126281552017" lon="8.990672081708908">
<ele>308.6</ele>
<time>2024-05-10T13:18:02Z</time>
</trkpt>
<trkpt lat="49.59122082218528" lon="8.990676859393716">
<ele>308.4</ele>
<time>2024-05-10T13:18:03Z</time>
</trkpt>
<trkpt lat="49.59117882885039" lon="8.990679709240794">
<ele>308.2</ele>
<time>2024-05-10T13:18:04Z</time>
</trkpt>
<trkpt lat="49.59113306365907" lon="8.990679709240794">
<ele>308.2</ele>
<time>2024-05-10T13:18:05Z</time>
</trkpt>
<trkpt lat="49.591087298467755" lon="8.990679709240794">
<ele>308</ele>
<time>2024-05-10T13:18:06Z</time>
</trkpt>
<trkpt lat="49.59104153327644" lon="8.990673003718257">
<ele>307.8</ele>
<time>2024-05-10T13:18:07Z</time>
</trkpt>
<trkpt lat="49.59099953994155" lon="8.99066537618637">
<ele>307.8</ele>
<time>2024-05-10T13:18:08Z</time>
</trkpt>
<trkpt lat="49.590950002893806" lon="8.990656826645136">
<ele>307.6</ele>
<time>2024-05-10T13:18:09Z</time>
</trkpt>
<trkpt lat="49.59090415388346" lon="8.990646349266171">
<ele>307.6</ele>
<time>2024-05-10T13:18:10Z</time>
</trkpt>
<trkpt lat="49.59085838869214" lon="8.990636793896556">
<ele>307.6</ele>
<time>2024-05-10T13:18:11Z</time>
</trkpt>
<trkpt lat="49.5908088516444" lon="8.990626316517591">
<ele>307.6</ele>
<time>2024-05-10T13:18:12Z</time>
</trkpt>
<trkpt lat="49.59075923077762" lon="8.990614833310246">
<ele>307.4</ele>
<time>2024-05-10T13:18:13Z</time>
</trkpt>
<trkpt lat="49.59070583805442" lon="8.990603433921933">
<ele>307.4</ele>
<time>2024-05-10T13:18:14Z</time>
</trkpt>
<trkpt lat="49.590652445331216" lon="8.990594800561666">
<ele>307.4</ele>
<time>2024-05-10T13:18:15Z</time>
</trkpt>
<trkpt lat="49.59059905260801" lon="8.990588178858161">
<ele>307.2</ele>
<time>2024-05-10T13:18:16Z</time>
</trkpt>
<trkpt lat="49.59054557606578" lon="8.990579545497894">
<ele>307.2</ele>
<time>2024-05-10T13:18:17Z</time>
</trkpt>
<trkpt lat="49.59048841148615" lon="8.990569990128279">
<ele>307</ele>
<time>2024-05-10T13:18:18Z</time>
</trkpt>
<trkpt lat="49.590435018762946" lon="8.990556662902236">
<ele>307</ele>
<time>2024-05-10T13:18:19Z</time>
</trkpt>
<trkpt lat="49.59038154222071" lon="8.990546185523272">
<ele>306.8</ele>
<time>2024-05-10T13:18:20Z</time>
</trkpt>
<trkpt lat="49.59032437764108" lon="8.990536630153656">
<ele>306.8</ele>
<time>2024-05-10T13:18:21Z</time>
</trkpt>
<trkpt lat="49.59026335738599" lon="8.990526152774692">
<ele>306.6</ele>
<time>2024-05-10T13:18:22Z</time>
</trkpt>
<trkpt lat="49.59020610898733" lon="8.990512825548649">
<ele>306.4</ele>
<time>2024-05-10T13:18:23Z</time>
</trkpt>
<trkpt lat="49.59014508873224" lon="8.990496564656496">
<ele>306.4</ele>
<time>2024-05-10T13:18:24Z</time>
</trkpt>
<trkpt lat="49.590084068477154" lon="8.99046991020441">
<ele>306.4</ele>
<time>2024-05-10T13:18:25Z</time>
</trkpt>
<trkpt lat="49.59003059193492" lon="8.99042984470725">
<ele>306.2</ele>
<time>2024-05-10T13:18:26Z</time>
</trkpt>
<trkpt lat="49.5899848267436" lon="8.990376451984048">
<ele>306.2</ele>
<time>2024-05-10T13:18:27Z</time>
</trkpt>
<trkpt lat="49.58995054475963" lon="8.990308726206422">
<ele>306</ele>
<time>2024-05-10T13:18:28Z</time>
</trkpt>
<trkpt lat="49.5899314340204" lon="8.990224823355675">
<ele>306</ele>
<time>2024-05-10T13:18:29Z</time>
</trkpt>
<trkpt lat="49.58992003463209" lon="8.990137986838818">
<ele>305.8</ele>
<time>2024-05-10T13:18:30Z</time>
</trkpt>
<trkpt lat="49.58992766216397" lon="8.990048384293914">
<ele>305.8</ele>
<time>2024-05-10T13:18:31Z</time>
</trkpt>
<trkpt lat="49.58993528969586" lon="8.989958697929978">
<ele>305.6</ele>
<time>2024-05-10T13:18:32Z</time>
</trkpt>
<trkpt lat="49.589939061552286" lon="8.989872867241502">
<ele>305.4</ele>
<time>2024-05-10T13:18:33Z</time>
</trkpt>
<trkpt lat="49.589942917227745" lon="8.989793742075562">
<ele>305.2</ele>
<time>2024-05-10T13:18:34Z</time>
</trkpt>
<trkpt lat="49.58995054475963" lon="8.989709839224815">
<ele>305</ele>
<time>2024-05-10T13:18:35Z</time>
</trkpt>
<trkpt lat="49.58995817229152" lon="8.989633480086923">
<ele>305</ele>
<time>2024-05-10T13:18:36Z</time>
</trkpt>
<trkpt lat="49.5899657998234" lon="8.989555276930332">
<ele>304.6</ele>
<time>2024-05-10T13:18:37Z</time>
</trkpt>
<trkpt lat="49.58997342735529" lon="8.989475229755044">
<ele>304.4</ele>
<time>2024-05-10T13:18:38Z</time>
</trkpt>
<trkpt lat="49.58997719921172" lon="8.989393170922995">
<ele>304.2</ele>
<time>2024-05-10T13:18:39Z</time>
</trkpt>
<trkpt lat="49.58997719921172" lon="8.98930641822517">
<ele>304.2</ele>
<time>2024-05-10T13:18:40Z</time>
</trkpt>
<trkpt lat="49.58996957167983" lon="8.989219665527344">
<ele>304</ele>
<time>2024-05-10T13:18:41Z</time>
</trkpt>
<trkpt lat="49.58995431661606" lon="8.989131907001138">
<ele>303.8</ele>
<time>2024-05-10T13:18:42Z</time>
</trkpt>
<trkpt lat="49.5899314340204" lon="8.98904800415039">
<ele>303.6</ele>
<time>2024-05-10T13:18:43Z</time>
</trkpt>
<trkpt lat="49.58989715203643" lon="8.98896686732769">
<ele>303.4</ele>
<time>2024-05-10T13:18:44Z</time>
</trkpt>
<trkpt lat="49.58985515870154" lon="8.988898219540715">
<ele>303.4</ele>
<time>2024-05-10T13:18:45Z</time>
</trkpt>
<trkpt lat="49.58980939351022" lon="8.988841976970434">
<ele>303</ele>
<time>2024-05-10T13:18:46Z</time>
</trkpt>
<trkpt lat="49.58975977264345" lon="8.988798139616847">
<ele>302.8</ele>
<time>2024-05-10T13:18:47Z</time>
</trkpt>
<trkpt lat="49.58970637992024" lon="8.988768551498652">
<ele>302.4</ele>
<time>2024-05-10T13:18:48Z</time>
</trkpt>
<trkpt lat="49.58965298719704" lon="8.988746590912342">
<ele>302.2</ele>
<time>2024-05-10T13:18:49Z</time>
</trkpt>
<trkpt lat="49.58959573879838" lon="8.988726558163762">
<ele>301.8</ele>
<time>2024-05-10T13:18:50Z</time>
</trkpt>
<trkpt lat="49.58954234607518" lon="8.98871130309999">
<ele>301.4</ele>
<time>2024-05-10T13:18:51Z</time>
</trkpt>
<trkpt lat="49.589488953351974" lon="8.988697975873947">
<ele>301.2</ele>
<time>2024-05-10T13:18:52Z</time>
</trkpt>
<trkpt lat="49.58944318816066" lon="8.988686492666602">
<ele>300.8</ele>
<time>2024-05-10T13:18:53Z</time>
</trkpt>
<trkpt lat="49.58939742296934" lon="8.988677943125367">
<ele>300.4</ele>
<time>2024-05-10T13:18:54Z</time>
</trkpt>
<trkpt lat="49.58935157395899" lon="8.98867123760283">
<ele>300</ele>
<time>2024-05-10T13:18:55Z</time>
</trkpt>
<trkpt lat="49.58930580876768" lon="8.988661766052246">
<ele>299.8</ele>
<time>2024-05-10T13:18:56Z</time>
</trkpt>
<trkpt lat="49.58926389925182" lon="8.988648355007172">
<ele>299.4</ele>
<time>2024-05-10T13:18:57Z</time>
</trkpt>
<trkpt lat="49.58922576159239" lon="8.988635027781129">
<ele>299</ele>
<time>2024-05-10T13:18:58Z</time>
</trkpt>
<trkpt lat="49.589191395789385" lon="8.988628322258592">
<ele>298.6</ele>
<time>2024-05-10T13:18:59Z</time>
</trkpt>
<trkpt lat="49.58915702998638" lon="8.988624550402164">
<ele>298.2</ele>
<time>2024-05-10T13:19:00Z</time>
</trkpt>
<trkpt lat="49.58912651985884" lon="8.988617844879627">
<ele>298</ele>
<time>2024-05-10T13:19:01Z</time>
</trkpt>
<trkpt lat="49.58909986540675" lon="8.988610217347741">
<ele>297.6</ele>
<time>2024-05-10T13:19:02Z</time>
</trkpt>
<trkpt lat="49.589073127135634" lon="8.988605439662933">
<ele>297.4</ele>
<time>2024-05-10T13:19:03Z</time>
</trkpt>
<trkpt lat="49.589054100215435" lon="8.988601667806506">
<ele>297.2</ele>
<time>2024-05-10T13:19:04Z</time>
</trkpt>
<trkpt lat="49.58903121761978" lon="8.988597812131047">
<ele>297</ele>
<time>2024-05-10T13:19:05Z</time>
</trkpt>
<trkpt lat="49.589012106880546" lon="8.98859303444624">
<ele>296.8</ele>
<time>2024-05-10T13:19:06Z</time>
</trkpt>
<trkpt lat="49.588992996141315" lon="8.988588256761432">
<ele>296.6</ele>
<time>2024-05-10T13:19:07Z</time>
</trkpt>
<trkpt lat="49.588973969221115" lon="8.988584484905005">
<ele>296.4</ele>
<time>2024-05-10T13:19:08Z</time>
</trkpt>
<trkpt lat="49.58895485848189" lon="8.988579707220197">
<ele>296.2</ele>
<time>2024-05-10T13:19:09Z</time>
</trkpt>
<trkpt lat="49.58894345909357" lon="8.988574929535389">
<ele>296.2</ele>
<time>2024-05-10T13:19:10Z</time>
</trkpt>
<trkpt lat="49.5889282040298" lon="8.988568224012852">
<ele>296</ele>
<time>2024-05-10T13:19:11Z</time>
</trkpt>
<trkpt lat="49.58891672082245" lon="8.988565374165773">
<ele>295.8</ele>
<time>2024-05-10T13:19:12Z</time>
</trkpt>
<trkpt lat="49.58890146575868" lon="8.988561602309346">
<ele>295.8</ele>
<time>2024-05-10T13:19:13Z</time>
</trkpt>
<trkpt lat="49.588893838226795" lon="8.988559674471617">
<ele>295.8</ele>
<time>2024-05-10T13:19:14Z</time>
</trkpt>
<trkpt lat="49.58888243883848" lon="8.988559674471617">
<ele>295.6</ele>
<time>2024-05-10T13:19:15Z</time>
</trkpt>
<trkpt lat="49.58887481130659" lon="8.988559674471617">
<ele>295.4</ele>
<time>2024-05-10T13:19:16Z</time>
</trkpt>
<trkpt lat="49.58887858316302" lon="8.988559674471617">
<ele>295.4</ele>
<time>2024-05-10T13:19:23Z</time>
</trkpt>
<trkpt lat="49.58887481130659" lon="8.988559674471617">
<ele>295.2</ele>
<time>2024-05-10T13:19:24Z</time>
</trkpt>
<trkpt lat="49.58887095563114" lon="8.988558752462268">
<ele>295</ele>
<time>2024-05-10T13:19:27Z</time>
</trkpt>
<trkpt lat="49.58886718377471" lon="8.988556824624538">
<ele>295</ele>
<time>2024-05-10T13:19:28Z</time>
</trkpt>
<trkpt lat="49.58886332809925" lon="8.988556824624538">
<ele>295</ele>
<time>2024-05-10T13:19:29Z</time>
</trkpt>
<trkpt lat="49.58884807303548" lon="8.988554896786809">
<ele>294.8</ele>
<time>2024-05-10T13:19:30Z</time>
</trkpt>
<trkpt lat="49.588836589828134" lon="8.988554896786809">
<ele>294.8</ele>
<time>2024-05-10T13:19:31Z</time>
</trkpt>
<trkpt lat="49.58882896229625" lon="8.988554896786809">
<ele>294.8</ele>
<time>2024-05-10T13:19:32Z</time>
</trkpt>
<trkpt lat="49.58882519043982" lon="8.98855204693973">
<ele>294.6</ele>
<time>2024-05-10T13:19:35Z</time>
</trkpt>
<trkpt lat="49.58882133476436" lon="8.988550119102001">
<ele>294.6</ele>
<time>2024-05-10T13:19:36Z</time>
</trkpt>
<trkpt lat="49.58880993537605" lon="8.988545341417193">
<ele>294.6</ele>
<time>2024-05-10T13:19:37Z</time>
</trkpt>
<trkpt lat="49.5887984521687" lon="8.988536791875958">
<ele>294.6</ele>
<time>2024-05-10T13:19:38Z</time>
</trkpt>
<trkpt lat="49.58878319710493" lon="8.988533020019531">
<ele>294.4</ele>
<time>2024-05-10T13:19:39Z</time>
</trkpt>
<trkpt lat="49.58876794204116" lon="8.988530086353421">
<ele>294.4</ele>
<time>2024-05-10T13:19:40Z</time>
</trkpt>
<trkpt lat="49.58875268697739" lon="8.988533020019531">
<ele>294.2</ele>
<time>2024-05-10T13:19:41Z</time>
</trkpt>
<trkpt lat="49.58872980438173" lon="8.988543497398496">
<ele>294.2</ele>
<time>2024-05-10T13:19:42Z</time>
</trkpt>
<trkpt lat="49.58871454931795" lon="8.988563530147076">
<ele>294</ele>
<time>2024-05-10T13:19:43Z</time>
</trkpt>
<trkpt lat="49.58870692178607" lon="8.988588256761432">
<ele>294</ele>
<time>2024-05-10T13:19:44Z</time>
</trkpt>
<trkpt lat="49.588699294254184" lon="8.988614995032549">
<ele>294</ele>
<time>2024-05-10T13:19:45Z</time>
</trkpt>
<trkpt lat="49.58868789486587" lon="8.988639805465937">
<ele>294.2</ele>
<time>2024-05-10T13:19:46Z</time>
</trkpt>
<trkpt lat="49.588676411658525" lon="8.988664615899324">
<ele>294.2</ele>
<time>2024-05-10T13:19:47Z</time>
</trkpt>
<trkpt lat="49.58866115659475" lon="8.988684648647904">
<ele>294.4</ele>
<time>2024-05-10T13:19:48Z</time>
</trkpt>
<trkpt lat="49.58864204585552" lon="8.988699903711677">
<ele>294.6</ele>
<time>2024-05-10T13:19:49Z</time>
</trkpt>
<trkpt lat="49.58862679079175" lon="8.988704681396484">
<ele>294.8</ele>
<time>2024-05-10T13:19:50Z</time>
</trkpt>
<trkpt lat="49.58860776387155" lon="8.988706525415182">
<ele>295</ele>
<time>2024-05-10T13:19:51Z</time>
</trkpt>
<trkpt lat="49.588577253744006" lon="8.988703675568104">
<ele>295.2</ele>
<time>2024-05-10T13:19:52Z</time>
</trkpt>
<trkpt lat="49.58854674361646" lon="8.988695126026869">
<ele>295.2</ele>
<time>2024-05-10T13:19:53Z</time>
</trkpt>
<trkpt lat="49.58850475028157" lon="8.988668387755752">
<ele>295.2</ele>
<time>2024-05-10T13:19:54Z</time>
</trkpt>
<trkpt lat="49.588458985090256" lon="8.98861306719482">
<ele>295.2</ele>
<time>2024-05-10T13:19:55Z</time>
</trkpt>
<trkpt lat="49.588416991755366" lon="8.98855204693973">
<ele>295.2</ele>
<time>2024-05-10T13:19:56Z</time>
</trkpt>
<trkpt lat="49.588378854095936" lon="8.988498654216528">
<ele>295.2</ele>
<time>2024-05-10T13:19:57Z</time>
</trkpt>
<trkpt lat="49.58833694458008" lon="8.98845188319683">
<ele>295</ele>
<time>2024-05-10T13:19:58Z</time>
</trkpt>
<trkpt lat="49.58829495124519" lon="8.988409973680973">
<ele>295</ele>
<time>2024-05-10T13:19:59Z</time>
</trkpt>
<trkpt lat="49.5882529579103" lon="8.988387091085315">
<ele>294.8</ele>
<time>2024-05-10T13:20:00Z</time>
</trkpt>
<trkpt lat="49.58821104839444" lon="8.988360352814198">
<ele>294.6</ele>
<time>2024-05-10T13:20:01Z</time>
</trkpt>
<trkpt lat="49.58817291073501" lon="8.98833654820919">
<ele>294.2</ele>
<time>2024-05-10T13:20:02Z</time>
</trkpt>
<trkpt lat="49.58813468925655" lon="8.988309809938073">
<ele>294</ele>
<time>2024-05-10T13:20:03Z</time>
</trkpt>
<trkpt lat="49.58810040727258" lon="8.988283155485988">
<ele>293.8</ele>
<time>2024-05-10T13:20:04Z</time>
</trkpt>
<trkpt lat="49.58806989714503" lon="8.988254489377141">
<ele>293.6</ele>
<time>2024-05-10T13:20:05Z</time>
</trkpt>
<trkpt lat="49.58803938701749" lon="8.988224901258945">
<ele>293.6</ele>
<time>2024-05-10T13:20:06Z</time>
</trkpt>
<trkpt lat="49.58801264874637" lon="8.988193469122052">
<ele>293.6</ele>
<time>2024-05-10T13:20:07Z</time>
</trkpt>
<trkpt lat="49.58798213861883" lon="8.98816010914743">
<ele>293.6</ele>
<time>2024-05-10T13:20:08Z</time>
</trkpt>
<trkpt lat="49.58795540034771" lon="8.988128593191504">
<ele>293.6</ele>
<time>2024-05-10T13:20:09Z</time>
</trkpt>
<trkpt lat="49.587924890220165" lon="8.98809615522623">
<ele>293.8</ele>
<time>2024-05-10T13:20:10Z</time>
</trkpt>
<trkpt lat="49.58790200762451" lon="8.988063801079988">
<ele>293.8</ele>
<time>2024-05-10T13:20:11Z</time>
</trkpt>
<trkpt lat="49.58787149749696" lon="8.988026585429907">
<ele>293.8</ele>
<time>2024-05-10T13:20:12Z</time>
</trkpt>
<trkpt lat="49.58784098736942" lon="8.987990375608206">
<ele>294</ele>
<time>2024-05-10T13:20:13Z</time>
</trkpt>
<trkpt lat="49.5878142490983" lon="8.987955087795854">
<ele>294</ele>
<time>2024-05-10T13:20:14Z</time>
</trkpt>
<trkpt lat="49.587787594646215" lon="8.987919799983501">
<ele>294</ele>
<time>2024-05-10T13:20:15Z</time>
</trkpt>
<trkpt lat="49.58776471205056" lon="8.987883506342769">
<ele>294.2</ele>
<time>2024-05-10T13:20:16Z</time>
</trkpt>
<trkpt lat="49.58773797377944" lon="8.987852074205875">
<ele>294.2</ele>
<time>2024-05-10T13:20:17Z</time>
</trkpt>
<trkpt lat="49.587707463651896" lon="8.987825335934758">
<ele>294.4</ele>
<time>2024-05-10T13:20:18Z</time>
</trkpt>
<trkpt lat="49.58767695352435" lon="8.98780345916748">
<ele>294.4</ele>
<time>2024-05-10T13:20:19Z</time>
</trkpt>
<trkpt lat="49.58764644339681" lon="8.987786276265979">
<ele>294.6</ele>
<time>2024-05-10T13:20:20Z</time>
</trkpt>
<trkpt lat="49.58761970512569" lon="8.987774793058634">
<ele>294.8</ele>
<time>2024-05-10T13:20:21Z</time>
</trkpt>
<trkpt lat="49.58758542314172" lon="8.987768171355128">
<ele>294.8</ele>
<time>2024-05-10T13:20:22Z</time>
</trkpt>
<trkpt lat="49.58755491301417" lon="8.987765237689018">
<ele>294.8</ele>
<time>2024-05-10T13:20:23Z</time>
</trkpt>
<trkpt lat="49.58752440288663" lon="8.987756688147783">
<ele>295</ele>
<time>2024-05-10T13:20:24Z</time>
</trkpt>
<trkpt lat="49.587490037083626" lon="8.98774336092174">
<ele>295</ele>
<time>2024-05-10T13:20:25Z</time>
</trkpt>
<trkpt lat="49.58745567128062" lon="8.987731877714396">
<ele>295</ele>
<time>2024-05-10T13:20:26Z</time>
</trkpt>
<trkpt lat="49.58742516115308" lon="8.987716622650623">
<ele>295.2</ele>
<time>2024-05-10T13:20:27Z</time>
</trkpt>
<trkpt lat="49.587394651025534" lon="8.98770522326231">
<ele>295.2</ele>
<time>2024-05-10T13:20:28Z</time>
</trkpt>
<trkpt lat="49.58736414089799" lon="8.987691812217236">
<ele>295.2</ele>
<time>2024-05-10T13:20:29Z</time>
</trkpt>
<trkpt lat="49.587333630770445" lon="8.987674713134766">
<ele>295.4</ele>
<time>2024-05-10T13:20:30Z</time>
</trkpt>
<trkpt lat="49.5873031206429" lon="8.987658452242613">
<ele>295.6</ele>
<time>2024-05-10T13:20:31Z</time>
</trkpt>
<trkpt lat="49.58727638237178" lon="8.987640347331762">
<ele>295.8</ele>
<time>2024-05-10T13:20:32Z</time>
</trkpt>
<trkpt lat="49.5872497279197" lon="8.98762509226799">
<ele>296</ele>
<time>2024-05-10T13:20:33Z</time>
</trkpt>
<trkpt lat="49.58722684532404" lon="8.987616458907723">
<ele>296</ele>
<time>2024-05-10T13:20:34Z</time>
</trkpt>
<trkpt lat="49.58720010705292" lon="8.98760698735714">
<ele>296</ele>
<time>2024-05-10T13:20:35Z</time>
</trkpt>
<trkpt lat="49.58717345260084" lon="8.987594582140446">
<ele>296.2</ele>
<time>2024-05-10T13:20:36Z</time>
</trkpt>
<trkpt lat="49.58714671432972" lon="8.987581171095371">
<ele>296.4</ele>
<time>2024-05-10T13:20:37Z</time>
</trkpt>
<trkpt lat="49.5871199760586" lon="8.987560216337442">
<ele>296.6</ele>
<time>2024-05-10T13:20:38Z</time>
</trkpt>
<trkpt lat="49.587097093462944" lon="8.987540183588862">
<ele>296.8</ele>
<time>2024-05-10T13:20:39Z</time>
</trkpt>
<trkpt lat="49.5870665833354" lon="8.98752300068736">
<ele>297</ele>
<time>2024-05-10T13:20:40Z</time>
</trkpt>
<trkpt lat="49.587039928883314" lon="8.98750489577651">
<ele>297</ele>
<time>2024-05-10T13:20:41Z</time>
</trkpt>
<trkpt lat="49.5870131906122" lon="8.98748871870339">
<ele>297.2</ele>
<time>2024-05-10T13:20:42Z</time>
</trkpt>
<trkpt lat="49.58698653616011" lon="8.987473463639617">
<ele>297.2</ele>
<time>2024-05-10T13:20:43Z</time>
</trkpt>
<trkpt lat="49.586955942213535" lon="8.987455358728766">
<ele>297.4</ele>
<time>2024-05-10T13:20:44Z</time>
</trkpt>
<trkpt lat="49.58693305961788" lon="8.987436247989535">
<ele>297.4</ele>
<time>2024-05-10T13:20:45Z</time>
</trkpt>
<trkpt lat="49.58690640516579" lon="8.987416215240955">
<ele>297.6</ele>
<time>2024-05-10T13:20:46Z</time>
</trkpt>
<trkpt lat="49.58688352257013" lon="8.987395260483027">
<ele>297.6</ele>
<time>2024-05-10T13:20:47Z</time>
</trkpt>
<trkpt lat="49.586860639974475" lon="8.987371372058988">
<ele>297.6</ele>
<time>2024-05-10T13:20:48Z</time>
</trkpt>
<trkpt lat="49.58684152923525" lon="8.987344717606902">
<ele>297.6</ele>
<time>2024-05-10T13:20:49Z</time>
</trkpt>
<trkpt lat="49.58682250231504" lon="8.987319907173514">
<ele>297.6</ele>
<time>2024-05-10T13:20:50Z</time>
</trkpt>
<trkpt lat="49.58680339157581" lon="8.987290319055319">
<ele>297.6</ele>
<time>2024-05-10T13:20:51Z</time>
</trkpt>
<trkpt lat="49.58678428083658" lon="8.987257881090045">
<ele>297.6</ele>
<time>2024-05-10T13:20:52Z</time>
</trkpt>
<trkpt lat="49.58676902577281" lon="8.987226448953152">
<ele>297.6</ele>
<time>2024-05-10T13:20:53Z</time>
</trkpt>
<trkpt lat="49.5867576263845" lon="8.987193088978529">
<ele>297.6</ele>
<time>2024-05-10T13:20:54Z</time>
</trkpt>
<trkpt lat="49.58674999885261" lon="8.987153023481369">
<ele>297.6</ele>
<time>2024-05-10T13:20:55Z</time>
</trkpt>
<trkpt lat="49.58674237132072" lon="8.98711203597486">
<ele>297.6</ele>
<time>2024-05-10T13:20:56Z</time>
</trkpt>
<trkpt lat="49.586738515645266" lon="8.987068114802241">
<ele>297.6</ele>
<time>2024-05-10T13:20:57Z</time>
</trkpt>
<trkpt lat="49.586738515645266" lon="8.987025199458003">
<ele>297.6</ele>
<time>2024-05-10T13:20:58Z</time>
</trkpt>
<trkpt lat="49.58674237132072" lon="8.986986139789224">
<ele>297.6</ele>
<time>2024-05-10T13:20:59Z</time>
</trkpt>
<trkpt lat="49.586738515645266" lon="8.986946996301413">
<ele>297.6</ele>
<time>2024-05-10T13:21:00Z</time>
</trkpt>
<trkpt lat="49.58674237132072" lon="8.986907936632633">
<ele>297.6</ele>
<time>2024-05-10T13:21:01Z</time>
</trkpt>
<trkpt lat="49.58674999885261" lon="8.986869798973203">
<ele>297.6</ele>
<time>2024-05-10T13:21:02Z</time>
</trkpt>
<trkpt lat="49.58674999885261" lon="8.986829733476043">
<ele>297.6</ele>
<time>2024-05-10T13:21:03Z</time>
</trkpt>
<trkpt lat="49.58674999885261" lon="8.986791595816612">
<ele>297.6</ele>
<time>2024-05-10T13:21:04Z</time>
</trkpt>
<trkpt lat="49.58674999885261" lon="8.986749602481723">
<ele>297.6</ele>
<time>2024-05-10T13:21:05Z</time>
</trkpt>
<trkpt lat="49.586738515645266" lon="8.98671523667872">
<ele>297.6</ele>
<time>2024-05-10T13:21:06Z</time>
</trkpt>
<trkpt lat="49.58672711625695" lon="8.986677099019289">
<ele>297.6</ele>
<time>2024-05-10T13:21:07Z</time>
</trkpt>
<trkpt lat="49.58671563304961" lon="8.986642817035317">
<ele>297.6</ele>
<time>2024-05-10T13:21:08Z</time>
</trkpt>
<trkpt lat="49.586700377985835" lon="8.986611301079392">
<ele>297.6</ele>
<time>2024-05-10T13:21:09Z</time>
</trkpt>
<trkpt lat="49.58668897859752" lon="8.986586490646005">
<ele>297.6</ele>
<time>2024-05-10T13:21:10Z</time>
</trkpt>
<trkpt lat="49.58666986785829" lon="8.986566541716456">
<ele>297.4</ele>
<time>2024-05-10T13:21:11Z</time>
</trkpt>
<trkpt lat="49.58664698526263" lon="8.986551202833652">
<ele>297.4</ele>
<time>2024-05-10T13:21:12Z</time>
</trkpt>
<trkpt lat="49.58662033081055" lon="8.98653787560761">
<ele>297.4</ele>
<time>2024-05-10T13:21:13Z</time>
</trkpt>
<trkpt lat="49.58659736439586" lon="8.986526476219296">
<ele>297.4</ele>
<time>2024-05-10T13:21:14Z</time>
</trkpt>
<trkpt lat="49.5865744818002" lon="8.986514993011951">
<ele>297.6</ele>
<time>2024-05-10T13:21:15Z</time>
</trkpt>
<trkpt lat="49.58654782734811" lon="8.986506443470716">
<ele>297.6</ele>
<time>2024-05-10T13:21:16Z</time>
</trkpt>
<trkpt lat="49.586524944752455" lon="8.98649781011045">
<ele>297.8</ele>
<time>2024-05-10T13:21:17Z</time>
</trkpt>
<trkpt lat="49.5865020621568" lon="8.986492110416293">
<ele>298</ele>
<time>2024-05-10T13:21:18Z</time>
</trkpt>
<trkpt lat="49.58647917956114" lon="8.986484482884407">
<ele>298.2</ele>
<time>2024-05-10T13:21:19Z</time>
</trkpt>
<trkpt lat="49.58645629696548" lon="8.98647878319025">
<ele>298.4</ele>
<time>2024-05-10T13:21:20Z</time>
</trkpt>
<trkpt lat="49.58643333055079" lon="8.986473083496094">
<ele>298.6</ele>
<time>2024-05-10T13:21:21Z</time>
</trkpt>
<trkpt lat="49.58641044795513" lon="8.986470149829984">
<ele>298.8</ele>
<time>2024-05-10T13:21:22Z</time>
</trkpt>
<trkpt lat="49.58638756535947" lon="8.986466377973557">
<ele>299</ele>
<time>2024-05-10T13:21:23Z</time>
</trkpt>
<trkpt lat="49.586364682763815" lon="8.986465372145176">
<ele>299.2</ele>
<time>2024-05-10T13:21:24Z</time>
</trkpt>
<trkpt lat="49.58634180016816" lon="8.986465372145176">
<ele>299.4</ele>
<time>2024-05-10T13:21:25Z</time>
</trkpt>
<trkpt lat="49.5863189175725" lon="8.986463528126478">
<ele>299.6</ele>
<time>2024-05-10T13:21:26Z</time>
</trkpt>
<trkpt lat="49.58629226312041" lon="8.98645967245102">
<ele>300</ele>
<time>2024-05-10T13:21:27Z</time>
</trkpt>
<trkpt lat="49.58626929670572" lon="8.98645875044167">
<ele>300.2</ele>
<time>2024-05-10T13:21:28Z</time>
</trkpt>
<trkpt lat="49.586246414110065" lon="8.986456822603941">
<ele>300.6</ele>
<time>2024-05-10T13:21:29Z</time>
</trkpt>
<trkpt lat="49.58621975965798" lon="8.986450117081404">
<ele>300.8</ele>
<time>2024-05-10T13:21:30Z</time>
</trkpt>
<trkpt lat="49.58619687706232" lon="8.986446345224977">
<ele>301.2</ele>
<time>2024-05-10T13:21:31Z</time>
</trkpt>
<trkpt lat="49.58617776632309" lon="8.986441567540169">
<ele>301.6</ele>
<time>2024-05-10T13:21:32Z</time>
</trkpt>
<trkpt lat="49.58615111187101" lon="8.986436789855361">
<ele>302</ele>
<time>2024-05-10T13:21:33Z</time>
</trkpt>
<trkpt lat="49.586128229275346" lon="8.986430168151855">
<ele>302.4</ele>
<time>2024-05-10T13:21:34Z</time>
</trkpt>
<trkpt lat="49.58610534667969" lon="8.986425390467048">
<ele>302.6</ele>
<time>2024-05-10T13:21:35Z</time>
</trkpt>
<trkpt lat="49.586082380265" lon="8.98641960695386">
<ele>303</ele>
<time>2024-05-10T13:21:36Z</time>
</trkpt>
<trkpt lat="49.58605949766934" lon="8.986410135403275">
<ele>303.4</ele>
<time>2024-05-10T13:21:37Z</time>
</trkpt>
<trkpt lat="49.58603661507368" lon="8.986401502043009">
<ele>303.8</ele>
<time>2024-05-10T13:21:38Z</time>
</trkpt>
<trkpt lat="49.586009960621595" lon="8.986392952501774">
<ele>304.2</ele>
<time>2024-05-10T13:21:39Z</time>
</trkpt>
<trkpt lat="49.58598707802594" lon="8.986381469294429">
<ele>304.4</ele>
<time>2024-05-10T13:21:40Z</time>
</trkpt>
<trkpt lat="49.58596419543028" lon="8.986371913924813">
<ele>304.8</ele>
<time>2024-05-10T13:21:41Z</time>
</trkpt>
<trkpt lat="49.58594131283462" lon="8.986361436545849">
<ele>305</ele>
<time>2024-05-10T13:21:42Z</time>
</trkpt>
<trkpt lat="49.58591834641993" lon="8.986352887004614">
<ele>305.4</ele>
<time>2024-05-10T13:21:43Z</time>
</trkpt>
<trkpt lat="49.58589546382427" lon="8.986343331634998">
<ele>305.6</ele>
<time>2024-05-10T13:21:44Z</time>
</trkpt>
<trkpt lat="49.585872581228614" lon="8.986334782093763">
<ele>305.8</ele>
<time>2024-05-10T13:21:45Z</time>
</trkpt>
<trkpt lat="49.58584969863296" lon="8.986323298886418">
<ele>306</ele>
<time>2024-05-10T13:21:46Z</time>
</trkpt>
<trkpt lat="49.5858268160373" lon="8.986311899498105">
<ele>306.2</ele>
<time>2024-05-10T13:21:47Z</time>
</trkpt>
<trkpt lat="49.58580393344164" lon="8.986303266137838">
<ele>306.4</ele>
<time>2024-05-10T13:21:48Z</time>
</trkpt>
<trkpt lat="49.58578105084598" lon="8.986294716596603">
<ele>306.8</ele>
<time>2024-05-10T13:21:49Z</time>
</trkpt>
<trkpt lat="49.58575816825032" lon="8.98628138937056">
<ele>307</ele>
<time>2024-05-10T13:21:50Z</time>
</trkpt>
<trkpt lat="49.58574291318655" lon="8.986263200640678">
<ele>307.2</ele>
<time>2024-05-10T13:21:51Z</time>
</trkpt>
<trkpt lat="49.58572380244732" lon="8.986245095729828">
<ele>307.6</ele>
<time>2024-05-10T13:21:52Z</time>
</trkpt>
<trkpt lat="49.58570477552712" lon="8.986229840666056">
<ele>307.8</ele>
<time>2024-05-10T13:21:53Z</time>
</trkpt>
<trkpt lat="49.58568189293146" lon="8.986218441277742">
<ele>308</ele>
<time>2024-05-10T13:21:54Z</time>
</trkpt>
<trkpt lat="49.5856590103358" lon="8.986207880079746">
<ele>308</ele>
<time>2024-05-10T13:21:55Z</time>
</trkpt>
<trkpt lat="49.585636127740145" lon="8.98620025254786">
<ele>308.2</ele>
<time>2024-05-10T13:21:56Z</time>
</trkpt>
<trkpt lat="49.585617017000914" lon="8.986189775168896">
<ele>308.4</ele>
<time>2024-05-10T13:21:57Z</time>
</trkpt>
<trkpt lat="49.585597990080714" lon="8.986180303618312">
<ele>308.6</ele>
<time>2024-05-10T13:21:58Z</time>
</trkpt>
<trkpt lat="49.585575023666024" lon="8.986167898401618">
<ele>308.8</ele>
<time>2024-05-10T13:21:59Z</time>
</trkpt>
<trkpt lat="49.585555996745825" lon="8.986154487356544">
<ele>309</ele>
<time>2024-05-10T13:22:00Z</time>
</trkpt>
<trkpt lat="49.585536886006594" lon="8.98614308796823">
<ele>309.2</ele>
<time>2024-05-10T13:22:01Z</time>
</trkpt>
<trkpt lat="49.585517859086394" lon="8.986129760742188">
<ele>309.4</ele>
<time>2024-05-10T13:22:02Z</time>
</trkpt>
<trkpt lat="49.58550260402262" lon="8.986116349697113">
<ele>309.6</ele>
<time>2024-05-10T13:22:03Z</time>
</trkpt>
<trkpt lat="49.58547972142696" lon="8.98610302247107">
<ele>309.8</ele>
<time>2024-05-10T13:22:04Z</time>
</trkpt>
<trkpt lat="49.58546446636319" lon="8.986089695245028">
<ele>310</ele>
<time>2024-05-10T13:22:05Z</time>
</trkpt>
<trkpt lat="49.58544158376753" lon="8.986076284199953">
<ele>310.2</ele>
<time>2024-05-10T13:22:06Z</time>
</trkpt>
<trkpt lat="49.5854224730283" lon="8.98606681264937">
<ele>310.4</ele>
<time>2024-05-10T13:22:07Z</time>
</trkpt>
<trkpt lat="49.58540336228907" lon="8.986055329442024">
<ele>310.6</ele>
<time>2024-05-10T13:22:08Z</time>
</trkpt>
<trkpt lat="49.58538433536887" lon="8.98604292422533">
<ele>310.8</ele>
<time>2024-05-10T13:22:09Z</time>
</trkpt>
<trkpt lat="49.58536522462964" lon="8.986029596999288">
<ele>311</ele>
<time>2024-05-10T13:22:10Z</time>
</trkpt>
<trkpt lat="49.58534619770944" lon="8.986016269773245">
<ele>311.2</ele>
<time>2024-05-10T13:22:11Z</time>
</trkpt>
<trkpt lat="49.58532331511378" lon="8.98600285872817">
<ele>311.4</ele>
<time>2024-05-10T13:22:12Z</time>
</trkpt>
<trkpt lat="49.585300432518125" lon="8.985989531502128">
<ele>311.8</ele>
<time>2024-05-10T13:22:13Z</time>
</trkpt>
<trkpt lat="49.585277549922466" lon="8.985979976132512">
<ele>312</ele>
<time>2024-05-10T13:22:14Z</time>
</trkpt>
<trkpt lat="49.58525466732681" lon="8.985971426591277">
<ele>312.2</ele>
<time>2024-05-10T13:22:15Z</time>
</trkpt>
<trkpt lat="49.58523170091212" lon="8.985961871221662">
<ele>312.4</ele>
<time>2024-05-10T13:22:16Z</time>
</trkpt>
<trkpt lat="49.58521267399192" lon="8.985951393842697">
<ele>312.6</ele>
<time>2024-05-10T13:22:17Z</time>
</trkpt>
<trkpt lat="49.58519356325269" lon="8.985941838473082">
<ele>312.8</ele>
<time>2024-05-10T13:22:18Z</time>
</trkpt>
<trkpt lat="49.58517068065703" lon="8.985930439084768">
<ele>313.2</ele>
<time>2024-05-10T13:22:19Z</time>
</trkpt>
<trkpt lat="49.58515165373683" lon="8.985921805724502">
<ele>313.4</ele>
<time>2024-05-10T13:22:20Z</time>
</trkpt>
<trkpt lat="49.58512491546571" lon="8.985911328345537">
<ele>313.6</ele>
<time>2024-05-10T13:22:21Z</time>
</trkpt>
<trkpt lat="49.58510588854551" lon="8.985901772975922">
<ele>314</ele>
<time>2024-05-10T13:22:22Z</time>
</trkpt>
<trkpt lat="49.58508677780628" lon="8.985891295596957">
<ele>314.2</ele>
<time>2024-05-10T13:22:23Z</time>
</trkpt>
<trkpt lat="49.58506766706705" lon="8.98588459007442">
<ele>314.6</ele>
<time>2024-05-10T13:22:24Z</time>
</trkpt>
<trkpt lat="49.58504478447139" lon="8.985881740227342">
<ele>314.8</ele>
<time>2024-05-10T13:22:25Z</time>
</trkpt>
<trkpt lat="49.585021901875734" lon="8.985876962542534">
<ele>315.2</ele>
<time>2024-05-10T13:22:26Z</time>
</trkpt>
<trkpt lat="49.58500664681196" lon="8.985873190686107">
<ele>315.4</ele>
<time>2024-05-10T13:22:27Z</time>
</trkpt>
<trkpt lat="49.584983764216304" lon="8.985871262848377">
<ele>315.8</ele>
<time>2024-05-10T13:22:28Z</time>
</trkpt>
<trkpt lat="49.584964737296104" lon="8.985871262848377">
<ele>316</ele>
<time>2024-05-10T13:22:29Z</time>
</trkpt>
<trkpt lat="49.58494562655687" lon="8.985873190686107">
<ele>316.4</ele>
<time>2024-05-10T13:22:30Z</time>
</trkpt>
<trkpt lat="49.584926599636674" lon="8.985871262848377">
<ele>316.8</ele>
<time>2024-05-10T13:22:31Z</time>
</trkpt>
<trkpt lat="49.58490748889744" lon="8.985871262848377">
<ele>317</ele>
<time>2024-05-10T13:22:32Z</time>
</trkpt>
<trkpt lat="49.58488837815821" lon="8.985873190686107">
<ele>317.4</ele>
<time>2024-05-10T13:22:33Z</time>
</trkpt>
<trkpt lat="49.58486935123801" lon="8.985871262848377">
<ele>317.8</ele>
<time>2024-05-10T13:22:34Z</time>
</trkpt>
<trkpt lat="49.58485024049878" lon="8.985868413001299">
<ele>318</ele>
<time>2024-05-10T13:22:35Z</time>
</trkpt>
<trkpt lat="49.58483121357858" lon="8.985868413001299">
<ele>318.4</ele>
<time>2024-05-10T13:22:36Z</time>
</trkpt>
<trkpt lat="49.58481595851481" lon="8.985871262848377">
<ele>318.6</ele>
<time>2024-05-10T13:22:37Z</time>
</trkpt>
<trkpt lat="49.58479684777558" lon="8.985871262848377">
<ele>319</ele>
<time>2024-05-10T13:22:38Z</time>
</trkpt>
<trkpt lat="49.584781592711806" lon="8.985873190686107">
<ele>319.2</ele>
<time>2024-05-10T13:22:39Z</time>
</trkpt>
<trkpt lat="49.58476256579161" lon="8.985876962542534">
<ele>319.6</ele>
<time>2024-05-10T13:22:40Z</time>
</trkpt>
<trkpt lat="49.584743455052376" lon="8.985879896208644">
<ele>320</ele>
<time>2024-05-10T13:22:41Z</time>
</trkpt>
<trkpt lat="49.584724344313145" lon="8.98588651791215">
<ele>320.2</ele>
<time>2024-05-10T13:22:42Z</time>
</trkpt>
<trkpt lat="49.58470908924937" lon="8.985891295596957">
<ele>320.4</ele>
<time>2024-05-10T13:22:43Z</time>
</trkpt>
<trkpt lat="49.58469006232917" lon="8.985898001119494">
<ele>320.8</ele>
<time>2024-05-10T13:22:44Z</time>
</trkpt>
<trkpt lat="49.58467095158994" lon="8.985904622823">
<ele>321</ele>
<time>2024-05-10T13:22:45Z</time>
</trkpt>
<trkpt lat="49.58465192466974" lon="8.985910406336188">
<ele>321.4</ele>
<time>2024-05-10T13:22:46Z</time>
</trkpt>
<trkpt lat="49.58462904207408" lon="8.985913256183267">
<ele>321.6</ele>
<time>2024-05-10T13:22:47Z</time>
</trkpt>
<trkpt lat="49.584606159478426" lon="8.985918033868074">
<ele>322</ele>
<time>2024-05-10T13:22:48Z</time>
</trkpt>
<trkpt lat="49.58458327688277" lon="8.98592658340931">
<ele>322.2</ele>
<time>2024-05-10T13:22:49Z</time>
</trkpt>
<trkpt lat="49.58455653861165" lon="8.985931361094117">
<ele>322.6</ele>
<time>2024-05-10T13:22:50Z</time>
</trkpt>
<trkpt lat="49.58453742787242" lon="8.985938066616654">
<ele>322.8</ele>
<time>2024-05-10T13:22:51Z</time>
</trkpt>
<trkpt lat="49.58451454527676" lon="8.985938066616654">
<ele>323</ele>
<time>2024-05-10T13:22:52Z</time>
</trkpt>
<trkpt lat="49.5844916626811" lon="8.985941838473082">
<ele>323.4</ele>
<time>2024-05-10T13:22:53Z</time>
</trkpt>
<trkpt lat="49.5844726357609" lon="8.98594276048243">
<ele>323.6</ele>
<time>2024-05-10T13:22:54Z</time>
</trkpt>
<trkpt lat="49.584449753165245" lon="8.98594661615789">
<ele>324</ele>
<time>2024-05-10T13:22:55Z</time>
</trkpt>
<trkpt lat="49.584430642426014" lon="8.985951393842697">
<ele>324.2</ele>
<time>2024-05-10T13:22:56Z</time>
</trkpt>
<trkpt lat="49.584411615505815" lon="8.985956171527505">
<ele>324.4</ele>
<time>2024-05-10T13:22:57Z</time>
</trkpt>
<trkpt lat="49.58438873291016" lon="8.985959943383932">
<ele>324.6</ele>
<time>2024-05-10T13:22:58Z</time>
</trkpt>
<trkpt lat="49.584369622170925" lon="8.985963799059391">
<ele>324.8</ele>
<time>2024-05-10T13:22:59Z</time>
</trkpt>
<trkpt lat="49.58435436710715" lon="8.985961871221662">
<ele>325.2</ele>
<time>2024-05-10T13:23:00Z</time>
</trkpt>
<trkpt lat="49.584331484511495" lon="8.985961871221662">
<ele>325.4</ele>
<time>2024-05-10T13:23:01Z</time>
</trkpt>
<trkpt lat="49.58431622944772" lon="8.985961871221662">
<ele>325.8</ele>
<time>2024-05-10T13:23:02Z</time>
</trkpt>
<trkpt lat="49.584293346852064" lon="8.985959943383932">
<ele>326</ele>
<time>2024-05-10T13:23:03Z</time>
</trkpt>
<trkpt lat="49.58427423611283" lon="8.985963799059391">
<ele>326.4</ele>
<time>2024-05-10T13:23:04Z</time>
</trkpt>
<trkpt lat="49.58424758166075" lon="8.985968576744199">
<ele>326.6</ele>
<time>2024-05-10T13:23:05Z</time>
</trkpt>
<trkpt lat="49.58422847092152" lon="8.985975198447704">
<ele>327</ele>
<time>2024-05-10T13:23:06Z</time>
</trkpt>
<trkpt lat="49.5842017326504" lon="8.985978048294783">
<ele>327.4</ele>
<time>2024-05-10T13:23:07Z</time>
</trkpt>
<trkpt lat="49.58417885005474" lon="8.985977126285434">
<ele>327.6</ele>
<time>2024-05-10T13:23:08Z</time>
</trkpt>
<trkpt lat="49.58415982313454" lon="8.985975198447704">
<ele>328</ele>
<time>2024-05-10T13:23:09Z</time>
</trkpt>
<trkpt lat="49.58413694053888" lon="8.985977126285434">
<ele>328.2</ele>
<time>2024-05-10T13:23:10Z</time>
</trkpt>
<trkpt lat="49.584114057943225" lon="8.985977126285434">
<ele>328.6</ele>
<time>2024-05-10T13:23:11Z</time>
</trkpt>
<trkpt lat="49.58409117534757" lon="8.985973354429007">
<ele>329</ele>
<time>2024-05-10T13:23:12Z</time>
</trkpt>
<trkpt lat="49.58406829275191" lon="8.985969498753548">
<ele>329.4</ele>
<time>2024-05-10T13:23:13Z</time>
</trkpt>
<trkpt lat="49.58404541015625" lon="8.985968576744199">
<ele>329.6</ele>
<time>2024-05-10T13:23:14Z</time>
</trkpt>
<trkpt lat="49.58402244374156" lon="8.985961871221662">
<ele>330</ele>
<time>2024-05-10T13:23:15Z</time>
</trkpt>
<trkpt lat="49.58400341682136" lon="8.985955165699124">
<ele>330.2</ele>
<time>2024-05-10T13:23:16Z</time>
</trkpt>
<trkpt lat="49.58398430608213" lon="8.985948543995619">
<ele>330.6</ele>
<time>2024-05-10T13:23:17Z</time>
</trkpt>
<trkpt lat="49.58396527916193" lon="8.985941838473082">
<ele>330.8</ele>
<time>2024-05-10T13:23:18Z</time>
</trkpt>
<trkpt lat="49.5839461684227" lon="8.985935132950544">
<ele>331.2</ele>
<time>2024-05-10T13:23:19Z</time>
</trkpt>
<trkpt lat="49.5839271415025" lon="8.985930439084768">
<ele>331.4</ele>
<time>2024-05-10T13:23:20Z</time>
</trkpt>
<trkpt lat="49.58390803076327" lon="8.98592465557158">
<ele>331.6</ele>
<time>2024-05-10T13:23:21Z</time>
</trkpt>
<trkpt lat="49.58388514816761" lon="8.985919877886772">
<ele>331.8</ele>
<time>2024-05-10T13:23:22Z</time>
</trkpt>
<trkpt lat="49.58386603742838" lon="8.985915184020996">
<ele>332</ele>
<time>2024-05-10T13:23:23Z</time>
</trkpt>
<trkpt lat="49.58384315483272" lon="8.985908478498459">
<ele>332.4</ele>
<time>2024-05-10T13:23:24Z</time>
</trkpt>
<trkpt lat="49.58382412791252" lon="8.985898001119494">
<ele>332.6</ele>
<time>2024-05-10T13:23:25Z</time>
</trkpt>
<trkpt lat="49.58380501717329" lon="8.985890373587608">
<ele>332.8</ele>
<time>2024-05-10T13:23:26Z</time>
</trkpt>
<trkpt lat="49.58378213457763" lon="8.985881740227342">
<ele>333.2</ele>
<time>2024-05-10T13:23:27Z</time>
</trkpt>
<trkpt lat="49.583759251981974" lon="8.985875118523836">
<ele>333.4</ele>
<time>2024-05-10T13:23:28Z</time>
</trkpt>
<trkpt lat="49.583740225061774" lon="8.98586648516357">
<ele>333.6</ele>
<time>2024-05-10T13:23:29Z</time>
</trkpt>
<trkpt lat="49.58371734246611" lon="8.985859863460064">
<ele>333.8</ele>
<time>2024-05-10T13:23:30Z</time>
</trkpt>
<trkpt lat="49.583698231726885" lon="8.985851230099797">
<ele>334</ele>
<time>2024-05-10T13:23:31Z</time>
</trkpt>
<trkpt lat="49.583679120987654" lon="8.985839830711484">
<ele>334.2</ele>
<time>2024-05-10T13:23:32Z</time>
</trkpt>
<trkpt lat="49.583660094067454" lon="8.985824575647712">
<ele>334.6</ele>
<time>2024-05-10T13:23:33Z</time>
</trkpt>
<trkpt lat="49.58364098332822" lon="8.985811164602637">
<ele>334.8</ele>
<time>2024-05-10T13:23:34Z</time>
</trkpt>
<trkpt lat="49.583618100732565" lon="8.985797837376595">
<ele>334.8</ele>
<time>2024-05-10T13:23:35Z</time>
</trkpt>
<trkpt lat="49.583599073812366" lon="8.985788282006979">
<ele>335</ele>
<time>2024-05-10T13:23:36Z</time>
</trkpt>
<trkpt lat="49.583579963073134" lon="8.985778726637363">
<ele>335.2</ele>
<time>2024-05-10T13:23:37Z</time>
</trkpt>
<trkpt lat="49.583560936152935" lon="8.985766405239701">
<ele>335.4</ele>
<time>2024-05-10T13:23:38Z</time>
</trkpt>
<trkpt lat="49.583541825413704" lon="8.985754922032356">
<ele>335.4</ele>
<time>2024-05-10T13:23:39Z</time>
</trkpt>
<trkpt lat="49.58352271467447" lon="8.985746372491121">
<ele>335.4</ele>
<time>2024-05-10T13:23:40Z</time>
</trkpt>
<trkpt lat="49.58350368775427" lon="8.985739666968584">
<ele>335.6</ele>
<time>2024-05-10T13:23:41Z</time>
</trkpt>
<trkpt lat="49.5834884326905" lon="8.985732039436698">
<ele>335.6</ele>
<time>2024-05-10T13:23:42Z</time>
</trkpt>
<trkpt lat="49.58346932195127" lon="8.985721562057734">
<ele>335.8</ele>
<time>2024-05-10T13:23:43Z</time>
</trkpt>
<trkpt lat="49.58344643935561" lon="8.985710078850389">
<ele>336</ele>
<time>2024-05-10T13:23:44Z</time>
</trkpt>
<trkpt lat="49.58342741243541" lon="8.985698679462075">
<ele>336.2</ele>
<time>2024-05-10T13:23:45Z</time>
</trkpt>
<trkpt lat="49.58340830169618" lon="8.985685268417">
<ele>336.4</ele>
<time>2024-05-10T13:23:46Z</time>
</trkpt>
<trkpt lat="49.583381647244096" lon="8.985672947019339">
<ele>336.6</ele>
<time>2024-05-10T13:23:47Z</time>
</trkpt>
<trkpt lat="49.583362536504865" lon="8.985659535974264">
<ele>336.8</ele>
<time>2024-05-10T13:23:48Z</time>
</trkpt>
<trkpt lat="49.583343425765634" lon="8.985646208748221">
<ele>337</ele>
<time>2024-05-10T13:23:49Z</time>
</trkpt>
<trkpt lat="49.583320543169975" lon="8.985634725540876">
<ele>337</ele>
<time>2024-05-10T13:23:50Z</time>
</trkpt>
<trkpt lat="49.583301516249776" lon="8.985621398314834">
<ele>337.2</ele>
<time>2024-05-10T13:23:51Z</time>
</trkpt>
<trkpt lat="49.583282405510545" lon="8.98560999892652">
<ele>337.4</ele>
<time>2024-05-10T13:23:52Z</time>
</trkpt>
<trkpt lat="49.58325952291489" lon="8.985598515719175">
<ele>337.6</ele>
<time>2024-05-10T13:23:53Z</time>
</trkpt>
<trkpt lat="49.58323664031923" lon="8.985583260655403">
<ele>337.8</ele>
<time>2024-05-10T13:23:54Z</time>
</trkpt>
<trkpt lat="49.583221385255456" lon="8.985563227906823">
<ele>338</ele>
<time>2024-05-10T13:23:55Z</time>
</trkpt>
<trkpt lat="49.5831985026598" lon="8.985545122995973">
<ele>338.2</ele>
<time>2024-05-10T13:23:56Z</time>
</trkpt>
<trkpt lat="49.58317939192057" lon="8.985527940094471">
<ele>338.4</ele>
<time>2024-05-10T13:23:57Z</time>
</trkpt>
<trkpt lat="49.58315650932491" lon="8.985513607040048">
<ele>338.6</ele>
<time>2024-05-10T13:23:58Z</time>
</trkpt>
<trkpt lat="49.58313748240471" lon="8.985498351976275">
<ele>338.8</ele>
<time>2024-05-10T13:23:59Z</time>
</trkpt>
<trkpt lat="49.58311837166548" lon="8.985481252893806">
<ele>339</ele>
<time>2024-05-10T13:24:00Z</time>
</trkpt>
<trkpt lat="49.58309934474528" lon="8.985466919839382">
<ele>339.4</ele>
<time>2024-05-10T13:24:01Z</time>
</trkpt>
<trkpt lat="49.58308023400605" lon="8.985448814928532">
<ele>339.6</ele>
<time>2024-05-10T13:24:02Z</time>
</trkpt>
<trkpt lat="49.58306120708585" lon="8.9854297041893">
<ele>339.8</ele>
<time>2024-05-10T13:24:03Z</time>
</trkpt>
<trkpt lat="49.58303832449019" lon="8.98540967144072">
<ele>340</ele>
<time>2024-05-10T13:24:04Z</time>
</trkpt>
<trkpt lat="49.58302306942642" lon="8.98539156652987">
<ele>340.2</ele>
<time>2024-05-10T13:24:05Z</time>
</trkpt>
<trkpt lat="49.583003958687186" lon="8.985376311466098">
<ele>340.4</ele>
<time>2024-05-10T13:24:06Z</time>
</trkpt>
<trkpt lat="49.582984847947955" lon="8.985358206555247">
<ele>340.6</ele>
<time>2024-05-10T13:24:07Z</time>
</trkpt>
<trkpt lat="49.58296582102776" lon="8.985336245968938">
<ele>340.8</ele>
<time>2024-05-10T13:24:08Z</time>
</trkpt>
<trkpt lat="49.58295056596398" lon="8.985315291211009">
<ele>341</ele>
<time>2024-05-10T13:24:09Z</time>
</trkpt>
<trkpt lat="49.58293145522475" lon="8.985296180471778">
<ele>341.2</ele>
<time>2024-05-10T13:24:10Z</time>
</trkpt>
<trkpt lat="49.58290480077267" lon="8.985282853245735">
<ele>341.6</ele>
<time>2024-05-10T13:24:11Z</time>
</trkpt>
<trkpt lat="49.58288569003344" lon="8.985269526019692">
<ele>341.8</ele>
<time>2024-05-10T13:24:12Z</time>
</trkpt>
<trkpt lat="49.58286280743778" lon="8.985256114974618">
<ele>342</ele>
<time>2024-05-10T13:24:13Z</time>
</trkpt>
<trkpt lat="49.58283992484212" lon="8.985241865739226">
<ele>342.2</ele>
<time>2024-05-10T13:24:14Z</time>
</trkpt>
<trkpt lat="49.58282081410289" lon="8.985228538513184">
<ele>342.6</ele>
<time>2024-05-10T13:24:15Z</time>
</trkpt>
<trkpt lat="49.58279793150723" lon="8.985211355611682">
<ele>342.8</ele>
<time>2024-05-10T13:24:16Z</time>
</trkpt>
<trkpt lat="49.58277504891157" lon="8.985191322863102">
<ele>343</ele>
<time>2024-05-10T13:24:17Z</time>
</trkpt>
<trkpt lat="49.58275216631591" lon="8.985171290114522">
<ele>343.4</ele>
<time>2024-05-10T13:24:18Z</time>
</trkpt>
<trkpt lat="49.582733139395714" lon="8.985150335356593">
<ele>343.8</ele>
<time>2024-05-10T13:24:19Z</time>
</trkpt>
<trkpt lat="49.58271402865648" lon="8.985124519094825">
<ele>344.2</ele>
<time>2024-05-10T13:24:20Z</time>
</trkpt>
<trkpt lat="49.58269500173628" lon="8.985099792480469">
<ele>344.4</ele>
<time>2024-05-10T13:24:21Z</time>
</trkpt>
<trkpt lat="49.582672119140625" lon="8.985074982047081">
<ele>344.8</ele>
<time>2024-05-10T13:24:22Z</time>
</trkpt>
<trkpt lat="49.58265678025782" lon="8.985050171613693">
<ele>345</ele>
<time>2024-05-10T13:24:23Z</time>
</trkpt>
<trkpt lat="49.58263775333762" lon="8.985023433342576">
<ele>345.2</ele>
<time>2024-05-10T13:24:24Z</time>
</trkpt>
<trkpt lat="49.58261487074196" lon="8.984999628737569">
<ele>345.4</ele>
<time>2024-05-10T13:24:25Z</time>
</trkpt>
<trkpt lat="49.58259961567819" lon="8.98497674614191">
<ele>345.6</ele>
<time>2024-05-10T13:24:26Z</time>
</trkpt>
<trkpt lat="49.58258050493896" lon="8.98495671339333">
<ele>345.8</ele>
<time>2024-05-10T13:24:27Z</time>
</trkpt>
<trkpt lat="49.58256147801876" lon="8.984939530491829">
<ele>346.2</ele>
<time>2024-05-10T13:24:28Z</time>
</trkpt>
<trkpt lat="49.58254236727953" lon="8.984928131103516">
<ele>346.4</ele>
<time>2024-05-10T13:24:29Z</time>
</trkpt>
<trkpt lat="49.58251948468387" lon="8.9849185757339">
<ele>346.4</ele>
<time>2024-05-10T13:24:30Z</time>
</trkpt>
<trkpt lat="49.58249660208821" lon="8.984908098354936">
<ele>346.6</ele>
<time>2024-05-10T13:24:31Z</time>
</trkpt>
<trkpt lat="49.582473719492555" lon="8.98489661514759">
<ele>346.8</ele>
<time>2024-05-10T13:24:32Z</time>
</trkpt>
<trkpt lat="49.582450836896896" lon="8.984885215759277">
<ele>347</ele>
<time>2024-05-10T13:24:33Z</time>
</trkpt>
<trkpt lat="49.58242795430124" lon="8.984874654561281">
<ele>347.2</ele>
<time>2024-05-10T13:24:34Z</time>
</trkpt>
<trkpt lat="49.58240507170558" lon="8.984861327335238">
<ele>347.4</ele>
<time>2024-05-10T13:24:35Z</time>
</trkpt>
<trkpt lat="49.58237833343446" lon="8.984848000109196">
<ele>347.6</ele>
<time>2024-05-10T13:24:36Z</time>
</trkpt>
<trkpt lat="49.58235167898238" lon="8.98483651690185">
<ele>347.8</ele>
<time>2024-05-10T13:24:37Z</time>
</trkpt>
<trkpt lat="49.58232494071126" lon="8.984826961532235">
<ele>347.8</ele>
<time>2024-05-10T13:24:38Z</time>
</trkpt>
<trkpt lat="49.58229820244014" lon="8.984818411991">
<ele>348</ele>
<time>2024-05-10T13:24:39Z</time>
</trkpt>
<trkpt lat="49.58227154798806" lon="8.984811706468463">
<ele>348</ele>
<time>2024-05-10T13:24:40Z</time>
</trkpt>
<trkpt lat="49.58224480971694" lon="8.984803156927228">
<ele>348.2</ele>
<time>2024-05-10T13:24:41Z</time>
</trkpt>
<trkpt lat="49.582218155264854" lon="8.984794607385993">
<ele>348.4</ele>
<time>2024-05-10T13:24:42Z</time>
</trkpt>
<trkpt lat="49.58218764513731" lon="8.984787901863456">
<ele>348.6</ele>
<time>2024-05-10T13:24:43Z</time>
</trkpt>
<trkpt lat="49.582157135009766" lon="8.984783124178648">
<ele>348.6</ele>
<time>2024-05-10T13:24:44Z</time>
</trkpt>
<trkpt lat="49.58212654106319" lon="8.984785052016377">
<ele>348.8</ele>
<time>2024-05-10T13:24:45Z</time>
</trkpt>
<trkpt lat="49.582099886611104" lon="8.984783124178648">
<ele>349</ele>
<time>2024-05-10T13:24:46Z</time>
</trkpt>
<trkpt lat="49.58206937648356" lon="8.984774574637413">
<ele>349.2</ele>
<time>2024-05-10T13:24:47Z</time>
</trkpt>
<trkpt lat="49.58204263821244" lon="8.984767869114876">
<ele>349.4</ele>
<time>2024-05-10T13:24:48Z</time>
</trkpt>
<trkpt lat="49.58201598376036" lon="8.984761163592339">
<ele>349.6</ele>
<time>2024-05-10T13:24:49Z</time>
</trkpt>
<trkpt lat="49.58198924548924" lon="8.984753536060452">
<ele>349.6</ele>
<time>2024-05-10T13:24:50Z</time>
</trkpt>
<trkpt lat="49.581958735361695" lon="8.984746914356947">
<ele>349.8</ele>
<time>2024-05-10T13:24:51Z</time>
</trkpt>
<trkpt lat="49.58193199709058" lon="8.98474020883441">
<ele>350</ele>
<time>2024-05-10T13:24:52Z</time>
</trkpt>
<trkpt lat="49.581901486963034" lon="8.984733503311872">
<ele>350.2</ele>
<time>2024-05-10T13:24:53Z</time>
</trkpt>
<trkpt lat="49.58187097683549" lon="8.984727803617716">
<ele>350.4</ele>
<time>2024-05-10T13:24:54Z</time>
</trkpt>
<trkpt lat="49.581840466707945" lon="8.984723025932908">
<ele>350.6</ele>
<time>2024-05-10T13:24:55Z</time>
</trkpt>
<trkpt lat="49.5818099565804" lon="8.984716404229403">
<ele>350.8</ele>
<time>2024-05-10T13:24:56Z</time>
</trkpt>
<trkpt lat="49.5817755907774" lon="8.984711626544595">
<ele>351</ele>
<time>2024-05-10T13:24:57Z</time>
</trkpt>
<trkpt lat="49.581741308793426" lon="8.984708776697516">
<ele>351.2</ele>
<time>2024-05-10T13:24:58Z</time>
</trkpt>
<trkpt lat="49.58170694299042" lon="8.984708776697516">
<ele>351.4</ele>
<time>2024-05-10T13:24:59Z</time>
</trkpt>
<trkpt lat="49.58167266100645" lon="8.984708776697516">
<ele>351.6</ele>
<time>2024-05-10T13:25:00Z</time>
</trkpt>
<trkpt lat="49.58163829520345" lon="8.984706848859787">
<ele>351.8</ele>
<time>2024-05-10T13:25:01Z</time>
</trkpt>
<trkpt lat="49.58160392940045" lon="8.984702993184328">
<ele>352</ele>
<time>2024-05-10T13:25:02Z</time>
</trkpt>
<trkpt lat="49.58156964741647" lon="8.98469821549952">
<ele>352.2</ele>
<time>2024-05-10T13:25:03Z</time>
</trkpt>
<trkpt lat="49.58153528161347" lon="8.984693521633744">
<ele>352.4</ele>
<time>2024-05-10T13:25:04Z</time>
</trkpt>
<trkpt lat="49.5815009996295" lon="8.984686816111207">
<ele>352.6</ele>
<time>2024-05-10T13:25:05Z</time>
</trkpt>
<trkpt lat="49.581466633826494" lon="8.98468011058867">
<ele>352.6</ele>
<time>2024-05-10T13:25:06Z</time>
</trkpt>
<trkpt lat="49.58143226802349" lon="8.984673488885164">
<ele>352.8</ele>
<time>2024-05-10T13:25:07Z</time>
</trkpt>
<trkpt lat="49.58139413036406" lon="8.984668711200356">
<ele>352.8</ele>
<time>2024-05-10T13:25:08Z</time>
</trkpt>
<trkpt lat="49.58135984838009" lon="8.984666783362627">
<ele>352.8</ele>
<time>2024-05-10T13:25:09Z</time>
</trkpt>
<trkpt lat="49.58132171072066" lon="8.984664855524898">
<ele>353</ele>
<time>2024-05-10T13:25:10Z</time>
</trkpt>
<trkpt lat="49.58128348924219" lon="8.984662927687168">
<ele>353</ele>
<time>2024-05-10T13:25:11Z</time>
</trkpt>
<trkpt lat="49.581249207258224" lon="8.98466007784009">
<ele>353</ele>
<time>2024-05-10T13:25:12Z</time>
</trkpt>
<trkpt lat="49.58121484145522" lon="8.984653456136584">
<ele>353</ele>
<time>2024-05-10T13:25:13Z</time>
</trkpt>
<trkpt lat="49.58118433132768" lon="8.984644822776318">
<ele>353.2</ele>
<time>2024-05-10T13:25:14Z</time>
</trkpt>
<trkpt lat="49.581150049343705" lon="8.984636273235083">
<ele>353.2</ele>
<time>2024-05-10T13:25:15Z</time>
</trkpt>
<trkpt lat="49.58111182786524" lon="8.984628645703197">
<ele>353.4</ele>
<time>2024-05-10T13:25:16Z</time>
</trkpt>
<trkpt lat="49.58107754588127" lon="8.984624790027738">
<ele>353.6</ele>
<time>2024-05-10T13:25:17Z</time>
</trkpt>
<trkpt lat="49.58104318007827" lon="8.98462001234293">
<ele>353.8</ele>
<time>2024-05-10T13:25:18Z</time>
</trkpt>
<trkpt lat="49.5810088980943" lon="8.984613390639424">
<ele>353.8</ele>
<time>2024-05-10T13:25:19Z</time>
</trkpt>
<trkpt lat="49.58097838796675" lon="8.984609534963965">
<ele>354</ele>
<time>2024-05-10T13:25:20Z</time>
</trkpt>
<trkpt lat="49.580947794020176" lon="8.984608612954617">
<ele>354.2</ele>
<time>2024-05-10T13:25:21Z</time>
</trkpt>
<trkpt lat="49.58091728389263" lon="8.98460291326046">
<ele>354.2</ele>
<time>2024-05-10T13:25:22Z</time>
</trkpt>
<trkpt lat="49.58088677376509" lon="8.984600063413382">
<ele>354.4</ele>
<time>2024-05-10T13:25:23Z</time>
</trkpt>
<trkpt lat="49.58085626363754" lon="8.984598135575652">
<ele>354.4</ele>
<time>2024-05-10T13:25:24Z</time>
</trkpt>
<trkpt lat="49.58082198165357" lon="8.984596207737923">
<ele>354.4</ele>
<time>2024-05-10T13:25:25Z</time>
</trkpt>
<trkpt lat="49.58079147152603" lon="8.984596207737923">
<ele>354.4</ele>
<time>2024-05-10T13:25:26Z</time>
</trkpt>
<trkpt lat="49.58075710572302" lon="8.984593357890844">
<ele>354.4</ele>
<time>2024-05-10T13:25:27Z</time>
</trkpt>
<trkpt lat="49.58072273992002" lon="8.984589502215385">
<ele>354.6</ele>
<time>2024-05-10T13:25:28Z</time>
</trkpt>
<trkpt lat="49.58068845793605" lon="8.98458480834961">
<ele>354.6</ele>
<time>2024-05-10T13:25:29Z</time>
</trkpt>
<trkpt lat="49.580654092133045" lon="8.984576174989343">
<ele>354.6</ele>
<time>2024-05-10T13:25:30Z</time>
</trkpt>
<trkpt lat="49.580619810149074" lon="8.984569469466805">
<ele>354.8</ele>
<time>2024-05-10T13:25:31Z</time>
</trkpt>
<trkpt lat="49.5805892162025" lon="8.984563769772649">
<ele>354.8</ele>
<time>2024-05-10T13:25:32Z</time>
</trkpt>
<trkpt lat="49.580554934218526" lon="8.984556142240763">
<ele>355</ele>
<time>2024-05-10T13:25:33Z</time>
</trkpt>
<trkpt lat="49.58052056841552" lon="8.984550442546606">
<ele>355.2</ele>
<time>2024-05-10T13:25:34Z</time>
</trkpt>
<trkpt lat="49.58049005828798" lon="8.984539965167642">
<ele>355.2</ele>
<time>2024-05-10T13:25:35Z</time>
</trkpt>
<trkpt lat="49.580459548160434" lon="8.984531331807375">
<ele>355.4</ele>
<time>2024-05-10T13:25:36Z</time>
</trkpt>
<trkpt lat="49.58042518235743" lon="8.984523704275489">
<ele>355.4</ele>
<time>2024-05-10T13:25:37Z</time>
</trkpt>
<trkpt lat="49.580398527905345" lon="8.984517082571983">
<ele>355.6</ele>
<time>2024-05-10T13:25:38Z</time>
</trkpt>
<trkpt lat="49.5803680177778" lon="8.984510377049446">
<ele>355.8</ele>
<time>2024-05-10T13:25:39Z</time>
</trkpt>
<trkpt lat="49.58034127950668" lon="8.984503671526909">
<ele>356</ele>
<time>2024-05-10T13:25:40Z</time>
</trkpt>
<trkpt lat="49.58030699752271" lon="8.984497971832752">
<ele>356.4</ele>
<time>2024-05-10T13:25:41Z</time>
</trkpt>
<trkpt lat="49.58027648739517" lon="8.984491266310215">
<ele>356.6</ele>
<time>2024-05-10T13:25:42Z</time>
</trkpt>
<trkpt lat="49.58024974912405" lon="8.984483638778329">
<ele>356.8</ele>
<time>2024-05-10T13:25:43Z</time>
</trkpt>
<trkpt lat="49.58021538332105" lon="8.984473161399364">
<ele>357.2</ele>
<time>2024-05-10T13:25:44Z</time>
</trkpt>
<trkpt lat="49.5801848731935" lon="8.984466539695859">
<ele>357.4</ele>
<time>2024-05-10T13:25:45Z</time>
</trkpt>
<trkpt lat="49.58015059120953" lon="8.984459834173322">
<ele>357.8</ele>
<time>2024-05-10T13:25:46Z</time>
</trkpt>
<trkpt lat="49.580120081081986" lon="8.984451284632087">
<ele>358</ele>
<time>2024-05-10T13:25:47Z</time>
</trkpt>
<trkpt lat="49.58008948713541" lon="8.98444457910955">
<ele>358</ele>
<time>2024-05-10T13:25:48Z</time>
</trkpt>
<trkpt lat="49.580062832683325" lon="8.984437873587012">
<ele>358.2</ele>
<time>2024-05-10T13:25:49Z</time>
</trkpt>
<trkpt lat="49.58003609441221" lon="8.984428402036428">
<ele>358.6</ele>
<time>2024-05-10T13:25:50Z</time>
</trkpt>
<trkpt lat="49.58000558428466" lon="8.984421696513891">
<ele>358.6</ele>
<time>2024-05-10T13:25:51Z</time>
</trkpt>
<trkpt lat="49.57997507415712" lon="8.984417840838432">
<ele>358.8</ele>
<time>2024-05-10T13:25:52Z</time>
</trkpt>
<trkpt lat="49.57994841970503" lon="8.984411219134927">
<ele>359</ele>
<time>2024-05-10T13:25:53Z</time>
</trkpt>
<trkpt lat="49.57991782575846" lon="8.98440359160304">
<ele>359</ele>
<time>2024-05-10T13:25:54Z</time>
</trkpt>
<trkpt lat="49.579883543774486" lon="8.984393114224076">
<ele>359</ele>
<time>2024-05-10T13:25:55Z</time>
</trkpt>
<trkpt lat="49.57985680550337" lon="8.98438448086381">
<ele>359.2</ele>
<time>2024-05-10T13:25:56Z</time>
</trkpt>
<trkpt lat="49.579826295375824" lon="8.984378781169653">
<ele>359.2</ele>
<time>2024-05-10T13:25:57Z</time>
</trkpt>
<trkpt lat="49.57979201339185" lon="8.984371153637767">
<ele>359.4</ele>
<time>2024-05-10T13:25:58Z</time>
</trkpt>
<trkpt lat="49.57976150326431" lon="8.98436352610588">
<ele>359.4</ele>
<time>2024-05-10T13:25:59Z</time>
</trkpt>
<trkpt lat="49.57973090931773" lon="8.984356820583344">
<ele>359.6</ele>
<time>2024-05-10T13:26:00Z</time>
</trkpt>
<trkpt lat="49.57970039919019" lon="8.984353048726916">
<ele>359.6</ele>
<time>2024-05-10T13:26:01Z</time>
</trkpt>
<trkpt lat="49.57966988906264" lon="8.984348271042109">
<ele>359.6</ele>
<time>2024-05-10T13:26:02Z</time>
</trkpt>
<trkpt lat="49.57964323461056" lon="8.9843434933573">
<ele>359.8</ele>
<time>2024-05-10T13:26:03Z</time>
</trkpt>
<trkpt lat="49.57961649633944" lon="8.984339637681842">
<ele>359.8</ele>
<time>2024-05-10T13:26:04Z</time>
</trkpt>
<trkpt lat="49.579589841887355" lon="8.984334943816066">
<ele>359.8</ele>
<time>2024-05-10T13:26:05Z</time>
</trkpt>
<trkpt lat="49.57956310361624" lon="8.984326310455799">
<ele>360</ele>
<time>2024-05-10T13:26:06Z</time>
</trkpt>
<trkpt lat="49.57953636534512" lon="8.984318682923913">
<ele>360</ele>
<time>2024-05-10T13:26:07Z</time>
</trkpt>
<trkpt lat="49.57951348274946" lon="8.98430627770722">
<ele>360.2</ele>
<time>2024-05-10T13:26:08Z</time>
</trkpt>
<trkpt lat="49.57948682829738" lon="8.984298650175333">
<ele>360.4</ele>
<time>2024-05-10T13:26:09Z</time>
</trkpt>
<trkpt lat="49.57946009002626" lon="8.984290100634098">
<ele>360.4</ele>
<time>2024-05-10T13:26:10Z</time>
</trkpt>
<trkpt lat="49.5794372074306" lon="8.98428339511156">
<ele>360.6</ele>
<time>2024-05-10T13:26:11Z</time>
</trkpt>
<trkpt lat="49.57941055297851" lon="8.984276689589024">
<ele>360.8</ele>
<time>2024-05-10T13:26:12Z</time>
</trkpt>
<trkpt lat="49.5793838147074" lon="8.984272917732596">
<ele>361</ele>
<time>2024-05-10T13:26:13Z</time>
</trkpt>
<trkpt lat="49.57935707643628" lon="8.984268140047789">
<ele>361.2</ele>
<time>2024-05-10T13:26:14Z</time>
</trkpt>
<trkpt lat="49.57933419384062" lon="8.98426336236298">
<ele>361.4</ele>
<time>2024-05-10T13:26:15Z</time>
</trkpt>
<trkpt lat="49.57930753938854" lon="8.984252884984016">
<ele>361.4</ele>
<time>2024-05-10T13:26:16Z</time>
</trkpt>
<trkpt lat="49.57928465679288" lon="8.98424617946148">
<ele>361.6</ele>
<time>2024-05-10T13:26:17Z</time>
</trkpt>
<trkpt lat="49.57925791852176" lon="8.984239557757974">
<ele>361.8</ele>
<time>2024-05-10T13:26:18Z</time>
</trkpt>
<trkpt lat="49.579231180250645" lon="8.984232852235436">
<ele>362</ele>
<time>2024-05-10T13:26:19Z</time>
</trkpt>
<trkpt lat="49.57920452579856" lon="8.984228074550629">
<ele>362</ele>
<time>2024-05-10T13:26:20Z</time>
</trkpt>
<trkpt lat="49.57917778752744" lon="8.984221452847123">
<ele>362.2</ele>
<time>2024-05-10T13:26:21Z</time>
</trkpt>
<trkpt lat="49.579154904931784" lon="8.984214747324586">
<ele>362.4</ele>
<time>2024-05-10T13:26:22Z</time>
</trkpt>
<trkpt lat="49.5791282504797" lon="8.984211897477508">
<ele>362.4</ele>
<time>2024-05-10T13:26:23Z</time>
</trkpt>
<trkpt lat="49.57910151220858" lon="8.9842071197927">
<ele>362.6</ele>
<time>2024-05-10T13:26:24Z</time>
</trkpt>
<trkpt lat="49.57907862961292" lon="8.984201420098543">
<ele>362.8</ele>
<time>2024-05-10T13:26:25Z</time>
</trkpt>
<trkpt lat="49.57904811948538" lon="8.984196642413735">
<ele>362.8</ele>
<time>2024-05-10T13:26:26Z</time>
</trkpt>
<trkpt lat="49.57902138121426" lon="8.984191864728928">
<ele>363</ele>
<time>2024-05-10T13:26:27Z</time>
</trkpt>
<trkpt lat="49.578994726762176" lon="8.984186165034771">
<ele>363.2</ele>
<time>2024-05-10T13:26:28Z</time>
</trkpt>
<trkpt lat="49.57896798849106" lon="8.984183231368661">
<ele>363.4</ele>
<time>2024-05-10T13:26:29Z</time>
</trkpt>
<trkpt lat="49.578937478363514" lon="8.984180381521583">
<ele>363.6</ele>
<time>2024-05-10T13:26:30Z</time>
</trkpt>
<trkpt lat="49.57891082391143" lon="8.984174681827426">
<ele>363.6</ele>
<time>2024-05-10T13:26:31Z</time>
</trkpt>
<trkpt lat="49.578876458108425" lon="8.984169904142618">
<ele>363.8</ele>
<time>2024-05-10T13:26:32Z</time>
</trkpt>
<trkpt lat="49.57884971983731" lon="8.98416512645781">
<ele>364</ele>
<time>2024-05-10T13:26:33Z</time>
</trkpt>
<trkpt lat="49.57881920970976" lon="8.984163282439113">
<ele>364.4</ele>
<time>2024-05-10T13:26:34Z</time>
</trkpt>
<trkpt lat="49.57878492772579" lon="8.984160348773003">
<ele>364.6</ele>
<time>2024-05-10T13:26:35Z</time>
</trkpt>
<trkpt lat="49.57875441759825" lon="8.984156576916575">
<ele>364.6</ele>
<time>2024-05-10T13:26:36Z</time>
</trkpt>
<trkpt lat="49.5787239074707" lon="8.984154649078846">
<ele>364.8</ele>
<time>2024-05-10T13:26:37Z</time>
</trkpt>
<trkpt lat="49.57869331352413" lon="8.984149871394038">
<ele>364.8</ele>
<time>2024-05-10T13:26:38Z</time>
</trkpt>
<trkpt lat="49.57866280339658" lon="8.984147943556309">
<ele>365</ele>
<time>2024-05-10T13:26:39Z</time>
</trkpt>
<trkpt lat="49.57863229326904" lon="8.984147943556309">
<ele>365</ele>
<time>2024-05-10T13:26:40Z</time>
</trkpt>
<trkpt lat="49.578601783141494" lon="8.984149871394038">
<ele>365.2</ele>
<time>2024-05-10T13:26:41Z</time>
</trkpt>
<trkpt lat="49.57856750115752" lon="8.984149871394038">
<ele>365.2</ele>
<time>2024-05-10T13:26:42Z</time>
</trkpt>
<trkpt lat="49.57853313535452" lon="8.984149871394038">
<ele>365.2</ele>
<time>2024-05-10T13:26:43Z</time>
</trkpt>
<trkpt lat="49.57849876955152" lon="8.984147943556309">
<ele>365.2</ele>
<time>2024-05-10T13:26:44Z</time>
</trkpt>
<trkpt lat="49.57846825942397" lon="8.98414509370923">
<ele>365</ele>
<time>2024-05-10T13:26:45Z</time>
</trkpt>
<trkpt lat="49.57844537682831" lon="8.984141321852803">
<ele>365</ele>
<time>2024-05-10T13:26:46Z</time>
</trkpt>
<trkpt lat="49.578422494232655" lon="8.98414509370923">
<ele>365</ele>
<time>2024-05-10T13:26:47Z</time>
</trkpt>
<trkpt lat="49.578403467312455" lon="8.98414509370923">
<ele>364.8</ele>
<time>2024-05-10T13:26:48Z</time>
</trkpt>
<trkpt lat="49.5783805847168" lon="8.98414509370923">
<ele>364.8</ele>
<time>2024-05-10T13:26:49Z</time>
</trkpt>
<trkpt lat="49.578361473977566" lon="8.984143249690533">
<ele>364.8</ele>
<time>2024-05-10T13:26:50Z</time>
</trkpt>
<trkpt lat="49.578346218913794" lon="8.984143249690533">
<ele>364.8</ele>
<time>2024-05-10T13:26:51Z</time>
</trkpt>
<trkpt lat="49.57832710817456" lon="8.98414702154696">
<ele>364.8</ele>
<time>2024-05-10T13:26:52Z</time>
</trkpt>
<trkpt lat="49.57830808125436" lon="8.984147943556309">
<ele>365</ele>
<time>2024-05-10T13:26:53Z</time>
</trkpt>
<trkpt lat="49.578285198658705" lon="8.984149871394038">
<ele>365</ele>
<time>2024-05-10T13:26:54Z</time>
</trkpt>
<trkpt lat="49.57826231606305" lon="8.984147943556309">
<ele>365</ele>
<time>2024-05-10T13:26:55Z</time>
</trkpt>
<trkpt lat="49.578243205323815" lon="8.984143249690533">
<ele>365.2</ele>
<time>2024-05-10T13:26:56Z</time>
</trkpt>
<trkpt lat="49.57821655087173" lon="8.984141321852803">
<ele>365.2</ele>
<time>2024-05-10T13:26:57Z</time>
</trkpt>
<trkpt lat="49.57818981260061" lon="8.98414509370923">
<ele>365.2</ele>
<time>2024-05-10T13:26:58Z</time>
</trkpt>
<trkpt lat="49.578163074329495" lon="8.98414509370923">
<ele>365.2</ele>
<time>2024-05-10T13:26:59Z</time>
</trkpt>
<trkpt lat="49.57813256420195" lon="8.98414509370923">
<ele>365.2</ele>
<time>2024-05-10T13:27:00Z</time>
</trkpt>
<trkpt lat="49.578105909749866" lon="8.984143249690533">
<ele>365.2</ele>
<time>2024-05-10T13:27:01Z</time>
</trkpt>
<trkpt lat="49.57807539962232" lon="8.984143249690533">
<ele>365.2</ele>
<time>2024-05-10T13:27:02Z</time>
</trkpt>
<trkpt lat="49.57804488949478" lon="8.984143249690533">
<ele>365.2</ele>
<time>2024-05-10T13:27:03Z</time>
</trkpt>
<trkpt lat="49.5780142955482" lon="8.984143249690533">
<ele>365.2</ele>
<time>2024-05-10T13:27:04Z</time>
</trkpt>
<trkpt lat="49.57798001356423" lon="8.984143249690533">
<ele>365.4</ele>
<time>2024-05-10T13:27:05Z</time>
</trkpt>
<trkpt lat="49.577949503436685" lon="8.984143249690533">
<ele>365.6</ele>
<time>2024-05-10T13:27:06Z</time>
</trkpt>
<trkpt lat="49.57791513763368" lon="8.984147943556309">
<ele>365.6</ele>
<time>2024-05-10T13:27:07Z</time>
</trkpt>
<trkpt lat="49.57788462750614" lon="8.984151799231768">
<ele>365.8</ele>
<time>2024-05-10T13:27:08Z</time>
</trkpt>
<trkpt lat="49.577850261703134" lon="8.984154649078846">
<ele>366</ele>
<time>2024-05-10T13:27:09Z</time>
</trkpt>
<trkpt lat="49.57781975157559" lon="8.984153727069497">
<ele>366</ele>
<time>2024-05-10T13:27:10Z</time>
</trkpt>
<trkpt lat="49.577793097123504" lon="8.984158504754305">
<ele>366.2</ele>
<time>2024-05-10T13:27:11Z</time>
</trkpt>
<trkpt lat="49.57776635885239" lon="8.98416705429554">
<ele>366.4</ele>
<time>2024-05-10T13:27:12Z</time>
</trkpt>
<trkpt lat="49.57773584872484" lon="8.984176609665155">
<ele>366.6</ele>
<time>2024-05-10T13:27:13Z</time>
</trkpt>
<trkpt lat="49.5777053385973" lon="8.984188009053469">
<ele>366.8</ele>
<time>2024-05-10T13:27:14Z</time>
</trkpt>
<trkpt lat="49.57767860032618" lon="8.9842071197927">
<ele>367</ele>
<time>2024-05-10T13:27:15Z</time>
</trkpt>
<trkpt lat="49.57764809019864" lon="8.98422522470355">
<ele>367</ele>
<time>2024-05-10T13:27:16Z</time>
</trkpt>
<trkpt lat="49.57762143574655" lon="8.9842433296144">
<ele>367.2</ele>
<time>2024-05-10T13:27:17Z</time>
</trkpt>
<trkpt lat="49.57759855315089" lon="8.984261434525251">
<ele>367.4</ele>
<time>2024-05-10T13:27:18Z</time>
</trkpt>
<trkpt lat="49.577571814879775" lon="8.984279623255134">
<ele>367.6</ele>
<time>2024-05-10T13:27:19Z</time>
</trkpt>
<trkpt lat="49.57754516042769" lon="8.984292950481176">
<ele>367.8</ele>
<time>2024-05-10T13:27:20Z</time>
</trkpt>
<trkpt lat="49.57751456648111" lon="8.98430342786014">
<ele>368</ele>
<time>2024-05-10T13:27:21Z</time>
</trkpt>
<trkpt lat="49.57748791202903" lon="8.984314911067486">
<ele>368</ele>
<time>2024-05-10T13:27:22Z</time>
</trkpt>
<trkpt lat="49.57746117375791" lon="8.984332010149956">
<ele>368.2</ele>
<time>2024-05-10T13:27:23Z</time>
</trkpt>
<trkpt lat="49.577430663630366" lon="8.984350198879838">
<ele>368.4</ele>
<time>2024-05-10T13:27:24Z</time>
</trkpt>
<trkpt lat="49.57740400917828" lon="8.984368303790689">
<ele>368.4</ele>
<time>2024-05-10T13:27:25Z</time>
</trkpt>
<trkpt lat="49.57737727090717" lon="8.984381631016731">
<ele>368.6</ele>
<time>2024-05-10T13:27:26Z</time>
</trkpt>
<trkpt lat="49.57735824398696" lon="8.984393114224076">
<ele>368.8</ele>
<time>2024-05-10T13:27:27Z</time>
</trkpt>
<trkpt lat="49.57733150571585" lon="8.98440451361239">
<ele>369</ele>
<time>2024-05-10T13:27:28Z</time>
</trkpt>
<trkpt lat="49.57730476744473" lon="8.984416918829083">
<ele>369</ele>
<time>2024-05-10T13:27:29Z</time>
</trkpt>
<trkpt lat="49.577274257317185" lon="8.98442454636097">
<ele>369.2</ele>
<time>2024-05-10T13:27:30Z</time>
</trkpt>
<trkpt lat="49.57724374718964" lon="8.984431251883507">
<ele>369.4</ele>
<time>2024-05-10T13:27:31Z</time>
</trkpt>
<trkpt lat="49.5772132370621" lon="8.984439801424742">
<ele>369.6</ele>
<time>2024-05-10T13:27:32Z</time>
</trkpt>
<trkpt lat="49.57718658261001" lon="8.98444457910955">
<ele>369.8</ele>
<time>2024-05-10T13:27:33Z</time>
</trkpt>
<trkpt lat="49.577155988663435" lon="8.984450278803706">
<ele>369.8</ele>
<time>2024-05-10T13:27:34Z</time>
</trkpt>
<trkpt lat="49.57712547853589" lon="8.984455056488514">
<ele>369.8</ele>
<time>2024-05-10T13:27:35Z</time>
</trkpt>
<trkpt lat="49.577098824083805" lon="8.984459834173322">
<ele>369.8</ele>
<time>2024-05-10T13:27:36Z</time>
</trkpt>
<trkpt lat="49.57706831395626" lon="8.984466539695859">
<ele>370</ele>
<time>2024-05-10T13:27:37Z</time>
</trkpt>
<trkpt lat="49.57704157568514" lon="8.984475089237094">
<ele>370</ele>
<time>2024-05-10T13:27:38Z</time>
</trkpt>
<trkpt lat="49.57700729370117" lon="8.98448464460671">
<ele>370</ele>
<time>2024-05-10T13:27:39Z</time>
</trkpt>
<trkpt lat="49.57697292789817" lon="8.984490344300866">
<ele>370.2</ele>
<time>2024-05-10T13:27:40Z</time>
</trkpt>
<trkpt lat="49.57693479023874" lon="8.984497049823403">
<ele>370.2</ele>
<time>2024-05-10T13:27:41Z</time>
</trkpt>
<trkpt lat="49.57689279690385" lon="8.984503671526909">
<ele>370.2</ele>
<time>2024-05-10T13:27:42Z</time>
</trkpt>
<trkpt lat="49.57685465924442" lon="8.984511299058795">
<ele>370.2</ele>
<time>2024-05-10T13:27:43Z</time>
</trkpt>
<trkpt lat="49.5768088940531" lon="8.984519932419062">
<ele>370.2</ele>
<time>2024-05-10T13:27:44Z</time>
</trkpt>
<trkpt lat="49.57676690071821" lon="8.984526554122567">
<ele>370.2</ele>
<time>2024-05-10T13:27:45Z</time>
</trkpt>
<trkpt lat="49.576724991202354" lon="8.984528481960297">
<ele>370</ele>
<time>2024-05-10T13:27:46Z</time>
</trkpt>
<trkpt lat="49.57668685354293" lon="8.984529487788677">
<ele>370</ele>
<time>2024-05-10T13:27:47Z</time>
</trkpt>
<trkpt lat="49.576644860208035" lon="8.984531331807375">
<ele>369.8</ele>
<time>2024-05-10T13:27:48Z</time>
</trkpt>
<trkpt lat="49.57660672254861" lon="8.984531331807375">
<ele>369.8</ele>
<time>2024-05-10T13:27:49Z</time>
</trkpt>
<trkpt lat="49.57656858488917" lon="8.984533259645104">
<ele>369.6</ele>
<time>2024-05-10T13:27:50Z</time>
</trkpt>
<trkpt lat="49.57653421908617" lon="8.984537115320563">
<ele>369.8</ele>
<time>2024-05-10T13:27:51Z</time>
</trkpt>
<trkpt lat="49.5764999371022" lon="8.984541893005371">
<ele>369.8</ele>
<time>2024-05-10T13:27:52Z</time>
</trkpt>
<trkpt lat="49.576461715623736" lon="8.984548514708877">
<ele>369.8</ele>
<time>2024-05-10T13:27:53Z</time>
</trkpt>
<trkpt lat="49.576427433639765" lon="8.984559997916222">
<ele>369.6</ele>
<time>2024-05-10T13:27:54Z</time>
</trkpt>
<trkpt lat="49.57639306783676" lon="8.984573325142264">
<ele>369.4</ele>
<time>2024-05-10T13:27:55Z</time>
</trkpt>
<trkpt lat="49.57635493017733" lon="8.984588580206037">
<ele>369.4</ele>
<time>2024-05-10T13:27:56Z</time>
</trkpt>
<trkpt lat="49.57632064819336" lon="8.984604757279158">
<ele>369.4</ele>
<time>2024-05-10T13:27:57Z</time>
</trkpt>
<trkpt lat="49.57628628239035" lon="8.98462194018066">
<ele>369.2</ele>
<time>2024-05-10T13:27:58Z</time>
</trkpt>
<trkpt lat="49.57625191658735" lon="8.984638201072812">
<ele>369.2</ele>
<time>2024-05-10T13:27:59Z</time>
</trkpt>
<trkpt lat="49.57622140645981" lon="8.984655300155282">
<ele>369</ele>
<time>2024-05-10T13:28:00Z</time>
</trkpt>
<trkpt lat="49.576190896332264" lon="8.984669633209705">
<ele>369</ele>
<time>2024-05-10T13:28:01Z</time>
</trkpt>
<trkpt lat="49.57616038620472" lon="8.984686816111207">
<ele>368.8</ele>
<time>2024-05-10T13:28:02Z</time>
</trkpt>
<trkpt lat="49.57612602040171" lon="8.984704921022058">
<ele>369</ele>
<time>2024-05-10T13:28:03Z</time>
</trkpt>
<trkpt lat="49.576091738417745" lon="8.984724953770638">
<ele>369.2</ele>
<time>2024-05-10T13:28:04Z</time>
</trkpt>
<trkpt lat="49.57605737261474" lon="8.984744986519217">
<ele>369.2</ele>
<time>2024-05-10T13:28:05Z</time>
</trkpt>
<trkpt lat="49.57602309063077" lon="8.98476024158299">
<ele>369.4</ele>
<time>2024-05-10T13:28:06Z</time>
</trkpt>
<trkpt lat="49.575992580503225" lon="8.98477834649384">
<ele>369.4</ele>
<time>2024-05-10T13:28:07Z</time>
</trkpt>
<trkpt lat="49.57595821470022" lon="8.98479645140469">
<ele>369.6</ele>
<time>2024-05-10T13:28:08Z</time>
</trkpt>
<trkpt lat="49.575931476429105" lon="8.984813634306192">
<ele>369.8</ele>
<time>2024-05-10T13:28:09Z</time>
</trkpt>
<trkpt lat="49.57589719444513" lon="8.984829895198345">
<ele>369.8</ele>
<time>2024-05-10T13:28:10Z</time>
</trkpt>
<trkpt lat="49.57586668431759" lon="8.984846994280815">
<ele>369.8</ele>
<time>2024-05-10T13:28:11Z</time>
</trkpt>
<trkpt lat="49.57582854665816" lon="8.984865183010697">
<ele>369.8</ele>
<time>2024-05-10T13:28:12Z</time>
</trkpt>
<trkpt lat="49.575794180855155" lon="8.984881360083818">
<ele>369.8</ele>
<time>2024-05-10T13:28:13Z</time>
</trkpt>
<trkpt lat="49.57575981505215" lon="8.984899464994669">
<ele>370</ele>
<time>2024-05-10T13:28:14Z</time>
</trkpt>
<trkpt lat="49.57572553306818" lon="8.984921425580978">
<ele>370.2</ele>
<time>2024-05-10T13:28:15Z</time>
</trkpt>
<trkpt lat="49.57569502294064" lon="8.984941458329558">
<ele>370.4</ele>
<time>2024-05-10T13:28:16Z</time>
</trkpt>
<trkpt lat="49.57566065713763" lon="8.98495864123106">
<ele>370.4</ele>
<time>2024-05-10T13:28:17Z</time>
</trkpt>
<trkpt lat="49.57563014701009" lon="8.984972890466452">
<ele>370.6</ele>
<time>2024-05-10T13:28:18Z</time>
</trkpt>
<trkpt lat="49.575599636882544" lon="8.984986301511526">
<ele>370.6</ele>
<time>2024-05-10T13:28:19Z</time>
</trkpt>
<trkpt lat="49.575569126755" lon="8.985001556575298">
<ele>370.8</ele>
<time>2024-05-10T13:28:20Z</time>
</trkpt>
<trkpt lat="49.57554238848388" lon="8.985014883801341">
<ele>370.8</ele>
<time>2024-05-10T13:28:21Z</time>
</trkpt>
<trkpt lat="49.5755157340318" lon="8.985030138865113">
<ele>371</ele>
<time>2024-05-10T13:28:22Z</time>
</trkpt>
<trkpt lat="49.57549285143614" lon="8.985045393928885">
<ele>371.2</ele>
<time>2024-05-10T13:28:23Z</time>
</trkpt>
<trkpt lat="49.57546996884048" lon="8.985063498839736">
<ele>371.2</ele>
<time>2024-05-10T13:28:24Z</time>
</trkpt>
<trkpt lat="49.57545085810125" lon="8.985079759731889">
<ele>371.2</ele>
<time>2024-05-10T13:28:25Z</time>
</trkpt>
<trkpt lat="49.57542411983013" lon="8.985096858814359">
<ele>371.2</ele>
<time>2024-05-10T13:28:26Z</time>
</trkpt>
<trkpt lat="49.575397465378046" lon="8.985111191868782">
<ele>371.2</ele>
<time>2024-05-10T13:28:27Z</time>
</trkpt>
<trkpt lat="49.57537072710693" lon="8.985128374770284">
<ele>371.2</ele>
<time>2024-05-10T13:28:28Z</time>
</trkpt>
<trkpt lat="49.575340216979384" lon="8.985146479681134">
<ele>371.4</ele>
<time>2024-05-10T13:28:29Z</time>
</trkpt>
<trkpt lat="49.57530970685184" lon="8.985164584591985">
<ele>371.4</ele>
<time>2024-05-10T13:28:30Z</time>
</trkpt>
<trkpt lat="49.57528682425618" lon="8.985181767493486">
<ele>371.4</ele>
<time>2024-05-10T13:28:31Z</time>
</trkpt>
<trkpt lat="49.575260085985065" lon="8.98519509471953">
<ele>371.6</ele>
<time>2024-05-10T13:28:32Z</time>
</trkpt>
<trkpt lat="49.57523343153298" lon="8.985211355611682">
<ele>371.6</ele>
<time>2024-05-10T13:28:33Z</time>
</trkpt>
<trkpt lat="49.57521054893732" lon="8.985226610675454">
<ele>371.6</ele>
<time>2024-05-10T13:28:34Z</time>
</trkpt>
<trkpt lat="49.57518766634166" lon="8.985241865739226">
<ele>371.8</ele>
<time>2024-05-10T13:28:35Z</time>
</trkpt>
<trkpt lat="49.575164783746" lon="8.985256114974618">
<ele>371.8</ele>
<time>2024-05-10T13:28:36Z</time>
</trkpt>
<trkpt lat="49.575141901150346" lon="8.98527329787612">
<ele>372</ele>
<time>2024-05-10T13:28:37Z</time>
</trkpt>
<trkpt lat="49.57511901855469" lon="8.985289558768272">
<ele>372.2</ele>
<time>2024-05-10T13:28:38Z</time>
</trkpt>
<trkpt lat="49.57509605214" lon="8.985308585688472">
<ele>372.4</ele>
<time>2024-05-10T13:28:39Z</time>
</trkpt>
<trkpt lat="49.57506939768791" lon="8.985322918742895">
<ele>372.6</ele>
<time>2024-05-10T13:28:40Z</time>
</trkpt>
<trkpt lat="49.575046515092254" lon="8.985338173806667">
<ele>372.8</ele>
<time>2024-05-10T13:28:41Z</time>
</trkpt>
<trkpt lat="49.575023632496595" lon="8.98535150103271">
<ele>373.2</ele>
<time>2024-05-10T13:28:42Z</time>
</trkpt>
<trkpt lat="49.57500074990094" lon="8.985364912077785">
<ele>373.4</ele>
<time>2024-05-10T13:28:43Z</time>
</trkpt>
<trkpt lat="49.57497786730528" lon="8.985380167141557">
<ele>373.8</ele>
<time>2024-05-10T13:28:44Z</time>
</trkpt>
<trkpt lat="49.57495112903416" lon="8.9853934943676">
<ele>374.2</ele>
<time>2024-05-10T13:28:45Z</time>
</trkpt>
<trkpt lat="49.5749282464385" lon="8.98540967144072">
<ele>374.4</ele>
<time>2024-05-10T13:28:46Z</time>
</trkpt>
<trkpt lat="49.574901508167386" lon="8.985427776351571">
<ele>374.4</ele>
<time>2024-05-10T13:28:47Z</time>
</trkpt>
<trkpt lat="49.57487862557173" lon="8.985443115234375">
<ele>374.6</ele>
<time>2024-05-10T13:28:48Z</time>
</trkpt>
<trkpt lat="49.57485574297607" lon="8.985458370298147">
<ele>374.8</ele>
<time>2024-05-10T13:28:49Z</time>
</trkpt>
<trkpt lat="49.57483286038041" lon="8.98547169752419">
<ele>374.8</ele>
<time>2024-05-10T13:28:50Z</time>
</trkpt>
<trkpt lat="49.574806205928326" lon="8.985485024750233">
<ele>375</ele>
<time>2024-05-10T13:28:51Z</time>
</trkpt>
<trkpt lat="49.57478332333267" lon="8.985496507957578">
<ele>375.2</ele>
<time>2024-05-10T13:28:52Z</time>
</trkpt>
<trkpt lat="49.57476035691798" lon="8.985507907345891">
<ele>375.4</ele>
<time>2024-05-10T13:28:53Z</time>
</trkpt>
<trkpt lat="49.57473747432232" lon="8.985520312562585">
<ele>375.6</ele>
<time>2024-05-10T13:28:54Z</time>
</trkpt>
<trkpt lat="49.57471459172666" lon="8.985533639788628">
<ele>375.8</ele>
<time>2024-05-10T13:28:55Z</time>
</trkpt>
<trkpt lat="49.57469556480646" lon="8.985547972843051">
<ele>376</ele>
<time>2024-05-10T13:28:56Z</time>
</trkpt>
<trkpt lat="49.57467645406723" lon="8.985563227906823">
<ele>376.2</ele>
<time>2024-05-10T13:28:57Z</time>
</trkpt>
<trkpt lat="49.57465357147157" lon="8.985578482970595">
<ele>376.4</ele>
<time>2024-05-10T13:28:58Z</time>
</trkpt>
<trkpt lat="49.574630688875914" lon="8.985591810196638">
<ele>376.6</ele>
<time>2024-05-10T13:28:59Z</time>
</trkpt>
<trkpt lat="49.57460403442383" lon="8.985605221241713">
<ele>376.8</ele>
<time>2024-05-10T13:29:00Z</time>
</trkpt>
<trkpt lat="49.57458106800914" lon="8.985616620630026">
<ele>377</ele>
<time>2024-05-10T13:29:01Z</time>
</trkpt>
<trkpt lat="49.57455818541348" lon="8.98562810383737">
<ele>377.2</ele>
<time>2024-05-10T13:29:02Z</time>
</trkpt>
<trkpt lat="49.57453530281782" lon="8.985641431063414">
<ele>377.2</ele>
<time>2024-05-10T13:29:03Z</time>
</trkpt>
<trkpt lat="49.57451627589762" lon="8.985652914270759">
<ele>377.4</ele>
<time>2024-05-10T13:29:04Z</time>
</trkpt>
<trkpt lat="49.57449339330197" lon="8.985663391649723">
<ele>377.6</ele>
<time>2024-05-10T13:29:05Z</time>
</trkpt>
<trkpt lat="49.57447813823819" lon="8.985671941190958">
<ele>377.6</ele>
<time>2024-05-10T13:29:06Z</time>
</trkpt>
<trkpt lat="49.57446288317442" lon="8.985681496560574">
<ele>377.8</ele>
<time>2024-05-10T13:29:07Z</time>
</trkpt>
<trkpt lat="49.57444762811065" lon="8.985690046101809">
<ele>378</ele>
<time>2024-05-10T13:29:08Z</time>
</trkpt>
<trkpt lat="49.574432373046875" lon="8.985694823786616">
<ele>378</ele>
<time>2024-05-10T13:29:09Z</time>
</trkpt>
<trkpt lat="49.57441703416407" lon="8.985703457146883">
<ele>378.2</ele>
<time>2024-05-10T13:29:10Z</time>
</trkpt>
<trkpt lat="49.5744017791003" lon="8.985712006688118">
<ele>378.2</ele>
<time>2024-05-10T13:29:11Z</time>
</trkpt>
<trkpt lat="49.57438652403653" lon="8.985718712210655">
<ele>378.2</ele>
<time>2024-05-10T13:29:12Z</time>
</trkpt>
<trkpt lat="49.57437512464821" lon="8.98572533391416">
<ele>378.4</ele>
<time>2024-05-10T13:29:13Z</time>
</trkpt>
<trkpt lat="49.57435601390898" lon="8.985732961446047">
<ele>378.4</ele>
<time>2024-05-10T13:29:14Z</time>
</trkpt>
<trkpt lat="49.57433313131333" lon="8.985743522644043">
<ele>378.4</ele>
<time>2024-05-10T13:29:15Z</time>
</trkpt>
<trkpt lat="49.57431787624955" lon="8.985754922032356">
<ele>378.4</ele>
<time>2024-05-10T13:29:16Z</time>
</trkpt>
<trkpt lat="49.57429499365389" lon="8.985768249258399">
<ele>378.2</ele>
<time>2024-05-10T13:29:17Z</time>
</trkpt>
<trkpt lat="49.574272111058235" lon="8.985781660303473">
<ele>378.2</ele>
<time>2024-05-10T13:29:18Z</time>
</trkpt>
<trkpt lat="49.57424922846258" lon="8.985792137682438">
<ele>378.2</ele>
<time>2024-05-10T13:29:19Z</time>
</trkpt>
<trkpt lat="49.574230117723346" lon="8.985799765214324">
<ele>378.2</ele>
<time>2024-05-10T13:29:20Z</time>
</trkpt>
<trkpt lat="49.574211090803146" lon="8.985808314755559">
<ele>378.2</ele>
<time>2024-05-10T13:29:21Z</time>
</trkpt>
<trkpt lat="49.574191980063915" lon="8.985819797962904">
<ele>378.2</ele>
<time>2024-05-10T13:29:22Z</time>
</trkpt>
<trkpt lat="49.57417295314371" lon="8.985830275341868">
<ele>378.2</ele>
<time>2024-05-10T13:29:23Z</time>
</trkpt>
<trkpt lat="49.574153842404485" lon="8.985837902873755">
<ele>378.2</ele>
<time>2024-05-10T13:29:24Z</time>
</trkpt>
<trkpt lat="49.574134815484285" lon="8.98584645241499">
<ele>378.2</ele>
<time>2024-05-10T13:29:25Z</time>
</trkpt>
<trkpt lat="49.57411956042051" lon="8.985856929793954">
<ele>378.2</ele>
<time>2024-05-10T13:29:26Z</time>
</trkpt>
<trkpt lat="49.57410430535674" lon="8.98586648516357">
<ele>378.2</ele>
<time>2024-05-10T13:29:27Z</time>
</trkpt>
<trkpt lat="49.57408905029297" lon="8.985877968370914">
<ele>378</ele>
<time>2024-05-10T13:29:28Z</time>
</trkpt>
<trkpt lat="49.57406993955374" lon="8.985890373587608">
<ele>378</ele>
<time>2024-05-10T13:29:29Z</time>
</trkpt>
<trkpt lat="49.57405082881451" lon="8.985899845138192">
<ele>378</ele>
<time>2024-05-10T13:29:30Z</time>
</trkpt>
<trkpt lat="49.57403180189431" lon="8.985911328345537">
<ele>378</ele>
<time>2024-05-10T13:29:31Z</time>
</trkpt>
<trkpt lat="49.57401269115507" lon="8.985923733562231">
<ele>378</ele>
<time>2024-05-10T13:29:32Z</time>
</trkpt>
<trkpt lat="49.57399366423488" lon="8.985937060788274">
<ele>377.8</ele>
<time>2024-05-10T13:29:33Z</time>
</trkpt>
<trkpt lat="49.57397078163922" lon="8.985948543995619">
<ele>377.8</ele>
<time>2024-05-10T13:29:34Z</time>
</trkpt>
<trkpt lat="49.57395167089999" lon="8.985958099365234">
<ele>377.8</ele>
<time>2024-05-10T13:29:35Z</time>
</trkpt>
<trkpt lat="49.57392878830433" lon="8.985969498753548">
<ele>377.8</ele>
<time>2024-05-10T13:29:36Z</time>
</trkpt>
<trkpt lat="49.57390590570867" lon="8.98598668165505">
<ele>378</ele>
<time>2024-05-10T13:29:37Z</time>
</trkpt>
<trkpt lat="49.57388679496944" lon="8.9860047865659">
<ele>378</ele>
<time>2024-05-10T13:29:38Z</time>
</trkpt>
<trkpt lat="49.573860140517354" lon="8.986028591170907">
<ele>378</ele>
<time>2024-05-10T13:29:39Z</time>
</trkpt>
<trkpt lat="49.573837257921696" lon="8.986055329442024">
<ele>378</ele>
<time>2024-05-10T13:29:40Z</time>
</trkpt>
<trkpt lat="49.57381437532604" lon="8.986082067713141">
<ele>378</ele>
<time>2024-05-10T13:29:41Z</time>
</trkpt>
<trkpt lat="49.573795264586806" lon="8.986109727993608">
<ele>378</ele>
<time>2024-05-10T13:29:42Z</time>
</trkpt>
<trkpt lat="49.573780009523034" lon="8.9861411601305">
<ele>377.8</ele>
<time>2024-05-10T13:29:43Z</time>
</trkpt>
<trkpt lat="49.573757126927376" lon="8.986173598095775">
<ele>377.8</ele>
<time>2024-05-10T13:29:44Z</time>
</trkpt>
<trkpt lat="49.573738016188145" lon="8.986209807917476">
<ele>377.8</ele>
<time>2024-05-10T13:29:45Z</time>
</trkpt>
<trkpt lat="49.573718989267945" lon="8.986251801252365">
<ele>377.6</ele>
<time>2024-05-10T13:29:46Z</time>
</trkpt>
<trkpt lat="49.573699878528714" lon="8.986299494281411">
<ele>377.6</ele>
<time>2024-05-10T13:29:47Z</time>
</trkpt>
<trkpt lat="49.57368462346494" lon="8.986345259472728">
<ele>377.6</ele>
<time>2024-05-10T13:29:48Z</time>
</trkpt>
<trkpt lat="49.57366174086928" lon="8.986392952501774">
<ele>377.6</ele>
<time>2024-05-10T13:29:49Z</time>
</trkpt>
<trkpt lat="49.57364271394909" lon="8.98643963970244">
<ele>377.6</ele>
<time>2024-05-10T13:29:50Z</time>
</trkpt>
<trkpt lat="49.57362360320985" lon="8.986484482884407">
<ele>377.6</ele>
<time>2024-05-10T13:29:51Z</time>
</trkpt>
<trkpt lat="49.57360834814608" lon="8.986526476219296">
<ele>377.4</ele>
<time>2024-05-10T13:29:52Z</time>
</trkpt>
<trkpt lat="49.57358932122588" lon="8.986570313572884">
<ele>377.2</ele>
<time>2024-05-10T13:29:53Z</time>
</trkpt>
<trkpt lat="49.57357021048665" lon="8.986608451232314">
<ele>377</ele>
<time>2024-05-10T13:29:54Z</time>
</trkpt>
<trkpt lat="49.57355495542288" lon="8.986641811206937">
<ele>376.8</ele>
<time>2024-05-10T13:29:55Z</time>
</trkpt>
<trkpt lat="49.57353207282722" lon="8.986675255000591">
<ele>376.6</ele>
<time>2024-05-10T13:29:56Z</time>
</trkpt>
<trkpt lat="49.57351681776345" lon="8.986708614975214">
<ele>376.4</ele>
<time>2024-05-10T13:29:57Z</time>
</trkpt>
<trkpt lat="49.57350156269968" lon="8.98673820309341">
<ele>376.2</ele>
<time>2024-05-10T13:29:58Z</time>
</trkpt>
<trkpt lat="49.57347482442856" lon="8.986758152022958">
<ele>376</ele>
<time>2024-05-10T13:29:59Z</time>
</trkpt>
<trkpt lat="49.573444314301014" lon="8.986764857545495">
<ele>375.8</ele>
<time>2024-05-10T13:30:00Z</time>
</trkpt>
<trkpt lat="49.57341765984893" lon="8.986758152022958">
<ele>375.4</ele>
<time>2024-05-10T13:30:01Z</time>
</trkpt>
<trkpt lat="49.57339469343424" lon="8.986740047112107">
<ele>375.2</ele>
<time>2024-05-10T13:30:02Z</time>
</trkpt>
<trkpt lat="49.573379438370466" lon="8.9867162425071">
<ele>375</ele>
<time>2024-05-10T13:30:03Z</time>
</trkpt>
<trkpt lat="49.57335655577481" lon="8.986693359911442">
<ele>374.8</ele>
<time>2024-05-10T13:30:04Z</time>
</trkpt>
<trkpt lat="49.57333752885461" lon="8.986671399325132">
<ele>374.6</ele>
<time>2024-05-10T13:30:05Z</time>
</trkpt>
<trkpt lat="49.57331841811538" lon="8.986651366576552">
<ele>374.4</ele>
<time>2024-05-10T13:30:06Z</time>
</trkpt>
<trkpt lat="49.57329176366329" lon="8.986637033522129">
<ele>374.4</ele>
<time>2024-05-10T13:30:07Z</time>
</trkpt>
<trkpt lat="49.573268881067634" lon="8.986621778458357">
<ele>374.4</ele>
<time>2024-05-10T13:30:08Z</time>
</trkpt>
<trkpt lat="49.573245998471975" lon="8.986608451232314">
<ele>374.4</ele>
<time>2024-05-10T13:30:09Z</time>
</trkpt>
<trkpt lat="49.57321926020086" lon="8.98659797385335">
<ele>374.2</ele>
<time>2024-05-10T13:30:10Z</time>
</trkpt>
<trkpt lat="49.5731963776052" lon="8.986584646627307">
<ele>374.2</ele>
<time>2024-05-10T13:30:11Z</time>
</trkpt>
<trkpt lat="49.57316963933408" lon="8.986571235582232">
<ele>374</ele>
<time>2024-05-10T13:30:12Z</time>
</trkpt>
<trkpt lat="49.573142984882" lon="8.986561764031649">
<ele>374</ele>
<time>2024-05-10T13:30:13Z</time>
</trkpt>
<trkpt lat="49.57311624661088" lon="8.986551202833652">
<ele>374</ele>
<time>2024-05-10T13:30:14Z</time>
</trkpt>
<trkpt lat="49.573085736483335" lon="8.986546508967876">
<ele>374</ele>
<time>2024-05-10T13:30:15Z</time>
</trkpt>
<trkpt lat="49.57305908203125" lon="8.986543575301766">
<ele>374</ele>
<time>2024-05-10T13:30:16Z</time>
</trkpt>
<trkpt lat="49.57303611561656" lon="8.986543575301766">
<ele>374.2</ele>
<time>2024-05-10T13:30:17Z</time>
</trkpt>
<trkpt lat="49.573005605489016" lon="8.986548352986574">
<ele>374.6</ele>
<time>2024-05-10T13:30:18Z</time>
</trkpt>
<trkpt lat="49.57298272289336" lon="8.98655698634684">
<ele>374.8</ele>
<time>2024-05-10T13:30:19Z</time>
</trkpt>
<trkpt lat="49.57295606844127" lon="8.986568385735154">
<ele>375.2</ele>
<time>2024-05-10T13:30:20Z</time>
</trkpt>
<trkpt lat="49.57292555831373" lon="8.9865798689425">
<ele>375.6</ele>
<time>2024-05-10T13:30:21Z</time>
</trkpt>
<trkpt lat="49.57289882004261" lon="8.986597051844">
<ele>376</ele>
<time>2024-05-10T13:30:22Z</time>
</trkpt>
<trkpt lat="49.57287208177149" lon="8.986611301079392">
<ele>376.4</ele>
<time>2024-05-10T13:30:23Z</time>
</trkpt>
<trkpt lat="49.57284157164395" lon="8.986630411818624">
<ele>376.8</ele>
<time>2024-05-10T13:30:24Z</time>
</trkpt>
<trkpt lat="49.57281491719186" lon="8.986646588891745">
<ele>377.2</ele>
<time>2024-05-10T13:30:25Z</time>
</trkpt>
<trkpt lat="49.572788178920746" lon="8.986659999936819">
<ele>377.8</ele>
<time>2024-05-10T13:30:26Z</time>
</trkpt>
<trkpt lat="49.57276152446866" lon="8.986673327162862">
<ele>378.4</ele>
<time>2024-05-10T13:30:27Z</time>
</trkpt>
<trkpt lat="49.57273478619754" lon="8.986689504235983">
<ele>378.8</ele>
<time>2024-05-10T13:30:28Z</time>
</trkpt>
<trkpt lat="49.572711903601885" lon="8.986706687137485">
<ele>379.2</ele>
<time>2024-05-10T13:30:29Z</time>
</trkpt>
<trkpt lat="49.57268516533077" lon="8.986722864210606">
<ele>379.6</ele>
<time>2024-05-10T13:30:30Z</time>
</trkpt>
<trkpt lat="49.57265851087868" lon="8.98673820309341">
<ele>379.8</ele>
<time>2024-05-10T13:30:31Z</time>
</trkpt>
<trkpt lat="49.57262800075114" lon="8.986753458157182">
<ele>380</ele>
<time>2024-05-10T13:30:32Z</time>
</trkpt>
<trkpt lat="49.57260126248002" lon="8.986768713220954">
<ele>380.2</ele>
<time>2024-05-10T13:30:33Z</time>
</trkpt>
<trkpt lat="49.57257075235248" lon="8.986782962456346">
<ele>380.4</ele>
<time>2024-05-10T13:30:34Z</time>
</trkpt>
<trkpt lat="49.57254409790039" lon="8.986798217520118">
<ele>380.4</ele>
<time>2024-05-10T13:30:35Z</time>
</trkpt>
<trkpt lat="49.572513503953815" lon="8.986811628565192">
<ele>380.6</ele>
<time>2024-05-10T13:30:36Z</time>
</trkpt>
<trkpt lat="49.57248684950173" lon="8.986824955791235">
<ele>380.6</ele>
<time>2024-05-10T13:30:37Z</time>
</trkpt>
<trkpt lat="49.572456339374185" lon="8.986836355179548">
<ele>380.8</ele>
<time>2024-05-10T13:30:38Z</time>
</trkpt>
<trkpt lat="49.57242960110307" lon="8.986846916377544">
<ele>380.8</ele>
<time>2024-05-10T13:30:39Z</time>
</trkpt>
<trkpt lat="49.57239909097552" lon="8.986856387928128">
<ele>381.2</ele>
<time>2024-05-10T13:30:40Z</time>
</trkpt>
<trkpt lat="49.57236858084798" lon="8.986867871135473">
<ele>381.4</ele>
<time>2024-05-10T13:30:41Z</time>
</trkpt>
<trkpt lat="49.57234184257686" lon="8.986880276352167">
<ele>381.6</ele>
<time>2024-05-10T13:30:42Z</time>
</trkpt>
<trkpt lat="49.57231133244932" lon="8.98689360357821">
<ele>381.8</ele>
<time>2024-05-10T13:30:43Z</time>
</trkpt>
<trkpt lat="49.57228082232177" lon="8.986906930804253">
<ele>381.8</ele>
<time>2024-05-10T13:30:44Z</time>
</trkpt>
<trkpt lat="49.57225031219423" lon="8.986920341849327">
<ele>382</ele>
<time>2024-05-10T13:30:45Z</time>
</trkpt>
<trkpt lat="49.57221980206669" lon="8.986934591084719">
<ele>382.2</ele>
<time>2024-05-10T13:30:46Z</time>
</trkpt>
<trkpt lat="49.57218166440725" lon="8.986946996301413">
<ele>382</ele>
<time>2024-05-10T13:30:47Z</time>
</trkpt>
<trkpt lat="49.57213967107237" lon="8.986958479508758">
<ele>382.2</ele>
<time>2024-05-10T13:30:48Z</time>
</trkpt>
<trkpt lat="49.572097761556506" lon="8.986967029049993">
<ele>382.4</ele>
<time>2024-05-10T13:30:49Z</time>
</trkpt>
<trkpt lat="49.5720633957535" lon="8.986978512257338">
<ele>382.6</ele>
<time>2024-05-10T13:30:50Z</time>
</trkpt>
<trkpt lat="49.57202911376953" lon="8.986988067626953">
<ele>382.8</ele>
<time>2024-05-10T13:30:51Z</time>
</trkpt>
<trkpt lat="49.571998519822955" lon="8.98699376732111">
<ele>382.8</ele>
<time>2024-05-10T13:30:52Z</time>
</trkpt>
<trkpt lat="49.57196800969541" lon="8.987001394852996">
<ele>383</ele>
<time>2024-05-10T13:30:53Z</time>
</trkpt>
<trkpt lat="49.571941355243325" lon="8.98701187223196">
<ele>383</ele>
<time>2024-05-10T13:30:54Z</time>
</trkpt>
<trkpt lat="49.57190698944032" lon="8.987023271620274">
<ele>383</ele>
<time>2024-05-10T13:30:55Z</time>
</trkpt>
<trkpt lat="49.57187647931278" lon="8.98703190498054">
<ele>383.2</ele>
<time>2024-05-10T13:30:56Z</time>
</trkpt>
<trkpt lat="49.57184596918523" lon="8.987039532512426">
<ele>383.4</ele>
<time>2024-05-10T13:30:57Z</time>
</trkpt>
<trkpt lat="49.571823086589575" lon="8.987048082053661">
<ele>383.8</ele>
<time>2024-05-10T13:30:58Z</time>
</trkpt>
<trkpt lat="49.57179634831846" lon="8.987054787576199">
<ele>384</ele>
<time>2024-05-10T13:30:59Z</time>
</trkpt>
<trkpt lat="49.57176969386637" lon="8.987059565261006">
<ele>384.4</ele>
<time>2024-05-10T13:31:00Z</time>
</trkpt>
<trkpt lat="49.57173918373883" lon="8.987066186964512">
<ele>384.6</ele>
<time>2024-05-10T13:31:01Z</time>
</trkpt>
<trkpt lat="49.57170867361128" lon="8.9870719704777">
<ele>385</ele>
<time>2024-05-10T13:31:02Z</time>
</trkpt>
<trkpt lat="49.571681935340166" lon="8.987079598009586">
<ele>385.6</ele>
<time>2024-05-10T13:31:03Z</time>
</trkpt>
<trkpt lat="49.57165142521262" lon="8.987088147550821">
<ele>386</ele>
<time>2024-05-10T13:31:04Z</time>
</trkpt>
<trkpt lat="49.57161705940962" lon="8.987096780911088">
<ele>386.4</ele>
<time>2024-05-10T13:31:05Z</time>
</trkpt>
<trkpt lat="49.57158277742565" lon="8.987103402614594">
<ele>386.8</ele>
<time>2024-05-10T13:31:06Z</time>
</trkpt>
<trkpt lat="49.57154841162264" lon="8.98711010813713">
<ele>387</ele>
<time>2024-05-10T13:31:07Z</time>
</trkpt>
<trkpt lat="49.57151412963867" lon="8.987116813659668">
<ele>387.2</ele>
<time>2024-05-10T13:31:08Z</time>
</trkpt>
<trkpt lat="49.571483535692096" lon="8.987123435363173">
<ele>387.2</ele>
<time>2024-05-10T13:31:09Z</time>
</trkpt>
<trkpt lat="49.57145688124001" lon="8.98713014088571">
<ele>387</ele>
<time>2024-05-10T13:31:10Z</time>
</trkpt>
<trkpt lat="49.57143014296889" lon="8.987139696255326">
<ele>387</ele>
<time>2024-05-10T13:31:11Z</time>
</trkpt>
<trkpt lat="49.57139963284135" lon="8.987148245796561">
<ele>386.8</ele>
<time>2024-05-10T13:31:12Z</time>
</trkpt>
<trkpt lat="49.57136912271381" lon="8.987153023481369">
<ele>386.8</ele>
<time>2024-05-10T13:31:13Z</time>
</trkpt>
<trkpt lat="49.57133861258626" lon="8.987159729003906">
<ele>386.6</ele>
<time>2024-05-10T13:31:14Z</time>
</trkpt>
<trkpt lat="49.57131187431514" lon="8.987163500860333">
<ele>386.6</ele>
<time>2024-05-10T13:31:15Z</time>
</trkpt>
<trkpt lat="49.57128899171949" lon="8.987166350707412">
<ele>386.4</ele>
<time>2024-05-10T13:31:16Z</time>
</trkpt>
<trkpt lat="49.571266109123826" lon="8.987173056229949">
<ele>386.6</ele>
<time>2024-05-10T13:31:17Z</time>
</trkpt>
<trkpt lat="49.57123945467174" lon="8.987179677933455">
<ele>386.8</ele>
<time>2024-05-10T13:31:18Z</time>
</trkpt>
<trkpt lat="49.57121271640062" lon="8.987181605771184">
<ele>387</ele>
<time>2024-05-10T13:31:19Z</time>
</trkpt>
<trkpt lat="49.57118606194854" lon="8.987183533608913">
<ele>387.2</ele>
<time>2024-05-10T13:31:20Z</time>
</trkpt>
<trkpt lat="49.57115932367742" lon="8.987188311293721">
<ele>387.4</ele>
<time>2024-05-10T13:31:21Z</time>
</trkpt>
<trkpt lat="49.5711325854063" lon="8.987194932997227">
<ele>387.4</ele>
<time>2024-05-10T13:31:22Z</time>
</trkpt>
<trkpt lat="49.571109702810645" lon="8.987201638519764">
<ele>387.6</ele>
<time>2024-05-10T13:31:23Z</time>
</trkpt>
<trkpt lat="49.57108304835856" lon="8.98721027188003">
<ele>387.6</ele>
<time>2024-05-10T13:31:24Z</time>
</trkpt>
<trkpt lat="49.57105631008744" lon="8.987214965745807">
<ele>387.8</ele>
<time>2024-05-10T13:31:25Z</time>
</trkpt>
<trkpt lat="49.571033427491784" lon="8.987221671268344">
<ele>388</ele>
<time>2024-05-10T13:31:26Z</time>
</trkpt>
<trkpt lat="49.5710067730397" lon="8.987226448953152">
<ele>388.2</ele>
<time>2024-05-10T13:31:27Z</time>
</trkpt>
<trkpt lat="49.57098003476858" lon="8.987233154475689">
<ele>388.4</ele>
<time>2024-05-10T13:31:28Z</time>
</trkpt>
<trkpt lat="49.57094566896558" lon="8.987239776179194">
<ele>388.4</ele>
<time>2024-05-10T13:31:29Z</time>
</trkpt>
<trkpt lat="49.57091138698161" lon="8.987243631854653">
<ele>388.4</ele>
<time>2024-05-10T13:31:30Z</time>
</trkpt>
<trkpt lat="49.570873249322176" lon="8.987250253558159">
<ele>388.2</ele>
<time>2024-05-10T13:31:31Z</time>
</trkpt>
<trkpt lat="49.570835111662745" lon="8.987256959080696">
<ele>388.2</ele>
<time>2024-05-10T13:31:32Z</time>
</trkpt>
<trkpt lat="49.570793118327856" lon="8.987263664603233">
<ele>388.4</ele>
<time>2024-05-10T13:31:33Z</time>
</trkpt>
<trkpt lat="49.57075112499297" lon="8.987266514450312">
<ele>388.2</ele>
<time>2024-05-10T13:31:34Z</time>
</trkpt>
<trkpt lat="49.570712987333536" lon="8.987266514450312">
<ele>388.2</ele>
<time>2024-05-10T13:31:35Z</time>
</trkpt>
<trkpt lat="49.570674849674106" lon="8.987268442288041">
<ele>388.2</ele>
<time>2024-05-10T13:31:36Z</time>
</trkpt>
<trkpt lat="49.570636712014675" lon="8.987270286306739">
<ele>388.2</ele>
<time>2024-05-10T13:31:37Z</time>
</trkpt>
<trkpt lat="49.57060234621167" lon="8.987270286306739">
<ele>388</ele>
<time>2024-05-10T13:31:38Z</time>
</trkpt>
<trkpt lat="49.57057183608413" lon="8.987273136153817">
<ele>387.8</ele>
<time>2024-05-10T13:31:39Z</time>
</trkpt>
<trkpt lat="49.57054132595658" lon="8.987275063991547">
<ele>387.8</ele>
<time>2024-05-10T13:31:40Z</time>
</trkpt>
<trkpt lat="49.57051081582904" lon="8.987277913838625">
<ele>387.8</ele>
<time>2024-05-10T13:31:41Z</time>
</trkpt>
<trkpt lat="49.570476450026035" lon="8.987279841676354">
<ele>387.6</ele>
<time>2024-05-10T13:31:42Z</time>
</trkpt>
<trkpt lat="49.57044593989849" lon="8.987279841676354">
<ele>387.6</ele>
<time>2024-05-10T13:31:43Z</time>
</trkpt>
<trkpt lat="49.57041165791452" lon="8.987277913838625">
<ele>387.4</ele>
<time>2024-05-10T13:31:44Z</time>
</trkpt>
<trkpt lat="49.570381147786975" lon="8.987276991829276">
<ele>387.4</ele>
<time>2024-05-10T13:31:45Z</time>
</trkpt>
<trkpt lat="49.57035063765943" lon="8.987276991829276">
<ele>387.6</ele>
<time>2024-05-10T13:31:46Z</time>
</trkpt>
<trkpt lat="49.570320127531886" lon="8.987276991829276">
<ele>387.6</ele>
<time>2024-05-10T13:31:47Z</time>
</trkpt>
<trkpt lat="49.57028953358531" lon="8.987275063991547">
<ele>387.6</ele>
<time>2024-05-10T13:31:48Z</time>
</trkpt>
<trkpt lat="49.57025525160134" lon="8.98727129213512">
<ele>387.8</ele>
<time>2024-05-10T13:31:49Z</time>
</trkpt>
<trkpt lat="49.570224741473794" lon="8.987268442288041">
<ele>387.6</ele>
<time>2024-05-10T13:31:50Z</time>
</trkpt>
<trkpt lat="49.57019037567079" lon="8.987266514450312">
<ele>387.6</ele>
<time>2024-05-10T13:31:51Z</time>
</trkpt>
<trkpt lat="49.57015609368682" lon="8.987261736765504">
<ele>387.6</ele>
<time>2024-05-10T13:31:52Z</time>
</trkpt>
<trkpt lat="49.57011787220836" lon="8.987257881090045">
<ele>387.8</ele>
<time>2024-05-10T13:31:53Z</time>
</trkpt>
<trkpt lat="49.570079734548926" lon="8.987253187224269">
<ele>387.8</ele>
<time>2024-05-10T13:31:54Z</time>
</trkpt>
<trkpt lat="49.570045452564955" lon="8.987248409539461">
<ele>387.8</ele>
<time>2024-05-10T13:31:55Z</time>
</trkpt>
<trkpt lat="49.57000731490552" lon="8.987244553864002">
<ele>388</ele>
<time>2024-05-10T13:31:56Z</time>
</trkpt>
<trkpt lat="49.56997680477798" lon="8.987243631854653">
<ele>388.2</ele>
<time>2024-05-10T13:31:57Z</time>
</trkpt>
<trkpt lat="49.56994243897498" lon="8.987241704016924">
<ele>388.2</ele>
<time>2024-05-10T13:31:58Z</time>
</trkpt>
<trkpt lat="49.56990807317197" lon="8.987236926332116">
<ele>388.4</ele>
<time>2024-05-10T13:31:59Z</time>
</trkpt>
<trkpt lat="49.569873791188" lon="8.98723122663796">
<ele>388.6</ele>
<time>2024-05-10T13:32:00Z</time>
</trkpt>
<trkpt lat="49.569839425385" lon="8.987224521115422">
<ele>388.8</ele>
<time>2024-05-10T13:32:01Z</time>
</trkpt>
<trkpt lat="49.56980514340103" lon="8.987219743430614">
<ele>389</ele>
<time>2024-05-10T13:32:02Z</time>
</trkpt>
<trkpt lat="49.569766921922565" lon="8.987213121727109">
<ele>389.2</ele>
<time>2024-05-10T13:32:03Z</time>
</trkpt>
<trkpt lat="49.569728784263134" lon="8.987208344042301">
<ele>389.4</ele>
<time>2024-05-10T13:32:04Z</time>
</trkpt>
<trkpt lat="49.56969450227916" lon="8.987203566357493">
<ele>389.8</ele>
<time>2024-05-10T13:32:05Z</time>
</trkpt>
<trkpt lat="49.56966013647616" lon="8.987196860834956">
<ele>390</ele>
<time>2024-05-10T13:32:06Z</time>
</trkpt>
<trkpt lat="49.56962199881673" lon="8.987193088978529">
<ele>390.2</ele>
<time>2024-05-10T13:32:07Z</time>
</trkpt>
<trkpt lat="49.569591488689184" lon="8.987188311293721">
<ele>390.6</ele>
<time>2024-05-10T13:32:08Z</time>
</trkpt>
<trkpt lat="49.56956097856164" lon="8.987181605771184">
<ele>390.8</ele>
<time>2024-05-10T13:32:09Z</time>
</trkpt>
<trkpt lat="49.56953424029052" lon="8.987178755924106">
<ele>391</ele>
<time>2024-05-10T13:32:10Z</time>
</trkpt>
<trkpt lat="49.56950373016298" lon="8.98717020638287">
<ele>391</ele>
<time>2024-05-10T13:32:11Z</time>
</trkpt>
<trkpt lat="49.569473220035434" lon="8.987163500860333">
<ele>391.2</ele>
<time>2024-05-10T13:32:12Z</time>
</trkpt>
<trkpt lat="49.56944648176432" lon="8.987158723175526">
<ele>391.4</ele>
<time>2024-05-10T13:32:13Z</time>
</trkpt>
<trkpt lat="49.56941982731223" lon="8.987154951319098">
<ele>391.6</ele>
<time>2024-05-10T13:32:14Z</time>
</trkpt>
<trkpt lat="49.569393089041114" lon="8.98715017363429">
<ele>392</ele>
<time>2024-05-10T13:32:15Z</time>
</trkpt>
<trkpt lat="49.56936643458903" lon="8.987143468111753">
<ele>392.2</ele>
<time>2024-05-10T13:32:16Z</time>
</trkpt>
<trkpt lat="49.56934355199337" lon="8.987138690426946">
<ele>392.2</ele>
<time>2024-05-10T13:32:17Z</time>
</trkpt>
<trkpt lat="49.56932444125414" lon="8.987136762589216">
<ele>392.2</ele>
<time>2024-05-10T13:32:18Z</time>
</trkpt>
<trkpt lat="49.56930541433394" lon="8.987132990732789">
<ele>392.4</ele>
<time>2024-05-10T13:32:19Z</time>
</trkpt>
<trkpt lat="49.56928630359471" lon="8.98713014088571">
<ele>392.6</ele>
<time>2024-05-10T13:32:20Z</time>
</trkpt>
<trkpt lat="49.56926342099905" lon="8.987126285210252">
<ele>392.6</ele>
<time>2024-05-10T13:32:21Z</time>
</trkpt>
<trkpt lat="49.56924053840339" lon="8.987121507525444">
<ele>392.8</ele>
<time>2024-05-10T13:32:22Z</time>
</trkpt>
<trkpt lat="49.56922142766416" lon="8.987114885821939">
<ele>392.8</ele>
<time>2024-05-10T13:32:23Z</time>
</trkpt>
<trkpt lat="49.5691985450685" lon="8.98711010813713">
<ele>392.8</ele>
<time>2024-05-10T13:32:24Z</time>
</trkpt>
<trkpt lat="49.56918329000473" lon="8.987103402614594">
<ele>392.6</ele>
<time>2024-05-10T13:32:25Z</time>
</trkpt>
<trkpt lat="49.56916426308453" lon="8.987099630758166">
<ele>392.6</ele>
<time>2024-05-10T13:32:26Z</time>
</trkpt>
<trkpt lat="49.5691451523453" lon="8.987098624929786">
<ele>392.6</ele>
<time>2024-05-10T13:32:27Z</time>
</trkpt>
<trkpt lat="49.5691261254251" lon="8.98709200322628">
<ele>392.6</ele>
<time>2024-05-10T13:32:28Z</time>
</trkpt>
<trkpt lat="49.56910315901041" lon="8.987085297703743">
<ele>392.4</ele>
<time>2024-05-10T13:32:29Z</time>
</trkpt>
<trkpt lat="49.569076504558325" lon="8.987081525847316">
<ele>392.4</ele>
<time>2024-05-10T13:32:30Z</time>
</trkpt>
<trkpt lat="49.56904976628721" lon="8.987076748162508">
<ele>392.4</ele>
<time>2024-05-10T13:32:31Z</time>
</trkpt>
<trkpt lat="49.56901925615966" lon="8.987066186964512">
<ele>392.4</ele>
<time>2024-05-10T13:32:32Z</time>
</trkpt>
<trkpt lat="49.56898497417569" lon="8.987056715413928">
<ele>392.4</ele>
<time>2024-05-10T13:32:33Z</time>
</trkpt>
<trkpt lat="49.56895060837269" lon="8.987046238034964">
<ele>392.4</ele>
<time>2024-05-10T13:32:34Z</time>
</trkpt>
<trkpt lat="49.5689086150378" lon="8.987036682665348">
<ele>392.4</ele>
<time>2024-05-10T13:32:35Z</time>
</trkpt>
<trkpt lat="49.56886670552194" lon="8.987025199458003">
<ele>391.8</ele>
<time>2024-05-10T13:32:36Z</time>
</trkpt>
<trkpt lat="49.568817084655166" lon="8.98701187223196">
<ele>391.6</ele>
<time>2024-05-10T13:32:37Z</time>
</trkpt>
<trkpt lat="49.56876754760742" lon="8.987001394852996">
<ele>391.6</ele>
<time>2024-05-10T13:32:38Z</time>
</trkpt>
<trkpt lat="49.568721698597074" lon="8.986994689330459">
<ele>391.4</ele>
<time>2024-05-10T13:32:39Z</time>
</trkpt>
<trkpt lat="49.56867593340576" lon="8.986986139789224">
<ele>391.4</ele>
<time>2024-05-10T13:32:40Z</time>
</trkpt>
<trkpt lat="49.56863016821444" lon="8.986976584419608">
<ele>391.2</ele>
<time>2024-05-10T13:32:41Z</time>
</trkpt>
<trkpt lat="49.56858817487955" lon="8.986965101212263">
<ele>391.2</ele>
<time>2024-05-10T13:32:42Z</time>
</trkpt>
<trkpt lat="49.568542409688234" lon="8.98695370182395">
<ele>391</ele>
<time>2024-05-10T13:32:43Z</time>
</trkpt>
<trkpt lat="49.56849287264049" lon="8.986940374597907">
<ele>391</ele>
<time>2024-05-10T13:32:44Z</time>
</trkpt>
<trkpt lat="49.568447107449174" lon="8.986927969381213">
<ele>390.8</ele>
<time>2024-05-10T13:32:45Z</time>
</trkpt>
<trkpt lat="49.568401258438826" lon="8.986916486173868">
<ele>390.8</ele>
<time>2024-05-10T13:32:46Z</time>
</trkpt>
<trkpt lat="49.56835172139108" lon="8.986905086785555">
<ele>390.4</ele>
<time>2024-05-10T13:32:47Z</time>
</trkpt>
<trkpt lat="49.568305956199765" lon="8.98689360357821">
<ele>390.2</ele>
<time>2024-05-10T13:32:48Z</time>
</trkpt>
<trkpt lat="49.56826019100845" lon="8.986878348514438">
<ele>390</ele>
<time>2024-05-10T13:32:49Z</time>
</trkpt>
<trkpt lat="49.56821057014167" lon="8.986863093450665">
<ele>389.8</ele>
<time>2024-05-10T13:32:50Z</time>
</trkpt>
<trkpt lat="49.5681609492749" lon="8.986843060702085">
<ele>389.6</ele>
<time>2024-05-10T13:32:51Z</time>
</trkpt>
<trkpt lat="49.568111412227154" lon="8.986823027953506">
<ele>389.4</ele>
<time>2024-05-10T13:32:52Z</time>
</trkpt>
<trkpt lat="49.56806179136038" lon="8.986804923042655">
<ele>389.2</ele>
<time>2024-05-10T13:32:53Z</time>
</trkpt>
<trkpt lat="49.56801979802549" lon="8.986788745969534">
<ele>389</ele>
<time>2024-05-10T13:32:54Z</time>
</trkpt>
<trkpt lat="49.56797788850963" lon="8.986773490905762">
<ele>388.8</ele>
<time>2024-05-10T13:32:55Z</time>
</trkpt>
<trkpt lat="49.56794737838209" lon="8.986760079860687">
<ele>388.6</ele>
<time>2024-05-10T13:32:56Z</time>
</trkpt>
<trkpt lat="49.56791301257908" lon="8.986740047112107">
<ele>388.4</ele>
<time>2024-05-10T13:32:57Z</time>
</trkpt>
<trkpt lat="49.56787864677608" lon="8.986720014363527">
<ele>388.2</ele>
<time>2024-05-10T13:32:58Z</time>
</trkpt>
<trkpt lat="49.56784436479211" lon="8.986701909452677">
<ele>388.2</ele>
<time>2024-05-10T13:32:59Z</time>
</trkpt>
<trkpt lat="49.567809998989105" lon="8.986681876704097">
<ele>388.2</ele>
<time>2024-05-10T13:33:00Z</time>
</trkpt>
<trkpt lat="49.567775717005134" lon="8.986661843955517">
<ele>388.2</ele>
<time>2024-05-10T13:33:01Z</time>
</trkpt>
<trkpt lat="49.56774520687759" lon="8.986644744873047">
<ele>388.2</ele>
<time>2024-05-10T13:33:02Z</time>
</trkpt>
<trkpt lat="49.56771846860647" lon="8.986630411818624">
<ele>388</ele>
<time>2024-05-10T13:33:03Z</time>
</trkpt>
<trkpt lat="49.567691730335355" lon="8.986613228917122">
<ele>388</ele>
<time>2024-05-10T13:33:04Z</time>
</trkpt>
<trkpt lat="49.56766122020781" lon="8.98659797385335">
<ele>387.8</ele>
<time>2024-05-10T13:33:05Z</time>
</trkpt>
<trkpt lat="49.567630710080266" lon="8.986581796780229">
<ele>387.8</ele>
<time>2024-05-10T13:33:06Z</time>
</trkpt>
<trkpt lat="49.56760019995272" lon="8.986563608050346">
<ele>387.6</ele>
<time>2024-05-10T13:33:07Z</time>
</trkpt>
<trkpt lat="49.56756968982518" lon="8.986550280824304">
<ele>387.8</ele>
<time>2024-05-10T13:33:08Z</time>
</trkpt>
<trkpt lat="49.56753917969763" lon="8.98653787560761">
<ele>388</ele>
<time>2024-05-10T13:33:09Z</time>
</trkpt>
<trkpt lat="49.56750866957009" lon="8.986528320237994">
<ele>388.2</ele>
<time>2024-05-10T13:33:10Z</time>
</trkpt>
<trkpt lat="49.567478159442544" lon="8.98651977069676">
<ele>388.2</ele>
<time>2024-05-10T13:33:11Z</time>
</trkpt>
<trkpt lat="49.56745142117143" lon="8.986511221155524">
<ele>388.2</ele>
<time>2024-05-10T13:33:12Z</time>
</trkpt>
<trkpt lat="49.56742091104388" lon="8.986503593623638">
<ele>388.2</ele>
<time>2024-05-10T13:33:13Z</time>
</trkpt>
<trkpt lat="49.5673942565918" lon="8.986493032425642">
<ele>388.6</ele>
<time>2024-05-10T13:33:14Z</time>
</trkpt>
<trkpt lat="49.56736751832068" lon="8.986486410722136">
<ele>388.8</ele>
<time>2024-05-10T13:33:15Z</time>
</trkpt>
<trkpt lat="49.56734463572502" lon="8.9864797051996">
<ele>389</ele>
<time>2024-05-10T13:33:16Z</time>
</trkpt>
<trkpt lat="49.567317897453904" lon="8.986471155658364">
<ele>389.2</ele>
<time>2024-05-10T13:33:17Z</time>
</trkpt>
<trkpt lat="49.567298870533705" lon="8.986461600288749">
<ele>389.4</ele>
<time>2024-05-10T13:33:18Z</time>
</trkpt>
<trkpt lat="49.56727598793805" lon="8.986453050747514">
<ele>389.6</ele>
<time>2024-05-10T13:33:19Z</time>
</trkpt>
<trkpt lat="49.56725310534239" lon="8.986443495377898">
<ele>389.8</ele>
<time>2024-05-10T13:33:20Z</time>
</trkpt>
<trkpt lat="49.567237850278616" lon="8.986428240314126">
<ele>389.8</ele>
<time>2024-05-10T13:33:21Z</time>
</trkpt>
<trkpt lat="49.567214883863926" lon="8.986410135403275">
<ele>389.8</ele>
<time>2024-05-10T13:33:22Z</time>
</trkpt>
<trkpt lat="49.56719200126827" lon="8.986390102654696">
<ele>390</ele>
<time>2024-05-10T13:33:23Z</time>
</trkpt>
<trkpt lat="49.56716911867261" lon="8.986365292221308">
<ele>390</ele>
<time>2024-05-10T13:33:24Z</time>
</trkpt>
<trkpt lat="49.56715009175241" lon="8.986332854256034">
<ele>390.2</ele>
<time>2024-05-10T13:33:25Z</time>
</trkpt>
<trkpt lat="49.56713098101318" lon="8.986296644434333">
<ele>390.2</ele>
<time>2024-05-10T13:33:26Z</time>
</trkpt>
<trkpt lat="49.56711572594941" lon="8.986253729090095">
<ele>390.4</ele>
<time>2024-05-10T13:33:27Z</time>
</trkpt>
<trkpt lat="49.567100470885634" lon="8.986213663592935">
<ele>390.6</ele>
<time>2024-05-10T13:33:28Z</time>
</trkpt>
<trkpt lat="49.567081443965435" lon="8.986174520105124">
<ele>390.8</ele>
<time>2024-05-10T13:33:29Z</time>
</trkpt>
<trkpt lat="49.56705856136978" lon="8.98614308796823">
<ele>391</ele>
<time>2024-05-10T13:33:30Z</time>
</trkpt>
<trkpt lat="49.56703559495509" lon="8.986114421859384">
<ele>391.2</ele>
<time>2024-05-10T13:33:31Z</time>
</trkpt>
<trkpt lat="49.56701271235943" lon="8.98608684539795">
<ele>391.4</ele>
<time>2024-05-10T13:33:32Z</time>
</trkpt>
<trkpt lat="49.56698982976377" lon="8.986058179289103">
<ele>391.8</ele>
<time>2024-05-10T13:33:33Z</time>
</trkpt>
<trkpt lat="49.566963175311685" lon="8.986031524837017">
<ele>392</ele>
<time>2024-05-10T13:33:34Z</time>
</trkpt>
<trkpt lat="49.56693643704057" lon="8.98600671440363">
<ele>392.4</ele>
<time>2024-05-10T13:33:35Z</time>
</trkpt>
<trkpt lat="49.56691355444491" lon="8.985979976132512">
<ele>393</ele>
<time>2024-05-10T13:33:36Z</time>
</trkpt>
<trkpt lat="49.56689067184925" lon="8.985955165699124">
<ele>393.6</ele>
<time>2024-05-10T13:33:37Z</time>
</trkpt>
<trkpt lat="49.56686778925359" lon="8.985931361094117">
<ele>394</ele>
<time>2024-05-10T13:33:38Z</time>
</trkpt>
<trkpt lat="49.566844906657934" lon="8.985910406336188">
<ele>394.6</ele>
<time>2024-05-10T13:33:39Z</time>
</trkpt>
<trkpt lat="49.5668257959187" lon="8.985891295596957">
<ele>395.2</ele>
<time>2024-05-10T13:33:40Z</time>
</trkpt>
<trkpt lat="49.566806768998504" lon="8.985873190686107">
<ele>396</ele>
<time>2024-05-10T13:33:41Z</time>
</trkpt>
<trkpt lat="49.56678765825927" lon="8.985855085775256">
<ele>396.6</ele>
<time>2024-05-10T13:33:42Z</time>
</trkpt>
<trkpt lat="49.56676863133907" lon="8.985837902873755">
<ele>397.2</ele>
<time>2024-05-10T13:33:43Z</time>
</trkpt>
<trkpt lat="49.5667533762753" lon="8.985821641981602">
<ele>398</ele>
<time>2024-05-10T13:33:44Z</time>
</trkpt>
<trkpt lat="49.56673812121153" lon="8.985808314755559">
<ele>398.6</ele>
<time>2024-05-10T13:33:45Z</time>
</trkpt>
<trkpt lat="49.56672286614776" lon="8.985796915367246">
<ele>399.2</ele>
<time>2024-05-10T13:33:46Z</time>
</trkpt>
<trkpt lat="49.566707611083984" lon="8.985783504322171">
<ele>399.6</ele>
<time>2024-05-10T13:33:47Z</time>
</trkpt>
<trkpt lat="49.56669227220118" lon="8.985768249258399">
<ele>400</ele>
<time>2024-05-10T13:33:48Z</time>
</trkpt>
<trkpt lat="49.56667324528098" lon="8.985752994194627">
<ele>400.4</ele>
<time>2024-05-10T13:33:49Z</time>
</trkpt>
<trkpt lat="49.56666176207363" lon="8.985734889283776">
<ele>400.8</ele>
<time>2024-05-10T13:33:50Z</time>
</trkpt>
<trkpt lat="49.566646507009864" lon="8.985714856535196">
<ele>401.2</ele>
<time>2024-05-10T13:33:51Z</time>
</trkpt>
<trkpt lat="49.566627480089664" lon="8.985698679462075">
<ele>401.6</ele>
<time>2024-05-10T13:33:52Z</time>
</trkpt>
<trkpt lat="49.566604597494006" lon="8.985681496560574">
<ele>402</ele>
<time>2024-05-10T13:33:53Z</time>
</trkpt>
<trkpt lat="49.56658171489835" lon="8.985666241496801">
<ele>402.2</ele>
<time>2024-05-10T13:33:54Z</time>
</trkpt>
<trkpt lat="49.56655883230269" lon="8.985652914270759">
<ele>402.6</ele>
<time>2024-05-10T13:33:55Z</time>
</trkpt>
<trkpt lat="49.56653972156346" lon="8.985639503225684">
<ele>402.8</ele>
<time>2024-05-10T13:33:56Z</time>
</trkpt>
<trkpt lat="49.5665168389678" lon="8.985631875693798">
<ele>403</ele>
<time>2024-05-10T13:33:57Z</time>
</trkpt>
<trkpt lat="49.56649395637214" lon="8.985626175999641">
<ele>403</ele>
<time>2024-05-10T13:33:58Z</time>
</trkpt>
<trkpt lat="49.56647107377648" lon="8.985621398314834">
<ele>403.2</ele>
<time>2024-05-10T13:33:59Z</time>
</trkpt>
<trkpt lat="49.566448191180825" lon="8.985612848773599">
<ele>403.2</ele>
<time>2024-05-10T13:34:00Z</time>
</trkpt>
<trkpt lat="49.56642145290971" lon="8.985605221241713">
<ele>403.4</ele>
<time>2024-05-10T13:34:01Z</time>
</trkpt>
<trkpt lat="49.56639479845762" lon="8.985594743862748">
<ele>403.4</ele>
<time>2024-05-10T13:34:02Z</time>
</trkpt>
<trkpt lat="49.56637191586197" lon="8.985586110502481">
<ele>403.6</ele>
<time>2024-05-10T13:34:03Z</time>
</trkpt>
<trkpt lat="49.56634517759085" lon="8.985576555132866">
<ele>403.6</ele>
<time>2024-05-10T13:34:04Z</time>
</trkpt>
<trkpt lat="49.56631843931973" lon="8.98557186126709">
<ele>403.8</ele>
<time>2024-05-10T13:34:05Z</time>
</trkpt>
<trkpt lat="49.56629178486765" lon="8.985563227906823">
<ele>403.8</ele>
<time>2024-05-10T13:34:06Z</time>
</trkpt>
<trkpt lat="49.56626504659653" lon="8.985558450222015">
<ele>404</ele>
<time>2024-05-10T13:34:07Z</time>
</trkpt>
<trkpt lat="49.56623453646898" lon="8.985554678365588">
<ele>404</ele>
<time>2024-05-10T13:34:08Z</time>
</trkpt>
<trkpt lat="49.56620402634144" lon="8.98555182851851">
<ele>404</ele>
<time>2024-05-10T13:34:09Z</time>
</trkpt>
<trkpt lat="49.56617728807032" lon="8.985547050833702">
<ele>404</ele>
<time>2024-05-10T13:34:10Z</time>
</trkpt>
<trkpt lat="49.56614677794278" lon="8.985543195158243">
<ele>404</ele>
<time>2024-05-10T13:34:11Z</time>
</trkpt>
<trkpt lat="49.56612012349069" lon="8.985533639788628">
<ele>404.2</ele>
<time>2024-05-10T13:34:12Z</time>
</trkpt>
<trkpt lat="49.566093385219574" lon="8.985521234571934">
<ele>404.2</ele>
<time>2024-05-10T13:34:13Z</time>
</trkpt>
<trkpt lat="49.56606673076749" lon="8.98550983518362">
<ele>404.4</ele>
<time>2024-05-10T13:34:14Z</time>
</trkpt>
<trkpt lat="49.56603999249637" lon="8.985500279814005">
<ele>404.4</ele>
<time>2024-05-10T13:34:15Z</time>
</trkpt>
<trkpt lat="49.566013254225254" lon="8.98548980243504">
<ele>404.6</ele>
<time>2024-05-10T13:34:16Z</time>
</trkpt>
<trkpt lat="49.56598659977317" lon="8.985476475208998">
<ele>404.6</ele>
<time>2024-05-10T13:34:17Z</time>
</trkpt>
<trkpt lat="49.56596371717751" lon="8.985464992001653">
<ele>404.6</ele>
<time>2024-05-10T13:34:18Z</time>
</trkpt>
<trkpt lat="49.56594083458185" lon="8.985446887090802">
<ele>404.6</ele>
<time>2024-05-10T13:34:19Z</time>
</trkpt>
<trkpt lat="49.56592172384262" lon="8.985424926504493">
<ele>404.8</ele>
<time>2024-05-10T13:34:20Z</time>
</trkpt>
<trkpt lat="49.56589884124696" lon="8.985406821593642">
<ele>405</ele>
<time>2024-05-10T13:34:21Z</time>
</trkpt>
<trkpt lat="49.565875958651304" lon="8.985382011160254">
<ele>405.2</ele>
<time>2024-05-10T13:34:22Z</time>
</trkpt>
<trkpt lat="49.565856931731105" lon="8.985360134392977">
<ele>405.4</ele>
<time>2024-05-10T13:34:23Z</time>
</trkpt>
<trkpt lat="49.565833965316415" lon="8.985338173806667">
<ele>405.6</ele>
<time>2024-05-10T13:34:24Z</time>
</trkpt>
<trkpt lat="49.56581108272076" lon="8.985315291211009">
<ele>405.8</ele>
<time>2024-05-10T13:34:25Z</time>
</trkpt>
<trkpt lat="49.5657882001251" lon="8.98529140278697">
<ele>406</ele>
<time>2024-05-10T13:34:26Z</time>
</trkpt>
<trkpt lat="49.56576531752944" lon="8.985275225713849">
<ele>406.2</ele>
<time>2024-05-10T13:34:27Z</time>
</trkpt>
<trkpt lat="49.565738663077354" lon="8.985256114974618">
<ele>406.4</ele>
<time>2024-05-10T13:34:28Z</time>
</trkpt>
<trkpt lat="49.565715780481696" lon="8.985238010063767">
<ele>406.6</ele>
<time>2024-05-10T13:34:29Z</time>
</trkpt>
<trkpt lat="49.56568904221058" lon="8.985221832990646">
<ele>406.8</ele>
<time>2024-05-10T13:34:30Z</time>
</trkpt>
<trkpt lat="49.565658532083035" lon="8.985208505764604">
<ele>407</ele>
<time>2024-05-10T13:34:31Z</time>
</trkpt>
<trkpt lat="49.56563179381192" lon="8.98519509471953">
<ele>407.2</ele>
<time>2024-05-10T13:34:32Z</time>
</trkpt>
<trkpt lat="49.56560128368437" lon="8.985183695331216">
<ele>407.4</ele>
<time>2024-05-10T13:34:33Z</time>
</trkpt>
<trkpt lat="49.56557077355683" lon="8.985171290114522">
<ele>407.4</ele>
<time>2024-05-10T13:34:34Z</time>
</trkpt>
<trkpt lat="49.56554026342928" lon="8.98515796288848">
<ele>407.6</ele>
<time>2024-05-10T13:34:35Z</time>
</trkpt>
<trkpt lat="49.5655136089772" lon="8.985148407518864">
<ele>407.6</ele>
<time>2024-05-10T13:34:36Z</time>
</trkpt>
<trkpt lat="49.56548301503062" lon="8.9851379301399">
<ele>407.8</ele>
<time>2024-05-10T13:34:37Z</time>
</trkpt>
<trkpt lat="49.56545250490308" lon="8.985133152455091">
<ele>408</ele>
<time>2024-05-10T13:34:38Z</time>
</trkpt>
<trkpt lat="49.56542585045099" lon="8.985124519094825">
<ele>408</ele>
<time>2024-05-10T13:34:39Z</time>
</trkpt>
<trkpt lat="49.56539534032345" lon="8.985113119706511">
<ele>408.2</ele>
<time>2024-05-10T13:34:40Z</time>
</trkpt>
<trkpt lat="49.565364830195904" lon="8.985104486346245">
<ele>408.4</ele>
<time>2024-05-10T13:34:41Z</time>
</trkpt>
<trkpt lat="49.56533809192479" lon="8.985095014795661">
<ele>408.4</ele>
<time>2024-05-10T13:34:42Z</time>
</trkpt>
<trkpt lat="49.56531135365367" lon="8.985083531588316">
<ele>408.6</ele>
<time>2024-05-10T13:34:43Z</time>
</trkpt>
<trkpt lat="49.565280843526125" lon="8.985068276524544">
<ele>408.6</ele>
<time>2024-05-10T13:34:44Z</time>
</trkpt>
<trkpt lat="49.56525033339858" lon="8.985054949298501">
<ele>408.8</ele>
<time>2024-05-10T13:34:45Z</time>
</trkpt>
<trkpt lat="49.565223678946495" lon="8.985046315938234">
<ele>409</ele>
<time>2024-05-10T13:34:46Z</time>
</trkpt>
<trkpt lat="49.56519316881895" lon="8.985032988712192">
<ele>409</ele>
<time>2024-05-10T13:34:47Z</time>
</trkpt>
<trkpt lat="49.565162658691406" lon="8.985019661486149">
<ele>409.2</ele>
<time>2024-05-10T13:34:48Z</time>
</trkpt>
<trkpt lat="49.56513206474483" lon="8.985006250441074">
<ele>409.2</ele>
<time>2024-05-10T13:34:49Z</time>
</trkpt>
<trkpt lat="49.565101554617286" lon="8.984992923215032">
<ele>409.4</ele>
<time>2024-05-10T13:34:50Z</time>
</trkpt>
<trkpt lat="49.565067272633314" lon="8.984979595988989">
<ele>409.4</ele>
<time>2024-05-10T13:34:51Z</time>
</trkpt>
<trkpt lat="49.56503676250577" lon="8.984965262934566">
<ele>409.6</ele>
<time>2024-05-10T13:34:52Z</time>
</trkpt>
<trkpt lat="49.565002396702766" lon="8.984951935708523">
<ele>409.6</ele>
<time>2024-05-10T13:34:53Z</time>
</trkpt>
<trkpt lat="49.56497188657522" lon="8.984943386167288">
<ele>409.6</ele>
<time>2024-05-10T13:34:54Z</time>
</trkpt>
<trkpt lat="49.56494137644768" lon="8.98493860848248">
<ele>409.8</ele>
<time>2024-05-10T13:34:55Z</time>
</trkpt>
<trkpt lat="49.56491463817656" lon="8.984931902959943">
<ele>409.8</ele>
<time>2024-05-10T13:34:56Z</time>
</trkpt>
<trkpt lat="49.564884128049016" lon="8.984923353418708">
<ele>409.8</ele>
<time>2024-05-10T13:34:57Z</time>
</trkpt>
<trkpt lat="49.56485361792147" lon="8.984914720058441">
<ele>409.8</ele>
<time>2024-05-10T13:34:58Z</time>
</trkpt>
<trkpt lat="49.564826963469386" lon="8.984907092526555">
<ele>409.8</ele>
<time>2024-05-10T13:34:59Z</time>
</trkpt>
<trkpt lat="49.56479636952281" lon="8.98489854298532">
<ele>409.8</ele>
<time>2024-05-10T13:35:00Z</time>
</trkpt>
<trkpt lat="49.56476971507072" lon="8.984894687309861">
<ele>409.8</ele>
<time>2024-05-10T13:35:01Z</time>
</trkpt>
<trkpt lat="49.56474297679961" lon="8.98489661514759">
<ele>409.8</ele>
<time>2024-05-10T13:35:02Z</time>
</trkpt>
<trkpt lat="49.56471632234752" lon="8.984894687309861">
<ele>409.8</ele>
<time>2024-05-10T13:35:03Z</time>
</trkpt>
<trkpt lat="49.56468195654452" lon="8.98489854298532">
<ele>410</ele>
<time>2024-05-10T13:35:04Z</time>
</trkpt>
<trkpt lat="49.564651446416974" lon="8.984905164688826">
<ele>410</ele>
<time>2024-05-10T13:35:05Z</time>
</trkpt>
<trkpt lat="49.56462093628943" lon="8.984909942373633">
<ele>410.2</ele>
<time>2024-05-10T13:35:06Z</time>
</trkpt>
<trkpt lat="49.564590426161885" lon="8.984912792220712">
<ele>410.2</ele>
<time>2024-05-10T13:35:07Z</time>
</trkpt>
<trkpt lat="49.56455991603434" lon="8.984914720058441">
<ele>410.4</ele>
<time>2024-05-10T13:35:08Z</time>
</trkpt>
<trkpt lat="49.5645294059068" lon="8.9849185757339">
<ele>410.4</ele>
<time>2024-05-10T13:35:09Z</time>
</trkpt>
<trkpt lat="49.56449889577925" lon="8.984921425580978">
<ele>410.4</ele>
<time>2024-05-10T13:35:10Z</time>
</trkpt>
<trkpt lat="49.56446830183267" lon="8.984925197437406">
<ele>410.6</ele>
<time>2024-05-10T13:35:11Z</time>
</trkpt>
<trkpt lat="49.56443779170513" lon="8.984934752807021">
<ele>410.6</ele>
<time>2024-05-10T13:35:12Z</time>
</trkpt>
<trkpt lat="49.56440350972116" lon="8.984941458329558">
<ele>410.8</ele>
<time>2024-05-10T13:35:13Z</time>
</trkpt>
<trkpt lat="49.564372999593616" lon="8.984946236014366">
<ele>410.8</ele>
<time>2024-05-10T13:35:14Z</time>
</trkpt>
<trkpt lat="49.5643462613225" lon="8.984950007870793">
<ele>411</ele>
<time>2024-05-10T13:35:15Z</time>
</trkpt>
<trkpt lat="49.564315751194954" lon="8.984952857717872">
<ele>411</ele>
<time>2024-05-10T13:35:16Z</time>
</trkpt>
<trkpt lat="49.56428901292384" lon="8.984954785555601">
<ele>411</ele>
<time>2024-05-10T13:35:17Z</time>
</trkpt>
<trkpt lat="49.56426235847175" lon="8.98495671339333">
<ele>411.2</ele>
<time>2024-05-10T13:35:18Z</time>
</trkpt>
<trkpt lat="49.564235620200634" lon="8.984959563240409">
<ele>411.2</ele>
<time>2024-05-10T13:35:19Z</time>
</trkpt>
<trkpt lat="49.56420511007309" lon="8.984963335096836">
<ele>411.4</ele>
<time>2024-05-10T13:35:20Z</time>
</trkpt>
<trkpt lat="49.56417845562101" lon="8.984965262934566">
<ele>411.4</ele>
<time>2024-05-10T13:35:21Z</time>
</trkpt>
<trkpt lat="49.56415171734989" lon="8.984966268762946">
<ele>411.6</ele>
<time>2024-05-10T13:35:22Z</time>
</trkpt>
<trkpt lat="49.56412120722234" lon="8.984966268762946">
<ele>411.8</ele>
<time>2024-05-10T13:35:23Z</time>
</trkpt>
<trkpt lat="49.5640906970948" lon="8.984968112781644">
<ele>411.8</ele>
<time>2024-05-10T13:35:24Z</time>
</trkpt>
<trkpt lat="49.56406395882368" lon="8.984970040619373">
<ele>411.8</ele>
<time>2024-05-10T13:35:25Z</time>
</trkpt>
<trkpt lat="49.56403344869614" lon="8.984971968457103">
<ele>412</ele>
<time>2024-05-10T13:35:26Z</time>
</trkpt>
<trkpt lat="49.56400293856859" lon="8.98497867397964">
<ele>412</ele>
<time>2024-05-10T13:35:27Z</time>
</trkpt>
<trkpt lat="49.56397242844105" lon="8.984983367845416">
<ele>412</ele>
<time>2024-05-10T13:35:28Z</time>
</trkpt>
<trkpt lat="49.56393806263805" lon="8.984986301511526">
<ele>412</ele>
<time>2024-05-10T13:35:29Z</time>
</trkpt>
<trkpt lat="49.56391140818596" lon="8.984992923215032">
<ele>412.2</ele>
<time>2024-05-10T13:35:30Z</time>
</trkpt>
<trkpt lat="49.56387704238296" lon="8.985001556575298">
<ele>412.4</ele>
<time>2024-05-10T13:35:31Z</time>
</trkpt>
<trkpt lat="49.563842760398984" lon="8.985010106116533">
<ele>412.4</ele>
<time>2024-05-10T13:35:32Z</time>
</trkpt>
<trkpt lat="49.56381225027144" lon="8.985019661486149">
<ele>412.6</ele>
<time>2024-05-10T13:35:33Z</time>
</trkpt>
<trkpt lat="49.56378165632486" lon="8.985028211027384">
<ele>412.6</ele>
<time>2024-05-10T13:35:34Z</time>
</trkpt>
<trkpt lat="49.56375114619732" lon="8.98503684438765">
<ele>412.8</ele>
<time>2024-05-10T13:35:35Z</time>
</trkpt>
<trkpt lat="49.56372449174523" lon="8.985043466091156">
<ele>412.8</ele>
<time>2024-05-10T13:35:36Z</time>
</trkpt>
<trkpt lat="49.56369398161769" lon="8.985052099451423">
<ele>413</ele>
<time>2024-05-10T13:35:37Z</time>
</trkpt>
<trkpt lat="49.56367109902203" lon="8.985059726983309">
<ele>413.2</ele>
<time>2024-05-10T13:35:38Z</time>
</trkpt>
<trkpt lat="49.563644360750914" lon="8.985066348686814">
<ele>413.4</ele>
<time>2024-05-10T13:35:39Z</time>
</trkpt>
<trkpt lat="49.56361770629883" lon="8.985071126371622">
<ele>413.4</ele>
<time>2024-05-10T13:35:40Z</time>
</trkpt>
<trkpt lat="49.56359096802771" lon="8.985079759731889">
<ele>413.6</ele>
<time>2024-05-10T13:35:41Z</time>
</trkpt>
<trkpt lat="49.56356045790017" lon="8.985092081129551">
<ele>414</ele>
<time>2024-05-10T13:35:42Z</time>
</trkpt>
<trkpt lat="49.56352994777262" lon="8.985095014795661">
<ele>414.2</ele>
<time>2024-05-10T13:35:43Z</time>
</trkpt>
<trkpt lat="49.56349558196962" lon="8.985106414183974">
<ele>414.4</ele>
<time>2024-05-10T13:35:44Z</time>
</trkpt>
<trkpt lat="49.563465071842074" lon="8.985116891562939">
<ele>414.6</ele>
<time>2024-05-10T13:35:45Z</time>
</trkpt>
<trkpt lat="49.56343456171453" lon="8.985124519094825">
<ele>414.6</ele>
<time>2024-05-10T13:35:46Z</time>
</trkpt>
<trkpt lat="49.563404051586986" lon="8.985131224617362">
<ele>414.8</ele>
<time>2024-05-10T13:35:47Z</time>
</trkpt>
<trkpt lat="49.56337354145944" lon="8.985136924311519">
<ele>414.8</ele>
<time>2024-05-10T13:35:48Z</time>
</trkpt>
<trkpt lat="49.56335065886378" lon="8.985143629834056">
<ele>414.8</ele>
<time>2024-05-10T13:35:49Z</time>
</trkpt>
<trkpt lat="49.563323920592666" lon="8.985150335356593">
<ele>414.8</ele>
<time>2024-05-10T13:35:50Z</time>
</trkpt>
<trkpt lat="49.56329726614058" lon="8.98515796288848">
<ele>415</ele>
<time>2024-05-10T13:35:51Z</time>
</trkpt>
<trkpt lat="49.56327052786946" lon="8.985164584591985">
<ele>415</ele>
<time>2024-05-10T13:35:52Z</time>
</trkpt>
<trkpt lat="49.563243789598346" lon="8.985176989808679">
<ele>415.2</ele>
<time>2024-05-10T13:35:53Z</time>
</trkpt>
<trkpt lat="49.56321713514626" lon="8.985188473016024">
<ele>415.4</ele>
<time>2024-05-10T13:35:54Z</time>
</trkpt>
<trkpt lat="49.56318662501872" lon="8.985197022557259">
<ele>415.6</ele>
<time>2024-05-10T13:35:55Z</time>
</trkpt>
<trkpt lat="49.5631598867476" lon="8.985203728079796">
<ele>415.8</ele>
<time>2024-05-10T13:35:56Z</time>
</trkpt>
<trkpt lat="49.56313323229551" lon="8.985211355611682">
<ele>416</ele>
<time>2024-05-10T13:35:57Z</time>
</trkpt>
<trkpt lat="49.563110349699855" lon="8.985219905152917">
<ele>416.2</ele>
<time>2024-05-10T13:35:58Z</time>
</trkpt>
<trkpt lat="49.56308361142874" lon="8.985223760828376">
<ele>416.4</ele>
<time>2024-05-10T13:35:59Z</time>
</trkpt>
<trkpt lat="49.56305687315762" lon="8.98523323237896">
<ele>416.6</ele>
<time>2024-05-10T13:36:00Z</time>
</trkpt>
<trkpt lat="49.563030218705535" lon="8.985244715586305">
<ele>416.8</ele>
<time>2024-05-10T13:36:01Z</time>
</trkpt>
<trkpt lat="49.56300348043442" lon="8.985256114974618">
<ele>417.2</ele>
<time>2024-05-10T13:36:02Z</time>
</trkpt>
<trkpt lat="49.56297682598233" lon="8.985264748334885">
<ele>417.4</ele>
<time>2024-05-10T13:36:03Z</time>
</trkpt>
<trkpt lat="49.562950087711215" lon="8.985271453857422">
<ele>417.6</ele>
<time>2024-05-10T13:36:04Z</time>
</trkpt>
<trkpt lat="49.56292720511556" lon="8.985278075560927">
<ele>418</ele>
<time>2024-05-10T13:36:05Z</time>
</trkpt>
<trkpt lat="49.56290046684444" lon="8.985282853245735">
<ele>418.2</ele>
<time>2024-05-10T13:36:06Z</time>
</trkpt>
<trkpt lat="49.56287758424878" lon="8.985288552939892">
<ele>418.6</ele>
<time>2024-05-10T13:36:07Z</time>
</trkpt>
<trkpt lat="49.562850929796696" lon="8.985295258462429">
<ele>418.8</ele>
<time>2024-05-10T13:36:08Z</time>
</trkpt>
<trkpt lat="49.56282804720104" lon="8.985301963984966">
<ele>419</ele>
<time>2024-05-10T13:36:09Z</time>
</trkpt>
<trkpt lat="49.56280516460538" lon="8.985309591516852">
<ele>419.4</ele>
<time>2024-05-10T13:36:10Z</time>
</trkpt>
<trkpt lat="49.56278605386615" lon="8.985316213220358">
<ele>419.6</ele>
<time>2024-05-10T13:36:11Z</time>
</trkpt>
<trkpt lat="49.56275939941406" lon="8.985324846580625">
<ele>419.6</ele>
<time>2024-05-10T13:36:12Z</time>
</trkpt>
<trkpt lat="49.56273643299937" lon="8.985335323959589">
<ele>419.8</ele>
<time>2024-05-10T13:36:13Z</time>
</trkpt>
<trkpt lat="49.56270592287183" lon="8.985346723347902">
<ele>420.2</ele>
<time>2024-05-10T13:36:14Z</time>
</trkpt>
<trkpt lat="49.56267926841974" lon="8.985356278717518">
<ele>420.4</ele>
<time>2024-05-10T13:36:15Z</time>
</trkpt>
<trkpt lat="49.56265638582408" lon="8.985366756096482">
<ele>420.6</ele>
<time>2024-05-10T13:36:16Z</time>
</trkpt>
<trkpt lat="49.56262964755297" lon="8.985380167141557">
<ele>420.8</ele>
<time>2024-05-10T13:36:17Z</time>
</trkpt>
<trkpt lat="49.56260299310088" lon="8.98538963869214">
<ele>421</ele>
<time>2024-05-10T13:36:18Z</time>
</trkpt>
<trkpt lat="49.56257625482976" lon="8.985400199890137">
<ele>421.4</ele>
<time>2024-05-10T13:36:19Z</time>
</trkpt>
<trkpt lat="49.56254574470222" lon="8.98540967144072">
<ele>421.6</ele>
<time>2024-05-10T13:36:20Z</time>
</trkpt>
<trkpt lat="49.56251137889922" lon="8.985420148819685">
<ele>421.8</ele>
<time>2024-05-10T13:36:21Z</time>
</trkpt>
<trkpt lat="49.56248086877167" lon="8.985426854342222">
<ele>422</ele>
<time>2024-05-10T13:36:22Z</time>
</trkpt>
<trkpt lat="49.56245421431959" lon="8.98543355986476">
<ele>422</ele>
<time>2024-05-10T13:36:23Z</time>
</trkpt>
<trkpt lat="49.56242370419204" lon="8.985438337549567">
<ele>422.2</ele>
<time>2024-05-10T13:36:24Z</time>
</trkpt>
<trkpt lat="49.56240073777735" lon="8.985443115234375">
<ele>422.4</ele>
<time>2024-05-10T13:36:25Z</time>
</trkpt>
<trkpt lat="49.56237408332527" lon="8.985443115234375">
<ele>422.6</ele>
<time>2024-05-10T13:36:26Z</time>
</trkpt>
<trkpt lat="49.56234734505415" lon="8.985436409711838">
<ele>422.8</ele>
<time>2024-05-10T13:36:27Z</time>
</trkpt>
<trkpt lat="49.56232446245849" lon="8.985426854342222">
<ele>423.2</ele>
<time>2024-05-10T13:36:28Z</time>
</trkpt>
<trkpt lat="49.562297808006406" lon="8.985420148819685">
<ele>423.4</ele>
<time>2024-05-10T13:36:29Z</time>
</trkpt>
<trkpt lat="49.56227492541075" lon="8.985416376963258">
<ele>423.6</ele>
<time>2024-05-10T13:36:30Z</time>
</trkpt>
<trkpt lat="49.56224818713963" lon="8.98541159927845">
<ele>424</ele>
<time>2024-05-10T13:36:31Z</time>
</trkpt>
<trkpt lat="49.56222144886851" lon="8.985406821593642">
<ele>424.2</ele>
<time>2024-05-10T13:36:32Z</time>
</trkpt>
<trkpt lat="49.56219479441643" lon="8.985403049737215">
<ele>424.4</ele>
<time>2024-05-10T13:36:33Z</time>
</trkpt>
<trkpt lat="49.56216805614531" lon="8.985400199890137">
<ele>424.6</ele>
<time>2024-05-10T13:36:34Z</time>
</trkpt>
<trkpt lat="49.562141401693225" lon="8.985396344214678">
<ele>424.8</ele>
<time>2024-05-10T13:36:35Z</time>
</trkpt>
<trkpt lat="49.56210703589022" lon="8.98539156652987">
<ele>425</ele>
<time>2024-05-10T13:36:36Z</time>
</trkpt>
<trkpt lat="49.56207652576268" lon="8.985386788845062">
<ele>425.2</ele>
<time>2024-05-10T13:36:37Z</time>
</trkpt>
<trkpt lat="49.562042159959674" lon="8.985384861007333">
<ele>425.4</ele>
<time>2024-05-10T13:36:38Z</time>
</trkpt>
<trkpt lat="49.56201164983213" lon="8.985382011160254">
<ele>425.6</ele>
<time>2024-05-10T13:36:39Z</time>
</trkpt>
<trkpt lat="49.56197736784816" lon="8.985375389456749">
<ele>425.8</ele>
<time>2024-05-10T13:36:40Z</time>
</trkpt>
<trkpt lat="49.56194685772061" lon="8.98536960594356">
<ele>426</ele>
<time>2024-05-10T13:36:41Z</time>
</trkpt>
<trkpt lat="49.561920119449496" lon="8.985368683934212">
<ele>426</ele>
<time>2024-05-10T13:36:42Z</time>
</trkpt>
<trkpt lat="49.56188960932195" lon="8.985366756096482">
<ele>426.2</ele>
<time>2024-05-10T13:36:43Z</time>
</trkpt>
<trkpt lat="49.56185909919441" lon="8.985362984240055">
<ele>426.4</ele>
<time>2024-05-10T13:36:44Z</time>
</trkpt>
<trkpt lat="49.56182858906686" lon="8.985361978411674">
<ele>426.6</ele>
<time>2024-05-10T13:36:45Z</time>
</trkpt>
<trkpt lat="49.56179807893932" lon="8.985358206555247">
<ele>426.8</ele>
<time>2024-05-10T13:36:46Z</time>
</trkpt>
<trkpt lat="49.561763713136315" lon="8.985356278717518">
<ele>426.8</ele>
<time>2024-05-10T13:36:47Z</time>
</trkpt>
<trkpt lat="49.561729431152344" lon="8.985356278717518">
<ele>427</ele>
<time>2024-05-10T13:36:48Z</time>
</trkpt>
<trkpt lat="49.56169506534934" lon="8.985356278717518">
<ele>427.2</ele>
<time>2024-05-10T13:36:49Z</time>
</trkpt>
<trkpt lat="49.56166069954634" lon="8.985356278717518">
<ele>427.4</ele>
<time>2024-05-10T13:36:50Z</time>
</trkpt>
<trkpt lat="49.561626417562366" lon="8.985358206555247">
<ele>427.6</ele>
<time>2024-05-10T13:36:51Z</time>
</trkpt>
<trkpt lat="49.56159205175936" lon="8.985358206555247">
<ele>427.6</ele>
<time>2024-05-10T13:36:52Z</time>
</trkpt>
<trkpt lat="49.56155776977539" lon="8.985358206555247">
<ele>427.8</ele>
<time>2024-05-10T13:36:53Z</time>
</trkpt>
<trkpt lat="49.56152340397239" lon="8.985360134392977">
<ele>427.8</ele>
<time>2024-05-10T13:36:54Z</time>
</trkpt>
<trkpt lat="49.56148526631296" lon="8.985360134392977">
<ele>428</ele>
<time>2024-05-10T13:36:55Z</time>
</trkpt>
<trkpt lat="49.56145090050995" lon="8.985361978411674">
<ele>428</ele>
<time>2024-05-10T13:36:56Z</time>
</trkpt>
<trkpt lat="49.56141661852598" lon="8.985368683934212">
<ele>428.2</ele>
<time>2024-05-10T13:36:57Z</time>
</trkpt>
<trkpt lat="49.56137839704752" lon="8.98537346161902">
<ele>428.2</ele>
<time>2024-05-10T13:36:58Z</time>
</trkpt>
<trkpt lat="49.56134411506355" lon="8.985382011160254">
<ele>428.4</ele>
<time>2024-05-10T13:36:59Z</time>
</trkpt>
<trkpt lat="49.56130597740412" lon="8.98538963869214">
<ele>428.6</ele>
<time>2024-05-10T13:37:00Z</time>
</trkpt>
<trkpt lat="49.561271611601114" lon="8.985400199890137">
<ele>428.8</ele>
<time>2024-05-10T13:37:01Z</time>
</trkpt>
<trkpt lat="49.56123347394168" lon="8.98540967144072">
<ele>429</ele>
<time>2024-05-10T13:37:02Z</time>
</trkpt>
<trkpt lat="49.56119533628225" lon="8.985423082485795">
<ele>429</ele>
<time>2024-05-10T13:37:03Z</time>
</trkpt>
<trkpt lat="49.56115719862282" lon="8.985436409711838">
<ele>429.2</ele>
<time>2024-05-10T13:37:04Z</time>
</trkpt>
<trkpt lat="49.56111906096339" lon="8.98545166477561">
<ele>429.4</ele>
<time>2024-05-10T13:37:05Z</time>
</trkpt>
<trkpt lat="49.56108469516039" lon="8.985463064163923">
<ele>429.6</ele>
<time>2024-05-10T13:37:06Z</time>
</trkpt>
<trkpt lat="49.56105041317642" lon="8.98547169752419">
<ele>429.8</ele>
<time>2024-05-10T13:37:07Z</time>
</trkpt>
<trkpt lat="49.561016047373414" lon="8.985478319227695">
<ele>430</ele>
<time>2024-05-10T13:37:08Z</time>
</trkpt>
<trkpt lat="49.56098168157041" lon="8.985481252893806">
<ele>430.2</ele>
<time>2024-05-10T13:37:09Z</time>
</trkpt>
<trkpt lat="49.56094354391098" lon="8.985485024750233">
<ele>430.4</ele>
<time>2024-05-10T13:37:10Z</time>
</trkpt>
<trkpt lat="49.56090540625155" lon="8.985485024750233">
<ele>430.4</ele>
<time>2024-05-10T13:37:11Z</time>
</trkpt>
<trkpt lat="49.56086726859212" lon="8.985481252893806">
<ele>430.6</ele>
<time>2024-05-10T13:37:12Z</time>
</trkpt>
<trkpt lat="49.56082913093269" lon="8.985478319227695">
<ele>430.8</ele>
<time>2024-05-10T13:37:13Z</time>
</trkpt>
<trkpt lat="49.5607871375978" lon="8.98547169752419">
<ele>431</ele>
<time>2024-05-10T13:37:14Z</time>
</trkpt>
<trkpt lat="49.56074899993837" lon="8.985466919839382">
<ele>431</ele>
<time>2024-05-10T13:37:15Z</time>
</trkpt>
<trkpt lat="49.56070709042251" lon="8.985460214316845">
<ele>431.2</ele>
<time>2024-05-10T13:37:16Z</time>
</trkpt>
<trkpt lat="49.56066886894405" lon="8.98545359261334">
<ele>431.2</ele>
<time>2024-05-10T13:37:17Z</time>
</trkpt>
<trkpt lat="49.56063073128462" lon="8.985443115234375">
<ele>431.4</ele>
<time>2024-05-10T13:37:18Z</time>
</trkpt>
<trkpt lat="49.56058882176876" lon="8.985435403883457">
<ele>431.4</ele>
<time>2024-05-10T13:37:19Z</time>
</trkpt>
<trkpt lat="49.56055068410933" lon="8.985424926504493">
<ele>431.6</ele>
<time>2024-05-10T13:37:20Z</time>
</trkpt>
<trkpt lat="49.56051631830633" lon="8.98541352711618">
<ele>431.6</ele>
<time>2024-05-10T13:37:21Z</time>
</trkpt>
<trkpt lat="49.560478180646896" lon="8.985404893755913">
<ele>431.8</ele>
<time>2024-05-10T13:37:22Z</time>
</trkpt>
<trkpt lat="49.560440042987466" lon="8.985395422205329">
<ele>431.8</ele>
<time>2024-05-10T13:37:23Z</time>
</trkpt>
<trkpt lat="49.56040567718446" lon="8.985383016988635">
<ele>431.8</ele>
<time>2024-05-10T13:37:24Z</time>
</trkpt>
<trkpt lat="49.56037139520049" lon="8.985368683934212">
<ele>432</ele>
<time>2024-05-10T13:37:25Z</time>
</trkpt>
<trkpt lat="49.56033702939749" lon="8.98535342887044">
<ele>432</ele>
<time>2024-05-10T13:37:26Z</time>
</trkpt>
<trkpt lat="49.56030651926994" lon="8.985336245968938">
<ele>432.2</ele>
<time>2024-05-10T13:37:27Z</time>
</trkpt>
<trkpt lat="49.56027215346694" lon="8.985320068895817">
<ele>432.4</ele>
<time>2024-05-10T13:37:28Z</time>
</trkpt>
<trkpt lat="49.56023787148297" lon="8.985302885994315">
<ele>432.6</ele>
<time>2024-05-10T13:37:29Z</time>
</trkpt>
<trkpt lat="49.560207361355424" lon="8.985282853245735">
<ele>432.8</ele>
<time>2024-05-10T13:37:30Z</time>
</trkpt>
<trkpt lat="49.56017299555242" lon="8.985263742506504">
<ele>433</ele>
<time>2024-05-10T13:37:31Z</time>
</trkpt>
<trkpt lat="49.56013862974942" lon="8.985242787748575">
<ele>433.2</ele>
<time>2024-05-10T13:37:32Z</time>
</trkpt>
<trkpt lat="49.56010811962187" lon="8.985224682837725">
<ele>433.2</ele>
<time>2024-05-10T13:37:33Z</time>
</trkpt>
<trkpt lat="49.5600738376379" lon="8.985208505764604">
<ele>433.4</ele>
<time>2024-05-10T13:37:34Z</time>
</trkpt>
<trkpt lat="49.5600394718349" lon="8.985193250700831">
<ele>433.4</ele>
<time>2024-05-10T13:37:35Z</time>
</trkpt>
<trkpt lat="49.560005106031895" lon="8.985176989808679">
<ele>433.6</ele>
<time>2024-05-10T13:37:36Z</time>
</trkpt>
<trkpt lat="49.55997082404792" lon="8.985159806907177">
<ele>433.6</ele>
<time>2024-05-10T13:37:37Z</time>
</trkpt>
<trkpt lat="49.55993645824492" lon="8.985141701996326">
<ele>433.8</ele>
<time>2024-05-10T13:37:38Z</time>
</trkpt>
<trkpt lat="49.55990217626095" lon="8.985121669247746">
<ele>433.8</ele>
<time>2024-05-10T13:37:39Z</time>
</trkpt>
<trkpt lat="49.559867810457945" lon="8.985103564336896">
<ele>433.6</ele>
<time>2024-05-10T13:37:40Z</time>
</trkpt>
<trkpt lat="49.55983344465494" lon="8.985083531588316">
<ele>433.6</ele>
<time>2024-05-10T13:37:41Z</time>
</trkpt>
<trkpt lat="49.5598029345274" lon="8.985065426677465">
<ele>433.6</ele>
<time>2024-05-10T13:37:42Z</time>
</trkpt>
<trkpt lat="49.559768652543426" lon="8.985043466091156">
<ele>433.6</ele>
<time>2024-05-10T13:37:43Z</time>
</trkpt>
<trkpt lat="49.55973428674042" lon="8.985021589323878">
<ele>433.6</ele>
<time>2024-05-10T13:37:44Z</time>
</trkpt>
<trkpt lat="49.55970377661288" lon="8.984999628737569">
<ele>433.8</ele>
<time>2024-05-10T13:37:45Z</time>
</trkpt>
<trkpt lat="49.559669494628906" lon="8.98497867397964">
<ele>433.8</ele>
<time>2024-05-10T13:37:46Z</time>
</trkpt>
<trkpt lat="49.55963890068233" lon="8.984954785555601">
<ele>433.8</ele>
<time>2024-05-10T13:37:47Z</time>
</trkpt>
<trkpt lat="49.559608390554786" lon="8.984931902959943">
<ele>434</ele>
<time>2024-05-10T13:37:48Z</time>
</trkpt>
<trkpt lat="49.55957788042724" lon="8.984909942373633">
<ele>434</ele>
<time>2024-05-10T13:37:49Z</time>
</trkpt>
<trkpt lat="49.5595473702997" lon="8.984886137768626">
<ele>434.2</ele>
<time>2024-05-10T13:37:50Z</time>
</trkpt>
<trkpt lat="49.55952448770404" lon="8.984867027029395">
<ele>434.4</ele>
<time>2024-05-10T13:37:51Z</time>
</trkpt>
<trkpt lat="49.55950160510838" lon="8.984848000109196">
<ele>434.6</ele>
<time>2024-05-10T13:37:52Z</time>
</trkpt>
<trkpt lat="49.55947872251272" lon="8.984829895198345">
<ele>434.8</ele>
<time>2024-05-10T13:37:53Z</time>
</trkpt>
<trkpt lat="49.55945961177349" lon="8.984811706468463">
<ele>435</ele>
<time>2024-05-10T13:37:54Z</time>
</trkpt>
<trkpt lat="49.55943672917783" lon="8.984793601557612">
<ele>435</ele>
<time>2024-05-10T13:37:55Z</time>
</trkpt>
<trkpt lat="49.559413846582174" lon="8.98477641865611">
<ele>435.2</ele>
<time>2024-05-10T13:37:56Z</time>
</trkpt>
<trkpt lat="49.55938719213009" lon="8.984763091430068">
<ele>435.2</ele>
<time>2024-05-10T13:37:57Z</time>
</trkpt>
<trkpt lat="49.55936430953443" lon="8.984746914356947">
<ele>435.4</ele>
<time>2024-05-10T13:37:58Z</time>
</trkpt>
<trkpt lat="49.55933757126331" lon="8.984727803617716">
<ele>435.4</ele>
<time>2024-05-10T13:37:59Z</time>
</trkpt>
<trkpt lat="49.55931083299219" lon="8.984708776697516">
<ele>435.6</ele>
<time>2024-05-10T13:38:00Z</time>
</trkpt>
<trkpt lat="49.55928417854011" lon="8.984689665958285">
<ele>435.8</ele>
<time>2024-05-10T13:38:01Z</time>
</trkpt>
<trkpt lat="49.55925744026899" lon="8.984669633209705">
<ele>435.8</ele>
<time>2024-05-10T13:38:02Z</time>
</trkpt>
<trkpt lat="49.55922693014145" lon="8.984648678451777">
<ele>436</ele>
<time>2024-05-10T13:38:03Z</time>
</trkpt>
<trkpt lat="49.55920027568936" lon="8.984626717865467">
<ele>436</ele>
<time>2024-05-10T13:38:04Z</time>
</trkpt>
<trkpt lat="49.559173537418246" lon="8.984606685116887">
<ele>436</ele>
<time>2024-05-10T13:38:05Z</time>
</trkpt>
<trkpt lat="49.5591430272907" lon="8.984586652368307">
<ele>436.2</ele>
<time>2024-05-10T13:38:06Z</time>
</trkpt>
<trkpt lat="49.559116289019585" lon="8.984569469466805">
<ele>436.2</ele>
<time>2024-05-10T13:38:07Z</time>
</trkpt>
<trkpt lat="49.55908577889204" lon="8.984553292393684">
<ele>436.4</ele>
<time>2024-05-10T13:38:08Z</time>
</trkpt>
<trkpt lat="49.559055268764496" lon="8.984538037329912">
<ele>436.6</ele>
<time>2024-05-10T13:38:09Z</time>
</trkpt>
<trkpt lat="49.55902475863695" lon="8.984519932419062">
<ele>436.6</ele>
<time>2024-05-10T13:38:10Z</time>
</trkpt>
<trkpt lat="49.558998104184866" lon="8.984501827508211">
<ele>436.8</ele>
<time>2024-05-10T13:38:11Z</time>
</trkpt>
<trkpt lat="49.55897136591375" lon="8.984483638778329">
<ele>437</ele>
<time>2024-05-10T13:38:12Z</time>
</trkpt>
<trkpt lat="49.55894848331809" lon="8.98446461185813">
<ele>437.4</ele>
<time>2024-05-10T13:38:13Z</time>
</trkpt>
<trkpt lat="49.55892174504697" lon="8.984448350965977">
<ele>437.6</ele>
<time>2024-05-10T13:38:14Z</time>
</trkpt>
<trkpt lat="49.558898862451315" lon="8.984433095902205">
<ele>437.8</ele>
<time>2024-05-10T13:38:15Z</time>
</trkpt>
<trkpt lat="49.55887597985566" lon="8.984416918829083">
<ele>438</ele>
<time>2024-05-10T13:38:16Z</time>
</trkpt>
<trkpt lat="49.55885695293546" lon="8.984401663765311">
<ele>438.2</ele>
<time>2024-05-10T13:38:17Z</time>
</trkpt>
<trkpt lat="49.558837842196226" lon="8.984390180557966">
<ele>438.2</ele>
<time>2024-05-10T13:38:18Z</time>
</trkpt>
<trkpt lat="49.55881495960057" lon="8.984379703179002">
<ele>438.4</ele>
<time>2024-05-10T13:38:19Z</time>
</trkpt>
<trkpt lat="49.55879207700491" lon="8.984370231628418">
<ele>438.4</ele>
<time>2024-05-10T13:38:20Z</time>
</trkpt>
<trkpt lat="49.55876919440925" lon="8.984361598268151">
<ele>438.6</ele>
<time>2024-05-10T13:38:21Z</time>
</trkpt>
<trkpt lat="49.55874631181359" lon="8.984352042898536">
<ele>438.6</ele>
<time>2024-05-10T13:38:22Z</time>
</trkpt>
<trkpt lat="49.55872720107436" lon="8.984338715672493">
<ele>438.8</ele>
<time>2024-05-10T13:38:23Z</time>
</trkpt>
<trkpt lat="49.55871194601059" lon="8.984326310455799">
<ele>438.8</ele>
<time>2024-05-10T13:38:24Z</time>
</trkpt>
<trkpt lat="49.5587043184787" lon="8.984319604933262">
<ele>439</ele>
<time>2024-05-10T13:38:25Z</time>
</trkpt>
<trkpt lat="49.55870054662227" lon="8.984318682923913">
<ele>439</ele>
<time>2024-05-10T13:38:26Z</time>
</trkpt>
<trkpt lat="49.55870054662227" lon="8.984316755086184">
<ele>439.2</ele>
<time>2024-05-10T13:38:27Z</time>
</trkpt>
<trkpt lat="49.55870054662227" lon="8.984318682923913">
<ele>439.2</ele>
<time>2024-05-10T13:38:28Z</time>
</trkpt>
<trkpt lat="49.5587043184787" lon="8.984318682923913">
<ele>439.4</ele>
<time>2024-05-10T13:38:38Z</time>
</trkpt>
<trkpt lat="49.55870054662227" lon="8.984318682923913">
<ele>439.4</ele>
<time>2024-05-10T13:38:39Z</time>
</trkpt>
<trkpt lat="49.55869669094682" lon="8.984314911067486">
<ele>439.4</ele>
<time>2024-05-10T13:38:40Z</time>
</trkpt>
<trkpt lat="49.558685291558504" lon="8.984312983229756">
<ele>439.4</ele>
<time>2024-05-10T13:38:41Z</time>
</trkpt>
<trkpt lat="49.55867766402662" lon="8.984316755086184">
<ele>439.4</ele>
<time>2024-05-10T13:38:42Z</time>
</trkpt>
<trkpt lat="49.55867003649473" lon="8.984314911067486">
<ele>439.4</ele>
<time>2024-05-10T13:38:43Z</time>
</trkpt>
<trkpt lat="49.5586509257555" lon="8.984319604933262">
<ele>439.2</ele>
<time>2024-05-10T13:38:44Z</time>
</trkpt>
<trkpt lat="49.55863181501627" lon="8.984321532770991">
<ele>439.2</ele>
<time>2024-05-10T13:38:45Z</time>
</trkpt>
<trkpt lat="49.5586165599525" lon="8.984319604933262">
<ele>439</ele>
<time>2024-05-10T13:38:46Z</time>
</trkpt>
<trkpt lat="49.55859367735684" lon="8.984321532770991">
<ele>439</ele>
<time>2024-05-10T13:38:47Z</time>
</trkpt>
<trkpt lat="49.55857842229307" lon="8.984326310455799">
<ele>439</ele>
<time>2024-05-10T13:38:48Z</time>
</trkpt>
<trkpt lat="49.55855939537287" lon="8.984341565519571">
<ele>438.8</ele>
<time>2024-05-10T13:38:49Z</time>
</trkpt>
<trkpt lat="49.558544140309095" lon="8.984357826411724">
<ele>438.8</ele>
<time>2024-05-10T13:38:50Z</time>
</trkpt>
<trkpt lat="49.55852888524532" lon="8.984374925494194">
<ele>438.8</ele>
<time>2024-05-10T13:38:51Z</time>
</trkpt>
<trkpt lat="49.55850977450609" lon="8.984390180557966">
<ele>438.8</ele>
<time>2024-05-10T13:38:52Z</time>
</trkpt>
<trkpt lat="49.55849451944232" lon="8.984408369287848">
<ele>439</ele>
<time>2024-05-10T13:38:53Z</time>
</trkpt>
<trkpt lat="49.55847926437855" lon="8.984430246055126">
<ele>439.2</ele>
<time>2024-05-10T13:38:54Z</time>
</trkpt>
<trkpt lat="49.558464009314775" lon="8.984455056488514">
<ele>439.4</ele>
<time>2024-05-10T13:38:55Z</time>
</trkpt>
<trkpt lat="49.558444898575544" lon="8.984479866921902">
<ele>439.6</ele>
<time>2024-05-10T13:38:56Z</time>
</trkpt>
<trkpt lat="49.558425871655345" lon="8.98450467735529">
<ele>439.8</ele>
<time>2024-05-10T13:38:57Z</time>
</trkpt>
<trkpt lat="49.558406760916114" lon="8.984529487788677">
<ele>440</ele>
<time>2024-05-10T13:38:58Z</time>
</trkpt>
<trkpt lat="49.558383878320456" lon="8.984556142240763">
<ele>440</ele>
<time>2024-05-10T13:38:59Z</time>
</trkpt>
<trkpt lat="49.558364851400256" lon="8.98458288051188">
<ele>440.2</ele>
<time>2024-05-10T13:39:00Z</time>
</trkpt>
<trkpt lat="49.55834959633648" lon="8.984608612954617">
<ele>440.4</ele>
<time>2024-05-10T13:39:01Z</time>
</trkpt>
<trkpt lat="49.558326713740826" lon="8.984636273235083">
<ele>440.6</ele>
<time>2024-05-10T13:39:02Z</time>
</trkpt>
<trkpt lat="49.558307603001595" lon="8.984664855524898">
<ele>440.8</ele>
<time>2024-05-10T13:39:03Z</time>
</trkpt>
<trkpt lat="49.55828849226236" lon="8.984693521633744">
<ele>441</ele>
<time>2024-05-10T13:39:04Z</time>
</trkpt>
<trkpt lat="49.55827323719859" lon="8.984723025932908">
<ele>441.2</ele>
<time>2024-05-10T13:39:05Z</time>
</trkpt>
<trkpt lat="49.55825421027839" lon="8.984747836366296">
<ele>441.4</ele>
<time>2024-05-10T13:39:06Z</time>
</trkpt>
<trkpt lat="49.55823509953916" lon="8.984773568809032">
<ele>441.6</ele>
<time>2024-05-10T13:39:07Z</time>
</trkpt>
<trkpt lat="49.55821984447539" lon="8.98479645140469">
<ele>441.8</ele>
<time>2024-05-10T13:39:08Z</time>
</trkpt>
<trkpt lat="49.558204589411616" lon="8.98482033982873">
<ele>442</ele>
<time>2024-05-10T13:39:09Z</time>
</trkpt>
<trkpt lat="49.55818933434784" lon="8.98484037257731">
<ele>442.2</ele>
<time>2024-05-10T13:39:10Z</time>
</trkpt>
<trkpt lat="49.558170307427645" lon="8.984861327335238">
<ele>442.4</ele>
<time>2024-05-10T13:39:11Z</time>
</trkpt>
<trkpt lat="49.558151196688414" lon="8.984881360083818">
<ele>442.6</ele>
<time>2024-05-10T13:39:12Z</time>
</trkpt>
<trkpt lat="49.55813594162464" lon="8.984905164688826">
<ele>442.6</ele>
<time>2024-05-10T13:39:13Z</time>
</trkpt>
<trkpt lat="49.55811683088541" lon="8.984931902959943">
<ele>442.8</ele>
<time>2024-05-10T13:39:14Z</time>
</trkpt>
<trkpt lat="49.55810157582164" lon="8.98495671339333">
<ele>442.8</ele>
<time>2024-05-10T13:39:15Z</time>
</trkpt>
<trkpt lat="49.558086320757866" lon="8.984981523826718">
<ele>443</ele>
<time>2024-05-10T13:39:16Z</time>
</trkpt>
<trkpt lat="49.558071065694094" lon="8.985006250441074">
<ele>443.2</ele>
<time>2024-05-10T13:39:17Z</time>
</trkpt>
<trkpt lat="49.55805966630578" lon="8.985032066702843">
<ele>443.4</ele>
<time>2024-05-10T13:39:18Z</time>
</trkpt>
<trkpt lat="49.558048183098435" lon="8.98505687713623">
<ele>443.6</ele>
<time>2024-05-10T13:39:19Z</time>
</trkpt>
<trkpt lat="49.55803678371012" lon="8.985079759731889">
<ele>443.8</ele>
<time>2024-05-10T13:39:20Z</time>
</trkpt>
<trkpt lat="49.55802152864635" lon="8.985104486346245">
<ele>443.8</ele>
<time>2024-05-10T13:39:21Z</time>
</trkpt>
<trkpt lat="49.558010045439005" lon="8.985130302608013">
<ele>444</ele>
<time>2024-05-10T13:39:22Z</time>
</trkpt>
<trkpt lat="49.55799479037523" lon="8.98515502922237">
<ele>444.2</ele>
<time>2024-05-10T13:39:23Z</time>
</trkpt>
<trkpt lat="49.55797953531146" lon="8.985181767493486">
<ele>444.2</ele>
<time>2024-05-10T13:39:24Z</time>
</trkpt>
<trkpt lat="49.55796813592315" lon="8.985210349783301">
<ele>444.4</ele>
<time>2024-05-10T13:39:25Z</time>
</trkpt>
<trkpt lat="49.5579566527158" lon="8.985238010063767">
<ele>444.6</ele>
<time>2024-05-10T13:39:26Z</time>
</trkpt>
<trkpt lat="49.55794516950846" lon="8.985268520191312">
<ele>444.8</ele>
<time>2024-05-10T13:39:27Z</time>
</trkpt>
<trkpt lat="49.557933770120144" lon="8.985300036147237">
<ele>444.8</ele>
<time>2024-05-10T13:39:28Z</time>
</trkpt>
<trkpt lat="49.5579222869128" lon="8.98533146828413">
<ele>445</ele>
<time>2024-05-10T13:39:29Z</time>
</trkpt>
<trkpt lat="49.557910887524486" lon="8.985361978411674">
<ele>445.2</ele>
<time>2024-05-10T13:39:30Z</time>
</trkpt>
<trkpt lat="49.55789940431714" lon="8.98538963869214">
<ele>445.4</ele>
<time>2024-05-10T13:39:31Z</time>
</trkpt>
<trkpt lat="49.55788800492883" lon="8.985420148819685">
<ele>445.4</ele>
<time>2024-05-10T13:39:32Z</time>
</trkpt>
<trkpt lat="49.55787652172148" lon="8.98544973693788">
<ele>445.6</ele>
<time>2024-05-10T13:39:33Z</time>
</trkpt>
<trkpt lat="49.55786512233317" lon="8.985478319227695">
<ele>445.8</ele>
<time>2024-05-10T13:39:34Z</time>
</trkpt>
<trkpt lat="49.55785749480128" lon="8.985507907345891">
<ele>446</ele>
<time>2024-05-10T13:39:35Z</time>
</trkpt>
<trkpt lat="49.5578498672694" lon="8.985538417473435">
<ele>446</ele>
<time>2024-05-10T13:39:36Z</time>
</trkpt>
<trkpt lat="49.55783838406205" lon="8.985567083582282">
<ele>446.2</ele>
<time>2024-05-10T13:39:37Z</time>
</trkpt>
<trkpt lat="49.55782698467374" lon="8.985593738034368">
<ele>446.4</ele>
<time>2024-05-10T13:39:38Z</time>
</trkpt>
<trkpt lat="49.55781935714185" lon="8.985623326152563">
<ele>446.6</ele>
<time>2024-05-10T13:39:39Z</time>
</trkpt>
<trkpt lat="49.557811729609966" lon="8.985651908442378">
<ele>446.8</ele>
<time>2024-05-10T13:39:40Z</time>
</trkpt>
<trkpt lat="49.55780410207808" lon="8.985681496560574">
<ele>446.8</ele>
<time>2024-05-10T13:39:41Z</time>
</trkpt>
<trkpt lat="49.557796474546194" lon="8.98570823483169">
<ele>447</ele>
<time>2024-05-10T13:39:42Z</time>
</trkpt>
<trkpt lat="49.55778499133885" lon="8.985738744959235">
<ele>447</ele>
<time>2024-05-10T13:39:43Z</time>
</trkpt>
<trkpt lat="49.55777736380696" lon="8.985770177096128">
<ele>447.2</ele>
<time>2024-05-10T13:39:44Z</time>
</trkpt>
<trkpt lat="49.55776973627508" lon="8.985799765214324">
<ele>447.4</ele>
<time>2024-05-10T13:39:45Z</time>
</trkpt>
<trkpt lat="49.55775825306773" lon="8.985830275341868">
<ele>447.4</ele>
<time>2024-05-10T13:39:46Z</time>
</trkpt>
<trkpt lat="49.557750625535846" lon="8.985861707478762">
<ele>447.6</ele>
<time>2024-05-10T13:39:47Z</time>
</trkpt>
<trkpt lat="49.55773922614753" lon="8.985893223434687">
<ele>447.6</ele>
<time>2024-05-10T13:39:48Z</time>
</trkpt>
<trkpt lat="49.557731598615646" lon="8.98592658340931">
<ele>447.6</ele>
<time>2024-05-10T13:39:49Z</time>
</trkpt>
<trkpt lat="49.5577201154083" lon="8.985959943383932">
<ele>447.6</ele>
<time>2024-05-10T13:39:50Z</time>
</trkpt>
<trkpt lat="49.55770871601999" lon="8.985993303358555">
<ele>447.6</ele>
<time>2024-05-10T13:39:51Z</time>
</trkpt>
<trkpt lat="49.5577010884881" lon="8.986028591170907">
<ele>447.6</ele>
<time>2024-05-10T13:39:52Z</time>
</trkpt>
<trkpt lat="49.557693460956216" lon="8.98606295697391">
<ele>447.4</ele>
<time>2024-05-10T13:39:53Z</time>
</trkpt>
<trkpt lat="49.55768197774887" lon="8.986100172623992">
<ele>447.4</ele>
<time>2024-05-10T13:39:54Z</time>
</trkpt>
<trkpt lat="49.557674350216985" lon="8.986135460436344">
<ele>447.6</ele>
<time>2024-05-10T13:39:55Z</time>
</trkpt>
<trkpt lat="49.5576667226851" lon="8.986169742420316">
<ele>447.6</ele>
<time>2024-05-10T13:39:56Z</time>
</trkpt>
<trkpt lat="49.55765909515321" lon="8.986205030232668">
<ele>447.8</ele>
<time>2024-05-10T13:39:57Z</time>
</trkpt>
<trkpt lat="49.557651467621326" lon="8.98624031804502">
<ele>447.8</ele>
<time>2024-05-10T13:39:58Z</time>
</trkpt>
<trkpt lat="49.55764006823301" lon="8.986274683848023">
<ele>448</ele>
<time>2024-05-10T13:39:59Z</time>
</trkpt>
<trkpt lat="49.557636212557554" lon="8.986309971660376">
<ele>448.2</ele>
<time>2024-05-10T13:40:00Z</time>
</trkpt>
<trkpt lat="49.55762858502567" lon="8.986348109319806">
<ele>448.2</ele>
<time>2024-05-10T13:40:01Z</time>
</trkpt>
<trkpt lat="49.55762481316924" lon="8.986383397132158">
<ele>448.4</ele>
<time>2024-05-10T13:40:02Z</time>
</trkpt>
<trkpt lat="49.557613329961896" lon="8.986416757106781">
<ele>448.6</ele>
<time>2024-05-10T13:40:03Z</time>
</trkpt>
<trkpt lat="49.55760570243001" lon="8.986453050747514">
<ele>448.6</ele>
<time>2024-05-10T13:40:04Z</time>
</trkpt>
<trkpt lat="49.55760184675455" lon="8.986488338559866">
<ele>448.8</ele>
<time>2024-05-10T13:40:05Z</time>
</trkpt>
<trkpt lat="49.55759044736624" lon="8.986523626372218">
<ele>448.8</ele>
<time>2024-05-10T13:40:06Z</time>
</trkpt>
<trkpt lat="49.55758659169078" lon="8.98655983619392">
<ele>449</ele>
<time>2024-05-10T13:40:07Z</time>
</trkpt>
<trkpt lat="49.55757896415889" lon="8.986595124006271">
<ele>449.2</ele>
<time>2024-05-10T13:40:08Z</time>
</trkpt>
<trkpt lat="49.55757133662701" lon="8.986628483980894">
<ele>449.4</ele>
<time>2024-05-10T13:40:09Z</time>
</trkpt>
<trkpt lat="49.55756756477058" lon="8.986663771793246">
<ele>449.6</ele>
<time>2024-05-10T13:40:10Z</time>
</trkpt>
<trkpt lat="49.55755993723869" lon="8.986699981614947">
<ele>449.8</ele>
<time>2024-05-10T13:40:11Z</time>
</trkpt>
<trkpt lat="49.557556081563234" lon="8.9867352694273">
<ele>449.8</ele>
<time>2024-05-10T13:40:12Z</time>
</trkpt>
<trkpt lat="49.55754845403135" lon="8.986771563068032">
<ele>450</ele>
<time>2024-05-10T13:40:13Z</time>
</trkpt>
<trkpt lat="49.55754468217492" lon="8.986809700727463">
<ele>450</ele>
<time>2024-05-10T13:40:14Z</time>
</trkpt>
<trkpt lat="49.557537054643035" lon="8.986846916377544">
<ele>450.2</ele>
<time>2024-05-10T13:40:15Z</time>
</trkpt>
<trkpt lat="49.557533198967576" lon="8.986883126199245">
<ele>450.2</ele>
<time>2024-05-10T13:40:16Z</time>
</trkpt>
<trkpt lat="49.55752557143569" lon="8.986921263858676">
<ele>450.4</ele>
<time>2024-05-10T13:40:17Z</time>
</trkpt>
<trkpt lat="49.55751794390381" lon="8.986960407346487">
<ele>450.4</ele>
<time>2024-05-10T13:40:18Z</time>
</trkpt>
<trkpt lat="49.55751031637192" lon="8.986998545005918">
<ele>450.6</ele>
<time>2024-05-10T13:40:19Z</time>
</trkpt>
<trkpt lat="49.55750268884003" lon="8.987034754827619">
<ele>450.6</ele>
<time>2024-05-10T13:40:20Z</time>
</trkpt>
<trkpt lat="49.557495061308146" lon="8.9870719704777">
<ele>450.8</ele>
<time>2024-05-10T13:40:21Z</time>
</trkpt>
<trkpt lat="49.55748743377626" lon="8.98711010813713">
<ele>451</ele>
<time>2024-05-10T13:40:22Z</time>
</trkpt>
<trkpt lat="49.55747980624437" lon="8.987152017652988">
<ele>451.2</ele>
<time>2024-05-10T13:40:23Z</time>
</trkpt>
<trkpt lat="49.55747217871249" lon="8.987188311293721">
<ele>451.4</ele>
<time>2024-05-10T13:40:24Z</time>
</trkpt>
<trkpt lat="49.55746840685606" lon="8.987217899411917">
<ele>451.6</ele>
<time>2024-05-10T13:40:25Z</time>
</trkpt>
<trkpt lat="49.5574645511806" lon="8.987250253558159">
<ele>451.8</ele>
<time>2024-05-10T13:40:26Z</time>
</trkpt>
<trkpt lat="49.557456923648715" lon="8.987276991829276">
<ele>451.8</ele>
<time>2024-05-10T13:40:27Z</time>
</trkpt>
<trkpt lat="49.557456923648715" lon="8.98731135763228">
<ele>452</ele>
<time>2024-05-10T13:40:28Z</time>
</trkpt>
<trkpt lat="49.55745315179229" lon="8.98734848946333">
<ele>452</ele>
<time>2024-05-10T13:40:29Z</time>
</trkpt>
<trkpt lat="49.55745315179229" lon="8.98738855496049">
<ele>452.2</ele>
<time>2024-05-10T13:40:30Z</time>
</trkpt>
<trkpt lat="49.55745315179229" lon="8.987433398142457">
<ele>452.2</ele>
<time>2024-05-10T13:40:31Z</time>
</trkpt>
<trkpt lat="49.5574455242604" lon="8.987475391477346">
<ele>452.4</ele>
<time>2024-05-10T13:40:32Z</time>
</trkpt>
<trkpt lat="49.55744166858494" lon="8.987513529136777">
<ele>452.4</ele>
<time>2024-05-10T13:40:33Z</time>
</trkpt>
<trkpt lat="49.55743404105306" lon="8.987553594633937">
<ele>452.6</ele>
<time>2024-05-10T13:40:34Z</time>
</trkpt>
<trkpt lat="49.55742255784571" lon="8.987587876617908">
<ele>452.8</ele>
<time>2024-05-10T13:40:35Z</time>
</trkpt>
<trkpt lat="49.55742255784571" lon="8.98762509226799">
<ele>453</ele>
<time>2024-05-10T13:40:36Z</time>
</trkpt>
<trkpt lat="49.557414930313826" lon="8.98766515776515">
<ele>453.2</ele>
<time>2024-05-10T13:40:37Z</time>
</trkpt>
<trkpt lat="49.55740353092551" lon="8.987698517739773">
<ele>453.6</ele>
<time>2024-05-10T13:40:38Z</time>
</trkpt>
<trkpt lat="49.55739204771817" lon="8.987729949876666">
<ele>453.8</ele>
<time>2024-05-10T13:40:39Z</time>
</trkpt>
<trkpt lat="49.557380648329854" lon="8.98776339367032">
<ele>454</ele>
<time>2024-05-10T13:40:40Z</time>
</trkpt>
<trkpt lat="49.55737302079797" lon="8.987798681482673">
<ele>454.2</ele>
<time>2024-05-10T13:40:41Z</time>
</trkpt>
<trkpt lat="49.55735776573419" lon="8.987834891304374">
<ele>454.2</ele>
<time>2024-05-10T13:40:42Z</time>
</trkpt>
<trkpt lat="49.557338654994965" lon="8.987870179116726">
<ele>454.4</ele>
<time>2024-05-10T13:40:43Z</time>
</trkpt>
<trkpt lat="49.55732339993119" lon="8.987903539091349">
<ele>454.6</ele>
<time>2024-05-10T13:40:44Z</time>
</trkpt>
<trkpt lat="49.55730814486742" lon="8.987935055047274">
<ele>454.8</ele>
<time>2024-05-10T13:40:45Z</time>
</trkpt>
<trkpt lat="49.55729674547911" lon="8.987966487184167">
<ele>455</ele>
<time>2024-05-10T13:40:46Z</time>
</trkpt>
<trkpt lat="49.557281490415335" lon="8.988003702834249">
<ele>455.2</ele>
<time>2024-05-10T13:40:47Z</time>
</trkpt>
<trkpt lat="49.55726623535156" lon="8.988033290952444">
<ele>455.4</ele>
<time>2024-05-10T13:40:48Z</time>
</trkpt>
<trkpt lat="49.55725089646876" lon="8.988063801079988">
<ele>455.2</ele>
<time>2024-05-10T13:40:49Z</time>
</trkpt>
<trkpt lat="49.557235641404986" lon="8.988091461360455">
<ele>455</ele>
<time>2024-05-10T13:40:50Z</time>
</trkpt>
<trkpt lat="49.55721661448479" lon="8.988108560442924">
<ele>454.8</ele>
<time>2024-05-10T13:40:51Z</time>
</trkpt>
<trkpt lat="49.55719373188913" lon="8.988129599019885">
<ele>454.8</ele>
<time>2024-05-10T13:40:52Z</time>
</trkpt>
<trkpt lat="49.55717084929347" lon="8.988153403624892">
<ele>454.8</ele>
<time>2024-05-10T13:40:53Z</time>
</trkpt>
<trkpt lat="49.55714796669781" lon="8.98817628622055">
<ele>455</ele>
<time>2024-05-10T13:40:54Z</time>
</trkpt>
<trkpt lat="49.557121228426695" lon="8.98820017464459">
<ele>455.2</ele>
<time>2024-05-10T13:40:55Z</time>
</trkpt>
<trkpt lat="49.55709457397461" lon="8.988222051411867">
<ele>455.4</ele>
<time>2024-05-10T13:40:56Z</time>
</trkpt>
<trkpt lat="49.55706398002803" lon="8.988241162151098">
<ele>455.6</ele>
<time>2024-05-10T13:40:57Z</time>
</trkpt>
<trkpt lat="49.557041097432375" lon="8.988260189071298">
<ele>455.8</ele>
<time>2024-05-10T13:40:58Z</time>
</trkpt>
<trkpt lat="49.55701444298029" lon="8.988267816603184">
<ele>456</ele>
<time>2024-05-10T13:40:59Z</time>
</trkpt>
<trkpt lat="49.556983932852745" lon="8.98827644996345">
<ele>456.2</ele>
<time>2024-05-10T13:41:00Z</time>
</trkpt>
<trkpt lat="49.5569534227252" lon="8.988280221819878">
<ele>456.4</ele>
<time>2024-05-10T13:41:01Z</time>
</trkpt>
<trkpt lat="49.55692668445408" lon="8.98827837780118">
<ele>456.6</ele>
<time>2024-05-10T13:41:02Z</time>
</trkpt>
<trkpt lat="49.556903801858425" lon="8.988273600116372">
<ele>456.8</ele>
<time>2024-05-10T13:41:03Z</time>
</trkpt>
<trkpt lat="49.55687706358731" lon="8.988261194899678">
<ele>457</ele>
<time>2024-05-10T13:41:04Z</time>
</trkpt>
<trkpt lat="49.55685040913522" lon="8.988249711692333">
<ele>457.2</ele>
<time>2024-05-10T13:41:05Z</time>
</trkpt>
<trkpt lat="49.55682752653957" lon="8.98823638446629">
<ele>457.4</ele>
<time>2024-05-10T13:41:06Z</time>
</trkpt>
<trkpt lat="49.556804643943906" lon="8.988223057240248">
<ele>457.6</ele>
<time>2024-05-10T13:41:07Z</time>
</trkpt>
<trkpt lat="49.55678176134825" lon="8.988204952329397">
<ele>457.8</ele>
<time>2024-05-10T13:41:08Z</time>
</trkpt>
<trkpt lat="49.55675887875259" lon="8.988175364211202">
<ele>458</ele>
<time>2024-05-10T13:41:09Z</time>
</trkpt>
<trkpt lat="49.55673976801336" lon="8.988146781921387">
<ele>458.4</ele>
<time>2024-05-10T13:41:10Z</time>
</trkpt>
<trkpt lat="49.55672828480601" lon="8.988126749172807">
<ele>458.6</ele>
<time>2024-05-10T13:41:11Z</time>
</trkpt>
<trkpt lat="49.55670163035393" lon="8.98810001090169">
<ele>458.8</ele>
<time>2024-05-10T13:41:12Z</time>
</trkpt>
<trkpt lat="49.5566825196147" lon="8.98807805031538">
<ele>458.8</ele>
<time>2024-05-10T13:41:13Z</time>
</trkpt>
<trkpt lat="49.5566634926945" lon="8.9880580175668">
<ele>459</ele>
<time>2024-05-10T13:41:14Z</time>
</trkpt>
<trkpt lat="49.556648237630725" lon="8.98803991265595">
<ele>459.2</ele>
<time>2024-05-10T13:41:15Z</time>
</trkpt>
<trkpt lat="49.55663675442338" lon="8.988024657592177">
<ele>459.4</ele>
<time>2024-05-10T13:41:16Z</time>
</trkpt>
<trkpt lat="49.55661772750318" lon="8.988003702834249">
<ele>459.4</ele>
<time>2024-05-10T13:41:17Z</time>
</trkpt>
<trkpt lat="49.55659484490752" lon="8.987983670085669">
<ele>459.6</ele>
<time>2024-05-10T13:41:18Z</time>
</trkpt>
<trkpt lat="49.55657187849283" lon="8.987963637337089">
<ele>459.8</ele>
<time>2024-05-10T13:41:19Z</time>
</trkpt>
<trkpt lat="49.55654522404075" lon="8.987937904894352">
<ele>460.2</ele>
<time>2024-05-10T13:41:20Z</time>
</trkpt>
<trkpt lat="49.55652234144509" lon="8.987911166623235">
<ele>460.4</ele>
<time>2024-05-10T13:41:21Z</time>
</trkpt>
<trkpt lat="49.55649560317397" lon="8.987886356189847">
<ele>460.8</ele>
<time>2024-05-10T13:41:22Z</time>
</trkpt>
<trkpt lat="49.55647272057831" lon="8.987861629575491">
<ele>461</ele>
<time>2024-05-10T13:41:23Z</time>
</trkpt>
<trkpt lat="49.556449837982655" lon="8.987832963466644">
<ele>461.2</ele>
<time>2024-05-10T13:41:24Z</time>
</trkpt>
<trkpt lat="49.55642695538699" lon="8.987812008708715">
<ele>461.4</ele>
<time>2024-05-10T13:41:25Z</time>
</trkpt>
<trkpt lat="49.556411700323224" lon="8.987799603492022">
<ele>461.6</ele>
<time>2024-05-10T13:41:26Z</time>
</trkpt>
<trkpt lat="49.55639644525945" lon="8.987786276265979">
<ele>461.8</ele>
<time>2024-05-10T13:41:27Z</time>
</trkpt>
<trkpt lat="49.55638496205211" lon="8.987774793058634">
<ele>461.8</ele>
<time>2024-05-10T13:41:28Z</time>
</trkpt>
<trkpt lat="49.556373562663794" lon="8.987761465832591">
<ele>462</ele>
<time>2024-05-10T13:41:29Z</time>
</trkpt>
<trkpt lat="49.55635445192456" lon="8.987746210768819">
<ele>462</ele>
<time>2024-05-10T13:41:30Z</time>
</trkpt>
<trkpt lat="49.55633919686079" lon="8.987729949876666">
<ele>462</ele>
<time>2024-05-10T13:41:31Z</time>
</trkpt>
<trkpt lat="49.55631631426513" lon="8.987714694812894">
<ele>462.2</ele>
<time>2024-05-10T13:41:32Z</time>
</trkpt>
<trkpt lat="49.556293431669474" lon="8.987701367586851">
<ele>462.4</ele>
<time>2024-05-10T13:41:33Z</time>
</trkpt>
<trkpt lat="49.556274404749274" lon="8.987694662064314">
<ele>462.6</ele>
<time>2024-05-10T13:41:34Z</time>
</trkpt>
<trkpt lat="49.556251522153616" lon="8.987689968198538">
<ele>462.8</ele>
<time>2024-05-10T13:41:35Z</time>
</trkpt>
<trkpt lat="49.556228555738926" lon="8.98768519051373">
<ele>463</ele>
<time>2024-05-10T13:41:36Z</time>
</trkpt>
<trkpt lat="49.55620567314327" lon="8.987678484991193">
<ele>463.2</ele>
<time>2024-05-10T13:41:37Z</time>
</trkpt>
<trkpt lat="49.55618279054761" lon="8.987676557153463">
<ele>463.2</ele>
<time>2024-05-10T13:41:38Z</time>
</trkpt>
<trkpt lat="49.55615990795195" lon="8.987681334838271">
<ele>463.4</ele>
<time>2024-05-10T13:41:39Z</time>
</trkpt>
<trkpt lat="49.55613702535629" lon="8.987688040360808">
<ele>463.6</ele>
<time>2024-05-10T13:41:40Z</time>
</trkpt>
<trkpt lat="49.55611799843609" lon="8.987688040360808">
<ele>463.6</ele>
<time>2024-05-10T13:41:41Z</time>
</trkpt>
<trkpt lat="49.556095115840435" lon="8.987688040360808">
<ele>463.6</ele>
<time>2024-05-10T13:41:42Z</time>
</trkpt>
<trkpt lat="49.55607223324478" lon="8.987691812217236">
<ele>463.8</ele>
<time>2024-05-10T13:41:43Z</time>
</trkpt>
<trkpt lat="49.55604549497366" lon="8.987698517739773">
<ele>464</ele>
<time>2024-05-10T13:41:44Z</time>
</trkpt>
<trkpt lat="49.556022612378" lon="8.98770329542458">
<ele>464</ele>
<time>2024-05-10T13:41:45Z</time>
</trkpt>
<trkpt lat="49.55599972978234" lon="8.987714694812894">
<ele>464.2</ele>
<time>2024-05-10T13:41:46Z</time>
</trkpt>
<trkpt lat="49.555976847186685" lon="8.98772525601089">
<ele>464.4</ele>
<time>2024-05-10T13:41:47Z</time>
</trkpt>
<trkpt lat="49.55595010891557" lon="8.987736655399203">
<ele>464.4</ele>
<time>2024-05-10T13:41:48Z</time>
</trkpt>
<trkpt lat="49.55593108199537" lon="8.987748138606548">
<ele>464.6</ele>
<time>2024-05-10T13:41:49Z</time>
</trkpt>
<trkpt lat="49.55590819939971" lon="8.987754760310054">
<ele>464.6</ele>
<time>2024-05-10T13:41:50Z</time>
</trkpt>
<trkpt lat="49.55588523298502" lon="8.987765237689018">
<ele>464.8</ele>
<time>2024-05-10T13:41:51Z</time>
</trkpt>
<trkpt lat="49.55586620606482" lon="8.987776720896363">
<ele>465</ele>
<time>2024-05-10T13:41:52Z</time>
</trkpt>
<trkpt lat="49.55584709532559" lon="8.987790048122406">
<ele>465</ele>
<time>2024-05-10T13:41:53Z</time>
</trkpt>
<trkpt lat="49.55583184026182" lon="8.987808153033257">
<ele>465</ele>
<time>2024-05-10T13:41:54Z</time>
</trkpt>
<trkpt lat="49.55581281334162" lon="8.987825335934758">
<ele>465.2</ele>
<time>2024-05-10T13:41:55Z</time>
</trkpt>
<trkpt lat="49.5557860750705" lon="8.987848218530416">
<ele>465.2</ele>
<time>2024-05-10T13:41:56Z</time>
</trkpt>
<trkpt lat="49.555759420618415" lon="8.987866323441267">
<ele>465.4</ele>
<time>2024-05-10T13:41:57Z</time>
</trkpt>
<trkpt lat="49.5557326823473" lon="8.98788157850504">
<ele>465.4</ele>
<time>2024-05-10T13:41:58Z</time>
</trkpt>
<trkpt lat="49.55570217221975" lon="8.987910244613886">
<ele>465.6</ele>
<time>2024-05-10T13:41:59Z</time>
</trkpt>
<trkpt lat="49.55567543394864" lon="8.987939832732081">
<ele>465.6</ele>
<time>2024-05-10T13:42:00Z</time>
</trkpt>
<trkpt lat="49.55565255135298" lon="8.987975120544434">
<ele>465.8</ele>
<time>2024-05-10T13:42:01Z</time>
</trkpt>
<trkpt lat="49.55563352443278" lon="8.988010324537754">
<ele>465.8</ele>
<time>2024-05-10T13:42:02Z</time>
</trkpt>
<trkpt lat="49.555618269369006" lon="8.988037062808871">
<ele>466</ele>
<time>2024-05-10T13:42:03Z</time>
</trkpt>
<trkpt lat="49.555603014305234" lon="8.988064723089337">
<ele>466.2</ele>
<time>2024-05-10T13:42:04Z</time>
</trkpt>
<trkpt lat="49.55558775924146" lon="8.98809615522623">
<ele>466.2</ele>
<time>2024-05-10T13:42:05Z</time>
</trkpt>
<trkpt lat="49.55557250417769" lon="8.988122893497348">
<ele>466.4</ele>
<time>2024-05-10T13:42:06Z</time>
</trkpt>
<trkpt lat="49.555561020970345" lon="8.988142926245928">
<ele>466.6</ele>
<time>2024-05-10T13:42:07Z</time>
</trkpt>
<trkpt lat="49.55555339343846" lon="8.988166730850935">
<ele>466.6</ele>
<time>2024-05-10T13:42:08Z</time>
</trkpt>
<trkpt lat="49.55554576590657" lon="8.988202018663287">
<ele>466.6</ele>
<time>2024-05-10T13:42:09Z</time>
</trkpt>
<trkpt lat="49.5555305108428" lon="8.98823638446629">
<ele>466.8</ele>
<time>2024-05-10T13:42:10Z</time>
</trkpt>
<trkpt lat="49.555519027635455" lon="8.988263122737408">
<ele>467</ele>
<time>2024-05-10T13:42:11Z</time>
</trkpt>
<trkpt lat="49.55550762824714" lon="8.988287849351764">
<ele>467.2</ele>
<time>2024-05-10T13:42:12Z</time>
</trkpt>
<trkpt lat="49.555500000715256" lon="8.98831651546061">
<ele>467.4</ele>
<time>2024-05-10T13:42:13Z</time>
</trkpt>
<trkpt lat="49.55549237318337" lon="8.988347025588155">
<ele>467.4</ele>
<time>2024-05-10T13:42:14Z</time>
</trkpt>
<trkpt lat="49.55548474565148" lon="8.988381307572126">
<ele>467.6</ele>
<time>2024-05-10T13:42:15Z</time>
</trkpt>
<trkpt lat="49.5554771181196" lon="8.988421373069286">
<ele>467.8</ele>
<time>2024-05-10T13:42:16Z</time>
</trkpt>
<trkpt lat="49.55546563491225" lon="8.988459510728717">
<ele>467.8</ele>
<time>2024-05-10T13:42:17Z</time>
</trkpt>
<trkpt lat="49.55545423552394" lon="8.988492954522371">
<ele>468</ele>
<time>2024-05-10T13:42:18Z</time>
</trkpt>
<trkpt lat="49.55543898046017" lon="8.988530086353421">
<ele>468</ele>
<time>2024-05-10T13:42:19Z</time>
</trkpt>
<trkpt lat="49.55542749725282" lon="8.988566379994154">
<ele>468.2</ele>
<time>2024-05-10T13:42:20Z</time>
</trkpt>
<trkpt lat="49.55541224218905" lon="8.988610217347741">
<ele>468.4</ele>
<time>2024-05-10T13:42:21Z</time>
</trkpt>
<trkpt lat="49.55539698712528" lon="8.98865120485425">
<ele>468.6</ele>
<time>2024-05-10T13:42:22Z</time>
</trkpt>
<trkpt lat="49.55538558773696" lon="8.988690348342061">
<ele>468.8</ele>
<time>2024-05-10T13:42:23Z</time>
</trkpt>
<trkpt lat="49.55537796020508" lon="8.988723708316684">
<ele>469</ele>
<time>2024-05-10T13:42:24Z</time>
</trkpt>
<trkpt lat="49.55536647699773" lon="8.988758074119687">
<ele>469</ele>
<time>2024-05-10T13:42:25Z</time>
</trkpt>
<trkpt lat="49.55535499379039" lon="8.988799983635545">
<ele>469.2</ele>
<time>2024-05-10T13:42:26Z</time>
</trkpt>
<trkpt lat="49.555339738726616" lon="8.988842898979783">
<ele>469.4</ele>
<time>2024-05-10T13:42:27Z</time>
</trkpt>
<trkpt lat="49.5553283393383" lon="8.988882964476943">
<ele>469.6</ele>
<time>2024-05-10T13:42:28Z</time>
</trkpt>
<trkpt lat="49.55531308427453" lon="8.988922107964754">
<ele>469.8</ele>
<time>2024-05-10T13:42:29Z</time>
</trkpt>
<trkpt lat="49.55529782921076" lon="8.988958317786455">
<ele>469.8</ele>
<time>2024-05-10T13:42:30Z</time>
</trkpt>
<trkpt lat="49.55528634600341" lon="8.988993605598807">
<ele>470</ele>
<time>2024-05-10T13:42:31Z</time>
</trkpt>
<trkpt lat="49.5552749466151" lon="8.98902696557343">
<ele>470</ele>
<time>2024-05-10T13:42:32Z</time>
</trkpt>
<trkpt lat="49.555263463407755" lon="8.989056553691626">
<ele>470</ele>
<time>2024-05-10T13:42:33Z</time>
</trkpt>
<trkpt lat="49.55525206401944" lon="8.989087985828519">
<ele>470</ele>
<time>2024-05-10T13:42:34Z</time>
</trkpt>
<trkpt lat="49.55523680895567" lon="8.989116651937366">
<ele>470.2</ele>
<time>2024-05-10T13:42:35Z</time>
</trkpt>
<trkpt lat="49.5552215538919" lon="8.98914615623653">
<ele>470.2</ele>
<time>2024-05-10T13:42:36Z</time>
</trkpt>
<trkpt lat="49.55519858747721" lon="8.989176750183105">
<ele>470.4</ele>
<time>2024-05-10T13:42:37Z</time>
</trkpt>
<trkpt lat="49.55517193302512" lon="8.98920533247292">
<ele>470.6</ele>
<time>2024-05-10T13:42:38Z</time>
</trkpt>
<trkpt lat="49.55514905042946" lon="8.989231986925006">
<ele>470.6</ele>
<time>2024-05-10T13:42:39Z</time>
</trkpt>
<trkpt lat="49.555126167833805" lon="8.989256797358394">
<ele>470.8</ele>
<time>2024-05-10T13:42:40Z</time>
</trkpt>
<trkpt lat="49.55509942956269" lon="8.989273058250546">
<ele>470.8</ele>
<time>2024-05-10T13:42:41Z</time>
</trkpt>
<trkpt lat="49.55507654696703" lon="8.98928638547659">
<ele>471</ele>
<time>2024-05-10T13:42:42Z</time>
</trkpt>
<trkpt lat="49.555049892514944" lon="8.98930356837809">
<ele>471.2</ele>
<time>2024-05-10T13:42:43Z</time>
</trkpt>
<trkpt lat="49.55502315424383" lon="8.989314967766404">
<ele>471.6</ele>
<time>2024-05-10T13:42:44Z</time>
</trkpt>
<trkpt lat="49.55499641597271" lon="8.98932452313602">
<ele>471.8</ele>
<time>2024-05-10T13:42:45Z</time>
</trkpt>
<trkpt lat="49.55497353337705" lon="8.989333072677255">
<ele>471.8</ele>
<time>2024-05-10T13:42:46Z</time>
</trkpt>
<trkpt lat="49.554946878924966" lon="8.989336928352714">
<ele>472</ele>
<time>2024-05-10T13:42:47Z</time>
</trkpt>
<trkpt lat="49.55492399632931" lon="8.989337850362062">
<ele>472.2</ele>
<time>2024-05-10T13:42:48Z</time>
</trkpt>
<trkpt lat="49.55489725805819" lon="8.989337850362062">
<ele>472.4</ele>
<time>2024-05-10T13:42:49Z</time>
</trkpt>
<trkpt lat="49.55487437546253" lon="8.989335000514984">
<ele>472.4</ele>
<time>2024-05-10T13:42:50Z</time>
</trkpt>
<trkpt lat="49.554851492866874" lon="8.989331228658557">
<ele>472.6</ele>
<time>2024-05-10T13:42:51Z</time>
</trkpt>
<trkpt lat="49.554828610271215" lon="8.98932452313602">
<ele>472.6</ele>
<time>2024-05-10T13:42:52Z</time>
</trkpt>
<trkpt lat="49.554809499531984" lon="8.989314967766404">
<ele>472.6</ele>
<time>2024-05-10T13:42:53Z</time>
</trkpt>
<trkpt lat="49.554790472611785" lon="8.98930356837809">
<ele>472.6</ele>
<time>2024-05-10T13:42:54Z</time>
</trkpt>
<trkpt lat="49.55476759001613" lon="8.98928638547659">
<ele>472.6</ele>
<time>2024-05-10T13:42:55Z</time>
</trkpt>
<trkpt lat="49.554748479276896" lon="8.989268280565739">
<ele>472.8</ele>
<time>2024-05-10T13:42:56Z</time>
</trkpt>
<trkpt lat="49.55472182482481" lon="8.98924631997943">
<ele>472.8</ele>
<time>2024-05-10T13:42:57Z</time>
</trkpt>
<trkpt lat="49.55470271408558" lon="8.989223437383771">
<ele>472.8</ele>
<time>2024-05-10T13:42:58Z</time>
</trkpt>
<trkpt lat="49.55467983148992" lon="8.989196699112654">
<ele>472.8</ele>
<time>2024-05-10T13:42:59Z</time>
</trkpt>
<trkpt lat="49.55466457642615" lon="8.989168116822839">
<ele>472.8</ele>
<time>2024-05-10T13:43:00Z</time>
</trkpt>
<trkpt lat="49.55464546568692" lon="8.989143306389451">
<ele>472.6</ele>
<time>2024-05-10T13:43:01Z</time>
</trkpt>
<trkpt lat="49.55462643876672" lon="8.989111874252558">
<ele>472.6</ele>
<time>2024-05-10T13:43:02Z</time>
</trkpt>
<trkpt lat="49.55460732802749" lon="8.98908706381917">
<ele>472.6</ele>
<time>2024-05-10T13:43:03Z</time>
</trkpt>
<trkpt lat="49.55458830110729" lon="8.989056553691626">
<ele>472.8</ele>
<time>2024-05-10T13:43:04Z</time>
</trkpt>
<trkpt lat="49.554573046043515" lon="8.98902696557343">
<ele>472.8</ele>
<time>2024-05-10T13:43:05Z</time>
</trkpt>
<trkpt lat="49.55455779097974" lon="8.988998383283615">
<ele>472.8</ele>
<time>2024-05-10T13:43:06Z</time>
</trkpt>
<trkpt lat="49.55453868024051" lon="8.988973572850227">
<ele>473</ele>
<time>2024-05-10T13:43:07Z</time>
</trkpt>
<trkpt lat="49.55452342517674" lon="8.98894683457911">
<ele>473.2</ele>
<time>2024-05-10T13:43:08Z</time>
</trkpt>
<trkpt lat="49.55450817011297" lon="8.988923029974103">
<ele>473.2</ele>
<time>2024-05-10T13:43:09Z</time>
</trkpt>
<trkpt lat="49.55448528751731" lon="8.988904925063252">
<ele>473.4</ele>
<time>2024-05-10T13:43:10Z</time>
</trkpt>
<trkpt lat="49.55447380430997" lon="8.988886820152402">
<ele>473.6</ele>
<time>2024-05-10T13:43:11Z</time>
</trkpt>
<trkpt lat="49.55446240492165" lon="8.98886863142252">
<ele>474</ele>
<time>2024-05-10T13:43:12Z</time>
</trkpt>
<trkpt lat="49.55444714985788" lon="8.988853376358747">
<ele>474.2</ele>
<time>2024-05-10T13:43:13Z</time>
</trkpt>
<trkpt lat="49.55443189479411" lon="8.988841976970434">
<ele>474.4</ele>
<time>2024-05-10T13:43:14Z</time>
</trkpt>
<trkpt lat="49.554416639730334" lon="8.98883149959147">
<ele>474.8</ele>
<time>2024-05-10T13:43:15Z</time>
</trkpt>
<trkpt lat="49.55439375713467" lon="8.988802833482623">
<ele>475</ele>
<time>2024-05-10T13:43:16Z</time>
</trkpt>
<trkpt lat="49.55436701886356" lon="8.988769473508">
<ele>475.2</ele>
<time>2024-05-10T13:43:17Z</time>
</trkpt>
<trkpt lat="49.5543441362679" lon="8.988738041371107">
<ele>475.4</ele>
<time>2024-05-10T13:43:18Z</time>
</trkpt>
<trkpt lat="49.55432125367224" lon="8.98871323093772">
<ele>475.4</ele>
<time>2024-05-10T13:43:19Z</time>
</trkpt>
<trkpt lat="49.554298371076584" lon="8.988696970045567">
<ele>475.6</ele>
<time>2024-05-10T13:43:20Z</time>
</trkpt>
<trkpt lat="49.55427926033735" lon="8.988679870963097">
<ele>475.6</ele>
<time>2024-05-10T13:43:21Z</time>
</trkpt>
<trkpt lat="49.554256377741694" lon="8.988663610070944">
<ele>475.8</ele>
<time>2024-05-10T13:43:22Z</time>
</trkpt>
<trkpt lat="49.55423349514603" lon="8.98865120485425">
<ele>475.8</ele>
<time>2024-05-10T13:43:23Z</time>
</trkpt>
<trkpt lat="49.55421061255038" lon="8.988636955618858">
<ele>475.8</ele>
<time>2024-05-10T13:43:24Z</time>
</trkpt>
<trkpt lat="49.55418010242283" lon="8.988619772717357">
<ele>476</ele>
<time>2024-05-10T13:43:25Z</time>
</trkpt>
<trkpt lat="49.55415336415171" lon="8.988601667806506">
<ele>476</ele>
<time>2024-05-10T13:43:26Z</time>
</trkpt>
<trkpt lat="49.55413433723152" lon="8.988588256761432">
<ele>476.2</ele>
<time>2024-05-10T13:43:27Z</time>
</trkpt>
<trkpt lat="49.554115226492286" lon="8.988574929535389">
<ele>476.2</ele>
<time>2024-05-10T13:43:28Z</time>
</trkpt>
<trkpt lat="49.55409234389663" lon="8.988563530147076">
<ele>476.4</ele>
<time>2024-05-10T13:43:29Z</time>
</trkpt>
<trkpt lat="49.55407331697643" lon="8.98855296894908">
<ele>476.6</ele>
<time>2024-05-10T13:43:30Z</time>
</trkpt>
<trkpt lat="49.55405043438077" lon="8.988543497398496">
<ele>476.8</ele>
<time>2024-05-10T13:43:31Z</time>
</trkpt>
<trkpt lat="49.55403132364154" lon="8.98853201419115">
<ele>476.8</ele>
<time>2024-05-10T13:43:32Z</time>
</trkpt>
<trkpt lat="49.55400844104588" lon="8.988523464649916">
<ele>477</ele>
<time>2024-05-10T13:43:33Z</time>
</trkpt>
<trkpt lat="49.55398170277476" lon="8.988516759127378">
<ele>477.2</ele>
<time>2024-05-10T13:43:34Z</time>
</trkpt>
<trkpt lat="49.55395504832268" lon="8.988512987270951">
<ele>477.4</ele>
<time>2024-05-10T13:43:35Z</time>
</trkpt>
<trkpt lat="49.55392831005156" lon="8.988512987270951">
<ele>477.6</ele>
<time>2024-05-10T13:43:36Z</time>
</trkpt>
<trkpt lat="49.553901655599475" lon="8.988518686965108">
<ele>477.8</ele>
<time>2024-05-10T13:43:37Z</time>
</trkpt>
<trkpt lat="49.55387491732836" lon="8.988519608974457">
<ele>478</ele>
<time>2024-05-10T13:43:38Z</time>
</trkpt>
<trkpt lat="49.5538520347327" lon="8.988518686965108">
<ele>478.2</ele>
<time>2024-05-10T13:43:39Z</time>
</trkpt>
<trkpt lat="49.55382915213704" lon="8.988519608974457">
<ele>478.4</ele>
<time>2024-05-10T13:43:40Z</time>
</trkpt>
<trkpt lat="49.55381004139781" lon="8.988525308668613">
<ele>478.6</ele>
<time>2024-05-10T13:43:41Z</time>
</trkpt>
<trkpt lat="49.553783386945724" lon="8.988530086353421">
<ele>478.6</ele>
<time>2024-05-10T13:43:42Z</time>
</trkpt>
<trkpt lat="49.55376427620649" lon="8.988530086353421">
<ele>478.8</ele>
<time>2024-05-10T13:43:43Z</time>
</trkpt>
<trkpt lat="49.553741393610835" lon="8.988536791875958">
<ele>479</ele>
<time>2024-05-10T13:43:44Z</time>
</trkpt>
<trkpt lat="49.55371851101518" lon="8.988541569560766">
<ele>479</ele>
<time>2024-05-10T13:43:45Z</time>
</trkpt>
<trkpt lat="49.553703255951405" lon="8.988545341417193">
<ele>479.2</ele>
<time>2024-05-10T13:43:46Z</time>
</trkpt>
<trkpt lat="49.553684229031205" lon="8.98855296894908">
<ele>479.4</ele>
<time>2024-05-10T13:43:47Z</time>
</trkpt>
<trkpt lat="49.55366897396743" lon="8.988566379994154">
<ele>479.6</ele>
<time>2024-05-10T13:43:48Z</time>
</trkpt>
<trkpt lat="49.55365363508463" lon="8.988586412742734">
<ele>479.8</ele>
<time>2024-05-10T13:43:49Z</time>
</trkpt>
<trkpt lat="49.55363838002086" lon="8.988603511825204">
<ele>480</ele>
<time>2024-05-10T13:43:50Z</time>
</trkpt>
<trkpt lat="49.55361172556877" lon="8.988624550402164">
<ele>480.2</ele>
<time>2024-05-10T13:43:51Z</time>
</trkpt>
<trkpt lat="49.55358884297311" lon="8.988646427169442">
<ele>480.4</ele>
<time>2024-05-10T13:43:52Z</time>
</trkpt>
<trkpt lat="49.553565960377455" lon="8.988664615899324">
<ele>480.6</ele>
<time>2024-05-10T13:43:53Z</time>
</trkpt>
<trkpt lat="49.5535430777818" lon="8.988683642819524">
<ele>480.8</ele>
<time>2024-05-10T13:43:54Z</time>
</trkpt>
<trkpt lat="49.55352019518614" lon="8.988701747730374">
<ele>481.2</ele>
<time>2024-05-10T13:43:55Z</time>
</trkpt>
<trkpt lat="49.55349731259048" lon="8.988723708316684">
<ele>481.4</ele>
<time>2024-05-10T13:43:56Z</time>
</trkpt>
<trkpt lat="49.55347434617579" lon="8.988739885389805">
<ele>481.6</ele>
<time>2024-05-10T13:43:57Z</time>
</trkpt>
<trkpt lat="49.55345531925559" lon="8.988756146281958">
<ele>482</ele>
<time>2024-05-10T13:43:58Z</time>
</trkpt>
<trkpt lat="49.55343620851636" lon="8.988777101039886">
<ele>482.2</ele>
<time>2024-05-10T13:43:59Z</time>
</trkpt>
<trkpt lat="49.55341718159616" lon="8.988795205950737">
<ele>482.4</ele>
<time>2024-05-10T13:44:00Z</time>
</trkpt>
<trkpt lat="49.55339807085693" lon="8.988820016384125">
<ele>482.6</ele>
<time>2024-05-10T13:44:01Z</time>
</trkpt>
<trkpt lat="49.55337904393673" lon="8.988846754655242">
<ele>482.8</ele>
<time>2024-05-10T13:44:02Z</time>
</trkpt>
<trkpt lat="49.5533599331975" lon="8.98887156508863">
<ele>483</ele>
<time>2024-05-10T13:44:03Z</time>
</trkpt>
<trkpt lat="49.55333327874541" lon="8.988904925063252">
<ele>483.2</ele>
<time>2024-05-10T13:44:04Z</time>
</trkpt>
<trkpt lat="49.55331416800618" lon="8.988933507353067">
<ele>483.4</ele>
<time>2024-05-10T13:44:05Z</time>
</trkpt>
<trkpt lat="49.55329505726695" lon="8.98896787315607">
<ele>483.4</ele>
<time>2024-05-10T13:44:06Z</time>
</trkpt>
<trkpt lat="49.55327217467129" lon="8.989001233130693">
<ele>483.6</ele>
<time>2024-05-10T13:44:07Z</time>
</trkpt>
<trkpt lat="49.553249292075634" lon="8.989029815420508">
<ele>483.8</ele>
<time>2024-05-10T13:44:08Z</time>
</trkpt>
<trkpt lat="49.553226409479976" lon="8.989054625853896">
<ele>484</ele>
<time>2024-05-10T13:44:09Z</time>
</trkpt>
<trkpt lat="49.55320352688432" lon="8.989081364125013">
<ele>484.2</ele>
<time>2024-05-10T13:44:10Z</time>
</trkpt>
<trkpt lat="49.553188271820545" lon="8.98910709656775">
<ele>484.4</ele>
<time>2024-05-10T13:44:11Z</time>
</trkpt>
<trkpt lat="49.55317301675677" lon="8.989133834838867">
<ele>484.6</ele>
<time>2024-05-10T13:44:12Z</time>
</trkpt>
<trkpt lat="49.553157761693" lon="8.989156717434525">
<ele>484.8</ele>
<time>2024-05-10T13:44:13Z</time>
</trkpt>
<trkpt lat="49.55314250662923" lon="8.989178594201803">
<ele>485</ele>
<time>2024-05-10T13:44:14Z</time>
</trkpt>
<trkpt lat="49.55312339589" lon="8.989196699112654">
<ele>485</ele>
<time>2024-05-10T13:44:15Z</time>
</trkpt>
<trkpt lat="49.55311199650168" lon="8.989212960004807">
<ele>485.2</ele>
<time>2024-05-10T13:44:16Z</time>
</trkpt>
<trkpt lat="49.55310051329434" lon="8.9892253652215">
<ele>485.4</ele>
<time>2024-05-10T13:44:17Z</time>
</trkpt>
<trkpt lat="49.553089113906026" lon="8.989232992753386">
<ele>485.6</ele>
<time>2024-05-10T13:44:18Z</time>
</trkpt>
<trkpt lat="49.553073858842254" lon="8.989261575043201">
<ele>485.8</ele>
<time>2024-05-10T13:44:19Z</time>
</trkpt>
<trkpt lat="49.55305860377848" lon="8.989281607791781">
<ele>486</ele>
<time>2024-05-10T13:44:20Z</time>
</trkpt>
<trkpt lat="49.55303949303925" lon="8.989317817613482">
<ele>486</ele>
<time>2024-05-10T13:44:21Z</time>
</trkpt>
<trkpt lat="49.55302423797548" lon="8.989337850362062">
<ele>486.2</ele>
<time>2024-05-10T13:44:22Z</time>
</trkpt>
<trkpt lat="49.553008982911706" lon="8.989357883110642">
<ele>486.4</ele>
<time>2024-05-10T13:44:23Z</time>
</trkpt>
<trkpt lat="49.55300135537982" lon="8.989376993849874">
<ele>486.4</ele>
<time>2024-05-10T13:44:24Z</time>
</trkpt>
<trkpt lat="49.55297847278416" lon="8.989397948607802">
<ele>486.6</ele>
<time>2024-05-10T13:44:25Z</time>
</trkpt>
<trkpt lat="49.5529555901885" lon="8.989426530897617">
<ele>486.6</ele>
<time>2024-05-10T13:44:26Z</time>
</trkpt>
<trkpt lat="49.552932707592845" lon="8.989453269168735">
<ele>486.8</ele>
<time>2024-05-10T13:44:27Z</time>
</trkpt>
<trkpt lat="49.552913596853614" lon="8.98948185145855">
<ele>487</ele>
<time>2024-05-10T13:44:28Z</time>
</trkpt>
<trkpt lat="49.552894569933414" lon="8.989520072937012">
<ele>487.2</ele>
<time>2024-05-10T13:44:29Z</time>
</trkpt>
<trkpt lat="49.55287168733776" lon="8.989555276930332">
<ele>487.2</ele>
<time>2024-05-10T13:44:30Z</time>
</trkpt>
<trkpt lat="49.552856432273984" lon="8.98958201520145">
<ele>487.4</ele>
<time>2024-05-10T13:44:31Z</time>
</trkpt>
<trkpt lat="49.552833549678326" lon="8.98960204795003">
<ele>487.4</ele>
<time>2024-05-10T13:44:32Z</time>
</trkpt>
<trkpt lat="49.55281829461455" lon="8.989623002707958">
<ele>487.6</ele>
<time>2024-05-10T13:44:33Z</time>
</trkpt>
<trkpt lat="49.55280303955078" lon="8.989641107618809">
<ele>487.6</ele>
<time>2024-05-10T13:44:34Z</time>
</trkpt>
<trkpt lat="49.55278392881155" lon="8.98965829052031">
<ele>487.8</ele>
<time>2024-05-10T13:44:35Z</time>
</trkpt>
<trkpt lat="49.55276867374778" lon="8.989676395431161">
<ele>488</ele>
<time>2024-05-10T13:44:36Z</time>
</trkpt>
<trkpt lat="49.552753418684006" lon="8.989696428179741">
<ele>488.2</ele>
<time>2024-05-10T13:44:37Z</time>
</trkpt>
<trkpt lat="49.55273816362023" lon="8.989711683243513">
<ele>488.2</ele>
<time>2024-05-10T13:44:38Z</time>
</trkpt>
<trkpt lat="49.552719052881" lon="8.98973842151463">
<ele>488.4</ele>
<time>2024-05-10T13:44:39Z</time>
</trkpt>
<trkpt lat="49.552696170285344" lon="8.989763231948018">
<ele>488.6</ele>
<time>2024-05-10T13:44:40Z</time>
</trkpt>
<trkpt lat="49.55268091522157" lon="8.989785192534328">
<ele>488.8</ele>
<time>2024-05-10T13:44:41Z</time>
</trkpt>
<trkpt lat="49.552658032625914" lon="8.989811846986413">
<ele>489</ele>
<time>2024-05-10T13:44:42Z</time>
</trkpt>
<trkpt lat="49.552635150030255" lon="8.989831879734993">
<ele>489.2</ele>
<time>2024-05-10T13:44:43Z</time>
</trkpt>
<trkpt lat="49.55260841175914" lon="8.98985669016838">
<ele>489.6</ele>
<time>2024-05-10T13:44:44Z</time>
</trkpt>
<trkpt lat="49.55258938483894" lon="8.989872867241502">
<ele>489.8</ele>
<time>2024-05-10T13:44:45Z</time>
</trkpt>
<trkpt lat="49.55256650224328" lon="8.989888122305274">
<ele>490</ele>
<time>2024-05-10T13:44:46Z</time>
</trkpt>
<trkpt lat="49.55255124717951" lon="8.989906311035156">
<ele>490.2</ele>
<time>2024-05-10T13:44:47Z</time>
</trkpt>
<trkpt lat="49.55253213644028" lon="8.989930115640163">
<ele>490.2</ele>
<time>2024-05-10T13:44:48Z</time>
</trkpt>
<trkpt lat="49.55250925384462" lon="8.989948220551014">
<ele>490.4</ele>
<time>2024-05-10T13:44:49Z</time>
</trkpt>
<trkpt lat="49.55249022692442" lon="8.989961547777057">
<ele>490.4</ele>
<time>2024-05-10T13:44:50Z</time>
</trkpt>
<trkpt lat="49.55247111618519" lon="8.989976802840829">
<ele>490.6</ele>
<time>2024-05-10T13:44:51Z</time>
</trkpt>
<trkpt lat="49.552455861121416" lon="8.989990213885903">
<ele>490.6</ele>
<time>2024-05-10T13:44:52Z</time>
</trkpt>
<trkpt lat="49.55244060605765" lon="8.98999784141779">
<ele>490.6</ele>
<time>2024-05-10T13:44:53Z</time>
</trkpt>
<trkpt lat="49.55242149531841" lon="8.990011168643832">
<ele>490.6</ele>
<time>2024-05-10T13:44:54Z</time>
</trkpt>
<trkpt lat="49.55240246839821" lon="8.990026423707604">
<ele>490.8</ele>
<time>2024-05-10T13:44:55Z</time>
</trkpt>
<trkpt lat="49.55238721333444" lon="8.990036901086569">
<ele>490.8</ele>
<time>2024-05-10T13:44:56Z</time>
</trkpt>
<trkpt lat="49.55237195827067" lon="8.990050312131643">
<ele>491</ele>
<time>2024-05-10T13:44:57Z</time>
</trkpt>
<trkpt lat="49.55235284753144" lon="8.990061711519957">
<ele>491.2</ele>
<time>2024-05-10T13:44:58Z</time>
</trkpt>
<trkpt lat="49.552337592467666" lon="8.990073194727302">
<ele>491.2</ele>
<time>2024-05-10T13:44:59Z</time>
</trkpt>
<trkpt lat="49.55231470987201" lon="8.990081744268537">
<ele>491.4</ele>
<time>2024-05-10T13:45:00Z</time>
</trkpt>
<trkpt lat="49.55229568295181" lon="8.990086521953344">
<ele>491.6</ele>
<time>2024-05-10T13:45:01Z</time>
</trkpt>
<trkpt lat="49.55227657221258" lon="8.990093227475882">
<ele>491.8</ele>
<time>2024-05-10T13:45:02Z</time>
</trkpt>
<trkpt lat="49.552257461473346" lon="8.99009507149458">
<ele>491.8</ele>
<time>2024-05-10T13:45:03Z</time>
</trkpt>
<trkpt lat="49.552242206409574" lon="8.990096999332309">
<ele>492</ele>
<time>2024-05-10T13:45:04Z</time>
</trkpt>
<trkpt lat="49.552223179489374" lon="8.99009507149458">
<ele>492</ele>
<time>2024-05-10T13:45:05Z</time>
</trkpt>
<trkpt lat="49.5522079244256" lon="8.990096999332309">
<ele>492.2</ele>
<time>2024-05-10T13:45:06Z</time>
</trkpt>
<trkpt lat="49.552185041829944" lon="8.990091299638152">
<ele>492.4</ele>
<time>2024-05-10T13:45:07Z</time>
</trkpt>
<trkpt lat="49.552162159234285" lon="8.990090293809772">
<ele>492.6</ele>
<time>2024-05-10T13:45:08Z</time>
</trkpt>
<trkpt lat="49.55213927663863" lon="8.990090293809772">
<ele>492.8</ele>
<time>2024-05-10T13:45:09Z</time>
</trkpt>
<trkpt lat="49.55211639404297" lon="8.990091299638152">
<ele>493</ele>
<time>2024-05-10T13:45:10Z</time>
</trkpt>
<trkpt lat="49.552082028239965" lon="8.990084594115615">
<ele>493.2</ele>
<time>2024-05-10T13:45:11Z</time>
</trkpt>
<trkpt lat="49.55205151811242" lon="8.990073194727302">
<ele>493.4</ele>
<time>2024-05-10T13:45:12Z</time>
</trkpt>
<trkpt lat="49.552024779841304" lon="8.990068417042494">
<ele>493.4</ele>
<time>2024-05-10T13:45:13Z</time>
</trkpt>
<trkpt lat="49.55199812538922" lon="8.990059783682227">
<ele>493.6</ele>
<time>2024-05-10T13:45:14Z</time>
</trkpt>
<trkpt lat="49.55197524279356" lon="8.990051234140992">
<ele>493.8</ele>
<time>2024-05-10T13:45:15Z</time>
</trkpt>
<trkpt lat="49.55194850452244" lon="8.990039750933647">
<ele>494</ele>
<time>2024-05-10T13:45:16Z</time>
</trkpt>
<trkpt lat="49.551921766251326" lon="8.990030279383063">
<ele>494</ele>
<time>2024-05-10T13:45:17Z</time>
</trkpt>
<trkpt lat="49.55189888365567" lon="8.990019718185067">
<ele>494.2</ele>
<time>2024-05-10T13:45:18Z</time>
</trkpt>
<trkpt lat="49.55186837352812" lon="8.990013096481562">
<ele>494.4</ele>
<time>2024-05-10T13:45:19Z</time>
</trkpt>
<trkpt lat="49.55184171907604" lon="8.990003541111946">
<ele>494.4</ele>
<time>2024-05-10T13:45:20Z</time>
</trkpt>
<trkpt lat="49.55181498080492" lon="8.989986358210444">
<ele>494.6</ele>
<time>2024-05-10T13:45:21Z</time>
</trkpt>
<trkpt lat="49.55179209820926" lon="8.989968253299594">
<ele>494.6</ele>
<time>2024-05-10T13:45:22Z</time>
</trkpt>
<trkpt lat="49.5517692156136" lon="8.989945370703936">
<ele>494.6</ele>
<time>2024-05-10T13:45:23Z</time>
</trkpt>
<trkpt lat="49.55175010487437" lon="8.989914860576391">
<ele>494.8</ele>
<time>2024-05-10T13:45:24Z</time>
</trkpt>
<trkpt lat="49.55173107795417" lon="8.989892899990082">
<ele>495</ele>
<time>2024-05-10T13:45:25Z</time>
</trkpt>
<trkpt lat="49.55171196721494" lon="8.989872867241502">
<ele>495</ele>
<time>2024-05-10T13:45:26Z</time>
</trkpt>
<trkpt lat="49.55169671215117" lon="8.989851912483573">
<ele>495.2</ele>
<time>2024-05-10T13:45:27Z</time>
</trkpt>
<trkpt lat="49.55167382955551" lon="8.989831879734993">
<ele>495.2</ele>
<time>2024-05-10T13:45:28Z</time>
</trkpt>
<trkpt lat="49.55165094695985" lon="8.989814696833491">
<ele>495.4</ele>
<time>2024-05-10T13:45:29Z</time>
</trkpt>
<trkpt lat="49.551631920039654" lon="8.98979944176972">
<ele>495.4</ele>
<time>2024-05-10T13:45:30Z</time>
</trkpt>
<trkpt lat="49.55161280930042" lon="8.989788042381406">
<ele>495.6</ele>
<time>2024-05-10T13:45:31Z</time>
</trkpt>
<trkpt lat="49.55158992670477" lon="8.98978041484952">
<ele>495.6</ele>
<time>2024-05-10T13:45:32Z</time>
</trkpt>
<trkpt lat="49.551567044109106" lon="8.989761304110289">
<ele>495.6</ele>
<time>2024-05-10T13:45:33Z</time>
</trkpt>
<trkpt lat="49.551551789045334" lon="8.989745127037168">
<ele>495.8</ele>
<time>2024-05-10T13:45:34Z</time>
</trkpt>
<trkpt lat="49.55152890644968" lon="8.989723166450858">
<ele>495.8</ele>
<time>2024-05-10T13:45:35Z</time>
</trkpt>
<trkpt lat="49.5515136513859" lon="8.989701205864549">
<ele>495.8</ele>
<time>2024-05-10T13:45:36Z</time>
</trkpt>
<trkpt lat="49.55149839632213" lon="8.989681173115969">
<ele>496</ele>
<time>2024-05-10T13:45:37Z</time>
</trkpt>
<trkpt lat="49.55148314125836" lon="8.98966214619577">
<ele>496</ele>
<time>2024-05-10T13:45:38Z</time>
</trkpt>
<trkpt lat="49.551471658051014" lon="8.989646891131997">
<ele>496.2</ele>
<time>2024-05-10T13:45:39Z</time>
</trkpt>
<trkpt lat="49.55144500359893" lon="8.989629708230495">
<ele>496.2</ele>
<time>2024-05-10T13:45:40Z</time>
</trkpt>
<trkpt lat="49.55142203718424" lon="8.989608753472567">
<ele>496.4</ele>
<time>2024-05-10T13:45:41Z</time>
</trkpt>
<trkpt lat="49.55139915458858" lon="8.989588720723987">
<ele>496.4</ele>
<time>2024-05-10T13:45:42Z</time>
</trkpt>
<trkpt lat="49.55137627199292" lon="8.989575309678912">
<ele>496.4</ele>
<time>2024-05-10T13:45:43Z</time>
</trkpt>
<trkpt lat="49.55135338939726" lon="8.989566760137677">
<ele>496.6</ele>
<time>2024-05-10T13:45:44Z</time>
</trkpt>
<trkpt lat="49.551330506801605" lon="8.98956198245287">
<ele>496.8</ele>
<time>2024-05-10T13:45:45Z</time>
</trkpt>
<trkpt lat="49.551311479881406" lon="8.989544799551368">
<ele>497</ele>
<time>2024-05-10T13:45:46Z</time>
</trkpt>
<trkpt lat="49.55128859728575" lon="8.989531472325325">
<ele>497.2</ele>
<time>2024-05-10T13:45:47Z</time>
</trkpt>
<trkpt lat="49.55126948654651" lon="8.989520072937012">
<ele>497.4</ele>
<time>2024-05-10T13:45:48Z</time>
</trkpt>
<trkpt lat="49.551250375807285" lon="8.989509511739016">
<ele>497.6</ele>
<time>2024-05-10T13:45:49Z</time>
</trkpt>
<trkpt lat="49.5512237213552" lon="8.989496184512973">
<ele>497.6</ele>
<time>2024-05-10T13:45:50Z</time>
</trkpt>
<trkpt lat="49.55119698308408" lon="8.989478079602122">
<ele>497.6</ele>
<time>2024-05-10T13:45:51Z</time>
</trkpt>
<trkpt lat="49.551174100488424" lon="8.989468524232507">
<ele>497.8</ele>
<time>2024-05-10T13:45:52Z</time>
</trkpt>
<trkpt lat="49.551155073568225" lon="8.98946181870997">
<ele>498</ele>
<time>2024-05-10T13:45:53Z</time>
</trkpt>
<trkpt lat="49.551135962828994" lon="8.9894447196275">
<ele>498.2</ele>
<time>2024-05-10T13:45:54Z</time>
</trkpt>
<trkpt lat="49.551116935908794" lon="8.989431308582425">
<ele>498.6</ele>
<time>2024-05-10T13:45:55Z</time>
</trkpt>
<trkpt lat="49.55110545270145" lon="8.989419909194112">
<ele>498.8</ele>
<time>2024-05-10T13:45:56Z</time>
</trkpt>
<trkpt lat="49.55109019763768" lon="8.989411275833845">
<ele>499</ele>
<time>2024-05-10T13:45:57Z</time>
</trkpt>
<trkpt lat="49.55107871443033" lon="8.989406581968069">
<ele>499</ele>
<time>2024-05-10T13:45:58Z</time>
</trkpt>
<trkpt lat="49.55106345936656" lon="8.989397948607802">
<ele>499.4</ele>
<time>2024-05-10T13:45:59Z</time>
</trkpt>
<trkpt lat="49.55104443244636" lon="8.989391326904297">
<ele>499.6</ele>
<time>2024-05-10T13:46:00Z</time>
</trkpt>
<trkpt lat="49.5510215498507" lon="8.989383615553379">
<ele>499.8</ele>
<time>2024-05-10T13:46:01Z</time>
</trkpt>
<trkpt lat="49.55101006664336" lon="8.989379843696952">
<ele>500</ele>
<time>2024-05-10T13:46:02Z</time>
</trkpt>
<trkpt lat="49.5509871840477" lon="8.989375066012144">
<ele>500.2</ele>
<time>2024-05-10T13:46:03Z</time>
</trkpt>
<trkpt lat="49.55096430145204" lon="8.989370288327336">
<ele>500.4</ele>
<time>2024-05-10T13:46:04Z</time>
</trkpt>
<trkpt lat="49.55094141885638" lon="8.98936651647091">
<ele>500.6</ele>
<time>2024-05-10T13:46:05Z</time>
</trkpt>
<trkpt lat="49.55092239193618" lon="8.98936366662383">
<ele>500.8</ele>
<time>2024-05-10T13:46:06Z</time>
</trkpt>
<trkpt lat="49.55090328119695" lon="8.98936366662383">
<ele>500.8</ele>
<time>2024-05-10T13:46:07Z</time>
</trkpt>
<trkpt lat="49.550880398601294" lon="8.98936366662383">
<ele>501</ele>
<time>2024-05-10T13:46:08Z</time>
</trkpt>
<trkpt lat="49.55086514353752" lon="8.98936366662383">
<ele>501.2</ele>
<time>2024-05-10T13:46:09Z</time>
</trkpt>
<trkpt lat="49.55084226094186" lon="8.989371294155717">
<ele>501.4</ele>
<time>2024-05-10T13:46:10Z</time>
</trkpt>
<trkpt lat="49.55082315020263" lon="8.989379843696952">
<ele>501.6</ele>
<time>2024-05-10T13:46:11Z</time>
</trkpt>
<trkpt lat="49.55080412328243" lon="8.98938462138176">
<ele>501.8</ele>
<time>2024-05-10T13:46:12Z</time>
</trkpt>
<trkpt lat="49.5507850125432" lon="8.98938462138176">
<ele>502</ele>
<time>2024-05-10T13:46:13Z</time>
</trkpt>
<trkpt lat="49.55076212994754" lon="8.989393170922995">
<ele>502.2</ele>
<time>2024-05-10T13:46:14Z</time>
</trkpt>
<trkpt lat="49.550735391676426" lon="8.989408425986767">
<ele>502.4</ele>
<time>2024-05-10T13:46:15Z</time>
</trkpt>
<trkpt lat="49.55070873722434" lon="8.989415131509304">
<ele>502.8</ele>
<time>2024-05-10T13:46:16Z</time>
</trkpt>
<trkpt lat="49.55068199895322" lon="8.989421837031841">
<ele>503</ele>
<time>2024-05-10T13:46:17Z</time>
</trkpt>
<trkpt lat="49.550659116357565" lon="8.989430386573076">
<ele>503.2</ele>
<time>2024-05-10T13:46:18Z</time>
</trkpt>
<trkpt lat="49.550640089437366" lon="8.989435164257884">
<ele>503.4</ele>
<time>2024-05-10T13:46:19Z</time>
</trkpt>
<trkpt lat="49.550620978698134" lon="8.989439941942692">
<ele>503.8</ele>
<time>2024-05-10T13:46:20Z</time>
</trkpt>
<trkpt lat="49.55060572363436" lon="8.9894447196275">
<ele>503.8</ele>
<time>2024-05-10T13:46:21Z</time>
</trkpt>
<trkpt lat="49.55058669671416" lon="8.989451341331005">
<ele>504</ele>
<time>2024-05-10T13:46:22Z</time>
</trkpt>
<trkpt lat="49.55057144165039" lon="8.989456119015813">
<ele>504.2</ele>
<time>2024-05-10T13:46:23Z</time>
</trkpt>
<trkpt lat="49.55054470337927" lon="8.989466596394777">
<ele>504.4</ele>
<time>2024-05-10T13:46:24Z</time>
</trkpt>
<trkpt lat="49.550521820783615" lon="8.989477157592773">
<ele>504.4</ele>
<time>2024-05-10T13:46:25Z</time>
</trkpt>
<trkpt lat="49.5504950825125" lon="8.989491406828165">
<ele>504.6</ele>
<time>2024-05-10T13:46:26Z</time>
</trkpt>
<trkpt lat="49.55046842806041" lon="8.989508589729667">
<ele>504.8</ele>
<time>2024-05-10T13:46:27Z</time>
</trkpt>
<trkpt lat="49.550441689789295" lon="8.989516217261553">
<ele>505</ele>
<time>2024-05-10T13:46:28Z</time>
</trkpt>
<trkpt lat="49.55041880719364" lon="8.989526694640517">
<ele>505.2</ele>
<time>2024-05-10T13:46:29Z</time>
</trkpt>
<trkpt lat="49.55039206892252" lon="8.989536250010133">
<ele>505.4</ele>
<time>2024-05-10T13:46:30Z</time>
</trkpt>
<trkpt lat="49.55037304200232" lon="8.989549577236176">
<ele>505.6</ele>
<time>2024-05-10T13:46:31Z</time>
</trkpt>
<trkpt lat="49.55035015940666" lon="8.98956298828125">
<ele>505.8</ele>
<time>2024-05-10T13:46:32Z</time>
</trkpt>
<trkpt lat="49.55032727681101" lon="8.98958201520145">
<ele>506</ele>
<time>2024-05-10T13:46:33Z</time>
</trkpt>
<trkpt lat="49.550304394215345" lon="8.989602969959378">
<ele>506.2</ele>
<time>2024-05-10T13:46:34Z</time>
</trkpt>
<trkpt lat="49.55028151161969" lon="8.98962208069861">
<ele>506.2</ele>
<time>2024-05-10T13:46:35Z</time>
</trkpt>
<trkpt lat="49.550266256555915" lon="8.98963825777173">
<ele>506.4</ele>
<time>2024-05-10T13:46:36Z</time>
</trkpt>
<trkpt lat="49.55025100149214" lon="8.989653512835503">
<ele>506.6</ele>
<time>2024-05-10T13:46:37Z</time>
</trkpt>
<trkpt lat="49.55024337396026" lon="8.989666923880577">
<ele>506.6</ele>
<time>2024-05-10T13:46:38Z</time>
</trkpt>
<trkpt lat="49.55022811889648" lon="8.989676395431161">
<ele>506.8</ele>
<time>2024-05-10T13:46:39Z</time>
</trkpt>
<trkpt lat="49.55021278001368" lon="8.989696428179741">
<ele>506.8</ele>
<time>2024-05-10T13:46:40Z</time>
</trkpt>
<trkpt lat="49.55018989741802" lon="8.989714616909623">
<ele>507</ele>
<time>2024-05-10T13:46:41Z</time>
</trkpt>
<trkpt lat="49.55017087049782" lon="8.989733643829823">
<ele>507.2</ele>
<time>2024-05-10T13:46:42Z</time>
</trkpt>
<trkpt lat="49.55014798790216" lon="8.98975652642548">
<ele>507.2</ele>
<time>2024-05-10T13:46:43Z</time>
</trkpt>
<trkpt lat="49.550125105306506" lon="8.989787036553025">
<ele>507.4</ele>
<time>2024-05-10T13:46:44Z</time>
</trkpt>
<trkpt lat="49.55010222271085" lon="8.989814696833491">
<ele>507.4</ele>
<time>2024-05-10T13:46:45Z</time>
</trkpt>
<trkpt lat="49.55008311197162" lon="8.989845206961036">
<ele>507.6</ele>
<time>2024-05-10T13:46:46Z</time>
</trkpt>
<trkpt lat="49.55006408505142" lon="8.98987672291696">
<ele>507.8</ele>
<time>2024-05-10T13:46:47Z</time>
</trkpt>
<trkpt lat="49.55004111863673" lon="8.989901533350348">
<ele>508</ele>
<time>2024-05-10T13:46:48Z</time>
</trkpt>
<trkpt lat="49.55001446418464" lon="8.989928187802434">
<ele>508.2</ele>
<time>2024-05-10T13:46:49Z</time>
</trkpt>
<trkpt lat="49.54999535344541" lon="8.98995685391128">
<ele>508.4</ele>
<time>2024-05-10T13:46:50Z</time>
</trkpt>
<trkpt lat="49.54997632652521" lon="8.989983508363366">
<ele>508.6</ele>
<time>2024-05-10T13:46:51Z</time>
</trkpt>
<trkpt lat="49.54995721578598" lon="8.990008318796754">
<ele>508.8</ele>
<time>2024-05-10T13:46:52Z</time>
</trkpt>
<trkpt lat="49.54993818886578" lon="8.990035057067871">
<ele>509</ele>
<time>2024-05-10T13:46:53Z</time>
</trkpt>
<trkpt lat="49.54992293380201" lon="8.990061711519957">
<ele>509.2</ele>
<time>2024-05-10T13:46:54Z</time>
</trkpt>
<trkpt lat="49.54990382306278" lon="8.990091299638152">
<ele>509.4</ele>
<time>2024-05-10T13:46:55Z</time>
</trkpt>
<trkpt lat="49.549888567999005" lon="8.990117032080889">
<ele>509.4</ele>
<time>2024-05-10T13:46:56Z</time>
</trkpt>
<trkpt lat="49.54987331293523" lon="8.99015324190259">
<ele>509.6</ele>
<time>2024-05-10T13:46:57Z</time>
</trkpt>
<trkpt lat="49.54985805787146" lon="8.990184757858515">
<ele>509.6</ele>
<time>2024-05-10T13:46:58Z</time>
</trkpt>
<trkpt lat="49.54983894713223" lon="8.990216189995408">
<ele>509.8</ele>
<time>2024-05-10T13:46:59Z</time>
</trkpt>
<trkpt lat="49.54981992021203" lon="8.990246700122952">
<ele>510</ele>
<time>2024-05-10T13:47:00Z</time>
</trkpt>
<trkpt lat="49.5498008094728" lon="8.9902753662318">
<ele>510</ele>
<time>2024-05-10T13:47:01Z</time>
</trkpt>
<trkpt lat="49.54978555440903" lon="8.990300176665187">
<ele>510.2</ele>
<time>2024-05-10T13:47:02Z</time>
</trkpt>
<trkpt lat="49.549770299345255" lon="8.99032968096435">
<ele>510.4</ele>
<time>2024-05-10T13:47:03Z</time>
</trkpt>
<trkpt lat="49.54975504428148" lon="8.990356419235468">
<ele>510.4</ele>
<time>2024-05-10T13:47:04Z</time>
</trkpt>
<trkpt lat="49.54973978921771" lon="8.990385001525283">
<ele>510.6</ele>
<time>2024-05-10T13:47:05Z</time>
</trkpt>
<trkpt lat="49.5497283898294" lon="8.9904117397964">
<ele>510.6</ele>
<time>2024-05-10T13:47:06Z</time>
</trkpt>
<trkpt lat="49.54971690662205" lon="8.990440322086215">
<ele>510.8</ele>
<time>2024-05-10T13:47:07Z</time>
</trkpt>
<trkpt lat="49.54970542341471" lon="8.990467982366681">
<ele>510.8</ele>
<time>2024-05-10T13:47:08Z</time>
</trkpt>
<trkpt lat="49.549694024026394" lon="8.990498492494226">
<ele>511</ele>
<time>2024-05-10T13:47:09Z</time>
</trkpt>
<trkpt lat="49.54967491328716" lon="8.990525230765343">
<ele>511</ele>
<time>2024-05-10T13:47:10Z</time>
</trkpt>
<trkpt lat="49.54966351389885" lon="8.990551885217428">
<ele>511.2</ele>
<time>2024-05-10T13:47:11Z</time>
</trkpt>
<trkpt lat="49.54964825883508" lon="8.990581473335624">
<ele>511.4</ele>
<time>2024-05-10T13:47:12Z</time>
</trkpt>
<trkpt lat="49.54964063130319" lon="8.990612905472517">
<ele>511.4</ele>
<time>2024-05-10T13:47:13Z</time>
</trkpt>
<trkpt lat="49.549629148095846" lon="8.990643499419093">
<ele>511.6</ele>
<time>2024-05-10T13:47:14Z</time>
</trkpt>
<trkpt lat="49.54961774870753" lon="8.990673003718257">
<ele>511.8</ele>
<time>2024-05-10T13:47:15Z</time>
</trkpt>
<trkpt lat="49.54961012117565" lon="8.99070636369288">
<ele>511.8</ele>
<time>2024-05-10T13:47:16Z</time>
</trkpt>
<trkpt lat="49.549594866111875" lon="8.990736957639456">
<ele>512</ele>
<time>2024-05-10T13:47:17Z</time>
</trkpt>
<trkpt lat="49.54958338290453" lon="8.99076646193862">
<ele>512.2</ele>
<time>2024-05-10T13:47:18Z</time>
</trkpt>
<trkpt lat="49.549571983516216" lon="8.990796972066164">
<ele>512.599</ele>
<time>2024-05-10T13:47:19Z</time>
</trkpt>
<trkpt lat="49.54956435598433" lon="8.990830415859818">
<ele>512.8</ele>
<time>2024-05-10T13:47:20Z</time>
</trkpt>
<trkpt lat="49.549552872776985" lon="8.990863775834441">
<ele>512.8</ele>
<time>2024-05-10T13:47:21Z</time>
</trkpt>
<trkpt lat="49.54954147338867" lon="8.990898057818413">
<ele>513</ele>
<time>2024-05-10T13:47:22Z</time>
</trkpt>
<trkpt lat="49.54952999018133" lon="8.990929573774338">
<ele>513.2</ele>
<time>2024-05-10T13:47:23Z</time>
</trkpt>
<trkpt lat="49.54951850697398" lon="8.990960083901882">
<ele>513.4</ele>
<time>2024-05-10T13:47:24Z</time>
</trkpt>
<trkpt lat="49.549514735117555" lon="8.990989672020078">
<ele>513.4</ele>
<time>2024-05-10T13:47:25Z</time>
</trkpt>
<trkpt lat="49.54950325191021" lon="8.991020182147622">
<ele>513.599</ele>
<time>2024-05-10T13:47:26Z</time>
</trkpt>
<trkpt lat="49.54949948005378" lon="8.991051614284515">
<ele>513.8</ele>
<time>2024-05-10T13:47:27Z</time>
</trkpt>
<trkpt lat="49.549491852521896" lon="8.991084974259138">
<ele>514</ele>
<time>2024-05-10T13:47:28Z</time>
</trkpt>
<trkpt lat="49.54948036931455" lon="8.99112026207149">
<ele>514.2</ele>
<time>2024-05-10T13:47:29Z</time>
</trkpt>
<trkpt lat="49.549472741782665" lon="8.991154627874494">
<ele>514.4</ele>
<time>2024-05-10T13:47:30Z</time>
</trkpt>
<trkpt lat="49.54946511425078" lon="8.991189915686846">
<ele>514.4</ele>
<time>2024-05-10T13:47:31Z</time>
</trkpt>
<trkpt lat="49.549453714862466" lon="8.991226125508547">
<ele>514.599</ele>
<time>2024-05-10T13:47:32Z</time>
</trkpt>
<trkpt lat="49.54944608733058" lon="8.991259569302201">
<ele>514.599</ele>
<time>2024-05-10T13:47:33Z</time>
</trkpt>
<trkpt lat="49.549434604123235" lon="8.991291923448443">
<ele>514.599</ele>
<time>2024-05-10T13:47:34Z</time>
</trkpt>
<trkpt lat="49.54942320473492" lon="8.991321511566639">
<ele>514.8</ele>
<time>2024-05-10T13:47:35Z</time>
</trkpt>
<trkpt lat="49.549411721527576" lon="8.991352021694183">
<ele>514.8</ele>
<time>2024-05-10T13:47:36Z</time>
</trkpt>
<trkpt lat="49.54940032213926" lon="8.991381609812379">
<ele>514.8</ele>
<time>2024-05-10T13:47:37Z</time>
</trkpt>
<trkpt lat="49.54938883893192" lon="8.991413041949272">
<ele>515</ele>
<time>2024-05-10T13:47:38Z</time>
</trkpt>
<trkpt lat="49.549377439543605" lon="8.991444557905197">
<ele>515.2</ele>
<time>2024-05-10T13:47:39Z</time>
</trkpt>
<trkpt lat="49.54936981201172" lon="8.99147791787982">
<ele>515.2</ele>
<time>2024-05-10T13:47:40Z</time>
</trkpt>
<trkpt lat="49.549358328804374" lon="8.991508428007364">
<ele>515.2</ele>
<time>2024-05-10T13:47:41Z</time>
</trkpt>
<trkpt lat="49.54934684559703" lon="8.991537094116211">
<ele>515.2</ele>
<time>2024-05-10T13:47:42Z</time>
</trkpt>
<trkpt lat="49.54933921806514" lon="8.991564670577645">
<ele>515.4</ele>
<time>2024-05-10T13:47:43Z</time>
</trkpt>
<trkpt lat="49.54932781867683" lon="8.991593336686492">
<ele>515.4</ele>
<time>2024-05-10T13:47:44Z</time>
</trkpt>
<trkpt lat="49.54931633546949" lon="8.99161621928215">
<ele>515.599</ele>
<time>2024-05-10T13:47:45Z</time>
</trkpt>
<trkpt lat="49.5493087079376" lon="8.991646729409695">
<ele>515.599</ele>
<time>2024-05-10T13:47:46Z</time>
</trkpt>
<trkpt lat="49.54930108040571" lon="8.99167631752789">
<ele>515.599</ele>
<time>2024-05-10T13:47:47Z</time>
</trkpt>
<trkpt lat="49.549293452873826" lon="8.991709677502513">
<ele>515.599</ele>
<time>2024-05-10T13:47:48Z</time>
</trkpt>
<trkpt lat="49.54928205348551" lon="8.991744965314865">
<ele>515.599</ele>
<time>2024-05-10T13:47:49Z</time>
</trkpt>
<trkpt lat="49.54927057027817" lon="8.991776397451758">
<ele>515.599</ele>
<time>2024-05-10T13:47:50Z</time>
</trkpt>
<trkpt lat="49.549259170889854" lon="8.991807913407683">
<ele>515.599</ele>
<time>2024-05-10T13:47:51Z</time>
</trkpt>
<trkpt lat="49.54924768768251" lon="8.991838423535228">
<ele>515.8</ele>
<time>2024-05-10T13:47:52Z</time>
</trkpt>
<trkpt lat="49.54923243261874" lon="8.991867005825043">
<ele>515.8</ele>
<time>2024-05-10T13:47:53Z</time>
</trkpt>
<trkpt lat="49.549221033230424" lon="8.991896593943238">
<ele>515.8</ele>
<time>2024-05-10T13:47:54Z</time>
</trkpt>
<trkpt lat="49.54920955002308" lon="8.991929953917861">
<ele>515.8</ele>
<time>2024-05-10T13:47:55Z</time>
</trkpt>
<trkpt lat="49.54920192249119" lon="8.991959542036057">
<ele>515.599</ele>
<time>2024-05-10T13:47:56Z</time>
</trkpt>
<trkpt lat="49.54919043928385" lon="8.991985274478793">
<ele>515.599</ele>
<time>2024-05-10T13:47:57Z</time>
</trkpt>
<trkpt lat="49.549179039895535" lon="8.992008157074451">
<ele>515.4</ele>
<time>2024-05-10T13:47:58Z</time>
</trkpt>
<trkpt lat="49.54916755668819" lon="8.99203011766076">
<ele>515.2</ele>
<time>2024-05-10T13:47:59Z</time>
</trkpt>
<trkpt lat="49.54915615729987" lon="8.99205015040934">
<ele>515</ele>
<time>2024-05-10T13:48:00Z</time>
</trkpt>
<trkpt lat="49.54914467409253" lon="8.99207018315792">
<ele>515</ele>
<time>2024-05-10T13:48:01Z</time>
</trkpt>
<trkpt lat="49.54913327470422" lon="8.9920902159065">
<ele>514.8</ele>
<time>2024-05-10T13:48:02Z</time>
</trkpt>
<trkpt lat="49.54912179149687" lon="8.992106392979622">
<ele>514.8</ele>
<time>2024-05-10T13:48:03Z</time>
</trkpt>
<trkpt lat="49.5491065364331" lon="8.992119720205665">
<ele>514.599</ele>
<time>2024-05-10T13:48:04Z</time>
</trkpt>
<trkpt lat="49.54909513704479" lon="8.992137908935547">
<ele>514.599</ele>
<time>2024-05-10T13:48:05Z</time>
</trkpt>
<trkpt lat="49.54909513704479" lon="8.992150230333209">
<ele>514.4</ele>
<time>2024-05-10T13:48:06Z</time>
</trkpt>
<trkpt lat="49.54909513704479" lon="8.99215123616159">
<ele>514.2</ele>
<time>2024-05-10T13:48:08Z</time>
</trkpt>
<trkpt lat="49.549098908901215" lon="8.99215123616159">
<ele>514</ele>
<time>2024-05-10T13:48:09Z</time>
</trkpt>
<trkpt lat="49.54909513704479" lon="8.992153163999319">
<ele>513.8</ele>
<time>2024-05-10T13:48:10Z</time>
</trkpt>
<trkpt lat="49.54909513704479" lon="8.992155008018017">
<ele>513.599</ele>
<time>2024-05-10T13:48:11Z</time>
</trkpt>
<trkpt lat="49.54909513704479" lon="8.992163641378284">
<ele>513.599</ele>
<time>2024-05-10T13:48:12Z</time>
</trkpt>
<trkpt lat="49.54909128136933" lon="8.992173112928867">
<ele>513.4</ele>
<time>2024-05-10T13:48:13Z</time>
</trkpt>
<trkpt lat="49.5490875095129" lon="8.992179818451405">
<ele>513.4</ele>
<time>2024-05-10T13:48:14Z</time>
</trkpt>
<trkpt lat="49.54908365383744" lon="8.992184596136212">
<ele>513.2</ele>
<time>2024-05-10T13:48:15Z</time>
</trkpt>
<trkpt lat="49.549079881981015" lon="8.99219130165875">
<ele>513.2</ele>
<time>2024-05-10T13:48:16Z</time>
</trkpt>
<trkpt lat="49.549079881981015" lon="8.992197001352906">
<ele>513.2</ele>
<time>2024-05-10T13:48:17Z</time>
</trkpt>
<trkpt lat="49.549079881981015" lon="8.992199851199985">
<ele>513</ele>
<time>2024-05-10T13:48:18Z</time>
</trkpt>
<trkpt lat="49.549079881981015" lon="8.992201779037714">
<ele>513</ele>
<time>2024-05-10T13:48:19Z</time>
</trkpt>
<trkpt lat="49.54907602630555" lon="8.992201779037714">
<ele>513.2</ele>
<time>2024-05-10T13:48:20Z</time>
</trkpt>
<trkpt lat="49.54907602630555" lon="8.992203706875443">
<ele>513.2</ele>
<time>2024-05-10T13:48:21Z</time>
</trkpt>
<trkpt lat="49.54907602630555" lon="8.992206556722522">
<ele>513.4</ele>
<time>2024-05-10T13:48:22Z</time>
</trkpt>
<trkpt lat="49.54907602630555" lon="8.99220840074122">
<ele>513.4</ele>
<time>2024-05-10T13:48:23Z</time>
</trkpt>
<trkpt lat="49.54907225444913" lon="8.992210328578949">
<ele>513.599</ele>
<time>2024-05-10T13:48:25Z</time>
</trkpt>
<trkpt lat="49.54907602630555" lon="8.99220840074122">
<ele>513.599</ele>
<time>2024-05-10T13:48:26Z</time>
</trkpt>
<trkpt lat="49.54907602630555" lon="8.992210328578949">
<ele>513.8</ele>
<time>2024-05-10T13:48:27Z</time>
</trkpt>
<trkpt lat="49.54907602630555" lon="8.99221133440733">
<ele>513.8</ele>
<time>2024-05-10T13:48:28Z</time>
</trkpt>
<trkpt lat="49.54907602630555" lon="8.992213178426027">
<ele>514</ele>
<time>2024-05-10T13:48:30Z</time>
</trkpt>
<trkpt lat="49.54907225444913" lon="8.992215106263757">
<ele>514</ele>
<time>2024-05-10T13:48:32Z</time>
</trkpt>
<trkpt lat="49.54907225444913" lon="8.992217034101486">
<ele>514</ele>
<time>2024-05-10T13:48:34Z</time>
</trkpt>
<trkpt lat="49.54907602630555" lon="8.992217034101486">
<ele>514.2</ele>
<time>2024-05-10T13:48:35Z</time>
</trkpt>
<trkpt lat="49.54907602630555" lon="8.992217956110835">
<ele>514.2</ele>
<time>2024-05-10T13:48:37Z</time>
</trkpt>
<trkpt lat="49.54907602630555" lon="8.992219883948565">
<ele>514.4</ele>
<time>2024-05-10T13:48:38Z</time>
</trkpt>
<trkpt lat="49.54907602630555" lon="8.992221811786294">
<ele>514.4</ele>
<time>2024-05-10T13:48:39Z</time>
</trkpt>
<trkpt lat="49.54907602630555" lon="8.992223739624023">
<ele>514.599</ele>
<time>2024-05-10T13:48:41Z</time>
</trkpt>
<trkpt lat="49.549079881981015" lon="8.992224661633372">
<ele>514.599</ele>
<time>2024-05-10T13:48:48Z</time>
</trkpt>
<trkpt lat="49.549079881981015" lon="8.992226589471102">
<ele>514.8</ele>
<time>2024-05-10T13:48:51Z</time>
</trkpt>
<trkpt lat="49.549079881981015" lon="8.9922284334898">
<ele>514.8</ele>
<time>2024-05-10T13:48:53Z</time>
</trkpt>
<trkpt lat="49.549079881981015" lon="8.992230361327529">
<ele>515</ele>
<time>2024-05-10T13:48:56Z</time>
</trkpt>
<trkpt lat="49.54907602630555" lon="8.99223136715591">
<ele>515</ele>
<time>2024-05-10T13:49:01Z</time>
</trkpt>
<trkpt lat="49.54907602630555" lon="8.992233211174607">
<ele>515</ele>
<time>2024-05-10T13:49:12Z</time>
</trkpt>
<trkpt lat="49.54907602630555" lon="8.99223136715591">
<ele>515</ele>
<time>2024-05-10T13:49:19Z</time>
</trkpt>
<trkpt lat="49.549079881981015" lon="8.99223136715591">
<ele>515.2</ele>
<time>2024-05-10T13:49:33Z</time>
</trkpt>
<trkpt lat="49.549079881981015" lon="8.992230361327529">
<ele>515.2</ele>
<time>2024-05-10T13:49:38Z</time>
</trkpt>
<trkpt lat="49.549079881981015" lon="8.99223136715591">
<ele>515.2</ele>
<time>2024-05-10T13:49:43Z</time>
</trkpt>
<trkpt lat="49.54908365383744" lon="8.99223136715591">
<ele>515.2</ele>
<time>2024-05-10T13:49:45Z</time>
</trkpt>
<trkpt lat="49.54908365383744" lon="8.992233211174607">
<ele>515.2</ele>
<time>2024-05-10T13:49:49Z</time>
</trkpt>
<trkpt lat="49.54908365383744" lon="8.992235139012337">
<ele>515.4</ele>
<time>2024-05-10T13:49:52Z</time>
</trkpt>
<trkpt lat="49.54908365383744" lon="8.992233211174607">
<ele>515.4</ele>
<time>2024-05-10T13:49:54Z</time>
</trkpt>
<trkpt lat="49.54908365383744" lon="8.992235139012337">
<ele>515.4</ele>
<time>2024-05-10T13:50:01Z</time>
</trkpt>
<trkpt lat="49.54908365383744" lon="8.992237066850066">
<ele>515.2</ele>
<time>2024-05-10T13:50:06Z</time>
</trkpt>
<trkpt lat="49.54908365383744" lon="8.992237988859415">
<ele>515.4</ele>
<time>2024-05-10T13:50:08Z</time>
</trkpt>
<trkpt lat="49.5490875095129" lon="8.992237988859415">
<ele>515.4</ele>
<time>2024-05-10T13:50:09Z</time>
</trkpt>
<trkpt lat="49.5490875095129" lon="8.992239916697145">
<ele>515.4</ele>
<time>2024-05-10T13:50:12Z</time>
</trkpt>
<trkpt lat="49.5490875095129" lon="8.992241844534874">
<ele>515.4</ele>
<time>2024-05-10T13:50:19Z</time>
</trkpt>
<trkpt lat="49.5490875095129" lon="8.992243688553572">
<ele>515.599</ele>
<time>2024-05-10T13:50:29Z</time>
</trkpt>
<trkpt lat="49.5490875095129" lon="8.992241844534874">
<ele>515.599</ele>
<time>2024-05-10T13:50:33Z</time>
</trkpt>
<trkpt lat="49.5490875095129" lon="8.992239916697145">
<ele>515.599</ele>
<time>2024-05-10T13:50:35Z</time>
</trkpt>
<trkpt lat="49.5490875095129" lon="8.992237988859415">
<ele>515.8</ele>
<time>2024-05-10T13:50:38Z</time>
</trkpt>
<trkpt lat="49.54908365383744" lon="8.992237066850066">
<ele>515.8</ele>
<time>2024-05-10T13:50:41Z</time>
</trkpt>
<trkpt lat="49.54908365383744" lon="8.992235139012337">
<ele>515.8</ele>
<time>2024-05-10T13:50:48Z</time>
</trkpt>
<trkpt lat="49.5490875095129" lon="8.992235139012337">
<ele>515.8</ele>
<time>2024-05-10T13:50:54Z</time>
</trkpt>
<trkpt lat="49.54908365383744" lon="8.992235139012337">
<ele>515.8</ele>
<time>2024-05-10T13:50:55Z</time>
</trkpt>
<trkpt lat="49.5490875095129" lon="8.992235139012337">
<ele>515.8</ele>
<time>2024-05-10T13:50:57Z</time>
</trkpt>
<trkpt lat="49.54908365383744" lon="8.992235139012337">
<ele>515.8</ele>
<time>2024-05-10T13:50:58Z</time>
</trkpt>
<trkpt lat="49.5490875095129" lon="8.992235139012337">
<ele>515.599</ele>
<time>2024-05-10T13:51:01Z</time>
</trkpt>
<trkpt lat="49.5490875095129" lon="8.992233211174607">
<ele>515.599</ele>
<time>2024-05-10T13:51:04Z</time>
</trkpt>
<trkpt lat="49.54908365383744" lon="8.992233211174607">
<ele>515.599</ele>
<time>2024-05-10T13:51:08Z</time>
</trkpt>
<trkpt lat="49.54908365383744" lon="8.992235139012337">
<ele>515.8</ele>
<time>2024-05-10T13:51:11Z</time>
</trkpt>
<trkpt lat="49.5490875095129" lon="8.992235139012337">
<ele>515.8</ele>
<time>2024-05-10T13:51:12Z</time>
</trkpt>
<trkpt lat="49.5490875095129" lon="8.992237066850066">
<ele>515.8</ele>
<time>2024-05-10T13:51:21Z</time>
</trkpt>
<trkpt lat="49.5490875095129" lon="8.992237988859415">
<ele>515.8</ele>
<time>2024-05-10T13:51:25Z</time>
</trkpt>
<trkpt lat="49.5490875095129" lon="8.992239916697145">
<ele>515.599</ele>
<time>2024-05-10T13:51:29Z</time>
</trkpt>
<trkpt lat="49.5490875095129" lon="8.992241844534874">
<ele>515.599</ele>
<time>2024-05-10T13:51:34Z</time>
</trkpt>
<trkpt lat="49.5490875095129" lon="8.992243688553572">
<ele>515.599</ele>
<time>2024-05-10T13:51:42Z</time>
</trkpt>
<trkpt lat="49.5490875095129" lon="8.992244694381952">
<ele>515.4</ele>
<time>2024-05-10T13:51:44Z</time>
</trkpt>
<trkpt lat="49.5490875095129" lon="8.992246622219682">
<ele>515.4</ele>
<time>2024-05-10T13:51:46Z</time>
</trkpt>
<trkpt lat="49.5490875095129" lon="8.99224846623838">
<ele>515.4</ele>
<time>2024-05-10T13:51:48Z</time>
</trkpt>
<trkpt lat="49.5490875095129" lon="8.992250394076109">
<ele>515.2</ele>
<time>2024-05-10T13:51:52Z</time>
</trkpt>
<trkpt lat="49.54909128136933" lon="8.992251316085458">
<ele>515</ele>
<time>2024-05-10T13:51:55Z</time>
</trkpt>
<trkpt lat="49.54909128136933" lon="8.992253243923187">
<ele>515</ele>
<time>2024-05-10T13:51:58Z</time>
</trkpt>
<trkpt lat="49.54909128136933" lon="8.992255171760917">
<ele>515</ele>
<time>2024-05-10T13:52:01Z</time>
</trkpt>
<trkpt lat="49.54909128136933" lon="8.992256093770266">
<ele>514.8</ele>
<time>2024-05-10T13:52:03Z</time>
</trkpt>
<trkpt lat="49.54909128136933" lon="8.992258021607995">
<ele>514.8</ele>
<time>2024-05-10T13:52:06Z</time>
</trkpt>
<trkpt lat="49.54909128136933" lon="8.992259949445724">
<ele>514.8</ele>
<time>2024-05-10T13:52:11Z</time>
</trkpt>
<trkpt lat="49.54909513704479" lon="8.992259949445724">
<ele>514.599</ele>
<time>2024-05-10T13:52:16Z</time>
</trkpt>
<trkpt lat="49.54909513704479" lon="8.992261877283454">
<ele>514.599</ele>
<time>2024-05-10T13:52:24Z</time>
</trkpt>
<trkpt lat="49.54909513704479" lon="8.992259949445724">
<ele>514.599</ele>
<time>2024-05-10T13:52:26Z</time>
</trkpt>
<trkpt lat="49.54909513704479" lon="8.992258021607995">
<ele>514.599</ele>
<time>2024-05-10T13:52:34Z</time>
</trkpt>
<trkpt lat="49.54909513704479" lon="8.992259949445724">
<ele>514.599</ele>
<time>2024-05-10T13:52:39Z</time>
</trkpt>
<trkpt lat="49.54909513704479" lon="8.992258021607995">
<ele>514.599</ele>
<time>2024-05-10T13:52:42Z</time>
</trkpt>
<trkpt lat="49.54909513704479" lon="8.992259949445724">
<ele>514.599</ele>
<time>2024-05-10T13:52:46Z</time>
</trkpt>
<trkpt lat="49.54909513704479" lon="8.992279982194304">
<ele>514.599</ele>
<time>2024-05-10T13:52:56Z</time>
</trkpt>
<trkpt lat="49.5490875095129" lon="8.99230663664639">
<ele>514.4</ele>
<time>2024-05-10T13:52:57Z</time>
</trkpt>
<trkpt lat="49.549079881981015" lon="8.992341924458742">
<ele>514.4</ele>
<time>2024-05-10T13:52:58Z</time>
</trkpt>
<trkpt lat="49.54907225444913" lon="8.992380062118173">
<ele>514.4</ele>
<time>2024-05-10T13:52:59Z</time>
</trkpt>
<trkpt lat="49.54905699938536" lon="8.992416355758905">
<ele>514.4</ele>
<time>2024-05-10T13:53:00Z</time>
</trkpt>
<trkpt lat="49.549041744321585" lon="8.992453571408987">
<ele>514.4</ele>
<time>2024-05-10T13:53:01Z</time>
</trkpt>
<trkpt lat="49.549022633582354" lon="8.992494558915496">
<ele>514.599</ele>
<time>2024-05-10T13:53:02Z</time>
</trkpt>
<trkpt lat="49.54900737851858" lon="8.992541246116161">
<ele>514.599</ele>
<time>2024-05-10T13:53:03Z</time>
</trkpt>
<trkpt lat="49.54899212345481" lon="8.992594638839364">
<ele>514.8</ele>
<time>2024-05-10T13:53:04Z</time>
</trkpt>
<trkpt lat="49.54897301271558" lon="8.992651887238026">
<ele>515</ele>
<time>2024-05-10T13:53:05Z</time>
</trkpt>
<trkpt lat="49.54895398579538" lon="8.992708129808307">
<ele>515</ele>
<time>2024-05-10T13:53:06Z</time>
</trkpt>
<trkpt lat="49.54892724752426" lon="8.992765378206968">
<ele>515.2</ele>
<time>2024-05-10T13:53:07Z</time>
</trkpt>
<trkpt lat="49.5489043649286" lon="8.992828326299787">
<ele>515.2</ele>
<time>2024-05-10T13:53:08Z</time>
</trkpt>
<trkpt lat="49.548881482332945" lon="8.992896974086761">
<ele>515.2</ele>
<time>2024-05-10T13:53:09Z</time>
</trkpt>
<trkpt lat="49.54885859973729" lon="8.992963777855039">
<ele>515.4</ele>
<time>2024-05-10T13:53:10Z</time>
</trkpt>
<trkpt lat="49.54883571714163" lon="8.993031419813633">
<ele>515.4</ele>
<time>2024-05-10T13:53:11Z</time>
</trkpt>
<trkpt lat="49.54881283454597" lon="8.993106773123145">
<ele>515.4</ele>
<time>2024-05-10T13:53:12Z</time>
</trkpt>
<trkpt lat="49.54879372380674" lon="8.993183132261038">
<ele>515.4</ele>
<time>2024-05-10T13:53:13Z</time>
</trkpt>
<trkpt lat="49.54877469688654" lon="8.993263179436326">
<ele>515.4</ele>
<time>2024-05-10T13:53:14Z</time>
</trkpt>
<trkpt lat="49.54875944182277" lon="8.993351859971881">
<ele>515.599</ele>
<time>2024-05-10T13:53:15Z</time>
</trkpt>
<trkpt lat="49.548744186758995" lon="8.993445318192244">
<ele>515.599</ele>
<time>2024-05-10T13:53:16Z</time>
</trkpt>
<trkpt lat="49.54872893169522" lon="8.993535004556179">
<ele>515.599</ele>
<time>2024-05-10T13:53:17Z</time>
</trkpt>
<trkpt lat="49.54872130416334" lon="8.993626534938812">
<ele>515.599</ele>
<time>2024-05-10T13:53:18Z</time>
</trkpt>
<trkpt lat="49.54870982095599" lon="8.993721920996904">
<ele>515.4</ele>
<time>2024-05-10T13:53:19Z</time>
</trkpt>
<trkpt lat="49.548706049099565" lon="8.993822084739804">
<ele>515.4</ele>
<time>2024-05-10T13:53:20Z</time>
</trkpt>
<trkpt lat="49.548702193424106" lon="8.993914537131786">
<ele>515.4</ele>
<time>2024-05-10T13:53:21Z</time>
</trkpt>
<trkpt lat="49.548702193424106" lon="8.994009923189878">
<ele>515.4</ele>
<time>2024-05-10T13:53:22Z</time>
</trkpt>
<trkpt lat="49.548702193424106" lon="8.994103381410241">
<ele>515</ele>
<time>2024-05-10T13:53:23Z</time>
</trkpt>
<trkpt lat="49.548702193424106" lon="8.994196839630604">
<ele>514.8</ele>
<time>2024-05-10T13:53:24Z</time>
</trkpt>
<trkpt lat="49.54870982095599" lon="8.994295075535774">
<ele>514.599</ele>
<time>2024-05-10T13:53:25Z</time>
</trkpt>
<trkpt lat="49.54871367663145" lon="8.994395239278674">
<ele>514.2</ele>
<time>2024-05-10T13:53:26Z</time>
</trkpt>
<trkpt lat="49.54872130416334" lon="8.994491547346115">
<ele>514</ele>
<time>2024-05-10T13:53:27Z</time>
</trkpt>
<trkpt lat="49.54872893169522" lon="8.994587855413556">
<ele>513.599</ele>
<time>2024-05-10T13:53:28Z</time>
</trkpt>
<trkpt lat="49.54873655922711" lon="8.994683241471648">
<ele>513.4</ele>
<time>2024-05-10T13:53:29Z</time>
</trkpt>
<trkpt lat="49.54874795861542" lon="8.994781477376819">
<ele>513</ele>
<time>2024-05-10T13:53:30Z</time>
</trkpt>
<trkpt lat="49.548763213679194" lon="8.994883485138416">
<ele>512.8</ele>
<time>2024-05-10T13:53:31Z</time>
</trkpt>
<trkpt lat="49.54877846874297" lon="8.994981721043587">
<ele>512.4</ele>
<time>2024-05-10T13:53:32Z</time>
</trkpt>
<trkpt lat="49.54879372380674" lon="8.995081884786487">
<ele>512</ele>
<time>2024-05-10T13:53:33Z</time>
</trkpt>
<trkpt lat="49.5488166064024" lon="8.995176265016198">
<ele>511.6</ele>
<time>2024-05-10T13:53:34Z</time>
</trkpt>
<trkpt lat="49.54883571714163" lon="8.995275422930717">
<ele>511.2</ele>
<time>2024-05-10T13:53:35Z</time>
</trkpt>
<trkpt lat="49.54885859973729" lon="8.995376508682966">
<ele>511</ele>
<time>2024-05-10T13:53:36Z</time>
</trkpt>
<trkpt lat="49.548881482332945" lon="8.995478600263596">
<ele>510.6</ele>
<time>2024-05-10T13:53:37Z</time>
</trkpt>
<trkpt lat="49.548900593072176" lon="8.995585385710001">
<ele>510.2</ele>
<time>2024-05-10T13:53:38Z</time>
</trkpt>
<trkpt lat="49.548923475667834" lon="8.995683621615171">
<ele>509.8</ele>
<time>2024-05-10T13:53:39Z</time>
</trkpt>
<trkpt lat="49.548942502588034" lon="8.995781857520342">
<ele>509.4</ele>
<time>2024-05-10T13:53:40Z</time>
</trkpt>
<trkpt lat="49.54896538518369" lon="8.995882021263242">
<ele>509</ele>
<time>2024-05-10T13:53:41Z</time>
</trkpt>
<trkpt lat="49.54898826777935" lon="8.995986878871918">
<ele>508.6</ele>
<time>2024-05-10T13:53:42Z</time>
</trkpt>
<trkpt lat="49.54900737851858" lon="8.996087964624166">
<ele>508.4</ele>
<time>2024-05-10T13:53:43Z</time>
</trkpt>
<trkpt lat="49.54902648925781" lon="8.996190056204796">
<ele>508</ele>
<time>2024-05-10T13:53:44Z</time>
</trkpt>
<trkpt lat="49.54904937185347" lon="8.996292985975742">
<ele>507.6</ele>
<time>2024-05-10T13:53:45Z</time>
</trkpt>
<trkpt lat="49.54907225444913" lon="8.996395077556372">
<ele>507.2</ele>
<time>2024-05-10T13:53:46Z</time>
</trkpt>
<trkpt lat="49.549098908901215" lon="8.99649809114635">
<ele>506.8</ele>
<time>2024-05-10T13:53:47Z</time>
</trkpt>
<trkpt lat="49.549118019640446" lon="8.996604876592755">
<ele>506.4</ele>
<time>2024-05-10T13:53:48Z</time>
</trkpt>
<trkpt lat="49.549137046560645" lon="8.996709818020463">
<ele>506</ele>
<time>2024-05-10T13:53:49Z</time>
</trkpt>
<trkpt lat="49.5491599291563" lon="8.996820375323296">
<ele>505.6</ele>
<time>2024-05-10T13:53:50Z</time>
</trkpt>
<trkpt lat="49.54918281175196" lon="8.996930094435811">
<ele>505.2</ele>
<time>2024-05-10T13:53:51Z</time>
</trkpt>
<trkpt lat="49.54920577816665" lon="8.997039729729295">
<ele>504.8</ele>
<time>2024-05-10T13:53:52Z</time>
</trkpt>
<trkpt lat="49.54922480508685" lon="8.997151292860508">
<ele>504.4</ele>
<time>2024-05-10T13:53:53Z</time>
</trkpt>
<trkpt lat="49.54924768768251" lon="8.997261933982372">
<ele>504</ele>
<time>2024-05-10T13:53:54Z</time>
</trkpt>
<trkpt lat="49.54926679842174" lon="8.997369725257158">
<ele>503.6</ele>
<time>2024-05-10T13:53:55Z</time>
</trkpt>
<trkpt lat="49.54928582534194" lon="8.997476510703564">
<ele>503.2</ele>
<time>2024-05-10T13:53:56Z</time>
</trkpt>
<trkpt lat="49.54930108040571" lon="8.997583379969">
<ele>502.8</ele>
<time>2024-05-10T13:53:57Z</time>
</trkpt>
<trkpt lat="49.54931256361306" lon="8.997693015262485">
<ele>502.4</ele>
<time>2024-05-10T13:53:58Z</time>
</trkpt>
<trkpt lat="49.54931633546949" lon="8.99779980070889">
<ele>502</ele>
<time>2024-05-10T13:53:59Z</time>
</trkpt>
<trkpt lat="49.54932019114494" lon="8.99790189228952">
<ele>501.4</ele>
<time>2024-05-10T13:54:00Z</time>
</trkpt>
<trkpt lat="49.54931633546949" lon="8.998001972213387">
<ele>501</ele>
<time>2024-05-10T13:54:01Z</time>
</trkpt>
<trkpt lat="49.5493087079376" lon="8.998106913641095">
<ele>500.4</ele>
<time>2024-05-10T13:54:02Z</time>
</trkpt>
<trkpt lat="49.549297308549285" lon="8.9982136990875">
<ele>500</ele>
<time>2024-05-10T13:54:03Z</time>
</trkpt>
<trkpt lat="49.54928205348551" lon="8.998318640515208">
<ele>499.4</ele>
<time>2024-05-10T13:54:04Z</time>
</trkpt>
<trkpt lat="49.54926294274628" lon="8.998421654105186">
<ele>498.8</ele>
<time>2024-05-10T13:54:05Z</time>
</trkpt>
<trkpt lat="49.54923628829419" lon="8.99851511232555">
<ele>498.2</ele>
<time>2024-05-10T13:54:06Z</time>
</trkpt>
<trkpt lat="49.54921340569854" lon="8.998596165329218">
<ele>497.8</ele>
<time>2024-05-10T13:54:07Z</time>
</trkpt>
<trkpt lat="49.54919043928385" lon="8.998675290495157">
<ele>497.2</ele>
<time>2024-05-10T13:54:08Z</time>
</trkpt>
<trkpt lat="49.54916755668819" lon="8.998746871948242">
<ele>496.8</ele>
<time>2024-05-10T13:54:09Z</time>
</trkpt>
<trkpt lat="49.54914852976799" lon="8.998811664059758">
<ele>496.4</ele>
<time>2024-05-10T13:54:10Z</time>
</trkpt>
<trkpt lat="49.54912941902876" lon="8.998874612152576">
<ele>496</ele>
<time>2024-05-10T13:54:11Z</time>
</trkpt>
<trkpt lat="49.54911416396499" lon="8.998929932713509">
<ele>495.6</ele>
<time>2024-05-10T13:54:12Z</time>
</trkpt>
<trkpt lat="49.54910276457667" lon="8.998983325436711">
<ele>495.2</ele>
<time>2024-05-10T13:54:13Z</time>
</trkpt>
<trkpt lat="49.54909513704479" lon="8.999034874141216">
<ele>494.8</ele>
<time>2024-05-10T13:54:14Z</time>
</trkpt>
<trkpt lat="49.54909128136933" lon="8.999083489179611">
<ele>494.4</ele>
<time>2024-05-10T13:54:15Z</time>
</trkpt>
<trkpt lat="49.5490875095129" lon="8.999132104218006">
<ele>494.2</ele>
<time>2024-05-10T13:54:16Z</time>
</trkpt>
<trkpt lat="49.549079881981015" lon="8.999179797247052">
<ele>493.8</ele>
<time>2024-05-10T13:54:17Z</time>
</trkpt>
<trkpt lat="49.5490875095129" lon="8.999221790581942">
<ele>493.4</ele>
<time>2024-05-10T13:54:18Z</time>
</trkpt>
<trkpt lat="49.54909513704479" lon="8.999257078394294">
<ele>493.2</ele>
<time>2024-05-10T13:54:19Z</time>
</trkpt>
<trkpt lat="49.5491065364331" lon="8.999290438368917">
<ele>493</ele>
<time>2024-05-10T13:54:20Z</time>
</trkpt>
<trkpt lat="49.549118019640446" lon="8.99932287633419">
<ele>492.8</ele>
<time>2024-05-10T13:54:21Z</time>
</trkpt>
<trkpt lat="49.54912941902876" lon="8.999353386461735">
<ele>492.6</ele>
<time>2024-05-10T13:54:22Z</time>
</trkpt>
<trkpt lat="49.54913327470422" lon="8.999376269057393">
<ele>492.4</ele>
<time>2024-05-10T13:54:23Z</time>
</trkpt>
<trkpt lat="49.54913327470422" lon="8.99940200150013">
<ele>492.2</ele>
<time>2024-05-10T13:54:24Z</time>
</trkpt>
<trkpt lat="49.54912941902876" lon="8.99940200150013">
<ele>492</ele>
<time>2024-05-10T13:54:25Z</time>
</trkpt>
<trkpt lat="49.54912941902876" lon="8.9994000736624">
<ele>491.8</ele>
<time>2024-05-10T13:54:26Z</time>
</trkpt>
<trkpt lat="49.54912564717233" lon="8.999398229643703">
<ele>491.8</ele>
<time>2024-05-10T13:54:28Z</time>
</trkpt>
<trkpt lat="49.54912564717233" lon="8.9994000736624">
<ele>491.6</ele>
<time>2024-05-10T13:54:31Z</time>
</trkpt>
<trkpt lat="49.54912564717233" lon="8.999398229643703">
<ele>491.4</ele>
<time>2024-05-10T13:54:32Z</time>
</trkpt>
<trkpt lat="49.54912564717233" lon="8.9994000736624">
<ele>491.2</ele>
<time>2024-05-10T13:54:39Z</time>
</trkpt>
<trkpt lat="49.54912564717233" lon="8.999398229643703">
<ele>491</ele>
<time>2024-05-10T13:54:42Z</time>
</trkpt>
<trkpt lat="49.54912564717233" lon="8.999396301805973">
<ele>490.8</ele>
<time>2024-05-10T13:54:44Z</time>
</trkpt>
<trkpt lat="49.54912564717233" lon="8.999398229643703">
<ele>490.6</ele>
<time>2024-05-10T13:54:45Z</time>
</trkpt>
<trkpt lat="49.54912564717233" lon="8.9994000736624">
<ele>490.4</ele>
<time>2024-05-10T13:54:47Z</time>
</trkpt>
<trkpt lat="49.54912941902876" lon="8.9994000736624">
<ele>490.2</ele>
<time>2024-05-10T13:54:48Z</time>
</trkpt>
<trkpt lat="49.54913327470422" lon="8.999408707022667">
<ele>490.2</ele>
<time>2024-05-10T13:54:49Z</time>
</trkpt>
<trkpt lat="49.549140902236104" lon="8.999422956258059">
<ele>490</ele>
<time>2024-05-10T13:54:50Z</time>
</trkpt>
<trkpt lat="49.54915230162442" lon="8.999448772519827">
<ele>490</ele>
<time>2024-05-10T13:54:51Z</time>
</trkpt>
<trkpt lat="49.54917141236365" lon="8.999475426971912">
<ele>489.8</ele>
<time>2024-05-10T13:54:52Z</time>
</trkpt>
<trkpt lat="49.54919429495931" lon="8.999503087252378">
<ele>489.8</ele>
<time>2024-05-10T13:54:53Z</time>
</trkpt>
<trkpt lat="49.549221033230424" lon="8.999525047838688">
<ele>489.6</ele>
<time>2024-05-10T13:54:54Z</time>
</trkpt>
<trkpt lat="49.54925154335797" lon="8.999541224911809">
<ele>489.6</ele>
<time>2024-05-10T13:54:55Z</time>
</trkpt>
<trkpt lat="49.5492896810174" lon="8.999549858272076">
<ele>489.4</ele>
<time>2024-05-10T13:54:56Z</time>
</trkpt>
<trkpt lat="49.54932396300137" lon="8.999547930434346">
<ele>489.4</ele>
<time>2024-05-10T13:54:57Z</time>
</trkpt>
<trkpt lat="49.549358328804374" lon="8.999543152749538">
<ele>489.2</ele>
<time>2024-05-10T13:54:58Z</time>
</trkpt>
<trkpt lat="49.54938883893192" lon="8.999527897685766">
<ele>489.2</ele>
<time>2024-05-10T13:54:59Z</time>
</trkpt>
<trkpt lat="49.549415577203035" lon="8.999496381729841">
<ele>489.2</ele>
<time>2024-05-10T13:55:00Z</time>
</trkpt>
<trkpt lat="49.54944608733058" lon="8.99946209974587">
<ele>489</ele>
<time>2024-05-10T13:55:01Z</time>
</trkpt>
<trkpt lat="49.54946896992624" lon="8.999416334554553">
<ele>488.8</ele>
<time>2024-05-10T13:55:02Z</time>
</trkpt>
<trkpt lat="49.549491852521896" lon="8.99936294183135">
<ele>488.6</ele>
<time>2024-05-10T13:55:03Z</time>
</trkpt>
<trkpt lat="49.549510879442096" lon="8.99930376559496">
<ele>488.4</ele>
<time>2024-05-10T13:55:04Z</time>
</trkpt>
<trkpt lat="49.54952613450587" lon="8.999237967655063">
<ele>488</ele>
<time>2024-05-10T13:55:05Z</time>
</trkpt>
<trkpt lat="49.54954147338867" lon="8.999173091724515">
<ele>487.8</ele>
<time>2024-05-10T13:55:06Z</time>
</trkpt>
<trkpt lat="49.54955672845245" lon="8.999110143631697">
<ele>487.4</ele>
<time>2024-05-10T13:55:07Z</time>
</trkpt>
<trkpt lat="49.549571983516216" lon="8.99904627352953">
<ele>487</ele>
<time>2024-05-10T13:55:08Z</time>
</trkpt>
<trkpt lat="49.54958723857999" lon="8.998981397598982">
<ele>486.6</ele>
<time>2024-05-10T13:55:09Z</time>
</trkpt>
<trkpt lat="49.5495986379683" lon="8.998914677649736">
<ele>486.4</ele>
<time>2024-05-10T13:55:10Z</time>
</trkpt>
<trkpt lat="49.549613893032074" lon="8.99884695187211">
<ele>486.2</ele>
<time>2024-05-10T13:55:11Z</time>
</trkpt>
<trkpt lat="49.549629148095846" lon="8.998776376247406">
<ele>485.8</ele>
<time>2024-05-10T13:55:12Z</time>
</trkpt>
<trkpt lat="49.54964440315962" lon="8.99870865046978">
<ele>485.6</ele>
<time>2024-05-10T13:55:13Z</time>
</trkpt>
<trkpt lat="49.54966351389885" lon="8.998635224997997">
<ele>485.2</ele>
<time>2024-05-10T13:55:14Z</time>
</trkpt>
<trkpt lat="49.54968254081905" lon="8.998564649373293">
<ele>484.8</ele>
<time>2024-05-10T13:55:15Z</time>
</trkpt>
<trkpt lat="49.54970165155828" lon="8.998490301892161">
<ele>484.4</ele>
<time>2024-05-10T13:55:16Z</time>
</trkpt>
<trkpt lat="49.54972453415394" lon="8.99841302074492">
<ele>484</ele>
<time>2024-05-10T13:55:17Z</time>
</trkpt>
<trkpt lat="49.54974364489317" lon="8.998336745426059">
<ele>483.6</ele>
<time>2024-05-10T13:55:18Z</time>
</trkpt>
<trkpt lat="49.54976652748883" lon="8.998256614431739">
<ele>483</ele>
<time>2024-05-10T13:55:19Z</time>
</trkpt>
<trkpt lat="49.54978555440903" lon="8.998174639418721">
<ele>482.6</ele>
<time>2024-05-10T13:55:20Z</time>
</trkpt>
<trkpt lat="49.54980466514826" lon="8.998088808730245">
<ele>482</ele>
<time>2024-05-10T13:55:21Z</time>
</trkpt>
<trkpt lat="49.54981992021203" lon="8.998001972213387">
<ele>481.8</ele>
<time>2024-05-10T13:55:22Z</time>
</trkpt>
<trkpt lat="49.54984280280769" lon="8.997913291677833">
<ele>481.4</ele>
<time>2024-05-10T13:55:23Z</time>
</trkpt>
<trkpt lat="49.549869457259774" lon="8.997824611142278">
<ele>481.2</ele>
<time>2024-05-10T13:55:24Z</time>
</trkpt>
<trkpt lat="49.54989619553089" lon="8.997735008597374">
<ele>481</ele>
<time>2024-05-10T13:55:25Z</time>
</trkpt>
<trkpt lat="49.54991907812655" lon="8.997643394395709">
<ele>480.8</ele>
<time>2024-05-10T13:55:26Z</time>
</trkpt>
<trkpt lat="49.54994581639767" lon="8.997551864013076">
<ele>480.6</ele>
<time>2024-05-10T13:55:27Z</time>
</trkpt>
<trkpt lat="49.549968698993325" lon="8.997461255639791">
<ele>480.4</ele>
<time>2024-05-10T13:55:28Z</time>
</trkpt>
<trkpt lat="49.54999535344541" lon="8.997367797419429">
<ele>480.2</ele>
<time>2024-05-10T13:55:29Z</time>
</trkpt>
<trkpt lat="49.55001823604107" lon="8.997271489351988">
<ele>480</ele>
<time>2024-05-10T13:55:30Z</time>
</trkpt>
<trkpt lat="49.55003349110484" lon="8.997171325609088">
<ele>479.6</ele>
<time>2024-05-10T13:55:31Z</time>
</trkpt>
<trkpt lat="49.5500373467803" lon="8.997068395838141">
<ele>479.2</ele>
<time>2024-05-10T13:55:32Z</time>
</trkpt>
<trkpt lat="49.550044974312186" lon="8.996968232095242">
<ele>478.8</ele>
<time>2024-05-10T13:55:33Z</time>
</trkpt>
<trkpt lat="49.55004874616861" lon="8.996868068352342">
<ele>478.4</ele>
<time>2024-05-10T13:55:34Z</time>
</trkpt>
<trkpt lat="49.55004874616861" lon="8.996767988428473">
<ele>478</ele>
<time>2024-05-10T13:55:35Z</time>
</trkpt>
<trkpt lat="49.55005260184407" lon="8.996671596542">
<ele>477.6</ele>
<time>2024-05-10T13:55:36Z</time>
</trkpt>
<trkpt lat="49.550044974312186" lon="8.99657528847456">
<ele>477.4</ele>
<time>2024-05-10T13:55:37Z</time>
</trkpt>
<trkpt lat="49.55003349110484" lon="8.99647805839777">
<ele>477</ele>
<time>2024-05-10T13:55:38Z</time>
</trkpt>
<trkpt lat="49.55003349110484" lon="8.996388372033834">
<ele>476.6</ele>
<time>2024-05-10T13:55:39Z</time>
</trkpt>
<trkpt lat="49.550025863572955" lon="8.99629776366055">
<ele>476.4</ele>
<time>2024-05-10T13:55:40Z</time>
</trkpt>
<trkpt lat="49.55001446418464" lon="8.996212938800454">
<ele>476</ele>
<time>2024-05-10T13:55:41Z</time>
</trkpt>
<trkpt lat="49.55000683665275" lon="8.996126102283597">
<ele>475.8</ele>
<time>2024-05-10T13:55:42Z</time>
</trkpt>
<trkpt lat="49.55000683665275" lon="8.99604027159512">
<ele>475.6</ele>
<time>2024-05-10T13:55:43Z</time>
</trkpt>
<trkpt lat="49.5500029809773" lon="8.995953518897295">
<ele>475.4</ele>
<time>2024-05-10T13:55:44Z</time>
</trkpt>
<trkpt lat="49.55001060850918" lon="8.99586676619947">
<ele>475.2</ele>
<time>2024-05-10T13:55:45Z</time>
</trkpt>
<trkpt lat="49.55002209171653" lon="8.995778001844883">
<ele>475</ele>
<time>2024-05-10T13:55:46Z</time>
</trkpt>
<trkpt lat="49.55004111863673" lon="8.995691249147058">
<ele>474.6</ele>
<time>2024-05-10T13:55:47Z</time>
</trkpt>
<trkpt lat="49.550067856907845" lon="8.995611118152738">
<ele>474.4</ele>
<time>2024-05-10T13:55:48Z</time>
</trkpt>
<trkpt lat="49.55010222271085" lon="8.995545320212841">
<ele>474</ele>
<time>2024-05-10T13:55:49Z</time>
</trkpt>
<trkpt lat="49.55014798790216" lon="8.995491927489638">
<ele>473.8</ele>
<time>2024-05-10T13:55:50Z</time>
</trkpt>
<trkpt lat="49.55019752494991" lon="8.995459489524364">
<ele>473.4</ele>
<time>2024-05-10T13:55:51Z</time>
</trkpt>
<trkpt lat="49.55025100149214" lon="8.99545001797378">
<ele>473</ele>
<time>2024-05-10T13:55:52Z</time>
</trkpt>
<trkpt lat="49.55030816607177" lon="8.995458567515016">
<ele>472.6</ele>
<time>2024-05-10T13:55:53Z</time>
</trkpt>
<trkpt lat="49.55035778693855" lon="8.995481450110674">
<ele>472.4</ele>
<time>2024-05-10T13:55:54Z</time>
</trkpt>
<trkpt lat="49.550403552129865" lon="8.995523443445563">
<ele>472</ele>
<time>2024-05-10T13:55:55Z</time>
</trkpt>
<trkpt lat="49.550445545464754" lon="8.995578764006495">
<ele>471.8</ele>
<time>2024-05-10T13:55:56Z</time>
</trkpt>
<trkpt lat="49.550479827448726" lon="8.995643556118011">
<ele>471.4</ele>
<time>2024-05-10T13:55:57Z</time>
</trkpt>
<trkpt lat="49.55051033757627" lon="8.995715137571096">
<ele>471.2</ele>
<time>2024-05-10T13:55:58Z</time>
</trkpt>
<trkpt lat="49.55053707584739" lon="8.995795184746385">
<ele>470.8</ele>
<time>2024-05-10T13:55:59Z</time>
</trkpt>
<trkpt lat="49.550559958443046" lon="8.995878165587783">
<ele>470.6</ele>
<time>2024-05-10T13:56:00Z</time>
</trkpt>
<trkpt lat="49.55058669671416" lon="8.99596307426691">
<ele>470.4</ele>
<time>2024-05-10T13:56:01Z</time>
</trkpt>
<trkpt lat="49.55061335116625" lon="8.99604320526123">
<ele>470.2</ele>
<time>2024-05-10T13:56:02Z</time>
</trkpt>
<trkpt lat="49.550640089437366" lon="8.996123252436519">
<ele>470</ele>
<time>2024-05-10T13:56:03Z</time>
</trkpt>
<trkpt lat="49.55066674388945" lon="8.996203383430839">
<ele>469.8</ele>
<time>2024-05-10T13:56:04Z</time>
</trkpt>
<trkpt lat="49.55068962648511" lon="8.996286364272237">
<ele>469.8</ele>
<time>2024-05-10T13:56:05Z</time>
</trkpt>
<trkpt lat="49.55071636475623" lon="8.996370267122984">
<ele>469.4</ele>
<time>2024-05-10T13:56:06Z</time>
</trkpt>
<trkpt lat="49.55074687488377" lon="8.996451320126653">
<ele>469.2</ele>
<time>2024-05-10T13:56:07Z</time>
</trkpt>
<trkpt lat="49.5507850125432" lon="8.996533378958702">
<ele>469</ele>
<time>2024-05-10T13:56:08Z</time>
</trkpt>
<trkpt lat="49.55082315020263" lon="8.9966163598001">
<ele>468.6</ele>
<time>2024-05-10T13:56:09Z</time>
</trkpt>
<trkpt lat="49.55086891539395" lon="8.996701184660196">
<ele>468.4</ele>
<time>2024-05-10T13:56:10Z</time>
</trkpt>
<trkpt lat="49.55091853626072" lon="8.996783243492246">
<ele>468</ele>
<time>2024-05-10T13:56:11Z</time>
</trkpt>
<trkpt lat="49.550975784659386" lon="8.996860440820456">
<ele>467.6</ele>
<time>2024-05-10T13:56:12Z</time>
</trkpt>
<trkpt lat="49.551036804914474" lon="8.996928166598082">
<ele>467.4</ele>
<time>2024-05-10T13:56:13Z</time>
</trkpt>
<trkpt lat="49.551094053313136" lon="8.996990192681551">
<ele>467</ele>
<time>2024-05-10T13:56:14Z</time>
</trkpt>
<trkpt lat="49.551155073568225" lon="8.997039729729295">
<ele>466.6</ele>
<time>2024-05-10T13:56:15Z</time>
</trkpt>
<trkpt lat="49.55121986567974" lon="8.997077867388725">
<ele>466.4</ele>
<time>2024-05-10T13:56:16Z</time>
</trkpt>
<trkpt lat="49.55128096975386" lon="8.997106533497572">
<ele>466</ele>
<time>2024-05-10T13:56:17Z</time>
</trkpt>
<trkpt lat="49.55133813433349" lon="8.99713033810258">
<ele>465.8</ele>
<time>2024-05-10T13:56:18Z</time>
</trkpt>
<trkpt lat="49.55139538273215" lon="8.997143665328622">
<ele>465.4</ele>
<time>2024-05-10T13:56:19Z</time>
</trkpt>
<trkpt lat="49.55144877545536" lon="8.997151292860508">
<ele>465</ele>
<time>2024-05-10T13:56:20Z</time>
</trkpt>
<trkpt lat="49.551509795710444" lon="8.997153220698237">
<ele>464.8</ele>
<time>2024-05-10T13:56:21Z</time>
</trkpt>
<trkpt lat="49.55157081596553" lon="8.997153220698237">
<ele>464.4</ele>
<time>2024-05-10T13:56:22Z</time>
</trkpt>
<trkpt lat="49.551631920039654" lon="8.997143665328622">
<ele>464</ele>
<time>2024-05-10T13:56:23Z</time>
</trkpt>
<trkpt lat="49.55169671215117" lon="8.99713033810258">
<ele>463.4</ele>
<time>2024-05-10T13:56:24Z</time>
</trkpt>
<trkpt lat="49.55175396054983" lon="8.997110305354">
<ele>463</ele>
<time>2024-05-10T13:56:25Z</time>
</trkpt>
<trkpt lat="49.55181120894849" lon="8.997083650901914">
<ele>462.6</ele>
<time>2024-05-10T13:56:26Z</time>
</trkpt>
<trkpt lat="49.55187222920358" lon="8.997054984793067">
<ele>462.2</ele>
<time>2024-05-10T13:56:27Z</time>
</trkpt>
<trkpt lat="49.55193324945867" lon="8.997034952044487">
<ele>461.6</ele>
<time>2024-05-10T13:56:28Z</time>
</trkpt>
<trkpt lat="49.55199049785733" lon="8.99703310802579">
<ele>461.2</ele>
<time>2024-05-10T13:56:29Z</time>
</trkpt>
<trkpt lat="49.55205151811242" lon="8.997044507414103">
<ele>460.6</ele>
<time>2024-05-10T13:56:30Z</time>
</trkpt>
<trkpt lat="49.552104910835624" lon="8.997075017541647">
<ele>460.2</ele>
<time>2024-05-10T13:56:31Z</time>
</trkpt>
<trkpt lat="49.552158303558826" lon="8.997121788561344">
<ele>459.8</ele>
<time>2024-05-10T13:56:32Z</time>
</trkpt>
<trkpt lat="49.55219644121826" lon="8.997181886807084">
<ele>459.4</ele>
<time>2024-05-10T13:56:33Z</time>
</trkpt>
<trkpt lat="49.552223179489374" lon="8.997251456603408">
<ele>459</ele>
<time>2024-05-10T13:56:34Z</time>
</trkpt>
<trkpt lat="49.55224606208503" lon="8.997335359454155">
<ele>458.6</ele>
<time>2024-05-10T13:56:35Z</time>
</trkpt>
<trkpt lat="49.55225368961692" lon="8.997423117980361">
<ele>458.2</ele>
<time>2024-05-10T13:56:36Z</time>
</trkpt>
<trkpt lat="49.55224983394146" lon="8.997520431876183">
<ele>458</ele>
<time>2024-05-10T13:56:37Z</time>
</trkpt>
<trkpt lat="49.55223080702126" lon="8.997610034421086">
<ele>457.8</ele>
<time>2024-05-10T13:56:38Z</time>
</trkpt>
<trkpt lat="49.55220029689371" lon="8.997696870937943">
<ele>457.4</ele>
<time>2024-05-10T13:56:39Z</time>
</trkpt>
<trkpt lat="49.552162159234285" lon="8.99777976796031">
<ele>457</ele>
<time>2024-05-10T13:56:40Z</time>
</trkpt>
<trkpt lat="49.55211639404297" lon="8.997851349413395">
<ele>456.6</ele>
<time>2024-05-10T13:56:41Z</time>
</trkpt>
<trkpt lat="49.55206677317619" lon="8.997916141524911">
<ele>456.4</ele>
<time>2024-05-10T13:56:42Z</time>
</trkpt>
<trkpt lat="49.55201715230942" lon="8.99798202328384">
<ele>455.8</ele>
<time>2024-05-10T13:56:43Z</time>
</trkpt>
<trkpt lat="49.551963759586215" lon="8.998043043538928">
<ele>455.6</ele>
<time>2024-05-10T13:56:44Z</time>
</trkpt>
<trkpt lat="49.55191413871944" lon="8.998111691325903">
<ele>455.2</ele>
<time>2024-05-10T13:56:45Z</time>
</trkpt>
<trkpt lat="49.55186837352812" lon="8.998181261122227">
<ele>454.8</ele>
<time>2024-05-10T13:56:46Z</time>
</trkpt>
<trkpt lat="49.551822608336806" lon="8.998254770413041">
<ele>454.6</ele>
<time>2024-05-10T13:56:47Z</time>
</trkpt>
<trkpt lat="49.55178069882095" lon="8.998330039903522">
<ele>454.4</ele>
<time>2024-05-10T13:56:48Z</time>
</trkpt>
<trkpt lat="49.551746333017945" lon="8.998408243060112">
<ele>454.2</ele>
<time>2024-05-10T13:56:49Z</time>
</trkpt>
<trkpt lat="49.5517158228904" lon="8.99849122390151">
<ele>454</ele>
<time>2024-05-10T13:56:50Z</time>
</trkpt>
<trkpt lat="49.55169294029474" lon="8.998582838103175">
<ele>453.6</ele>
<time>2024-05-10T13:56:51Z</time>
</trkpt>
<trkpt lat="49.551666202023625" lon="8.998673362657428">
<ele>453.4</ele>
<time>2024-05-10T13:56:52Z</time>
</trkpt>
<trkpt lat="49.551647175103426" lon="8.998773526400328">
<ele>453.2</ele>
<time>2024-05-10T13:56:53Z</time>
</trkpt>
<trkpt lat="49.551628064364195" lon="8.998880311846733">
<ele>452.8</ele>
<time>2024-05-10T13:56:54Z</time>
</trkpt>
<trkpt lat="49.55160518176854" lon="8.99898617528379">
<ele>452.6</ele>
<time>2024-05-10T13:56:55Z</time>
</trkpt>
<trkpt lat="49.55159755423665" lon="8.999096816405654">
<ele>452.2</ele>
<time>2024-05-10T13:56:56Z</time>
</trkpt>
<trkpt lat="49.55158992670477" lon="8.999199829995632">
<ele>452</ele>
<time>2024-05-10T13:56:57Z</time>
</trkpt>
<trkpt lat="49.55158229917288" lon="8.999306615442038">
<ele>451.6</ele>
<time>2024-05-10T13:56:58Z</time>
</trkpt>
<trkpt lat="49.55157844349742" lon="8.999422956258059">
<ele>451.4</ele>
<time>2024-05-10T13:56:59Z</time>
</trkpt>
<trkpt lat="49.55157844349742" lon="8.99954030290246">
<ele>451</ele>
<time>2024-05-10T13:57:00Z</time>
</trkpt>
<trkpt lat="49.55157467164099" lon="8.999652788043022">
<ele>450.6</ele>
<time>2024-05-10T13:57:01Z</time>
</trkpt>
<trkpt lat="49.55157081596553" lon="8.99975965730846">
<ele>450.2</ele>
<time>2024-05-10T13:57:02Z</time>
</trkpt>
<trkpt lat="49.55157081596553" lon="8.999863592907786">
<ele>449.8</ele>
<time>2024-05-10T13:57:03Z</time>
</trkpt>
<trkpt lat="49.55156318843365" lon="8.999979933723807">
<ele>449.4</ele>
<time>2024-05-10T13:57:04Z</time>
</trkpt>
<trkpt lat="49.55156318843365" lon="9.00009342469275">
<ele>448.8</ele>
<time>2024-05-10T13:57:05Z</time>
</trkpt>
<trkpt lat="49.55155941657722" lon="9.000209765508771">
<ele>448.4</ele>
<time>2024-05-10T13:57:06Z</time>
</trkpt>
<trkpt lat="49.55155556090176" lon="9.000321328639984">
<ele>447.8</ele>
<time>2024-05-10T13:57:07Z</time>
</trkpt>
<trkpt lat="49.551551789045334" lon="9.000441525131464">
<ele>447.2</ele>
<time>2024-05-10T13:57:08Z</time>
</trkpt>
<trkpt lat="49.551551789045334" lon="9.000556943938136">
<ele>446.6</ele>
<time>2024-05-10T13:57:09Z</time>
</trkpt>
<trkpt lat="49.551547933369875" lon="9.00066850706935">
<ele>446.2</ele>
<time>2024-05-10T13:57:10Z</time>
</trkpt>
<trkpt lat="49.551547933369875" lon="9.000809658318758">
<ele>445.6</ele>
<time>2024-05-10T13:57:11Z</time>
</trkpt>
<trkpt lat="49.55154416151345" lon="9.000947875902057">
<ele>445.2</ele>
<time>2024-05-10T13:57:12Z</time>
</trkpt>
<trkpt lat="49.55154416151345" lon="9.001085255295038">
<ele>444.8</ele>
<time>2024-05-10T13:57:13Z</time>
</trkpt>
<trkpt lat="49.55154030583799" lon="9.001212073490024">
<ele>444.2</ele>
<time>2024-05-10T13:57:14Z</time>
</trkpt>
<trkpt lat="49.55153653398156" lon="9.00133796967566">
<ele>443.6</ele>
<time>2024-05-10T13:57:15Z</time>
</trkpt>
<trkpt lat="49.5515326783061" lon="9.001471493393183">
<ele>443</ele>
<time>2024-05-10T13:57:16Z</time>
</trkpt>
<trkpt lat="49.55152890644968" lon="9.001601161435246">
<ele>442.4</ele>
<time>2024-05-10T13:57:17Z</time>
</trkpt>
<trkpt lat="49.55152505077422" lon="9.001729907467961">
<ele>441.8</ele>
<time>2024-05-10T13:57:18Z</time>
</trkpt>
<trkpt lat="49.55152127891779" lon="9.00185295380652">
<ele>441.2</ele>
<time>2024-05-10T13:57:19Z</time>
</trkpt>
<trkpt lat="49.55152127891779" lon="9.00197021663189">
<ele>440.6</ele>
<time>2024-05-10T13:57:20Z</time>
</trkpt>
<trkpt lat="49.55151742324233" lon="9.002079935744405">
<ele>440.2</ele>
<time>2024-05-10T13:57:21Z</time>
</trkpt>
<trkpt lat="49.5515136513859" lon="9.00218864902854">
<ele>439.6</ele>
<time>2024-05-10T13:57:22Z</time>
</trkpt>
<trkpt lat="49.55151742324233" lon="9.002298284322023">
<ele>439</ele>
<time>2024-05-10T13:57:23Z</time>
</trkpt>
<trkpt lat="49.55152127891779" lon="9.002403225749731">
<ele>438.4</ele>
<time>2024-05-10T13:57:24Z</time>
</trkpt>
<trkpt lat="49.55152890644968" lon="9.002510011196136">
<ele>438</ele>
<time>2024-05-10T13:57:25Z</time>
</trkpt>
<trkpt lat="49.551547933369875" lon="9.002616880461574">
<ele>437.4</ele>
<time>2024-05-10T13:57:26Z</time>
</trkpt>
<trkpt lat="49.551567044109106" lon="9.002717966213822">
<ele>437</ele>
<time>2024-05-10T13:57:27Z</time>
</trkpt>
<trkpt lat="49.55159369856119" lon="9.00281804613769">
<ele>436.4</ele>
<time>2024-05-10T13:57:28Z</time>
</trkpt>
<trkpt lat="49.55162043683231" lon="9.002916282042861">
<ele>435.8</ele>
<time>2024-05-10T13:57:29Z</time>
</trkpt>
<trkpt lat="49.55165480263531" lon="9.003007812425494">
<ele>435.4</ele>
<time>2024-05-10T13:57:30Z</time>
</trkpt>
<trkpt lat="49.55170056782663" lon="9.003087943419814">
<ele>435</ele>
<time>2024-05-10T13:57:31Z</time>
</trkpt>
<trkpt lat="49.551746333017945" lon="9.003163296729326">
<ele>434.4</ele>
<time>2024-05-10T13:57:32Z</time>
</trkpt>
<trkpt lat="49.551788326352835" lon="9.003221467137337">
<ele>434</ele>
<time>2024-05-10T13:57:33Z</time>
</trkpt>
<trkpt lat="49.55183409154415" lon="9.003272010013461">
<ele>433.4</ele>
<time>2024-05-10T13:57:34Z</time>
</trkpt>
<trkpt lat="49.55187985673547" lon="9.00331299751997">
<ele>433</ele>
<time>2024-05-10T13:57:35Z</time>
</trkpt>
<trkpt lat="49.55193324945867" lon="9.00335499085486">
<ele>432.4</ele>
<time>2024-05-10T13:57:36Z</time>
</trkpt>
<trkpt lat="49.55197901464999" lon="9.003406455740333">
<ele>432</ele>
<time>2024-05-10T13:57:37Z</time>
</trkpt>
<trkpt lat="49.552024779841304" lon="9.003470409661531">
<ele>431.4</ele>
<time>2024-05-10T13:57:38Z</time>
</trkpt>
<trkpt lat="49.55206677317619" lon="9.003542829304934">
<ele>431</ele>
<time>2024-05-10T13:57:39Z</time>
</trkpt>
<trkpt lat="49.552101055160165" lon="9.003618182614446">
<ele>430.4</ele>
<time>2024-05-10T13:57:40Z</time>
</trkpt>
<trkpt lat="49.55212016589939" lon="9.003716418519616">
<ele>430</ele>
<time>2024-05-10T13:57:41Z</time>
</trkpt>
<trkpt lat="49.55212779343128" lon="9.003818510100245">
<ele>429.6</ele>
<time>2024-05-10T13:57:42Z</time>
</trkpt>
<trkpt lat="49.55212779343128" lon="9.003918590024114">
<ele>429</ele>
<time>2024-05-10T13:57:43Z</time>
</trkpt>
<trkpt lat="49.55211253836751" lon="9.004013054072857">
<ele>428.6</ele>
<time>2024-05-10T13:57:44Z</time>
</trkpt>
<trkpt lat="49.55208965577185" lon="9.004101734608412">
<ele>428</ele>
<time>2024-05-10T13:57:45Z</time>
</trkpt>
<trkpt lat="49.55205151811242" lon="9.004188487306237">
<ele>427.6</ele>
<time>2024-05-10T13:57:46Z</time>
</trkpt>
<trkpt lat="49.55200952477753" lon="9.004266690462828">
<ele>427</ele>
<time>2024-05-10T13:57:47Z</time>
</trkpt>
<trkpt lat="49.5519523601979" lon="9.004335338249803">
<ele>426.6</ele>
<time>2024-05-10T13:57:48Z</time>
</trkpt>
<trkpt lat="49.551887484267354" lon="9.004393508657813">
<ele>426</ele>
<time>2024-05-10T13:57:49Z</time>
</trkpt>
<trkpt lat="49.55181498080492" lon="9.004451679065824">
<ele>425.4</ele>
<time>2024-05-10T13:57:50Z</time>
</trkpt>
<trkpt lat="49.551746333017945" lon="9.00452041067183">
<ele>425</ele>
<time>2024-05-10T13:57:51Z</time>
</trkpt>
<trkpt lat="49.55167768523097" lon="9.004594758152962">
<ele>424.6</ele>
<time>2024-05-10T13:57:52Z</time>
</trkpt>
<trkpt lat="49.55161666497588" lon="9.00467966683209">
<ele>424.2</ele>
<time>2024-05-10T13:57:53Z</time>
</trkpt>
<trkpt lat="49.551551789045334" lon="9.004771197214723">
<ele>423.8</ele>
<time>2024-05-10T13:57:54Z</time>
</trkpt>
<trkpt lat="49.55149454064667" lon="9.004870355129242">
<ele>423.4</ele>
<time>2024-05-10T13:57:55Z</time>
</trkpt>
<trkpt lat="49.55143737606704" lon="9.00497529655695">
<ele>423</ele>
<time>2024-05-10T13:57:56Z</time>
</trkpt>
<trkpt lat="49.55138012766838" lon="9.0050935652107">
<ele>422.6</ele>
<time>2024-05-10T13:57:57Z</time>
</trkpt>
<trkpt lat="49.55131910741329" lon="9.005218455567956">
<ele>422.2</ele>
<time>2024-05-10T13:57:58Z</time>
</trkpt>
<trkpt lat="49.55126571469009" lon="9.005346279591322">
<ele>421.8</ele>
<time>2024-05-10T13:57:59Z</time>
</trkpt>
<trkpt lat="49.551216093823314" lon="9.005476869642735">
<ele>421.2</ele>
<time>2024-05-10T13:58:00Z</time>
</trkpt>
<trkpt lat="49.55116647295654" lon="9.00560854934156">
<ele>420.8</ele>
<time>2024-05-10T13:58:01Z</time>
</trkpt>
<trkpt lat="49.55112456344068" lon="9.005746766924858">
<ele>420.4</ele>
<time>2024-05-10T13:58:02Z</time>
</trkpt>
<trkpt lat="49.55108257010579" lon="9.005887918174267">
<ele>419.8</ele>
<time>2024-05-10T13:58:03Z</time>
</trkpt>
<trkpt lat="49.551036804914474" lon="9.006031919270754">
<ele>419.4</ele>
<time>2024-05-10T13:58:04Z</time>
</trkpt>
<trkpt lat="49.55099103972316" lon="9.006176926195621">
<ele>418.8</ele>
<time>2024-05-10T13:58:05Z</time>
</trkpt>
<trkpt lat="49.55094527453184" lon="9.006322855129838">
<ele>418.2</ele>
<time>2024-05-10T13:58:06Z</time>
</trkpt>
<trkpt lat="49.55089942552149" lon="9.006469706073403">
<ele>417.6</ele>
<time>2024-05-10T13:58:07Z</time>
</trkpt>
<trkpt lat="49.550853660330176" lon="9.006611779332161">
<ele>417</ele>
<time>2024-05-10T13:58:08Z</time>
</trkpt>
<trkpt lat="49.55080789513886" lon="9.00675200857222">
<ele>416.2</ele>
<time>2024-05-10T13:58:09Z</time>
</trkpt>
<trkpt lat="49.55076212994754" lon="9.006886454299092">
<ele>415.6</ele>
<time>2024-05-10T13:58:10Z</time>
</trkpt>
<trkpt lat="49.550720136612654" lon="9.007015200331807">
<ele>415</ele>
<time>2024-05-10T13:58:11Z</time>
</trkpt>
<trkpt lat="49.55063623376191" lon="9.007258359342812">
<ele>414.2</ele>
<time>2024-05-10T13:58:13Z</time>
</trkpt>
<trkpt lat="49.55059809610248" lon="9.007376627996564">
<ele>413.4</ele>
<time>2024-05-10T13:58:14Z</time>
</trkpt>
<trkpt lat="49.550559958443046" lon="9.007494896650314">
<ele>412.8</ele>
<time>2024-05-10T13:58:15Z</time>
</trkpt>
<trkpt lat="49.550521820783615" lon="9.007615009322762">
<ele>412.2</ele>
<time>2024-05-10T13:58:16Z</time>
</trkpt>
<trkpt lat="49.550483683124185" lon="9.007735205814242">
<ele>411.4</ele>
<time>2024-05-10T13:58:17Z</time>
</trkpt>
<trkpt lat="49.550445545464754" lon="9.007851546630263">
<ele>410.8</ele>
<time>2024-05-10T13:58:18Z</time>
</trkpt>
<trkpt lat="49.55040740780533" lon="9.007967887446284">
<ele>410.2</ele>
<time>2024-05-10T13:58:19Z</time>
</trkpt>
<trkpt lat="49.55037304200232" lon="9.008081378415229">
<ele>409.6</ele>
<time>2024-05-10T13:58:20Z</time>
</trkpt>
<trkpt lat="49.55033490434289" lon="9.00819486938417">
<ele>408.8</ele>
<time>2024-05-10T13:58:21Z</time>
</trkpt>
<trkpt lat="49.550304394215345" lon="9.008303582668304">
<ele>408.2</ele>
<time>2024-05-10T13:58:22Z</time>
</trkpt>
<trkpt lat="49.55027002841234" lon="9.008410451933742">
<ele>407.4</ele>
<time>2024-05-10T13:58:23Z</time>
</trkpt>
<trkpt lat="49.55023574642837" lon="9.008516231551766">
<ele>406.8</ele>
<time>2024-05-10T13:58:24Z</time>
</trkpt>
<trkpt lat="49.55020138062537" lon="9.008623100817204">
<ele>406</ele>
<time>2024-05-10T13:58:25Z</time>
</trkpt>
<trkpt lat="49.55016324296594" lon="9.008729886263607">
<ele>405.4</ele>
<time>2024-05-10T13:58:26Z</time>
</trkpt>
<trkpt lat="49.55012887716293" lon="9.008834827691317">
<ele>405</ele>
<time>2024-05-10T13:58:27Z</time>
</trkpt>
<trkpt lat="49.55009836703539" lon="9.008933063596489">
<ele>404.4</ele>
<time>2024-05-10T13:58:28Z</time>
</trkpt>
<trkpt lat="49.5500717125833" lon="9.00902459397912">
<ele>404</ele>
<time>2024-05-10T13:58:29Z</time>
</trkpt>
<trkpt lat="49.550044974312186" lon="9.009111346676946">
<ele>403.6</ele>
<time>2024-05-10T13:58:30Z</time>
</trkpt>
<trkpt lat="49.55001823604107" lon="9.0092000272125">
<ele>403</ele>
<time>2024-05-10T13:58:31Z</time>
</trkpt>
<trkpt lat="49.54999158158898" lon="9.009284935891628">
<ele>402.4</ele>
<time>2024-05-10T13:58:32Z</time>
</trkpt>
<trkpt lat="49.549964843317866" lon="9.009367916733028">
<ele>401.8</ele>
<time>2024-05-10T13:58:33Z</time>
</trkpt>
<trkpt lat="49.54994196072221" lon="9.009451819583774">
<ele>401.2</ele>
<time>2024-05-10T13:58:34Z</time>
</trkpt>
<trkpt lat="49.54991907812655" lon="9.009534800425172">
<ele>400.6</ele>
<time>2024-05-10T13:58:35Z</time>
</trkpt>
<trkpt lat="49.54989619553089" lon="9.00961870327592">
<ele>399.8</ele>
<time>2024-05-10T13:58:36Z</time>
</trkpt>
<trkpt lat="49.549869457259774" lon="9.00969690643251">
<ele>399.2</ele>
<time>2024-05-10T13:58:37Z</time>
</trkpt>
<trkpt lat="49.549850430339575" lon="9.009770331904292">
<ele>398.6</ele>
<time>2024-05-10T13:58:38Z</time>
</trkpt>
<trkpt lat="49.5498351752758" lon="9.009836129844189">
<ele>398.2</ele>
<time>2024-05-10T13:58:39Z</time>
</trkpt>
<trkpt lat="49.54982369206846" lon="9.00989530608058">
<ele>397.6</ele>
<time>2024-05-10T13:58:40Z</time>
</trkpt>
<trkpt lat="49.54981606453657" lon="9.009948698803782">
<ele>397</ele>
<time>2024-05-10T13:58:41Z</time>
</trkpt>
<trkpt lat="49.549808437004685" lon="9.010002091526983">
<ele>396.2</ele>
<time>2024-05-10T13:58:42Z</time>
</trkpt>
<trkpt lat="49.5498008094728" lon="9.01005171239376">
<ele>395.6</ele>
<time>2024-05-10T13:58:43Z</time>
</trkpt>
<trkpt lat="49.54979318194091" lon="9.010096471756697">
<ele>395</ele>
<time>2024-05-10T13:58:44Z</time>
</trkpt>
<trkpt lat="49.54978555440903" lon="9.010138465091586">
<ele>394.6</ele>
<time>2024-05-10T13:58:45Z</time>
</trkpt>
<trkpt lat="49.5497817825526" lon="9.010176602751017">
<ele>393.8</ele>
<time>2024-05-10T13:58:46Z</time>
</trkpt>
<trkpt lat="49.5497817825526" lon="9.010214740410447">
<ele>393.2</ele>
<time>2024-05-10T13:58:47Z</time>
</trkpt>
<trkpt lat="49.5497817825526" lon="9.010254805907609">
<ele>392.8</ele>
<time>2024-05-10T13:58:48Z</time>
</trkpt>
<trkpt lat="49.5497817825526" lon="9.010294871404769">
<ele>392.2</ele>
<time>2024-05-10T13:58:49Z</time>
</trkpt>
<trkpt lat="49.5497817825526" lon="9.010333009064198">
<ele>391.8</ele>
<time>2024-05-10T13:58:50Z</time>
</trkpt>
<trkpt lat="49.5497817825526" lon="9.010373074561356">
<ele>391.4</ele>
<time>2024-05-10T13:58:51Z</time>
</trkpt>
<trkpt lat="49.5497817825526" lon="9.01040643453598">
<ele>391</ele>
<time>2024-05-10T13:58:52Z</time>
</trkpt>
<trkpt lat="49.54978555440903" lon="9.010441722348332">
<ele>390.8</ele>
<time>2024-05-10T13:58:53Z</time>
</trkpt>
<trkpt lat="49.54978555440903" lon="9.010471310466528">
<ele>390.6</ele>
<time>2024-05-10T13:58:54Z</time>
</trkpt>
<trkpt lat="49.549789410084486" lon="9.010499892756345">
<ele>390.4</ele>
<time>2024-05-10T13:58:55Z</time>
</trkpt>
<trkpt lat="49.549789410084486" lon="9.010531408712268">
<ele>390.2</ele>
<time>2024-05-10T13:58:56Z</time>
</trkpt>
<trkpt lat="49.54978555440903" lon="9.01056284084916">
<ele>390</ele>
<time>2024-05-10T13:58:57Z</time>
</trkpt>
<trkpt lat="49.54978555440903" lon="9.010595278814437">
<ele>389.8</ele>
<time>2024-05-10T13:58:58Z</time>
</trkpt>
<trkpt lat="49.5497817825526" lon="9.0106229390949">
<ele>389.6</ele>
<time>2024-05-10T13:58:59Z</time>
</trkpt>
<trkpt lat="49.54977792687714" lon="9.010649677366018">
<ele>389.4</ele>
<time>2024-05-10T13:59:00Z</time>
</trkpt>
<trkpt lat="49.54976652748883" lon="9.010678259655831">
<ele>389.4</ele>
<time>2024-05-10T13:59:01Z</time>
</trkpt>
<trkpt lat="49.54975889995694" lon="9.010696364566684">
<ele>389.2</ele>
<time>2024-05-10T13:59:02Z</time>
</trkpt>
<trkpt lat="49.54975889995694" lon="9.01070491410792">
<ele>389.2</ele>
<time>2024-05-10T13:59:03Z</time>
</trkpt>
<trkpt lat="49.54975889995694" lon="9.010713547468184">
<ele>389.2</ele>
<time>2024-05-10T13:59:04Z</time>
</trkpt>
<trkpt lat="49.54975504428148" lon="9.010721175000072">
<ele>389.2</ele>
<time>2024-05-10T13:59:05Z</time>
</trkpt>
<trkpt lat="49.54975504428148" lon="9.010726874694228">
<ele>389.2</ele>
<time>2024-05-10T13:59:06Z</time>
</trkpt>
<trkpt lat="49.54975504428148" lon="9.010733580216764">
<ele>389.2</ele>
<time>2024-05-10T13:59:07Z</time>
</trkpt>
<trkpt lat="49.5497474167496" lon="9.010747829452155">
<ele>389.2</ele>
<time>2024-05-10T13:59:08Z</time>
</trkpt>
<trkpt lat="49.54974364489317" lon="9.010767862200735">
<ele>389.2</ele>
<time>2024-05-10T13:59:09Z</time>
</trkpt>
<trkpt lat="49.54974364489317" lon="9.010791750624776">
<ele>389.2</ele>
<time>2024-05-10T13:59:10Z</time>
</trkpt>
<trkpt lat="49.54973978921771" lon="9.010814633220434">
<ele>389</ele>
<time>2024-05-10T13:59:11Z</time>
</trkpt>
<trkpt lat="49.54973978921771" lon="9.01084036566317">
<ele>388.8</ele>
<time>2024-05-10T13:59:12Z</time>
</trkpt>
<trkpt lat="49.54973978921771" lon="9.01086324825883">
<ele>388.8</ele>
<time>2024-05-10T13:59:13Z</time>
</trkpt>
<trkpt lat="49.5497474167496" lon="9.010888058692217">
<ele>388.8</ele>
<time>2024-05-10T13:59:14Z</time>
</trkpt>
<trkpt lat="49.54975889995694" lon="9.010911863297224">
<ele>388.8</ele>
<time>2024-05-10T13:59:15Z</time>
</trkpt>
<trkpt lat="49.549770299345255" lon="9.010932901874185">
<ele>388.8</ele>
<time>2024-05-10T13:59:16Z</time>
</trkpt>
<trkpt lat="49.5497817825526" lon="9.010956706479192">
<ele>388.8</ele>
<time>2024-05-10T13:59:17Z</time>
</trkpt>
<trkpt lat="49.54979703761637" lon="9.010972967371345">
<ele>388.8</ele>
<time>2024-05-10T13:59:18Z</time>
</trkpt>
<trkpt lat="49.549812292680144" lon="9.010990066453816">
<ele>388.8</ele>
<time>2024-05-10T13:59:19Z</time>
</trkpt>
<trkpt lat="49.54982754774392" lon="9.011005321517588">
<ele>388.8</ele>
<time>2024-05-10T13:59:20Z</time>
</trkpt>
<trkpt lat="49.54984280280769" lon="9.01102158240974">
<ele>388.8</ele>
<time>2024-05-10T13:59:21Z</time>
</trkpt>
<trkpt lat="49.54985805787146" lon="9.01103968732059">
<ele>388.8</ele>
<time>2024-05-10T13:59:22Z</time>
</trkpt>
<trkpt lat="49.549869457259774" lon="9.011063575744627">
<ele>388.6</ele>
<time>2024-05-10T13:59:23Z</time>
</trkpt>
<trkpt lat="49.54988094046712" lon="9.011095007881522">
<ele>388.6</ele>
<time>2024-05-10T13:59:24Z</time>
</trkpt>
<trkpt lat="49.549888567999005" lon="9.011130295693874">
<ele>388.8</ele>
<time>2024-05-10T13:59:25Z</time>
</trkpt>
<trkpt lat="49.549892423674464" lon="9.011166505515575">
<ele>388.8</ele>
<time>2024-05-10T13:59:26Z</time>
</trkpt>
<trkpt lat="49.54990382306278" lon="9.011203721165655">
<ele>388.8</ele>
<time>2024-05-10T13:59:27Z</time>
</trkpt>
<trkpt lat="49.549911450594664" lon="9.01123808696866">
<ele>389</ele>
<time>2024-05-10T13:59:28Z</time>
</trkpt>
<trkpt lat="49.549911450594664" lon="9.01127521879971">
<ele>389</ele>
<time>2024-05-10T13:59:29Z</time>
</trkpt>
<trkpt lat="49.54990767873824" lon="9.011311512440445">
<ele>389.2</ele>
<time>2024-05-10T13:59:30Z</time>
</trkpt>
<trkpt lat="49.549888567999005" lon="9.01133632287383">
<ele>389</ele>
<time>2024-05-10T13:59:31Z</time>
</trkpt>
<trkpt lat="49.54986182972789" lon="9.0113534219563">
<ele>389</ele>
<time>2024-05-10T13:59:32Z</time>
</trkpt>
<trkpt lat="49.5498351752758" lon="9.011366833001375">
<ele>389</ele>
<time>2024-05-10T13:59:33Z</time>
</trkpt>
<trkpt lat="49.549808437004685" lon="9.011383010074496">
<ele>388.8</ele>
<time>2024-05-10T13:59:34Z</time>
</trkpt>
<trkpt lat="49.5497817825526" lon="9.011402120813727">
<ele>388.8</ele>
<time>2024-05-10T13:59:35Z</time>
</trkpt>
<trkpt lat="49.54975889995694" lon="9.011421147733929">
<ele>388.8</ele>
<time>2024-05-10T13:59:36Z</time>
</trkpt>
<trkpt lat="49.549732161685824" lon="9.011445036157966">
<ele>388.6</ele>
<time>2024-05-10T13:59:37Z</time>
</trkpt>
<trkpt lat="49.54970542341471" lon="9.011466912925243">
<ele>388.6</ele>
<time>2024-05-10T13:59:38Z</time>
</trkpt>
<trkpt lat="49.54967876896262" lon="9.011480323970318">
<ele>388.6</ele>
<time>2024-05-10T13:59:39Z</time>
</trkpt>
<trkpt lat="49.54964825883508" lon="9.01149650104344">
<ele>388.4</ele>
<time>2024-05-10T13:59:40Z</time>
</trkpt>
<trkpt lat="49.54962152056396" lon="9.01151460595429">
<ele>388.4</ele>
<time>2024-05-10T13:59:41Z</time>
</trkpt>
<trkpt lat="49.549591010436416" lon="9.011527933180332">
<ele>388.4</ele>
<time>2024-05-10T13:59:42Z</time>
</trkpt>
<trkpt lat="49.549552872776985" lon="9.01153371669352">
<ele>388.2</ele>
<time>2024-05-10T13:59:43Z</time>
</trkpt>
<trkpt lat="49.549514735117555" lon="9.0115365665406">
<ele>388</ele>
<time>2024-05-10T13:59:44Z</time>
</trkpt>
<trkpt lat="49.549472741782665" lon="9.01153463870287">
<ele>388</ele>
<time>2024-05-10T13:59:45Z</time>
</trkpt>
<trkpt lat="49.54942697659135" lon="9.011523239314556">
<ele>388</ele>
<time>2024-05-10T13:59:46Z</time>
</trkpt>
<trkpt lat="49.54938506707549" lon="9.011506978422403">
<ele>387.8</ele>
<time>2024-05-10T13:59:47Z</time>
</trkpt>
<trkpt lat="49.549335446208715" lon="9.011481245979668">
<ele>387.8</ele>
<time>2024-05-10T13:59:48Z</time>
</trkpt>
<trkpt lat="49.5492896810174" lon="9.011447886005044">
<ele>387.8</ele>
<time>2024-05-10T13:59:49Z</time>
</trkpt>
<trkpt lat="49.54924006015062" lon="9.011411592364311">
<ele>387.6</ele>
<time>2024-05-10T13:59:50Z</time>
</trkpt>
<trkpt lat="49.54919429495931" lon="9.011368677020071">
<ele>387.4</ele>
<time>2024-05-10T13:59:51Z</time>
</trkpt>
<trkpt lat="49.54914852976799" lon="9.011318134143949">
<ele>387.2</ele>
<time>2024-05-10T13:59:52Z</time>
</trkpt>
<trkpt lat="49.54910276457667" lon="9.011266669258475">
<ele>387</ele>
<time>2024-05-10T13:59:53Z</time>
</trkpt>
<trkpt lat="49.5490531437099" lon="9.011210426688194">
<ele>387</ele>
<time>2024-05-10T13:59:54Z</time>
</trkpt>
<trkpt lat="49.54900352284312" lon="9.011151250451803">
<ele>386.8</ele>
<time>2024-05-10T13:59:55Z</time>
</trkpt>
<trkpt lat="49.548957757651806" lon="9.011091152206063">
<ele>386.6</ele>
<time>2024-05-10T13:59:56Z</time>
</trkpt>
<trkpt lat="49.5489043649286" lon="9.011032981798053">
<ele>386.4</ele>
<time>2024-05-10T13:59:57Z</time>
</trkpt>
<trkpt lat="49.54885482788086" lon="9.010972967371345">
<ele>386.2</ele>
<time>2024-05-10T13:59:58Z</time>
</trkpt>
<trkpt lat="49.548801351338625" lon="9.010910019278526">
<ele>386</ele>
<time>2024-05-10T13:59:59Z</time>
</trkpt>
<trkpt lat="49.54874795861542" lon="9.010847993195055">
<ele>385.8</ele>
<time>2024-05-10T14:00:00Z</time>
</trkpt>
<trkpt lat="49.54869456589222" lon="9.010791750624776">
<ele>385.6</ele>
<time>2024-05-10T14:00:01Z</time>
</trkpt>
<trkpt lat="49.54863731749356" lon="9.010741207748652">
<ele>385.2</ele>
<time>2024-05-10T14:00:02Z</time>
</trkpt>
<trkpt lat="49.54858015291393" lon="9.010695442557337">
<ele>385</ele>
<time>2024-05-10T14:00:03Z</time>
</trkpt>
<trkpt lat="49.548522904515266" lon="9.01064297184348">
<ele>384.8</ele>
<time>2024-05-10T14:00:04Z</time>
</trkpt>
<trkpt lat="49.548465656116605" lon="9.010595278814437">
<ele>384.6</ele>
<time>2024-05-10T14:00:05Z</time>
</trkpt>
<trkpt lat="49.548408491536975" lon="9.01054859161377">
<ele>384.4</ele>
<time>2024-05-10T14:00:06Z</time>
</trkpt>
<trkpt lat="49.54835124313831" lon="9.01050467044115">
<ele>384.2</ele>
<time>2024-05-10T14:00:07Z</time>
</trkpt>
<trkpt lat="49.54829785041511" lon="9.010471310466528">
<ele>384.2</ele>
<time>2024-05-10T14:00:08Z</time>
</trkpt>
<trkpt lat="49.54824060201645" lon="9.010439794510605">
<ele>384</ele>
<time>2024-05-10T14:00:09Z</time>
</trkpt>
<trkpt lat="49.54818343743682" lon="9.010411212220788">
<ele>384</ele>
<time>2024-05-10T14:00:10Z</time>
</trkpt>
<trkpt lat="49.548129960894585" lon="9.0103864017874">
<ele>383.8</ele>
<time>2024-05-10T14:00:11Z</time>
</trkpt>
<trkpt lat="49.54807656817138" lon="9.010364525020124">
<ele>383.6</ele>
<time>2024-05-10T14:00:12Z</time>
</trkpt>
<trkpt lat="49.54802317544818" lon="9.010352119803429">
<ele>383.4</ele>
<time>2024-05-10T14:00:13Z</time>
</trkpt>
<trkpt lat="49.54796978272498" lon="9.010334936901929">
<ele>383.2</ele>
<time>2024-05-10T14:00:14Z</time>
</trkpt>
<trkpt lat="49.5479201618582" lon="9.010319681838157">
<ele>383</ele>
<time>2024-05-10T14:00:15Z</time>
</trkpt>
<trkpt lat="49.547866769135" lon="9.010312054306269">
<ele>382.8</ele>
<time>2024-05-10T14:00:16Z</time>
</trkpt>
<trkpt lat="49.54781337641179" lon="9.010306354612112">
<ele>382.6</ele>
<time>2024-05-10T14:00:17Z</time>
</trkpt>
<trkpt lat="49.54775998368859" lon="9.010303420946002">
<ele>382.4</ele>
<time>2024-05-10T14:00:18Z</time>
</trkpt>
<trkpt lat="49.54770273528993" lon="9.010301576927304">
<ele>382.2</ele>
<time>2024-05-10T14:00:19Z</time>
</trkpt>
<trkpt lat="49.54765319824219" lon="9.010299649089577">
<ele>382.2</ele>
<time>2024-05-10T14:00:20Z</time>
</trkpt>
<trkpt lat="49.54760357737541" lon="9.010299649089577">
<ele>382</ele>
<time>2024-05-10T14:00:21Z</time>
</trkpt>
<trkpt lat="49.547557812184095" lon="9.010299649089577">
<ele>382</ele>
<time>2024-05-10T14:00:22Z</time>
</trkpt>
<trkpt lat="49.54750819131732" lon="9.010303420946002">
<ele>382</ele>
<time>2024-05-10T14:00:23Z</time>
</trkpt>
<trkpt lat="49.547462426126" lon="9.01030819863081">
<ele>381.8</ele>
<time>2024-05-10T14:00:24Z</time>
</trkpt>
<trkpt lat="49.54741666093469" lon="9.01031012646854">
<ele>381.8</ele>
<time>2024-05-10T14:00:25Z</time>
</trkpt>
<trkpt lat="49.5473746675998" lon="9.010312976315618">
<ele>381.8</ele>
<time>2024-05-10T14:00:26Z</time>
</trkpt>
<trkpt lat="49.54732890240848" lon="9.010312976315618">
<ele>381.8</ele>
<time>2024-05-10T14:00:27Z</time>
</trkpt>
<trkpt lat="49.54728690907359" lon="9.010312976315618">
<ele>381.8</ele>
<time>2024-05-10T14:00:28Z</time>
</trkpt>
<trkpt lat="49.54724499955773" lon="9.010312976315618">
<ele>381.8</ele>
<time>2024-05-10T14:00:29Z</time>
</trkpt>
<trkpt lat="49.54720300622285" lon="9.010312054306269">
<ele>381.8</ele>
<time>2024-05-10T14:00:30Z</time>
</trkpt>
<trkpt lat="49.547161096706986" lon="9.01030819863081">
<ele>381.8</ele>
<time>2024-05-10T14:00:31Z</time>
</trkpt>
<trkpt lat="49.54711524769664" lon="9.010303420946002">
<ele>381.8</ele>
<time>2024-05-10T14:00:32Z</time>
</trkpt>
<trkpt lat="49.54707333818078" lon="9.010296799242496">
<ele>381.8</ele>
<time>2024-05-10T14:00:33Z</time>
</trkpt>
<trkpt lat="49.54703520052135" lon="9.01028816588223">
<ele>381.8</ele>
<time>2024-05-10T14:00:34Z</time>
</trkpt>
<trkpt lat="49.54699320718646" lon="9.010278694331646">
<ele>381.8</ele>
<time>2024-05-10T14:00:35Z</time>
</trkpt>
<trkpt lat="49.54695121385157" lon="9.01027006097138">
<ele>381.8</ele>
<time>2024-05-10T14:00:36Z</time>
</trkpt>
<trkpt lat="49.54690930433571" lon="9.010259583592417">
<ele>381.8</ele>
<time>2024-05-10T14:00:37Z</time>
</trkpt>
<trkpt lat="49.54687116667628" lon="9.0102500282228">
<ele>381.8</ele>
<time>2024-05-10T14:00:38Z</time>
</trkpt>
<trkpt lat="49.54682917334139" lon="9.010241478681564">
<ele>382</ele>
<time>2024-05-10T14:00:39Z</time>
</trkpt>
<trkpt lat="49.546787180006504" lon="9.010231923311949">
<ele>382</ele>
<time>2024-05-10T14:00:40Z</time>
</trkpt>
<trkpt lat="49.546745270490646" lon="9.010221445932984">
<ele>382</ele>
<time>2024-05-10T14:00:41Z</time>
</trkpt>
<trkpt lat="49.54670327715576" lon="9.01020996272564">
<ele>382</ele>
<time>2024-05-10T14:00:42Z</time>
</trkpt>
<trkpt lat="49.5466613676399" lon="9.010199485346677">
<ele>381.8</ele>
<time>2024-05-10T14:00:43Z</time>
</trkpt>
<trkpt lat="49.54661937430501" lon="9.010188085958362">
<ele>381.8</ele>
<time>2024-05-10T14:00:44Z</time>
</trkpt>
<trkpt lat="49.54657738097012" lon="9.010178530588746">
<ele>381.6</ele>
<time>2024-05-10T14:00:45Z</time>
</trkpt>
<trkpt lat="49.5465316157788" lon="9.010168053209782">
<ele>381.6</ele>
<time>2024-05-10T14:00:46Z</time>
</trkpt>
<trkpt lat="49.546489706262946" lon="9.010158497840166">
<ele>381.4</ele>
<time>2024-05-10T14:00:47Z</time>
</trkpt>
<trkpt lat="49.54644771292806" lon="9.010148020461202">
<ele>381.4</ele>
<time>2024-05-10T14:00:48Z</time>
</trkpt>
<trkpt lat="49.54640571959317" lon="9.010140392929316">
<ele>381.2</ele>
<time>2024-05-10T14:00:49Z</time>
</trkpt>
<trkpt lat="49.54636381007731" lon="9.010129915550351">
<ele>381.2</ele>
<time>2024-05-10T14:00:50Z</time>
</trkpt>
<trkpt lat="49.54632181674242" lon="9.010120360180736">
<ele>381.2</ele>
<time>2024-05-10T14:00:51Z</time>
</trkpt>
<trkpt lat="49.546276051551104" lon="9.010111726820467">
<ele>381</ele>
<time>2024-05-10T14:00:52Z</time>
</trkpt>
<trkpt lat="49.546234058216214" lon="9.010101249441504">
<ele>381</ele>
<time>2024-05-10T14:00:53Z</time>
</trkpt>
<trkpt lat="49.54619214870036" lon="9.01009177789092">
<ele>381</ele>
<time>2024-05-10T14:00:54Z</time>
</trkpt>
<trkpt lat="49.54615015536547" lon="9.010085072368383">
<ele>381</ele>
<time>2024-05-10T14:00:55Z</time>
</trkpt>
<trkpt lat="49.54610439017415" lon="9.010076522827148">
<ele>380.8</ele>
<time>2024-05-10T14:00:56Z</time>
</trkpt>
<trkpt lat="49.54606625251472" lon="9.010065039619803">
<ele>380.6</ele>
<time>2024-05-10T14:00:57Z</time>
</trkpt>
<trkpt lat="49.54602425917983" lon="9.010056490078568">
<ele>380.6</ele>
<time>2024-05-10T14:00:58Z</time>
</trkpt>
<trkpt lat="49.54598234966397" lon="9.010049784556031">
<ele>380.4</ele>
<time>2024-05-10T14:00:59Z</time>
</trkpt>
<trkpt lat="49.54594421200454" lon="9.010040229186416">
<ele>380.2</ele>
<time>2024-05-10T14:01:00Z</time>
</trkpt>
<trkpt lat="49.54590221866965" lon="9.010029751807451">
<ele>380.2</ele>
<time>2024-05-10T14:01:01Z</time>
</trkpt>
<trkpt lat="49.545856453478336" lon="9.010024974122643">
<ele>380</ele>
<time>2024-05-10T14:01:02Z</time>
</trkpt>
<trkpt lat="49.54581446014345" lon="9.010021202266216">
<ele>380</ele>
<time>2024-05-10T14:01:03Z</time>
</trkpt>
<trkpt lat="49.54577255062759" lon="9.010018268600106">
<ele>380</ele>
<time>2024-05-10T14:01:04Z</time>
</trkpt>
<trkpt lat="49.54572670161724" lon="9.0100116468966">
<ele>379.8</ele>
<time>2024-05-10T14:01:05Z</time>
</trkpt>
<trkpt lat="49.54568093642592" lon="9.010006869211791">
<ele>379.8</ele>
<time>2024-05-10T14:01:06Z</time>
</trkpt>
<trkpt lat="49.54563517123461" lon="9.010006869211791">
<ele>379.8</ele>
<time>2024-05-10T14:01:07Z</time>
</trkpt>
<trkpt lat="49.54558940604329" lon="9.010009719058871">
<ele>379.8</ele>
<time>2024-05-10T14:01:08Z</time>
</trkpt>
<trkpt lat="49.545543640851974" lon="9.0100116468966">
<ele>379.8</ele>
<time>2024-05-10T14:01:09Z</time>
</trkpt>
<trkpt lat="49.54549787566066" lon="9.01001357473433">
<ele>379.8</ele>
<time>2024-05-10T14:01:10Z</time>
</trkpt>
<trkpt lat="49.54544825479388" lon="9.01001357473433">
<ele>379.8</ele>
<time>2024-05-10T14:01:11Z</time>
</trkpt>
<trkpt lat="49.545402489602566" lon="9.01001357473433">
<ele>379.8</ele>
<time>2024-05-10T14:01:12Z</time>
</trkpt>
<trkpt lat="49.54535286873579" lon="9.01001449674368">
<ele>379.8</ele>
<time>2024-05-10T14:01:13Z</time>
</trkpt>
<trkpt lat="49.54530333168805" lon="9.010018268600106">
<ele>379.8</ele>
<time>2024-05-10T14:01:14Z</time>
</trkpt>
<trkpt lat="49.54525371082127" lon="9.010023046284914">
<ele>379.6</ele>
<time>2024-05-10T14:01:15Z</time>
</trkpt>
<trkpt lat="49.54520031809807" lon="9.010027823969722">
<ele>379.6</ele>
<time>2024-05-10T14:01:16Z</time>
</trkpt>
<trkpt lat="49.54514306969941" lon="9.010026901960371">
<ele>379.6</ele>
<time>2024-05-10T14:01:17Z</time>
</trkpt>
<trkpt lat="49.54509353265166" lon="9.010024974122643">
<ele>379.4</ele>
<time>2024-05-10T14:01:18Z</time>
</trkpt>
<trkpt lat="49.545036284253" lon="9.01003452949226">
<ele>379.4</ele>
<time>2024-05-10T14:01:19Z</time>
</trkpt>
<trkpt lat="49.54497526399791" lon="9.010047856718302">
<ele>379.4</ele>
<time>2024-05-10T14:01:20Z</time>
</trkpt>
<trkpt lat="49.544914243742824" lon="9.010061183944345">
<ele>379.2</ele>
<time>2024-05-10T14:01:21Z</time>
</trkpt>
<trkpt lat="49.54484936781227" lon="9.010081216692924">
<ele>379</ele>
<time>2024-05-10T14:01:22Z</time>
</trkpt>
<trkpt lat="49.54478449188173" lon="9.010103177279234">
<ele>378.8</ele>
<time>2024-05-10T14:01:23Z</time>
</trkpt>
<trkpt lat="49.54472347162664" lon="9.010121282190084">
<ele>378.6</ele>
<time>2024-05-10T14:01:24Z</time>
</trkpt>
<trkpt lat="49.54466245137155" lon="9.010140392929316">
<ele>378.4</ele>
<time>2024-05-10T14:01:25Z</time>
</trkpt>
<trkpt lat="49.54460520297289" lon="9.010160425677896">
<ele>378.4</ele>
<time>2024-05-10T14:01:26Z</time>
</trkpt>
<trkpt lat="49.54454795457423" lon="9.010180458426476">
<ele>378.2</ele>
<time>2024-05-10T14:01:27Z</time>
</trkpt>
<trkpt lat="49.54448693431914" lon="9.010205268859863">
<ele>378.2</ele>
<time>2024-05-10T14:01:28Z</time>
</trkpt>
<trkpt lat="49.54442591406405" lon="9.010231923311949">
<ele>378</ele>
<time>2024-05-10T14:01:29Z</time>
</trkpt>
<trkpt lat="49.54436489380896" lon="9.010261511430144">
<ele>377.8</ele>
<time>2024-05-10T14:01:30Z</time>
</trkpt>
<trkpt lat="49.5443076454103" lon="9.010286321863532">
<ele>377.6</ele>
<time>2024-05-10T14:01:31Z</time>
</trkpt>
<trkpt lat="49.54424662515521" lon="9.010312976315618">
<ele>377.6</ele>
<time>2024-05-10T14:01:32Z</time>
</trkpt>
<trkpt lat="49.54418560490012" lon="9.010334936901929">
<ele>377.4</ele>
<time>2024-05-10T14:01:33Z</time>
</trkpt>
<trkpt lat="49.544120728969574" lon="9.010352119803429">
<ele>377.2</ele>
<time>2024-05-10T14:01:34Z</time>
</trkpt>
<trkpt lat="49.54405593685806" lon="9.01036636903882">
<ele>377</ele>
<time>2024-05-10T14:01:35Z</time>
</trkpt>
<trkpt lat="49.54399106092751" lon="9.010376930236816">
<ele>376.8</ele>
<time>2024-05-10T14:01:36Z</time>
</trkpt>
<trkpt lat="49.54393004067242" lon="9.010381624102592">
<ele>376.8</ele>
<time>2024-05-10T14:01:37Z</time>
</trkpt>
<trkpt lat="49.543865164741874" lon="9.0103864017874">
<ele>376.4</ele>
<time>2024-05-10T14:01:38Z</time>
</trkpt>
<trkpt lat="49.543800288811326" lon="9.0103864017874">
<ele>376.2</ele>
<time>2024-05-10T14:01:39Z</time>
</trkpt>
<trkpt lat="49.54373926855624" lon="9.0103864017874">
<ele>376</ele>
<time>2024-05-10T14:01:40Z</time>
</trkpt>
<trkpt lat="49.54367062076926" lon="9.0103864017874">
<ele>375.6</ele>
<time>2024-05-10T14:01:41Z</time>
</trkpt>
<trkpt lat="49.543605744838715" lon="9.0103864017874">
<ele>375.4</ele>
<time>2024-05-10T14:01:42Z</time>
</trkpt>
<trkpt lat="49.5435409527272" lon="9.0103864017874">
<ele>375</ele>
<time>2024-05-10T14:01:43Z</time>
</trkpt>
<trkpt lat="49.54347222112119" lon="9.01038832962513">
<ele>374.8</ele>
<time>2024-05-10T14:01:44Z</time>
</trkpt>
<trkpt lat="49.54340742900968" lon="9.01038832962513">
<ele>374.6</ele>
<time>2024-05-10T14:01:45Z</time>
</trkpt>
<trkpt lat="49.543346324935555" lon="9.01038832962513">
<ele>374.4</ele>
<time>2024-05-10T14:01:46Z</time>
</trkpt>
<trkpt lat="49.54328153282404" lon="9.01038832962513">
<ele>374.2</ele>
<time>2024-05-10T14:01:47Z</time>
</trkpt>
<trkpt lat="49.54322051256895" lon="9.0103864017874">
<ele>374</ele>
<time>2024-05-10T14:01:48Z</time>
</trkpt>
<trkpt lat="49.54315940849483" lon="9.0103864017874">
<ele>373.8</ele>
<time>2024-05-10T14:01:49Z</time>
</trkpt>
<trkpt lat="49.543094616383314" lon="9.01038832962513">
<ele>373.6</ele>
<time>2024-05-10T14:01:50Z</time>
</trkpt>
<trkpt lat="49.543033596128225" lon="9.0103864017874">
<ele>373.4</ele>
<time>2024-05-10T14:01:51Z</time>
</trkpt>
<trkpt lat="49.54296872019768" lon="9.010393107309936">
<ele>373.2</ele>
<time>2024-05-10T14:01:52Z</time>
</trkpt>
<trkpt lat="49.5429000724107" lon="9.010399812832476">
<ele>373.2</ele>
<time>2024-05-10T14:01:53Z</time>
</trkpt>
<trkpt lat="49.54283896833658" lon="9.01040836237371">
<ele>373</ele>
<time>2024-05-10T14:01:54Z</time>
</trkpt>
<trkpt lat="49.542774176225066" lon="9.010417917743323">
<ele>373</ele>
<time>2024-05-10T14:01:55Z</time>
</trkpt>
<trkpt lat="49.54270930029452" lon="9.010431244969368">
<ele>372.8</ele>
<time>2024-05-10T14:01:56Z</time>
</trkpt>
<trkpt lat="49.54264442436397" lon="9.01044650003314">
<ele>372.6</ele>
<time>2024-05-10T14:01:57Z</time>
</trkpt>
<trkpt lat="49.54257577657699" lon="9.010461755096912">
<ele>372.4</ele>
<time>2024-05-10T14:01:58Z</time>
</trkpt>
<trkpt lat="49.54250712879002" lon="9.010478015989063">
<ele>372</ele>
<time>2024-05-10T14:01:59Z</time>
</trkpt>
<trkpt lat="49.542438481003046" lon="9.010497964918612">
<ele>371.8</ele>
<time>2024-05-10T14:02:00Z</time>
</trkpt>
<trkpt lat="49.54236597754061" lon="9.010515147820117">
<ele>371.6</ele>
<time>2024-05-10T14:02:01Z</time>
</trkpt>
<trkpt lat="49.54229732975364" lon="9.010531408712268">
<ele>371.4</ele>
<time>2024-05-10T14:02:02Z</time>
</trkpt>
<trkpt lat="49.54223245382309" lon="9.01054666377604">
<ele>371</ele>
<time>2024-05-10T14:02:03Z</time>
</trkpt>
<trkpt lat="49.542171433568" lon="9.010559991002085">
<ele>370.8</ele>
<time>2024-05-10T14:02:04Z</time>
</trkpt>
<trkpt lat="49.54210655763745" lon="9.010573318228126">
<ele>370.6</ele>
<time>2024-05-10T14:02:05Z</time>
</trkpt>
<trkpt lat="49.54204939305782" lon="9.0105867292732">
<ele>370.2</ele>
<time>2024-05-10T14:02:06Z</time>
</trkpt>
<trkpt lat="49.541988372802734" lon="9.010598128661512">
<ele>370</ele>
<time>2024-05-10T14:02:07Z</time>
</trkpt>
<trkpt lat="49.541927268728614" lon="9.01060676202178">
<ele>369.8</ele>
<time>2024-05-10T14:02:08Z</time>
</trkpt>
<trkpt lat="49.541866248473525" lon="9.010615311563017">
<ele>369.6</ele>
<time>2024-05-10T14:02:09Z</time>
</trkpt>
<trkpt lat="49.54180900007486" lon="9.010620089247825">
<ele>369.4</ele>
<time>2024-05-10T14:02:10Z</time>
</trkpt>
<trkpt lat="49.54175183549523" lon="9.010622017085552">
<ele>369.2</ele>
<time>2024-05-10T14:02:11Z</time>
</trkpt>
<trkpt lat="49.541690815240145" lon="9.010620089247825">
<ele>368.8</ele>
<time>2024-05-10T14:02:12Z</time>
</trkpt>
<trkpt lat="49.541629711166024" lon="9.010615311563017">
<ele>368.6</ele>
<time>2024-05-10T14:02:13Z</time>
</trkpt>
<trkpt lat="49.541568690910935" lon="9.01060483418405">
<ele>368.2</ele>
<time>2024-05-10T14:02:14Z</time>
</trkpt>
<trkpt lat="49.54150767065585" lon="9.010591506958008">
<ele>368</ele>
<time>2024-05-10T14:02:15Z</time>
</trkpt>
<trkpt lat="49.54144665040076" lon="9.010576168075204">
<ele>367.6</ele>
<time>2024-05-10T14:02:16Z</time>
</trkpt>
<trkpt lat="49.54138563014567" lon="9.010561918839812">
<ele>367.4</ele>
<time>2024-05-10T14:02:17Z</time>
</trkpt>
<trkpt lat="49.54132460989058" lon="9.01054473593831">
<ele>367.2</ele>
<time>2024-05-10T14:02:18Z</time>
</trkpt>
<trkpt lat="49.54126350581646" lon="9.01052855886519">
<ele>367</ele>
<time>2024-05-10T14:02:19Z</time>
</trkpt>
<trkpt lat="49.541198713704944" lon="9.010510370135307">
<ele>366.8</ele>
<time>2024-05-10T14:02:20Z</time>
</trkpt>
<trkpt lat="49.54113006591797" lon="9.010490337386727">
<ele>366.6</ele>
<time>2024-05-10T14:02:21Z</time>
</trkpt>
<trkpt lat="49.54106518998742" lon="9.010471310466528">
<ele>366.4</ele>
<time>2024-05-10T14:02:22Z</time>
</trkpt>
<trkpt lat="49.540996542200446" lon="9.010451277717948">
<ele>366.2</ele>
<time>2024-05-10T14:02:23Z</time>
</trkpt>
<trkpt lat="49.5409316662699" lon="9.010433172807096">
<ele>365.8</ele>
<time>2024-05-10T14:02:24Z</time>
</trkpt>
<trkpt lat="49.54086301848292" lon="9.010413140058516">
<ele>365.6</ele>
<time>2024-05-10T14:02:25Z</time>
</trkpt>
<trkpt lat="49.54079437069595" lon="9.010395035147669">
<ele>365.4</ele>
<time>2024-05-10T14:02:26Z</time>
</trkpt>
<trkpt lat="49.54072563908994" lon="9.010383551940322">
<ele>365</ele>
<time>2024-05-10T14:02:27Z</time>
</trkpt>
<trkpt lat="49.54065699130297" lon="9.010376930236816">
<ele>364.6</ele>
<time>2024-05-10T14:02:28Z</time>
</trkpt>
<trkpt lat="49.54059211537242" lon="9.010375002399089">
<ele>364.4</ele>
<time>2024-05-10T14:02:29Z</time>
</trkpt>
<trkpt lat="49.5405273232609" lon="9.010376930236816">
<ele>364</ele>
<time>2024-05-10T14:02:30Z</time>
</trkpt>
<trkpt lat="49.54046244733035" lon="9.010383551940322">
<ele>363.6</ele>
<time>2024-05-10T14:02:31Z</time>
</trkpt>
<trkpt lat="49.54039757139981" lon="9.010396879166365">
<ele>363.4</ele>
<time>2024-05-10T14:02:32Z</time>
</trkpt>
<trkpt lat="49.54033277928829" lon="9.010413140058516">
<ele>363.2</ele>
<time>2024-05-10T14:02:33Z</time>
</trkpt>
<trkpt lat="49.540264047682285" lon="9.010431244969368">
<ele>362.8</ele>
<time>2024-05-10T14:02:34Z</time>
</trkpt>
<trkpt lat="49.54019162803888" lon="9.010455049574375">
<ele>362.6</ele>
<time>2024-05-10T14:02:35Z</time>
</trkpt>
<trkpt lat="49.54012298025191" lon="9.010477010160685">
<ele>362.4</ele>
<time>2024-05-10T14:02:36Z</time>
</trkpt>
<trkpt lat="49.540050476789474" lon="9.010499892756345">
<ele>362.2</ele>
<time>2024-05-10T14:02:37Z</time>
</trkpt>
<trkpt lat="49.53997420147061" lon="9.01052663102746">
<ele>362.2</ele>
<time>2024-05-10T14:02:38Z</time>
</trkpt>
<trkpt lat="49.53989784233272" lon="9.01054473593831">
<ele>362</ele>
<time>2024-05-10T14:02:39Z</time>
</trkpt>
<trkpt lat="49.53981779515743" lon="9.01056284084916">
<ele>361.8</ele>
<time>2024-05-10T14:02:40Z</time>
</trkpt>
<trkpt lat="49.53973766416311" lon="9.010578095912932">
<ele>361.4</ele>
<time>2024-05-10T14:02:41Z</time>
</trkpt>
<trkpt lat="49.53965753316879" lon="9.010588573291898">
<ele>360.8</ele>
<time>2024-05-10T14:02:42Z</time>
</trkpt>
<trkpt lat="49.539573630318046" lon="9.010600056499245">
<ele>360.6</ele>
<time>2024-05-10T14:02:43Z</time>
</trkpt>
<trkpt lat="49.5394897274673" lon="9.010601984336972">
<ele>360.2</ele>
<time>2024-05-10T14:02:44Z</time>
</trkpt>
<trkpt lat="49.53940959647298" lon="9.010615311563017">
<ele>359.8</ele>
<time>2024-05-10T14:02:45Z</time>
</trkpt>
<trkpt lat="49.53932946547866" lon="9.01062486693263">
<ele>359.6</ele>
<time>2024-05-10T14:02:46Z</time>
</trkpt>
<trkpt lat="49.53924556262791" lon="9.010638194158672">
<ele>359.6</ele>
<time>2024-05-10T14:02:47Z</time>
</trkpt>
<trkpt lat="49.53916543163359" lon="9.010651521384716">
<ele>359.4</ele>
<time>2024-05-10T14:02:48Z</time>
</trkpt>
<trkpt lat="49.5390853844583" lon="9.01066300459206">
<ele>359.2</ele>
<time>2024-05-10T14:02:49Z</time>
</trkpt>
<trkpt lat="49.53900902532041" lon="9.010673481971024">
<ele>358.8</ele>
<time>2024-05-10T14:02:50Z</time>
</trkpt>
<trkpt lat="49.53893275000155" lon="9.01068303734064">
<ele>358.6</ele>
<time>2024-05-10T14:02:51Z</time>
</trkpt>
<trkpt lat="49.53886024653912" lon="9.010689659044148">
<ele>358.4</ele>
<time>2024-05-10T14:02:52Z</time>
</trkpt>
<trkpt lat="49.538787826895714" lon="9.010700220242144">
<ele>358.4</ele>
<time>2024-05-10T14:02:53Z</time>
</trkpt>
<trkpt lat="49.53871532343328" lon="9.010709691792728">
<ele>358.2</ele>
<time>2024-05-10T14:02:54Z</time>
</trkpt>
<trkpt lat="49.538646675646305" lon="9.010713547468184">
<ele>358.2</ele>
<time>2024-05-10T14:02:55Z</time>
</trkpt>
<trkpt lat="49.53857802785933" lon="9.010708769783378">
<ele>358.2</ele>
<time>2024-05-10T14:02:56Z</time>
</trkpt>
<trkpt lat="49.53850929625333" lon="9.010698292404411">
<ele>358.2</ele>
<time>2024-05-10T14:02:57Z</time>
</trkpt>
<trkpt lat="49.53844450414181" lon="9.010680187493564">
<ele>358.4</ele>
<time>2024-05-10T14:02:58Z</time>
</trkpt>
<trkpt lat="49.53837962821126" lon="9.010655377060177">
<ele>358.4</ele>
<time>2024-05-10T14:02:59Z</time>
</trkpt>
<trkpt lat="49.53831860795617" lon="9.010622017085552">
<ele>358.4</ele>
<time>2024-05-10T14:03:00Z</time>
</trkpt>
<trkpt lat="49.53826135955751" lon="9.010581951588392">
<ele>358.4</ele>
<time>2024-05-10T14:03:01Z</time>
</trkpt>
<trkpt lat="49.53820411115885" lon="9.010538030415772">
<ele>358.4</ele>
<time>2024-05-10T14:03:02Z</time>
</trkpt>
<trkpt lat="49.538150718435645" lon="9.010493271052836">
<ele>358.4</ele>
<time>2024-05-10T14:03:03Z</time>
</trkpt>
<trkpt lat="49.538093553856015" lon="9.01044650003314">
<ele>358.4</ele>
<time>2024-05-10T14:03:04Z</time>
</trkpt>
<trkpt lat="49.53804016113281" lon="9.010395035147669">
<ele>358.2</ele>
<time>2024-05-10T14:03:05Z</time>
</trkpt>
<trkpt lat="49.53798668459058" lon="9.010343486443162">
<ele>358.2</ele>
<time>2024-05-10T14:03:06Z</time>
</trkpt>
<trkpt lat="49.537933291867375" lon="9.010292943567038">
<ele>358</ele>
<time>2024-05-10T14:03:07Z</time>
</trkpt>
<trkpt lat="49.53787989914417" lon="9.010245250537992">
<ele>358</ele>
<time>2024-05-10T14:03:08Z</time>
</trkpt>
<trkpt lat="49.5378302782774" lon="9.010199485346677">
<ele>358</ele>
<time>2024-05-10T14:03:09Z</time>
</trkpt>
<trkpt lat="49.53778074122965" lon="9.010161347687244">
<ele>357.8</ele>
<time>2024-05-10T14:03:10Z</time>
</trkpt>
<trkpt lat="49.53773112036288" lon="9.010131759569049">
<ele>357.8</ele>
<time>2024-05-10T14:03:11Z</time>
</trkpt>
<trkpt lat="49.537677727639675" lon="9.010107954964042">
<ele>357.8</ele>
<time>2024-05-10T14:03:12Z</time>
</trkpt>
<trkpt lat="49.5376281067729" lon="9.010089850053191">
<ele>357.8</ele>
<time>2024-05-10T14:03:13Z</time>
</trkpt>
<trkpt lat="49.53757856972515" lon="9.010076522827148">
<ele>357.8</ele>
<time>2024-05-10T14:03:14Z</time>
</trkpt>
<trkpt lat="49.53752517700195" lon="9.010066967457533">
<ele>357.8</ele>
<time>2024-05-10T14:03:15Z</time>
</trkpt>
<trkpt lat="49.53747555613518" lon="9.010061183944345">
<ele>357.8</ele>
<time>2024-05-10T14:03:16Z</time>
</trkpt>
<trkpt lat="49.5374259352684" lon="9.010058334097266">
<ele>357.8</ele>
<time>2024-05-10T14:03:17Z</time>
</trkpt>
<trkpt lat="49.53737639822066" lon="9.010061183944345">
<ele>357.8</ele>
<time>2024-05-10T14:03:18Z</time>
</trkpt>
<trkpt lat="49.53732677735388" lon="9.010065039619803">
<ele>357.8</ele>
<time>2024-05-10T14:03:19Z</time>
</trkpt>
<trkpt lat="49.53727715648711" lon="9.01007174514234">
<ele>357.6</ele>
<time>2024-05-10T14:03:20Z</time>
</trkpt>
<trkpt lat="49.537223763763905" lon="9.010076522827148">
<ele>357.6</ele>
<time>2024-05-10T14:03:21Z</time>
</trkpt>
<trkpt lat="49.53717414289713" lon="9.010081216692924">
<ele>357.6</ele>
<time>2024-05-10T14:03:22Z</time>
</trkpt>
<trkpt lat="49.537124605849385" lon="9.010087922215462">
<ele>357.6</ele>
<time>2024-05-10T14:03:23Z</time>
</trkpt>
<trkpt lat="49.53707498498261" lon="9.010098399594426">
<ele>357.6</ele>
<time>2024-05-10T14:03:24Z</time>
</trkpt>
<trkpt lat="49.537025447934866" lon="9.010107954964042">
<ele>357.6</ele>
<time>2024-05-10T14:03:25Z</time>
</trkpt>
<trkpt lat="49.53698345459998" lon="9.010125137865543">
<ele>357.6</ele>
<time>2024-05-10T14:03:26Z</time>
</trkpt>
<trkpt lat="49.5369338337332" lon="9.010138465091586">
<ele>357.8</ele>
<time>2024-05-10T14:03:27Z</time>
</trkpt>
<trkpt lat="49.53688806854189" lon="9.010148020461202">
<ele>357.8</ele>
<time>2024-05-10T14:03:28Z</time>
</trkpt>
<trkpt lat="49.53684230335057" lon="9.010158497840166">
<ele>357.8</ele>
<time>2024-05-10T14:03:29Z</time>
</trkpt>
<trkpt lat="49.53680031001568" lon="9.010169981047513">
<ele>358</ele>
<time>2024-05-10T14:03:30Z</time>
</trkpt>
<trkpt lat="49.53675840049982" lon="9.01018992997706">
<ele>358</ele>
<time>2024-05-10T14:03:31Z</time>
</trkpt>
<trkpt lat="49.53671640716493" lon="9.010208118706942">
<ele>358</ele>
<time>2024-05-10T14:03:32Z</time>
</trkpt>
<trkpt lat="49.5366782695055" lon="9.010228151455522">
<ele>358.2</ele>
<time>2024-05-10T14:03:33Z</time>
</trkpt>
<trkpt lat="49.53664013184607" lon="9.010248184204102">
<ele>358.2</ele>
<time>2024-05-10T14:03:34Z</time>
</trkpt>
<trkpt lat="49.53660199418664" lon="9.010274838656189">
<ele>358.4</ele>
<time>2024-05-10T14:03:35Z</time>
</trkpt>
<trkpt lat="49.53656385652721" lon="9.010305348783731">
<ele>358.4</ele>
<time>2024-05-10T14:03:36Z</time>
</trkpt>
<trkpt lat="49.53652186319232" lon="9.010333009064198">
<ele>358.4</ele>
<time>2024-05-10T14:03:37Z</time>
</trkpt>
<trkpt lat="49.53648372553289" lon="9.010361591354012">
<ele>358.6</ele>
<time>2024-05-10T14:03:38Z</time>
</trkpt>
<trkpt lat="49.536441732198" lon="9.01038832962513">
<ele>358.6</ele>
<time>2024-05-10T14:03:39Z</time>
</trkpt>
<trkpt lat="49.53639982268214" lon="9.010419845581056">
<ele>358.6</ele>
<time>2024-05-10T14:03:40Z</time>
</trkpt>
<trkpt lat="49.536354057490826" lon="9.010457983240483">
<ele>358.6</ele>
<time>2024-05-10T14:03:41Z</time>
</trkpt>
<trkpt lat="49.536312064155936" lon="9.010491343215108">
<ele>358.6</ele>
<time>2024-05-10T14:03:42Z</time>
</trkpt>
<trkpt lat="49.536273926496506" lon="9.010523781180382">
<ele>358.6</ele>
<time>2024-05-10T14:03:43Z</time>
</trkpt>
<trkpt lat="49.536235788837075" lon="9.010551441460848">
<ele>358.6</ele>
<time>2024-05-10T14:03:44Z</time>
</trkpt>
<trkpt lat="49.536193795502186" lon="9.010581951588392">
<ele>358.6</ele>
<time>2024-05-10T14:03:45Z</time>
</trkpt>
<trkpt lat="49.536155657842755" lon="9.01060676202178">
<ele>358.6</ele>
<time>2024-05-10T14:03:46Z</time>
</trkpt>
<trkpt lat="49.536113664507866" lon="9.010638194158672">
<ele>358.6</ele>
<time>2024-05-10T14:03:47Z</time>
</trkpt>
<trkpt lat="49.536075526848435" lon="9.010668704286218">
<ele>358.4</ele>
<time>2024-05-10T14:03:48Z</time>
</trkpt>
<trkpt lat="49.536037389189005" lon="9.010698292404411">
<ele>358.2</ele>
<time>2024-05-10T14:03:49Z</time>
</trkpt>
<trkpt lat="49.53600310720503" lon="9.010729724541306">
<ele>358.2</ele>
<time>2024-05-10T14:03:50Z</time>
</trkpt>
<trkpt lat="49.53596488572657" lon="9.010758390650151">
<ele>358</ele>
<time>2024-05-10T14:03:51Z</time>
</trkpt>
<trkpt lat="49.5359306037426" lon="9.010789822787046">
<ele>357.8</ele>
<time>2024-05-10T14:03:52Z</time>
</trkpt>
<trkpt lat="49.5358962379396" lon="9.0108251105994">
<ele>357.6</ele>
<time>2024-05-10T14:03:53Z</time>
</trkpt>
<trkpt lat="49.535858100280166" lon="9.01086324825883">
<ele>357.4</ele>
<time>2024-05-10T14:03:54Z</time>
</trkpt>
<trkpt lat="49.535819962620735" lon="9.010896608233452">
<ele>357.2</ele>
<time>2024-05-10T14:03:55Z</time>
</trkpt>
<trkpt lat="49.535777969285846" lon="9.010930052027106">
<ele>357</ele>
<time>2024-05-10T14:03:56Z</time>
</trkpt>
<trkpt lat="49.53573220409453" lon="9.010968189686537">
<ele>357</ele>
<time>2024-05-10T14:03:57Z</time>
</trkpt>
<trkpt lat="49.53568643890321" lon="9.011014876887202">
<ele>356.6</ele>
<time>2024-05-10T14:03:58Z</time>
</trkpt>
<trkpt lat="49.535644529387355" lon="9.01105972006917">
<ele>356.4</ele>
<time>2024-05-10T14:03:59Z</time>
</trkpt>
<trkpt lat="49.53559868037701" lon="9.011106491088867">
<ele>356.2</ele>
<time>2024-05-10T14:04:00Z</time>
</trkpt>
<trkpt lat="49.53554914332926" lon="9.011157033964992">
<ele>356</ele>
<time>2024-05-10T14:04:01Z</time>
</trkpt>
<trkpt lat="49.535503378137946" lon="9.011208498850465">
<ele>355.6</ele>
<time>2024-05-10T14:04:02Z</time>
</trkpt>
<trkpt lat="49.53545375727117" lon="9.011262813583016">
<ele>355.4</ele>
<time>2024-05-10T14:04:03Z</time>
</trkpt>
<trkpt lat="49.535407992079854" lon="9.011324839666486">
<ele>355</ele>
<time>2024-05-10T14:04:04Z</time>
</trkpt>
<trkpt lat="49.53536222688854" lon="9.011389715597034">
<ele>354.8</ele>
<time>2024-05-10T14:04:05Z</time>
</trkpt>
<trkpt lat="49.53531646169722" lon="9.011461213231089">
<ele>354.6</ele>
<time>2024-05-10T14:04:06Z</time>
</trkpt>
<trkpt lat="49.53527824021876" lon="9.011531788855793">
<ele>354.4</ele>
<time>2024-05-10T14:04:07Z</time>
</trkpt>
<trkpt lat="49.5352363307029" lon="9.011605214327574">
<ele>354</ele>
<time>2024-05-10T14:04:08Z</time>
</trkpt>
<trkpt lat="49.53519819304347" lon="9.011681489646437">
<ele>353.8</ele>
<time>2024-05-10T14:04:09Z</time>
</trkpt>
<trkpt lat="49.53516005538404" lon="9.011759692803023">
<ele>353.6</ele>
<time>2024-05-10T14:04:10Z</time>
</trkpt>
<trkpt lat="49.53511806204915" lon="9.011844601482151">
<ele>353.4</ele>
<time>2024-05-10T14:04:11Z</time>
</trkpt>
<trkpt lat="49.53507992438972" lon="9.01192657649517">
<ele>353.2</ele>
<time>2024-05-10T14:04:12Z</time>
</trkpt>
<trkpt lat="49.53503793105483" lon="9.012013413012028">
<ele>353</ele>
<time>2024-05-10T14:04:13Z</time>
</trkpt>
<trkpt lat="49.53499602153897" lon="9.012100165709851">
<ele>352.8</ele>
<time>2024-05-10T14:04:14Z</time>
</trkpt>
<trkpt lat="49.53495402820408" lon="9.012183146551251">
<ele>352.6</ele>
<time>2024-05-10T14:04:15Z</time>
</trkpt>
<trkpt lat="49.53491589054465" lon="9.012267049402">
<ele>352.2</ele>
<time>2024-05-10T14:04:16Z</time>
</trkpt>
<trkpt lat="49.53487389720976" lon="9.012351958081126">
<ele>352</ele>
<time>2024-05-10T14:04:17Z</time>
</trkpt>
<trkpt lat="49.53482813201845" lon="9.012433011084797">
<ele>351.6</ele>
<time>2024-05-10T14:04:18Z</time>
</trkpt>
<trkpt lat="49.53478236682713" lon="9.012516913935542">
<ele>351.4</ele>
<time>2024-05-10T14:04:19Z</time>
</trkpt>
<trkpt lat="49.534732745960355" lon="9.012591345235704">
<ele>351</ele>
<time>2024-05-10T14:04:20Z</time>
</trkpt>
<trkpt lat="49.534675581380725" lon="9.01265999302268">
<ele>350.6</ele>
<time>2024-05-10T14:04:21Z</time>
</trkpt>
<trkpt lat="49.53461456112563" lon="9.012711457908154">
<ele>350.2</ele>
<time>2024-05-10T14:04:22Z</time>
</trkpt>
<trkpt lat="49.53454582951963" lon="9.012755379080772">
<ele>349.4</ele>
<time>2024-05-10T14:04:23Z</time>
</trkpt>
<trkpt lat="49.534477181732655" lon="9.012784883379936">
<ele>348.8</ele>
<time>2024-05-10T14:04:24Z</time>
</trkpt>
<trkpt lat="49.53441230580211" lon="9.012803072109818">
<ele>348.4</ele>
<time>2024-05-10T14:04:25Z</time>
</trkpt>
<trkpt lat="49.534339886158705" lon="9.012813549488785">
<ele>348.2</ele>
<time>2024-05-10T14:04:26Z</time>
</trkpt>
<trkpt lat="49.53427501022816" lon="9.012823104858398">
<ele>347.6</ele>
<time>2024-05-10T14:04:27Z</time>
</trkpt>
<trkpt lat="49.53420636244118" lon="9.012824948877096">
<ele>347.2</ele>
<time>2024-05-10T14:04:28Z</time>
</trkpt>
<trkpt lat="49.53413385897875" lon="9.012831654399632">
<ele>347</ele>
<time>2024-05-10T14:04:29Z</time>
</trkpt>
<trkpt lat="49.53406521119177" lon="9.01283835992217">
<ele>346.4</ele>
<time>2024-05-10T14:04:30Z</time>
</trkpt>
<trkpt lat="49.534000335261226" lon="9.012844981625676">
<ele>345.8</ele>
<time>2024-05-10T14:04:31Z</time>
</trkpt>
<trkpt lat="49.53393554314971" lon="9.012851687148212">
<ele>345.2</ele>
<time>2024-05-10T14:04:32Z</time>
</trkpt>
<trkpt lat="49.53387443907559" lon="9.01285646483302">
<ele>344.8</ele>
<time>2024-05-10T14:04:33Z</time>
</trkpt>
<trkpt lat="49.5338134188205" lon="9.01285830885172">
<ele>344.4</ele>
<time>2024-05-10T14:04:34Z</time>
</trkpt>
<trkpt lat="49.53375239856541" lon="9.012860236689448">
<ele>344.2</ele>
<time>2024-05-10T14:04:35Z</time>
</trkpt>
<trkpt lat="49.53369900584221" lon="9.01285646483302">
<ele>343.8</ele>
<time>2024-05-10T14:04:36Z</time>
</trkpt>
<trkpt lat="49.53365324065089" lon="9.012849759310484">
<ele>343.4</ele>
<time>2024-05-10T14:04:37Z</time>
</trkpt>
<trkpt lat="49.53361510299146" lon="9.012840203940868">
<ele>343.2</ele>
<time>2024-05-10T14:04:38Z</time>
</trkpt>
<trkpt lat="49.53358459286392" lon="9.012831654399632">
<ele>343</ele>
<time>2024-05-10T14:04:39Z</time>
</trkpt>
<trkpt lat="49.5335578545928" lon="9.012823104858398">
<ele>342.6</ele>
<time>2024-05-10T14:04:40Z</time>
</trkpt>
<trkpt lat="49.533527344465256" lon="9.01281639933586">
<ele>342.4</ele>
<time>2024-05-10T14:04:41Z</time>
</trkpt>
<trkpt lat="49.53349683433771" lon="9.012823104858398">
<ele>342.2</ele>
<time>2024-05-10T14:04:42Z</time>
</trkpt>
<trkpt lat="49.533470096066594" lon="9.012851687148212">
<ele>342</ele>
<time>2024-05-10T14:04:43Z</time>
</trkpt>
<trkpt lat="49.53344344161451" lon="9.012894602492452">
<ele>341.8</ele>
<time>2024-05-10T14:04:44Z</time>
</trkpt>
<trkpt lat="49.53342055901885" lon="9.012941289693115">
<ele>341.6</ele>
<time>2024-05-10T14:04:45Z</time>
</trkpt>
<trkpt lat="49.53339759260416" lon="9.012987054884434">
<ele>341.4</ele>
<time>2024-05-10T14:04:46Z</time>
</trkpt>
<trkpt lat="49.533367082476616" lon="9.01303474791348">
<ele>341.2</ele>
<time>2024-05-10T14:04:47Z</time>
</trkpt>
<trkpt lat="49.53333657234907" lon="9.013079591095448">
<ele>341</ele>
<time>2024-05-10T14:04:48Z</time>
</trkpt>
<trkpt lat="49.53329843468964" lon="9.013130133971572">
<ele>340.8</ele>
<time>2024-05-10T14:04:49Z</time>
</trkpt>
<trkpt lat="49.53326415270567" lon="9.013181682676075">
<ele>340.6</ele>
<time>2024-05-10T14:04:50Z</time>
</trkpt>
<trkpt lat="49.533233642578125" lon="9.013224598020315">
<ele>340.4</ele>
<time>2024-05-10T14:04:51Z</time>
</trkpt>
<trkpt lat="49.53319927677512" lon="9.013261729851363">
<ele>340.4</ele>
<time>2024-05-10T14:04:52Z</time>
</trkpt>
<trkpt lat="49.53316113911569" lon="9.013288468122482">
<ele>340.2</ele>
<time>2024-05-10T14:04:53Z</time>
</trkpt>
<trkpt lat="49.5331191457808" lon="9.01331135071814">
<ele>340.2</ele>
<time>2024-05-10T14:04:54Z</time>
</trkpt>
<trkpt lat="49.53308486379683" lon="9.01333331130445">
<ele>340.2</ele>
<time>2024-05-10T14:04:55Z</time>
</trkpt>
<trkpt lat="49.53305049799383" lon="9.01335334405303">
<ele>340</ele>
<time>2024-05-10T14:04:56Z</time>
</trkpt>
<trkpt lat="49.533016132190824" lon="9.013376226648688">
<ele>339.8</ele>
<time>2024-05-10T14:04:57Z</time>
</trkpt>
<trkpt lat="49.53298562206328" lon="9.013395253568888">
<ele>339.8</ele>
<time>2024-05-10T14:04:58Z</time>
</trkpt>
<trkpt lat="49.532955111935735" lon="9.013416208326817">
<ele>340</ele>
<time>2024-05-10T14:04:59Z</time>
</trkpt>
<trkpt lat="49.53292845748365" lon="9.013442024588583">
<ele>340</ele>
<time>2024-05-10T14:05:00Z</time>
</trkpt>
<trkpt lat="49.53290171921253" lon="9.013471528887749">
<ele>340.2</ele>
<time>2024-05-10T14:05:01Z</time>
</trkpt>
<trkpt lat="49.53287120908499" lon="9.013504972681403">
<ele>340.4</ele>
<time>2024-05-10T14:05:02Z</time>
</trkpt>
<trkpt lat="49.53284069895744" lon="9.013533554971218">
<ele>340.6</ele>
<time>2024-05-10T14:05:03Z</time>
</trkpt>
<trkpt lat="49.5328101888299" lon="9.01354688219726">
<ele>340.6</ele>
<time>2024-05-10T14:05:04Z</time>
</trkpt>
<trkpt lat="49.53278345055878" lon="9.013544954359531">
<ele>340.8</ele>
<time>2024-05-10T14:05:05Z</time>
</trkpt>
<trkpt lat="49.532756796106696" lon="9.013536404818296">
<ele>341</ele>
<time>2024-05-10T14:05:06Z</time>
</trkpt>
<trkpt lat="49.53272243030369" lon="9.013531627133489">
<ele>341.2</ele>
<time>2024-05-10T14:05:07Z</time>
</trkpt>
<trkpt lat="49.532695692032576" lon="9.013523077592254">
<ele>341.4</ele>
<time>2024-05-10T14:05:08Z</time>
</trkpt>
<trkpt lat="49.53266903758049" lon="9.013518299907446">
<ele>341.6</ele>
<time>2024-05-10T14:05:09Z</time>
</trkpt>
<trkpt lat="49.53264229930937" lon="9.013515450060368">
<ele>341.8</ele>
<time>2024-05-10T14:05:10Z</time>
</trkpt>
<trkpt lat="49.53261564485729" lon="9.013509750366213">
<ele>342.2</ele>
<time>2024-05-10T14:05:11Z</time>
</trkpt>
<trkpt lat="49.53258890658617" lon="9.013509750366213">
<ele>342.4</ele>
<time>2024-05-10T14:05:12Z</time>
</trkpt>
<trkpt lat="49.532562252134085" lon="9.013509750366213">
<ele>342.6</ele>
<time>2024-05-10T14:05:13Z</time>
</trkpt>
<trkpt lat="49.53253551386297" lon="9.0135068167001">
<ele>343</ele>
<time>2024-05-10T14:05:14Z</time>
</trkpt>
<trkpt lat="49.53250500373542" lon="9.013500194996595">
<ele>343.4</ele>
<time>2024-05-10T14:05:15Z</time>
</trkpt>
<trkpt lat="49.53247449360788" lon="9.013493489474058">
<ele>343.6</ele>
<time>2024-05-10T14:05:16Z</time>
</trkpt>
<trkpt lat="49.532443983480334" lon="9.013483012095094">
<ele>344</ele>
<time>2024-05-10T14:05:17Z</time>
</trkpt>
<trkpt lat="49.53241724520922" lon="9.013478234410286">
<ele>344.2</ele>
<time>2024-05-10T14:05:18Z</time>
</trkpt>
<trkpt lat="49.53238673508167" lon="9.013480162248015">
<ele>344.6</ele>
<time>2024-05-10T14:05:19Z</time>
</trkpt>
<trkpt lat="49.532359996810555" lon="9.013483012095094">
<ele>345</ele>
<time>2024-05-10T14:05:20Z</time>
</trkpt>
<trkpt lat="49.53233334235847" lon="9.013483012095094">
<ele>345.4</ele>
<time>2024-05-10T14:05:21Z</time>
</trkpt>
<trkpt lat="49.53231045976281" lon="9.013484939932823">
<ele>345.6</ele>
<time>2024-05-10T14:05:22Z</time>
</trkpt>
<trkpt lat="49.53228757716715" lon="9.013495417311788">
<ele>346</ele>
<time>2024-05-10T14:05:23Z</time>
</trkpt>
<trkpt lat="49.53226846642792" lon="9.013504972681403">
<ele>346.4</ele>
<time>2024-05-10T14:05:24Z</time>
</trkpt>
<trkpt lat="49.53224943950772" lon="9.013515450060368">
<ele>346.6</ele>
<time>2024-05-10T14:05:25Z</time>
</trkpt>
<trkpt lat="49.53223032876849" lon="9.013536404818296">
<ele>347</ele>
<time>2024-05-10T14:05:26Z</time>
</trkpt>
<trkpt lat="49.53221507370472" lon="9.013561215251684">
<ele>347.4</ele>
<time>2024-05-10T14:05:27Z</time>
</trkpt>
<trkpt lat="49.53219981864095" lon="9.013591725379229">
<ele>347.8</ele>
<time>2024-05-10T14:05:28Z</time>
</trkpt>
<trkpt lat="49.532184563577175" lon="9.013621313497424">
<ele>348.2</ele>
<time>2024-05-10T14:05:29Z</time>
</trkpt>
<trkpt lat="49.53217308036983" lon="9.013653751462698">
<ele>348.8</ele>
<time>2024-05-10T14:05:30Z</time>
</trkpt>
<trkpt lat="49.53216168098152" lon="9.01368711143732">
<ele>349.2</ele>
<time>2024-05-10T14:05:31Z</time>
</trkpt>
<trkpt lat="49.53215019777417" lon="9.013718543574214">
<ele>349.6</ele>
<time>2024-05-10T14:05:32Z</time>
</trkpt>
<trkpt lat="49.5321349427104" lon="9.013745281845331">
<ele>350</ele>
<time>2024-05-10T14:05:33Z</time>
</trkpt>
<trkpt lat="49.532123543322086" lon="9.013776713982224">
<ele>350.6</ele>
<time>2024-05-10T14:05:34Z</time>
</trkpt>
<trkpt lat="49.532108288258314" lon="9.01380822993815">
<ele>351</ele>
<time>2024-05-10T14:05:35Z</time>
</trkpt>
<trkpt lat="49.53209680505097" lon="9.013839662075045">
<ele>351.6</ele>
<time>2024-05-10T14:05:36Z</time>
</trkpt>
<trkpt lat="49.53208917751908" lon="9.013873022049664">
<ele>352</ele>
<time>2024-05-10T14:05:37Z</time>
</trkpt>
<trkpt lat="49.5320815499872" lon="9.013908309862018">
<ele>352.6</ele>
<time>2024-05-10T14:05:38Z</time>
</trkpt>
<trkpt lat="49.53207015059888" lon="9.013939825817944">
<ele>353</ele>
<time>2024-05-10T14:05:39Z</time>
</trkpt>
<trkpt lat="49.532066294923425" lon="9.013973185792564">
<ele>353.4</ele>
<time>2024-05-10T14:05:40Z</time>
</trkpt>
<trkpt lat="49.53205866739154" lon="9.014006545767188">
<ele>354</ele>
<time>2024-05-10T14:05:41Z</time>
</trkpt>
<trkpt lat="49.53205489553511" lon="9.01404183357954">
<ele>354.4</ele>
<time>2024-05-10T14:05:42Z</time>
</trkpt>
<trkpt lat="49.532047268003225" lon="9.014078127220271">
<ele>354.8</ele>
<time>2024-05-10T14:05:43Z</time>
</trkpt>
<trkpt lat="49.532043412327766" lon="9.014113415032623">
<ele>355.2</ele>
<time>2024-05-10T14:05:44Z</time>
</trkpt>
<trkpt lat="49.53203201293945" lon="9.014148702844976">
<ele>355.6</ele>
<time>2024-05-10T14:05:45Z</time>
</trkpt>
<trkpt lat="49.53202052973211" lon="9.01418013498187">
<ele>356.2</ele>
<time>2024-05-10T14:05:46Z</time>
</trkpt>
<trkpt lat="49.53200904652476" lon="9.014211650937796">
<ele>356.6</ele>
<time>2024-05-10T14:05:47Z</time>
</trkpt>
<trkpt lat="49.53200141899288" lon="9.014243083074687">
<ele>357</ele>
<time>2024-05-10T14:05:48Z</time>
</trkpt>
<trkpt lat="49.531986163929105" lon="9.014273593202232">
<ele>357.6</ele>
<time>2024-05-10T14:05:49Z</time>
</trkpt>
<trkpt lat="49.53197476454079" lon="9.014305109158158">
<ele>358.2</ele>
<time>2024-05-10T14:05:50Z</time>
</trkpt>
<trkpt lat="49.53196328133345" lon="9.01433846913278">
<ele>358.6</ele>
<time>2024-05-10T14:05:51Z</time>
</trkpt>
<trkpt lat="49.53195188194513" lon="9.014367051422596">
<ele>359.2</ele>
<time>2024-05-10T14:05:52Z</time>
</trkpt>
<trkpt lat="49.53193662688136" lon="9.014393789693711">
<ele>359.6</ele>
<time>2024-05-10T14:05:53Z</time>
</trkpt>
<trkpt lat="49.53192137181759" lon="9.01442144997418">
<ele>360.2</ele>
<time>2024-05-10T14:05:54Z</time>
</trkpt>
<trkpt lat="49.53190611675382" lon="9.014450032263994">
<ele>360.8</ele>
<time>2024-05-10T14:05:55Z</time>
</trkpt>
<trkpt lat="49.53189463354647" lon="9.014474842697382">
<ele>361.4</ele>
<time>2024-05-10T14:05:56Z</time>
</trkpt>
<trkpt lat="49.5318793784827" lon="9.01449965313077">
<ele>361.8</ele>
<time>2024-05-10T14:05:57Z</time>
</trkpt>
<trkpt lat="49.53186412341893" lon="9.014526307582855">
<ele>362.2</ele>
<time>2024-05-10T14:05:58Z</time>
</trkpt>
<trkpt lat="49.531848868355155" lon="9.014554973691702">
<ele>362.8</ele>
<time>2024-05-10T14:05:59Z</time>
</trkpt>
<trkpt lat="49.53182975761592" lon="9.01457685045898">
<ele>363.2</ele>
<time>2024-05-10T14:06:00Z</time>
</trkpt>
<trkpt lat="49.53181450255215" lon="9.01459688320756">
<ele>363.8</ele>
<time>2024-05-10T14:06:01Z</time>
</trkpt>
<trkpt lat="49.53179924748838" lon="9.014613144099712">
<ele>364.2</ele>
<time>2024-05-10T14:06:02Z</time>
</trkpt>
<trkpt lat="49.53178399242461" lon="9.014630243182182">
<ele>364.8</ele>
<time>2024-05-10T14:06:03Z</time>
</trkpt>
<trkpt lat="49.531772593036294" lon="9.014664608985186">
<ele>365.4</ele>
<time>2024-05-10T14:06:04Z</time>
</trkpt>
<trkpt lat="49.53175733797252" lon="9.01469704695046">
<ele>366</ele>
<time>2024-05-10T14:06:05Z</time>
</trkpt>
<trkpt lat="49.53174208290875" lon="9.014724707230926">
<ele>366.6</ele>
<time>2024-05-10T14:06:06Z</time>
</trkpt>
<trkpt lat="49.53172297216952" lon="9.01475521735847">
<ele>367</ele>
<time>2024-05-10T14:06:07Z</time>
</trkpt>
<trkpt lat="49.53170394524932" lon="9.014778099954128">
<ele>367.6</ele>
<time>2024-05-10T14:06:08Z</time>
</trkpt>
<trkpt lat="49.53168097883463" lon="9.01479528285563">
<ele>368</ele>
<time>2024-05-10T14:06:09Z</time>
</trkpt>
<trkpt lat="49.53165809623897" lon="9.014808610081673">
<ele>368.6</ele>
<time>2024-05-10T14:06:10Z</time>
</trkpt>
<trkpt lat="49.53163906931877" lon="9.014818165451288">
<ele>369</ele>
<time>2024-05-10T14:06:11Z</time>
</trkpt>
<trkpt lat="49.53161995857954" lon="9.01483342051506">
<ele>369.6</ele>
<time>2024-05-10T14:06:12Z</time>
</trkpt>
<trkpt lat="49.53159707598388" lon="9.014848675578833">
<ele>370</ele>
<time>2024-05-10T14:06:13Z</time>
</trkpt>
<trkpt lat="49.53157804906368" lon="9.014864852651954">
<ele>370.6</ele>
<time>2024-05-10T14:06:14Z</time>
</trkpt>
<trkpt lat="49.531555166468024" lon="9.014883041381836">
<ele>371</ele>
<time>2024-05-10T14:06:15Z</time>
</trkpt>
<trkpt lat="49.53153605572879" lon="9.014902990311384">
<ele>371.4</ele>
<time>2024-05-10T14:06:16Z</time>
</trkpt>
<trkpt lat="49.531513173133135" lon="9.014923023059964">
<ele>371.6</ele>
<time>2024-05-10T14:06:17Z</time>
</trkpt>
<trkpt lat="49.531494062393904" lon="9.01493643410504">
<ele>372</ele>
<time>2024-05-10T14:06:18Z</time>
</trkpt>
<trkpt lat="49.531471179798245" lon="9.014946911484005">
<ele>372.2</ele>
<time>2024-05-10T14:06:19Z</time>
</trkpt>
<trkpt lat="49.53144829720259" lon="9.014958310872316">
<ele>372.4</ele>
<time>2024-05-10T14:06:20Z</time>
</trkpt>
<trkpt lat="49.53142927028239" lon="9.01497172191739">
<ele>372.6</ele>
<time>2024-05-10T14:06:21Z</time>
</trkpt>
<trkpt lat="49.53141015954316" lon="9.014985049143434">
<ele>373</ele>
<time>2024-05-10T14:06:22Z</time>
</trkpt>
<trkpt lat="49.531394904479384" lon="9.014993598684669">
<ele>373.2</ele>
<time>2024-05-10T14:06:23Z</time>
</trkpt>
<trkpt lat="49.53137964941561" lon="9.014998376369476">
<ele>373.6</ele>
<time>2024-05-10T14:06:24Z</time>
</trkpt>
<trkpt lat="49.53136062249541" lon="9.01500985957682">
<ele>373.8</ele>
<time>2024-05-10T14:06:25Z</time>
</trkpt>
<trkpt lat="49.53133765608072" lon="9.015020336955786">
<ele>374.2</ele>
<time>2024-05-10T14:06:26Z</time>
</trkpt>
<trkpt lat="49.53131100162864" lon="9.015034670010207">
<ele>374.6</ele>
<time>2024-05-10T14:06:27Z</time>
</trkpt>
<trkpt lat="49.53128811903298" lon="9.015047997236252">
<ele>374.8</ele>
<time>2024-05-10T14:06:28Z</time>
</trkpt>
<trkpt lat="49.53126138076186" lon="9.015061324462296">
<ele>375.2</ele>
<time>2024-05-10T14:06:29Z</time>
</trkpt>
<trkpt lat="49.5312384981662" lon="9.015073729678988">
<ele>375.6</ele>
<time>2024-05-10T14:06:30Z</time>
</trkpt>
<trkpt lat="49.531215615570545" lon="9.015085212886332">
<ele>376</ele>
<time>2024-05-10T14:06:31Z</time>
</trkpt>
<trkpt lat="49.531196588650346" lon="9.015099462121723">
<ele>376.2</ele>
<time>2024-05-10T14:06:32Z</time>
</trkpt>
<trkpt lat="49.531177477911115" lon="9.015116645023229">
<ele>376.6</ele>
<time>2024-05-10T14:06:33Z</time>
</trkpt>
<trkpt lat="49.53115836717189" lon="9.015131900087">
<ele>377</ele>
<time>2024-05-10T14:06:34Z</time>
</trkpt>
<trkpt lat="49.531135484576225" lon="9.015141455456614">
<ele>377.4</ele>
<time>2024-05-10T14:06:35Z</time>
</trkpt>
<trkpt lat="49.53111260198057" lon="9.01515000499785">
<ele>377.8</ele>
<time>2024-05-10T14:06:36Z</time>
</trkpt>
<trkpt lat="49.53108971938491" lon="9.015161488205194">
<ele>378.2</ele>
<time>2024-05-10T14:06:37Z</time>
</trkpt>
<trkpt lat="49.53107069246471" lon="9.015172887593508">
<ele>378.6</ele>
<time>2024-05-10T14:06:38Z</time>
</trkpt>
<trkpt lat="49.53104780986905" lon="9.01518814265728">
<ele>379</ele>
<time>2024-05-10T14:06:39Z</time>
</trkpt>
<trkpt lat="49.53102492727339" lon="9.015199625864623">
<ele>379.2</ele>
<time>2024-05-10T14:06:40Z</time>
</trkpt>
<trkpt lat="49.531002044677734" lon="9.01521203108132">
<ele>379.6</ele>
<time>2024-05-10T14:06:41Z</time>
</trkpt>
<trkpt lat="49.53097530640662" lon="9.015221586450934">
<ele>379.8</ele>
<time>2024-05-10T14:06:42Z</time>
</trkpt>
<trkpt lat="49.53095242381096" lon="9.015232985839248">
<ele>380.2</ele>
<time>2024-05-10T14:06:43Z</time>
</trkpt>
<trkpt lat="49.5309295412153" lon="9.015245391055942">
<ele>380.4</ele>
<time>2024-05-10T14:06:44Z</time>
</trkpt>
<trkpt lat="49.53090665861964" lon="9.015253018587828">
<ele>380.8</ele>
<time>2024-05-10T14:06:45Z</time>
</trkpt>
<trkpt lat="49.530879920348525" lon="9.015265423804522">
<ele>381.2</ele>
<time>2024-05-10T14:06:46Z</time>
</trkpt>
<trkpt lat="49.53085326589644" lon="9.01527212932706">
<ele>381.6</ele>
<time>2024-05-10T14:06:47Z</time>
</trkpt>
<trkpt lat="49.53082652762532" lon="9.015273051336408">
<ele>382</ele>
<time>2024-05-10T14:06:48Z</time>
</trkpt>
<trkpt lat="49.530803645029664" lon="9.015276907011868">
<ele>382.4</ele>
<time>2024-05-10T14:06:49Z</time>
</trkpt>
<trkpt lat="49.53077690675855" lon="9.015276907011868">
<ele>382.8</ele>
<time>2024-05-10T14:06:50Z</time>
</trkpt>
<trkpt lat="49.53075402416289" lon="9.015274979174135">
<ele>383.2</ele>
<time>2024-05-10T14:06:51Z</time>
</trkpt>
<trkpt lat="49.53073114156723" lon="9.015273051336408">
<ele>383.6</ele>
<time>2024-05-10T14:06:52Z</time>
</trkpt>
<trkpt lat="49.53070825897157" lon="9.015273051336408">
<ele>384</ele>
<time>2024-05-10T14:06:53Z</time>
</trkpt>
<trkpt lat="49.530681604519486" lon="9.01527212932706">
<ele>384.4</ele>
<time>2024-05-10T14:06:54Z</time>
</trkpt>
<trkpt lat="49.53065486624837" lon="9.01527020148933">
<ele>385</ele>
<time>2024-05-10T14:06:55Z</time>
</trkpt>
<trkpt lat="49.53063198365271" lon="9.015263495966792">
<ele>385.4</ele>
<time>2024-05-10T14:06:56Z</time>
</trkpt>
<trkpt lat="49.530605245381594" lon="9.015259724110363">
<ele>385.8</ele>
<time>2024-05-10T14:06:57Z</time>
</trkpt>
<trkpt lat="49.53057859092951" lon="9.015256874263288">
<ele>386</ele>
<time>2024-05-10T14:06:58Z</time>
</trkpt>
<trkpt lat="49.53055570833385" lon="9.015254946425555">
<ele>386.4</ele>
<time>2024-05-10T14:06:59Z</time>
</trkpt>
<trkpt lat="49.53053282573819" lon="9.015259724110363">
<ele>386.6</ele>
<time>2024-05-10T14:07:00Z</time>
</trkpt>
<trkpt lat="49.530506087467074" lon="9.015261568129064">
<ele>386.8</ele>
<time>2024-05-10T14:07:01Z</time>
</trkpt>
<trkpt lat="49.530483204871416" lon="9.015265423804522">
<ele>387</ele>
<time>2024-05-10T14:07:02Z</time>
</trkpt>
<trkpt lat="49.5304564666003" lon="9.01526634581387">
<ele>387.2</ele>
<time>2024-05-10T14:07:03Z</time>
</trkpt>
<trkpt lat="49.53043358400464" lon="9.01527212932706">
<ele>387.2</ele>
<time>2024-05-10T14:07:04Z</time>
</trkpt>
<trkpt lat="49.53041070140898" lon="9.015277829021215">
<ele>387.4</ele>
<time>2024-05-10T14:07:05Z</time>
</trkpt>
<trkpt lat="49.53038781881333" lon="9.015279756858943">
<ele>387.6</ele>
<time>2024-05-10T14:07:06Z</time>
</trkpt>
<trkpt lat="49.53035730868578" lon="9.015281600877644">
<ele>387.6</ele>
<time>2024-05-10T14:07:07Z</time>
</trkpt>
<trkpt lat="49.530330654233694" lon="9.015283528715372">
<ele>387.8</ele>
<time>2024-05-10T14:07:08Z</time>
</trkpt>
<trkpt lat="49.53030391596258" lon="9.01528830640018">
<ele>387.8</ele>
<time>2024-05-10T14:07:09Z</time>
</trkpt>
<trkpt lat="49.53027340583503" lon="9.015296855941417">
<ele>388</ele>
<time>2024-05-10T14:07:10Z</time>
</trkpt>
<trkpt lat="49.530246667563915" lon="9.0153044834733">
<ele>388</ele>
<time>2024-05-10T14:07:11Z</time>
</trkpt>
<trkpt lat="49.53021615743637" lon="9.015315044671295">
<ele>388.2</ele>
<time>2024-05-10T14:07:12Z</time>
</trkpt>
<trkpt lat="49.530189502984285" lon="9.01532451622188">
<ele>388.4</ele>
<time>2024-05-10T14:07:13Z</time>
</trkpt>
<trkpt lat="49.53016276471317" lon="9.015335077419875">
<ele>388.6</ele>
<time>2024-05-10T14:07:14Z</time>
</trkpt>
<trkpt lat="49.53013602644205" lon="9.01535033248365">
<ele>388.8</ele>
<time>2024-05-10T14:07:15Z</time>
</trkpt>
<trkpt lat="49.530109371989965" lon="9.01536458171904">
<ele>389</ele>
<time>2024-05-10T14:07:16Z</time>
</trkpt>
<trkpt lat="49.53007886186242" lon="9.015383692458272">
<ele>389.2</ele>
<time>2024-05-10T14:07:17Z</time>
</trkpt>
<trkpt lat="49.530052123591304" lon="9.015398025512695">
<ele>389.4</ele>
<time>2024-05-10T14:07:18Z</time>
</trkpt>
<trkpt lat="49.530029240995646" lon="9.015410346910356">
<ele>389.6</ele>
<time>2024-05-10T14:07:19Z</time>
</trkpt>
<trkpt lat="49.53000635839999" lon="9.015419902279971">
<ele>389.8</ele>
<time>2024-05-10T14:07:20Z</time>
</trkpt>
<trkpt lat="49.5299797039479" lon="9.01542853564024">
<ele>390</ele>
<time>2024-05-10T14:07:21Z</time>
</trkpt>
<trkpt lat="49.529949110001326" lon="9.015443790704012">
<ele>390</ele>
<time>2024-05-10T14:07:22Z</time>
</trkpt>
<trkpt lat="49.52992245554924" lon="9.015455190092323">
<ele>390.2</ele>
<time>2024-05-10T14:07:23Z</time>
</trkpt>
<trkpt lat="49.52989571727812" lon="9.015462817624211">
<ele>390.4</ele>
<time>2024-05-10T14:07:24Z</time>
</trkpt>
<trkpt lat="49.52986520715058" lon="9.015471450984478">
<ele>390.4</ele>
<time>2024-05-10T14:07:25Z</time>
</trkpt>
<trkpt lat="49.52983855269849" lon="9.015482850372791">
<ele>390.4</ele>
<time>2024-05-10T14:07:26Z</time>
</trkpt>
<trkpt lat="49.52980418689549" lon="9.015493327751756">
<ele>390.4</ele>
<time>2024-05-10T14:07:27Z</time>
</trkpt>
<trkpt lat="49.529769821092486" lon="9.015501961112022">
<ele>390.6</ele>
<time>2024-05-10T14:07:28Z</time>
</trkpt>
<trkpt lat="49.52973931096494" lon="9.015508582815528">
<ele>390.6</ele>
<time>2024-05-10T14:07:29Z</time>
</trkpt>
<trkpt lat="49.52970502898097" lon="9.015515288338063">
<ele>390.6</ele>
<time>2024-05-10T14:07:30Z</time>
</trkpt>
<trkpt lat="49.52967066317797" lon="9.015521993860602">
<ele>390.6</ele>
<time>2024-05-10T14:07:31Z</time>
</trkpt>
<trkpt lat="49.529636381193995" lon="9.01552677154541">
<ele>390.6</ele>
<time>2024-05-10T14:07:32Z</time>
</trkpt>
<trkpt lat="49.52959815971553" lon="9.015535321086643">
<ele>390.6</ele>
<time>2024-05-10T14:07:33Z</time>
</trkpt>
<trkpt lat="49.52956387773156" lon="9.01554487645626">
<ele>390.6</ele>
<time>2024-05-10T14:07:34Z</time>
</trkpt>
<trkpt lat="49.52952951192856" lon="9.015556275844574">
<ele>390.6</ele>
<time>2024-05-10T14:07:35Z</time>
</trkpt>
<trkpt lat="49.529499001801014" lon="9.01556490920484">
<ele>390.6</ele>
<time>2024-05-10T14:07:36Z</time>
</trkpt>
<trkpt lat="49.52946849167347" lon="9.015576308593154">
<ele>390.6</ele>
<time>2024-05-10T14:07:37Z</time>
</trkpt>
<trkpt lat="49.529434125870466" lon="9.015586785972118">
<ele>390.6</ele>
<time>2024-05-10T14:07:38Z</time>
</trkpt>
<trkpt lat="49.529399843886495" lon="9.015593491494656">
<ele>390.6</ele>
<time>2024-05-10T14:07:39Z</time>
</trkpt>
<trkpt lat="49.52936933375895" lon="9.01560204103589">
<ele>390.6</ele>
<time>2024-05-10T14:07:40Z</time>
</trkpt>
<trkpt lat="49.52933496795595" lon="9.015611596405506">
<ele>390.6</ele>
<time>2024-05-10T14:07:41Z</time>
</trkpt>
<trkpt lat="49.5293044578284" lon="9.015618301928043">
<ele>390.6</ele>
<time>2024-05-10T14:07:42Z</time>
</trkpt>
<trkpt lat="49.5292700920254" lon="9.015624923631549">
<ele>390.6</ele>
<time>2024-05-10T14:07:43Z</time>
</trkpt>
<trkpt lat="49.52923581004143" lon="9.015634479001164">
<ele>390.6</ele>
<time>2024-05-10T14:07:44Z</time>
</trkpt>
<trkpt lat="49.529201444238424" lon="9.015644956380129">
<ele>390.6</ele>
<time>2024-05-10T14:07:45Z</time>
</trkpt>
<trkpt lat="49.52917093411088" lon="9.015654511749744">
<ele>390.8</ele>
<time>2024-05-10T14:07:46Z</time>
</trkpt>
<trkpt lat="49.52913665212691" lon="9.015663145110013">
<ele>390.8</ele>
<time>2024-05-10T14:07:47Z</time>
</trkpt>
<trkpt lat="49.52910991385579" lon="9.015671694651246">
<ele>390.8</ele>
<time>2024-05-10T14:07:48Z</time>
</trkpt>
<trkpt lat="49.52907554805279" lon="9.015681250020862">
<ele>390.8</ele>
<time>2024-05-10T14:07:49Z</time>
</trkpt>
<trkpt lat="49.52904503792524" lon="9.015693655237556">
<ele>391</ele>
<time>2024-05-10T14:07:50Z</time>
</trkpt>
<trkpt lat="49.52901075594127" lon="9.015705054625869">
<ele>391</ele>
<time>2024-05-10T14:07:51Z</time>
</trkpt>
<trkpt lat="49.52897639013827" lon="9.015716537833214">
<ele>391.2</ele>
<time>2024-05-10T14:07:52Z</time>
</trkpt>
<trkpt lat="49.52894588001072" lon="9.015729865059257">
<ele>391.4</ele>
<time>2024-05-10T14:07:53Z</time>
</trkpt>
<trkpt lat="49.52891151420772" lon="9.0157431922853">
<ele>391.4</ele>
<time>2024-05-10T14:07:54Z</time>
</trkpt>
<trkpt lat="49.52887723222375" lon="9.015754675492644">
<ele>391.6</ele>
<time>2024-05-10T14:07:55Z</time>
</trkpt>
<trkpt lat="49.528842866420746" lon="9.015765152871609">
<ele>391.8</ele>
<time>2024-05-10T14:07:56Z</time>
</trkpt>
<trkpt lat="49.5288123562932" lon="9.015778480097651">
<ele>392.2</ele>
<time>2024-05-10T14:07:57Z</time>
</trkpt>
<trkpt lat="49.52878184616566" lon="9.015794740989804">
<ele>392.4</ele>
<time>2024-05-10T14:07:58Z</time>
</trkpt>
<trkpt lat="49.52875510789454" lon="9.015808068215849">
<ele>392.6</ele>
<time>2024-05-10T14:07:59Z</time>
</trkpt>
<trkpt lat="49.528724597766995" lon="9.015826173126698">
<ele>392.8</ele>
<time>2024-05-10T14:08:00Z</time>
</trkpt>
<trkpt lat="49.528690315783024" lon="9.01584142819047">
<ele>393</ele>
<time>2024-05-10T14:08:01Z</time>
</trkpt>
<trkpt lat="49.52865980565548" lon="9.01586146093905">
<ele>393.2</ele>
<time>2024-05-10T14:08:02Z</time>
</trkpt>
<trkpt lat="49.52862543985248" lon="9.01588342152536">
<ele>393.4</ele>
<time>2024-05-10T14:08:03Z</time>
</trkpt>
<trkpt lat="49.52859492972493" lon="9.015906304121016">
<ele>393.6</ele>
<time>2024-05-10T14:08:04Z</time>
</trkpt>
<trkpt lat="49.52856056392193" lon="9.015932036563754">
<ele>393.8</ele>
<time>2024-05-10T14:08:05Z</time>
</trkpt>
<trkpt lat="49.528530053794384" lon="9.01595969684422">
<ele>393.8</ele>
<time>2024-05-10T14:08:06Z</time>
</trkpt>
<trkpt lat="49.52849577181041" lon="9.015990206971765">
<ele>393.8</ele>
<time>2024-05-10T14:08:07Z</time>
</trkpt>
<trkpt lat="49.52846526168287" lon="9.01602172292769">
<ele>394</ele>
<time>2024-05-10T14:08:08Z</time>
</trkpt>
<trkpt lat="49.528430895879865" lon="9.016057010740042">
<ele>394</ele>
<time>2024-05-10T14:08:09Z</time>
</trkpt>
<trkpt lat="49.52839653007686" lon="9.016093220561745">
<ele>394.2</ele>
<time>2024-05-10T14:08:10Z</time>
</trkpt>
<trkpt lat="49.52836224809289" lon="9.016135213896632">
<ele>394.2</ele>
<time>2024-05-10T14:08:11Z</time>
</trkpt>
<trkpt lat="49.528331737965345" lon="9.01617620140314">
<ele>394.4</ele>
<time>2024-05-10T14:08:12Z</time>
</trkpt>
<trkpt lat="49.52829737216234" lon="9.016218110919">
<ele>394.4</ele>
<time>2024-05-10T14:08:13Z</time>
</trkpt>
<trkpt lat="49.5282668620348" lon="9.01625817641616">
<ele>394.6</ele>
<time>2024-05-10T14:08:14Z</time>
</trkpt>
<trkpt lat="49.528232496231794" lon="9.016303019598126">
<ele>394.6</ele>
<time>2024-05-10T14:08:15Z</time>
</trkpt>
<trkpt lat="49.52820198610425" lon="9.016349790617824">
<ele>394.6</ele>
<time>2024-05-10T14:08:16Z</time>
</trkpt>
<trkpt lat="49.52817533165216" lon="9.01639454998076">
<ele>394.4</ele>
<time>2024-05-10T14:08:17Z</time>
</trkpt>
<trkpt lat="49.52814482152462" lon="9.016449870541692">
<ele>394.4</ele>
<time>2024-05-10T14:08:18Z</time>
</trkpt>
<trkpt lat="49.52811431139707" lon="9.01651281863451">
<ele>394.4</ele>
<time>2024-05-10T14:08:19Z</time>
</trkpt>
<trkpt lat="49.52808757312596" lon="9.016578616574408">
<ele>394.4</ele>
<time>2024-05-10T14:08:20Z</time>
</trkpt>
<trkpt lat="49.52806846238673" lon="9.016638714820148">
<ele>394.4</ele>
<time>2024-05-10T14:08:21Z</time>
</trkpt>
<trkpt lat="49.52804180793464" lon="9.016699735075235">
<ele>394.4</ele>
<time>2024-05-10T14:08:22Z</time>
</trkpt>
<trkpt lat="49.52802655287087" lon="9.016757905483246">
<ele>394.4</ele>
<time>2024-05-10T14:08:23Z</time>
</trkpt>
<trkpt lat="49.52800744213164" lon="9.016811298206449">
<ele>394.4</ele>
<time>2024-05-10T14:08:24Z</time>
</trkpt>
<trkpt lat="49.527992187067866" lon="9.016862846910954">
<ele>394.4</ele>
<time>2024-05-10T14:08:25Z</time>
</trkpt>
<trkpt lat="49.527976932004094" lon="9.016915317624807">
<ele>394.2</ele>
<time>2024-05-10T14:08:26Z</time>
</trkpt>
<trkpt lat="49.52796553261578" lon="9.016964854672551">
<ele>394.2</ele>
<time>2024-05-10T14:08:27Z</time>
</trkpt>
<trkpt lat="49.52795404940843" lon="9.017015397548676">
<ele>394.2</ele>
<time>2024-05-10T14:08:28Z</time>
</trkpt>
<trkpt lat="49.52794265002012" lon="9.017073567956686">
<ele>394</ele>
<time>2024-05-10T14:08:29Z</time>
</trkpt>
<trkpt lat="49.52793502248824" lon="9.017138443887234">
<ele>394</ele>
<time>2024-05-10T14:08:30Z</time>
</trkpt>
<trkpt lat="49.52792353928089" lon="9.017209941521289">
<ele>393.8</ele>
<time>2024-05-10T14:08:31Z</time>
</trkpt>
<trkpt lat="49.52790828421712" lon="9.017288144677876">
<ele>393.6</ele>
<time>2024-05-10T14:08:32Z</time>
</trkpt>
<trkpt lat="49.52788917347789" lon="9.01736542582512">
<ele>393.6</ele>
<time>2024-05-10T14:08:33Z</time>
</trkpt>
<trkpt lat="49.52787391841411" lon="9.017448406666515">
<ele>393.2</ele>
<time>2024-05-10T14:08:34Z</time>
</trkpt>
<trkpt lat="49.52785489149392" lon="9.017531387507915">
<ele>393</ele>
<time>2024-05-10T14:08:35Z</time>
</trkpt>
<trkpt lat="49.52784340828657" lon="9.017611434683204">
<ele>392.8</ele>
<time>2024-05-10T14:08:36Z</time>
</trkpt>
<trkpt lat="49.52783200889826" lon="9.017693493515251">
<ele>392.4</ele>
<time>2024-05-10T14:08:37Z</time>
</trkpt>
<trkpt lat="49.5278281532228" lon="9.017773624509571">
<ele>392.2</ele>
<time>2024-05-10T14:08:38Z</time>
</trkpt>
<trkpt lat="49.52783200889826" lon="9.01785367168486">
<ele>392</ele>
<time>2024-05-10T14:08:39Z</time>
</trkpt>
<trkpt lat="49.52783200889826" lon="9.017932880669832">
<ele>391.8</ele>
<time>2024-05-10T14:08:40Z</time>
</trkpt>
<trkpt lat="49.5278281532228" lon="9.01801678352058">
<ele>391.6</ele>
<time>2024-05-10T14:08:41Z</time>
</trkpt>
<trkpt lat="49.52782052569091" lon="9.0180969145149">
<ele>391.6</ele>
<time>2024-05-10T14:08:42Z</time>
</trkpt>
<trkpt lat="49.52781289815903" lon="9.018176961690187">
<ele>391.6</ele>
<time>2024-05-10T14:08:43Z</time>
</trkpt>
<trkpt lat="49.52780527062714" lon="9.01825332082808">
<ele>391.6</ele>
<time>2024-05-10T14:08:44Z</time>
</trkpt>
<trkpt lat="49.527797643095255" lon="9.018324818462132">
<ele>391.6</ele>
<time>2024-05-10T14:08:45Z</time>
</trkpt>
<trkpt lat="49.52778624370694" lon="9.018393466249108">
<ele>391.6</ele>
<time>2024-05-10T14:08:46Z</time>
</trkpt>
<trkpt lat="49.5277747604996" lon="9.018454486504195">
<ele>391.6</ele>
<time>2024-05-10T14:08:47Z</time>
</trkpt>
<trkpt lat="49.52776336111128" lon="9.018514584749935">
<ele>391.8</ele>
<time>2024-05-10T14:08:48Z</time>
</trkpt>
<trkpt lat="49.52775187790394" lon="9.01856990531087">
<ele>391.8</ele>
<time>2024-05-10T14:08:49Z</time>
</trkpt>
<trkpt lat="49.527736622840166" lon="9.018621370196342">
<ele>392</ele>
<time>2024-05-10T14:08:50Z</time>
</trkpt>
<trkpt lat="49.527721367776394" lon="9.018672918900847">
<ele>392.2</ele>
<time>2024-05-10T14:08:51Z</time>
</trkpt>
<trkpt lat="49.52770225703716" lon="9.018721533939242">
<ele>392.4</ele>
<time>2024-05-10T14:08:52Z</time>
</trkpt>
<trkpt lat="49.52768700197339" lon="9.018770148977636">
<ele>392.4</ele>
<time>2024-05-10T14:08:53Z</time>
</trkpt>
<trkpt lat="49.52766797505319" lon="9.018817842006683">
<ele>392.6</ele>
<time>2024-05-10T14:08:54Z</time>
</trkpt>
<trkpt lat="49.52764886431396" lon="9.01886461302638">
<ele>392.6</ele>
<time>2024-05-10T14:08:55Z</time>
</trkpt>
<trkpt lat="49.52762983739376" lon="9.018910378217695">
<ele>392.8</ele>
<time>2024-05-10T14:08:56Z</time>
</trkpt>
<trkpt lat="49.52761072665453" lon="9.018951365724206">
<ele>392.8</ele>
<time>2024-05-10T14:08:57Z</time>
</trkpt>
<trkpt lat="49.52759169973433" lon="9.018995203077791">
<ele>393</ele>
<time>2024-05-10T14:08:58Z</time>
</trkpt>
<trkpt lat="49.5275725889951" lon="9.019033424556255">
<ele>393.2</ele>
<time>2024-05-10T14:08:59Z</time>
</trkpt>
<trkpt lat="49.52755347825587" lon="9.019069634377956">
<ele>393.4</ele>
<time>2024-05-10T14:09:00Z</time>
</trkpt>
<trkpt lat="49.52753445133567" lon="9.019104922190309">
<ele>393.6</ele>
<time>2024-05-10T14:09:01Z</time>
</trkpt>
<trkpt lat="49.527519196271896" lon="9.019138282164931">
<ele>393.8</ele>
<time>2024-05-10T14:09:02Z</time>
</trkpt>
<trkpt lat="49.52750394120813" lon="9.019169798120856">
<ele>394</ele>
<time>2024-05-10T14:09:03Z</time>
</trkpt>
<trkpt lat="49.52748483046889" lon="9.019205085933208">
<ele>394.2</ele>
<time>2024-05-10T14:09:04Z</time>
</trkpt>
<trkpt lat="49.527461947873235" lon="9.01924037374556">
<ele>394.4</ele>
<time>2024-05-10T14:09:05Z</time>
</trkpt>
<trkpt lat="49.527442920953035" lon="9.019273733720183">
<ele>394.6</ele>
<time>2024-05-10T14:09:06Z</time>
</trkpt>
<trkpt lat="49.52742003835738" lon="9.019305165857077">
<ele>394.8</ele>
<time>2024-05-10T14:09:07Z</time>
</trkpt>
<trkpt lat="49.527400927618146" lon="9.019336681813002">
<ele>395</ele>
<time>2024-05-10T14:09:08Z</time>
</trkpt>
<trkpt lat="49.527381816878915" lon="9.019370041787624">
<ele>395.2</ele>
<time>2024-05-10T14:09:09Z</time>
</trkpt>
<trkpt lat="49.52736656181514" lon="9.019396780058742">
<ele>395.2</ele>
<time>2024-05-10T14:09:10Z</time>
</trkpt>
<trkpt lat="49.52734753489494" lon="9.01941865682602">
<ele>395.4</ele>
<time>2024-05-10T14:09:11Z</time>
</trkpt>
<trkpt lat="49.52733227983117" lon="9.019441539421678">
<ele>395.4</ele>
<time>2024-05-10T14:09:12Z</time>
</trkpt>
<trkpt lat="49.52731316909194" lon="9.019466349855064">
<ele>395.4</ele>
<time>2024-05-10T14:09:13Z</time>
</trkpt>
<trkpt lat="49.52729028649628" lon="9.019491160288451">
<ele>395.4</ele>
<time>2024-05-10T14:09:14Z</time>
</trkpt>
<trkpt lat="49.52727125957608" lon="9.01951789855957">
<ele>395.4</ele>
<time>2024-05-10T14:09:15Z</time>
</trkpt>
<trkpt lat="49.52725214883685" lon="9.019550252705812">
<ele>395.6</ele>
<time>2024-05-10T14:09:16Z</time>
</trkpt>
<trkpt lat="49.52723312191665" lon="9.019579840824008">
<ele>395.6</ele>
<time>2024-05-10T14:09:17Z</time>
</trkpt>
<trkpt lat="49.527206383645535" lon="9.019608423113825">
<ele>395.6</ele>
<time>2024-05-10T14:09:18Z</time>
</trkpt>
<trkpt lat="49.52718350104987" lon="9.019638011232018">
<ele>395.6</ele>
<time>2024-05-10T14:09:19Z</time>
</trkpt>
<trkpt lat="49.52716061845422" lon="9.01967137120664">
<ele>395.6</ele>
<time>2024-05-10T14:09:20Z</time>
</trkpt>
<trkpt lat="49.52713010832667" lon="9.019708586856725">
<ele>395.4</ele>
<time>2024-05-10T14:09:21Z</time>
</trkpt>
<trkpt lat="49.52710337005555" lon="9.019744796678424">
<ele>395.4</ele>
<time>2024-05-10T14:09:22Z</time>
</trkpt>
<trkpt lat="49.527069088071585" lon="9.019782012328506">
<ele>395.2</ele>
<time>2024-05-10T14:09:23Z</time>
</trkpt>
<trkpt lat="49.52704234980047" lon="9.019818305969238">
<ele>395.2</ele>
<time>2024-05-10T14:09:24Z</time>
</trkpt>
<trkpt lat="49.527007983997464" lon="9.01985451579094">
<ele>395</ele>
<time>2024-05-10T14:09:25Z</time>
</trkpt>
<trkpt lat="49.526969846338034" lon="9.01989173144102">
<ele>395</ele>
<time>2024-05-10T14:09:26Z</time>
</trkpt>
<trkpt lat="49.5269317086786" lon="9.019929869100451">
<ele>394.8</ele>
<time>2024-05-10T14:09:27Z</time>
</trkpt>
<trkpt lat="49.526889799162745" lon="9.01997370645404">
<ele>394.8</ele>
<time>2024-05-10T14:09:28Z</time>
</trkpt>
<trkpt lat="49.52685157768428" lon="9.020014693960547">
<ele>394.8</ele>
<time>2024-05-10T14:09:29Z</time>
</trkpt>
<trkpt lat="49.52680581249297" lon="9.020058615133166">
<ele>394.8</ele>
<time>2024-05-10T14:09:30Z</time>
</trkpt>
<trkpt lat="49.52676004730165" lon="9.020098680630326">
<ele>395</ele>
<time>2024-05-10T14:09:31Z</time>
</trkpt>
<trkpt lat="49.52671813778579" lon="9.020138662308456">
<ele>395</ele>
<time>2024-05-10T14:09:32Z</time>
</trkpt>
<trkpt lat="49.5266761444509" lon="9.020178727805614">
<ele>395.2</ele>
<time>2024-05-10T14:09:33Z</time>
</trkpt>
<trkpt lat="49.526630379259586" lon="9.020221643149853">
<ele>395.2</ele>
<time>2024-05-10T14:09:34Z</time>
</trkpt>
<trkpt lat="49.5265883859247" lon="9.020264558494093">
<ele>395.2</ele>
<time>2024-05-10T14:09:35Z</time>
</trkpt>
<trkpt lat="49.52654647640884" lon="9.02030847966671">
<ele>395.2</ele>
<time>2024-05-10T14:09:36Z</time>
</trkpt>
<trkpt lat="49.52650825493038" lon="9.020351395010948">
<ele>395</ele>
<time>2024-05-10T14:09:37Z</time>
</trkpt>
<trkpt lat="49.52646248973906" lon="9.02038953267038">
<ele>395</ele>
<time>2024-05-10T14:09:38Z</time>
</trkpt>
<trkpt lat="49.5264205802232" lon="9.020431442186236">
<ele>395</ele>
<time>2024-05-10T14:09:39Z</time>
</trkpt>
<trkpt lat="49.52637858688831" lon="9.020475363358855">
<ele>394.6</ele>
<time>2024-05-10T14:09:40Z</time>
</trkpt>
<trkpt lat="49.526336593553424" lon="9.020520206540825">
<ele>394.4</ele>
<time>2024-05-10T14:09:41Z</time>
</trkpt>
<trkpt lat="49.526294684037566" lon="9.02056496590376">
<ele>394.2</ele>
<time>2024-05-10T14:09:42Z</time>
</trkpt>
<trkpt lat="49.52624891884625" lon="9.020606959238648">
<ele>394.2</ele>
<time>2024-05-10T14:09:43Z</time>
</trkpt>
<trkpt lat="49.52620315365493" lon="9.020647024735808">
<ele>394.4</ele>
<time>2024-05-10T14:09:44Z</time>
</trkpt>
<trkpt lat="49.52616116032005" lon="9.020687090232968">
<ele>394.4</ele>
<time>2024-05-10T14:09:45Z</time>
</trkpt>
<trkpt lat="49.52611539512873" lon="9.020728077739475">
<ele>394.6</ele>
<time>2024-05-10T14:09:46Z</time>
</trkpt>
<trkpt lat="49.52606962993741" lon="9.020771915093064">
<ele>394.8</ele>
<time>2024-05-10T14:09:47Z</time>
</trkpt>
<trkpt lat="49.526023864746094" lon="9.020810052752497">
<ele>394.8</ele>
<time>2024-05-10T14:09:48Z</time>
</trkpt>
<trkpt lat="49.525978015735745" lon="9.020846346393228">
<ele>395</ele>
<time>2024-05-10T14:09:49Z</time>
</trkpt>
<trkpt lat="49.525928478688" lon="9.02088163420558">
<ele>395.2</ele>
<time>2024-05-10T14:09:50Z</time>
</trkpt>
<trkpt lat="49.525882713496685" lon="9.020913066342471">
<ele>395.2</ele>
<time>2024-05-10T14:09:51Z</time>
</trkpt>
<trkpt lat="49.52583309262991" lon="9.020943576470016">
<ele>395.2</ele>
<time>2024-05-10T14:09:52Z</time>
</trkpt>
<trkpt lat="49.52579109929502" lon="9.020971236750484">
<ele>395.2</ele>
<time>2024-05-10T14:09:53Z</time>
</trkpt>
<trkpt lat="49.5257453341037" lon="9.02099990285933">
<ele>395</ele>
<time>2024-05-10T14:09:54Z</time>
</trkpt>
<trkpt lat="49.52569956891239" lon="9.021028485149143">
<ele>394.8</ele>
<time>2024-05-10T14:09:55Z</time>
</trkpt>
<trkpt lat="49.52565380372107" lon="9.02105706743896">
<ele>394.6</ele>
<time>2024-05-10T14:09:56Z</time>
</trkpt>
<trkpt lat="49.52561181038618" lon="9.021082799881697">
<ele>394.6</ele>
<time>2024-05-10T14:09:57Z</time>
</trkpt>
<trkpt lat="49.525566045194864" lon="9.021111465990543">
<ele>394.4</ele>
<time>2024-05-10T14:09:58Z</time>
</trkpt>
<trkpt lat="49.52551650814712" lon="9.021140048280358">
<ele>394.4</ele>
<time>2024-05-10T14:09:59Z</time>
</trkpt>
<trkpt lat="49.52547065913677" lon="9.021164858713746">
<ele>394.4</ele>
<time>2024-05-10T14:10:00Z</time>
</trkpt>
<trkpt lat="49.52542112208903" lon="9.021189669147134">
<ele>394.2</ele>
<time>2024-05-10T14:10:01Z</time>
</trkpt>
<trkpt lat="49.52537150122225" lon="9.021220179274678">
<ele>394.2</ele>
<time>2024-05-10T14:10:02Z</time>
</trkpt>
<trkpt lat="49.525325736030936" lon="9.021251611411572">
<ele>394</ele>
<time>2024-05-10T14:10:03Z</time>
</trkpt>
<trkpt lat="49.52527611516416" lon="9.021285055205226">
<ele>393.8</ele>
<time>2024-05-10T14:10:04Z</time>
</trkpt>
<trkpt lat="49.52522657811642" lon="9.02131648734212">
<ele>393.8</ele>
<time>2024-05-10T14:10:05Z</time>
</trkpt>
<trkpt lat="49.5251808129251" lon="9.021346997469664">
<ele>393.6</ele>
<time>2024-05-10T14:10:06Z</time>
</trkpt>
<trkpt lat="49.525131192058325" lon="9.02137465775013">
<ele>393.6</ele>
<time>2024-05-10T14:10:07Z</time>
</trkpt>
<trkpt lat="49.52508157119155" lon="9.021403240039945">
<ele>393.4</ele>
<time>2024-05-10T14:10:08Z</time>
</trkpt>
<trkpt lat="49.525032034143806" lon="9.021426122635605">
<ele>393.4</ele>
<time>2024-05-10T14:10:09Z</time>
</trkpt>
<trkpt lat="49.52498241327703" lon="9.021446155384185">
<ele>393.2</ele>
<time>2024-05-10T14:10:10Z</time>
</trkpt>
<trkpt lat="49.524932792410254" lon="9.021463338285685">
<ele>393.2</ele>
<time>2024-05-10T14:10:11Z</time>
</trkpt>
<trkpt lat="49.52488325536251" lon="9.02147482149303">
<ele>393</ele>
<time>2024-05-10T14:10:12Z</time>
</trkpt>
<trkpt lat="49.524833634495735" lon="9.021483371034265">
<ele>393</ele>
<time>2024-05-10T14:10:13Z</time>
</trkpt>
<trkpt lat="49.52478786930442" lon="9.021490076556802">
<ele>393</ele>
<time>2024-05-10T14:10:14Z</time>
</trkpt>
<trkpt lat="49.5247421041131" lon="9.021499631926416">
<ele>393</ele>
<time>2024-05-10T14:10:15Z</time>
</trkpt>
<trkpt lat="49.524696338921785" lon="9.021506253629925">
<ele>393</ele>
<time>2024-05-10T14:10:16Z</time>
</trkpt>
<trkpt lat="49.524654345586896" lon="9.02151295915246">
<ele>392.8</ele>
<time>2024-05-10T14:10:17Z</time>
</trkpt>
<trkpt lat="49.52461235225201" lon="9.021518658846617">
<ele>392.8</ele>
<time>2024-05-10T14:10:18Z</time>
</trkpt>
<trkpt lat="49.52456658706069" lon="9.021523436531425">
<ele>392.6</ele>
<time>2024-05-10T14:10:19Z</time>
</trkpt>
<trkpt lat="49.52452844940126" lon="9.021528214216232">
<ele>392.6</ele>
<time>2024-05-10T14:10:20Z</time>
</trkpt>
<trkpt lat="49.5244865398854" lon="9.02153491973877">
<ele>392.4</ele>
<time>2024-05-10T14:10:21Z</time>
</trkpt>
<trkpt lat="49.52444454655051" lon="9.021545397117734">
<ele>392.4</ele>
<time>2024-05-10T14:10:22Z</time>
</trkpt>
<trkpt lat="49.52440255321562" lon="9.02155201882124">
<ele>392.2</ele>
<time>2024-05-10T14:10:23Z</time>
</trkpt>
<trkpt lat="49.524356788024306" lon="9.021559646353126">
<ele>392.2</ele>
<time>2024-05-10T14:10:24Z</time>
</trkpt>
<trkpt lat="49.52431487850845" lon="9.021568279713392">
<ele>392</ele>
<time>2024-05-10T14:10:25Z</time>
</trkpt>
<trkpt lat="49.52427288517356" lon="9.0215730573982">
<ele>392</ele>
<time>2024-05-10T14:10:26Z</time>
</trkpt>
<trkpt lat="49.52423089183867" lon="9.021579679101706">
<ele>392</ele>
<time>2024-05-10T14:10:27Z</time>
</trkpt>
<trkpt lat="49.52418512664735" lon="9.021588312461972">
<ele>392</ele>
<time>2024-05-10T14:10:28Z</time>
</trkpt>
<trkpt lat="49.524143217131495" lon="9.021597784012556">
<ele>392</ele>
<time>2024-05-10T14:10:29Z</time>
</trkpt>
<trkpt lat="49.524101223796606" lon="9.021606417372825">
<ele>391.8</ele>
<time>2024-05-10T14:10:30Z</time>
</trkpt>
<trkpt lat="49.52405923046172" lon="9.021616894751787">
<ele>391.8</ele>
<time>2024-05-10T14:10:31Z</time>
</trkpt>
<trkpt lat="49.52401732094586" lon="9.021624522283672">
<ele>391.8</ele>
<time>2024-05-10T14:10:32Z</time>
</trkpt>
<trkpt lat="49.52397918328643" lon="9.02163122780621">
<ele>391.8</ele>
<time>2024-05-10T14:10:33Z</time>
</trkpt>
<trkpt lat="49.52393718995154" lon="9.021637849509716">
<ele>392</ele>
<time>2024-05-10T14:10:34Z</time>
</trkpt>
<trkpt lat="49.52389519661665" lon="9.021643633022904">
<ele>392</ele>
<time>2024-05-10T14:10:35Z</time>
</trkpt>
<trkpt lat="49.52385705895722" lon="9.02164832688868">
<ele>392</ele>
<time>2024-05-10T14:10:36Z</time>
</trkpt>
<trkpt lat="49.52381514944136" lon="9.021653104573488">
<ele>392.2</ele>
<time>2024-05-10T14:10:37Z</time>
</trkpt>
<trkpt lat="49.5237769279629" lon="9.021659810096024">
<ele>392.4</ele>
<time>2024-05-10T14:10:38Z</time>
</trkpt>
<trkpt lat="49.52374264597893" lon="9.021666515618564">
<ele>392.4</ele>
<time>2024-05-10T14:10:39Z</time>
</trkpt>
<trkpt lat="49.5237045083195" lon="9.021673137322068">
<ele>392.6</ele>
<time>2024-05-10T14:10:40Z</time>
</trkpt>
<trkpt lat="49.523670142516494" lon="9.021676992997527">
<ele>392.6</ele>
<time>2024-05-10T14:10:41Z</time>
</trkpt>
<trkpt lat="49.52363586053252" lon="9.021679842844604">
<ele>392.6</ele>
<time>2024-05-10T14:10:42Z</time>
</trkpt>
<trkpt lat="49.52360149472952" lon="9.021686548367144">
<ele>392.8</ele>
<time>2024-05-10T14:10:43Z</time>
</trkpt>
<trkpt lat="49.52356335707009" lon="9.02169124223292">
<ele>392.8</ele>
<time>2024-05-10T14:10:44Z</time>
</trkpt>
<trkpt lat="49.52352521941066" lon="9.021695097908378">
<ele>392.8</ele>
<time>2024-05-10T14:10:45Z</time>
</trkpt>
<trkpt lat="49.523490853607655" lon="9.021701803430917">
<ele>392.8</ele>
<time>2024-05-10T14:10:46Z</time>
</trkpt>
<trkpt lat="49.523452715948224" lon="9.021704653277991">
<ele>393</ele>
<time>2024-05-10T14:10:47Z</time>
</trkpt>
<trkpt lat="49.523410722613335" lon="9.0217112749815">
<ele>393</ele>
<time>2024-05-10T14:10:48Z</time>
</trkpt>
<trkpt lat="49.52336881309748" lon="9.021717058494689">
<ele>393</ele>
<time>2024-05-10T14:10:49Z</time>
</trkpt>
<trkpt lat="49.52332681976259" lon="9.021719908341764">
<ele>393</ele>
<time>2024-05-10T14:10:50Z</time>
</trkpt>
<trkpt lat="49.52328868210316" lon="9.021728457883">
<ele>393</ele>
<time>2024-05-10T14:10:51Z</time>
</trkpt>
<trkpt lat="49.52324291691184" lon="9.02173130773008">
<ele>393</ele>
<time>2024-05-10T14:10:52Z</time>
</trkpt>
<trkpt lat="49.523193296045065" lon="9.021735163405538">
<ele>393</ele>
<time>2024-05-10T14:10:53Z</time>
</trkpt>
<trkpt lat="49.52313990332186" lon="9.021733235567808">
<ele>392.8</ele>
<time>2024-05-10T14:10:54Z</time>
</trkpt>
<trkpt lat="49.523075027391315" lon="9.021721836179497">
<ele>392.6</ele>
<time>2024-05-10T14:10:55Z</time>
</trkpt>
<trkpt lat="49.523014007136226" lon="9.021703647449613">
<ele>392.4</ele>
<time>2024-05-10T14:10:56Z</time>
</trkpt>
<trkpt lat="49.52294535934925" lon="9.021686548367144">
<ele>392.2</ele>
<time>2024-05-10T14:10:57Z</time>
</trkpt>
<trkpt lat="49.52287671156227" lon="9.021663665771484">
<ele>392</ele>
<time>2024-05-10T14:10:58Z</time>
</trkpt>
<trkpt lat="49.5228080637753" lon="9.021626450121405">
<ele>391.6</ele>
<time>2024-05-10T14:10:59Z</time>
</trkpt>
<trkpt lat="49.52273556031287" lon="9.021583534777164">
<ele>391.4</ele>
<time>2024-05-10T14:11:00Z</time>
</trkpt>
<trkpt lat="49.52266691252589" lon="9.02153198607266">
<ele>391</ele>
<time>2024-05-10T14:11:01Z</time>
</trkpt>
<trkpt lat="49.52259440906346" lon="9.021471971645951">
<ele>390.6</ele>
<time>2024-05-10T14:11:02Z</time>
</trkpt>
<trkpt lat="49.522521905601025" lon="9.021408017724752">
<ele>390.2</ele>
<time>2024-05-10T14:11:03Z</time>
</trkpt>
<trkpt lat="49.52244948595762" lon="9.021345069631934">
<ele>389.8</ele>
<time>2024-05-10T14:11:04Z</time>
</trkpt>
<trkpt lat="49.52237698249519" lon="9.021280277520418">
<ele>389.6</ele>
<time>2024-05-10T14:11:05Z</time>
</trkpt>
<trkpt lat="49.522308334708214" lon="9.02121632359922">
<ele>389</ele>
<time>2024-05-10T14:11:06Z</time>
</trkpt>
<trkpt lat="49.52223197557032" lon="9.021160081028938">
<ele>388.4</ele>
<time>2024-05-10T14:11:07Z</time>
</trkpt>
<trkpt lat="49.52215955592692" lon="9.021104760468006">
<ele>387.6</ele>
<time>2024-05-10T14:11:08Z</time>
</trkpt>
<trkpt lat="49.52208328060806" lon="9.02105706743896">
<ele>387</ele>
<time>2024-05-10T14:11:09Z</time>
</trkpt>
<trkpt lat="49.522010777145624" lon="9.021011302247643">
<ele>386.4</ele>
<time>2024-05-10T14:11:10Z</time>
</trkpt>
<trkpt lat="49.52193450182676" lon="9.020973164588211">
<ele>385.8</ele>
<time>2024-05-10T14:11:11Z</time>
</trkpt>
<trkpt lat="49.52185437083244" lon="9.020943576470016">
<ele>385.2</ele>
<time>2024-05-10T14:11:12Z</time>
</trkpt>
<trkpt lat="49.52177423983812" lon="9.020916922017932">
<ele>384.6</ele>
<time>2024-05-10T14:11:13Z</time>
</trkpt>
<trkpt lat="49.5216941088438" lon="9.020890183746817">
<ele>384.2</ele>
<time>2024-05-10T14:11:14Z</time>
</trkpt>
<trkpt lat="49.52161783352494" lon="9.020868223160504">
<ele>383.6</ele>
<time>2024-05-10T14:11:15Z</time>
</trkpt>
<trkpt lat="49.52154533006251" lon="9.020846346393228">
<ele>383.2</ele>
<time>2024-05-10T14:11:16Z</time>
</trkpt>
<trkpt lat="49.521476682275534" lon="9.020828241482375">
<ele>382.8</ele>
<time>2024-05-10T14:11:17Z</time>
</trkpt>
<trkpt lat="49.52141189016402" lon="9.020806280896068">
<ele>382.4</ele>
<time>2024-05-10T14:11:18Z</time>
</trkpt>
<trkpt lat="49.52134701423347" lon="9.020786248147488">
<ele>382</ele>
<time>2024-05-10T14:11:19Z</time>
</trkpt>
<trkpt lat="49.52128599397838" lon="9.020768143236635">
<ele>381.6</ele>
<time>2024-05-10T14:11:20Z</time>
</trkpt>
<trkpt lat="49.52122874557972" lon="9.020750038325788">
<ele>381.4</ele>
<time>2024-05-10T14:11:21Z</time>
</trkpt>
<trkpt lat="49.52117149718106" lon="9.020734783262014">
<ele>381</ele>
<time>2024-05-10T14:11:22Z</time>
</trkpt>
<trkpt lat="49.521121960133314" lon="9.020718522369862">
<ele>380.8</ele>
<time>2024-05-10T14:11:23Z</time>
</trkpt>
<trkpt lat="49.52107233926654" lon="9.020707122981548">
<ele>380.4</ele>
<time>2024-05-10T14:11:24Z</time>
</trkpt>
<trkpt lat="49.52102657407522" lon="9.020694717764854">
<ele>380.2</ele>
<time>2024-05-10T14:11:25Z</time>
</trkpt>
<trkpt lat="49.52098458074033" lon="9.020694717764854">
<ele>379.8</ele>
<time>2024-05-10T14:11:26Z</time>
</trkpt>
<trkpt lat="49.5209464430809" lon="9.020714750513434">
<ele>379.6</ele>
<time>2024-05-10T14:11:27Z</time>
</trkpt>
<trkpt lat="49.52092356048525" lon="9.020752888172863">
<ele>379.2</ele>
<time>2024-05-10T14:11:28Z</time>
</trkpt>
<trkpt lat="49.520900677889585" lon="9.02081960812211">
<ele>378.8</ele>
<time>2024-05-10T14:11:29Z</time>
</trkpt>
<trkpt lat="49.520881650969386" lon="9.020904516801238">
<ele>378.6</ele>
<time>2024-05-10T14:11:30Z</time>
</trkpt>
<trkpt lat="49.52086631208658" lon="9.020993197336791">
<ele>378.2</ele>
<time>2024-05-10T14:11:31Z</time>
</trkpt>
<trkpt lat="49.52084728516638" lon="9.021088583394883">
<ele>377.6</ele>
<time>2024-05-10T14:11:32Z</time>
</trkpt>
<trkpt lat="49.52082817442715" lon="9.021189669147134">
<ele>377</ele>
<time>2024-05-10T14:11:33Z</time>
</trkpt>
<trkpt lat="49.52081291936338" lon="9.021306931972504">
<ele>376.4</ele>
<time>2024-05-10T14:11:34Z</time>
</trkpt>
<trkpt lat="49.52079389244318" lon="9.021439533680676">
<ele>376</ele>
<time>2024-05-10T14:11:35Z</time>
</trkpt>
<trkpt lat="49.52075575478375" lon="9.0215920843184">
<ele>375.4</ele>
<time>2024-05-10T14:11:36Z</time>
</trkpt>
<trkpt lat="49.520744271576405" lon="9.02174849063158">
<ele>374.8</ele>
<time>2024-05-10T14:11:37Z</time>
</trkpt>
<trkpt lat="49.520706133916974" lon="9.02188871987164">
<ele>374.2</ele>
<time>2024-05-10T14:11:38Z</time>
</trkpt>
<trkpt lat="49.52066036872566" lon="9.022063231095672">
<ele>373.6</ele>
<time>2024-05-10T14:11:39Z</time>
</trkpt>
<trkpt lat="49.52062985859811" lon="9.0222033765167">
<ele>373</ele>
<time>2024-05-10T14:11:40Z</time>
</trkpt>
<trkpt lat="49.52061460353434" lon="9.022334972396491">
<ele>372.2</ele>
<time>2024-05-10T14:11:41Z</time>
</trkpt>
<trkpt lat="49.5205840934068" lon="9.02244184166193">
<ele>371.4</ele>
<time>2024-05-10T14:11:42Z</time>
</trkpt>
<trkpt lat="49.52055735513568" lon="9.022528594359756">
<ele>370.8</ele>
<time>2024-05-10T14:11:43Z</time>
</trkpt>
<trkpt lat="49.52053447254002" lon="9.022608725354075">
<ele>370</ele>
<time>2024-05-10T14:11:44Z</time>
</trkpt>
<trkpt lat="49.52051536180079" lon="9.0226764511317">
<ele>369.4</ele>
<time>2024-05-10T14:11:45Z</time>
</trkpt>
<trkpt lat="49.52049633488059" lon="9.022747948765756">
<ele>368.6</ele>
<time>2024-05-10T14:11:46Z</time>
</trkpt>
<trkpt lat="49.52047345228493" lon="9.022823302075269">
<ele>368</ele>
<time>2024-05-10T14:11:47Z</time>
</trkpt>
<trkpt lat="49.520446714013815" lon="9.02289672754705">
<ele>367.4</ele>
<time>2024-05-10T14:11:48Z</time>
</trkpt>
<trkpt lat="49.52042005956173" lon="9.022966381162403">
<ele>366.8</ele>
<time>2024-05-10T14:11:49Z</time>
</trkpt>
<trkpt lat="49.52039332129061" lon="9.02303502894938">
<ele>366.2</ele>
<time>2024-05-10T14:11:50Z</time>
</trkpt>
<trkpt lat="49.52036281116307" lon="9.023104598745704">
<ele>365.6</ele>
<time>2024-05-10T14:11:51Z</time>
</trkpt>
<trkpt lat="49.520328445360065" lon="9.0231703966856">
<ele>365</ele>
<time>2024-05-10T14:11:52Z</time>
</trkpt>
<trkpt lat="49.52030179090798" lon="9.023235272616148">
<ele>364.4</ele>
<time>2024-05-10T14:11:53Z</time>
</trkpt>
<trkpt lat="49.520271280780435" lon="9.023298220708966">
<ele>363.8</ele>
<time>2024-05-10T14:11:54Z</time>
</trkpt>
<trkpt lat="49.52024077065289" lon="9.023360246792436">
<ele>363.4</ele>
<time>2024-05-10T14:11:55Z</time>
</trkpt>
<trkpt lat="49.520210260525346" lon="9.023423194885254">
<ele>363</ele>
<time>2024-05-10T14:11:56Z</time>
</trkpt>
<trkpt lat="49.52017589472234" lon="9.02348706498742">
<ele>362.6</ele>
<time>2024-05-10T14:11:57Z</time>
</trkpt>
<trkpt lat="49.52013775706291" lon="9.02355001308024">
<ele>362.2</ele>
<time>2024-05-10T14:11:58Z</time>
</trkpt>
<trkpt lat="49.52010339125991" lon="9.023611955344675">
<ele>361.8</ele>
<time>2024-05-10T14:11:59Z</time>
</trkpt>
<trkpt lat="49.52007288113237" lon="9.023670125752687">
<ele>361.4</ele>
<time>2024-05-10T14:12:00Z</time>
</trkpt>
<trkpt lat="49.52004237100482" lon="9.023731229826808">
<ele>360.8</ele>
<time>2024-05-10T14:12:01Z</time>
</trkpt>
<trkpt lat="49.520011860877275" lon="9.023793172091246">
<ele>360.4</ele>
<time>2024-05-10T14:12:02Z</time>
</trkpt>
<trkpt lat="49.51998135074973" lon="9.023853270336986">
<ele>359.8</ele>
<time>2024-05-10T14:12:03Z</time>
</trkpt>
<trkpt lat="49.51994698494673" lon="9.023913368582726">
<ele>359.4</ele>
<time>2024-05-10T14:12:04Z</time>
</trkpt>
<trkpt lat="49.51991647481918" lon="9.023973383009434">
<ele>359</ele>
<time>2024-05-10T14:12:05Z</time>
</trkpt>
<trkpt lat="49.51988596469164" lon="9.024033481255174">
<ele>358.6</ele>
<time>2024-05-10T14:12:06Z</time>
</trkpt>
<trkpt lat="49.519855454564095" lon="9.024091651663184">
<ele>358.2</ele>
<time>2024-05-10T14:12:07Z</time>
</trkpt>
<trkpt lat="49.51982494443655" lon="9.024153677746654">
<ele>358</ele>
<time>2024-05-10T14:12:08Z</time>
</trkpt>
<trkpt lat="49.51979057863355" lon="9.024214698001742">
<ele>357.6</ele>
<time>2024-05-10T14:12:09Z</time>
</trkpt>
<trkpt lat="49.519760068506" lon="9.024276724085212">
<ele>357.2</ele>
<time>2024-05-10T14:12:10Z</time>
</trkpt>
<trkpt lat="49.51972578652203" lon="9.024341516196728">
<ele>357</ele>
<time>2024-05-10T14:12:11Z</time>
</trkpt>
<trkpt lat="49.51969142071903" lon="9.024408319965003">
<ele>356.6</ele>
<time>2024-05-10T14:12:12Z</time>
</trkpt>
<trkpt lat="49.519657054916024" lon="9.02447503991425">
<ele>356.2</ele>
<time>2024-05-10T14:12:13Z</time>
</trkpt>
<trkpt lat="49.519618917256594" lon="9.024546621367335">
<ele>355.8</ele>
<time>2024-05-10T14:12:14Z</time>
</trkpt>
<trkpt lat="49.51958463527262" lon="9.02461619116366">
<ele>355.4</ele>
<time>2024-05-10T14:12:15Z</time>
</trkpt>
<trkpt lat="49.51955412514508" lon="9.024682994931936">
<ele>355</ele>
<time>2024-05-10T14:12:16Z</time>
</trkpt>
<trkpt lat="49.51952361501753" lon="9.024746865034103">
<ele>354.6</ele>
<time>2024-05-10T14:12:17Z</time>
</trkpt>
<trkpt lat="49.519496876746416" lon="9.024809813126922">
<ele>354</ele>
<time>2024-05-10T14:12:18Z</time>
</trkpt>
<trkpt lat="49.5194701384753" lon="9.024878460913897">
<ele>353.6</ele>
<time>2024-05-10T14:12:19Z</time>
</trkpt>
<trkpt lat="49.51944348402321" lon="9.024945180863142">
<ele>353.2</ele>
<time>2024-05-10T14:12:20Z</time>
</trkpt>
<trkpt lat="49.519416745752096" lon="9.025016762316229">
<ele>352.6</ele>
<time>2024-05-10T14:12:21Z</time>
</trkpt>
<trkpt lat="49.51939386315644" lon="9.025083482265472">
<ele>352.2</ele>
<time>2024-05-10T14:12:22Z</time>
</trkpt>
<trkpt lat="49.51937483623624" lon="9.02514450252056">
<ele>351.8</ele>
<time>2024-05-10T14:12:23Z</time>
</trkpt>
<trkpt lat="49.51935572549701" lon="9.02520652860403">
<ele>351.4</ele>
<time>2024-05-10T14:12:24Z</time>
</trkpt>
<trkpt lat="49.51933669857681" lon="9.02526469901204">
<ele>350.8</ele>
<time>2024-05-10T14:12:25Z</time>
</trkpt>
<trkpt lat="49.51931373216212" lon="9.02532672509551">
<ele>350.4</ele>
<time>2024-05-10T14:12:26Z</time>
</trkpt>
<trkpt lat="49.51929470524192" lon="9.02538489550352">
<ele>350.2</ele>
<time>2024-05-10T14:12:27Z</time>
</trkpt>
<trkpt lat="49.51927182264626" lon="9.02544683776796">
<ele>349.6</ele>
<time>2024-05-10T14:12:28Z</time>
</trkpt>
<trkpt lat="49.5192489400506" lon="9.025513641536236">
<ele>349.2</ele>
<time>2024-05-10T14:12:29Z</time>
</trkpt>
<trkpt lat="49.51922982931137" lon="9.025576589629054">
<ele>348.8</ele>
<time>2024-05-10T14:12:30Z</time>
</trkpt>
<trkpt lat="49.51921080239117" lon="9.02563945390284">
<ele>348.4</ele>
<time>2024-05-10T14:12:31Z</time>
</trkpt>
<trkpt lat="49.51919169165194" lon="9.02569955214858">
<ele>348</ele>
<time>2024-05-10T14:12:32Z</time>
</trkpt>
<trkpt lat="49.51917266473174" lon="9.025756800547242">
<ele>347.4</ele>
<time>2024-05-10T14:12:33Z</time>
</trkpt>
<trkpt lat="49.51914969831705" lon="9.025813043117523">
<ele>346.8</ele>
<time>2024-05-10T14:12:34Z</time>
</trkpt>
<trkpt lat="49.51913067139685" lon="9.025868363678455">
<ele>346.2</ele>
<time>2024-05-10T14:12:35Z</time>
</trkpt>
<trkpt lat="49.51910778880119" lon="9.02591991238296">
<ele>345.8</ele>
<time>2024-05-10T14:12:36Z</time>
</trkpt>
<trkpt lat="49.51908867806196" lon="9.02597707696259">
<ele>345.4</ele>
<time>2024-05-10T14:12:37Z</time>
</trkpt>
<trkpt lat="49.519065795466304" lon="9.026033319532871">
<ele>345</ele>
<time>2024-05-10T14:12:38Z</time>
</trkpt>
<trkpt lat="49.519046768546104" lon="9.02609626762569">
<ele>344.6</ele>
<time>2024-05-10T14:12:39Z</time>
</trkpt>
<trkpt lat="49.519023885950446" lon="9.02615636587143">
<ele>344.2</ele>
<time>2024-05-10T14:12:40Z</time>
</trkpt>
<trkpt lat="49.519004775211215" lon="9.02621646411717">
<ele>343.8</ele>
<time>2024-05-10T14:12:41Z</time>
</trkpt>
<trkpt lat="49.51898952014744" lon="9.026273712515833">
<ele>343.4</ele>
<time>2024-05-10T14:12:42Z</time>
</trkpt>
<trkpt lat="49.518966637551785" lon="9.026325177401304">
<ele>343</ele>
<time>2024-05-10T14:12:43Z</time>
</trkpt>
<trkpt lat="49.51893989928067" lon="9.026379575952888">
<ele>342.4</ele>
<time>2024-05-10T14:12:44Z</time>
</trkpt>
<trkpt lat="49.51891701668501" lon="9.026436740532516">
<ele>342</ele>
<time>2024-05-10T14:12:45Z</time>
</trkpt>
<trkpt lat="49.518905617296696" lon="9.026496838778256">
<ele>341.6</ele>
<time>2024-05-10T14:12:46Z</time>
</trkpt>
<trkpt lat="49.51890176162124" lon="9.026555009186268">
<ele>341.2</ele>
<time>2024-05-10T14:12:47Z</time>
</trkpt>
<trkpt lat="49.51890176162124" lon="9.026617035269735">
<ele>340.8</ele>
<time>2024-05-10T14:12:48Z</time>
</trkpt>
<trkpt lat="49.51890176162124" lon="9.026679983362556">
<ele>340.4</ele>
<time>2024-05-10T14:12:49Z</time>
</trkpt>
<trkpt lat="49.51890176162124" lon="9.026742931455374">
<ele>339.8</ele>
<time>2024-05-10T14:12:50Z</time>
</trkpt>
<trkpt lat="49.51890176162124" lon="9.02680872939527">
<ele>339.4</ele>
<time>2024-05-10T14:12:51Z</time>
</trkpt>
<trkpt lat="49.51890176162124" lon="9.02686974965036">
<ele>339</ele>
<time>2024-05-10T14:12:52Z</time>
</trkpt>
<trkpt lat="49.51890176162124" lon="9.026925070211291">
<ele>338.6</ele>
<time>2024-05-10T14:12:53Z</time>
</trkpt>
<trkpt lat="49.51890176162124" lon="9.026978462934494">
<ele>338.2</ele>
<time>2024-05-10T14:12:54Z</time>
</trkpt>
<trkpt lat="49.51890176162124" lon="9.027031855657697">
<ele>337.8</ele>
<time>2024-05-10T14:12:55Z</time>
</trkpt>
<trkpt lat="49.51890176162124" lon="9.02708332054317">
<ele>337.4</ele>
<time>2024-05-10T14:12:56Z</time>
</trkpt>
<trkpt lat="49.51889798976481" lon="9.027134869247677">
<ele>337</ele>
<time>2024-05-10T14:12:57Z</time>
</trkpt>
<trkpt lat="49.51889036223292" lon="9.027186334133148">
<ele>336.6</ele>
<time>2024-05-10T14:12:58Z</time>
</trkpt>
<trkpt lat="49.51889036223292" lon="9.027239726856353">
<ele>336.2</ele>
<time>2024-05-10T14:12:59Z</time>
</trkpt>
<trkpt lat="49.518886506557465" lon="9.027296975255013">
<ele>335.6</ele>
<time>2024-05-10T14:13:00Z</time>
</trkpt>
<trkpt lat="49.518886506557465" lon="9.027353217825294">
<ele>335.2</ele>
<time>2024-05-10T14:13:01Z</time>
</trkpt>
<trkpt lat="49.51888273470104" lon="9.027409544214606">
<ele>334.6</ele>
<time>2024-05-10T14:13:02Z</time>
</trkpt>
<trkpt lat="49.51888273470104" lon="9.027468636631966">
<ele>334</ele>
<time>2024-05-10T14:13:03Z</time>
</trkpt>
<trkpt lat="49.51887887902558" lon="9.027526807039976">
<ele>333.6</ele>
<time>2024-05-10T14:13:04Z</time>
</trkpt>
<trkpt lat="49.51887125149369" lon="9.027586905285716">
<ele>333</ele>
<time>2024-05-10T14:13:05Z</time>
</trkpt>
<trkpt lat="49.518863623961806" lon="9.027645075693728">
<ele>332.6</ele>
<time>2024-05-10T14:13:06Z</time>
</trkpt>
<trkpt lat="49.51885985210538" lon="9.027701318264008">
<ele>332.2</ele>
<time>2024-05-10T14:13:07Z</time>
</trkpt>
<trkpt lat="49.51885599642992" lon="9.02775663882494">
<ele>331.8</ele>
<time>2024-05-10T14:13:08Z</time>
</trkpt>
<trkpt lat="49.51885985210538" lon="9.027808187529445">
<ele>331.2</ele>
<time>2024-05-10T14:13:09Z</time>
</trkpt>
<trkpt lat="49.518863623961806" lon="9.027858730405567">
<ele>330.4</ele>
<time>2024-05-10T14:13:10Z</time>
</trkpt>
<trkpt lat="49.518867479637265" lon="9.027912123128772">
<ele>329.8</ele>
<time>2024-05-10T14:13:11Z</time>
</trkpt>
<trkpt lat="49.51887510716915" lon="9.027964510023594">
<ele>329.2</ele>
<time>2024-05-10T14:13:12Z</time>
</trkpt>
<trkpt lat="49.51888273470104" lon="9.02801513671875">
<ele>328.8</ele>
<time>2024-05-10T14:13:13Z</time>
</trkpt>
<trkpt lat="49.51889413408935" lon="9.02807330712676">
<ele>328.4</ele>
<time>2024-05-10T14:13:14Z</time>
</trkpt>
<trkpt lat="49.518905617296696" lon="9.028124772012234">
<ele>328</ele>
<time>2024-05-10T14:13:15Z</time>
</trkpt>
<trkpt lat="49.51890938915312" lon="9.028178164735436">
<ele>327.6</ele>
<time>2024-05-10T14:13:16Z</time>
</trkpt>
<trkpt lat="49.51891324482858" lon="9.028224935755134">
<ele>327.4</ele>
<time>2024-05-10T14:13:17Z</time>
</trkpt>
<trkpt lat="49.51892087236047" lon="9.02826969511807">
<ele>327</ele>
<time>2024-05-10T14:13:18Z</time>
</trkpt>
<trkpt lat="49.518924644216895" lon="9.028323171660304">
<ele>326.8</ele>
<time>2024-05-10T14:13:19Z</time>
</trkpt>
<trkpt lat="49.51893227174878" lon="9.028367009013891">
<ele>326.4</ele>
<time>2024-05-10T14:13:20Z</time>
</trkpt>
<trkpt lat="49.518928499892354" lon="9.028414702042936">
<ele>326</ele>
<time>2024-05-10T14:13:21Z</time>
</trkpt>
<trkpt lat="49.51893227174878" lon="9.02846809476614">
<ele>325.6</ele>
<time>2024-05-10T14:13:22Z</time>
</trkpt>
<trkpt lat="49.51893612742424" lon="9.028521487489344">
<ele>325.2</ele>
<time>2024-05-10T14:13:23Z</time>
</trkpt>
<trkpt lat="49.51893989928067" lon="9.028573036193848">
<ele>324.8</ele>
<time>2024-05-10T14:13:24Z</time>
</trkpt>
<trkpt lat="49.51894752681255" lon="9.02862642891705">
<ele>324.4</ele>
<time>2024-05-10T14:13:25Z</time>
</trkpt>
<trkpt lat="49.51895138248801" lon="9.02868459932506">
<ele>324</ele>
<time>2024-05-10T14:13:26Z</time>
</trkpt>
<trkpt lat="49.51895515434444" lon="9.02874369174242">
<ele>323.6</ele>
<time>2024-05-10T14:13:27Z</time>
</trkpt>
<trkpt lat="49.518966637551785" lon="9.028808567672968">
<ele>323.4</ele>
<time>2024-05-10T14:13:28Z</time>
</trkpt>
<trkpt lat="49.51897426508367" lon="9.028868665918708">
<ele>323</ele>
<time>2024-05-10T14:13:29Z</time>
</trkpt>
<trkpt lat="49.518985748291016" lon="9.028924908488989">
<ele>322.8</ele>
<time>2024-05-10T14:13:30Z</time>
</trkpt>
<trkpt lat="49.51900100335479" lon="9.028974529355764">
<ele>322.6</ele>
<time>2024-05-10T14:13:31Z</time>
</trkpt>
<trkpt lat="49.51901625841856" lon="9.029025072231889">
<ele>322.4</ele>
<time>2024-05-10T14:13:32Z</time>
</trkpt>
<trkpt lat="49.51903528533876" lon="9.029078464955091">
<ele>322.2</ele>
<time>2024-05-10T14:13:33Z</time>
</trkpt>
<trkpt lat="49.51905439607799" lon="9.029136635363102">
<ele>322</ele>
<time>2024-05-10T14:13:34Z</time>
</trkpt>
<trkpt lat="49.51907342299819" lon="9.029196733608842">
<ele>321.8</ele>
<time>2024-05-10T14:13:35Z</time>
</trkpt>
<trkpt lat="49.519084906205535" lon="9.029251970350742">
<ele>321.6</ele>
<time>2024-05-10T14:13:36Z</time>
</trkpt>
<trkpt lat="49.519103933125734" lon="9.029305446892977">
<ele>321.2</ele>
<time>2024-05-10T14:13:37Z</time>
</trkpt>
<trkpt lat="49.51911918818951" lon="9.02935691177845">
<ele>320.8</ele>
<time>2024-05-10T14:13:38Z</time>
</trkpt>
<trkpt lat="49.51913829892874" lon="9.029406532645226">
<ele>320.4</ele>
<time>2024-05-10T14:13:39Z</time>
</trkpt>
<trkpt lat="49.51914969831705" lon="9.029451292008162">
<ele>320</ele>
<time>2024-05-10T14:13:40Z</time>
</trkpt>
<trkpt lat="49.519165037199855" lon="9.029502840712668">
<ele>319.6</ele>
<time>2024-05-10T14:13:41Z</time>
</trkpt>
<trkpt lat="49.51917643658817" lon="9.02955531142652">
<ele>319.2</ele>
<time>2024-05-10T14:13:42Z</time>
</trkpt>
<trkpt lat="49.51919169165194" lon="9.029604848474264">
<ele>318.8</ele>
<time>2024-05-10T14:13:43Z</time>
</trkpt>
<trkpt lat="49.51921080239117" lon="9.029658241197469">
<ele>318.4</ele>
<time>2024-05-10T14:13:44Z</time>
</trkpt>
<trkpt lat="49.51922982931137" lon="9.0297117177397">
<ele>318</ele>
<time>2024-05-10T14:13:45Z</time>
</trkpt>
<trkpt lat="49.51924508437514" lon="9.02977466583252">
<ele>317.4</ele>
<time>2024-05-10T14:13:46Z</time>
</trkpt>
<trkpt lat="49.519260339438915" lon="9.029843313619494">
<ele>317</ele>
<time>2024-05-10T14:13:47Z</time>
</trkpt>
<trkpt lat="49.51927182264626" lon="9.029925288632512">
<ele>316.4</ele>
<time>2024-05-10T14:13:48Z</time>
</trkpt>
<trkpt lat="49.51927182264626" lon="9.03001019731164">
<ele>315.6</ele>
<time>2024-05-10T14:13:49Z</time>
</trkpt>
<trkpt lat="49.519260339438915" lon="9.030097955837846">
<ele>315</ele>
<time>2024-05-10T14:13:50Z</time>
</trkpt>
<trkpt lat="49.51924508437514" lon="9.030181858688591">
<ele>314.4</ele>
<time>2024-05-10T14:13:51Z</time>
</trkpt>
<trkpt lat="49.519226057454944" lon="9.030238101258874">
<ele>313.8</ele>
<time>2024-05-10T14:13:52Z</time>
</trkpt>
<trkpt lat="49.5192145742476" lon="9.030282944440842">
<ele>313.4</ele>
<time>2024-05-10T14:13:53Z</time>
</trkpt>
<trkpt lat="49.51920694671571" lon="9.030318232253194">
<ele>313.2</ele>
<time>2024-05-10T14:13:54Z</time>
</trkpt>
<trkpt lat="49.519199319183826" lon="9.030348742380738">
<ele>312.8</ele>
<time>2024-05-10T14:13:55Z</time>
</trkpt>
<trkpt lat="49.519184064120054" lon="9.030381180346012">
<ele>312.6</ele>
<time>2024-05-10T14:13:56Z</time>
</trkpt>
<trkpt lat="49.51918029226363" lon="9.030416468158364">
<ele>312.4</ele>
<time>2024-05-10T14:13:57Z</time>
</trkpt>
<trkpt lat="49.51917643658817" lon="9.030449828132989">
<ele>312.4</ele>
<time>2024-05-10T14:13:58Z</time>
</trkpt>
<trkpt lat="49.51916880905628" lon="9.03048126026988">
<ele>312.2</ele>
<time>2024-05-10T14:13:59Z</time>
</trkpt>
<trkpt lat="49.51915355399251" lon="9.030528031289576">
<ele>312.2</ele>
<time>2024-05-10T14:14:00Z</time>
</trkpt>
<trkpt lat="49.519145926460624" lon="9.03055946342647">
<ele>312.2</ele>
<time>2024-05-10T14:14:01Z</time>
</trkpt>
<trkpt lat="49.51912681572139" lon="9.03058335185051">
<ele>312.2</ele>
<time>2024-05-10T14:14:02Z</time>
</trkpt>
<trkpt lat="49.51911156065762" lon="9.030608162283896">
<ele>312.4</ele>
<time>2024-05-10T14:14:03Z</time>
</trkpt>
<trkpt lat="49.519103933125734" lon="9.030650071799757">
<ele>312.4</ele>
<time>2024-05-10T14:14:04Z</time>
</trkpt>
<trkpt lat="49.51909630559385" lon="9.030692987143992">
<ele>312.4</ele>
<time>2024-05-10T14:14:05Z</time>
</trkpt>
<trkpt lat="49.51910016126931" lon="9.030724503099918">
<ele>312.4</ele>
<time>2024-05-10T14:14:06Z</time>
</trkpt>
<trkpt lat="49.51909630559385" lon="9.03076171875">
<ele>312.4</ele>
<time>2024-05-10T14:14:07Z</time>
</trkpt>
<trkpt lat="49.51909630559385" lon="9.030815111473204">
<ele>312.6</ele>
<time>2024-05-10T14:14:08Z</time>
</trkpt>
<trkpt lat="49.51909630559385" lon="9.03085987083614">
<ele>312.6</ele>
<time>2024-05-10T14:14:09Z</time>
</trkpt>
<trkpt lat="49.51908867806196" lon="9.030902786180375">
<ele>312.6</ele>
<time>2024-05-10T14:14:10Z</time>
</trkpt>
<trkpt lat="49.51908867806196" lon="9.030949557200074">
<ele>312.6</ele>
<time>2024-05-10T14:14:11Z</time>
</trkpt>
<trkpt lat="49.51909630559385" lon="9.030991550534964">
<ele>312.6</ele>
<time>2024-05-10T14:14:12Z</time>
</trkpt>
<trkpt lat="49.51910016126931" lon="9.031029688194394">
<ele>312.6</ele>
<time>2024-05-10T14:14:13Z</time>
</trkpt>
<trkpt lat="49.51910778880119" lon="9.031068747863172">
<ele>312.6</ele>
<time>2024-05-10T14:14:14Z</time>
</trkpt>
<trkpt lat="49.51911541633308" lon="9.031103113666177">
<ele>312.6</ele>
<time>2024-05-10T14:14:15Z</time>
</trkpt>
<trkpt lat="49.51911918818951" lon="9.031129768118262">
<ele>312.6</ele>
<time>2024-05-10T14:14:16Z</time>
</trkpt>
<trkpt lat="49.519123043864965" lon="9.031167905777693">
<ele>312.4</ele>
<time>2024-05-10T14:14:17Z</time>
</trkpt>
<trkpt lat="49.519123043864965" lon="9.03121467679739">
<ele>312.4</ele>
<time>2024-05-10T14:14:18Z</time>
</trkpt>
<trkpt lat="49.519123043864965" lon="9.031266141682863">
<ele>312.4</ele>
<time>2024-05-10T14:14:19Z</time>
</trkpt>
<trkpt lat="49.51911156065762" lon="9.03131484054029">
<ele>312.2</ele>
<time>2024-05-10T14:14:20Z</time>
</trkpt>
<trkpt lat="49.51910016126931" lon="9.031366305425763">
<ele>312</ele>
<time>2024-05-10T14:14:21Z</time>
</trkpt>
<trkpt lat="49.51908867806196" lon="9.031421625986695">
<ele>311.8</ele>
<time>2024-05-10T14:14:22Z</time>
</trkpt>
<trkpt lat="49.519084906205535" lon="9.031477868556976">
<ele>311.4</ele>
<time>2024-05-10T14:14:23Z</time>
</trkpt>
<trkpt lat="49.51907342299819" lon="9.031535116955638">
<ele>311</ele>
<time>2024-05-10T14:14:24Z</time>
</trkpt>
<trkpt lat="49.519065795466304" lon="9.03158850967884">
<ele>310.6</ele>
<time>2024-05-10T14:14:25Z</time>
</trkpt>
<trkpt lat="49.51905816793442" lon="9.031633352860808">
<ele>310.2</ele>
<time>2024-05-10T14:14:26Z</time>
</trkpt>
<trkpt lat="49.519046768546104" lon="9.031680040061474">
<ele>309.8</ele>
<time>2024-05-10T14:14:27Z</time>
</trkpt>
<trkpt lat="49.51903528533876" lon="9.031720105558634">
<ele>309.4</ele>
<time>2024-05-10T14:14:28Z</time>
</trkpt>
<trkpt lat="49.519023885950446" lon="9.031763020902872">
<ele>309</ele>
<time>2024-05-10T14:14:29Z</time>
</trkpt>
<trkpt lat="49.519008630886674" lon="9.031796380877497">
<ele>308.6</ele>
<time>2024-05-10T14:14:30Z</time>
</trkpt>
<trkpt lat="49.5189933758229" lon="9.031823119148612">
<ele>308</ele>
<time>2024-05-10T14:14:31Z</time>
</trkpt>
<trkpt lat="49.51897426508367" lon="9.031861256808044">
<ele>307.4</ele>
<time>2024-05-10T14:14:32Z</time>
</trkpt>
<trkpt lat="49.518962781876326" lon="9.031911799684169">
<ele>306.8</ele>
<time>2024-05-10T14:14:33Z</time>
</trkpt>
<trkpt lat="49.51895515434444" lon="9.03194515965879">
<ele>306.2</ele>
<time>2024-05-10T14:14:34Z</time>
</trkpt>
<trkpt lat="49.51893612742424" lon="9.03198623098433">
<ele>305.6</ele>
<time>2024-05-10T14:14:35Z</time>
</trkpt>
<trkpt lat="49.51891701668501" lon="9.032031996175649">
<ele>305.2</ele>
<time>2024-05-10T14:14:36Z</time>
</trkpt>
<trkpt lat="49.51889798976481" lon="9.03208538889885">
<ele>304.8</ele>
<time>2024-05-10T14:14:37Z</time>
</trkpt>
<trkpt lat="49.51887510716915" lon="9.032148336991668">
<ele>304.4</ele>
<time>2024-05-10T14:14:38Z</time>
</trkpt>
<trkpt lat="49.51885599642992" lon="9.032215056940911">
<ele>304.2</ele>
<time>2024-05-10T14:14:39Z</time>
</trkpt>
<trkpt lat="49.51883696950972" lon="9.032283704727888">
<ele>303.8</ele>
<time>2024-05-10T14:14:40Z</time>
</trkpt>
<trkpt lat="49.51882171444595" lon="9.032344808802009">
<ele>303.6</ele>
<time>2024-05-10T14:14:41Z</time>
</trkpt>
<trkpt lat="49.51880260370672" lon="9.03240012936294">
<ele>303.2</ele>
<time>2024-05-10T14:14:42Z</time>
</trkpt>
<trkpt lat="49.518783492967486" lon="9.03245536610484">
<ele>303</ele>
<time>2024-05-10T14:14:43Z</time>
</trkpt>
<trkpt lat="49.518768237903714" lon="9.032509764656425">
<ele>302.8</ele>
<time>2024-05-10T14:14:44Z</time>
</trkpt>
<trkpt lat="49.518745355308056" lon="9.032567935064437">
<ele>302.6</ele>
<time>2024-05-10T14:14:45Z</time>
</trkpt>
<trkpt lat="49.51872632838786" lon="9.032627027481794">
<ele>302.4</ele>
<time>2024-05-10T14:14:46Z</time>
</trkpt>
<trkpt lat="49.51869959011674" lon="9.032692909240724">
<ele>302.2</ele>
<time>2024-05-10T14:14:47Z</time>
</trkpt>
<trkpt lat="49.518669079989195" lon="9.03275677934289">
<ele>302</ele>
<time>2024-05-10T14:14:48Z</time>
</trkpt>
<trkpt lat="49.51863856986165" lon="9.032826349139214">
<ele>301.6</ele>
<time>2024-05-10T14:14:49Z</time>
</trkpt>
<trkpt lat="49.51861183159053" lon="9.032899774610996">
<ele>301.4</ele>
<time>2024-05-10T14:14:50Z</time>
</trkpt>
<trkpt lat="49.51858132146299" lon="9.032966578379272">
<ele>301.2</ele>
<time>2024-05-10T14:14:51Z</time>
</trkpt>
<trkpt lat="49.51854703947902" lon="9.033021898940206">
<ele>300.8</ele>
<time>2024-05-10T14:14:52Z</time>
</trkpt>
<trkpt lat="49.51851652935147" lon="9.033069591969252">
<ele>300.4</ele>
<time>2024-05-10T14:14:53Z</time>
</trkpt>
<trkpt lat="49.51847839169204" lon="9.033116279169915">
<ele>300</ele>
<time>2024-05-10T14:14:54Z</time>
</trkpt>
<trkpt lat="49.518447797745466" lon="9.03317159973085">
<ele>299.8</ele>
<time>2024-05-10T14:14:55Z</time>
</trkpt>
<trkpt lat="49.51842114329338" lon="9.033221220597625">
<ele>299.6</ele>
<time>2024-05-10T14:14:56Z</time>
</trkpt>
<trkpt lat="49.51839440502226" lon="9.033261286094785">
<ele>299.2</ele>
<time>2024-05-10T14:14:57Z</time>
</trkpt>
<trkpt lat="49.51836775057018" lon="9.033298417925836">
<ele>298.6</ele>
<time>2024-05-10T14:14:58Z</time>
</trkpt>
<trkpt lat="49.518337240442634" lon="9.033341333270071">
<ele>298</ele>
<time>2024-05-10T14:14:59Z</time>
</trkpt>
<trkpt lat="49.51830287463963" lon="9.033391876146196">
<ele>297.4</ele>
<time>2024-05-10T14:15:00Z</time>
</trkpt>
<trkpt lat="49.5182647369802" lon="9.033438647165896">
<ele>297</ele>
<time>2024-05-10T14:15:01Z</time>
</trkpt>
<trkpt lat="49.51823799870908" lon="9.033465385437012">
<ele>296.6</ele>
<time>2024-05-10T14:15:02Z</time>
</trkpt>
<trkpt lat="49.518211344257" lon="9.033496817573903">
<ele>296.2</ele>
<time>2024-05-10T14:15:03Z</time>
</trkpt>
<trkpt lat="49.518176978453994" lon="9.03354350477457">
<ele>296</ele>
<time>2024-05-10T14:15:04Z</time>
</trkpt>
<trkpt lat="49.51813884079456" lon="9.033590275794268">
<ele>295.8</ele>
<time>2024-05-10T14:15:05Z</time>
</trkpt>
<trkpt lat="49.518096847459674" lon="9.033633191138506">
<ele>295.6</ele>
<time>2024-05-10T14:15:06Z</time>
</trkpt>
<trkpt lat="49.51805870980024" lon="9.033677028492091">
<ele>295.2</ele>
<time>2024-05-10T14:15:07Z</time>
</trkpt>
<trkpt lat="49.51802057214081" lon="9.033728577196598">
<ele>295.2</ele>
<time>2024-05-10T14:15:08Z</time>
</trkpt>
<trkpt lat="49.51798243448138" lon="9.033778114244342">
<ele>295.2</ele>
<time>2024-05-10T14:15:09Z</time>
</trkpt>
<trkpt lat="49.51794806867838" lon="9.033826813101768">
<ele>295</ele>
<time>2024-05-10T14:15:10Z</time>
</trkpt>
<trkpt lat="49.51790615916252" lon="9.033869728446009">
<ele>295</ele>
<time>2024-05-10T14:15:11Z</time>
</trkpt>
<trkpt lat="49.517860393971205" lon="9.033920271322131">
<ele>294.8</ele>
<time>2024-05-10T14:15:12Z</time>
</trkpt>
<trkpt lat="49.517818400636315" lon="9.033971736207604">
<ele>294.6</ele>
<time>2024-05-10T14:15:13Z</time>
</trkpt>
<trkpt lat="49.517776407301426" lon="9.034029906615617">
<ele>294.4</ele>
<time>2024-05-10T14:15:14Z</time>
</trkpt>
<trkpt lat="49.517742125317454" lon="9.034088077023624">
<ele>294</ele>
<time>2024-05-10T14:15:15Z</time>
</trkpt>
<trkpt lat="49.517703987658024" lon="9.034141469746828">
<ele>293.8</ele>
<time>2024-05-10T14:15:16Z</time>
</trkpt>
<trkpt lat="49.517661994323134" lon="9.034194946289063">
<ele>293.4</ele>
<time>2024-05-10T14:15:17Z</time>
</trkpt>
<trkpt lat="49.517623856663704" lon="9.034243561327456">
<ele>293</ele>
<time>2024-05-10T14:15:18Z</time>
</trkpt>
<trkpt lat="49.51758571900427" lon="9.034301731735468">
<ele>292.4</ele>
<time>2024-05-10T14:15:19Z</time>
</trkpt>
<trkpt lat="49.51755135320127" lon="9.034351268783212">
<ele>292</ele>
<time>2024-05-10T14:15:20Z</time>
</trkpt>
<trkpt lat="49.5175170712173" lon="9.034401811659336">
<ele>291.6</ele>
<time>2024-05-10T14:15:21Z</time>
</trkpt>
<trkpt lat="49.517482705414295" lon="9.034449504688382">
<ele>291.2</ele>
<time>2024-05-10T14:15:22Z</time>
</trkpt>
<trkpt lat="49.51745219528675" lon="9.034491498023272">
<ele>290.8</ele>
<time>2024-05-10T14:15:23Z</time>
</trkpt>
<trkpt lat="49.517421685159206" lon="9.03453634120524">
<ele>290.6</ele>
<time>2024-05-10T14:15:24Z</time>
</trkpt>
<trkpt lat="49.51739880256355" lon="9.034582106396556">
<ele>290.4</ele>
<time>2024-05-10T14:15:25Z</time>
</trkpt>
<trkpt lat="49.51737591996789" lon="9.034626949578524">
<ele>290</ele>
<time>2024-05-10T14:15:26Z</time>
</trkpt>
<trkpt lat="49.51735680922866" lon="9.034673636779187">
<ele>290</ele>
<time>2024-05-10T14:15:27Z</time>
</trkpt>
<trkpt lat="49.51734155416489" lon="9.034725185483694">
<ele>289.8</ele>
<time>2024-05-10T14:15:28Z</time>
</trkpt>
<trkpt lat="49.51733015477657" lon="9.034774722531438">
<ele>289.6</ele>
<time>2024-05-10T14:15:29Z</time>
</trkpt>
<trkpt lat="49.5173148997128" lon="9.034823337569833">
<ele>289.6</ele>
<time>2024-05-10T14:15:30Z</time>
</trkpt>
<trkpt lat="49.51729964464903" lon="9.03487203642726">
<ele>289.4</ele>
<time>2024-05-10T14:15:31Z</time>
</trkpt>
<trkpt lat="49.51728438958526" lon="9.034921573475003">
<ele>289.2</ele>
<time>2024-05-10T14:15:32Z</time>
</trkpt>
<trkpt lat="49.517265278846025" lon="9.034966416656973">
<ele>289</ele>
<time>2024-05-10T14:15:33Z</time>
</trkpt>
<trkpt lat="49.51725002378225" lon="9.03500840999186">
<ele>289</ele>
<time>2024-05-10T14:15:34Z</time>
</trkpt>
<trkpt lat="49.51723476871848" lon="9.0350513253361">
<ele>288.8</ele>
<time>2024-05-10T14:15:35Z</time>
</trkpt>
<trkpt lat="49.517223285511136" lon="9.035095162689686">
<ele>288.6</ele>
<time>2024-05-10T14:15:36Z</time>
</trkpt>
<trkpt lat="49.51721188612282" lon="9.035136150196196">
<ele>288.4</ele>
<time>2024-05-10T14:15:37Z</time>
</trkpt>
<trkpt lat="49.51719663105905" lon="9.035180071368814">
<ele>288.4</ele>
<time>2024-05-10T14:15:38Z</time>
</trkpt>
<trkpt lat="49.51717752031982" lon="9.035222986713052">
<ele>288.2</ele>
<time>2024-05-10T14:15:39Z</time>
</trkpt>
<trkpt lat="49.51715849339962" lon="9.03526489622891">
<ele>288.2</ele>
<time>2024-05-10T14:15:40Z</time>
</trkpt>
<trkpt lat="49.51714323833585" lon="9.0353068895638">
<ele>288.2</ele>
<time>2024-05-10T14:15:41Z</time>
</trkpt>
<trkpt lat="49.51712798327208" lon="9.035354582592843">
<ele>288.2</ele>
<time>2024-05-10T14:15:42Z</time>
</trkpt>
<trkpt lat="49.517108872532845" lon="9.035398419946432">
<ele>288</ele>
<time>2024-05-10T14:15:43Z</time>
</trkpt>
<trkpt lat="49.51708976179361" lon="9.03544519096613">
<ele>288</ele>
<time>2024-05-10T14:15:44Z</time>
</trkpt>
<trkpt lat="49.517070734873414" lon="9.035491878166797">
<ele>287.6</ele>
<time>2024-05-10T14:15:45Z</time>
</trkpt>
<trkpt lat="49.51704785227776" lon="9.035532949492335">
<ele>287.4</ele>
<time>2024-05-10T14:15:46Z</time>
</trkpt>
<trkpt lat="49.5170249696821" lon="9.035574859008191">
<ele>287.2</ele>
<time>2024-05-10T14:15:47Z</time>
</trkpt>
<trkpt lat="49.517005858942866" lon="9.035612996667624">
<ele>287</ele>
<time>2024-05-10T14:15:48Z</time>
</trkpt>
<trkpt lat="49.51698297634721" lon="9.035643506795168">
<ele>286.8</ele>
<time>2024-05-10T14:15:49Z</time>
</trkpt>
<trkpt lat="49.51696009375155" lon="9.035673094913363">
<ele>286.6</ele>
<time>2024-05-10T14:15:50Z</time>
</trkpt>
<trkpt lat="49.51694483868778" lon="9.035704610869288">
<ele>286.4</ele>
<time>2024-05-10T14:15:51Z</time>
</trkpt>
<trkpt lat="49.51692195609212" lon="9.035731265321374">
<ele>286.2</ele>
<time>2024-05-10T14:15:52Z</time>
</trkpt>
<trkpt lat="49.516895217821" lon="9.035753225907683">
<ele>286</ele>
<time>2024-05-10T14:15:53Z</time>
</trkpt>
<trkpt lat="49.51686856336892" lon="9.035783736035228">
<ele>285.8</ele>
<time>2024-05-10T14:15:54Z</time>
</trkpt>
<trkpt lat="49.51684568077326" lon="9.035816174000502">
<ele>285.6</ele>
<time>2024-05-10T14:15:55Z</time>
</trkpt>
<trkpt lat="49.51681894250214" lon="9.035839978605509">
<ele>285.2</ele>
<time>2024-05-10T14:15:56Z</time>
</trkpt>
<trkpt lat="49.516792288050056" lon="9.035862861201169">
<ele>285</ele>
<time>2024-05-10T14:15:57Z</time>
</trkpt>
<trkpt lat="49.5167694054544" lon="9.035891527310014">
<ele>284.6</ele>
<time>2024-05-10T14:15:58Z</time>
</trkpt>
<trkpt lat="49.51674266718328" lon="9.0359181817621">
<ele>284.4</ele>
<time>2024-05-10T14:15:59Z</time>
</trkpt>
<trkpt lat="49.51671592891216" lon="9.035948691889644">
<ele>284</ele>
<time>2024-05-10T14:16:00Z</time>
</trkpt>
<trkpt lat="49.51668927446008" lon="9.035973502323031">
<ele>283.8</ele>
<time>2024-05-10T14:16:01Z</time>
</trkpt>
<trkpt lat="49.51666253618896" lon="9.035989679396152">
<ele>283.6</ele>
<time>2024-05-10T14:16:02Z</time>
</trkpt>
<trkpt lat="49.5166396535933" lon="9.036009712144732">
<ele>283.2</ele>
<time>2024-05-10T14:16:03Z</time>
</trkpt>
<trkpt lat="49.516612999141216" lon="9.03603645041585">
<ele>283</ele>
<time>2024-05-10T14:16:04Z</time>
</trkpt>
<trkpt lat="49.5165862608701" lon="9.036061260849236">
<ele>282.6</ele>
<time>2024-05-10T14:16:05Z</time>
</trkpt>
<trkpt lat="49.516555750742555" lon="9.036089843139052">
<ele>282.4</ele>
<time>2024-05-10T14:16:06Z</time>
</trkpt>
<trkpt lat="49.51652901247144" lon="9.036121359094976">
<ele>282.2</ele>
<time>2024-05-10T14:16:07Z</time>
</trkpt>
<trkpt lat="49.51650235801935" lon="9.036151869222522">
<ele>282</ele>
<time>2024-05-10T14:16:08Z</time>
</trkpt>
<trkpt lat="49.51647184789181" lon="9.036185229197145">
<ele>281.6</ele>
<time>2024-05-10T14:16:09Z</time>
</trkpt>
<trkpt lat="49.51644510962069" lon="9.036219595000148">
<ele>281.2</ele>
<time>2024-05-10T14:16:10Z</time>
</trkpt>
<trkpt lat="49.516414599493146" lon="9.036239543929696">
<ele>280.8</ele>
<time>2024-05-10T14:16:11Z</time>
</trkpt>
<trkpt lat="49.5163840893656" lon="9.036266282200812">
<ele>280.6</ele>
<time>2024-05-10T14:16:12Z</time>
</trkpt>
<trkpt lat="49.51635357923806" lon="9.036299642175436">
<ele>280.6</ele>
<time>2024-05-10T14:16:13Z</time>
</trkpt>
<trkpt lat="49.51632306911051" lon="9.03633208014071">
<ele>280.6</ele>
<time>2024-05-10T14:16:14Z</time>
</trkpt>
<trkpt lat="49.51628870330751" lon="9.036364518105984">
<ele>280.6</ele>
<time>2024-05-10T14:16:15Z</time>
</trkpt>
<trkpt lat="49.516258193179965" lon="9.036399805918336">
<ele>280.4</ele>
<time>2024-05-10T14:16:16Z</time>
</trkpt>
<trkpt lat="49.51622768305242" lon="9.036435093730688">
<ele>280.2</ele>
<time>2024-05-10T14:16:17Z</time>
</trkpt>
<trkpt lat="49.51619717292488" lon="9.03646652586758">
<ele>280</ele>
<time>2024-05-10T14:16:18Z</time>
</trkpt>
<trkpt lat="49.51617043465376" lon="9.03649133630097">
<ele>279.8</ele>
<time>2024-05-10T14:16:19Z</time>
</trkpt>
<trkpt lat="49.51614378020167" lon="9.036524696275592">
<ele>279.4</ele>
<time>2024-05-10T14:16:20Z</time>
</trkpt>
<trkpt lat="49.51611327007413" lon="9.036564761772752">
<ele>279</ele>
<time>2024-05-10T14:16:21Z</time>
</trkpt>
<trkpt lat="49.516082759946585" lon="9.036598205566406">
<ele>278.6</ele>
<time>2024-05-10T14:16:22Z</time>
</trkpt>
<trkpt lat="49.51605216600001" lon="9.036633409559728">
<ele>278.2</ele>
<time>2024-05-10T14:16:23Z</time>
</trkpt>
<trkpt lat="49.51602551154792" lon="9.03666970320046">
<ele>278</ele>
<time>2024-05-10T14:16:24Z</time>
</trkpt>
<trkpt lat="49.515998773276806" lon="9.036701135337353">
<ele>277.6</ele>
<time>2024-05-10T14:16:25Z</time>
</trkpt>
<trkpt lat="49.51597211882472" lon="9.036734579131007">
<ele>277.4</ele>
<time>2024-05-10T14:16:26Z</time>
</trkpt>
<trkpt lat="49.5159453805536" lon="9.036765089258552">
<ele>277</ele>
<time>2024-05-10T14:16:27Z</time>
</trkpt>
<trkpt lat="49.51591872610152" lon="9.036789815872908">
<ele>276.6</ele>
<time>2024-05-10T14:16:28Z</time>
</trkpt>
<trkpt lat="49.51589584350586" lon="9.036813704296948">
<ele>276.2</ele>
<time>2024-05-10T14:16:29Z</time>
</trkpt>
<trkpt lat="49.51586910523474" lon="9.036843292415142">
<ele>275.8</ele>
<time>2024-05-10T14:16:30Z</time>
</trkpt>
<trkpt lat="49.5158385951072" lon="9.036878580227494">
<ele>275.4</ele>
<time>2024-05-10T14:16:31Z</time>
</trkpt>
<trkpt lat="49.51581185683608" lon="9.036910012364388">
<ele>275</ele>
<time>2024-05-10T14:16:32Z</time>
</trkpt>
<trkpt lat="49.515785202383995" lon="9.036934822797775">
<ele>274.6</ele>
<time>2024-05-10T14:16:33Z</time>
</trkpt>
<trkpt lat="49.51575846411288" lon="9.036958627402782">
<ele>274.4</ele>
<time>2024-05-10T14:16:34Z</time>
</trkpt>
<trkpt lat="49.51573558151722" lon="9.036988215520978">
<ele>274.2</ele>
<time>2024-05-10T14:16:35Z</time>
</trkpt>
<trkpt lat="49.5157088432461" lon="9.037026353180408">
<ele>273.8</ele>
<time>2024-05-10T14:16:36Z</time>
</trkpt>
<trkpt lat="49.51567833311856" lon="9.037068346515298">
<ele>273.6</ele>
<time>2024-05-10T14:16:37Z</time>
</trkpt>
<trkpt lat="49.51564019545913" lon="9.037113189697266">
<ele>272.8</ele>
<time>2024-05-10T14:16:38Z</time>
</trkpt>
<trkpt lat="49.51560591347515" lon="9.037155099213123">
<ele>272.2</ele>
<time>2024-05-10T14:16:39Z</time>
</trkpt>
<trkpt lat="49.51557154767215" lon="9.037190387025476">
<ele>271.8</ele>
<time>2024-05-10T14:16:40Z</time>
</trkpt>
<trkpt lat="49.51554103754461" lon="9.037226596847177">
<ele>271.6</ele>
<time>2024-05-10T14:16:41Z</time>
</trkpt>
<trkpt lat="49.515506671741605" lon="9.03726481832564">
<ele>271.4</ele>
<time>2024-05-10T14:16:42Z</time>
</trkpt>
<trkpt lat="49.51546476222575" lon="9.037306727841496">
<ele>270.8</ele>
<time>2024-05-10T14:16:43Z</time>
</trkpt>
<trkpt lat="49.515430396422744" lon="9.037346793338656">
<ele>270.4</ele>
<time>2024-05-10T14:16:44Z</time>
</trkpt>
<trkpt lat="49.51539611443877" lon="9.037376381456852">
<ele>270.2</ele>
<time>2024-05-10T14:16:45Z</time>
</trkpt>
<trkpt lat="49.51535412110388" lon="9.037406891584396">
<ele>269.8</ele>
<time>2024-05-10T14:16:46Z</time>
</trkpt>
<trkpt lat="49.515308355912566" lon="9.037433546036482">
<ele>269.4</ele>
<time>2024-05-10T14:16:47Z</time>
</trkpt>
<trkpt lat="49.51526636257768" lon="9.037454584613442">
<ele>269.2</ele>
<time>2024-05-10T14:16:48Z</time>
</trkpt>
<trkpt lat="49.515228224918246" lon="9.037467911839483">
<ele>268.8</ele>
<time>2024-05-10T14:16:49Z</time>
</trkpt>
<trkpt lat="49.51519385911524" lon="9.037474617362022">
<ele>268.6</ele>
<time>2024-05-10T14:16:50Z</time>
</trkpt>
<trkpt lat="49.51515957713127" lon="9.03747838921845">
<ele>268.2</ele>
<time>2024-05-10T14:16:51Z</time>
</trkpt>
<trkpt lat="49.51512521132827" lon="9.037481239065528">
<ele>267.8</ele>
<time>2024-05-10T14:16:52Z</time>
</trkpt>
<trkpt lat="49.51508707366884" lon="9.037489872425796">
<ele>267.4</ele>
<time>2024-05-10T14:16:53Z</time>
</trkpt>
<trkpt lat="49.51504516415298" lon="9.03750034980476">
<ele>267</ele>
<time>2024-05-10T14:16:54Z</time>
</trkpt>
<trkpt lat="49.51500317081809" lon="9.037509905174376">
<ele>266.6</ele>
<time>2024-05-10T14:16:55Z</time>
</trkpt>
<trkpt lat="49.514957405626774" lon="9.03751845471561">
<ele>266.2</ele>
<time>2024-05-10T14:16:56Z</time>
</trkpt>
<trkpt lat="49.51491164043546" lon="9.03753463178873">
<ele>265.8</ele>
<time>2024-05-10T14:16:57Z</time>
</trkpt>
<trkpt lat="49.51486587524414" lon="9.03755466453731">
<ele>265.6</ele>
<time>2024-05-10T14:16:58Z</time>
</trkpt>
<trkpt lat="49.51480862684548" lon="9.03757855296135">
<ele>265.2</ele>
<time>2024-05-10T14:16:59Z</time>
</trkpt>
<trkpt lat="49.51476286165416" lon="9.037603363394735">
<ele>264.8</ele>
<time>2024-05-10T14:17:00Z</time>
</trkpt>
<trkpt lat="49.51472472399473" lon="9.03763479553163">
<ele>264.6</ele>
<time>2024-05-10T14:17:01Z</time>
</trkpt>
<trkpt lat="49.514678874984384" lon="9.037663377821444">
<ele>264.2</ele>
<time>2024-05-10T14:17:02Z</time>
</trkpt>
<trkpt lat="49.51463310979307" lon="9.037692043930292">
<ele>263.8</ele>
<time>2024-05-10T14:17:03Z</time>
</trkpt>
<trkpt lat="49.51459497213364" lon="9.037719704210758">
<ele>263.4</ele>
<time>2024-05-10T14:17:04Z</time>
</trkpt>
<trkpt lat="49.514560690149665" lon="9.037743508815764">
<ele>263</ele>
<time>2024-05-10T14:17:05Z</time>
</trkpt>
<trkpt lat="49.51452632434666" lon="9.037770247086884">
<ele>262.8</ele>
<time>2024-05-10T14:17:06Z</time>
</trkpt>
<trkpt lat="49.51448818668723" lon="9.037796901538968">
<ele>262.4</ele>
<time>2024-05-10T14:17:07Z</time>
</trkpt>
<trkpt lat="49.5144500490278" lon="9.037824561819434">
<ele>261.799</ele>
<time>2024-05-10T14:17:08Z</time>
</trkpt>
<trkpt lat="49.5144156832248" lon="9.03785507194698">
<ele>261.2</ele>
<time>2024-05-10T14:17:09Z</time>
</trkpt>
<trkpt lat="49.51438517309725" lon="9.037883738055823">
<ele>260.799</ele>
<time>2024-05-10T14:17:10Z</time>
</trkpt>
<trkpt lat="49.51435089111328" lon="9.037911398336291">
<ele>260.4</ele>
<time>2024-05-10T14:17:11Z</time>
</trkpt>
<trkpt lat="49.51431266963482" lon="9.037942830473185">
<ele>260</ele>
<time>2024-05-10T14:17:12Z</time>
</trkpt>
<trkpt lat="49.51427838765085" lon="9.037975268438458">
<ele>259.6</ele>
<time>2024-05-10T14:17:13Z</time>
</trkpt>
<trkpt lat="49.51424402184784" lon="9.038004856556654">
<ele>259.4</ele>
<time>2024-05-10T14:17:14Z</time>
</trkpt>
<trkpt lat="49.5142135117203" lon="9.038038216531277">
<ele>259.4</ele>
<time>2024-05-10T14:17:15Z</time>
</trkpt>
<trkpt lat="49.514186857268214" lon="9.03806964866817">
<ele>259.2</ele>
<time>2024-05-10T14:17:16Z</time>
</trkpt>
<trkpt lat="49.5141601189971" lon="9.038098314777017">
<ele>259</ele>
<time>2024-05-10T14:17:17Z</time>
</trkpt>
<trkpt lat="49.51413338072598" lon="9.038123125210404">
<ele>258.799</ele>
<time>2024-05-10T14:17:18Z</time>
</trkpt>
<trkpt lat="49.51411435380578" lon="9.038145001977682">
<ele>258.4</ele>
<time>2024-05-10T14:17:19Z</time>
</trkpt>
<trkpt lat="49.51409524306655" lon="9.038163106888533">
<ele>258.2</ele>
<time>2024-05-10T14:17:20Z</time>
</trkpt>
<trkpt lat="49.51407998800278" lon="9.038180289790034">
<ele>258</ele>
<time>2024-05-10T14:17:21Z</time>
</trkpt>
<trkpt lat="49.514064732939005" lon="9.03819177299738">
<ele>257.6</ele>
<time>2024-05-10T14:17:22Z</time>
</trkpt>
<trkpt lat="49.514045706018806" lon="9.03820987790823">
<ele>257.6</ele>
<time>2024-05-10T14:17:23Z</time>
</trkpt>
<trkpt lat="49.514026595279574" lon="9.038225132972002">
<ele>257.4</ele>
<time>2024-05-10T14:17:24Z</time>
</trkpt>
<trkpt lat="49.5140113402158" lon="9.038238460198045">
<ele>257.2</ele>
<time>2024-05-10T14:17:25Z</time>
</trkpt>
<trkpt lat="49.51399222947657" lon="9.038254721090198">
<ele>256.799</ele>
<time>2024-05-10T14:17:26Z</time>
</trkpt>
<trkpt lat="49.5139769744128" lon="9.038278525695205">
<ele>256.6</ele>
<time>2024-05-10T14:17:27Z</time>
</trkpt>
<trkpt lat="49.5139579474926" lon="9.038299480453134">
<ele>256.4</ele>
<time>2024-05-10T14:17:28Z</time>
</trkpt>
<trkpt lat="49.51393506489694" lon="9.038319513201714">
<ele>256.2</ele>
<time>2024-05-10T14:17:29Z</time>
</trkpt>
<trkpt lat="49.51391980983317" lon="9.038338623940945">
<ele>256.2</ele>
<time>2024-05-10T14:17:30Z</time>
</trkpt>
<trkpt lat="49.51390069909394" lon="9.038356728851795">
<ele>256</ele>
<time>2024-05-10T14:17:31Z</time>
</trkpt>
<trkpt lat="49.513885444030166" lon="9.038383467122912">
<ele>255.8</ele>
<time>2024-05-10T14:17:32Z</time>
</trkpt>
<trkpt lat="49.51387018896639" lon="9.038401572033765">
<ele>255.8</ele>
<time>2024-05-10T14:17:33Z</time>
</trkpt>
<trkpt lat="49.513851162046194" lon="9.038421604782345">
<ele>255.6</ele>
<time>2024-05-10T14:17:34Z</time>
</trkpt>
<trkpt lat="49.513828195631504" lon="9.038438787683845">
<ele>255.4</ele>
<time>2024-05-10T14:17:35Z</time>
</trkpt>
<trkpt lat="49.51379768550396" lon="9.038450187072158">
<ele>255.2</ele>
<time>2024-05-10T14:17:36Z</time>
</trkpt>
<trkpt lat="49.51376340351999" lon="9.038479775190352">
<ele>255</ele>
<time>2024-05-10T14:17:37Z</time>
</trkpt>
<trkpt lat="49.513729037716985" lon="9.038508357480168">
<ele>254.6</ele>
<time>2024-05-10T14:17:38Z</time>
</trkpt>
<trkpt lat="49.51369852758944" lon="9.038537023589017">
<ele>254.2</ele>
<time>2024-05-10T14:17:39Z</time>
</trkpt>
<trkpt lat="49.51366424560547" lon="9.03856460005045">
<ele>254</ele>
<time>2024-05-10T14:17:40Z</time>
</trkpt>
<trkpt lat="49.51363365165889" lon="9.038593266159296">
<ele>253.6</ele>
<time>2024-05-10T14:17:41Z</time>
</trkpt>
<trkpt lat="49.51360699720681" lon="9.038618076592684">
<ele>253.4</ele>
<time>2024-05-10T14:17:42Z</time>
</trkpt>
<trkpt lat="49.51358025893569" lon="9.038636181503534">
<ele>253.2</ele>
<time>2024-05-10T14:17:43Z</time>
</trkpt>
<trkpt lat="49.513549748808146" lon="9.038649508729575">
<ele>252.8</ele>
<time>2024-05-10T14:17:44Z</time>
</trkpt>
<trkpt lat="49.513515466824174" lon="9.038668619468808">
<ele>252.6</ele>
<time>2024-05-10T14:17:45Z</time>
</trkpt>
<trkpt lat="49.51348110102117" lon="9.0387000516057">
<ele>252.2</ele>
<time>2024-05-10T14:17:46Z</time>
</trkpt>
<trkpt lat="49.51344673521817" lon="9.038733411580324">
<ele>252.2</ele>
<time>2024-05-10T14:17:47Z</time>
</trkpt>
<trkpt lat="49.51340859755874" lon="9.038751600310206">
<ele>252.4</ele>
<time>2024-05-10T14:17:48Z</time>
</trkpt>
<trkpt lat="49.513374315574765" lon="9.03876685537398">
<ele>252.4</ele>
<time>2024-05-10T14:17:49Z</time>
</trkpt>
<trkpt lat="49.51333232223987" lon="9.038796359673142">
<ele>252.2</ele>
<time>2024-05-10T14:17:50Z</time>
</trkpt>
<trkpt lat="49.513294184580445" lon="9.038816392421722">
<ele>251.8</ele>
<time>2024-05-10T14:17:51Z</time>
</trkpt>
<trkpt lat="49.51325219124555" lon="9.038834497332571">
<ele>251.4</ele>
<time>2024-05-10T14:17:52Z</time>
</trkpt>
<trkpt lat="49.5132102817297" lon="9.03886123560369">
<ele>251</ele>
<time>2024-05-10T14:17:53Z</time>
</trkpt>
<trkpt lat="49.51317214407027" lon="9.03888126835227">
<ele>250.6</ele>
<time>2024-05-10T14:17:54Z</time>
</trkpt>
<trkpt lat="49.51313015073538" lon="9.038894595578313">
<ele>250</ele>
<time>2024-05-10T14:17:55Z</time>
</trkpt>
<trkpt lat="49.51308815740049" lon="9.038914628326893">
<ele>249.4</ele>
<time>2024-05-10T14:17:56Z</time>
</trkpt>
<trkpt lat="49.51304624788463" lon="9.038933739066124">
<ele>248.8</ele>
<time>2024-05-10T14:17:57Z</time>
</trkpt>
<trkpt lat="49.5130081102252" lon="9.038953771814704">
<ele>248.2</ele>
<time>2024-05-10T14:17:58Z</time>
</trkpt>
<trkpt lat="49.51296611689031" lon="9.038963243365288">
<ele>247.6</ele>
<time>2024-05-10T14:17:59Z</time>
</trkpt>
<trkpt lat="49.512920351698995" lon="9.03897950425744">
<ele>247.2</ele>
<time>2024-05-10T14:18:00Z</time>
</trkpt>
<trkpt lat="49.512878358364105" lon="9.03899853117764">
<ele>246.4</ele>
<time>2024-05-10T14:18:01Z</time>
</trkpt>
<trkpt lat="49.51283259317279" lon="9.039010014384983">
<ele>245.8</ele>
<time>2024-05-10T14:18:02Z</time>
</trkpt>
<trkpt lat="49.51278682798147" lon="9.039030047133563">
<ele>245.2</ele>
<time>2024-05-10T14:18:03Z</time>
</trkpt>
<trkpt lat="49.5127372071147" lon="9.039054857566953">
<ele>244.6</ele>
<time>2024-05-10T14:18:04Z</time>
</trkpt>
<trkpt lat="49.51268004253507" lon="9.039083439856768">
<ele>244</ele>
<time>2024-05-10T14:18:05Z</time>
</trkpt>
<trkpt lat="49.51262656599283" lon="9.039106322452426">
<ele>243.6</ele>
<time>2024-05-10T14:18:06Z</time>
</trkpt>
<trkpt lat="49.51257317326963" lon="9.039133060723543">
<ele>243</ele>
<time>2024-05-10T14:18:07Z</time>
</trkpt>
<trkpt lat="49.512523636221886" lon="9.039153093472123">
<ele>242.4</ele>
<time>2024-05-10T14:18:08Z</time>
</trkpt>
<trkpt lat="49.51247787103057" lon="9.039168348535895">
<ele>242</ele>
<time>2024-05-10T14:18:09Z</time>
</trkpt>
<trkpt lat="49.51243587769568" lon="9.0391749702394">
<ele>241.6</ele>
<time>2024-05-10T14:18:10Z</time>
</trkpt>
<trkpt lat="49.51239388436079" lon="9.039183603599668">
<ele>241.2</ele>
<time>2024-05-10T14:18:11Z</time>
</trkpt>
<trkpt lat="49.51235960237682" lon="9.03917689807713">
<ele>240.6</ele>
<time>2024-05-10T14:18:12Z</time>
</trkpt>
<trkpt lat="49.512306209653616" lon="9.039206486195326">
<ele>240.2</ele>
<time>2024-05-10T14:18:13Z</time>
</trkpt>
<trkpt lat="49.512248961254954" lon="9.03923699632287">
<ele>239.8</ele>
<time>2024-05-10T14:18:14Z</time>
</trkpt>
<trkpt lat="49.51220319606364" lon="9.039244623854756">
<ele>239.4</ele>
<time>2024-05-10T14:18:15Z</time>
</trkpt>
<trkpt lat="49.51214217580855" lon="9.039251245558262">
<ele>239.2</ele>
<time>2024-05-10T14:18:16Z</time>
</trkpt>
<trkpt lat="49.51209255494177" lon="9.039253173395991">
<ele>238.8</ele>
<time>2024-05-10T14:18:17Z</time>
</trkpt>
<trkpt lat="49.51204678975046" lon="9.039253173395991">
<ele>238.4</ele>
<time>2024-05-10T14:18:18Z</time>
</trkpt>
<trkpt lat="49.51200479641557" lon="9.039259878918529">
<ele>238</ele>
<time>2024-05-10T14:18:19Z</time>
</trkpt>
<trkpt lat="49.5119705144316" lon="9.039270356297491">
<ele>237.6</ele>
<time>2024-05-10T14:18:20Z</time>
</trkpt>
<trkpt lat="49.511932292953134" lon="9.039279911667109">
<ele>237.2</ele>
<time>2024-05-10T14:18:21Z</time>
</trkpt>
<trkpt lat="49.5118941552937" lon="9.039291311055422">
<ele>237.2</ele>
<time>2024-05-10T14:18:22Z</time>
</trkpt>
<trkpt lat="49.51185987330973" lon="9.039304722100496">
<ele>237</ele>
<time>2024-05-10T14:18:23Z</time>
</trkpt>
<trkpt lat="49.51182936318219" lon="9.03931519947946">
<ele>237</ele>
<time>2024-05-10T14:18:24Z</time>
</trkpt>
<trkpt lat="49.51179885305464" lon="9.039326598867774">
<ele>237</ele>
<time>2024-05-10T14:18:25Z</time>
</trkpt>
<trkpt lat="49.51176825910807" lon="9.03933523222804">
<ele>236.8</ele>
<time>2024-05-10T14:18:26Z</time>
</trkpt>
<trkpt lat="49.511733977124095" lon="9.03933615423739">
<ele>236.4</ele>
<time>2024-05-10T14:18:27Z</time>
</trkpt>
<trkpt lat="49.51170346699655" lon="9.039340009912848">
<ele>236.2</ele>
<time>2024-05-10T14:18:28Z</time>
</trkpt>
<trkpt lat="49.51166910119355" lon="9.039348559454083">
<ele>236</ele>
<time>2024-05-10T14:18:29Z</time>
</trkpt>
<trkpt lat="49.511638591066" lon="9.03935618698597">
<ele>235.6</ele>
<time>2024-05-10T14:18:30Z</time>
</trkpt>
<trkpt lat="49.51161193661392" lon="9.039368592202663">
<ele>235.2</ele>
<time>2024-05-10T14:18:31Z</time>
</trkpt>
<trkpt lat="49.51158134266734" lon="9.039381919428706">
<ele>234.6</ele>
<time>2024-05-10T14:18:32Z</time>
</trkpt>
<trkpt lat="49.51155846007168" lon="9.039401952177286">
<ele>234.4</ele>
<time>2024-05-10T14:18:33Z</time>
</trkpt>
<trkpt lat="49.511535577476025" lon="9.03941628523171">
<ele>234</ele>
<time>2024-05-10T14:18:34Z</time>
</trkpt>
<trkpt lat="49.51150506734848" lon="9.039426762610674">
<ele>233.6</ele>
<time>2024-05-10T14:18:35Z</time>
</trkpt>
<trkpt lat="49.51147078536451" lon="9.039442017674446">
<ele>233.4</ele>
<time>2024-05-10T14:18:36Z</time>
</trkpt>
<trkpt lat="49.51144404709339" lon="9.039455344900489">
<ele>233.2</ele>
<time>2024-05-10T14:18:37Z</time>
</trkpt>
<trkpt lat="49.51141353696585" lon="9.039469677954912">
<ele>233.2</ele>
<time>2024-05-10T14:18:38Z</time>
</trkpt>
<trkpt lat="49.51138679869473" lon="9.039480155333877">
<ele>233.2</ele>
<time>2024-05-10T14:18:39Z</time>
</trkpt>
<trkpt lat="49.5113486610353" lon="9.039488788694143">
<ele>233.2</ele>
<time>2024-05-10T14:18:40Z</time>
</trkpt>
<trkpt lat="49.51131437905133" lon="9.039495410397649">
<ele>233</ele>
<time>2024-05-10T14:18:41Z</time>
</trkpt>
<trkpt lat="49.5112762413919" lon="9.039482083171606">
<ele>232.6</ele>
<time>2024-05-10T14:18:42Z</time>
</trkpt>
<trkpt lat="49.511238019913435" lon="9.039480155333877">
<ele>232.4</ele>
<time>2024-05-10T14:18:43Z</time>
</trkpt>
<trkpt lat="49.51119225472212" lon="9.039491638541222">
<ele>232.2</ele>
<time>2024-05-10T14:18:44Z</time>
</trkpt>
<trkpt lat="49.51115797273815" lon="9.039507815614344">
<ele>231.8</ele>
<time>2024-05-10T14:18:45Z</time>
</trkpt>
<trkpt lat="49.51111597940326" lon="9.03953455388546">
<ele>231.6</ele>
<time>2024-05-10T14:18:46Z</time>
</trkpt>
<trkpt lat="49.511081613600254" lon="9.039560286328197">
<ele>231.4</ele>
<time>2024-05-10T14:18:47Z</time>
</trkpt>
<trkpt lat="49.51105110347271" lon="9.039603201672437">
<ele>231.4</ele>
<time>2024-05-10T14:18:48Z</time>
</trkpt>
<trkpt lat="49.51102822087705" lon="9.0396498888731">
<ele>231.2</ele>
<time>2024-05-10T14:18:49Z</time>
</trkpt>
<trkpt lat="49.51100533828139" lon="9.039696659892796">
<ele>231</ele>
<time>2024-05-10T14:18:50Z</time>
</trkpt>
<trkpt lat="49.510982455685735" lon="9.03974812477827">
<ele>230.8</ele>
<time>2024-05-10T14:18:51Z</time>
</trkpt>
<trkpt lat="49.510963428765535" lon="9.039798667654397">
<ele>230.6</ele>
<time>2024-05-10T14:18:52Z</time>
</trkpt>
<trkpt lat="49.51094817370176" lon="9.03984636068344">
<ele>230.6</ele>
<time>2024-05-10T14:18:53Z</time>
</trkpt>
<trkpt lat="49.51092906296253" lon="9.039893131703138">
<ele>230.8</ele>
<time>2024-05-10T14:18:54Z</time>
</trkpt>
<trkpt lat="49.51091380789876" lon="9.039939818903804">
<ele>230.6</ele>
<time>2024-05-10T14:18:55Z</time>
</trkpt>
<trkpt lat="49.51089855283499" lon="9.039984662085772">
<ele>230.6</ele>
<time>2024-05-10T14:18:56Z</time>
</trkpt>
<trkpt lat="49.510883297771215" lon="9.040019949898124">
<ele>230.4</ele>
<time>2024-05-10T14:18:57Z</time>
</trkpt>
<trkpt lat="49.51087181456387" lon="9.040060015395284">
<ele>230.2</ele>
<time>2024-05-10T14:18:58Z</time>
</trkpt>
<trkpt lat="49.5108565595001" lon="9.040100080892444">
<ele>230.2</ele>
<time>2024-05-10T14:18:59Z</time>
</trkpt>
<trkpt lat="49.510841304436326" lon="9.0401419904083">
<ele>230</ele>
<time>2024-05-10T14:19:00Z</time>
</trkpt>
<trkpt lat="49.51082990504801" lon="9.040183061733842">
<ele>230.2</ele>
<time>2024-05-10T14:19:01Z</time>
</trkpt>
<trkpt lat="49.51081464998424" lon="9.040221199393272">
<ele>230.2</ele>
<time>2024-05-10T14:19:02Z</time>
</trkpt>
<trkpt lat="49.510803166776896" lon="9.040256487205625">
<ele>230.2</ele>
<time>2024-05-10T14:19:03Z</time>
</trkpt>
<trkpt lat="49.51078791171312" lon="9.040296552702785">
<ele>230</ele>
<time>2024-05-10T14:19:04Z</time>
</trkpt>
<trkpt lat="49.51077651232481" lon="9.04034131206572">
<ele>229.8</ele>
<time>2024-05-10T14:19:05Z</time>
</trkpt>
<trkpt lat="49.510765029117465" lon="9.040380455553532">
<ele>229.6</ele>
<time>2024-05-10T14:19:06Z</time>
</trkpt>
<trkpt lat="49.51074977405369" lon="9.040426220744848">
<ele>229.2</ele>
<time>2024-05-10T14:19:07Z</time>
</trkpt>
<trkpt lat="49.51073066331446" lon="9.040471985936165">
<ele>229</ele>
<time>2024-05-10T14:19:08Z</time>
</trkpt>
<trkpt lat="49.51071163639426" lon="9.04052160680294">
<ele>228.6</ele>
<time>2024-05-10T14:19:09Z</time>
</trkpt>
<trkpt lat="49.51069638133049" lon="9.040573071688414">
<ele>228.4</ele>
<time>2024-05-10T14:19:10Z</time>
</trkpt>
<trkpt lat="49.51067727059126" lon="9.04061984270811">
<ele>228.2</ele>
<time>2024-05-10T14:19:11Z</time>
</trkpt>
<trkpt lat="49.51066201552749" lon="9.040664602071049">
<ele>228</ele>
<time>2024-05-10T14:19:12Z</time>
</trkpt>
<trkpt lat="49.510646760463715" lon="9.040706595405936">
<ele>227.8</ele>
<time>2024-05-10T14:19:13Z</time>
</trkpt>
<trkpt lat="49.51063150539994" lon="9.040746660903096">
<ele>227.6</ele>
<time>2024-05-10T14:19:14Z</time>
</trkpt>
<trkpt lat="49.51061625033617" lon="9.040784798562528">
<ele>227.2</ele>
<time>2024-05-10T14:19:15Z</time>
</trkpt>
<trkpt lat="49.5106009952724" lon="9.040822936221955">
<ele>227</ele>
<time>2024-05-10T14:19:16Z</time>
</trkpt>
<trkpt lat="49.5105819683522" lon="9.040863001719115">
<ele>226.8</ele>
<time>2024-05-10T14:19:17Z</time>
</trkpt>
<trkpt lat="49.510566629469395" lon="9.040906839072704">
<ele>226.6</ele>
<time>2024-05-10T14:19:18Z</time>
</trkpt>
<trkpt lat="49.510543746873736" lon="9.040953610092402">
<ele>226.6</ele>
<time>2024-05-10T14:19:19Z</time>
</trkpt>
<trkpt lat="49.51052086427808" lon="9.041000297293069">
<ele>226.4</ele>
<time>2024-05-10T14:19:20Z</time>
</trkpt>
<trkpt lat="49.51049798168242" lon="9.041049918159842">
<ele>226.2</ele>
<time>2024-05-10T14:19:21Z</time>
</trkpt>
<trkpt lat="49.51047509908676" lon="9.041098533198236">
<ele>226.2</ele>
<time>2024-05-10T14:19:22Z</time>
</trkpt>
<trkpt lat="49.51044844463467" lon="9.041148154065011">
<ele>226</ele>
<time>2024-05-10T14:19:23Z</time>
</trkpt>
<trkpt lat="49.51041793450713" lon="9.041205402463676">
<ele>226</ele>
<time>2024-05-10T14:19:24Z</time>
</trkpt>
<trkpt lat="49.51039496809244" lon="9.041259717196226">
<ele>226</ele>
<time>2024-05-10T14:19:25Z</time>
</trkpt>
<trkpt lat="49.51037208549678" lon="9.04131026007235">
<ele>226</ele>
<time>2024-05-10T14:19:26Z</time>
</trkpt>
<trkpt lat="49.510349202901125" lon="9.041359880939126">
<ele>226</ele>
<time>2024-05-10T14:19:27Z</time>
</trkpt>
<trkpt lat="49.510330175980926" lon="9.041404724121094">
<ele>226</ele>
<time>2024-05-10T14:19:28Z</time>
</trkpt>
<trkpt lat="49.51030343770981" lon="9.04144856147468">
<ele>225.8</ele>
<time>2024-05-10T14:19:29Z</time>
</trkpt>
<trkpt lat="49.51028055511415" lon="9.04149147681892">
<ele>225.8</ele>
<time>2024-05-10T14:19:30Z</time>
</trkpt>
<trkpt lat="49.510253900662065" lon="9.041540091857314">
<ele>226</ele>
<time>2024-05-10T14:19:31Z</time>
</trkpt>
<trkpt lat="49.51022716239095" lon="9.04159164056182">
<ele>226</ele>
<time>2024-05-10T14:19:32Z</time>
</trkpt>
<trkpt lat="49.51020042411983" lon="9.041643105447292">
<ele>226</ele>
<time>2024-05-10T14:19:33Z</time>
</trkpt>
<trkpt lat="49.51017754152417" lon="9.041694570332766">
<ele>225.8</ele>
<time>2024-05-10T14:19:34Z</time>
</trkpt>
<trkpt lat="49.51015465892851" lon="9.041743269190192">
<ele>225.8</ele>
<time>2024-05-10T14:19:35Z</time>
</trkpt>
<trkpt lat="49.510131776332855" lon="9.04178517870605">
<ele>225.6</ele>
<time>2024-05-10T14:19:36Z</time>
</trkpt>
<trkpt lat="49.510112749412656" lon="9.04182331636548">
<ele>225.2</ele>
<time>2024-05-10T14:19:37Z</time>
</trkpt>
<trkpt lat="49.510089866817" lon="9.041859610006211">
<ele>225</ele>
<time>2024-05-10T14:19:38Z</time>
</trkpt>
<trkpt lat="49.51006312854588" lon="9.0418862644583">
<ele>224.8</ele>
<time>2024-05-10T14:19:39Z</time>
</trkpt>
<trkpt lat="49.51004401780665" lon="9.04192348010838">
<ele>224.4</ele>
<time>2024-05-10T14:19:40Z</time>
</trkpt>
<trkpt lat="49.51002499088645" lon="9.04195968993008">
<ele>224</ele>
<time>2024-05-10T14:19:41Z</time>
</trkpt>
<trkpt lat="49.51000210829079" lon="9.041997827589512">
<ele>223.4</ele>
<time>2024-05-10T14:19:42Z</time>
</trkpt>
<trkpt lat="49.509975370019674" lon="9.042035043239594">
<ele>223</ele>
<time>2024-05-10T14:19:43Z</time>
</trkpt>
<trkpt lat="49.50994871556759" lon="9.042075108736752">
<ele>222.8</ele>
<time>2024-05-10T14:19:44Z</time>
</trkpt>
<trkpt lat="49.50992197729647" lon="9.042117102071645">
<ele>222.6</ele>
<time>2024-05-10T14:19:45Z</time>
</trkpt>
<trkpt lat="49.50989146716893" lon="9.042151384055614">
<ele>222.6</ele>
<time>2024-05-10T14:19:46Z</time>
</trkpt>
<trkpt lat="49.50986472889781" lon="9.042184827849267">
<ele>222.6</ele>
<time>2024-05-10T14:19:47Z</time>
</trkpt>
<trkpt lat="49.509834218770266" lon="9.042218187823892">
<ele>222.6</ele>
<time>2024-05-10T14:19:48Z</time>
</trkpt>
<trkpt lat="49.50980370864272" lon="9.042253475636244">
<ele>222.6</ele>
<time>2024-05-10T14:19:49Z</time>
</trkpt>
<trkpt lat="49.50977319851518" lon="9.042284907773135">
<ele>222.6</ele>
<time>2024-05-10T14:19:50Z</time>
</trkpt>
<trkpt lat="49.50974268838763" lon="9.042314495891333">
<ele>222.8</ele>
<time>2024-05-10T14:19:51Z</time>
</trkpt>
<trkpt lat="49.50971217826009" lon="9.042343078181148">
<ele>222.8</ele>
<time>2024-05-10T14:19:52Z</time>
</trkpt>
<trkpt lat="49.509681668132544" lon="9.042371744289994">
<ele>222.8</ele>
<time>2024-05-10T14:19:53Z</time>
</trkpt>
<trkpt lat="49.50964730232954" lon="9.042401248589158">
<ele>223</ele>
<time>2024-05-10T14:19:54Z</time>
</trkpt>
<trkpt lat="49.509616792202" lon="9.042426981031896">
<ele>223</ele>
<time>2024-05-10T14:19:55Z</time>
</trkpt>
<trkpt lat="49.50959013774991" lon="9.042451791465282">
<ele>223</ele>
<time>2024-05-10T14:19:56Z</time>
</trkpt>
<trkpt lat="49.50956339947879" lon="9.04247467406094">
<ele>222.8</ele>
<time>2024-05-10T14:19:57Z</time>
</trkpt>
<trkpt lat="49.50953288935125" lon="9.04249856248498">
<ele>222.6</ele>
<time>2024-05-10T14:19:58Z</time>
</trkpt>
<trkpt lat="49.509502379223704" lon="9.042523372918367">
<ele>222.4</ele>
<time>2024-05-10T14:19:59Z</time>
</trkpt>
<trkpt lat="49.5094680134207" lon="9.042548099532723">
<ele>222.2</ele>
<time>2024-05-10T14:20:00Z</time>
</trkpt>
<trkpt lat="49.50943373143673" lon="9.042572909966111">
<ele>222</ele>
<time>2024-05-10T14:20:01Z</time>
</trkpt>
<trkpt lat="49.509403221309185" lon="9.04259487055242">
<ele>221.8</ele>
<time>2024-05-10T14:20:02Z</time>
</trkpt>
<trkpt lat="49.50937271118164" lon="9.042614903301">
<ele>221.4</ele>
<time>2024-05-10T14:20:03Z</time>
</trkpt>
<trkpt lat="49.50934974476695" lon="9.042633008211851">
<ele>221.2</ele>
<time>2024-05-10T14:20:04Z</time>
</trkpt>
<trkpt lat="49.50932686217129" lon="9.042650191113353">
<ele>220.8</ele>
<time>2024-05-10T14:20:05Z</time>
</trkpt>
<trkpt lat="49.50930783525109" lon="9.042664524167776">
<ele>220.4</ele>
<time>2024-05-10T14:20:06Z</time>
</trkpt>
<trkpt lat="49.509284952655435" lon="9.04267785139382">
<ele>220</ele>
<time>2024-05-10T14:20:07Z</time>
</trkpt>
<trkpt lat="49.5092658419162" lon="9.042693106457593">
<ele>219.8</ele>
<time>2024-05-10T14:20:08Z</time>
</trkpt>
<trkpt lat="49.509242959320545" lon="9.042706433683634">
<ele>219.6</ele>
<time>2024-05-10T14:20:09Z</time>
</trkpt>
<trkpt lat="49.509223932400346" lon="9.042719760909677">
<ele>219.2</ele>
<time>2024-05-10T14:20:10Z</time>
</trkpt>
<trkpt lat="49.509204821661115" lon="9.042730322107673">
<ele>219</ele>
<time>2024-05-10T14:20:11Z</time>
</trkpt>
<trkpt lat="49.50918571092189" lon="9.042739793658257">
<ele>218.6</ele>
<time>2024-05-10T14:20:12Z</time>
</trkpt>
<trkpt lat="49.50916668400168" lon="9.042741721495986">
<ele>218.4</ele>
<time>2024-05-10T14:20:13Z</time>
</trkpt>
<trkpt lat="49.509143801406026" lon="9.042743649333715">
<ele>218</ele>
<time>2024-05-10T14:20:14Z</time>
</trkpt>
<trkpt lat="49.50912091881037" lon="9.042743649333715">
<ele>217.8</ele>
<time>2024-05-10T14:20:15Z</time>
</trkpt>
<trkpt lat="49.50909418053925" lon="9.042744571343064">
<ele>217.6</ele>
<time>2024-05-10T14:20:16Z</time>
</trkpt>
<trkpt lat="49.509067526087165" lon="9.042750354856253">
<ele>217</ele>
<time>2024-05-10T14:20:17Z</time>
</trkpt>
<trkpt lat="49.50904078781605" lon="9.042751276865602">
<ele>216.4</ele>
<time>2024-05-10T14:20:18Z</time>
</trkpt>
<trkpt lat="49.50901404954493" lon="9.042750354856253">
<ele>216</ele>
<time>2024-05-10T14:20:19Z</time>
</trkpt>
<trkpt lat="49.508983539417386" lon="9.042751276865602">
<ele>215.6</ele>
<time>2024-05-10T14:20:20Z</time>
</trkpt>
<trkpt lat="49.5089568849653" lon="9.042751276865602">
<ele>215.2</ele>
<time>2024-05-10T14:20:21Z</time>
</trkpt>
<trkpt lat="49.50893014669418" lon="9.042753204703333">
<ele>215</ele>
<time>2024-05-10T14:20:22Z</time>
</trkpt>
<trkpt lat="49.5089034922421" lon="9.042755048722029">
<ele>214.6</ele>
<time>2024-05-10T14:20:23Z</time>
</trkpt>
<trkpt lat="49.50887675397098" lon="9.042756976559758">
<ele>214.4</ele>
<time>2024-05-10T14:20:24Z</time>
</trkpt>
<trkpt lat="49.50885001569986" lon="9.042756976559758">
<ele>214.2</ele>
<time>2024-05-10T14:20:25Z</time>
</trkpt>
<trkpt lat="49.50881950557232" lon="9.042761754244566">
<ele>214</ele>
<time>2024-05-10T14:20:26Z</time>
</trkpt>
<trkpt lat="49.50879285112023" lon="9.042761754244566">
<ele>213.6</ele>
<time>2024-05-10T14:20:27Z</time>
</trkpt>
<trkpt lat="49.508769968524575" lon="9.04275798238814">
<ele>213.4</ele>
<time>2024-05-10T14:20:28Z</time>
</trkpt>
<trkpt lat="49.50874323025346" lon="9.042748427018523">
<ele>213.2</ele>
<time>2024-05-10T14:20:29Z</time>
</trkpt>
<trkpt lat="49.508712720125914" lon="9.042748427018523">
<ele>212.8</ele>
<time>2024-05-10T14:20:30Z</time>
</trkpt>
<trkpt lat="49.508689837530255" lon="9.04273794963956">
<ele>212.4</ele>
<time>2024-05-10T14:20:31Z</time>
</trkpt>
<trkpt lat="49.50866309925914" lon="9.042731244117022">
<ele>212</ele>
<time>2024-05-10T14:20:32Z</time>
</trkpt>
<trkpt lat="49.50863644480705" lon="9.042723616585135">
<ele>211.6</ele>
<time>2024-05-10T14:20:33Z</time>
</trkpt>
<trkpt lat="49.508613562211394" lon="9.042716911062598">
<ele>211.2</ele>
<time>2024-05-10T14:20:34Z</time>
</trkpt>
<trkpt lat="49.508590679615736" lon="9.042701655998826">
<ele>210.8</ele>
<time>2024-05-10T14:20:35Z</time>
</trkpt>
<trkpt lat="49.508571568876505" lon="9.042684473097324">
<ele>210.2</ele>
<time>2024-05-10T14:20:36Z</time>
</trkpt>
<trkpt lat="49.50854491442442" lon="9.042671145871282">
<ele>209.8</ele>
<time>2024-05-10T14:20:37Z</time>
</trkpt>
<trkpt lat="49.50852203182876" lon="9.042658740654588">
<ele>209.4</ele>
<time>2024-05-10T14:20:38Z</time>
</trkpt>
<trkpt lat="49.50849906541407" lon="9.042638707906008">
<ele>209</ele>
<time>2024-05-10T14:20:39Z</time>
</trkpt>
<trkpt lat="49.508472410961986" lon="9.042621608823538">
<ele>208.8</ele>
<time>2024-05-10T14:20:40Z</time>
</trkpt>
<trkpt lat="49.50844952836633" lon="9.042618675157428">
<ele>208.4</ele>
<time>2024-05-10T14:20:41Z</time>
</trkpt>
<trkpt lat="49.50842664577067" lon="9.042612975463271">
<ele>208</ele>
<time>2024-05-10T14:20:42Z</time>
</trkpt>
<trkpt lat="49.5084113907069" lon="9.042614903301">
<ele>207.6</ele>
<time>2024-05-10T14:20:43Z</time>
</trkpt>
<trkpt lat="49.508396135643125" lon="9.04261683113873">
<ele>207.2</ele>
<time>2024-05-10T14:20:44Z</time>
</trkpt>
<trkpt lat="49.50838088057935" lon="9.042618675157428">
<ele>206.8</ele>
<time>2024-05-10T14:20:45Z</time>
</trkpt>
<trkpt lat="49.50836176984012" lon="9.042630158364773">
<ele>206.4</ele>
<time>2024-05-10T14:20:46Z</time>
</trkpt>
<trkpt lat="49.50834651477635" lon="9.042639713734388">
<ele>206</ele>
<time>2024-05-10T14:20:47Z</time>
</trkpt>
<trkpt lat="49.50833125971258" lon="9.042650191113353">
<ele>205.8</ele>
<time>2024-05-10T14:20:48Z</time>
</trkpt>
<trkpt lat="49.50831977650523" lon="9.042659746482968">
<ele>205.4</ele>
<time>2024-05-10T14:20:49Z</time>
</trkpt>
<trkpt lat="49.50830837711692" lon="9.042670223861933">
<ele>205.2</ele>
<time>2024-05-10T14:20:50Z</time>
</trkpt>
<trkpt lat="49.508293122053146" lon="9.042676845565438">
<ele>204.8</ele>
<time>2024-05-10T14:20:51Z</time>
</trkpt>
<trkpt lat="49.508274011313915" lon="9.042690256610513">
<ele>204.4</ele>
<time>2024-05-10T14:20:52Z</time>
</trkpt>
<trkpt lat="49.50825498439371" lon="9.042710289359093">
<ele>204</ele>
<time>2024-05-10T14:20:53Z</time>
</trkpt>
<trkpt lat="49.508235873654485" lon="9.04273509979248">
<ele>203.6</ele>
<time>2024-05-10T14:20:54Z</time>
</trkpt>
<trkpt lat="49.5082092192024" lon="9.042748427018523">
<ele>203.4</ele>
<time>2024-05-10T14:20:55Z</time>
</trkpt>
<trkpt lat="49.50819010846317" lon="9.042751276865602">
<ele>203.2</ele>
<time>2024-05-10T14:20:56Z</time>
</trkpt>
<trkpt lat="49.50816722586751" lon="9.042751276865602">
<ele>203</ele>
<time>2024-05-10T14:20:57Z</time>
</trkpt>
<trkpt lat="49.50814811512828" lon="9.042755048722029">
<ele>202.8</ele>
<time>2024-05-10T14:20:58Z</time>
</trkpt>
<trkpt lat="49.50812523253262" lon="9.042759826406837">
<ele>202.6</ele>
<time>2024-05-10T14:20:59Z</time>
</trkpt>
<trkpt lat="49.50810620561242" lon="9.042756976559758">
<ele>202.2</ele>
<time>2024-05-10T14:21:00Z</time>
</trkpt>
<trkpt lat="49.50808709487319" lon="9.042756976559758">
<ele>202</ele>
<time>2024-05-10T14:21:01Z</time>
</trkpt>
<trkpt lat="49.50807569548488" lon="9.042753204703333">
<ele>201.8</ele>
<time>2024-05-10T14:21:02Z</time>
</trkpt>
<trkpt lat="49.508056584745646" lon="9.042761754244566">
<ele>201.4</ele>
<time>2024-05-10T14:21:03Z</time>
</trkpt>
<trkpt lat="49.50804132968187" lon="9.042771309614182">
<ele>201.2</ele>
<time>2024-05-10T14:21:04Z</time>
</trkpt>
<trkpt lat="49.508022302761674" lon="9.042786564677954">
<ele>201</ele>
<time>2024-05-10T14:21:05Z</time>
</trkpt>
<trkpt lat="49.5080070476979" lon="9.042797964066269">
<ele>200.8</ele>
<time>2024-05-10T14:21:06Z</time>
</trkpt>
<trkpt lat="49.5079917088151" lon="9.042817996814849">
<ele>200.6</ele>
<time>2024-05-10T14:21:07Z</time>
</trkpt>
<trkpt lat="49.507976453751326" lon="9.042844735085964">
<ele>200.4</ele>
<time>2024-05-10T14:21:08Z</time>
</trkpt>
<trkpt lat="49.50796505436301" lon="9.042869545519352">
<ele>200.2</ele>
<time>2024-05-10T14:21:09Z</time>
</trkpt>
<trkpt lat="49.50794594362378" lon="9.042895277962089">
<ele>200</ele>
<time>2024-05-10T14:21:10Z</time>
</trkpt>
<trkpt lat="49.50793068856001" lon="9.042922016233206">
<ele>199.8</ele>
<time>2024-05-10T14:21:11Z</time>
</trkpt>
<trkpt lat="49.507919289171696" lon="9.042946742847562">
<ele>199.6</ele>
<time>2024-05-10T14:21:12Z</time>
</trkpt>
<trkpt lat="49.50790780596435" lon="9.04297155328095">
<ele>199.4</ele>
<time>2024-05-10T14:21:13Z</time>
</trkpt>
<trkpt lat="49.50789640657604" lon="9.043003069236876">
<ele>199.2</ele>
<time>2024-05-10T14:21:14Z</time>
</trkpt>
<trkpt lat="49.50788492336869" lon="9.043036429211496">
<ele>199</ele>
<time>2024-05-10T14:21:15Z</time>
</trkpt>
<trkpt lat="49.507877295836806" lon="9.04306786134839">
<ele>198.8</ele>
<time>2024-05-10T14:21:16Z</time>
</trkpt>
<trkpt lat="49.50786589644849" lon="9.043105076998472">
<ele>198.4</ele>
<time>2024-05-10T14:21:17Z</time>
</trkpt>
<trkpt lat="49.50785826891661" lon="9.043134665116668">
<ele>197.8</ele>
<time>2024-05-10T14:21:18Z</time>
</trkpt>
<trkpt lat="49.50785441324115" lon="9.043165175244212">
<ele>197.4</ele>
<time>2024-05-10T14:21:19Z</time>
</trkpt>
<trkpt lat="49.50785064138472" lon="9.043196607381104">
<ele>197</ele>
<time>2024-05-10T14:21:20Z</time>
</trkpt>
<trkpt lat="49.50784678570926" lon="9.043216640129684">
<ele>196.4</ele>
<time>2024-05-10T14:21:21Z</time>
</trkpt>
<trkpt lat="49.507839158177376" lon="9.043236672878264">
<ele>196.2</ele>
<time>2024-05-10T14:21:22Z</time>
</trkpt>
<trkpt lat="49.50783538632095" lon="9.043251927942038">
<ele>195.8</ele>
<time>2024-05-10T14:21:23Z</time>
</trkpt>
<trkpt lat="49.50783153064549" lon="9.043259555473924">
<ele>195.6</ele>
<time>2024-05-10T14:21:24Z</time>
</trkpt>
<trkpt lat="49.50783153064549" lon="9.043281516060231">
<ele>195.4</ele>
<time>2024-05-10T14:21:25Z</time>
</trkpt>
<trkpt lat="49.5078239031136" lon="9.04330825433135">
<ele>195.2</ele>
<time>2024-05-10T14:21:26Z</time>
</trkpt>
<trkpt lat="49.507820047438145" lon="9.043321581557391">
<ele>195</ele>
<time>2024-05-10T14:21:27Z</time>
</trkpt>
<trkpt lat="49.507820047438145" lon="9.043330131098628">
<ele>194.8</ele>
<time>2024-05-10T14:21:28Z</time>
</trkpt>
<trkpt lat="49.507820047438145" lon="9.043332058936356">
<ele>194.6</ele>
<time>2024-05-10T14:21:30Z</time>
</trkpt>
<trkpt lat="49.507820047438145" lon="9.0433282032609">
<ele>194.4</ele>
<time>2024-05-10T14:21:31Z</time>
</trkpt>
<trkpt lat="49.50781627558172" lon="9.0433282032609">
<ele>194.2</ele>
<time>2024-05-10T14:21:32Z</time>
</trkpt>
<trkpt lat="49.507820047438145" lon="9.043330131098628">
<ele>194</ele>
<time>2024-05-10T14:21:36Z</time>
</trkpt>
<trkpt lat="49.50781627558172" lon="9.043330131098628">
<ele>194</ele>
<time>2024-05-10T14:21:37Z</time>
</trkpt>
<trkpt lat="49.50781627558172" lon="9.043332058936356">
<ele>193.8</ele>
<time>2024-05-10T14:21:39Z</time>
</trkpt>
<trkpt lat="49.50781627558172" lon="9.043330131098628">
<ele>193.8</ele>
<time>2024-05-10T14:21:41Z</time>
</trkpt>
<trkpt lat="49.50781627558172" lon="9.043332058936356">
<ele>193.8</ele>
<time>2024-05-10T14:21:44Z</time>
</trkpt>
<trkpt lat="49.50781627558172" lon="9.043332980945706">
<ele>193.6</ele>
<time>2024-05-10T14:21:49Z</time>
</trkpt>
<trkpt lat="49.50781627558172" lon="9.043332058936356">
<ele>193.6</ele>
<time>2024-05-10T14:21:50Z</time>
</trkpt>
<trkpt lat="49.50781241990626" lon="9.043332058936356">
<ele>193.6</ele>
<time>2024-05-10T14:21:51Z</time>
</trkpt>
<trkpt lat="49.50781241990626" lon="9.043332980945706">
<ele>193.6</ele>
<time>2024-05-10T14:21:52Z</time>
</trkpt>
<trkpt lat="49.50780864804983" lon="9.043332980945706">
<ele>193.6</ele>
<time>2024-05-10T14:22:04Z</time>
</trkpt>
<trkpt lat="49.50781241990626" lon="9.043332980945706">
<ele>193.6</ele>
<time>2024-05-10T14:22:10Z</time>
</trkpt>
<trkpt lat="49.50781241990626" lon="9.043334908783436">
<ele>193.6</ele>
<time>2024-05-10T14:22:11Z</time>
</trkpt>
<trkpt lat="49.50781241990626" lon="9.043336836621163">
<ele>193.8</ele>
<time>2024-05-10T14:22:15Z</time>
</trkpt>
<trkpt lat="49.50781241990626" lon="9.043338764458897">
<ele>193.6</ele>
<time>2024-05-10T14:22:18Z</time>
</trkpt>
<trkpt lat="49.50781241990626" lon="9.0433453861624">
<ele>193.6</ele>
<time>2024-05-10T14:22:23Z</time>
</trkpt>
<trkpt lat="49.50781627558172" lon="9.043350163847208">
<ele>193.6</ele>
<time>2024-05-10T14:22:24Z</time>
</trkpt>
<trkpt lat="49.50781627558172" lon="9.043356869369743">
<ele>193.6</ele>
<time>2024-05-10T14:22:25Z</time>
</trkpt>
<trkpt lat="49.50781627558172" lon="9.04336349107325">
<ele>193.6</ele>
<time>2024-05-10T14:22:26Z</time>
</trkpt>
<trkpt lat="49.50781627558172" lon="9.043370196595788">
<ele>193.6</ele>
<time>2024-05-10T14:22:27Z</time>
</trkpt>
<trkpt lat="49.507820047438145" lon="9.043374974280596">
<ele>193.6</ele>
<time>2024-05-10T14:22:28Z</time>
</trkpt>
<trkpt lat="49.507820047438145" lon="9.043377824127674">
<ele>193.6</ele>
<time>2024-05-10T14:22:29Z</time>
</trkpt>
<trkpt lat="49.507820047438145" lon="9.043379751965404">
<ele>193.6</ele>
<time>2024-05-10T14:22:30Z</time>
</trkpt>
<trkpt lat="49.50781241990626" lon="9.043379751965404">
<ele>193.6</ele>
<time>2024-05-10T14:22:31Z</time>
</trkpt>
<trkpt lat="49.50780864804983" lon="9.043379751965404">
<ele>193.6</ele>
<time>2024-05-10T14:22:32Z</time>
</trkpt>
<trkpt lat="49.50780864804983" lon="9.043376902118323">
<ele>193.6</ele>
<time>2024-05-10T14:22:33Z</time>
</trkpt>
<trkpt lat="49.50780864804983" lon="9.043377824127674">
<ele>193.6</ele>
<time>2024-05-10T14:22:34Z</time>
</trkpt>
<trkpt lat="49.50780864804983" lon="9.043376902118323">
<ele>193.8</ele>
<time>2024-05-10T14:22:36Z</time>
</trkpt>
<trkpt lat="49.50780479237437" lon="9.043376902118323">
<ele>193.8</ele>
<time>2024-05-10T14:22:37Z</time>
</trkpt>
<trkpt lat="49.50780479237437" lon="9.043377824127674">
<ele>193.8</ele>
<time>2024-05-10T14:22:38Z</time>
</trkpt>
<trkpt lat="49.50780479237437" lon="9.043379751965404">
<ele>193.8</ele>
<time>2024-05-10T14:22:40Z</time>
</trkpt>
<trkpt lat="49.50780479237437" lon="9.043381679803131">
<ele>193.8</ele>
<time>2024-05-10T14:22:42Z</time>
</trkpt>
<trkpt lat="49.50780479237437" lon="9.04338352382183">
<ele>193.8</ele>
<time>2024-05-10T14:22:44Z</time>
</trkpt>
<trkpt lat="49.50780479237437" lon="9.04338645748794">
<ele>193.8</ele>
<time>2024-05-10T14:22:48Z</time>
</trkpt>
<trkpt lat="49.507801020517945" lon="9.04338645748794">
<ele>193.6</ele>
<time>2024-05-10T14:22:49Z</time>
</trkpt>
<trkpt lat="49.507801020517945" lon="9.04338830150664">
<ele>193.6</ele>
<time>2024-05-10T14:22:50Z</time>
</trkpt>
<trkpt lat="49.507797164842486" lon="9.043390229344368">
<ele>193.6</ele>
<time>2024-05-10T14:22:51Z</time>
</trkpt>
<trkpt lat="49.50777813792229" lon="9.043419817462564">
<ele>193.6</ele>
<time>2024-05-10T14:22:52Z</time>
</trkpt>
<trkpt lat="49.507759027183056" lon="9.043450327590108">
<ele>193.4</ele>
<time>2024-05-10T14:22:53Z</time>
</trkpt>
<trkpt lat="49.50774000026286" lon="9.043476982042192">
<ele>193.4</ele>
<time>2024-05-10T14:22:54Z</time>
</trkpt>
<trkpt lat="49.5077171176672" lon="9.043508497998118">
<ele>193.2</ele>
<time>2024-05-10T14:22:55Z</time>
</trkpt>
<trkpt lat="49.507686607539654" lon="9.043537080287932">
<ele>193.2</ele>
<time>2024-05-10T14:22:56Z</time>
</trkpt>
<trkpt lat="49.50765609741211" lon="9.04356189072132">
<ele>193.2</ele>
<time>2024-05-10T14:22:57Z</time>
</trkpt>
<trkpt lat="49.50762550346553" lon="9.043591478839517">
<ele>193.2</ele>
<time>2024-05-10T14:22:58Z</time>
</trkpt>
<trkpt lat="49.50759499333799" lon="9.043611511588097">
<ele>193.2</ele>
<time>2024-05-10T14:22:59Z</time>
</trkpt>
<trkpt lat="49.50756071135402" lon="9.04362483881414">
<ele>193</ele>
<time>2024-05-10T14:23:00Z</time>
</trkpt>
<trkpt lat="49.50752257369459" lon="9.043636322021484">
<ele>193</ele>
<time>2024-05-10T14:23:01Z</time>
</trkpt>
<trkpt lat="49.50748820789158" lon="9.04364487156272">
<ele>193</ele>
<time>2024-05-10T14:23:02Z</time>
</trkpt>
<trkpt lat="49.50745384208858" lon="9.04364487156272">
<ele>192.8</ele>
<time>2024-05-10T14:23:03Z</time>
</trkpt>
<trkpt lat="49.50742333196104" lon="9.043640093877912">
<ele>192.8</ele>
<time>2024-05-10T14:23:04Z</time>
</trkpt>
<trkpt lat="49.507385194301605" lon="9.043628610670568">
<ele>192.8</ele>
<time>2024-05-10T14:23:05Z</time>
</trkpt>
<trkpt lat="49.507350912317634" lon="9.043611511588097">
<ele>192.8</ele>
<time>2024-05-10T14:23:06Z</time>
</trkpt>
<trkpt lat="49.50732040219009" lon="9.04358477331698">
<ele>192.8</ele>
<time>2024-05-10T14:23:07Z</time>
</trkpt>
<trkpt lat="49.50729366391897" lon="9.043556191027164">
<ele>192.8</ele>
<time>2024-05-10T14:23:08Z</time>
</trkpt>
<trkpt lat="49.507266925647855" lon="9.04352467507124">
<ele>192.8</ele>
<time>2024-05-10T14:23:09Z</time>
</trkpt>
<trkpt lat="49.507247898727655" lon="9.043495170772076">
<ele>192.6</ele>
<time>2024-05-10T14:23:10Z</time>
</trkpt>
<trkpt lat="49.507228787988424" lon="9.043464660644531">
<ele>192.6</ele>
<time>2024-05-10T14:23:11Z</time>
</trkpt>
<trkpt lat="49.50721738860011" lon="9.043435072526336">
<ele>192.8</ele>
<time>2024-05-10T14:23:12Z</time>
</trkpt>
<trkpt lat="49.50720213353634" lon="9.04340355657041">
<ele>193</ele>
<time>2024-05-10T14:23:13Z</time>
</trkpt>
<trkpt lat="49.50718302279711" lon="9.043373046442866">
<ele>193.2</ele>
<time>2024-05-10T14:23:14Z</time>
</trkpt>
<trkpt lat="49.50715636834502" lon="9.043350163847208">
<ele>193.2</ele>
<time>2024-05-10T14:23:15Z</time>
</trkpt>
<trkpt lat="49.50713340193033" lon="9.043323509395124">
<ele>193.2</ele>
<time>2024-05-10T14:23:16Z</time>
</trkpt>
<trkpt lat="49.507110519334674" lon="9.04330532066524">
<ele>193.2</ele>
<time>2024-05-10T14:23:17Z</time>
</trkpt>
<trkpt lat="49.50708000920713" lon="9.043279588222504">
<ele>193.2</ele>
<time>2024-05-10T14:23:18Z</time>
</trkpt>
<trkpt lat="49.50704572722316" lon="9.043258633464577">
<ele>193</ele>
<time>2024-05-10T14:23:19Z</time>
</trkpt>
<trkpt lat="49.50701521709561" lon="9.043239522725344">
<ele>193</ele>
<time>2024-05-10T14:23:20Z</time>
</trkpt>
<trkpt lat="49.50698470696807" lon="9.043219489976764">
<ele>193</ele>
<time>2024-05-10T14:23:21Z</time>
</trkpt>
<trkpt lat="49.50695411302149" lon="9.043201385065911">
<ele>193.2</ele>
<time>2024-05-10T14:23:22Z</time>
</trkpt>
<trkpt lat="49.50692360289395" lon="9.043185207992792">
<ele>193.2</ele>
<time>2024-05-10T14:23:23Z</time>
</trkpt>
<trkpt lat="49.5068930927664" lon="9.04317188076675">
<ele>193.4</ele>
<time>2024-05-10T14:23:24Z</time>
</trkpt>
<trkpt lat="49.50686643831432" lon="9.043158469721677">
<ele>193.4</ele>
<time>2024-05-10T14:23:25Z</time>
</trkpt>
<trkpt lat="49.506835928186774" lon="9.043147070333362">
<ele>193.6</ele>
<time>2024-05-10T14:23:26Z</time>
</trkpt>
<trkpt lat="49.50680918991566" lon="9.043134665116668">
<ele>193.6</ele>
<time>2024-05-10T14:23:27Z</time>
</trkpt>
<trkpt lat="49.50678245164454" lon="9.043125109747052">
<ele>193.8</ele>
<time>2024-05-10T14:23:28Z</time>
</trkpt>
<trkpt lat="49.50675956904888" lon="9.043118404224517">
<ele>193.8</ele>
<time>2024-05-10T14:23:29Z</time>
</trkpt>
<trkpt lat="49.50674431398511" lon="9.04311178252101">
<ele>194</ele>
<time>2024-05-10T14:23:30Z</time>
</trkpt>
<trkpt lat="49.50672528706491" lon="9.043101305142043">
<ele>194</ele>
<time>2024-05-10T14:23:31Z</time>
</trkpt>
<trkpt lat="49.506713803857565" lon="9.043098371475937">
<ele>194</ele>
<time>2024-05-10T14:23:32Z</time>
</trkpt>
<trkpt lat="49.50669854879379" lon="9.04309174977243">
<ele>194.2</ele>
<time>2024-05-10T14:23:33Z</time>
</trkpt>
<trkpt lat="49.50667952187359" lon="9.043086972087622">
<ele>194.4</ele>
<time>2024-05-10T14:23:34Z</time>
</trkpt>
<trkpt lat="49.50666426680982" lon="9.043085044249892">
<ele>194.4</ele>
<time>2024-05-10T14:23:35Z</time>
</trkpt>
<trkpt lat="49.50664515607059" lon="9.043086972087622">
<ele>194.6</ele>
<time>2024-05-10T14:23:36Z</time>
</trkpt>
<trkpt lat="49.50662612915039" lon="9.043086972087622">
<ele>194.6</ele>
<time>2024-05-10T14:23:37Z</time>
</trkpt>
<trkpt lat="49.5066031627357" lon="9.043081272393463">
<ele>194.8</ele>
<time>2024-05-10T14:23:38Z</time>
</trkpt>
<trkpt lat="49.506576508283615" lon="9.04307171702385">
<ele>195</ele>
<time>2024-05-10T14:23:39Z</time>
</trkpt>
<trkpt lat="49.5065497700125" lon="9.043060233816504">
<ele>195</ele>
<time>2024-05-10T14:23:40Z</time>
</trkpt>
<trkpt lat="49.50652311556041" lon="9.043043134734036">
<ele>195.2</ele>
<time>2024-05-10T14:23:41Z</time>
</trkpt>
<trkpt lat="49.506496377289295" lon="9.043024946004152">
<ele>195.2</ele>
<time>2024-05-10T14:23:42Z</time>
</trkpt>
<trkpt lat="49.50646586716175" lon="9.043006841093302">
<ele>195.2</ele>
<time>2024-05-10T14:23:43Z</time>
</trkpt>
<trkpt lat="49.506435357034206" lon="9.042984880506992">
<ele>195.4</ele>
<time>2024-05-10T14:23:44Z</time>
</trkpt>
<trkpt lat="49.50640484690666" lon="9.042966775596142">
<ele>195.4</ele>
<time>2024-05-10T14:23:45Z</time>
</trkpt>
<trkpt lat="49.50636670924723" lon="9.042944898828864">
<ele>195.4</ele>
<time>2024-05-10T14:23:46Z</time>
</trkpt>
<trkpt lat="49.5063285715878" lon="9.042922016233206">
<ele>195.4</ele>
<time>2024-05-10T14:23:47Z</time>
</trkpt>
<trkpt lat="49.50629043392837" lon="9.042900055646896">
<ele>195.4</ele>
<time>2024-05-10T14:23:48Z</time>
</trkpt>
<trkpt lat="49.50624844059348" lon="9.042878095060589">
<ele>195.4</ele>
<time>2024-05-10T14:23:49Z</time>
</trkpt>
<trkpt lat="49.50620267540216" lon="9.0428514406085">
<ele>195.4</ele>
<time>2024-05-10T14:23:50Z</time>
</trkpt>
<trkpt lat="49.50615691021085" lon="9.042828558012843">
<ele>195.2</ele>
<time>2024-05-10T14:23:51Z</time>
</trkpt>
<trkpt lat="49.50611491687596" lon="9.042808525264263">
<ele>195.2</ele>
<time>2024-05-10T14:23:52Z</time>
</trkpt>
<trkpt lat="49.50606529600918" lon="9.042788492515683">
<ele>195.2</ele>
<time>2024-05-10T14:23:53Z</time>
</trkpt>
<trkpt lat="49.506019530817866" lon="9.0427703037858">
<ele>195.2</ele>
<time>2024-05-10T14:23:54Z</time>
</trkpt>
<trkpt lat="49.50596999377012" lon="9.042748427018523">
<ele>195.2</ele>
<time>2024-05-10T14:23:55Z</time>
</trkpt>
<trkpt lat="49.50591651722789" lon="9.042730322107673">
<ele>195.2</ele>
<time>2024-05-10T14:23:56Z</time>
</trkpt>
<trkpt lat="49.505863124504685" lon="9.042713139206173">
<ele>195.2</ele>
<time>2024-05-10T14:23:57Z</time>
</trkpt>
<trkpt lat="49.50580973178148" lon="9.0426978841424">
<ele>195.2</ele>
<time>2024-05-10T14:23:58Z</time>
</trkpt>
<trkpt lat="49.50575248338282" lon="9.042683551087976">
<ele>195</ele>
<time>2024-05-10T14:23:59Z</time>
</trkpt>
<trkpt lat="49.50569909065962" lon="9.042671145871282">
<ele>195</ele>
<time>2024-05-10T14:24:00Z</time>
</trkpt>
<trkpt lat="49.505645697936416" lon="9.042661590501666">
<ele>194.8</ele>
<time>2024-05-10T14:24:01Z</time>
</trkpt>
<trkpt lat="49.505588449537754" lon="9.042650191113353">
<ele>194.6</ele>
<time>2024-05-10T14:24:02Z</time>
</trkpt>
<trkpt lat="49.50553505681455" lon="9.042639713734388">
<ele>194.6</ele>
<time>2024-05-10T14:24:03Z</time>
</trkpt>
<trkpt lat="49.50548166409135" lon="9.042632086202502">
<ele>194.6</ele>
<time>2024-05-10T14:24:04Z</time>
</trkpt>
<trkpt lat="49.505428271368146" lon="9.042625380679963">
<ele>194.6</ele>
<time>2024-05-10T14:24:05Z</time>
</trkpt>
<trkpt lat="49.50537487864494" lon="9.042619680985808">
<ele>194.6</ele>
<time>2024-05-10T14:24:06Z</time>
</trkpt>
<trkpt lat="49.50532525777817" lon="9.04261683113873">
<ele>194.6</ele>
<time>2024-05-10T14:24:07Z</time>
</trkpt>
<trkpt lat="49.50527949258685" lon="9.042614903301">
<ele>194.6</ele>
<time>2024-05-10T14:24:08Z</time>
</trkpt>
<trkpt lat="49.50522987172008" lon="9.042610125616193">
<ele>194.6</ele>
<time>2024-05-10T14:24:09Z</time>
</trkpt>
<trkpt lat="49.50518033467233" lon="9.042606353759766">
<ele>194.8</ele>
<time>2024-05-10T14:24:10Z</time>
</trkpt>
<trkpt lat="49.50512694194913" lon="9.042603420093656">
<ele>194.8</ele>
<time>2024-05-10T14:24:11Z</time>
</trkpt>
<trkpt lat="49.505077321082354" lon="9.042605347931383">
<ele>194.6</ele>
<time>2024-05-10T14:24:12Z</time>
</trkpt>
<trkpt lat="49.50502392835915" lon="9.042599648237228">
<ele>194.6</ele>
<time>2024-05-10T14:24:13Z</time>
</trkpt>
<trkpt lat="49.50497053563595" lon="9.042590092867613">
<ele>194.6</ele>
<time>2024-05-10T14:24:14Z</time>
</trkpt>
<trkpt lat="49.50492091476917" lon="9.042588165029883">
<ele>194.6</ele>
<time>2024-05-10T14:24:15Z</time>
</trkpt>
<trkpt lat="49.50486366637051" lon="9.042583387345076">
<ele>194.6</ele>
<time>2024-05-10T14:24:16Z</time>
</trkpt>
<trkpt lat="49.50481027364731" lon="9.042579615488648">
<ele>194.4</ele>
<time>2024-05-10T14:24:17Z</time>
</trkpt>
<trkpt lat="49.504756880924106" lon="9.042579615488648">
<ele>194.4</ele>
<time>2024-05-10T14:24:18Z</time>
</trkpt>
<trkpt lat="49.5047034882009" lon="9.042581543326378">
<ele>194.6</ele>
<time>2024-05-10T14:24:19Z</time>
</trkpt>
<trkpt lat="49.50465386733413" lon="9.042583387345076">
<ele>194.8</ele>
<time>2024-05-10T14:24:20Z</time>
</trkpt>
<trkpt lat="49.504604330286384" lon="9.042585315182803">
<ele>194.8</ele>
<time>2024-05-10T14:24:21Z</time>
</trkpt>
<trkpt lat="49.50455085374415" lon="9.042588165029883">
<ele>194.8</ele>
<time>2024-05-10T14:24:22Z</time>
</trkpt>
<trkpt lat="49.50449368916452" lon="9.042586321011186">
<ele>194.8</ele>
<time>2024-05-10T14:24:23Z</time>
</trkpt>
<trkpt lat="49.50444029644132" lon="9.042592942714691">
<ele>194.8</ele>
<time>2024-05-10T14:24:24Z</time>
</trkpt>
<trkpt lat="49.50438681989908" lon="9.042605347931383">
<ele>194.8</ele>
<time>2024-05-10T14:24:25Z</time>
</trkpt>
<trkpt lat="49.50433342717588" lon="9.04261683113873">
<ele>194.6</ele>
<time>2024-05-10T14:24:26Z</time>
</trkpt>
<trkpt lat="49.50428003445268" lon="9.042632086202502">
<ele>194.6</ele>
<time>2024-05-10T14:24:27Z</time>
</trkpt>
<trkpt lat="49.504226641729474" lon="9.042648263275623">
<ele>194.6</ele>
<time>2024-05-10T14:24:28Z</time>
</trkpt>
<trkpt lat="49.50418087653816" lon="9.042663518339396">
<ele>194.6</ele>
<time>2024-05-10T14:24:29Z</time>
</trkpt>
<trkpt lat="49.50413125567138" lon="9.042679779231548">
<ele>194.8</ele>
<time>2024-05-10T14:24:30Z</time>
</trkpt>
<trkpt lat="49.50408171862364" lon="9.042696878314018">
<ele>194.8</ele>
<time>2024-05-10T14:24:31Z</time>
</trkpt>
<trkpt lat="49.50402824208141" lon="9.04271791689098">
<ele>194.8</ele>
<time>2024-05-10T14:24:32Z</time>
</trkpt>
<trkpt lat="49.50397870503366" lon="9.042741721495986">
<ele>194.8</ele>
<time>2024-05-10T14:24:33Z</time>
</trkpt>
<trkpt lat="49.50392908416688" lon="9.042775081470609">
<ele>194.8</ele>
<time>2024-05-10T14:24:34Z</time>
</trkpt>
<trkpt lat="49.50387954711914" lon="9.04281036928296">
<ele>194.8</ele>
<time>2024-05-10T14:24:35Z</time>
</trkpt>
<trkpt lat="49.503829926252365" lon="9.042842807248237">
<ele>194.8</ele>
<time>2024-05-10T14:24:36Z</time>
</trkpt>
<trkpt lat="49.50378030538559" lon="9.042875245213509">
<ele>194.8</ele>
<time>2024-05-10T14:24:37Z</time>
</trkpt>
<trkpt lat="49.503730768337846" lon="9.042904833331704">
<ele>194.6</ele>
<time>2024-05-10T14:24:38Z</time>
</trkpt>
<trkpt lat="49.50367729179561" lon="9.04293341562152">
<ele>194.6</ele>
<time>2024-05-10T14:24:39Z</time>
</trkpt>
<trkpt lat="49.50362389907241" lon="9.042966775596142">
<ele>194.4</ele>
<time>2024-05-10T14:24:40Z</time>
</trkpt>
<trkpt lat="49.503574362024665" lon="9.043002063408494">
<ele>194.2</ele>
<time>2024-05-10T14:24:41Z</time>
</trkpt>
<trkpt lat="49.50352474115789" lon="9.043036429211496">
<ele>194.2</ele>
<time>2024-05-10T14:24:42Z</time>
</trkpt>
<trkpt lat="49.503475120291114" lon="9.04307171702385">
<ele>194</ele>
<time>2024-05-10T14:24:43Z</time>
</trkpt>
<trkpt lat="49.50342558324337" lon="9.043105076998472">
<ele>193.8</ele>
<time>2024-05-10T14:24:44Z</time>
</trkpt>
<trkpt lat="49.503375962376595" lon="9.043140364810824">
<ele>193.8</ele>
<time>2024-05-10T14:24:45Z</time>
</trkpt>
<trkpt lat="49.50332256965339" lon="9.04317188076675">
<ele>193.8</ele>
<time>2024-05-10T14:24:46Z</time>
</trkpt>
<trkpt lat="49.503272948786616" lon="9.043203312903644">
<ele>193.6</ele>
<time>2024-05-10T14:24:47Z</time>
</trkpt>
<trkpt lat="49.50322341173887" lon="9.043234745040536">
<ele>193.6</ele>
<time>2024-05-10T14:24:48Z</time>
</trkpt>
<trkpt lat="49.50316993519664" lon="9.04326818883419">
<ele>193.8</ele>
<time>2024-05-10T14:24:49Z</time>
</trkpt>
<trkpt lat="49.503116542473435" lon="9.043303476646544">
<ele>193.8</ele>
<time>2024-05-10T14:24:50Z</time>
</trkpt>
<trkpt lat="49.50306700542569" lon="9.043338764458897">
<ele>193.6</ele>
<time>2024-05-10T14:24:51Z</time>
</trkpt>
<trkpt lat="49.50301738455891" lon="9.043371118605137">
<ele>193.6</ele>
<time>2024-05-10T14:24:52Z</time>
</trkpt>
<trkpt lat="49.50296776369214" lon="9.04340355657041">
<ele>193.6</ele>
<time>2024-05-10T14:24:53Z</time>
</trkpt>
<trkpt lat="49.502921998500824" lon="9.043437000364063">
<ele>193.6</ele>
<time>2024-05-10T14:24:54Z</time>
</trkpt>
<trkpt lat="49.50287246145308" lon="9.043468432500958">
<ele>193.4</ele>
<time>2024-05-10T14:24:55Z</time>
</trkpt>
<trkpt lat="49.502822840586305" lon="9.04350372031331">
<ele>193.4</ele>
<time>2024-05-10T14:24:56Z</time>
</trkpt>
<trkpt lat="49.50277321971953" lon="9.043538086116314">
<ele>193.2</ele>
<time>2024-05-10T14:24:57Z</time>
</trkpt>
<trkpt lat="49.502723682671785" lon="9.043571446090937">
<ele>193</ele>
<time>2024-05-10T14:24:58Z</time>
</trkpt>
<trkpt lat="49.50267406180501" lon="9.043608661741018">
<ele>193</ele>
<time>2024-05-10T14:24:59Z</time>
</trkpt>
<trkpt lat="49.50262066908181" lon="9.04364294372499">
<ele>192.8</ele>
<time>2024-05-10T14:25:00Z</time>
</trkpt>
<trkpt lat="49.50257104821503" lon="9.043673453852534">
<ele>192.8</ele>
<time>2024-05-10T14:25:01Z</time>
</trkpt>
<trkpt lat="49.50251765549183" lon="9.04370496980846">
<ele>192.6</ele>
<time>2024-05-10T14:25:02Z</time>
</trkpt>
<trkpt lat="49.502464262768626" lon="9.043736401945353">
<ele>192.6</ele>
<time>2024-05-10T14:25:03Z</time>
</trkpt>
<trkpt lat="49.50241087004542" lon="9.043766912072895">
<ele>192.4</ele>
<time>2024-05-10T14:25:04Z</time>
</trkpt>
<trkpt lat="49.50235747732222" lon="9.043798428028822">
<ele>192.4</ele>
<time>2024-05-10T14:25:05Z</time>
</trkpt>
<trkpt lat="49.50230022892356" lon="9.043827932327986">
<ele>192.4</ele>
<time>2024-05-10T14:25:06Z</time>
</trkpt>
<trkpt lat="49.50224683620036" lon="9.043856598436832">
<ele>192.2</ele>
<time>2024-05-10T14:25:07Z</time>
</trkpt>
<trkpt lat="49.502193443477154" lon="9.04388040304184">
<ele>192.2</ele>
<time>2024-05-10T14:25:08Z</time>
</trkpt>
<trkpt lat="49.502147594466805" lon="9.043903285637498">
<ele>192.2</ele>
<time>2024-05-10T14:25:09Z</time>
</trkpt>
<trkpt lat="49.5020942017436" lon="9.043926168233156">
<ele>192.2</ele>
<time>2024-05-10T14:25:10Z</time>
</trkpt>
<trkpt lat="49.50204466469586" lon="9.043945278972387">
<ele>192</ele>
<time>2024-05-10T14:25:11Z</time>
</trkpt>
<trkpt lat="49.501991271972656" lon="9.04395961202681">
<ele>192</ele>
<time>2024-05-10T14:25:12Z</time>
</trkpt>
<trkpt lat="49.50194165110588" lon="9.043974867090585">
<ele>192</ele>
<time>2024-05-10T14:25:13Z</time>
</trkpt>
<trkpt lat="49.50188825838268" lon="9.043986266478896">
<ele>192</ele>
<time>2024-05-10T14:25:14Z</time>
</trkpt>
<trkpt lat="49.501834865659475" lon="9.04399674385786">
<ele>191.8</ele>
<time>2024-05-10T14:25:15Z</time>
</trkpt>
<trkpt lat="49.5017852447927" lon="9.044003449380398">
<ele>191.8</ele>
<time>2024-05-10T14:25:16Z</time>
</trkpt>
<trkpt lat="49.5017318520695" lon="9.044010154902937">
<ele>191.6</ele>
<time>2024-05-10T14:25:17Z</time>
</trkpt>
<trkpt lat="49.50168223120272" lon="9.044014848768713">
<ele>191.6</ele>
<time>2024-05-10T14:25:18Z</time>
</trkpt>
<trkpt lat="49.50162498280406" lon="9.04401870444417">
<ele>191.6</ele>
<time>2024-05-10T14:25:19Z</time>
</trkpt>
<trkpt lat="49.50157159008086" lon="9.044025409966707">
<ele>191.6</ele>
<time>2024-05-10T14:25:20Z</time>
</trkpt>
<trkpt lat="49.50152205303311" lon="9.044028259813786">
<ele>191.6</ele>
<time>2024-05-10T14:25:21Z</time>
</trkpt>
<trkpt lat="49.50146480463445" lon="9.044032031670213">
<ele>191.6</ele>
<time>2024-05-10T14:25:22Z</time>
</trkpt>
<trkpt lat="49.50141141191125" lon="9.044033037498592">
<ele>191.6</ele>
<time>2024-05-10T14:25:23Z</time>
</trkpt>
<trkpt lat="49.50135801918805" lon="9.04403680935502">
<ele>191.6</ele>
<time>2024-05-10T14:25:24Z</time>
</trkpt>
<trkpt lat="49.501296915113926" lon="9.04403873719275">
<ele>191.6</ele>
<time>2024-05-10T14:25:25Z</time>
</trkpt>
<trkpt lat="49.50124352239072" lon="9.04403873719275">
<ele>191.4</ele>
<time>2024-05-10T14:25:26Z</time>
</trkpt>
<trkpt lat="49.50118635781109" lon="9.044033037498592">
<ele>191.4</ele>
<time>2024-05-10T14:25:27Z</time>
</trkpt>
<trkpt lat="49.50112910941243" lon="9.044023482128978">
<ele>191.2</ele>
<time>2024-05-10T14:25:28Z</time>
</trkpt>
<trkpt lat="49.50107186101377" lon="9.044005377218127">
<ele>191</ele>
<time>2024-05-10T14:25:29Z</time>
</trkpt>
<trkpt lat="49.50101846829057" lon="9.043986266478896">
<ele>191</ele>
<time>2024-05-10T14:25:30Z</time>
</trkpt>
<trkpt lat="49.50096130371094" lon="9.043968161568046">
<ele>190.8</ele>
<time>2024-05-10T14:25:31Z</time>
</trkpt>
<trkpt lat="49.5009078271687" lon="9.043948128819466">
<ele>190.6</ele>
<time>2024-05-10T14:25:32Z</time>
</trkpt>
<trkpt lat="49.5008544344455" lon="9.043923318386078">
<ele>190.4</ele>
<time>2024-05-10T14:25:33Z</time>
</trkpt>
<trkpt lat="49.5008010417223" lon="9.043896663933992">
<ele>190.2</ele>
<time>2024-05-10T14:25:34Z</time>
</trkpt>
<trkpt lat="49.50075142085552" lon="9.043865147978067">
<ele>190.2</ele>
<time>2024-05-10T14:25:35Z</time>
</trkpt>
<trkpt lat="49.50070188380778" lon="9.043833715841174">
<ele>190</ele>
<time>2024-05-10T14:25:36Z</time>
</trkpt>
<trkpt lat="49.50065611861646" lon="9.043798428028822">
<ele>190</ele>
<time>2024-05-10T14:25:37Z</time>
</trkpt>
<trkpt lat="49.50061026960611" lon="9.04376121237874">
<ele>190</ele>
<time>2024-05-10T14:25:38Z</time>
</trkpt>
<trkpt lat="49.500568360090256" lon="9.04372500255704">
<ele>190</ele>
<time>2024-05-10T14:25:39Z</time>
</trkpt>
<trkpt lat="49.500530222430825" lon="9.043686864897609">
<ele>190</ele>
<time>2024-05-10T14:25:40Z</time>
</trkpt>
<trkpt lat="49.500488229095936" lon="9.043648643419148">
<ele>190.2</ele>
<time>2024-05-10T14:25:41Z</time>
</trkpt>
<trkpt lat="49.500450091436505" lon="9.043609583750367">
<ele>190.2</ele>
<time>2024-05-10T14:25:42Z</time>
</trkpt>
<trkpt lat="49.5004157256335" lon="9.043568596243858">
<ele>190.2</ele>
<time>2024-05-10T14:25:43Z</time>
</trkpt>
<trkpt lat="49.50038144364953" lon="9.043528530746698">
<ele>190.2</ele>
<time>2024-05-10T14:25:44Z</time>
</trkpt>
<trkpt lat="49.5003433059901" lon="9.04348460957408">
<ele>190.2</ele>
<time>2024-05-10T14:25:45Z</time>
</trkpt>
<trkpt lat="49.5003089401871" lon="9.04344169422984">
<ele>190.2</ele>
<time>2024-05-10T14:25:46Z</time>
</trkpt>
<trkpt lat="49.500274658203125" lon="9.043395007029176">
<ele>190.4</ele>
<time>2024-05-10T14:25:47Z</time>
</trkpt>
<trkpt lat="49.50024029240012" lon="9.04334639199078">
<ele>190.4</ele>
<time>2024-05-10T14:25:48Z</time>
</trkpt>
<trkpt lat="49.50020592659712" lon="9.043298698961737">
<ele>190.6</ele>
<time>2024-05-10T14:25:49Z</time>
</trkpt>
<trkpt lat="49.50017164461315" lon="9.04324815608561">
<ele>190.8</ele>
<time>2024-05-10T14:25:50Z</time>
</trkpt>
<trkpt lat="49.50013350695371" lon="9.043198535218837">
<ele>190.8</ele>
<time>2024-05-10T14:25:51Z</time>
</trkpt>
<trkpt lat="49.500095285475254" lon="9.04314799234271">
<ele>191</ele>
<time>2024-05-10T14:25:52Z</time>
</trkpt>
<trkpt lat="49.50005337595939" lon="9.043101305142043">
<ele>191</ele>
<time>2024-05-10T14:25:53Z</time>
</trkpt>
<trkpt lat="49.50001138262451" lon="9.043054534122348">
<ele>191</ele>
<time>2024-05-10T14:25:54Z</time>
</trkpt>
<trkpt lat="49.49996947310865" lon="9.043006841093302">
<ele>191</ele>
<time>2024-05-10T14:25:55Z</time>
</trkpt>
<trkpt lat="49.4999236240983" lon="9.042961997911334">
<ele>191</ele>
<time>2024-05-10T14:25:56Z</time>
</trkpt>
<trkpt lat="49.49987408705056" lon="9.042916232720016">
<ele>191</ele>
<time>2024-05-10T14:25:57Z</time>
</trkpt>
<trkpt lat="49.49982446618378" lon="9.042875245213509">
<ele>190.8</ele>
<time>2024-05-10T14:25:58Z</time>
</trkpt>
<trkpt lat="49.49977492913604" lon="9.042838029563429">
<ele>190.8</ele>
<time>2024-05-10T14:25:59Z</time>
</trkpt>
<trkpt lat="49.499717680737376" lon="9.042806597426534">
<ele>190.6</ele>
<time>2024-05-10T14:26:00Z</time>
</trkpt>
<trkpt lat="49.499660432338715" lon="9.04277801513672">
<ele>190.6</ele>
<time>2024-05-10T14:26:01Z</time>
</trkpt>
<trkpt lat="49.499603267759085" lon="9.042755048722029">
<ele>190.4</ele>
<time>2024-05-10T14:26:02Z</time>
</trkpt>
<trkpt lat="49.49954216368496" lon="9.042731244117022">
<ele>190.4</ele>
<time>2024-05-10T14:26:03Z</time>
</trkpt>
<trkpt lat="49.499484999105334" lon="9.042701655998826">
<ele>190.2</ele>
<time>2024-05-10T14:26:04Z</time>
</trkpt>
<trkpt lat="49.49942775070667" lon="9.042664524167776">
<ele>190.2</ele>
<time>2024-05-10T14:26:05Z</time>
</trkpt>
<trkpt lat="49.49937435798347" lon="9.042621608823538">
<ele>190</ele>
<time>2024-05-10T14:26:06Z</time>
</trkpt>
<trkpt lat="49.49932859279215" lon="9.042563438415527">
<ele>190</ele>
<time>2024-05-10T14:26:07Z</time>
</trkpt>
<trkpt lat="49.49927897192538" lon="9.042511889711022">
<ele>190</ele>
<time>2024-05-10T14:26:08Z</time>
</trkpt>
<trkpt lat="49.4992293510586" lon="9.042473752051592">
<ele>189.8</ele>
<time>2024-05-10T14:26:09Z</time>
</trkpt>
<trkpt lat="49.49917981401086" lon="9.042445169761775">
<ele>189.8</ele>
<time>2024-05-10T14:26:10Z</time>
</trkpt>
<trkpt lat="49.499126421287656" lon="9.042423209175467">
<ele>189.8</ele>
<time>2024-05-10T14:26:11Z</time>
</trkpt>
<trkpt lat="49.499069172888994" lon="9.042409881949425">
<ele>189.8</ele>
<time>2024-05-10T14:26:12Z</time>
</trkpt>
<trkpt lat="49.49901578016579" lon="9.042407954111695">
<ele>189.8</ele>
<time>2024-05-10T14:26:13Z</time>
</trkpt>
<trkpt lat="49.498966159299016" lon="9.042409881949425">
<ele>189.8</ele>
<time>2024-05-10T14:26:14Z</time>
</trkpt>
<trkpt lat="49.49891662225127" lon="9.04242035932839">
<ele>189.8</ele>
<time>2024-05-10T14:26:15Z</time>
</trkpt>
<trkpt lat="49.49887077324093" lon="9.042434692382813">
<ele>189.8</ele>
<time>2024-05-10T14:26:16Z</time>
</trkpt>
<trkpt lat="49.49882500804961" lon="9.042451791465282">
<ele>189.8</ele>
<time>2024-05-10T14:26:17Z</time>
</trkpt>
<trkpt lat="49.49877547100186" lon="9.042469896376131">
<ele>189.8</ele>
<time>2024-05-10T14:26:18Z</time>
</trkpt>
<trkpt lat="49.49872970581055" lon="9.042491856962442">
<ele>189.8</ele>
<time>2024-05-10T14:26:19Z</time>
</trkpt>
<trkpt lat="49.4986838568002" lon="9.04251666739583">
<ele>189.8</ele>
<time>2024-05-10T14:26:20Z</time>
</trkpt>
<trkpt lat="49.49864194728434" lon="9.042548099532723">
<ele>189.8</ele>
<time>2024-05-10T14:26:21Z</time>
</trkpt>
<trkpt lat="49.49859995394945" lon="9.0425786934793">
<ele>189.8</ele>
<time>2024-05-10T14:26:22Z</time>
</trkpt>
<trkpt lat="49.498554188758135" lon="9.042610125616193">
<ele>190</ele>
<time>2024-05-10T14:26:23Z</time>
</trkpt>
<trkpt lat="49.49850842356682" lon="9.042639713734388">
<ele>190.2</ele>
<time>2024-05-10T14:26:24Z</time>
</trkpt>
<trkpt lat="49.4984626583755" lon="9.042670223861933">
<ele>190.2</ele>
<time>2024-05-10T14:26:25Z</time>
</trkpt>
<trkpt lat="49.498416893184185" lon="9.042701655998826">
<ele>190.4</ele>
<time>2024-05-10T14:26:26Z</time>
</trkpt>
<trkpt lat="49.49837104417384" lon="9.042736943811178">
<ele>190.6</ele>
<time>2024-05-10T14:26:27Z</time>
</trkpt>
<trkpt lat="49.49832527898252" lon="9.0427703037858">
<ele>190.8</ele>
<time>2024-05-10T14:26:28Z</time>
</trkpt>
<trkpt lat="49.4982795137912" lon="9.042803747579455">
<ele>190.8</ele>
<time>2024-05-10T14:26:29Z</time>
</trkpt>
<trkpt lat="49.49823374859989" lon="9.042835179716349">
<ele>190.8</ele>
<time>2024-05-10T14:26:30Z</time>
</trkpt>
<trkpt lat="49.498191755265" lon="9.042866695672274">
<ele>190.8</ele>
<time>2024-05-10T14:26:31Z</time>
</trkpt>
<trkpt lat="49.49814599007368" lon="9.042901983484626">
<ele>190.6</ele>
<time>2024-05-10T14:26:32Z</time>
</trkpt>
<trkpt lat="49.49810408055782" lon="9.042935343459249">
<ele>190.6</ele>
<time>2024-05-10T14:26:33Z</time>
</trkpt>
<trkpt lat="49.498062087222934" lon="9.04296962544322">
<ele>190.6</ele>
<time>2024-05-10T14:26:34Z</time>
</trkpt>
<trkpt lat="49.49802009388805" lon="9.04300969094038">
<ele>190.6</ele>
<time>2024-05-10T14:26:35Z</time>
</trkpt>
<trkpt lat="49.49797818437219" lon="9.04304782859981">
<ele>190.6</ele>
<time>2024-05-10T14:26:36Z</time>
</trkpt>
<trkpt lat="49.49794004671275" lon="9.0430898219347">
<ele>190.6</ele>
<time>2024-05-10T14:26:37Z</time>
</trkpt>
<trkpt lat="49.49789805337787" lon="9.04312988743186">
<ele>190.8</ele>
<time>2024-05-10T14:26:38Z</time>
</trkpt>
<trkpt lat="49.49785606004298" lon="9.04316802509129">
<ele>190.8</ele>
<time>2024-05-10T14:26:39Z</time>
</trkpt>
<trkpt lat="49.49781415052712" lon="9.04320809058845">
<ele>190.8</ele>
<time>2024-05-10T14:26:40Z</time>
</trkpt>
<trkpt lat="49.49777215719223" lon="9.04325008392334">
<ele>190.8</ele>
<time>2024-05-10T14:26:41Z</time>
</trkpt>
<trkpt lat="49.49773024767637" lon="9.043290065601468">
<ele>190.8</ele>
<time>2024-05-10T14:26:42Z</time>
</trkpt>
<trkpt lat="49.49769202619791" lon="9.043332058936356">
<ele>191</ele>
<time>2024-05-10T14:26:43Z</time>
</trkpt>
<trkpt lat="49.49765388853848" lon="9.043373046442866">
<ele>191</ele>
<time>2024-05-10T14:26:44Z</time>
</trkpt>
<trkpt lat="49.49761575087905" lon="9.043415039777756">
<ele>191</ele>
<time>2024-05-10T14:26:45Z</time>
</trkpt>
<trkpt lat="49.49757761321962" lon="9.043451249599457">
<ele>191</ele>
<time>2024-05-10T14:26:46Z</time>
</trkpt>
<trkpt lat="49.49753947556019" lon="9.043491315096617">
<ele>191</ele>
<time>2024-05-10T14:26:47Z</time>
</trkpt>
<trkpt lat="49.49750133790076" lon="9.043526602908967">
<ele>191.2</ele>
<time>2024-05-10T14:26:48Z</time>
</trkpt>
<trkpt lat="49.49745934456587" lon="9.04356189072132">
<ele>191.2</ele>
<time>2024-05-10T14:26:49Z</time>
</trkpt>
<trkpt lat="49.49741743505001" lon="9.043593406677246">
<ele>191.4</ele>
<time>2024-05-10T14:26:50Z</time>
</trkpt>
<trkpt lat="49.49737929739058" lon="9.04362198896706">
<ele>191.4</ele>
<time>2024-05-10T14:26:51Z</time>
</trkpt>
<trkpt lat="49.49733344838023" lon="9.043649649247527">
<ele>191.6</ele>
<time>2024-05-10T14:26:52Z</time>
</trkpt>
<trkpt lat="49.497291538864374" lon="9.043675381690264">
<ele>191.6</ele>
<time>2024-05-10T14:26:53Z</time>
</trkpt>
<trkpt lat="49.4972419179976" lon="9.043698264285922">
<ele>191.6</ele>
<time>2024-05-10T14:26:54Z</time>
</trkpt>
<trkpt lat="49.49719615280628" lon="9.04372500255704">
<ele>191.6</ele>
<time>2024-05-10T14:26:55Z</time>
</trkpt>
<trkpt lat="49.49714653193951" lon="9.043751657009125">
<ele>191.6</ele>
<time>2024-05-10T14:26:56Z</time>
</trkpt>
<trkpt lat="49.49710076674819" lon="9.043780323117971">
<ele>191.6</ele>
<time>2024-05-10T14:26:57Z</time>
</trkpt>
<trkpt lat="49.497051229700446" lon="9.043807983398438">
<ele>191.6</ele>
<time>2024-05-10T14:26:58Z</time>
</trkpt>
<trkpt lat="49.49700160883367" lon="9.04384033754468">
<ele>191.8</ele>
<time>2024-05-10T14:26:59Z</time>
</trkpt>
<trkpt lat="49.496955843642354" lon="9.043873781338334">
<ele>191.6</ele>
<time>2024-05-10T14:27:00Z</time>
</trkpt>
<trkpt lat="49.49691007845104" lon="9.043909991160035">
<ele>191.6</ele>
<time>2024-05-10T14:27:01Z</time>
</trkpt>
<trkpt lat="49.49686431325972" lon="9.043948128819466">
<ele>191.6</ele>
<time>2024-05-10T14:27:02Z</time>
</trkpt>
<trkpt lat="49.49681846424937" lon="9.043990122154357">
<ele>191.4</ele>
<time>2024-05-10T14:27:03Z</time>
</trkpt>
<trkpt lat="49.496772699058056" lon="9.044034881517293">
<ele>191.4</ele>
<time>2024-05-10T14:27:04Z</time>
</trkpt>
<trkpt lat="49.49672316201031" lon="9.04407972469926">
<ele>191.2</ele>
<time>2024-05-10T14:27:05Z</time>
</trkpt>
<trkpt lat="49.496677396818995" lon="9.044124567881228">
<ele>191.2</ele>
<time>2024-05-10T14:27:06Z</time>
</trkpt>
<trkpt lat="49.49663154780865" lon="9.04417796060443">
<ele>191</ele>
<time>2024-05-10T14:27:07Z</time>
</trkpt>
<trkpt lat="49.49659341014922" lon="9.044230431318285">
<ele>191</ele>
<time>2024-05-10T14:27:08Z</time>
</trkpt>
<trkpt lat="49.4965476449579" lon="9.044286673888564">
<ele>190.8</ele>
<time>2024-05-10T14:27:09Z</time>
</trkpt>
<trkpt lat="49.49649810791016" lon="9.044340066611769">
<ele>190.6</ele>
<time>2024-05-10T14:27:10Z</time>
</trkpt>
<trkpt lat="49.49645225889981" lon="9.044391615316272">
<ele>190.6</ele>
<time>2024-05-10T14:27:11Z</time>
</trkpt>
<trkpt lat="49.49640649370849" lon="9.044441152364016">
<ele>190.4</ele>
<time>2024-05-10T14:27:12Z</time>
</trkpt>
<trkpt lat="49.496360728517175" lon="9.044489851221442">
<ele>190.2</ele>
<time>2024-05-10T14:27:13Z</time>
</trkpt>
<trkpt lat="49.49631496332586" lon="9.044547015801072">
<ele>190.2</ele>
<time>2024-05-10T14:27:14Z</time>
</trkpt>
<trkpt lat="49.49627682566643" lon="9.044606192037463">
<ele>190</ele>
<time>2024-05-10T14:27:15Z</time>
</trkpt>
<trkpt lat="49.49623106047511" lon="9.04467006213963">
<ele>189.6</ele>
<time>2024-05-10T14:27:16Z</time>
</trkpt>
<trkpt lat="49.49618906714022" lon="9.044733010232449">
<ele>189.4</ele>
<time>2024-05-10T14:27:17Z</time>
</trkpt>
<trkpt lat="49.496143301948905" lon="9.044796880334616">
<ele>189</ele>
<time>2024-05-10T14:27:18Z</time>
</trkpt>
<trkpt lat="49.49609753675759" lon="9.044861756265163">
<ele>188.8</ele>
<time>2024-05-10T14:27:19Z</time>
</trkpt>
<trkpt lat="49.4960555434227" lon="9.044930404052138">
<ele>188.6</ele>
<time>2024-05-10T14:27:20Z</time>
</trkpt>
<trkpt lat="49.49601740576327" lon="9.045002907514572">
<ele>188.4</ele>
<time>2024-05-10T14:27:21Z</time>
</trkpt>
<trkpt lat="49.49597541242838" lon="9.045078260824084">
<ele>188.2</ele>
<time>2024-05-10T14:27:22Z</time>
</trkpt>
<trkpt lat="49.49593727476895" lon="9.045149758458138">
<ele>187.8</ele>
<time>2024-05-10T14:27:23Z</time>
</trkpt>
<trkpt lat="49.49589536525309" lon="9.04522125609219">
<ele>187.6</ele>
<time>2024-05-10T14:27:24Z</time>
</trkpt>
<trkpt lat="49.4958533719182" lon="9.045289987698196">
<ele>187.2</ele>
<time>2024-05-10T14:27:25Z</time>
</trkpt>
<trkpt lat="49.495807606726885" lon="9.045350002124906">
<ele>186.8</ele>
<time>2024-05-10T14:27:26Z</time>
</trkpt>
<trkpt lat="49.49575798586011" lon="9.045398700982332">
<ele>186.4</ele>
<time>2024-05-10T14:27:27Z</time>
</trkpt>
<trkpt lat="49.49571222066879" lon="9.045443460345268">
<ele>186</ele>
<time>2024-05-10T14:27:28Z</time>
</trkpt>
<trkpt lat="49.49566645547747" lon="9.045479753986">
<ele>185.6</ele>
<time>2024-05-10T14:27:29Z</time>
</trkpt>
<trkpt lat="49.49562069028616" lon="9.045511186122894">
<ele>185.2</ele>
<time>2024-05-10T14:27:30Z</time>
</trkpt>
<trkpt lat="49.495571069419384" lon="9.045546473935246">
<ele>185</ele>
<time>2024-05-10T14:27:31Z</time>
</trkpt>
<trkpt lat="49.49552530422807" lon="9.045577989891171">
<ele>184.6</ele>
<time>2024-05-10T14:27:32Z</time>
</trkpt>
<trkpt lat="49.49548339471221" lon="9.045603722333908">
<ele>184.4</ele>
<time>2024-05-10T14:27:33Z</time>
</trkpt>
<trkpt lat="49.49544140137732" lon="9.045626604929566">
<ele>184</ele>
<time>2024-05-10T14:27:34Z</time>
</trkpt>
<trkpt lat="49.49540326371789" lon="9.045644709840415">
<ele>183.8</ele>
<time>2024-05-10T14:27:35Z</time>
</trkpt>
<trkpt lat="49.495372753590345" lon="9.045659964904187">
<ele>183.8</ele>
<time>2024-05-10T14:27:36Z</time>
</trkpt>
<trkpt lat="49.49534601531923" lon="9.045673292130232">
<ele>183.6</ele>
<time>2024-05-10T14:27:37Z</time>
</trkpt>
<trkpt lat="49.49531173333526" lon="9.045686703175306">
<ele>183.4</ele>
<time>2024-05-10T14:27:38Z</time>
</trkpt>
<trkpt lat="49.49527736753225" lon="9.045702880248427">
<ele>183.2</ele>
<time>2024-05-10T14:27:39Z</time>
</trkpt>
<trkpt lat="49.49524300172925" lon="9.0457181353122">
<ele>183</ele>
<time>2024-05-10T14:27:40Z</time>
</trkpt>
<trkpt lat="49.49520871974528" lon="9.045731462538242">
<ele>182.8</ele>
<time>2024-05-10T14:27:41Z</time>
</trkpt>
<trkpt lat="49.495174353942275" lon="9.045744873583317">
<ele>182.6</ele>
<time>2024-05-10T14:27:42Z</time>
</trkpt>
<trkpt lat="49.495136216282845" lon="9.04575535096228">
<ele>182.6</ele>
<time>2024-05-10T14:27:43Z</time>
</trkpt>
<trkpt lat="49.495094222947955" lon="9.045760128647087">
<ele>182.4</ele>
<time>2024-05-10T14:27:44Z</time>
</trkpt>
<trkpt lat="49.49504845775664" lon="9.045760128647087">
<ele>182.2</ele>
<time>2024-05-10T14:27:45Z</time>
</trkpt>
<trkpt lat="49.49500654824078" lon="9.045769684016705">
<ele>182</ele>
<time>2024-05-10T14:27:46Z</time>
</trkpt>
<trkpt lat="49.49497603811323" lon="9.045791560783982">
<ele>181.8</ele>
<time>2024-05-10T14:27:47Z</time>
</trkpt>
<trkpt lat="49.49494167231023" lon="9.045825004577637">
<ele>181.8</ele>
<time>2024-05-10T14:27:48Z</time>
</trkpt>
<trkpt lat="49.494918789714575" lon="9.045867919921877">
<ele>181.6</ele>
<time>2024-05-10T14:27:49Z</time>
</trkpt>
<trkpt lat="49.494899678975344" lon="9.045918462798">
<ele>181.4</ele>
<time>2024-05-10T14:27:50Z</time>
</trkpt>
<trkpt lat="49.49488827958703" lon="9.045969927683473">
<ele>181.4</ele>
<time>2024-05-10T14:27:51Z</time>
</trkpt>
<trkpt lat="49.49489205144346" lon="9.046023320406675">
<ele>181.4</ele>
<time>2024-05-10T14:27:52Z</time>
</trkpt>
<trkpt lat="49.4949035346508" lon="9.04607193544507">
<ele>181.4</ele>
<time>2024-05-10T14:27:53Z</time>
</trkpt>
<trkpt lat="49.49491116218269" lon="9.046114850789309">
<ele>181.4</ele>
<time>2024-05-10T14:27:54Z</time>
</trkpt>
<trkpt lat="49.494918789714575" lon="9.046158771961927">
<ele>181.2</ele>
<time>2024-05-10T14:27:55Z</time>
</trkpt>
<trkpt lat="49.49492641724646" lon="9.046199759468436">
<ele>181.2</ele>
<time>2024-05-10T14:27:56Z</time>
</trkpt>
<trkpt lat="49.49493404477835" lon="9.046244602650404">
<ele>181.2</ele>
<time>2024-05-10T14:27:57Z</time>
</trkpt>
<trkpt lat="49.494937816634774" lon="9.046277962625028">
<ele>181.2</ele>
<time>2024-05-10T14:27:58Z</time>
</trkpt>
<trkpt lat="49.49494167231023" lon="9.046317022293806">
<ele>181.2</ele>
<time>2024-05-10T14:27:59Z</time>
</trkpt>
<trkpt lat="49.49494544416666" lon="9.04635331593454">
<ele>181.4</ele>
<time>2024-05-10T14:28:00Z</time>
</trkpt>
<trkpt lat="49.49494167231023" lon="9.04639145359397">
<ele>181.4</ele>
<time>2024-05-10T14:28:01Z</time>
</trkpt>
<trkpt lat="49.494922561571" lon="9.046464879065752">
<ele>181.6</ele>
<time>2024-05-10T14:28:02Z</time>
</trkpt>
<trkpt lat="49.49491493403912" lon="9.046503016725184">
<ele>181.6</ele>
<time>2024-05-10T14:28:03Z</time>
</trkpt>
<trkpt lat="49.49491493403912" lon="9.046554565429688">
<ele>181.8</ele>
<time>2024-05-10T14:28:04Z</time>
</trkpt>
<trkpt lat="49.49489205144346" lon="9.046600330621004">
<ele>182</ele>
<time>2024-05-10T14:28:05Z</time>
</trkpt>
<trkpt lat="49.4948691688478" lon="9.046634612604976">
<ele>182</ele>
<time>2024-05-10T14:28:06Z</time>
</trkpt>
<trkpt lat="49.49483488686383" lon="9.046658501029016">
<ele>182.2</ele>
<time>2024-05-10T14:28:07Z</time>
</trkpt>
<trkpt lat="49.49480437673628" lon="9.046673756092789">
<ele>182.4</ele>
<time>2024-05-10T14:28:08Z</time>
</trkpt>
<trkpt lat="49.494777638465166" lon="9.046680377796292">
<ele>182.8</ele>
<time>2024-05-10T14:28:09Z</time>
</trkpt>
<trkpt lat="49.49475475586951" lon="9.046683311462402">
<ele>183</ele>
<time>2024-05-10T14:28:10Z</time>
</trkpt>
<trkpt lat="49.494720390066504" lon="9.04668708331883">
<ele>183.4</ele>
<time>2024-05-10T14:28:11Z</time>
</trkpt>
<trkpt lat="49.49469373561442" lon="9.04668708331883">
<ele>183.6</ele>
<time>2024-05-10T14:28:12Z</time>
</trkpt>
<trkpt lat="49.494663225486875" lon="9.04668708331883">
<ele>183.8</ele>
<time>2024-05-10T14:28:13Z</time>
</trkpt>
<trkpt lat="49.49463648721576" lon="9.04668708331883">
<ele>184</ele>
<time>2024-05-10T14:28:14Z</time>
</trkpt>
<trkpt lat="49.494602121412754" lon="9.046688005328178">
<ele>184.2</ele>
<time>2024-05-10T14:28:15Z</time>
</trkpt>
<trkpt lat="49.49456783942878" lon="9.046691861003636">
<ele>184.6</ele>
<time>2024-05-10T14:28:16Z</time>
</trkpt>
<trkpt lat="49.49453347362578" lon="9.046693788841369">
<ele>184.8</ele>
<time>2024-05-10T14:28:17Z</time>
</trkpt>
<trkpt lat="49.494502963498235" lon="9.046691861003636">
<ele>185</ele>
<time>2024-05-10T14:28:18Z</time>
</trkpt>
<trkpt lat="49.49446868151426" lon="9.046694710850716">
<ele>185.2</ele>
<time>2024-05-10T14:28:19Z</time>
</trkpt>
<trkpt lat="49.49443817138672" lon="9.046696638688443">
<ele>185.4</ele>
<time>2024-05-10T14:28:20Z</time>
</trkpt>
<trkpt lat="49.4944114331156" lon="9.046693788841369">
<ele>185.8</ele>
<time>2024-05-10T14:28:21Z</time>
</trkpt>
<trkpt lat="49.4943770673126" lon="9.046689933165908">
<ele>186</ele>
<time>2024-05-10T14:28:22Z</time>
</trkpt>
<trkpt lat="49.494346557185054" lon="9.046689933165908">
<ele>186.2</ele>
<time>2024-05-10T14:28:23Z</time>
</trkpt>
<trkpt lat="49.49431604705751" lon="9.0466851554811">
<ele>186.4</ele>
<time>2024-05-10T14:28:24Z</time>
</trkpt>
<trkpt lat="49.49428176507354" lon="9.046680377796292">
<ele>186.6</ele>
<time>2024-05-10T14:28:25Z</time>
</trkpt>
<trkpt lat="49.49425117112696" lon="9.046676605939863">
<ele>186.8</ele>
<time>2024-05-10T14:28:26Z</time>
</trkpt>
<trkpt lat="49.49421688914299" lon="9.046674678102136">
<ele>187.2</ele>
<time>2024-05-10T14:28:27Z</time>
</trkpt>
<trkpt lat="49.49419015087187" lon="9.046673756092789">
<ele>187.4</ele>
<time>2024-05-10T14:28:28Z</time>
</trkpt>
<trkpt lat="49.49415964074433" lon="9.046669900417328">
<ele>187.6</ele>
<time>2024-05-10T14:28:29Z</time>
</trkpt>
<trkpt lat="49.49412535876036" lon="9.04666705057025">
<ele>187.8</ele>
<time>2024-05-10T14:28:30Z</time>
</trkpt>
<trkpt lat="49.49409484863281" lon="9.046667972579598">
<ele>188.2</ele>
<time>2024-05-10T14:28:31Z</time>
</trkpt>
<trkpt lat="49.49406425468624" lon="9.046667972579598">
<ele>188.4</ele>
<time>2024-05-10T14:28:32Z</time>
</trkpt>
<trkpt lat="49.494029972702265" lon="9.04666705057025">
<ele>188.6</ele>
<time>2024-05-10T14:28:33Z</time>
</trkpt>
<trkpt lat="49.49399946257472" lon="9.04666512273252">
<ele>188.8</ele>
<time>2024-05-10T14:28:34Z</time>
</trkpt>
<trkpt lat="49.493968952447176" lon="9.046660345047712">
<ele>188.8</ele>
<time>2024-05-10T14:28:35Z</time>
</trkpt>
<trkpt lat="49.49393844231963" lon="9.046653723344209">
<ele>189</ele>
<time>2024-05-10T14:28:36Z</time>
</trkpt>
<trkpt lat="49.493911704048514" lon="9.046651795506476">
<ele>189</ele>
<time>2024-05-10T14:28:37Z</time>
</trkpt>
<trkpt lat="49.49388119392097" lon="9.046651795506476">
<ele>189.2</ele>
<time>2024-05-10T14:28:38Z</time>
</trkpt>
<trkpt lat="49.493850683793426" lon="9.04664802365005">
<ele>189.4</ele>
<time>2024-05-10T14:28:39Z</time>
</trkpt>
<trkpt lat="49.49382017366588" lon="9.04664701782167">
<ele>189.6</ele>
<time>2024-05-10T14:28:40Z</time>
</trkpt>
<trkpt lat="49.49378580786288" lon="9.046641318127511">
<ele>189.8</ele>
<time>2024-05-10T14:28:41Z</time>
</trkpt>
<trkpt lat="49.49375529773533" lon="9.046636540442703">
<ele>189.8</ele>
<time>2024-05-10T14:28:42Z</time>
</trkpt>
<trkpt lat="49.49372478760779" lon="9.046631762757896">
<ele>189.8</ele>
<time>2024-05-10T14:28:43Z</time>
</trkpt>
<trkpt lat="49.493690421804786" lon="9.04662698507309">
<ele>189.8</ele>
<time>2024-05-10T14:28:44Z</time>
</trkpt>
<trkpt lat="49.49365991167724" lon="9.04662505723536">
<ele>189.8</ele>
<time>2024-05-10T14:28:45Z</time>
</trkpt>
<trkpt lat="49.49362562969327" lon="9.046623213216662">
<ele>189.8</ele>
<time>2024-05-10T14:28:46Z</time>
</trkpt>
<trkpt lat="49.493591263890266" lon="9.046618435531856">
<ele>189.8</ele>
<time>2024-05-10T14:28:47Z</time>
</trkpt>
<trkpt lat="49.49355689808726" lon="9.046611730009316">
<ele>189.8</ele>
<time>2024-05-10T14:28:48Z</time>
</trkpt>
<trkpt lat="49.49352261610329" lon="9.04660695232451">
<ele>189.8</ele>
<time>2024-05-10T14:28:49Z</time>
</trkpt>
<trkpt lat="49.49348447844386" lon="9.046601252630351">
<ele>189.8</ele>
<time>2024-05-10T14:28:50Z</time>
</trkpt>
<trkpt lat="49.49344248510897" lon="9.046593625098469">
<ele>189.8</ele>
<time>2024-05-10T14:28:51Z</time>
</trkpt>
<trkpt lat="49.49340049177408" lon="9.046583147719502">
<ele>189.8</ele>
<time>2024-05-10T14:28:52Z</time>
</trkpt>
<trkpt lat="49.49336235411465" lon="9.046574514359236">
<ele>189.8</ele>
<time>2024-05-10T14:28:53Z</time>
</trkpt>
<trkpt lat="49.493320444598794" lon="9.046563114970922">
<ele>190</ele>
<time>2024-05-10T14:28:54Z</time>
</trkpt>
<trkpt lat="49.493278451263905" lon="9.046551631763576">
<ele>190</ele>
<time>2024-05-10T14:28:55Z</time>
</trkpt>
<trkpt lat="49.49323654174805" lon="9.046540232375264">
<ele>190</ele>
<time>2024-05-10T14:28:56Z</time>
</trkpt>
<trkpt lat="49.49319454841316" lon="9.046524977311492">
<ele>190</ele>
<time>2024-05-10T14:28:57Z</time>
</trkpt>
<trkpt lat="49.49315255507827" lon="9.04650972224772">
<ele>190</ele>
<time>2024-05-10T14:28:58Z</time>
</trkpt>
<trkpt lat="49.49311064556241" lon="9.046495389193296">
<ele>189.8</ele>
<time>2024-05-10T14:28:59Z</time>
</trkpt>
<trkpt lat="49.49307250790298" lon="9.046478206291797">
<ele>189.8</ele>
<time>2024-05-10T14:29:00Z</time>
</trkpt>
<trkpt lat="49.49303428642452" lon="9.046462029218674">
<ele>189.8</ele>
<time>2024-05-10T14:29:01Z</time>
</trkpt>
<trkpt lat="49.49299237690866" lon="9.046446774154902">
<ele>189.8</ele>
<time>2024-05-10T14:29:02Z</time>
</trkpt>
<trkpt lat="49.49295038357377" lon="9.0464295912534">
<ele>189.6</ele>
<time>2024-05-10T14:29:03Z</time>
</trkpt>
<trkpt lat="49.49290847405791" lon="9.04640955850482">
<ele>189.6</ele>
<time>2024-05-10T14:29:04Z</time>
</trkpt>
<trkpt lat="49.49286648072302" lon="9.0463933814317">
<ele>189.6</ele>
<time>2024-05-10T14:29:05Z</time>
</trkpt>
<trkpt lat="49.492824487388134" lon="9.046375192701817">
<ele>189.6</ele>
<time>2024-05-10T14:29:06Z</time>
</trkpt>
<trkpt lat="49.49277872219682" lon="9.04635331593454">
<ele>189.4</ele>
<time>2024-05-10T14:29:07Z</time>
</trkpt>
<trkpt lat="49.49273681268096" lon="9.04633328318596">
<ele>189.4</ele>
<time>2024-05-10T14:29:08Z</time>
</trkpt>
<trkpt lat="49.49269096367061" lon="9.04631132259965">
<ele>189.4</ele>
<time>2024-05-10T14:29:09Z</time>
</trkpt>
<trkpt lat="49.49264142662287" lon="9.04629036784172">
<ele>189.4</ele>
<time>2024-05-10T14:29:10Z</time>
</trkpt>
<trkpt lat="49.49259566143155" lon="9.046266479417682">
<ele>189.4</ele>
<time>2024-05-10T14:29:11Z</time>
</trkpt>
<trkpt lat="49.49255366809666" lon="9.046246446669102">
<ele>189.2</ele>
<time>2024-05-10T14:29:12Z</time>
</trkpt>
<trkpt lat="49.49251167476177" lon="9.046226497739552">
<ele>189.2</ele>
<time>2024-05-10T14:29:13Z</time>
</trkpt>
<trkpt lat="49.492465909570456" lon="9.0462102368474">
<ele>189</ele>
<time>2024-05-10T14:29:14Z</time>
</trkpt>
<trkpt lat="49.49242014437914" lon="9.0461930539459">
<ele>188.8</ele>
<time>2024-05-10T14:29:15Z</time>
</trkpt>
<trkpt lat="49.49237052351236" lon="9.046174949035048">
<ele>188.8</ele>
<time>2024-05-10T14:29:16Z</time>
</trkpt>
<trkpt lat="49.49232475832105" lon="9.046154916286469">
<ele>188.6</ele>
<time>2024-05-10T14:29:17Z</time>
</trkpt>
<trkpt lat="49.4922752212733" lon="9.046128261834385">
<ele>188.6</ele>
<time>2024-05-10T14:29:18Z</time>
</trkpt>
<trkpt lat="49.49222560040653" lon="9.046103451400995">
<ele>188.6</ele>
<time>2024-05-10T14:29:19Z</time>
</trkpt>
<trkpt lat="49.49217983521521" lon="9.046078640967607">
<ele>188.4</ele>
<time>2024-05-10T14:29:20Z</time>
</trkpt>
<trkpt lat="49.492130214348435" lon="9.0460548363626">
<ele>188.2</ele>
<time>2024-05-10T14:29:21Z</time>
</trkpt>
<trkpt lat="49.49208830483258" lon="9.046030025929213">
<ele>188.2</ele>
<time>2024-05-10T14:29:22Z</time>
</trkpt>
<trkpt lat="49.49204631149769" lon="9.046006137505174">
<ele>188</ele>
<time>2024-05-10T14:29:23Z</time>
</trkpt>
<trkpt lat="49.49200817383826" lon="9.045981327071786">
<ele>187.8</ele>
<time>2024-05-10T14:29:24Z</time>
</trkpt>
<trkpt lat="49.49196618050337" lon="9.045960372313855">
<ele>187.6</ele>
<time>2024-05-10T14:29:25Z</time>
</trkpt>
<trkpt lat="49.49192804284394" lon="9.04593463987112">
<ele>187.4</ele>
<time>2024-05-10T14:29:26Z</time>
</trkpt>
<trkpt lat="49.491893760859966" lon="9.04591460712254">
<ele>187.2</ele>
<time>2024-05-10T14:29:27Z</time>
</trkpt>
<trkpt lat="49.491855539381504" lon="9.045893652364612">
<ele>187</ele>
<time>2024-05-10T14:29:28Z</time>
</trkpt>
<trkpt lat="49.49182125739753" lon="9.04587646946311">
<ele>186.8</ele>
<time>2024-05-10T14:29:29Z</time>
</trkpt>
<trkpt lat="49.49179074726999" lon="9.045861214399338">
<ele>186.4</ele>
<time>2024-05-10T14:29:30Z</time>
</trkpt>
<trkpt lat="49.49176400899887" lon="9.045851659029722">
<ele>186.2</ele>
<time>2024-05-10T14:29:31Z</time>
</trkpt>
<trkpt lat="49.491737354546785" lon="9.045844953507183">
<ele>186</ele>
<time>2024-05-10T14:29:32Z</time>
</trkpt>
<trkpt lat="49.49171447195113" lon="9.04583833180368">
<ele>185.8</ele>
<time>2024-05-10T14:29:33Z</time>
</trkpt>
<trkpt lat="49.491695361211896" lon="9.04583447612822">
<ele>185.6</ele>
<time>2024-05-10T14:29:34Z</time>
</trkpt>
<trkpt lat="49.49168387800455" lon="9.04583447612822">
<ele>185.4</ele>
<time>2024-05-10T14:29:35Z</time>
</trkpt>
<trkpt lat="49.49168387800455" lon="9.045833554118872">
<ele>185.4</ele>
<time>2024-05-10T14:29:37Z</time>
</trkpt>
<trkpt lat="49.49168387800455" lon="9.04583447612822">
<ele>185.2</ele>
<time>2024-05-10T14:29:38Z</time>
</trkpt>
<trkpt lat="49.49168773368001" lon="9.04583447612822">
<ele>185.2</ele>
<time>2024-05-10T14:29:42Z</time>
</trkpt>
<trkpt lat="49.49168387800455" lon="9.04583447612822">
<ele>185</ele>
<time>2024-05-10T14:29:44Z</time>
</trkpt>
<trkpt lat="49.49168010614813" lon="9.04583447612822">
<ele>184.8</ele>
<time>2024-05-10T14:29:45Z</time>
</trkpt>
<trkpt lat="49.491676250472665" lon="9.04583447612822">
<ele>184.6</ele>
<time>2024-05-10T14:29:46Z</time>
</trkpt>
<trkpt lat="49.49166485108435" lon="9.045833554118872">
<ele>184.6</ele>
<time>2024-05-10T14:29:47Z</time>
</trkpt>
<trkpt lat="49.49164959602058" lon="9.04583447612822">
<ele>184.4</ele>
<time>2024-05-10T14:29:48Z</time>
</trkpt>
<trkpt lat="49.491638112813234" lon="9.045844953507183">
<ele>184.2</ele>
<time>2024-05-10T14:29:49Z</time>
</trkpt>
<trkpt lat="49.49162671342492" lon="9.045860208570955">
<ele>184.2</ele>
<time>2024-05-10T14:29:50Z</time>
</trkpt>
<trkpt lat="49.49160760268569" lon="9.04587646946311">
<ele>184.2</ele>
<time>2024-05-10T14:29:51Z</time>
</trkpt>
<trkpt lat="49.49158857576549" lon="9.04589843004942">
<ele>184</ele>
<time>2024-05-10T14:29:52Z</time>
</trkpt>
<trkpt lat="49.49156569316983" lon="9.045923156663775">
<ele>184</ele>
<time>2024-05-10T14:29:53Z</time>
</trkpt>
<trkpt lat="49.491542810574174" lon="9.045947045087814">
<ele>184</ele>
<time>2024-05-10T14:29:54Z</time>
</trkpt>
<trkpt lat="49.49151607230306" lon="9.045969927683473">
<ele>184</ele>
<time>2024-05-10T14:29:55Z</time>
</trkpt>
<trkpt lat="49.49148933403194" lon="9.045998509973288">
<ele>184</ele>
<time>2024-05-10T14:29:56Z</time>
</trkpt>
<trkpt lat="49.49146645143628" lon="9.046025248244405">
<ele>184</ele>
<time>2024-05-10T14:29:57Z</time>
</trkpt>
<trkpt lat="49.49143979698419" lon="9.04605290852487">
<ele>184</ele>
<time>2024-05-10T14:29:58Z</time>
</trkpt>
<trkpt lat="49.491420686244965" lon="9.046081490814686">
<ele>184.2</ele>
<time>2024-05-10T14:29:59Z</time>
</trkpt>
<trkpt lat="49.491401659324765" lon="9.046114850789309">
<ele>184.2</ele>
<time>2024-05-10T14:30:00Z</time>
</trkpt>
<trkpt lat="49.491382548585534" lon="9.046141589060426">
<ele>184.4</ele>
<time>2024-05-10T14:30:01Z</time>
</trkpt>
<trkpt lat="49.491363521665335" lon="9.04617117717862">
<ele>184.4</ele>
<time>2024-05-10T14:30:02Z</time>
</trkpt>
<trkpt lat="49.491340555250645" lon="9.046199759468436">
<ele>184.4</ele>
<time>2024-05-10T14:30:03Z</time>
</trkpt>
<trkpt lat="49.491321528330445" lon="9.04623119160533">
<ele>184.6</ele>
<time>2024-05-10T14:30:04Z</time>
</trkpt>
<trkpt lat="49.491302417591214" lon="9.046264635398984">
<ele>184.6</ele>
<time>2024-05-10T14:30:05Z</time>
</trkpt>
<trkpt lat="49.491283390671015" lon="9.046297995373608">
<ele>184.8</ele>
<time>2024-05-10T14:30:06Z</time>
</trkpt>
<trkpt lat="49.491264279931784" lon="9.046335211023688">
<ele>184.8</ele>
<time>2024-05-10T14:30:07Z</time>
</trkpt>
<trkpt lat="49.49124902486801" lon="9.04637334868312">
<ele>185</ele>
<time>2024-05-10T14:30:08Z</time>
</trkpt>
<trkpt lat="49.49122999794781" lon="9.046415258198977">
<ele>185.2</ele>
<time>2024-05-10T14:30:09Z</time>
</trkpt>
<trkpt lat="49.49121474288404" lon="9.046455323696136">
<ele>185.2</ele>
<time>2024-05-10T14:30:10Z</time>
</trkpt>
<trkpt lat="49.49119563214481" lon="9.046496311202644">
<ele>185.4</ele>
<time>2024-05-10T14:30:11Z</time>
</trkpt>
<trkpt lat="49.49118037708104" lon="9.046540232375264">
<ele>185.6</ele>
<time>2024-05-10T14:30:12Z</time>
</trkpt>
<trkpt lat="49.49116889387369" lon="9.046585075557232">
<ele>185.8</ele>
<time>2024-05-10T14:30:13Z</time>
</trkpt>
<trkpt lat="49.491161266341805" lon="9.04662505723536">
<ele>185.8</ele>
<time>2024-05-10T14:30:14Z</time>
</trkpt>
<trkpt lat="49.49114986695349" lon="9.046669900417328">
<ele>186</ele>
<time>2024-05-10T14:30:15Z</time>
</trkpt>
<trkpt lat="49.49113461188972" lon="9.046716671437023">
<ele>186</ele>
<time>2024-05-10T14:30:16Z</time>
</trkpt>
<trkpt lat="49.491123128682375" lon="9.046758580952885">
<ele>186</ele>
<time>2024-05-10T14:30:17Z</time>
</trkpt>
<trkpt lat="49.49111172929406" lon="9.046794874593616">
<ele>186.2</ele>
<time>2024-05-10T14:30:18Z</time>
</trkpt>
<trkpt lat="49.491104101762176" lon="9.046832006424664">
<ele>186.2</ele>
<time>2024-05-10T14:30:19Z</time>
</trkpt>
<trkpt lat="49.49109647423029" lon="9.046873077750206">
<ele>186.4</ele>
<time>2024-05-10T14:30:20Z</time>
</trkpt>
<trkpt lat="49.4910888466984" lon="9.046913143247366">
<ele>186.4</ele>
<time>2024-05-10T14:30:21Z</time>
</trkpt>
<trkpt lat="49.49108121916652" lon="9.046955052763224">
<ele>186.4</ele>
<time>2024-05-10T14:30:22Z</time>
</trkpt>
<trkpt lat="49.49107359163463" lon="9.046995118260384">
<ele>186.6</ele>
<time>2024-05-10T14:30:23Z</time>
</trkpt>
<trkpt lat="49.49106973595917" lon="9.047035183757544">
<ele>186.6</ele>
<time>2024-05-10T14:30:24Z</time>
</trkpt>
<trkpt lat="49.491065964102745" lon="9.047075249254704">
<ele>186.8</ele>
<time>2024-05-10T14:30:25Z</time>
</trkpt>
<trkpt lat="49.491065964102745" lon="9.047116236761212">
<ele>186.8</ele>
<time>2024-05-10T14:30:26Z</time>
</trkpt>
<trkpt lat="49.491062108427286" lon="9.047158230096102">
<ele>187</ele>
<time>2024-05-10T14:30:27Z</time>
</trkpt>
<trkpt lat="49.49105833657086" lon="9.047198295593262">
<ele>187.2</ele>
<time>2024-05-10T14:30:28Z</time>
</trkpt>
<trkpt lat="49.4910544808954" lon="9.04723827727139">
<ele>187.2</ele>
<time>2024-05-10T14:30:29Z</time>
</trkpt>
<trkpt lat="49.49105070903897" lon="9.047283120453358">
<ele>187.4</ele>
<time>2024-05-10T14:30:30Z</time>
</trkpt>
<trkpt lat="49.49105070903897" lon="9.047327041625977">
<ele>187.6</ele>
<time>2024-05-10T14:30:31Z</time>
</trkpt>
<trkpt lat="49.491046853363514" lon="9.047371800988913">
<ele>187.8</ele>
<time>2024-05-10T14:30:32Z</time>
</trkpt>
<trkpt lat="49.491046853363514" lon="9.04741664417088">
<ele>187.8</ele>
<time>2024-05-10T14:30:33Z</time>
</trkpt>
<trkpt lat="49.49104308150709" lon="9.04745478183031">
<ele>188</ele>
<time>2024-05-10T14:30:34Z</time>
</trkpt>
<trkpt lat="49.49104308150709" lon="9.04749962501228">
<ele>188</ele>
<time>2024-05-10T14:30:35Z</time>
</trkpt>
<trkpt lat="49.49104308150709" lon="9.047541618347168">
<ele>188.2</ele>
<time>2024-05-10T14:30:36Z</time>
</trkpt>
<trkpt lat="49.49104308150709" lon="9.047584533691406">
<ele>188.6</ele>
<time>2024-05-10T14:30:37Z</time>
</trkpt>
<trkpt lat="49.49103922583163" lon="9.047628371044992">
<ele>188.8</ele>
<time>2024-05-10T14:30:38Z</time>
</trkpt>
<trkpt lat="49.49103159829974" lon="9.047670364379885">
<ele>189</ele>
<time>2024-05-10T14:30:39Z</time>
</trkpt>
<trkpt lat="49.49103159829974" lon="9.04771512374282">
<ele>189</ele>
<time>2024-05-10T14:30:40Z</time>
</trkpt>
<trkpt lat="49.49103159829974" lon="9.04775518923998">
<ele>189.2</ele>
<time>2024-05-10T14:30:41Z</time>
</trkpt>
<trkpt lat="49.491027826443315" lon="9.047796176746488">
<ele>189.4</ele>
<time>2024-05-10T14:30:42Z</time>
</trkpt>
<trkpt lat="49.491027826443315" lon="9.047840097919106">
<ele>189.4</ele>
<time>2024-05-10T14:30:43Z</time>
</trkpt>
<trkpt lat="49.491027826443315" lon="9.047882007434964">
<ele>189.6</ele>
<time>2024-05-10T14:30:44Z</time>
</trkpt>
<trkpt lat="49.491027826443315" lon="9.047926850616932">
<ele>189.6</ele>
<time>2024-05-10T14:30:45Z</time>
</trkpt>
<trkpt lat="49.491027826443315" lon="9.04796976596117">
<ele>189.8</ele>
<time>2024-05-10T14:30:46Z</time>
</trkpt>
<trkpt lat="49.491023970767856" lon="9.048013687133787">
<ele>189.8</ele>
<time>2024-05-10T14:30:47Z</time>
</trkpt>
<trkpt lat="49.491023970767856" lon="9.048054674640298">
<ele>190</ele>
<time>2024-05-10T14:30:48Z</time>
</trkpt>
<trkpt lat="49.491027826443315" lon="9.048093734309075">
<ele>190.2</ele>
<time>2024-05-10T14:30:49Z</time>
</trkpt>
<trkpt lat="49.491027826443315" lon="9.048131871968508">
<ele>190.4</ele>
<time>2024-05-10T14:30:50Z</time>
</trkpt>
<trkpt lat="49.491023970767856" lon="9.048172943294048">
<ele>190.6</ele>
<time>2024-05-10T14:30:51Z</time>
</trkpt>
<trkpt lat="49.491023970767856" lon="9.048214852809906">
<ele>190.6</ele>
<time>2024-05-10T14:30:52Z</time>
</trkpt>
<trkpt lat="49.49102019891143" lon="9.048258773982525">
<ele>190.8</ele>
<time>2024-05-10T14:30:53Z</time>
</trkpt>
<trkpt lat="49.49102019891143" lon="9.048297833651304">
<ele>190.8</ele>
<time>2024-05-10T14:30:54Z</time>
</trkpt>
<trkpt lat="49.49102019891143" lon="9.048341671004891">
<ele>191</ele>
<time>2024-05-10T14:30:55Z</time>
</trkpt>
<trkpt lat="49.49101634323597" lon="9.04838366433978">
<ele>191.2</ele>
<time>2024-05-10T14:30:56Z</time>
</trkpt>
<trkpt lat="49.49101257137954" lon="9.04842372983694">
<ele>191.4</ele>
<time>2024-05-10T14:30:57Z</time>
</trkpt>
<trkpt lat="49.49101257137954" lon="9.04846278950572">
<ele>191.6</ele>
<time>2024-05-10T14:30:58Z</time>
</trkpt>
<trkpt lat="49.49101257137954" lon="9.04850285500288">
<ele>191.6</ele>
<time>2024-05-10T14:30:59Z</time>
</trkpt>
<trkpt lat="49.49101634323597" lon="9.0485467761755">
<ele>191.8</ele>
<time>2024-05-10T14:31:00Z</time>
</trkpt>
<trkpt lat="49.49101634323597" lon="9.048588685691357">
<ele>192</ele>
<time>2024-05-10T14:31:01Z</time>
</trkpt>
<trkpt lat="49.49101634323597" lon="9.048628751188517">
<ele>192</ele>
<time>2024-05-10T14:31:02Z</time>
</trkpt>
<trkpt lat="49.49102019891143" lon="9.048669738695024">
<ele>192.2</ele>
<time>2024-05-10T14:31:03Z</time>
</trkpt>
<trkpt lat="49.49102019891143" lon="9.048714581876991">
<ele>192.2</ele>
<time>2024-05-10T14:31:04Z</time>
</trkpt>
<trkpt lat="49.49102019891143" lon="9.048763196915388">
<ele>192.4</ele>
<time>2024-05-10T14:31:05Z</time>
</trkpt>
<trkpt lat="49.49102019891143" lon="9.048809967935084">
<ele>192.6</ele>
<time>2024-05-10T14:31:06Z</time>
</trkpt>
<trkpt lat="49.491023970767856" lon="9.04885665513575">
<ele>192.6</ele>
<time>2024-05-10T14:31:07Z</time>
</trkpt>
<trkpt lat="49.491027826443315" lon="9.048903426155448">
<ele>192.8</ele>
<time>2024-05-10T14:31:08Z</time>
</trkpt>
<trkpt lat="49.491023970767856" lon="9.048946341499686">
<ele>192.8</ele>
<time>2024-05-10T14:31:09Z</time>
</trkpt>
<trkpt lat="49.491027826443315" lon="9.048993028700352">
<ele>193</ele>
<time>2024-05-10T14:31:10Z</time>
</trkpt>
<trkpt lat="49.49103159829974" lon="9.049039799720047">
<ele>193</ele>
<time>2024-05-10T14:31:11Z</time>
</trkpt>
<trkpt lat="49.49103159829974" lon="9.049084642902017">
<ele>193.2</ele>
<time>2024-05-10T14:31:12Z</time>
</trkpt>
<trkpt lat="49.49103159829974" lon="9.049131330102682">
<ele>193.4</ele>
<time>2024-05-10T14:31:13Z</time>
</trkpt>
<trkpt lat="49.49103922583163" lon="9.04917810112238">
<ele>193.4</ele>
<time>2024-05-10T14:31:14Z</time>
</trkpt>
<trkpt lat="49.49104308150709" lon="9.049226716160774">
<ele>193.6</ele>
<time>2024-05-10T14:31:15Z</time>
</trkpt>
<trkpt lat="49.49105070903897" lon="9.049273487180471">
<ele>193.6</ele>
<time>2024-05-10T14:31:16Z</time>
</trkpt>
<trkpt lat="49.49105833657086" lon="9.04931640252471">
<ele>193.8</ele>
<time>2024-05-10T14:31:17Z</time>
</trkpt>
<trkpt lat="49.491062108427286" lon="9.049365017563105">
<ele>193.8</ele>
<time>2024-05-10T14:31:18Z</time>
</trkpt>
<trkpt lat="49.49106973595917" lon="9.0494136326015">
<ele>193.8</ele>
<time>2024-05-10T14:31:19Z</time>
</trkpt>
<trkpt lat="49.49107736349106" lon="9.049460403621197">
<ele>193.8</ele>
<time>2024-05-10T14:31:20Z</time>
</trkpt>
<trkpt lat="49.491084991022944" lon="9.049505162984133">
<ele>193.8</ele>
<time>2024-05-10T14:31:21Z</time>
</trkpt>
<trkpt lat="49.4910888466984" lon="9.04955193400383">
<ele>194</ele>
<time>2024-05-10T14:31:22Z</time>
</trkpt>
<trkpt lat="49.49109647423029" lon="9.049601554870604">
<ele>194</ele>
<time>2024-05-10T14:31:23Z</time>
</trkpt>
<trkpt lat="49.491104101762176" lon="9.049650169909">
<ele>194</ele>
<time>2024-05-10T14:31:24Z</time>
</trkpt>
<trkpt lat="49.49111935682595" lon="9.049695013090968">
<ele>194</ele>
<time>2024-05-10T14:31:25Z</time>
</trkpt>
<trkpt lat="49.491126984357834" lon="9.049744550138712">
<ele>194</ele>
<time>2024-05-10T14:31:26Z</time>
</trkpt>
<trkpt lat="49.49113838374615" lon="9.049797942861916">
<ele>194</ele>
<time>2024-05-10T14:31:27Z</time>
</trkpt>
<trkpt lat="49.49115363880992" lon="9.049855191260576">
<ele>194</ele>
<time>2024-05-10T14:31:28Z</time>
</trkpt>
<trkpt lat="49.49116889387369" lon="9.04990958981216">
<ele>194.2</ele>
<time>2024-05-10T14:31:29Z</time>
</trkpt>
<trkpt lat="49.49118800461292" lon="9.04996482655406">
<ele>194.2</ele>
<time>2024-05-10T14:31:30Z</time>
</trkpt>
<trkpt lat="49.491207115352154" lon="9.050018303096294">
<ele>194.4</ele>
<time>2024-05-10T14:31:31Z</time>
</trkpt>
<trkpt lat="49.49122999794781" lon="9.050067840144038">
<ele>194.4</ele>
<time>2024-05-10T14:31:32Z</time>
</trkpt>
<trkpt lat="49.49125288054347" lon="9.050114611163735">
<ele>194.6</ele>
<time>2024-05-10T14:31:33Z</time>
</trkpt>
<trkpt lat="49.49127190746367" lon="9.0501612983644">
<ele>194.6</ele>
<time>2024-05-10T14:31:34Z</time>
</trkpt>
<trkpt lat="49.49129479005933" lon="9.05020521953702">
<ele>194.8</ele>
<time>2024-05-10T14:31:35Z</time>
</trkpt>
<trkpt lat="49.491317672654986" lon="9.05024335719645">
<ele>194.8</ele>
<time>2024-05-10T14:31:36Z</time>
</trkpt>
<trkpt lat="49.49133292771876" lon="9.050274789333344">
<ele>195</ele>
<time>2024-05-10T14:31:37Z</time>
</trkpt>
<trkpt lat="49.49134826660156" lon="9.05030345544219">
<ele>195</ele>
<time>2024-05-10T14:31:38Z</time>
</trkpt>
<trkpt lat="49.49135966598987" lon="9.050323404371738">
<ele>195.2</ele>
<time>2024-05-10T14:31:39Z</time>
</trkpt>
<trkpt lat="49.491363521665335" lon="9.050330109894276">
<ele>195.2</ele>
<time>2024-05-10T14:31:40Z</time>
</trkpt>
<trkpt lat="49.491363521665335" lon="9.050332037732003">
<ele>195.4</ele>
<time>2024-05-10T14:31:42Z</time>
</trkpt>
<trkpt lat="49.491363521665335" lon="9.050330109894276">
<ele>195.6</ele>
<time>2024-05-10T14:31:43Z</time>
</trkpt>
<trkpt lat="49.49136729352176" lon="9.050330109894276">
<ele>195.8</ele>
<time>2024-05-10T14:31:46Z</time>
</trkpt>
<trkpt lat="49.49136729352176" lon="9.050328182056546">
<ele>196</ele>
<time>2024-05-10T14:31:47Z</time>
</trkpt>
<trkpt lat="49.49136729352176" lon="9.050326338037848">
<ele>196</ele>
<time>2024-05-10T14:31:48Z</time>
</trkpt>
<trkpt lat="49.49136729352176" lon="9.050328182056546">
<ele>196.2</ele>
<time>2024-05-10T14:31:50Z</time>
</trkpt>
<trkpt lat="49.49136729352176" lon="9.050330109894276">
<ele>196.4</ele>
<time>2024-05-10T14:31:52Z</time>
</trkpt>
<trkpt lat="49.49137114919722" lon="9.050330109894276">
<ele>196.4</ele>
<time>2024-05-10T14:31:54Z</time>
</trkpt>
<trkpt lat="49.49137492105365" lon="9.050332037732003">
<ele>196.6</ele>
<time>2024-05-10T14:31:55Z</time>
</trkpt>
<trkpt lat="49.49137492105365" lon="9.050330109894276">
<ele>196.8</ele>
<time>2024-05-10T14:31:56Z</time>
</trkpt>
<trkpt lat="49.49137492105365" lon="9.050332037732003">
<ele>196.8</ele>
<time>2024-05-10T14:31:57Z</time>
</trkpt>
<trkpt lat="49.491382548585534" lon="9.050339665263891">
<ele>197</ele>
<time>2024-05-10T14:31:59Z</time>
</trkpt>
<trkpt lat="49.49138640426099" lon="9.050346370786428">
<ele>197.2</ele>
<time>2024-05-10T14:32:00Z</time>
</trkpt>
<trkpt lat="49.49139017611742" lon="9.050354920327663">
<ele>197.2</ele>
<time>2024-05-10T14:32:01Z</time>
</trkpt>
<trkpt lat="49.491397803649306" lon="9.0503616258502">
<ele>197.4</ele>
<time>2024-05-10T14:32:02Z</time>
</trkpt>
<trkpt lat="49.491401659324765" lon="9.050368247553706">
<ele>197.4</ele>
<time>2024-05-10T14:32:03Z</time>
</trkpt>
<trkpt lat="49.49140928685665" lon="9.050376880913973">
<ele>197.4</ele>
<time>2024-05-10T14:32:04Z</time>
</trkpt>
<trkpt lat="49.49141691438854" lon="9.050393057987094">
<ele>197.6</ele>
<time>2024-05-10T14:32:05Z</time>
</trkpt>
<trkpt lat="49.49142454192042" lon="9.05040454119444">
<ele>197.6</ele>
<time>2024-05-10T14:32:06Z</time>
</trkpt>
<trkpt lat="49.49143594130874" lon="9.050419796258211">
<ele>197.6</ele>
<time>2024-05-10T14:32:07Z</time>
</trkpt>
<trkpt lat="49.49145119637251" lon="9.050437901169062">
<ele>197.6</ele>
<time>2024-05-10T14:32:08Z</time>
</trkpt>
<trkpt lat="49.49147030711174" lon="9.05045692808926">
<ele>197.6</ele>
<time>2024-05-10T14:32:09Z</time>
</trkpt>
<trkpt lat="49.49148933403194" lon="9.050477966666222">
<ele>197.6</ele>
<time>2024-05-10T14:32:10Z</time>
</trkpt>
<trkpt lat="49.49151607230306" lon="9.050501771271229">
<ele>197.8</ele>
<time>2024-05-10T14:32:11Z</time>
</trkpt>
<trkpt lat="49.4915465824306" lon="9.050533287227154">
<ele>197.8</ele>
<time>2024-05-10T14:32:12Z</time>
</trkpt>
<trkpt lat="49.49156946502626" lon="9.05055994167924">
<ele>198</ele>
<time>2024-05-10T14:32:13Z</time>
</trkpt>
<trkpt lat="49.49159620329738" lon="9.050588607788086">
<ele>198.2</ele>
<time>2024-05-10T14:32:14Z</time>
</trkpt>
<trkpt lat="49.49162285774946" lon="9.05061618424952">
<ele>198.4</ele>
<time>2024-05-10T14:32:15Z</time>
</trkpt>
<trkpt lat="49.49165336787701" lon="9.050648622214794">
<ele>198.4</ele>
<time>2024-05-10T14:32:16Z</time>
</trkpt>
<trkpt lat="49.49168010614813" lon="9.05067628249526">
<ele>198.6</ele>
<time>2024-05-10T14:32:17Z</time>
</trkpt>
<trkpt lat="49.49170684441924" lon="9.050706792622805">
<ele>198.6</ele>
<time>2024-05-10T14:32:18Z</time>
</trkpt>
<trkpt lat="49.491733498871326" lon="9.050736380741">
<ele>198.8</ele>
<time>2024-05-10T14:32:19Z</time>
</trkpt>
<trkpt lat="49.491756381466985" lon="9.050771668553352">
<ele>199</ele>
<time>2024-05-10T14:32:20Z</time>
</trkpt>
<trkpt lat="49.4917831197381" lon="9.050809806212785">
<ele>199</ele>
<time>2024-05-10T14:32:21Z</time>
</trkpt>
<trkpt lat="49.49180977419019" lon="9.050847943872212">
<ele>199.2</ele>
<time>2024-05-10T14:32:22Z</time>
</trkpt>
<trkpt lat="49.491836512461305" lon="9.050887087360024">
<ele>199.4</ele>
<time>2024-05-10T14:32:23Z</time>
</trkpt>
<trkpt lat="49.49185939505696" lon="9.050926147028804">
<ele>199.6</ele>
<time>2024-05-10T14:32:24Z</time>
</trkpt>
<trkpt lat="49.491878505796194" lon="9.050970068201424">
<ele>199.8</ele>
<time>2024-05-10T14:32:25Z</time>
</trkpt>
<trkpt lat="49.49190138839185" lon="9.051008205860851">
<ele>199.8</ele>
<time>2024-05-10T14:32:26Z</time>
</trkpt>
<trkpt lat="49.49192041531205" lon="9.051048271358011">
<ele>200</ele>
<time>2024-05-10T14:32:27Z</time>
</trkpt>
<trkpt lat="49.49193952605128" lon="9.05108825303614">
<ele>200.2</ele>
<time>2024-05-10T14:32:28Z</time>
</trkpt>
<trkpt lat="49.49195855297148" lon="9.051123540848494">
<ele>200.4</ele>
<time>2024-05-10T14:32:29Z</time>
</trkpt>
<trkpt lat="49.49198143556714" lon="9.051157906651497">
<ele>200.4</ele>
<time>2024-05-10T14:32:30Z</time>
</trkpt>
<trkpt lat="49.49199669063091" lon="9.051197972148657">
<ele>200.4</ele>
<time>2024-05-10T14:32:31Z</time>
</trkpt>
<trkpt lat="49.492015801370144" lon="9.051241809502244">
<ele>200.6</ele>
<time>2024-05-10T14:32:32Z</time>
</trkpt>
<trkpt lat="49.492034912109375" lon="9.051282880827785">
<ele>200.8</ele>
<time>2024-05-10T14:32:33Z</time>
</trkpt>
<trkpt lat="49.492053939029574" lon="9.051321940496564">
<ele>200.8</ele>
<time>2024-05-10T14:32:34Z</time>
</trkpt>
<trkpt lat="49.492073049768806" lon="9.051362928003073">
<ele>201</ele>
<time>2024-05-10T14:32:35Z</time>
</trkpt>
<trkpt lat="49.492092076689005" lon="9.051400143653154">
<ele>201.2</ele>
<time>2024-05-10T14:32:36Z</time>
</trkpt>
<trkpt lat="49.49211495928466" lon="9.051438281312585">
<ele>201.6</ele>
<time>2024-05-10T14:32:37Z</time>
</trkpt>
<trkpt lat="49.492134070023894" lon="9.051474491134286">
<ele>201.8</ele>
<time>2024-05-10T14:32:38Z</time>
</trkpt>
<trkpt lat="49.492153096944094" lon="9.051513634622095">
<ele>202</ele>
<time>2024-05-10T14:32:39Z</time>
</trkpt>
<trkpt lat="49.49217597953975" lon="9.051554622128606">
<ele>202.2</ele>
<time>2024-05-10T14:32:40Z</time>
</trkpt>
<trkpt lat="49.49219509027898" lon="9.051596615463495">
<ele>202.2</ele>
<time>2024-05-10T14:32:41Z</time>
</trkpt>
<trkpt lat="49.492214201018214" lon="9.051641458645465">
<ele>202.4</ele>
<time>2024-05-10T14:32:42Z</time>
</trkpt>
<trkpt lat="49.492233227938414" lon="9.05168336816132">
<ele>202.6</ele>
<time>2024-05-10T14:32:43Z</time>
</trkpt>
<trkpt lat="49.49225611053407" lon="9.05172343365848">
<ele>202.6</ele>
<time>2024-05-10T14:32:44Z</time>
</trkpt>
<trkpt lat="49.4922752212733" lon="9.051759643480182">
<ele>202.6</ele>
<time>2024-05-10T14:32:45Z</time>
</trkpt>
<trkpt lat="49.49229810386896" lon="9.051796859130263">
<ele>202.8</ele>
<time>2024-05-10T14:32:46Z</time>
</trkpt>
<trkpt lat="49.49232098646462" lon="9.051831224933268">
<ele>203</ele>
<time>2024-05-10T14:32:47Z</time>
</trkpt>
<trkpt lat="49.49234001338482" lon="9.05186366289854">
<ele>203</ele>
<time>2024-05-10T14:32:48Z</time>
</trkpt>
<trkpt lat="49.49236289598048" lon="9.051895095035434">
<ele>203.2</ele>
<time>2024-05-10T14:32:49Z</time>
</trkpt>
<trkpt lat="49.49238200671971" lon="9.051928455010056">
<ele>203.2</ele>
<time>2024-05-10T14:32:50Z</time>
</trkpt>
<trkpt lat="49.49240488931537" lon="9.051963742822409">
<ele>203.2</ele>
<time>2024-05-10T14:32:51Z</time>
</trkpt>
<trkpt lat="49.492427771911025" lon="9.051993330940604">
<ele>203.4</ele>
<time>2024-05-10T14:32:52Z</time>
</trkpt>
<trkpt lat="49.49245065450668" lon="9.052026690915229">
<ele>203.6</ele>
<time>2024-05-10T14:32:53Z</time>
</trkpt>
<trkpt lat="49.4924773927778" lon="9.05206005088985">
<ele>203.8</ele>
<time>2024-05-10T14:32:54Z</time>
</trkpt>
<trkpt lat="49.492504047229886" lon="9.052091566845776">
<ele>203.8</ele>
<time>2024-05-10T14:32:55Z</time>
</trkpt>
<trkpt lat="49.492530785501" lon="9.05212207697332">
<ele>204</ele>
<time>2024-05-10T14:32:56Z</time>
</trkpt>
<trkpt lat="49.49256129562855" lon="9.052151665091516">
<ele>204</ele>
<time>2024-05-10T14:32:57Z</time>
</trkpt>
<trkpt lat="49.49259180575609" lon="9.0521783195436">
<ele>204.2</ele>
<time>2024-05-10T14:32:58Z</time>
</trkpt>
<trkpt lat="49.49262231588364" lon="9.052201202139258">
<ele>204.4</ele>
<time>2024-05-10T14:32:59Z</time>
</trkpt>
<trkpt lat="49.49265668168664" lon="9.052227018401029">
<ele>204.6</ele>
<time>2024-05-10T14:33:00Z</time>
</trkpt>
<trkpt lat="49.492683336138725" lon="9.052247973158956">
<ele>204.8</ele>
<time>2024-05-10T14:33:01Z</time>
</trkpt>
<trkpt lat="49.49271384626627" lon="9.052267000079157">
<ele>204.8</ele>
<time>2024-05-10T14:33:02Z</time>
</trkpt>
<trkpt lat="49.49274821206927" lon="9.052288038656116">
<ele>205</ele>
<time>2024-05-10T14:33:03Z</time>
</trkpt>
<trkpt lat="49.49277872219682" lon="9.052307065576317">
<ele>205</ele>
<time>2024-05-10T14:33:04Z</time>
</trkpt>
<trkpt lat="49.49280923232436" lon="9.052319470793009">
<ele>205.2</ele>
<time>2024-05-10T14:33:05Z</time>
</trkpt>
<trkpt lat="49.49283211492002" lon="9.052329948171971">
<ele>205.4</ele>
<time>2024-05-10T14:33:06Z</time>
</trkpt>
<trkpt lat="49.49285885319114" lon="9.052345203235744">
<ele>205.4</ele>
<time>2024-05-10T14:33:07Z</time>
</trkpt>
<trkpt lat="49.49289321899414" lon="9.05235475860536">
<ele>205.6</ele>
<time>2024-05-10T14:33:08Z</time>
</trkpt>
<trkpt lat="49.492923729121685" lon="9.052361464127898">
<ele>205.8</ele>
<time>2024-05-10T14:33:09Z</time>
</trkpt>
<trkpt lat="49.49295801110566" lon="9.052368085831404">
<ele>205.8</ele>
<time>2024-05-10T14:33:10Z</time>
</trkpt>
<trkpt lat="49.492984749376774" lon="9.052370013669131">
<ele>205.8</ele>
<time>2024-05-10T14:33:11Z</time>
</trkpt>
<trkpt lat="49.49301525950432" lon="9.052372863516212">
<ele>205.8</ele>
<time>2024-05-10T14:33:12Z</time>
</trkpt>
<trkpt lat="49.49304576963186" lon="9.05237479135394">
<ele>205.8</ele>
<time>2024-05-10T14:33:13Z</time>
</trkpt>
<trkpt lat="49.493080135434866" lon="9.05237479135394">
<ele>205.8</ele>
<time>2024-05-10T14:33:14Z</time>
</trkpt>
<trkpt lat="49.49311441741884" lon="9.05237479135394">
<ele>205.8</ele>
<time>2024-05-10T14:33:15Z</time>
</trkpt>
<trkpt lat="49.49315255507827" lon="9.052371941506864">
<ele>205.6</ele>
<time>2024-05-10T14:33:16Z</time>
</trkpt>
<trkpt lat="49.4931906927377" lon="9.052365235984324">
<ele>205.6</ele>
<time>2024-05-10T14:33:17Z</time>
</trkpt>
<trkpt lat="49.4932250585407" lon="9.05235475860536">
<ele>205.6</ele>
<time>2024-05-10T14:33:18Z</time>
</trkpt>
<trkpt lat="49.493259424343705" lon="9.052343359217048">
<ele>205.6</ele>
<time>2024-05-10T14:33:19Z</time>
</trkpt>
<trkpt lat="49.493297562003136" lon="9.052331876009704">
<ele>205.6</ele>
<time>2024-05-10T14:33:20Z</time>
</trkpt>
<trkpt lat="49.49333184398711" lon="9.052319470793009">
<ele>205.6</ele>
<time>2024-05-10T14:33:21Z</time>
</trkpt>
<trkpt lat="49.49336998164654" lon="9.052308071404696">
<ele>205.6</ele>
<time>2024-05-10T14:33:22Z</time>
</trkpt>
<trkpt lat="49.493408203125" lon="9.05229851603508">
<ele>205.6</ele>
<time>2024-05-10T14:33:23Z</time>
</trkpt>
<trkpt lat="49.49345011264086" lon="9.052283260971308">
<ele>205.6</ele>
<time>2024-05-10T14:33:24Z</time>
</trkpt>
<trkpt lat="49.49348825030029" lon="9.05227655544877">
<ele>205.8</ele>
<time>2024-05-10T14:33:25Z</time>
</trkpt>
<trkpt lat="49.49352261610329" lon="9.052271777763965">
<ele>205.8</ele>
<time>2024-05-10T14:33:26Z</time>
</trkpt>
<trkpt lat="49.49355689808726" lon="9.052265156060455">
<ele>205.8</ele>
<time>2024-05-10T14:33:27Z</time>
</trkpt>
<trkpt lat="49.493591263890266" lon="9.05226037837565">
<ele>205.8</ele>
<time>2024-05-10T14:33:28Z</time>
</trkpt>
<trkpt lat="49.49362177401781" lon="9.052251745015385">
<ele>205.8</ele>
<time>2024-05-10T14:33:29Z</time>
</trkpt>
<trkpt lat="49.493652284145355" lon="9.052245123311875">
<ele>205.8</ele>
<time>2024-05-10T14:33:30Z</time>
</trkpt>
<trkpt lat="49.4936827942729" lon="9.05224034562707">
<ele>206</ele>
<time>2024-05-10T14:33:31Z</time>
</trkpt>
<trkpt lat="49.49371330440045" lon="9.05223841778934">
<ele>206</ele>
<time>2024-05-10T14:33:32Z</time>
</trkpt>
<trkpt lat="49.49374767020345" lon="9.052233640104532">
<ele>206</ele>
<time>2024-05-10T14:33:33Z</time>
</trkpt>
<trkpt lat="49.49377818033099" lon="9.052229868248103">
<ele>206.2</ele>
<time>2024-05-10T14:33:34Z</time>
</trkpt>
<trkpt lat="49.493812546133995" lon="9.052227018401029">
<ele>206.4</ele>
<time>2024-05-10T14:33:35Z</time>
</trkpt>
<trkpt lat="49.49384682811797" lon="9.052225090563295">
<ele>206.6</ele>
<time>2024-05-10T14:33:36Z</time>
</trkpt>
<trkpt lat="49.49388119392097" lon="9.052227018401029">
<ele>206.8</ele>
<time>2024-05-10T14:33:37Z</time>
</trkpt>
<trkpt lat="49.493911704048514" lon="9.052227940410376">
<ele>207</ele>
<time>2024-05-10T14:33:38Z</time>
</trkpt>
<trkpt lat="49.49393844231963" lon="9.052231712266805">
<ele>207.2</ele>
<time>2024-05-10T14:33:39Z</time>
</trkpt>
<trkpt lat="49.49396509677172" lon="9.052233640104532">
<ele>207.4</ele>
<time>2024-05-10T14:33:40Z</time>
</trkpt>
<trkpt lat="49.493991835042834" lon="9.052229868248103">
<ele>207.6</ele>
<time>2024-05-10T14:33:41Z</time>
</trkpt>
<trkpt lat="49.49402234517038" lon="9.052233640104532">
<ele>207.6</ele>
<time>2024-05-10T14:33:42Z</time>
</trkpt>
<trkpt lat="49.49406425468624" lon="9.05223841778934">
<ele>207.8</ele>
<time>2024-05-10T14:33:43Z</time>
</trkpt>
<trkpt lat="49.4941024761647" lon="9.052246967330577">
<ele>208</ele>
<time>2024-05-10T14:33:44Z</time>
</trkpt>
<trkpt lat="49.49414061382413" lon="9.05225845053792">
<ele>208.2</ele>
<time>2024-05-10T14:33:45Z</time>
</trkpt>
<trkpt lat="49.49417112395167" lon="9.052267000079157">
<ele>208.4</ele>
<time>2024-05-10T14:33:46Z</time>
</trkpt>
<trkpt lat="49.494209261611104" lon="9.052283260971308">
<ele>208.6</ele>
<time>2024-05-10T14:33:47Z</time>
</trkpt>
<trkpt lat="49.49425117112696" lon="9.05230044387281">
<ele>208.8</ele>
<time>2024-05-10T14:33:48Z</time>
</trkpt>
<trkpt lat="49.49429702013731" lon="9.05231854878366">
<ele>209</ele>
<time>2024-05-10T14:33:49Z</time>
</trkpt>
<trkpt lat="49.49433515779674" lon="9.052331876009704">
<ele>209.2</ele>
<time>2024-05-10T14:33:50Z</time>
</trkpt>
<trkpt lat="49.4943770673126" lon="9.052346209064126">
<ele>209.4</ele>
<time>2024-05-10T14:33:51Z</time>
</trkpt>
<trkpt lat="49.49441520497203" lon="9.052366241812706">
<ele>209.4</ele>
<time>2024-05-10T14:33:52Z</time>
</trkpt>
<trkpt lat="49.49444957077503" lon="9.052383340895176">
<ele>209.6</ele>
<time>2024-05-10T14:33:53Z</time>
</trkpt>
<trkpt lat="49.494480080902576" lon="9.052399601787329">
<ele>209.6</ele>
<time>2024-05-10T14:33:54Z</time>
</trkpt>
<trkpt lat="49.49451821856201" lon="9.05241678468883">
<ele>209.6</ele>
<time>2024-05-10T14:33:55Z</time>
</trkpt>
<trkpt lat="49.49455635622144" lon="9.05243681743741">
<ele>209.8</ele>
<time>2024-05-10T14:33:56Z</time>
</trkpt>
<trkpt lat="49.49458686634898" lon="9.05245492234826">
<ele>210</ele>
<time>2024-05-10T14:33:57Z</time>
</trkpt>
<trkpt lat="49.49462508782744" lon="9.05247688293457">
<ele>210</ele>
<time>2024-05-10T14:33:58Z</time>
</trkpt>
<trkpt lat="49.494663225486875" lon="9.05249683186412">
<ele>210.2</ele>
<time>2024-05-10T14:33:59Z</time>
</trkpt>
<trkpt lat="49.49470513500273" lon="9.052515020594">
<ele>210.4</ele>
<time>2024-05-10T14:34:00Z</time>
</trkpt>
<trkpt lat="49.494739500805736" lon="9.052531197667122">
<ele>210.4</ele>
<time>2024-05-10T14:34:01Z</time>
</trkpt>
<trkpt lat="49.49477001093328" lon="9.052546452730894">
<ele>210.6</ele>
<time>2024-05-10T14:34:02Z</time>
</trkpt>
<trkpt lat="49.49480437673628" lon="9.052568413317204">
<ele>210.8</ele>
<time>2024-05-10T14:34:03Z</time>
</trkpt>
<trkpt lat="49.49483488686383" lon="9.052593223750591">
<ele>211</ele>
<time>2024-05-10T14:34:04Z</time>
</trkpt>
<trkpt lat="49.49486539699137" lon="9.052617028355598">
<ele>211</ele>
<time>2024-05-10T14:34:05Z</time>
</trkpt>
<trkpt lat="49.49489590711892" lon="9.052637983113527">
<ele>211.4</ele>
<time>2024-05-10T14:34:06Z</time>
</trkpt>
<trkpt lat="49.494922561571" lon="9.052668493241072">
<ele>211.6</ele>
<time>2024-05-10T14:34:07Z</time>
</trkpt>
<trkpt lat="49.49496455490589" lon="9.052702859044077">
<ele>211.8</ele>
<time>2024-05-10T14:34:08Z</time>
</trkpt>
<trkpt lat="49.49499506503344" lon="9.05273336917162">
<ele>212</ele>
<time>2024-05-10T14:34:09Z</time>
</trkpt>
<trkpt lat="49.495033202692866" lon="9.052756251767278">
<ele>212.2</ele>
<time>2024-05-10T14:34:10Z</time>
</trkpt>
<trkpt lat="49.49506756849587" lon="9.052782990038397">
<ele>212.4</ele>
<time>2024-05-10T14:34:11Z</time>
</trkpt>
<trkpt lat="49.49510185047984" lon="9.05280964449048">
<ele>212.6</ele>
<time>2024-05-10T14:34:12Z</time>
</trkpt>
<trkpt lat="49.4951400719583" lon="9.052842082455754">
<ele>213</ele>
<time>2024-05-10T14:34:13Z</time>
</trkpt>
<trkpt lat="49.49517058208585" lon="9.052874520421028">
<ele>213.2</ele>
<time>2024-05-10T14:34:14Z</time>
</trkpt>
<trkpt lat="49.49520871974528" lon="9.05290980823338">
<ele>213.4</ele>
<time>2024-05-10T14:34:15Z</time>
</trkpt>
<trkpt lat="49.49524685740471" lon="9.052941240370274">
<ele>213.6</ele>
<time>2024-05-10T14:34:16Z</time>
</trkpt>
<trkpt lat="49.49528113938868" lon="9.052973678335547">
<ele>214</ele>
<time>2024-05-10T14:34:17Z</time>
</trkpt>
<trkpt lat="49.49531173333526" lon="9.05300997197628">
<ele>214.2</ele>
<time>2024-05-10T14:34:18Z</time>
</trkpt>
<trkpt lat="49.49533838778734" lon="9.05304618179798">
<ele>214.4</ele>
<time>2024-05-10T14:34:19Z</time>
</trkpt>
<trkpt lat="49.49536889791489" lon="9.05308624729514">
<ele>214.4</ele>
<time>2024-05-10T14:34:20Z</time>
</trkpt>
<trkpt lat="49.49539940804243" lon="9.05312530696392">
<ele>214.6</ele>
<time>2024-05-10T14:34:21Z</time>
</trkpt>
<trkpt lat="49.495429918169975" lon="9.05316537246108">
<ele>214.8</ele>
<time>2024-05-10T14:34:22Z</time>
</trkpt>
<trkpt lat="49.49545665644109" lon="9.053201666101812">
<ele>214.8</ele>
<time>2024-05-10T14:34:23Z</time>
</trkpt>
<trkpt lat="49.49548716656864" lon="9.053239803761244">
<ele>215</ele>
<time>2024-05-10T14:34:24Z</time>
</trkpt>
<trkpt lat="49.495513904839754" lon="9.053279869258404">
<ele>215.2</ele>
<time>2024-05-10T14:34:25Z</time>
</trkpt>
<trkpt lat="49.49554055929184" lon="9.05332177877426">
<ele>215.4</ele>
<time>2024-05-10T14:34:26Z</time>
</trkpt>
<trkpt lat="49.4955634418875" lon="9.05336184427142">
<ele>215.4</ele>
<time>2024-05-10T14:34:27Z</time>
</trkpt>
<trkpt lat="49.49558632448315" lon="9.05340475961566">
<ele>215.6</ele>
<time>2024-05-10T14:34:28Z</time>
</trkpt>
<trkpt lat="49.49560543522239" lon="9.053449602797627">
<ele>215.6</ele>
<time>2024-05-10T14:34:29Z</time>
</trkpt>
<trkpt lat="49.495628317818046" lon="9.053495367988944">
<ele>215.8</ele>
<time>2024-05-10T14:34:30Z</time>
</trkpt>
<trkpt lat="49.495651200413704" lon="9.05354205518961">
<ele>215.8</ele>
<time>2024-05-10T14:34:31Z</time>
</trkpt>
<trkpt lat="49.49566645547747" lon="9.053589748218656">
<ele>215.8</ele>
<time>2024-05-10T14:34:32Z</time>
</trkpt>
<trkpt lat="49.49568556621671" lon="9.053636519238353">
<ele>216</ele>
<time>2024-05-10T14:34:33Z</time>
</trkpt>
<trkpt lat="49.49570459313691" lon="9.05368035659194">
<ele>216</ele>
<time>2024-05-10T14:34:34Z</time>
</trkpt>
<trkpt lat="49.49572370387614" lon="9.053723271936178">
<ele>216.2</ele>
<time>2024-05-10T14:34:35Z</time>
</trkpt>
<trkpt lat="49.49573895893991" lon="9.053770042955875">
<ele>216.4</ele>
<time>2024-05-10T14:34:36Z</time>
</trkpt>
<trkpt lat="49.49576184153557" lon="9.05381865799427">
<ele>216.8</ele>
<time>2024-05-10T14:34:37Z</time>
</trkpt>
<trkpt lat="49.49578086845577" lon="9.053866351023316">
<ele>217</ele>
<time>2024-05-10T14:34:38Z</time>
</trkpt>
<trkpt lat="49.495799979195" lon="9.053913038223982">
<ele>217.2</ele>
<time>2024-05-10T14:34:39Z</time>
</trkpt>
<trkpt lat="49.49582286179066" lon="9.053961737081409">
<ele>217.4</ele>
<time>2024-05-10T14:34:40Z</time>
</trkpt>
<trkpt lat="49.49583811685443" lon="9.054008424282074">
<ele>217.6</ele>
<time>2024-05-10T14:34:41Z</time>
</trkpt>
<trkpt lat="49.49586485512555" lon="9.054050417616963">
<ele>217.8</ele>
<time>2024-05-10T14:34:42Z</time>
</trkpt>
<trkpt lat="49.495887737721205" lon="9.054093332961202">
<ele>218</ele>
<time>2024-05-10T14:34:43Z</time>
</trkpt>
<trkpt lat="49.49591824784875" lon="9.05413817614317">
<ele>218</ele>
<time>2024-05-10T14:34:44Z</time>
</trkpt>
<trkpt lat="49.495948757976294" lon="9.054182013496757">
<ele>218.2</ele>
<time>2024-05-10T14:34:45Z</time>
</trkpt>
<trkpt lat="49.49597541242838" lon="9.054226856678724">
<ele>218.4</ele>
<time>2024-05-10T14:34:46Z</time>
</trkpt>
<trkpt lat="49.496006006374955" lon="9.054264994338157">
<ele>218.8</ele>
<time>2024-05-10T14:34:47Z</time>
</trkpt>
<trkpt lat="49.4960365165025" lon="9.054300282150509">
<ele>219</ele>
<time>2024-05-10T14:34:48Z</time>
</trkpt>
<trkpt lat="49.49606702663005" lon="9.0543317142874">
<ele>219.4</ele>
<time>2024-05-10T14:34:49Z</time>
</trkpt>
<trkpt lat="49.49609753675759" lon="9.054363230243323">
<ele>219.6</ele>
<time>2024-05-10T14:34:50Z</time>
</trkpt>
<trkpt lat="49.49612804688513" lon="9.054388040676711">
<ele>220</ele>
<time>2024-05-10T14:34:51Z</time>
</trkpt>
<trkpt lat="49.49615478515625" lon="9.05441377311945">
<ele>220.2</ele>
<time>2024-05-10T14:34:52Z</time>
</trkpt>
<trkpt lat="49.496185295283794" lon="9.054432800039647">
<ele>220.6</ele>
<time>2024-05-10T14:34:53Z</time>
</trkpt>
<trkpt lat="49.496219577267766" lon="9.054446211084723">
<ele>220.8</ele>
<time>2024-05-10T14:34:54Z</time>
</trkpt>
<trkpt lat="49.49625394307077" lon="9.054458616301416">
<ele>221</ele>
<time>2024-05-10T14:34:55Z</time>
</trkpt>
<trkpt lat="49.496284453198314" lon="9.054466243833303">
<ele>221.2</ele>
<time>2024-05-10T14:34:56Z</time>
</trkpt>
<trkpt lat="49.496318735182285" lon="9.054474793374538">
<ele>221.2</ele>
<time>2024-05-10T14:34:57Z</time>
</trkpt>
<trkpt lat="49.49634932912886" lon="9.054479571059346">
<ele>221.2</ele>
<time>2024-05-10T14:34:58Z</time>
</trkpt>
<trkpt lat="49.49638361111283" lon="9.054486192762852">
<ele>221.2</ele>
<time>2024-05-10T14:34:59Z</time>
</trkpt>
<trkpt lat="49.49641797691584" lon="9.054498597979546">
<ele>221.2</ele>
<time>2024-05-10T14:35:00Z</time>
</trkpt>
<trkpt lat="49.49644848704338" lon="9.054505303502085">
<ele>221.2</ele>
<time>2024-05-10T14:35:01Z</time>
</trkpt>
<trkpt lat="49.49648662470281" lon="9.05450815334916">
<ele>221.2</ele>
<time>2024-05-10T14:35:02Z</time>
</trkpt>
<trkpt lat="49.4965286180377" lon="9.054506225511432">
<ele>221.2</ele>
<time>2024-05-10T14:35:03Z</time>
</trkpt>
<trkpt lat="49.49657052755356" lon="9.054503375664352">
<ele>221.2</ele>
<time>2024-05-10T14:35:04Z</time>
</trkpt>
<trkpt lat="49.49661252088845" lon="9.054496753960848">
<ele>221.4</ele>
<time>2024-05-10T14:35:05Z</time>
</trkpt>
<trkpt lat="49.49665828607976" lon="9.05448812060058">
<ele>221.4</ele>
<time>2024-05-10T14:35:06Z</time>
</trkpt>
<trkpt lat="49.49669265188277" lon="9.054474793374538">
<ele>221.4</ele>
<time>2024-05-10T14:35:07Z</time>
</trkpt>
<trkpt lat="49.4967307895422" lon="9.054459538310766">
<ele>221.4</ele>
<time>2024-05-10T14:35:08Z</time>
</trkpt>
<trkpt lat="49.49676507152617" lon="9.054446211084723">
<ele>221.2</ele>
<time>2024-05-10T14:35:09Z</time>
</trkpt>
<trkpt lat="49.496814692392945" lon="9.0544318780303">
<ele>221.2</ele>
<time>2024-05-10T14:35:10Z</time>
</trkpt>
<trkpt lat="49.49686808511615" lon="9.054421400651336">
<ele>221.2</ele>
<time>2024-05-10T14:35:11Z</time>
</trkpt>
<trkpt lat="49.49691007845104" lon="9.054408073425291">
<ele>221.2</ele>
<time>2024-05-10T14:35:12Z</time>
</trkpt>
<trkpt lat="49.496955843642354" lon="9.054398518055676">
<ele>221.2</ele>
<time>2024-05-10T14:35:13Z</time>
</trkpt>
<trkpt lat="49.49700160883367" lon="9.054380413144829">
<ele>221.4</ele>
<time>2024-05-10T14:35:14Z</time>
</trkpt>
<trkpt lat="49.4970397464931" lon="9.054363230243323">
<ele>221.4</ele>
<time>2024-05-10T14:35:15Z</time>
</trkpt>
<trkpt lat="49.49707788415253" lon="9.05434981919825">
<ele>221.6</ele>
<time>2024-05-10T14:35:16Z</time>
</trkpt>
<trkpt lat="49.49711602181196" lon="9.0543317142874">
<ele>221.8</ele>
<time>2024-05-10T14:35:17Z</time>
</trkpt>
<trkpt lat="49.49715415947139" lon="9.054321236908436">
<ele>222</ele>
<time>2024-05-10T14:35:18Z</time>
</trkpt>
<trkpt lat="49.49719615280628" lon="9.05431168153882">
<ele>222.2</ele>
<time>2024-05-10T14:35:19Z</time>
</trkpt>
<trkpt lat="49.49723429046571" lon="9.054300282150509">
<ele>222.4</ele>
<time>2024-05-10T14:35:20Z</time>
</trkpt>
<trkpt lat="49.49727242812514" lon="9.05429357662797">
<ele>222.6</ele>
<time>2024-05-10T14:35:21Z</time>
</trkpt>
<trkpt lat="49.49731442146003" lon="9.054283099249004">
<ele>223</ele>
<time>2024-05-10T14:35:22Z</time>
</trkpt>
<trkpt lat="49.49735641479492" lon="9.054276393726468">
<ele>223.2</ele>
<time>2024-05-10T14:35:23Z</time>
</trkpt>
<trkpt lat="49.49739832431078" lon="9.054269772022964">
<ele>223.4</ele>
<time>2024-05-10T14:35:24Z</time>
</trkpt>
<trkpt lat="49.49744031764567" lon="9.054267844185231">
<ele>223.8</ele>
<time>2024-05-10T14:35:25Z</time>
</trkpt>
<trkpt lat="49.49748222716153" lon="9.054266922175884">
<ele>224</ele>
<time>2024-05-10T14:35:26Z</time>
</trkpt>
<trkpt lat="49.49752036482096" lon="9.054264994338157">
<ele>224.2</ele>
<time>2024-05-10T14:35:27Z</time>
</trkpt>
<trkpt lat="49.49755858629942" lon="9.054258288815618">
<ele>224.6</ele>
<time>2024-05-10T14:35:28Z</time>
</trkpt>
<trkpt lat="49.49759672395885" lon="9.05425451695919">
<ele>224.8</ele>
<time>2024-05-10T14:35:29Z</time>
</trkpt>
<trkpt lat="49.49763486161828" lon="9.054249739274384">
<ele>225</ele>
<time>2024-05-10T14:35:30Z</time>
</trkpt>
<trkpt lat="49.49767299927771" lon="9.054249739274384">
<ele>225.4</ele>
<time>2024-05-10T14:35:31Z</time>
</trkpt>
<trkpt lat="49.49771113693714" lon="9.05425351113081">
<ele>225.6</ele>
<time>2024-05-10T14:35:32Z</time>
</trkpt>
<trkpt lat="49.497745502740145" lon="9.054260216653349">
<ele>226</ele>
<time>2024-05-10T14:35:33Z</time>
</trkpt>
<trkpt lat="49.497783640399575" lon="9.054264994338157">
<ele>226</ele>
<time>2024-05-10T14:35:34Z</time>
</trkpt>
<trkpt lat="49.49782554991543" lon="9.054269772022964">
<ele>226.2</ele>
<time>2024-05-10T14:35:35Z</time>
</trkpt>
<trkpt lat="49.49786368757486" lon="9.054276393726468">
<ele>226.2</ele>
<time>2024-05-10T14:35:36Z</time>
</trkpt>
<trkpt lat="49.497901909053326" lon="9.054283099249004">
<ele>226.2</ele>
<time>2024-05-10T14:35:37Z</time>
</trkpt>
<trkpt lat="49.49794004671275" lon="9.054287876933811">
<ele>226.4</ele>
<time>2024-05-10T14:35:38Z</time>
</trkpt>
<trkpt lat="49.49797818437219" lon="9.05429357662797">
<ele>226.4</ele>
<time>2024-05-10T14:35:39Z</time>
</trkpt>
<trkpt lat="49.49801632203162" lon="9.054301204159856">
<ele>226.4</ele>
<time>2024-05-10T14:35:40Z</time>
</trkpt>
<trkpt lat="49.49805831536651" lon="9.05431168153882">
<ele>226.6</ele>
<time>2024-05-10T14:35:41Z</time>
</trkpt>
<trkpt lat="49.49810022488237" lon="9.054321236908436">
<ele>226.6</ele>
<time>2024-05-10T14:35:42Z</time>
</trkpt>
<trkpt lat="49.498138362541795" lon="9.05433364212513">
<ele>226.6</ele>
<time>2024-05-10T14:35:43Z</time>
</trkpt>
<trkpt lat="49.498176500201225" lon="9.054345125332476">
<ele>226.6</ele>
<time>2024-05-10T14:35:44Z</time>
</trkpt>
<trkpt lat="49.49821086600423" lon="9.054358452558516">
<ele>226.6</ele>
<time>2024-05-10T14:35:45Z</time>
</trkpt>
<trkpt lat="49.49824523180723" lon="9.05437177978456">
<ele>226.6</ele>
<time>2024-05-10T14:35:46Z</time>
</trkpt>
<trkpt lat="49.49828336946666" lon="9.054385107010605">
<ele>226.6</ele>
<time>2024-05-10T14:35:47Z</time>
</trkpt>
<trkpt lat="49.49831002391875" lon="9.054396590217948">
<ele>226.8</ele>
<time>2024-05-10T14:35:48Z</time>
</trkpt>
<trkpt lat="49.49834438972175" lon="9.054407067596912">
<ele>226.8</ele>
<time>2024-05-10T14:35:49Z</time>
</trkpt>
<trkpt lat="49.498374899849296" lon="9.054416622966528">
<ele>227</ele>
<time>2024-05-10T14:35:50Z</time>
</trkpt>
<trkpt lat="49.498416893184185" lon="9.054432800039647">
<ele>227</ele>
<time>2024-05-10T14:35:51Z</time>
</trkpt>
<trkpt lat="49.498455030843616" lon="9.05445191077888">
<ele>227.2</ele>
<time>2024-05-10T14:35:52Z</time>
</trkpt>
<trkpt lat="49.49849694035947" lon="9.05447194352746">
<ele>227.2</ele>
<time>2024-05-10T14:35:53Z</time>
</trkpt>
<trkpt lat="49.498535078018904" lon="9.05449197627604">
<ele>227.4</ele>
<time>2024-05-10T14:35:54Z</time>
</trkpt>
<trkpt lat="49.498573299497366" lon="9.05450815334916">
<ele>227.4</ele>
<time>2024-05-10T14:35:55Z</time>
</trkpt>
<trkpt lat="49.49860758148134" lon="9.054525336250665">
<ele>227.4</ele>
<time>2024-05-10T14:35:56Z</time>
</trkpt>
<trkpt lat="49.49864957481623" lon="9.054545368999245">
<ele>227.4</ele>
<time>2024-05-10T14:35:57Z</time>
</trkpt>
<trkpt lat="49.498691484332085" lon="9.054565401747825">
<ele>227.6</ele>
<time>2024-05-10T14:35:58Z</time>
</trkpt>
<trkpt lat="49.49872970581055" lon="9.054583506658672">
<ele>227.6</ele>
<time>2024-05-10T14:35:59Z</time>
</trkpt>
<trkpt lat="49.498771615326405" lon="9.054598761722444">
<ele>227.8</ele>
<time>2024-05-10T14:36:00Z</time>
</trkpt>
<trkpt lat="49.498809752985835" lon="9.054613094776869">
<ele>228</ele>
<time>2024-05-10T14:36:01Z</time>
</trkpt>
<trkpt lat="49.49885174632072" lon="9.05462834984064">
<ele>228</ele>
<time>2024-05-10T14:36:02Z</time>
</trkpt>
<trkpt lat="49.49889365583658" lon="9.054644526913762">
<ele>228.2</ele>
<time>2024-05-10T14:36:03Z</time>
</trkpt>
<trkpt lat="49.49893187731504" lon="9.054659781977534">
<ele>228.4</ele>
<time>2024-05-10T14:36:04Z</time>
</trkpt>
<trkpt lat="49.4989737868309" lon="9.054676964879036">
<ele>228.4</ele>
<time>2024-05-10T14:36:05Z</time>
</trkpt>
<trkpt lat="49.49901192449033" lon="9.054686520248652">
<ele>228.6</ele>
<time>2024-05-10T14:36:06Z</time>
</trkpt>
<trkpt lat="49.49905391782522" lon="9.054695069789886">
<ele>228.8</ele>
<time>2024-05-10T14:36:07Z</time>
</trkpt>
<trkpt lat="49.49909205548465" lon="9.05470848083496">
<ele>229</ele>
<time>2024-05-10T14:36:08Z</time>
</trkpt>
<trkpt lat="49.499126421287656" lon="9.054717030376196">
<ele>229</ele>
<time>2024-05-10T14:36:09Z</time>
</trkpt>
<trkpt lat="49.49916833080351" lon="9.05473035760224">
<ele>229.2</ele>
<time>2024-05-10T14:36:10Z</time>
</trkpt>
<trkpt lat="49.49920269660652" lon="9.054741840809584">
<ele>229.4</ele>
<time>2024-05-10T14:36:11Z</time>
</trkpt>
<trkpt lat="49.49924083426595" lon="9.0547513961792">
<ele>229.4</ele>
<time>2024-05-10T14:36:12Z</time>
</trkpt>
<trkpt lat="49.49927134439349" lon="9.054758017882705">
<ele>229.6</ele>
<time>2024-05-10T14:36:13Z</time>
</trkpt>
<trkpt lat="49.49930185452104" lon="9.054759945720434">
<ele>229.8</ele>
<time>2024-05-10T14:36:14Z</time>
</trkpt>
<trkpt lat="49.49933622032404" lon="9.054766651242971">
<ele>229.8</ele>
<time>2024-05-10T14:36:15Z</time>
</trkpt>
<trkpt lat="49.499366730451584" lon="9.054771345108747">
<ele>230</ele>
<time>2024-05-10T14:36:16Z</time>
</trkpt>
<trkpt lat="49.49939724057913" lon="9.054775200784206">
<ele>230.2</ele>
<time>2024-05-10T14:36:17Z</time>
</trkpt>
<trkpt lat="49.49942012317479" lon="9.054782828316092">
<ele>230.2</ele>
<time>2024-05-10T14:36:18Z</time>
</trkpt>
<trkpt lat="49.49945063330233" lon="9.05478953383863">
<ele>230.4</ele>
<time>2024-05-10T14:36:19Z</time>
</trkpt>
<trkpt lat="49.499481143429875" lon="9.054795233532786">
<ele>230.4</ele>
<time>2024-05-10T14:36:20Z</time>
</trkpt>
<trkpt lat="49.49950788170099" lon="9.054798083379865">
<ele>230.6</ele>
<time>2024-05-10T14:36:21Z</time>
</trkpt>
<trkpt lat="49.49953076429665" lon="9.054800011217594">
<ele>230.6</ele>
<time>2024-05-10T14:36:22Z</time>
</trkpt>
<trkpt lat="49.49954979121685" lon="9.0548066329211">
<ele>230.6</ele>
<time>2024-05-10T14:36:23Z</time>
</trkpt>
<trkpt lat="49.49957652948797" lon="9.0548066329211">
<ele>230.6</ele>
<time>2024-05-10T14:36:24Z</time>
</trkpt>
<trkpt lat="49.49960703961551" lon="9.0548066329211">
<ele>230.6</ele>
<time>2024-05-10T14:36:25Z</time>
</trkpt>
<trkpt lat="49.49964517727494" lon="9.054801939055324">
<ele>230.6</ele>
<time>2024-05-10T14:36:26Z</time>
</trkpt>
<trkpt lat="49.499679543077946" lon="9.054798083379865">
<ele>230.6</ele>
<time>2024-05-10T14:36:27Z</time>
</trkpt>
<trkpt lat="49.49971005320549" lon="9.054800011217594">
<ele>230.8</ele>
<time>2024-05-10T14:36:28Z</time>
</trkpt>
<trkpt lat="49.499736707657576" lon="9.054802861064672">
<ele>230.8</ele>
<time>2024-05-10T14:36:29Z</time>
</trkpt>
<trkpt lat="49.49976730160415" lon="9.0548066329211">
<ele>231</ele>
<time>2024-05-10T14:36:30Z</time>
</trkpt>
<trkpt lat="49.49980158358812" lon="9.05480956658721">
<ele>231.2</ele>
<time>2024-05-10T14:36:31Z</time>
</trkpt>
<trkpt lat="49.49982832185924" lon="9.054816188290715">
<ele>231.4</ele>
<time>2024-05-10T14:36:32Z</time>
</trkpt>
<trkpt lat="49.499858831986785" lon="9.054822893813252">
<ele>231.6</ele>
<time>2024-05-10T14:36:33Z</time>
</trkpt>
<trkpt lat="49.49989311397076" lon="9.054829515516758">
<ele>231.8</ele>
<time>2024-05-10T14:36:34Z</time>
</trkpt>
<trkpt lat="49.49993133544922" lon="9.054824821650982">
<ele>232</ele>
<time>2024-05-10T14:36:35Z</time>
</trkpt>
<trkpt lat="49.49996184557676" lon="9.054824821650982">
<ele>232.2</ele>
<time>2024-05-10T14:36:36Z</time>
</trkpt>
<trkpt lat="49.499999983236194" lon="9.05482666566968">
<ele>232.4</ele>
<time>2024-05-10T14:36:37Z</time>
</trkpt>
<trkpt lat="49.50003049336374" lon="9.054828593507407">
<ele>232.4</ele>
<time>2024-05-10T14:36:38Z</time>
</trkpt>
<trkpt lat="49.50006477534771" lon="9.054833371192217">
<ele>232.4</ele>
<time>2024-05-10T14:36:39Z</time>
</trkpt>
<trkpt lat="49.5001067686826" lon="9.054835299029946">
<ele>232.6</ele>
<time>2024-05-10T14:36:40Z</time>
</trkpt>
<trkpt lat="49.50013350695371" lon="9.054840076714754">
<ele>232.6</ele>
<time>2024-05-10T14:36:41Z</time>
</trkpt>
<trkpt lat="49.500156389549375" lon="9.054842926561832">
<ele>232.6</ele>
<time>2024-05-10T14:36:42Z</time>
</trkpt>
<trkpt lat="49.50017927214503" lon="9.05484669841826">
<ele>232.8</ele>
<time>2024-05-10T14:36:43Z</time>
</trkpt>
<trkpt lat="49.50020978227258" lon="9.054848626255987">
<ele>232.8</ele>
<time>2024-05-10T14:36:44Z</time>
</trkpt>
<trkpt lat="49.50024406425655" lon="9.054848626255987">
<ele>232.8</ele>
<time>2024-05-10T14:36:45Z</time>
</trkpt>
<trkpt lat="49.50028228573501" lon="9.054848626255987">
<ele>232.8</ele>
<time>2024-05-10T14:36:46Z</time>
</trkpt>
<trkpt lat="49.50031656771898" lon="9.054856253787875">
<ele>232.8</ele>
<time>2024-05-10T14:36:47Z</time>
</trkpt>
<trkpt lat="49.5003433059901" lon="9.054860109463334">
<ele>233</ele>
<time>2024-05-10T14:36:48Z</time>
</trkpt>
<trkpt lat="49.500369960442185" lon="9.05486673116684">
<ele>233</ele>
<time>2024-05-10T14:36:49Z</time>
</trkpt>
<trkpt lat="49.50039284303784" lon="9.054871508851647">
<ele>233.2</ele>
<time>2024-05-10T14:36:50Z</time>
</trkpt>
<trkpt lat="49.50041958130896" lon="9.054880142211914">
<ele>233.4</ele>
<time>2024-05-10T14:36:51Z</time>
</trkpt>
<trkpt lat="49.50044631958008" lon="9.054888691753147">
<ele>233.4</ele>
<time>2024-05-10T14:36:52Z</time>
</trkpt>
<trkpt lat="49.50047682970762" lon="9.054893469437957">
<ele>233.6</ele>
<time>2024-05-10T14:36:53Z</time>
</trkpt>
<trkpt lat="49.500511111691594" lon="9.054902018979192">
<ele>233.6</ele>
<time>2024-05-10T14:36:54Z</time>
</trkpt>
<trkpt lat="49.5005454774946" lon="9.054908724501727">
<ele>233.8</ele>
<time>2024-05-10T14:36:55Z</time>
</trkpt>
<trkpt lat="49.50057975947857" lon="9.054922051727772">
<ele>233.8</ele>
<time>2024-05-10T14:36:56Z</time>
</trkpt>
<trkpt lat="49.50061026960611" lon="9.054936384782197">
<ele>234</ele>
<time>2024-05-10T14:36:57Z</time>
</trkpt>
<trkpt lat="49.500648491084576" lon="9.054949712008238">
<ele>234</ele>
<time>2024-05-10T14:36:58Z</time>
</trkpt>
<trkpt lat="49.50067900121212" lon="9.05496496707201">
<ele>234.2</ele>
<time>2024-05-10T14:36:59Z</time>
</trkpt>
<trkpt lat="49.50071328319609" lon="9.054980222135782">
<ele>234.4</ele>
<time>2024-05-10T14:37:00Z</time>
</trkpt>
<trkpt lat="49.50074379332363" lon="9.055000254884362">
<ele>234.6</ele>
<time>2024-05-10T14:37:01Z</time>
</trkpt>
<trkpt lat="49.50077815912664" lon="9.05502313748002">
<ele>234.8</ele>
<time>2024-05-10T14:37:02Z</time>
</trkpt>
<trkpt lat="49.500808669254184" lon="9.055049875751138">
<ele>235</ele>
<time>2024-05-10T14:37:03Z</time>
</trkpt>
<trkpt lat="49.50083917938173" lon="9.055074686184524">
<ele>235.2</ele>
<time>2024-05-10T14:37:04Z</time>
</trkpt>
<trkpt lat="49.50086968950927" lon="9.055098490789533">
<ele>235.4</ele>
<time>2024-05-10T14:37:05Z</time>
</trkpt>
<trkpt lat="49.50090019963682" lon="9.05512615107">
<ele>235.6</ele>
<time>2024-05-10T14:37:06Z</time>
</trkpt>
<trkpt lat="49.50093070976436" lon="9.055152889341116">
<ele>235.6</ele>
<time>2024-05-10T14:37:07Z</time>
</trkpt>
<trkpt lat="49.50096130371094" lon="9.055178621783853">
<ele>235.8</ele>
<time>2024-05-10T14:37:08Z</time>
</trkpt>
<trkpt lat="49.50099181383848" lon="9.05520343221724">
<ele>236</ele>
<time>2024-05-10T14:37:09Z</time>
</trkpt>
<trkpt lat="49.50101846829057" lon="9.055232936516404">
<ele>236</ele>
<time>2024-05-10T14:37:10Z</time>
</trkpt>
<trkpt lat="49.50105283409357" lon="9.055265374481678">
<ele>236</ele>
<time>2024-05-10T14:37:11Z</time>
</trkpt>
<trkpt lat="49.50108711607754" lon="9.0552987344563">
<ele>236.2</ele>
<time>2024-05-10T14:37:12Z</time>
</trkpt>
<trkpt lat="49.50111385434866" lon="9.055330250412226">
<ele>236.2</ele>
<time>2024-05-10T14:37:13Z</time>
</trkpt>
<trkpt lat="49.50114059261978" lon="9.055363610386848">
<ele>236.2</ele>
<time>2024-05-10T14:37:14Z</time>
</trkpt>
<trkpt lat="49.50116724707186" lon="9.055397976189852">
<ele>236.2</ele>
<time>2024-05-10T14:37:15Z</time>
</trkpt>
<trkpt lat="49.50119398534298" lon="9.055428486317396">
<ele>236.4</ele>
<time>2024-05-10T14:37:16Z</time>
</trkpt>
<trkpt lat="49.50121686793864" lon="9.055463774129748">
<ele>236.6</ele>
<time>2024-05-10T14:37:17Z</time>
</trkpt>
<trkpt lat="49.50124352239072" lon="9.05549998395145">
<ele>236.8</ele>
<time>2024-05-10T14:37:18Z</time>
</trkpt>
<trkpt lat="49.50126640498638" lon="9.05554004944861">
<ele>236.8</ele>
<time>2024-05-10T14:37:19Z</time>
</trkpt>
<trkpt lat="49.50128928758204" lon="9.05557818710804">
<ele>237</ele>
<time>2024-05-10T14:37:20Z</time>
</trkpt>
<trkpt lat="49.50131225399673" lon="9.05562018044293">
<ele>237.2</ele>
<time>2024-05-10T14:37:21Z</time>
</trkpt>
<trkpt lat="49.50133513659239" lon="9.05566024594009">
<ele>237.4</ele>
<time>2024-05-10T14:37:22Z</time>
</trkpt>
<trkpt lat="49.50135801918805" lon="9.055701233446598">
<ele>237.6</ele>
<time>2024-05-10T14:37:23Z</time>
</trkpt>
<trkpt lat="49.501380901783705" lon="9.055746998637916">
<ele>237.8</ele>
<time>2024-05-10T14:37:24Z</time>
</trkpt>
<trkpt lat="49.501399928703904" lon="9.055787986144423">
<ele>238.2</ele>
<time>2024-05-10T14:37:25Z</time>
</trkpt>
<trkpt lat="49.50142281129956" lon="9.055831907317042">
<ele>238.4</ele>
<time>2024-05-10T14:37:26Z</time>
</trkpt>
<trkpt lat="49.501441922038794" lon="9.05587482266128">
<ele>238.8</ele>
<time>2024-05-10T14:37:27Z</time>
</trkpt>
<trkpt lat="49.50146480463445" lon="9.055918660014868">
<ele>239.2</ele>
<time>2024-05-10T14:37:28Z</time>
</trkpt>
<trkpt lat="49.50148391537368" lon="9.055965347215531">
<ele>239.8</ele>
<time>2024-05-10T14:37:29Z</time>
</trkpt>
<trkpt lat="49.50150294229388" lon="9.05601304024458">
<ele>240.2</ele>
<time>2024-05-10T14:37:30Z</time>
</trkpt>
<trkpt lat="49.501518197357655" lon="9.056064588949084">
<ele>240.6</ele>
<time>2024-05-10T14:37:31Z</time>
</trkpt>
<trkpt lat="49.50154107995331" lon="9.05611320398748">
<ele>240.8</ele>
<time>2024-05-10T14:37:32Z</time>
</trkpt>
<trkpt lat="49.501560190692544" lon="9.056161819025874">
<ele>241.2</ele>
<time>2024-05-10T14:37:33Z</time>
</trkpt>
<trkpt lat="49.50157921761274" lon="9.056206662207842">
<ele>241.4</ele>
<time>2024-05-10T14:37:34Z</time>
</trkpt>
<trkpt lat="49.501598328351974" lon="9.056255277246237">
<ele>241.6</ele>
<time>2024-05-10T14:37:35Z</time>
</trkpt>
<trkpt lat="49.501617355272174" lon="9.056302048265934">
<ele>241.8</ele>
<time>2024-05-10T14:37:36Z</time>
</trkpt>
<trkpt lat="49.501636466011405" lon="9.056346891447902">
<ele>242</ele>
<time>2024-05-10T14:37:37Z</time>
</trkpt>
<trkpt lat="49.50165557675064" lon="9.056393578648567">
<ele>242.2</ele>
<time>2024-05-10T14:37:38Z</time>
</trkpt>
<trkpt lat="49.501674603670835" lon="9.056441271677611">
<ele>242.4</ele>
<time>2024-05-10T14:37:39Z</time>
</trkpt>
<trkpt lat="49.50169371441007" lon="9.0564851090312">
<ele>242.6</ele>
<time>2024-05-10T14:37:40Z</time>
</trkpt>
<trkpt lat="49.501716597005725" lon="9.05652802437544">
<ele>242.8</ele>
<time>2024-05-10T14:37:41Z</time>
</trkpt>
<trkpt lat="49.50173562392592" lon="9.056574795395136">
<ele>243</ele>
<time>2024-05-10T14:37:42Z</time>
</trkpt>
<trkpt lat="49.501754734665155" lon="9.05662341043353">
<ele>243.2</ele>
<time>2024-05-10T14:37:43Z</time>
</trkpt>
<trkpt lat="49.50176998972893" lon="9.0566682536155">
<ele>243.2</ele>
<time>2024-05-10T14:37:44Z</time>
</trkpt>
<trkpt lat="49.50178901664913" lon="9.056713096797466">
<ele>243.4</ele>
<time>2024-05-10T14:37:45Z</time>
</trkpt>
<trkpt lat="49.50180812738836" lon="9.056759783998132">
<ele>243.6</ele>
<time>2024-05-10T14:37:46Z</time>
</trkpt>
<trkpt lat="49.50182338245213" lon="9.056810326874256">
<ele>243.8</ele>
<time>2024-05-10T14:37:47Z</time>
</trkpt>
<trkpt lat="49.50185012072325" lon="9.056859947741032">
<ele>244</ele>
<time>2024-05-10T14:37:48Z</time>
</trkpt>
<trkpt lat="49.501873003318906" lon="9.056913340464234">
<ele>244</ele>
<time>2024-05-10T14:37:49Z</time>
</trkpt>
<trkpt lat="49.501892030239105" lon="9.056968661025168">
<ele>244</ele>
<time>2024-05-10T14:37:50Z</time>
</trkpt>
<trkpt lat="49.50191491283476" lon="9.05702205374837">
<ele>244.2</ele>
<time>2024-05-10T14:37:51Z</time>
</trkpt>
<trkpt lat="49.50193779543042" lon="9.057074524462225">
<ele>244.4</ele>
<time>2024-05-10T14:37:52Z</time>
</trkpt>
<trkpt lat="49.50196067802608" lon="9.057126995176075">
<ele>244.6</ele>
<time>2024-05-10T14:37:53Z</time>
</trkpt>
<trkpt lat="49.50198356062174" lon="9.057181309908628">
<ele>244.8</ele>
<time>2024-05-10T14:37:54Z</time>
</trkpt>
<trkpt lat="49.50199889950454" lon="9.05723948031664">
<ele>245</ele>
<time>2024-05-10T14:37:55Z</time>
</trkpt>
<trkpt lat="49.50201792642474" lon="9.0572967287153">
<ele>245.2</ele>
<time>2024-05-10T14:37:56Z</time>
</trkpt>
<trkpt lat="49.502033181488514" lon="9.057352049276233">
<ele>245.2</ele>
<time>2024-05-10T14:37:57Z</time>
</trkpt>
<trkpt lat="49.502048436552286" lon="9.057406364008784">
<ele>245.2</ele>
<time>2024-05-10T14:37:58Z</time>
</trkpt>
<trkpt lat="49.50205991975963" lon="9.057459756731989">
<ele>245.4</ele>
<time>2024-05-10T14:37:59Z</time>
</trkpt>
<trkpt lat="49.5020751748234" lon="9.057511305436492">
<ele>245.4</ele>
<time>2024-05-10T14:38:00Z</time>
</trkpt>
<trkpt lat="49.502090429887176" lon="9.057564698159696">
<ele>245.4</ele>
<time>2024-05-10T14:38:01Z</time>
</trkpt>
<trkpt lat="49.502109456807375" lon="9.057618090882896">
<ele>245.4</ele>
<time>2024-05-10T14:38:02Z</time>
</trkpt>
<trkpt lat="49.502128567546606" lon="9.057669639587402">
<ele>245.4</ele>
<time>2024-05-10T14:38:03Z</time>
</trkpt>
<trkpt lat="49.50214382261038" lon="9.057724876329305">
<ele>245.6</ele>
<time>2024-05-10T14:38:04Z</time>
</trkpt>
<trkpt lat="49.50216293334961" lon="9.057781202718616">
<ele>245.6</ele>
<time>2024-05-10T14:38:05Z</time>
</trkpt>
<trkpt lat="49.50217818841338" lon="9.057838367298244">
<ele>245.8</ele>
<time>2024-05-10T14:38:06Z</time>
</trkpt>
<trkpt lat="49.50219721533358" lon="9.057896537706256">
<ele>246</ele>
<time>2024-05-10T14:38:07Z</time>
</trkpt>
<trkpt lat="49.50221632607281" lon="9.057956635951996">
<ele>246.2</ele>
<time>2024-05-10T14:38:08Z</time>
</trkpt>
<trkpt lat="49.502231581136584" lon="9.058019584044814">
<ele>246.4</ele>
<time>2024-05-10T14:38:09Z</time>
</trkpt>
<trkpt lat="49.502250608056784" lon="9.05808345414698">
<ele>246.6</ele>
<time>2024-05-10T14:38:10Z</time>
</trkpt>
<trkpt lat="49.502269718796015" lon="9.058141708374023">
<ele>246.8</ele>
<time>2024-05-10T14:38:11Z</time>
</trkpt>
<trkpt lat="49.50228497385979" lon="9.058201722800732">
<ele>246.8</ele>
<time>2024-05-10T14:38:12Z</time>
</trkpt>
<trkpt lat="49.502304000779986" lon="9.058257043361664">
<ele>247</ele>
<time>2024-05-10T14:38:13Z</time>
</trkpt>
<trkpt lat="49.50231925584376" lon="9.058311441913249">
<ele>246.8</ele>
<time>2024-05-10T14:38:14Z</time>
</trkpt>
<trkpt lat="49.50233836658299" lon="9.05836483463645">
<ele>246.8</ele>
<time>2024-05-10T14:38:15Z</time>
</trkpt>
<trkpt lat="49.50235362164676" lon="9.058420155197382">
<ele>246.8</ele>
<time>2024-05-10T14:38:16Z</time>
</trkpt>
<trkpt lat="49.50237650424242" lon="9.058473547920585">
<ele>246.6</ele>
<time>2024-05-10T14:38:17Z</time>
</trkpt>
<trkpt lat="49.50239561498165" lon="9.05852124094963">
<ele>246.6</ele>
<time>2024-05-10T14:38:18Z</time>
</trkpt>
<trkpt lat="49.50242226943374" lon="9.058571783825755">
<ele>246.6</ele>
<time>2024-05-10T14:38:19Z</time>
</trkpt>
<trkpt lat="49.502445152029395" lon="9.058614699169992">
<ele>246.6</ele>
<time>2024-05-10T14:38:20Z</time>
</trkpt>
<trkpt lat="49.50247566215694" lon="9.058654764667152">
<ele>246.6</ele>
<time>2024-05-10T14:38:21Z</time>
</trkpt>
<trkpt lat="49.50250625610352" lon="9.05869860202074">
<ele>246.8</ele>
<time>2024-05-10T14:38:22Z</time>
</trkpt>
<trkpt lat="49.5025329105556" lon="9.05874151736498">
<ele>246.8</ele>
<time>2024-05-10T14:38:23Z</time>
</trkpt>
<trkpt lat="49.502563420683146" lon="9.058783510699868">
<ele>246.8</ele>
<time>2024-05-10T14:38:24Z</time>
</trkpt>
<trkpt lat="49.50259778648615" lon="9.0588216483593">
<ele>246.8</ele>
<time>2024-05-10T14:38:25Z</time>
</trkpt>
<trkpt lat="49.50263206847012" lon="9.05885693617165">
<ele>247</ele>
<time>2024-05-10T14:38:26Z</time>
</trkpt>
<trkpt lat="49.50266643427312" lon="9.058890296146274">
<ele>246.8</ele>
<time>2024-05-10T14:38:27Z</time>
</trkpt>
<trkpt lat="49.50270080007613" lon="9.058923656120896">
<ele>246.8</ele>
<time>2024-05-10T14:38:28Z</time>
</trkpt>
<trkpt lat="49.5027350820601" lon="9.058953244239092">
<ele>246.8</ele>
<time>2024-05-10T14:38:29Z</time>
</trkpt>
<trkpt lat="49.50277321971953" lon="9.05897805467248">
<ele>246.8</ele>
<time>2024-05-10T14:38:30Z</time>
</trkpt>
<trkpt lat="49.50281521305442" lon="9.05899808742106">
<ele>246.8</ele>
<time>2024-05-10T14:38:31Z</time>
</trkpt>
<trkpt lat="49.50285335071385" lon="9.05901812016964">
<ele>246.6</ele>
<time>2024-05-10T14:38:32Z</time>
</trkpt>
<trkpt lat="49.50289534404874" lon="9.05903622508049">
<ele>246.6</ele>
<time>2024-05-10T14:38:33Z</time>
</trkpt>
<trkpt lat="49.50293725356459" lon="9.05905525200069">
<ele>246.4</ele>
<time>2024-05-10T14:38:34Z</time>
</trkpt>
<trkpt lat="49.50297539122403" lon="9.059068663045764">
<ele>246.4</ele>
<time>2024-05-10T14:38:35Z</time>
</trkpt>
<trkpt lat="49.50300975702703" lon="9.059080062434075">
<ele>246.4</ele>
<time>2024-05-10T14:38:36Z</time>
</trkpt>
<trkpt lat="49.50304412283003" lon="9.059086767956614">
<ele>246.2</ele>
<time>2024-05-10T14:38:37Z</time>
</trkpt>
<trkpt lat="49.503078404814005" lon="9.059098167344928">
<ele>246.2</ele>
<time>2024-05-10T14:38:38Z</time>
</trkpt>
<trkpt lat="49.50311277061701" lon="9.059111578390002">
<ele>246</ele>
<time>2024-05-10T14:38:39Z</time>
</trkpt>
<trkpt lat="49.50315090827644" lon="9.059122977778316">
<ele>246</ele>
<time>2024-05-10T14:38:40Z</time>
</trkpt>
<trkpt lat="49.50319290161133" lon="9.059138232842088">
<ele>245.8</ele>
<time>2024-05-10T14:38:41Z</time>
</trkpt>
<trkpt lat="49.503234811127186" lon="9.05915348790586">
<ele>245.6</ele>
<time>2024-05-10T14:38:42Z</time>
</trkpt>
<trkpt lat="49.503272948786616" lon="9.059167820960283">
<ele>245.6</ele>
<time>2024-05-10T14:38:43Z</time>
</trkpt>
<trkpt lat="49.503314942121506" lon="9.059180226176975">
<ele>245.4</ele>
<time>2024-05-10T14:38:44Z</time>
</trkpt>
<trkpt lat="49.50335685163736" lon="9.05919355340302">
<ele>245.2</ele>
<time>2024-05-10T14:38:45Z</time>
</trkpt>
<trkpt lat="49.503395073115826" lon="9.059206880629064">
<ele>245.2</ele>
<time>2024-05-10T14:38:46Z</time>
</trkpt>
<trkpt lat="49.50343698263168" lon="9.059218363836408">
<ele>245</ele>
<time>2024-05-10T14:38:47Z</time>
</trkpt>
<trkpt lat="49.503475120291114" lon="9.05923169106245">
<ele>245</ele>
<time>2024-05-10T14:38:48Z</time>
</trkpt>
<trkpt lat="49.503517113626" lon="9.059243174269795">
<ele>245.2</ele>
<time>2024-05-10T14:38:49Z</time>
</trkpt>
<trkpt lat="49.50355910696089" lon="9.059256501495838">
<ele>245.2</ele>
<time>2024-05-10T14:38:50Z</time>
</trkpt>
<trkpt lat="49.50359724462032" lon="9.059267984703183">
<ele>245.2</ele>
<time>2024-05-10T14:38:51Z</time>
</trkpt>
<trkpt lat="49.50364300981164" lon="9.059278462082148">
<ele>245.4</ele>
<time>2024-05-10T14:38:52Z</time>
</trkpt>
<trkpt lat="49.5036849193275" lon="9.05928986147046">
<ele>245.4</ele>
<time>2024-05-10T14:38:53Z</time>
</trkpt>
<trkpt lat="49.50372314080596" lon="9.059305116534231">
<ele>245.6</ele>
<time>2024-05-10T14:38:54Z</time>
</trkpt>
<trkpt lat="49.50376505032182" lon="9.059325149282811">
<ele>245.6</ele>
<time>2024-05-10T14:38:55Z</time>
</trkpt>
<trkpt lat="49.50380318798125" lon="9.059345182031391">
<ele>245.6</ele>
<time>2024-05-10T14:38:56Z</time>
</trkpt>
<trkpt lat="49.50384518131614" lon="9.059366220608354">
<ele>245.8</ele>
<time>2024-05-10T14:38:57Z</time>
</trkpt>
<trkpt lat="49.50388717465103" lon="9.05939195305109">
<ele>245.8</ele>
<time>2024-05-10T14:38:58Z</time>
</trkpt>
<trkpt lat="49.50393293984234" lon="9.059414835646749">
<ele>246</ele>
<time>2024-05-10T14:38:59Z</time>
</trkpt>
<trkpt lat="49.5039748493582" lon="9.059439646080136">
<ele>246.2</ele>
<time>2024-05-10T14:39:00Z</time>
</trkpt>
<trkpt lat="49.50401684269309" lon="9.059465378522871">
<ele>246.4</ele>
<time>2024-05-10T14:39:01Z</time>
</trkpt>
<trkpt lat="49.50405883602798" lon="9.059488261118531">
<ele>246.6</ele>
<time>2024-05-10T14:39:02Z</time>
</trkpt>
<trkpt lat="49.50410074554384" lon="9.05951307155192">
<ele>246.8</ele>
<time>2024-05-10T14:39:03Z</time>
</trkpt>
<trkpt lat="49.50414273887873" lon="9.059539726004004">
<ele>247</ele>
<time>2024-05-10T14:39:04Z</time>
</trkpt>
<trkpt lat="49.504184648394585" lon="9.059566464275122">
<ele>247.2</ele>
<time>2024-05-10T14:39:05Z</time>
</trkpt>
<trkpt lat="49.50422286987305" lon="9.059596974402666">
<ele>247.4</ele>
<time>2024-05-10T14:39:06Z</time>
</trkpt>
<trkpt lat="49.50426100753248" lon="9.059630334377289">
<ele>247.6</ele>
<time>2024-05-10T14:39:07Z</time>
</trkpt>
<trkpt lat="49.50429914519191" lon="9.059661850333214">
<ele>247.6</ele>
<time>2024-05-10T14:39:08Z</time>
</trkpt>
<trkpt lat="49.50433728285134" lon="9.059693282470109">
<ele>247.6</ele>
<time>2024-05-10T14:39:09Z</time>
</trkpt>
<trkpt lat="49.5043791923672" lon="9.059722870588304">
<ele>247.8</ele>
<time>2024-05-10T14:39:10Z</time>
</trkpt>
<trkpt lat="49.504421185702085" lon="9.059749525040388">
<ele>248</ele>
<time>2024-05-10T14:39:11Z</time>
</trkpt>
<trkpt lat="49.504463179036975" lon="9.059781963005662">
<ele>248</ele>
<time>2024-05-10T14:39:12Z</time>
</trkpt>
<trkpt lat="49.504501316696405" lon="9.059818256646397">
<ele>248</ele>
<time>2024-05-10T14:39:13Z</time>
</trkpt>
<trkpt lat="49.50453945435584" lon="9.059858322143556">
<ele>248.2</ele>
<time>2024-05-10T14:39:14Z</time>
</trkpt>
<trkpt lat="49.50457382015884" lon="9.059898303821685">
<ele>248.2</ele>
<time>2024-05-10T14:39:15Z</time>
</trkpt>
<trkpt lat="49.50460810214281" lon="9.059936441481112">
<ele>248</ele>
<time>2024-05-10T14:39:16Z</time>
</trkpt>
<trkpt lat="49.50464623980224" lon="9.059974662959576">
<ele>248</ele>
<time>2024-05-10T14:39:17Z</time>
</trkpt>
<trkpt lat="49.50468437746167" lon="9.060014644637704">
<ele>248</ele>
<time>2024-05-10T14:39:18Z</time>
</trkpt>
<trkpt lat="49.504718743264675" lon="9.060052866116166">
<ele>248</ele>
<time>2024-05-10T14:39:19Z</time>
</trkpt>
<trkpt lat="49.504756880924106" lon="9.060091925784944">
<ele>248</ele>
<time>2024-05-10T14:39:20Z</time>
</trkpt>
<trkpt lat="49.504795018583536" lon="9.060128135606648">
<ele>248</ele>
<time>2024-05-10T14:39:21Z</time>
</trkpt>
<trkpt lat="49.50483315624297" lon="9.060166357085109">
<ele>247.8</ele>
<time>2024-05-10T14:39:22Z</time>
</trkpt>
<trkpt lat="49.50486752204597" lon="9.060205416753888">
<ele>248</ele>
<time>2024-05-10T14:39:23Z</time>
</trkpt>
<trkpt lat="49.50490180402994" lon="9.060246404260395">
<ele>248</ele>
<time>2024-05-10T14:39:24Z</time>
</trkpt>
<trkpt lat="49.5049400255084" lon="9.060286469757555">
<ele>248</ele>
<time>2024-05-10T14:39:25Z</time>
</trkpt>
<trkpt lat="49.504978163167834" lon="9.060326535254717">
<ele>248.2</ele>
<time>2024-05-10T14:39:26Z</time>
</trkpt>
<trkpt lat="49.505012445151806" lon="9.060368528589606">
<ele>248.2</ele>
<time>2024-05-10T14:39:27Z</time>
</trkpt>
<trkpt lat="49.50505058281123" lon="9.060408510267736">
<ele>248.4</ele>
<time>2024-05-10T14:39:28Z</time>
</trkpt>
<trkpt lat="49.50508494861424" lon="9.060448575764894">
<ele>248.4</ele>
<time>2024-05-10T14:39:29Z</time>
</trkpt>
<trkpt lat="49.50512308627367" lon="9.060488641262054">
<ele>248.6</ele>
<time>2024-05-10T14:39:30Z</time>
</trkpt>
<trkpt lat="49.50515745207667" lon="9.060531556606293">
<ele>248.6</ele>
<time>2024-05-10T14:39:31Z</time>
</trkpt>
<trkpt lat="49.505191734060645" lon="9.060574471950533">
<ele>248.6</ele>
<time>2024-05-10T14:39:32Z</time>
</trkpt>
<trkpt lat="49.50522224418819" lon="9.06061646528542">
<ele>248.6</ele>
<time>2024-05-10T14:39:33Z</time>
</trkpt>
<trkpt lat="49.505252838134766" lon="9.060661308467388">
<ele>248.6</ele>
<time>2024-05-10T14:39:34Z</time>
</trkpt>
<trkpt lat="49.50528334826231" lon="9.060707073658705">
<ele>248.6</ele>
<time>2024-05-10T14:39:35Z</time>
</trkpt>
<trkpt lat="49.5053100027144" lon="9.060756610706449">
<ele>248.4</ele>
<time>2024-05-10T14:39:36Z</time>
</trkpt>
<trkpt lat="49.50533674098551" lon="9.060806231573224">
<ele>248.4</ele>
<time>2024-05-10T14:39:37Z</time>
</trkpt>
<trkpt lat="49.5053633954376" lon="9.060859624296429">
<ele>248.4</ele>
<time>2024-05-10T14:39:38Z</time>
</trkpt>
<trkpt lat="49.50538627803326" lon="9.06091494485736">
<ele>248.4</ele>
<time>2024-05-10T14:39:39Z</time>
</trkpt>
<trkpt lat="49.505413016304374" lon="9.060970265418293">
<ele>248.6</ele>
<time>2024-05-10T14:39:40Z</time>
</trkpt>
<trkpt lat="49.50543975457549" lon="9.061026507988572">
<ele>248.6</ele>
<time>2024-05-10T14:39:41Z</time>
</trkpt>
<trkpt lat="49.505466409027576" lon="9.061081828549504">
<ele>248.8</ele>
<time>2024-05-10T14:39:42Z</time>
</trkpt>
<trkpt lat="49.505493147298694" lon="9.061136227101088">
<ele>248.8</ele>
<time>2024-05-10T14:39:43Z</time>
</trkpt>
<trkpt lat="49.50551980175078" lon="9.06118869781494">
<ele>249</ele>
<time>2024-05-10T14:39:44Z</time>
</trkpt>
<trkpt lat="49.50553891249001" lon="9.061240162700416">
<ele>249</ele>
<time>2024-05-10T14:39:45Z</time>
</trkpt>
<trkpt lat="49.50556179508567" lon="9.061291627585888">
<ele>249.2</ele>
<time>2024-05-10T14:39:46Z</time>
</trkpt>
<trkpt lat="49.505588449537754" lon="9.061343176290393">
<ele>249.4</ele>
<time>2024-05-10T14:39:47Z</time>
</trkpt>
<trkpt lat="49.50561141595245" lon="9.061393719166515">
<ele>249.4</ele>
<time>2024-05-10T14:39:48Z</time>
</trkpt>
<trkpt lat="49.5056342985481" lon="9.061440406367185">
<ele>249.6</ele>
<time>2024-05-10T14:39:49Z</time>
</trkpt>
<trkpt lat="49.50565718114376" lon="9.061490027233958">
<ele>249.6</ele>
<time>2024-05-10T14:39:50Z</time>
</trkpt>
<trkpt lat="49.50568006373942" lon="9.061534870415926">
<ele>249.8</ele>
<time>2024-05-10T14:39:51Z</time>
</trkpt>
<trkpt lat="49.505706718191504" lon="9.06158348545432">
<ele>250</ele>
<time>2024-05-10T14:39:52Z</time>
</trkpt>
<trkpt lat="49.50573345646262" lon="9.06162640079856">
<ele>250</ele>
<time>2024-05-10T14:39:53Z</time>
</trkpt>
<trkpt lat="49.505767822265625" lon="9.061670238152146">
<ele>250.2</ele>
<time>2024-05-10T14:39:54Z</time>
</trkpt>
<trkpt lat="49.50579833239317" lon="9.061713153496385">
<ele>250.2</ele>
<time>2024-05-10T14:39:55Z</time>
</trkpt>
<trkpt lat="49.505824986845255" lon="9.061757074669003">
<ele>250.4</ele>
<time>2024-05-10T14:39:56Z</time>
</trkpt>
<trkpt lat="49.50585172511637" lon="9.06180283986032">
<ele>250.4</ele>
<time>2024-05-10T14:39:57Z</time>
</trkpt>
<trkpt lat="49.50587837956846" lon="9.061848605051637">
<ele>250.6</ele>
<time>2024-05-10T14:39:58Z</time>
</trkpt>
<trkpt lat="49.505905117839575" lon="9.061893448233604">
<ele>250.6</ele>
<time>2024-05-10T14:39:59Z</time>
</trkpt>
<trkpt lat="49.50593177229166" lon="9.06194013543427">
<ele>250.8</ele>
<time>2024-05-10T14:40:00Z</time>
</trkpt>
<trkpt lat="49.50595851056278" lon="9.061987828463316">
<ele>251</ele>
<time>2024-05-10T14:40:01Z</time>
</trkpt>
<trkpt lat="49.50598902069032" lon="9.062031665816903">
<ele>251</ele>
<time>2024-05-10T14:40:02Z</time>
</trkpt>
<trkpt lat="49.50601575896144" lon="9.06207650899887">
<ele>251.2</ele>
<time>2024-05-10T14:40:03Z</time>
</trkpt>
<trkpt lat="49.50604626908898" lon="9.06212135218084">
<ele>251.2</ele>
<time>2024-05-10T14:40:04Z</time>
</trkpt>
<trkpt lat="49.50607292354107" lon="9.062168039381504">
<ele>251.4</ele>
<time>2024-05-10T14:40:05Z</time>
</trkpt>
<trkpt lat="49.506099661812186" lon="9.062212882563472">
<ele>251.4</ele>
<time>2024-05-10T14:40:06Z</time>
</trkpt>
<trkpt lat="49.5061264000833" lon="9.06225487589836">
<ele>251.4</ele>
<time>2024-05-10T14:40:07Z</time>
</trkpt>
<trkpt lat="49.50615691021085" lon="9.06229678541422">
<ele>251.4</ele>
<time>2024-05-10T14:40:08Z</time>
</trkpt>
<trkpt lat="49.50618742033839" lon="9.06233685091138">
<ele>251.4</ele>
<time>2024-05-10T14:40:09Z</time>
</trkpt>
<trkpt lat="49.50621793046594" lon="9.06237792223692">
<ele>251.4</ele>
<time>2024-05-10T14:40:10Z</time>
</trkpt>
<trkpt lat="49.50624458491802" lon="9.062417903915048">
<ele>251.4</ele>
<time>2024-05-10T14:40:11Z</time>
</trkpt>
<trkpt lat="49.50627132318914" lon="9.06245511956513">
<ele>251.6</ele>
<time>2024-05-10T14:40:12Z</time>
</trkpt>
<trkpt lat="49.50629806146026" lon="9.06249325722456">
<ele>251.6</ele>
<time>2024-05-10T14:40:13Z</time>
</trkpt>
<trkpt lat="49.50632471591234" lon="9.06253139488399">
<ele>251.6</ele>
<time>2024-05-10T14:40:14Z</time>
</trkpt>
<trkpt lat="49.50635145418346" lon="9.062569616362453">
<ele>251.6</ele>
<time>2024-05-10T14:40:15Z</time>
</trkpt>
<trkpt lat="49.506378108635545" lon="9.06260959804058">
<ele>251.8</ele>
<time>2024-05-10T14:40:16Z</time>
</trkpt>
<trkpt lat="49.50640861876309" lon="9.06264966353774">
<ele>251.8</ele>
<time>2024-05-10T14:40:17Z</time>
</trkpt>
<trkpt lat="49.506435357034206" lon="9.062686879187822">
<ele>251.6</ele>
<time>2024-05-10T14:40:18Z</time>
</trkpt>
<trkpt lat="49.50646586716175" lon="9.062723089009523">
<ele>251.8</ele>
<time>2024-05-10T14:40:19Z</time>
</trkpt>
<trkpt lat="49.506496377289295" lon="9.062761226668954">
<ele>251.8</ele>
<time>2024-05-10T14:40:20Z</time>
</trkpt>
<trkpt lat="49.50652311556041" lon="9.062798442319036">
<ele>251.8</ele>
<time>2024-05-10T14:40:21Z</time>
</trkpt>
<trkpt lat="49.5065497700125" lon="9.062833730131388">
<ele>252</ele>
<time>2024-05-10T14:40:22Z</time>
</trkpt>
<trkpt lat="49.50658028014004" lon="9.062868095934393">
<ele>252</ele>
<time>2024-05-10T14:40:23Z</time>
</trkpt>
<trkpt lat="49.5066031627357" lon="9.062906233593822">
<ele>252.2</ele>
<time>2024-05-10T14:40:24Z</time>
</trkpt>
<trkpt lat="49.50662990100682" lon="9.062943449243903">
<ele>252.2</ele>
<time>2024-05-10T14:40:25Z</time>
</trkpt>
<trkpt lat="49.50666041113436" lon="9.062978737056255">
<ele>252.4</ele>
<time>2024-05-10T14:40:26Z</time>
</trkpt>
<trkpt lat="49.50668714940548" lon="9.063016874715686">
<ele>252.4</ele>
<time>2024-05-10T14:40:27Z</time>
</trkpt>
<trkpt lat="49.506713803857565" lon="9.063055012375116">
<ele>252.6</ele>
<time>2024-05-10T14:40:28Z</time>
</trkpt>
<trkpt lat="49.50674054212868" lon="9.063093150034549">
<ele>252.6</ele>
<time>2024-05-10T14:40:29Z</time>
</trkpt>
<trkpt lat="49.50677105225623" lon="9.063133215531709">
<ele>252.8</ele>
<time>2024-05-10T14:40:30Z</time>
</trkpt>
<trkpt lat="49.506797790527344" lon="9.063175125047565">
<ele>252.8</ele>
<time>2024-05-10T14:40:31Z</time>
</trkpt>
<trkpt lat="49.50682444497943" lon="9.063216196373103">
<ele>252.8</ele>
<time>2024-05-10T14:40:32Z</time>
</trkpt>
<trkpt lat="49.50684732757509" lon="9.063258105888965">
<ele>252.8</ele>
<time>2024-05-10T14:40:33Z</time>
</trkpt>
<trkpt lat="49.506870210170746" lon="9.063298171386124">
<ele>253</ele>
<time>2024-05-10T14:40:34Z</time>
</trkpt>
<trkpt lat="49.50689694844186" lon="9.063336309045551">
<ele>253</ele>
<time>2024-05-10T14:40:35Z</time>
</trkpt>
<trkpt lat="49.50691983103752" lon="9.063376374542711">
<ele>253.2</ele>
<time>2024-05-10T14:40:36Z</time>
</trkpt>
<trkpt lat="49.50694648548961" lon="9.063416440039871">
<ele>253.2</ele>
<time>2024-05-10T14:40:37Z</time>
</trkpt>
<trkpt lat="49.50697322376072" lon="9.063458433374764">
<ele>253.4</ele>
<time>2024-05-10T14:40:38Z</time>
</trkpt>
<trkpt lat="49.506992334499955" lon="9.06350034289062">
<ele>253.4</ele>
<time>2024-05-10T14:40:39Z</time>
</trkpt>
<trkpt lat="49.507011361420155" lon="9.06354325823486">
<ele>253.4</ele>
<time>2024-05-10T14:40:40Z</time>
</trkpt>
<trkpt lat="49.50703424401581" lon="9.063583323732018">
<ele>253.4</ele>
<time>2024-05-10T14:40:41Z</time>
</trkpt>
<trkpt lat="49.50705712661147" lon="9.063625317066908">
<ele>253.4</ele>
<time>2024-05-10T14:40:42Z</time>
</trkpt>
<trkpt lat="49.50708000920713" lon="9.063670076429844">
<ele>253.4</ele>
<time>2024-05-10T14:40:43Z</time>
</trkpt>
<trkpt lat="49.50709911994636" lon="9.063714919611812">
<ele>253.4</ele>
<time>2024-05-10T14:40:44Z</time>
</trkpt>
<trkpt lat="49.50711814686656" lon="9.06375976279378">
<ele>253.4</ele>
<time>2024-05-10T14:40:45Z</time>
</trkpt>
<trkpt lat="49.50713725760579" lon="9.063801756128669">
<ele>253.4</ele>
<time>2024-05-10T14:40:46Z</time>
</trkpt>
<trkpt lat="49.50716014020145" lon="9.063844671472909">
<ele>253.6</ele>
<time>2024-05-10T14:40:47Z</time>
</trkpt>
<trkpt lat="49.50717925094068" lon="9.063888508826494">
<ele>253.8</ele>
<time>2024-05-10T14:40:48Z</time>
</trkpt>
<trkpt lat="49.50719827786088" lon="9.063931424170732">
<ele>253.8</ele>
<time>2024-05-10T14:40:49Z</time>
</trkpt>
<trkpt lat="49.50722116045654" lon="9.06397526152432">
<ele>254</ele>
<time>2024-05-10T14:40:50Z</time>
</trkpt>
<trkpt lat="49.50723641552031" lon="9.064018176868558">
<ele>254.2</ele>
<time>2024-05-10T14:40:51Z</time>
</trkpt>
<trkpt lat="49.50725552625954" lon="9.064060170203447">
<ele>254.2</ele>
<time>2024-05-10T14:40:52Z</time>
</trkpt>
<trkpt lat="49.5072784088552" lon="9.064103085547686">
<ele>254.4</ele>
<time>2024-05-10T14:40:53Z</time>
</trkpt>
<trkpt lat="49.5072974357754" lon="9.064145078882577">
<ele>254.4</ele>
<time>2024-05-10T14:40:54Z</time>
</trkpt>
<trkpt lat="49.50731654651463" lon="9.064187994226812">
<ele>254.4</ele>
<time>2024-05-10T14:40:55Z</time>
</trkpt>
<trkpt lat="49.50733942911029" lon="9.064227975904942">
<ele>254.4</ele>
<time>2024-05-10T14:40:56Z</time>
</trkpt>
<trkpt lat="49.50735468417406" lon="9.064266197383404">
<ele>254.6</ele>
<time>2024-05-10T14:40:57Z</time>
</trkpt>
<trkpt lat="49.50737756676972" lon="9.06430810689926">
<ele>254.8</ele>
<time>2024-05-10T14:40:58Z</time>
</trkpt>
<trkpt lat="49.50739667750895" lon="9.064346244558692">
<ele>255</ele>
<time>2024-05-10T14:40:59Z</time>
</trkpt>
<trkpt lat="49.50741956010461" lon="9.064385388046505">
<ele>255</ele>
<time>2024-05-10T14:41:00Z</time>
</trkpt>
<trkpt lat="49.50744244270027" lon="9.064426375553012">
<ele>255.2</ele>
<time>2024-05-10T14:41:01Z</time>
</trkpt>
<trkpt lat="49.50746909715235" lon="9.0644702129066">
<ele>255.2</ele>
<time>2024-05-10T14:41:02Z</time>
</trkpt>
<trkpt lat="49.50749583542347" lon="9.064506506547332">
<ele>255.4</ele>
<time>2024-05-10T14:41:03Z</time>
</trkpt>
<trkpt lat="49.50752257369459" lon="9.064541794359684">
<ele>255.4</ele>
<time>2024-05-10T14:41:04Z</time>
</trkpt>
<trkpt lat="49.50754922814667" lon="9.064578004181383">
<ele>255.4</ele>
<time>2024-05-10T14:41:05Z</time>
</trkpt>
<trkpt lat="49.50757596641779" lon="9.064611364156008">
<ele>255.4</ele>
<time>2024-05-10T14:41:06Z</time>
</trkpt>
<trkpt lat="49.50759884901345" lon="9.06464665196836">
<ele>255.6</ele>
<time>2024-05-10T14:41:07Z</time>
</trkpt>
<trkpt lat="49.50762550346553" lon="9.064681939780712">
<ele>255.6</ele>
<time>2024-05-10T14:41:08Z</time>
</trkpt>
<trkpt lat="49.50765224173665" lon="9.064715383574368">
<ele>255.8</ele>
<time>2024-05-10T14:41:09Z</time>
</trkpt>
<trkpt lat="49.50767898000777" lon="9.06474488787353">
<ele>255.8</ele>
<time>2024-05-10T14:41:10Z</time>
</trkpt>
<trkpt lat="49.50770563445985" lon="9.064771626144648">
<ele>256</ele>
<time>2024-05-10T14:41:11Z</time>
</trkpt>
<trkpt lat="49.50773237273097" lon="9.064800208434464">
<ele>256</ele>
<time>2024-05-10T14:41:12Z</time>
</trkpt>
<trkpt lat="49.507762882858515" lon="9.064827868714929">
<ele>256</ele>
<time>2024-05-10T14:41:13Z</time>
</trkpt>
<trkpt lat="49.507797164842486" lon="9.064860306680202">
<ele>256</ele>
<time>2024-05-10T14:41:14Z</time>
</trkpt>
<trkpt lat="49.50782775878906" lon="9.064891738817096">
<ele>256.2</ele>
<time>2024-05-10T14:41:15Z</time>
</trkpt>
<trkpt lat="49.50785826891661" lon="9.064929960295558">
<ele>256.4</ele>
<time>2024-05-10T14:41:16Z</time>
</trkpt>
<trkpt lat="49.50788492336869" lon="9.064969941973686">
<ele>256.6</ele>
<time>2024-05-10T14:41:17Z</time>
</trkpt>
<trkpt lat="49.50791166163981" lon="9.065010007470846">
<ele>256.6</ele>
<time>2024-05-10T14:41:18Z</time>
</trkpt>
<trkpt lat="49.50793454423547" lon="9.065048145130277">
<ele>256.799</ele>
<time>2024-05-10T14:41:19Z</time>
</trkpt>
<trkpt lat="49.50796119868755" lon="9.065088210627437">
<ele>257</ele>
<time>2024-05-10T14:41:20Z</time>
</trkpt>
<trkpt lat="49.507980309426785" lon="9.065128276124597">
<ele>257.2</ele>
<time>2024-05-10T14:41:21Z</time>
</trkpt>
<trkpt lat="49.50800319202244" lon="9.065166413784029">
<ele>257.4</ele>
<time>2024-05-10T14:41:22Z</time>
</trkpt>
<trkpt lat="49.508022302761674" lon="9.065208407118917">
<ele>257.4</ele>
<time>2024-05-10T14:41:23Z</time>
</trkpt>
<trkpt lat="49.50804132968187" lon="9.065250316634774">
<ele>257.6</ele>
<time>2024-05-10T14:41:24Z</time>
</trkpt>
<trkpt lat="49.50806421227753" lon="9.065291387960317">
<ele>257.6</ele>
<time>2024-05-10T14:41:25Z</time>
</trkpt>
<trkpt lat="49.508079467341304" lon="9.06533807516098">
<ele>257.799</ele>
<time>2024-05-10T14:41:26Z</time>
</trkpt>
<trkpt lat="49.50810234993696" lon="9.0653819963336">
<ele>258</ele>
<time>2024-05-10T14:41:27Z</time>
</trkpt>
<trkpt lat="49.50812523253262" lon="9.065421978011727">
<ele>258.2</ele>
<time>2024-05-10T14:41:28Z</time>
</trkpt>
<trkpt lat="49.50814811512828" lon="9.065464893355966">
<ele>258.2</ele>
<time>2024-05-10T14:41:29Z</time>
</trkpt>
<trkpt lat="49.50818248093128" lon="9.065506886690857">
<ele>258.4</ele>
<time>2024-05-10T14:41:30Z</time>
</trkpt>
<trkpt lat="49.508216846734285" lon="9.065549802035092">
<ele>258.6</ele>
<time>2024-05-10T14:41:31Z</time>
</trkpt>
<trkpt lat="49.50823210179806" lon="9.065605122596024">
<ele>258.6</ele>
<time>2024-05-10T14:41:32Z</time>
</trkpt>
<trkpt lat="49.50825498439371" lon="9.0656565874815">
<ele>258.799</ele>
<time>2024-05-10T14:41:33Z</time>
</trkpt>
<trkpt lat="49.508274011313915" lon="9.065706208348274">
<ele>258.799</ele>
<time>2024-05-10T14:41:34Z</time>
</trkpt>
<trkpt lat="49.50828926637769" lon="9.06575482338667">
<ele>258.799</ele>
<time>2024-05-10T14:41:35Z</time>
</trkpt>
<trkpt lat="49.50830452144146" lon="9.065801594406366">
<ele>259</ele>
<time>2024-05-10T14:41:36Z</time>
</trkpt>
<trkpt lat="49.50831977650523" lon="9.065846437588334">
<ele>259</ele>
<time>2024-05-10T14:41:37Z</time>
</trkpt>
<trkpt lat="49.50833503156901" lon="9.065893124789">
<ele>259.2</ele>
<time>2024-05-10T14:41:38Z</time>
</trkpt>
<trkpt lat="49.50834651477635" lon="9.065941739827394">
<ele>259.4</ele>
<time>2024-05-10T14:41:39Z</time>
</trkpt>
<trkpt lat="49.50836562551558" lon="9.065984655171633">
<ele>259.4</ele>
<time>2024-05-10T14:41:40Z</time>
</trkpt>
<trkpt lat="49.50838850811124" lon="9.06603335402906">
<ele>259.6</ele>
<time>2024-05-10T14:41:41Z</time>
</trkpt>
<trkpt lat="49.50840753503144" lon="9.066082891076803">
<ele>259.6</ele>
<time>2024-05-10T14:41:42Z</time>
</trkpt>
<trkpt lat="49.50842279009521" lon="9.0661296620965">
<ele>259.799</ele>
<time>2024-05-10T14:41:43Z</time>
</trkpt>
<trkpt lat="49.50843804515898" lon="9.066176349297166">
<ele>259.799</ele>
<time>2024-05-10T14:41:44Z</time>
</trkpt>
<trkpt lat="49.508453300222754" lon="9.066223120316865">
<ele>259.799</ele>
<time>2024-05-10T14:41:45Z</time>
</trkpt>
<trkpt lat="49.508472410961986" lon="9.066271735355258">
<ele>260</ele>
<time>2024-05-10T14:41:46Z</time>
</trkpt>
<trkpt lat="49.508491437882185" lon="9.066318506374955">
<ele>260</ele>
<time>2024-05-10T14:41:47Z</time>
</trkpt>
<trkpt lat="49.50850669294596" lon="9.066361421719192">
<ele>260.2</ele>
<time>2024-05-10T14:41:48Z</time>
</trkpt>
<trkpt lat="49.50852965936065" lon="9.066403331235051">
<ele>260.2</ele>
<time>2024-05-10T14:41:49Z</time>
</trkpt>
<trkpt lat="49.508552541956306" lon="9.066441468894482">
<ele>260.4</ele>
<time>2024-05-10T14:41:50Z</time>
</trkpt>
<trkpt lat="49.508571568876505" lon="9.066479606553912">
<ele>260.4</ele>
<time>2024-05-10T14:41:51Z</time>
</trkpt>
<trkpt lat="49.50858682394028" lon="9.066519672051072">
<ele>260.6</ele>
<time>2024-05-10T14:41:52Z</time>
</trkpt>
<trkpt lat="49.50860593467951" lon="9.06656451523304">
<ele>260.799</ele>
<time>2024-05-10T14:41:53Z</time>
</trkpt>
<trkpt lat="49.50862118974328" lon="9.0666045807302">
<ele>260.799</ele>
<time>2024-05-10T14:41:54Z</time>
</trkpt>
<trkpt lat="49.508632589131594" lon="9.06664464622736">
<ele>260.799</ele>
<time>2024-05-10T14:41:55Z</time>
</trkpt>
<trkpt lat="49.50864407233894" lon="9.066688483580949">
<ele>260.799</ele>
<time>2024-05-10T14:41:56Z</time>
</trkpt>
<trkpt lat="49.50865547172725" lon="9.066731398925183">
<ele>261</ele>
<time>2024-05-10T14:41:57Z</time>
</trkpt>
<trkpt lat="49.50867458246648" lon="9.066776242107151">
<ele>261</ele>
<time>2024-05-10T14:41:58Z</time>
</trkpt>
<trkpt lat="49.508693693205714" lon="9.066818235442042">
<ele>261</ele>
<time>2024-05-10T14:41:59Z</time>
</trkpt>
<trkpt lat="49.508712720125914" lon="9.06686207279563">
<ele>261</ele>
<time>2024-05-10T14:42:00Z</time>
</trkpt>
<trkpt lat="49.508731830865145" lon="9.066909765824676">
<ele>261</ele>
<time>2024-05-10T14:42:01Z</time>
</trkpt>
<trkpt lat="49.50874323025346" lon="9.066963158547878">
<ele>261.2</ele>
<time>2024-05-10T14:42:02Z</time>
</trkpt>
<trkpt lat="49.50875848531723" lon="9.06702040694654">
<ele>261.2</ele>
<time>2024-05-10T14:42:03Z</time>
</trkpt>
<trkpt lat="49.508769968524575" lon="9.067074721679091">
<ele>261.4</ele>
<time>2024-05-10T14:42:04Z</time>
</trkpt>
<trkpt lat="49.50878136791289" lon="9.067128114402294">
<ele>261.4</ele>
<time>2024-05-10T14:42:05Z</time>
</trkpt>
<trkpt lat="49.50879662297666" lon="9.0671796631068">
<ele>261.4</ele>
<time>2024-05-10T14:42:06Z</time>
</trkpt>
<trkpt lat="49.50881187804043" lon="9.067230205982924">
<ele>261.6</ele>
<time>2024-05-10T14:42:07Z</time>
</trkpt>
<trkpt lat="49.50882336124778" lon="9.067281670868397">
<ele>261.6</ele>
<time>2024-05-10T14:42:08Z</time>
</trkpt>
<trkpt lat="49.50883861631155" lon="9.0673350635916">
<ele>261.6</ele>
<time>2024-05-10T14:42:09Z</time>
</trkpt>
<trkpt lat="49.50885001569986" lon="9.067390384152532">
<ele>261.799</ele>
<time>2024-05-10T14:42:10Z</time>
</trkpt>
<trkpt lat="49.50886149890721" lon="9.067446626722813">
<ele>261.799</ele>
<time>2024-05-10T14:42:11Z</time>
</trkpt>
<trkpt lat="49.50887298211455" lon="9.067502953112124">
<ele>261.799</ele>
<time>2024-05-10T14:42:12Z</time>
</trkpt>
<trkpt lat="49.50888438150287" lon="9.067558273673058">
<ele>262</ele>
<time>2024-05-10T14:42:13Z</time>
</trkpt>
<trkpt lat="49.50889200903475" lon="9.067616444081068">
<ele>262</ele>
<time>2024-05-10T14:42:14Z</time>
</trkpt>
<trkpt lat="49.50889963656664" lon="9.067673608660698">
<ele>262</ele>
<time>2024-05-10T14:42:15Z</time>
</trkpt>
<trkpt lat="49.508911119773984" lon="9.067733706906438">
<ele>262.2</ele>
<time>2024-05-10T14:42:16Z</time>
</trkpt>
<trkpt lat="49.50891874730587" lon="9.067792883142827">
<ele>262.2</ele>
<time>2024-05-10T14:42:17Z</time>
</trkpt>
<trkpt lat="49.5089225191623" lon="9.06785004772246">
<ele>262.4</ele>
<time>2024-05-10T14:42:18Z</time>
</trkpt>
<trkpt lat="49.50893014669418" lon="9.0679101459682">
<ele>262.4</ele>
<time>2024-05-10T14:42:19Z</time>
</trkpt>
<trkpt lat="49.50894162990153" lon="9.06796638853848">
<ele>262.6</ele>
<time>2024-05-10T14:42:20Z</time>
</trkpt>
<trkpt lat="49.508945401757956" lon="9.068021709099412">
<ele>262.6</ele>
<time>2024-05-10T14:42:21Z</time>
</trkpt>
<trkpt lat="49.5089568849653" lon="9.068077029660344">
<ele>262.8</ele>
<time>2024-05-10T14:42:22Z</time>
</trkpt>
<trkpt lat="49.508968284353614" lon="9.068129500374198">
<ele>262.8</ele>
<time>2024-05-10T14:42:23Z</time>
</trkpt>
<trkpt lat="49.508983539417386" lon="9.0681828930974">
<ele>263</ele>
<time>2024-05-10T14:42:24Z</time>
</trkpt>
<trkpt lat="49.50899879448116" lon="9.068236285820603">
<ele>263</ele>
<time>2024-05-10T14:42:25Z</time>
</trkpt>
<trkpt lat="49.5090102776885" lon="9.06828498467803">
<ele>263.2</ele>
<time>2024-05-10T14:42:26Z</time>
</trkpt>
<trkpt lat="49.50901790522039" lon="9.068336449563503">
<ele>263.2</ele>
<time>2024-05-10T14:42:27Z</time>
</trkpt>
<trkpt lat="49.50902167707682" lon="9.068391770124435">
<ele>263.4</ele>
<time>2024-05-10T14:42:28Z</time>
</trkpt>
<trkpt lat="49.509029388427734" lon="9.068443235009909">
<ele>263.4</ele>
<time>2024-05-10T14:42:29Z</time>
</trkpt>
<trkpt lat="49.50903316028416" lon="9.068492855876684">
<ele>263.4</ele>
<time>2024-05-10T14:42:30Z</time>
</trkpt>
<trkpt lat="49.50904078781605" lon="9.068546248599889">
<ele>263.4</ele>
<time>2024-05-10T14:42:31Z</time>
</trkpt>
<trkpt lat="49.50904464349151" lon="9.06859871931374">
<ele>263.4</ele>
<time>2024-05-10T14:42:32Z</time>
</trkpt>
<trkpt lat="49.50905227102339" lon="9.068654961884022">
<ele>263.6</ele>
<time>2024-05-10T14:42:33Z</time>
</trkpt>
<trkpt lat="49.50905989855528" lon="9.068708354607224">
<ele>263.6</ele>
<time>2024-05-10T14:42:34Z</time>
</trkpt>
<trkpt lat="49.509067526087165" lon="9.068761747330427">
<ele>263.6</ele>
<time>2024-05-10T14:42:35Z</time>
</trkpt>
<trkpt lat="49.50907515361905" lon="9.068813296034932">
<ele>263.6</ele>
<time>2024-05-10T14:42:36Z</time>
</trkpt>
<trkpt lat="49.50908278115094" lon="9.068868616595864">
<ele>263.8</ele>
<time>2024-05-10T14:42:37Z</time>
</trkpt>
<trkpt lat="49.50909040868282" lon="9.068922009319069">
<ele>263.8</ele>
<time>2024-05-10T14:42:38Z</time>
</trkpt>
<trkpt lat="49.50910180807114" lon="9.06897347420454">
<ele>263.8</ele>
<time>2024-05-10T14:42:39Z</time>
</trkpt>
<trkpt lat="49.50911329127848" lon="9.069025022909043">
<ele>263.8</ele>
<time>2024-05-10T14:42:40Z</time>
</trkpt>
<trkpt lat="49.50912091881037" lon="9.069076487794518">
<ele>264</ele>
<time>2024-05-10T14:42:41Z</time>
</trkpt>
<trkpt lat="49.509124690666795" lon="9.06912988051772">
<ele>264</ele>
<time>2024-05-10T14:42:42Z</time>
</trkpt>
<trkpt lat="49.509124690666795" lon="9.069179501384497">
<ele>264</ele>
<time>2024-05-10T14:42:43Z</time>
</trkpt>
<trkpt lat="49.509128546342254" lon="9.06923197209835">
<ele>264.2</ele>
<time>2024-05-10T14:42:44Z</time>
</trkpt>
<trkpt lat="49.50913231819868" lon="9.069285364821551">
<ele>264.2</ele>
<time>2024-05-10T14:42:45Z</time>
</trkpt>
<trkpt lat="49.50913994573057" lon="9.069336829707026">
<ele>264.4</ele>
<time>2024-05-10T14:42:46Z</time>
</trkpt>
<trkpt lat="49.50914757326245" lon="9.069386450573802">
<ele>264.4</ele>
<time>2024-05-10T14:42:47Z</time>
</trkpt>
<trkpt lat="49.50915520079434" lon="9.069435065612195">
<ele>264.6</ele>
<time>2024-05-10T14:42:48Z</time>
</trkpt>
<trkpt lat="49.5091590564698" lon="9.069484686478972">
<ele>264.6</ele>
<time>2024-05-10T14:42:49Z</time>
</trkpt>
<trkpt lat="49.50916668400168" lon="9.069536151364446">
<ele>264.6</ele>
<time>2024-05-10T14:42:50Z</time>
</trkpt>
<trkpt lat="49.50917808339" lon="9.069589544087648">
<ele>264.8</ele>
<time>2024-05-10T14:42:51Z</time>
</trkpt>
<trkpt lat="49.50918571092189" lon="9.069640086963773">
<ele>264.8</ele>
<time>2024-05-10T14:42:52Z</time>
</trkpt>
<trkpt lat="49.50919333845377" lon="9.069695407524703">
<ele>265</ele>
<time>2024-05-10T14:42:53Z</time>
</trkpt>
<trkpt lat="49.50920104980469" lon="9.06974787823856">
<ele>265</ele>
<time>2024-05-10T14:42:54Z</time>
</trkpt>
<trkpt lat="49.509204821661115" lon="9.069800348952413">
<ele>265.2</ele>
<time>2024-05-10T14:42:55Z</time>
</trkpt>
<trkpt lat="49.509212449193" lon="9.069853741675615">
<ele>265.2</ele>
<time>2024-05-10T14:42:56Z</time>
</trkpt>
<trkpt lat="49.50922007672489" lon="9.0699081402272">
<ele>265.4</ele>
<time>2024-05-10T14:42:57Z</time>
</trkpt>
<trkpt lat="49.50923155993223" lon="9.069959605112672">
<ele>265.6</ele>
<time>2024-05-10T14:42:58Z</time>
</trkpt>
<trkpt lat="49.509246814996" lon="9.070012075826526">
<ele>265.6</ele>
<time>2024-05-10T14:42:59Z</time>
</trkpt>
<trkpt lat="49.50925821438432" lon="9.070064462721348">
<ele>265.8</ele>
<time>2024-05-10T14:43:00Z</time>
</trkpt>
<trkpt lat="49.5092658419162" lon="9.070115089416504">
<ele>266</ele>
<time>2024-05-10T14:43:01Z</time>
</trkpt>
<trkpt lat="49.50927732512355" lon="9.0701637044549">
<ele>266.2</ele>
<time>2024-05-10T14:43:02Z</time>
</trkpt>
<trkpt lat="49.509284952655435" lon="9.070213241502644">
<ele>266.2</ele>
<time>2024-05-10T14:43:03Z</time>
</trkpt>
<trkpt lat="49.50929635204375" lon="9.07026001252234">
<ele>266.4</ele>
<time>2024-05-10T14:43:04Z</time>
</trkpt>
<trkpt lat="49.50931160710752" lon="9.070309633389115">
<ele>266.4</ele>
<time>2024-05-10T14:43:05Z</time>
</trkpt>
<trkpt lat="49.50932686217129" lon="9.070362020283936">
<ele>266.6</ele>
<time>2024-05-10T14:43:06Z</time>
</trkpt>
<trkpt lat="49.509342117235065" lon="9.070411641150711">
<ele>266.6</ele>
<time>2024-05-10T14:43:07Z</time>
</trkpt>
<trkpt lat="49.50935360044241" lon="9.070461262017488">
<ele>266.6</ele>
<time>2024-05-10T14:43:08Z</time>
</trkpt>
<trkpt lat="49.50936499983072" lon="9.070511804893613">
<ele>266.8</ele>
<time>2024-05-10T14:43:09Z</time>
</trkpt>
<trkpt lat="49.50937648303807" lon="9.070565197616816">
<ele>267</ele>
<time>2024-05-10T14:43:10Z</time>
</trkpt>
<trkpt lat="49.50938796624541" lon="9.07061473466456">
<ele>267.2</ele>
<time>2024-05-10T14:43:11Z</time>
</trkpt>
<trkpt lat="49.5093955937773" lon="9.070670055225492">
<ele>267.4</ele>
<time>2024-05-10T14:43:12Z</time>
</trkpt>
<trkpt lat="49.509403221309185" lon="9.070725375786424">
<ele>267.6</ele>
<time>2024-05-10T14:43:13Z</time>
</trkpt>
<trkpt lat="49.5094146206975" lon="9.070781702175736">
<ele>267.6</ele>
<time>2024-05-10T14:43:14Z</time>
</trkpt>
<trkpt lat="49.50941847637296" lon="9.070837944746016">
<ele>267.8</ele>
<time>2024-05-10T14:43:15Z</time>
</trkpt>
<trkpt lat="49.50942610390484" lon="9.07089326530695">
<ele>268</ele>
<time>2024-05-10T14:43:16Z</time>
</trkpt>
<trkpt lat="49.50943373143673" lon="9.070946658030152">
<ele>268</ele>
<time>2024-05-10T14:43:17Z</time>
</trkpt>
<trkpt lat="49.50943373143673" lon="9.071004828438165">
<ele>268.2</ele>
<time>2024-05-10T14:43:18Z</time>
</trkpt>
<trkpt lat="49.50943750329316" lon="9.071062076836824">
<ele>268.2</ele>
<time>2024-05-10T14:43:19Z</time>
</trkpt>
<trkpt lat="49.50943750329316" lon="9.071114463731648">
<ele>268.4</ele>
<time>2024-05-10T14:43:20Z</time>
</trkpt>
<trkpt lat="49.509441358968616" lon="9.0711669344455">
<ele>268.4</ele>
<time>2024-05-10T14:43:21Z</time>
</trkpt>
<trkpt lat="49.50944513082504" lon="9.071220327168705">
<ele>268.6</ele>
<time>2024-05-10T14:43:22Z</time>
</trkpt>
<trkpt lat="49.509441358968616" lon="9.071274725720286">
<ele>268.6</ele>
<time>2024-05-10T14:43:23Z</time>
</trkpt>
<trkpt lat="49.50943750329316" lon="9.071328118443487">
<ele>268.8</ele>
<time>2024-05-10T14:43:24Z</time>
</trkpt>
<trkpt lat="49.50943373143673" lon="9.07138343900442">
<ele>269</ele>
<time>2024-05-10T14:43:25Z</time>
</trkpt>
<trkpt lat="49.50943373143673" lon="9.071438759565352">
<ele>269</ele>
<time>2024-05-10T14:43:26Z</time>
</trkpt>
<trkpt lat="49.50942987576127" lon="9.071491230279207">
<ele>269.2</ele>
<time>2024-05-10T14:43:27Z</time>
</trkpt>
<trkpt lat="49.50942987576127" lon="9.071548394858835">
<ele>269.4</ele>
<time>2024-05-10T14:43:28Z</time>
</trkpt>
<trkpt lat="49.50942987576127" lon="9.07160371541977">
<ele>269.6</ele>
<time>2024-05-10T14:43:29Z</time>
</trkpt>
<trkpt lat="49.50942610390484" lon="9.071655264124274">
<ele>269.6</ele>
<time>2024-05-10T14:43:30Z</time>
</trkpt>
<trkpt lat="49.509422248229384" lon="9.071708656847475">
<ele>269.8</ele>
<time>2024-05-10T14:43:31Z</time>
</trkpt>
<trkpt lat="49.509422248229384" lon="9.07176012173295">
<ele>269.8</ele>
<time>2024-05-10T14:43:32Z</time>
</trkpt>
<trkpt lat="49.50941847637296" lon="9.071809742599726">
<ele>270</ele>
<time>2024-05-10T14:43:33Z</time>
</trkpt>
<trkpt lat="49.50941084884107" lon="9.071863135322928">
<ele>270</ele>
<time>2024-05-10T14:43:34Z</time>
</trkpt>
<trkpt lat="49.50940699316561" lon="9.07192130573094">
<ele>270.2</ele>
<time>2024-05-10T14:43:35Z</time>
</trkpt>
<trkpt lat="49.509403221309185" lon="9.07198140397668">
<ele>270.4</ele>
<time>2024-05-10T14:43:36Z</time>
</trkpt>
<trkpt lat="49.509399365633726" lon="9.07203957438469">
<ele>270.4</ele>
<time>2024-05-10T14:43:37Z</time>
</trkpt>
<trkpt lat="49.5093955937773" lon="9.072092967107892">
<ele>270.6</ele>
<time>2024-05-10T14:43:38Z</time>
</trkpt>
<trkpt lat="49.5093955937773" lon="9.072143509984016">
<ele>270.6</ele>
<time>2024-05-10T14:43:39Z</time>
</trkpt>
<trkpt lat="49.50939173810184" lon="9.072190281003714">
<ele>270.8</ele>
<time>2024-05-10T14:43:40Z</time>
</trkpt>
<trkpt lat="49.50939173810184" lon="9.072237890213728">
<ele>270.8</ele>
<time>2024-05-10T14:43:41Z</time>
</trkpt>
<trkpt lat="49.50938796624541" lon="9.072286589071156">
<ele>271</ele>
<time>2024-05-10T14:43:42Z</time>
</trkpt>
<trkpt lat="49.50939173810184" lon="9.07233520410955">
<ele>271.2</ele>
<time>2024-05-10T14:43:43Z</time>
</trkpt>
<trkpt lat="49.50939173810184" lon="9.072384824976323">
<ele>271.2</ele>
<time>2024-05-10T14:43:44Z</time>
</trkpt>
<trkpt lat="49.5093955937773" lon="9.072440145537255">
<ele>271.4</ele>
<time>2024-05-10T14:43:45Z</time>
</trkpt>
<trkpt lat="49.509399365633726" lon="9.072488760575652">
<ele>271.6</ele>
<time>2024-05-10T14:43:46Z</time>
</trkpt>
<trkpt lat="49.509403221309185" lon="9.072541231289506">
<ele>271.8</ele>
<time>2024-05-10T14:43:47Z</time>
</trkpt>
<trkpt lat="49.50940699316561" lon="9.072594624012709">
<ele>271.8</ele>
<time>2024-05-10T14:43:48Z</time>
</trkpt>
<trkpt lat="49.5094146206975" lon="9.07264994457364">
<ele>272</ele>
<time>2024-05-10T14:43:49Z</time>
</trkpt>
<trkpt lat="49.50941847637296" lon="9.072708114981651">
<ele>272.2</ele>
<time>2024-05-10T14:43:50Z</time>
</trkpt>
<trkpt lat="49.509422248229384" lon="9.072761507704854">
<ele>272.4</ele>
<time>2024-05-10T14:43:51Z</time>
</trkpt>
<trkpt lat="49.50942610390484" lon="9.072812050580978">
<ele>272.4</ele>
<time>2024-05-10T14:43:52Z</time>
</trkpt>
<trkpt lat="49.50942987576127" lon="9.07286829315126">
<ele>272.4</ele>
<time>2024-05-10T14:43:53Z</time>
</trkpt>
<trkpt lat="49.50944513082504" lon="9.072921685874462">
<ele>272.4</ele>
<time>2024-05-10T14:43:54Z</time>
</trkpt>
<trkpt lat="49.50945275835693" lon="9.072971306741238">
<ele>272.6</ele>
<time>2024-05-10T14:43:55Z</time>
</trkpt>
<trkpt lat="49.50945661403239" lon="9.073015144094825">
<ele>272.6</ele>
<time>2024-05-10T14:43:56Z</time>
</trkpt>
<trkpt lat="49.509460385888815" lon="9.07306283712387">
<ele>272.8</ele>
<time>2024-05-10T14:43:57Z</time>
</trkpt>
<trkpt lat="49.509460385888815" lon="9.073113379999995">
<ele>272.8</ele>
<time>2024-05-10T14:43:58Z</time>
</trkpt>
<trkpt lat="49.509460385888815" lon="9.073166772723198">
<ele>273</ele>
<time>2024-05-10T14:43:59Z</time>
</trkpt>
<trkpt lat="49.509464241564274" lon="9.07322117127478">
<ele>273.2</ele>
<time>2024-05-10T14:44:00Z</time>
</trkpt>
<trkpt lat="49.5094680134207" lon="9.073273641988637">
<ele>273.4</ele>
<time>2024-05-10T14:44:01Z</time>
</trkpt>
<trkpt lat="49.509464241564274" lon="9.073327034711838">
<ele>273.6</ele>
<time>2024-05-10T14:44:02Z</time>
</trkpt>
<trkpt lat="49.509464241564274" lon="9.07338327728212">
<ele>273.6</ele>
<time>2024-05-10T14:44:03Z</time>
</trkpt>
<trkpt lat="49.50945661403239" lon="9.07344144769013">
<ele>273.8</ele>
<time>2024-05-10T14:44:04Z</time>
</trkpt>
<trkpt lat="49.50945275835693" lon="9.07350154593587">
<ele>274</ele>
<time>2024-05-10T14:44:05Z</time>
</trkpt>
<trkpt lat="49.50945275835693" lon="9.07355879433453">
<ele>274.2</ele>
<time>2024-05-10T14:44:06Z</time>
</trkpt>
<trkpt lat="49.50945275835693" lon="9.073610259220004">
<ele>274.4</ele>
<time>2024-05-10T14:44:07Z</time>
</trkpt>
<trkpt lat="49.50945275835693" lon="9.073663651943209">
<ele>274.6</ele>
<time>2024-05-10T14:44:08Z</time>
</trkpt>
<trkpt lat="49.5094489865005" lon="9.07371805049479">
<ele>274.6</ele>
<time>2024-05-10T14:44:09Z</time>
</trkpt>
<trkpt lat="49.509441358968616" lon="9.073773371055722">
<ele>274.8</ele>
<time>2024-05-10T14:44:10Z</time>
</trkpt>
<trkpt lat="49.50942987576127" lon="9.073826763778923">
<ele>275</ele>
<time>2024-05-10T14:44:11Z</time>
</trkpt>
<trkpt lat="49.50942610390484" lon="9.073880156502128">
<ele>275.2</ele>
<time>2024-05-10T14:44:12Z</time>
</trkpt>
<trkpt lat="49.509422248229384" lon="9.073927849531174">
<ele>275.4</ele>
<time>2024-05-10T14:44:13Z</time>
</trkpt>
<trkpt lat="49.50941847637296" lon="9.073978392407298">
<ele>275.6</ele>
<time>2024-05-10T14:44:14Z</time>
</trkpt>
<trkpt lat="49.50940699316561" lon="9.07403371296823">
<ele>275.8</ele>
<time>2024-05-10T14:44:15Z</time>
</trkpt>
<trkpt lat="49.50939173810184" lon="9.07409188337624">
<ele>275.8</ele>
<time>2024-05-10T14:44:16Z</time>
</trkpt>
<trkpt lat="49.509384110569954" lon="9.07415198162198">
<ele>276</ele>
<time>2024-05-10T14:44:17Z</time>
</trkpt>
<trkpt lat="49.50937648303807" lon="9.07421300187707">
<ele>276.2</ele>
<time>2024-05-10T14:44:18Z</time>
</trkpt>
<trkpt lat="49.50936885550618" lon="9.07427310012281">
<ele>276.4</ele>
<time>2024-05-10T14:44:19Z</time>
</trkpt>
<trkpt lat="49.50935737229884" lon="9.07433026470244">
<ele>276.6</ele>
<time>2024-05-10T14:44:20Z</time>
</trkpt>
<trkpt lat="49.50934597291052" lon="9.07438843511045">
<ele>276.6</ele>
<time>2024-05-10T14:44:21Z</time>
</trkpt>
<trkpt lat="49.50933448970318" lon="9.074444761499764">
<ele>276.6</ele>
<time>2024-05-10T14:44:22Z</time>
</trkpt>
<trkpt lat="49.509323090314865" lon="9.074500082060696">
<ele>276.6</ele>
<time>2024-05-10T14:44:23Z</time>
</trkpt>
<trkpt lat="49.50931160710752" lon="9.07456294633448">
<ele>276.6</ele>
<time>2024-05-10T14:44:24Z</time>
</trkpt>
<trkpt lat="49.50930020771921" lon="9.074621200561523">
<ele>276.6</ele>
<time>2024-05-10T14:44:25Z</time>
</trkpt>
<trkpt lat="49.50928872451186" lon="9.074674593284726">
<ele>276.6</ele>
<time>2024-05-10T14:44:26Z</time>
</trkpt>
<trkpt lat="49.50927346944809" lon="9.074727986007929">
<ele>276.8</ele>
<time>2024-05-10T14:44:27Z</time>
</trkpt>
<trkpt lat="49.50925821438432" lon="9.074780456721784">
<ele>276.8</ele>
<time>2024-05-10T14:44:28Z</time>
</trkpt>
<trkpt lat="49.509246814996" lon="9.074832843616605">
<ele>277</ele>
<time>2024-05-10T14:44:29Z</time>
</trkpt>
<trkpt lat="49.50923155993223" lon="9.07488531433046">
<ele>277</ele>
<time>2024-05-10T14:44:30Z</time>
</trkpt>
<trkpt lat="49.509223932400346" lon="9.074934935197234">
<ele>277.2</ele>
<time>2024-05-10T14:44:31Z</time>
</trkpt>
<trkpt lat="49.50922007672489" lon="9.074984472244978">
<ele>277.2</ele>
<time>2024-05-10T14:44:32Z</time>
</trkpt>
<trkpt lat="49.509204821661115" lon="9.075035015121102">
<ele>277.4</ele>
<time>2024-05-10T14:44:33Z</time>
</trkpt>
<trkpt lat="49.50918956659734" lon="9.075086563825607">
<ele>277.4</ele>
<time>2024-05-10T14:44:34Z</time>
</trkpt>
<trkpt lat="49.50917808339" lon="9.075135178864002">
<ele>277.4</ele>
<time>2024-05-10T14:44:35Z</time>
</trkpt>
<trkpt lat="49.50916668400168" lon="9.07517809420824">
<ele>277.6</ele>
<time>2024-05-10T14:44:36Z</time>
</trkpt>
<trkpt lat="49.50915142893791" lon="9.07522008754313">
<ele>277.6</ele>
<time>2024-05-10T14:44:37Z</time>
</trkpt>
<trkpt lat="49.509128546342254" lon="9.075282029807568">
<ele>277.4</ele>
<time>2024-05-10T14:44:38Z</time>
</trkpt>
<trkpt lat="49.50911706313491" lon="9.075347827747464">
<ele>277.4</ele>
<time>2024-05-10T14:44:39Z</time>
</trkpt>
<trkpt lat="49.50910943560302" lon="9.075420331209898">
<ele>277.4</ele>
<time>2024-05-10T14:44:40Z</time>
</trkpt>
<trkpt lat="49.50909040868282" lon="9.075488056987524">
<ele>277.6</ele>
<time>2024-05-10T14:44:41Z</time>
</trkpt>
<trkpt lat="49.50907515361905" lon="9.075558632612228">
<ele>277.6</ele>
<time>2024-05-10T14:44:42Z</time>
</trkpt>
<trkpt lat="49.509048415347934" lon="9.075623508542776">
<ele>277.8</ele>
<time>2024-05-10T14:44:43Z</time>
</trkpt>
<trkpt lat="49.50901404954493" lon="9.075684528797863">
<ele>277.8</ele>
<time>2024-05-10T14:44:44Z</time>
</trkpt>
<trkpt lat="49.50897976756096" lon="9.075748398900032">
<ele>277.8</ele>
<time>2024-05-10T14:44:45Z</time>
</trkpt>
<trkpt lat="49.5089568849653" lon="9.075806569308044">
<ele>277.8</ele>
<time>2024-05-10T14:44:46Z</time>
</trkpt>
<trkpt lat="49.50893777422607" lon="9.075864739716051">
<ele>277.6</ele>
<time>2024-05-10T14:44:47Z</time>
</trkpt>
<trkpt lat="49.5089225191623" lon="9.07592860981822">
<ele>277.6</ele>
<time>2024-05-10T14:44:48Z</time>
</trkpt>
<trkpt lat="49.50889963656664" lon="9.075991557911038">
<ele>277.8</ele>
<time>2024-05-10T14:44:49Z</time>
</trkpt>
<trkpt lat="49.50887675397098" lon="9.076047884300351">
<ele>278</ele>
<time>2024-05-10T14:44:50Z</time>
</trkpt>
<trkpt lat="49.50885001569986" lon="9.076101277023554">
<ele>278</ele>
<time>2024-05-10T14:44:51Z</time>
</trkpt>
<trkpt lat="49.50881573371589" lon="9.076156597584486">
<ele>278.2</ele>
<time>2024-05-10T14:44:52Z</time>
</trkpt>
<trkpt lat="49.50879662297666" lon="9.076211918145418">
<ele>278.4</ele>
<time>2024-05-10T14:44:53Z</time>
</trkpt>
<trkpt lat="49.50877759605646" lon="9.076276710256934">
<ele>278.6</ele>
<time>2024-05-10T14:44:54Z</time>
</trkpt>
<trkpt lat="49.5087547134608" lon="9.076334880664945">
<ele>278.6</ele>
<time>2024-05-10T14:44:55Z</time>
</trkpt>
<trkpt lat="49.508731830865145" lon="9.076391207054256">
<ele>278.8</ele>
<time>2024-05-10T14:44:56Z</time>
</trkpt>
<trkpt lat="49.508708948269486" lon="9.07644652761519">
<ele>279</ele>
<time>2024-05-10T14:44:57Z</time>
</trkpt>
<trkpt lat="49.50868220999837" lon="9.07650369219482">
<ele>279</ele>
<time>2024-05-10T14:44:58Z</time>
</trkpt>
<trkpt lat="49.508651699870825" lon="9.076558090746405">
<ele>279.2</ele>
<time>2024-05-10T14:44:59Z</time>
</trkpt>
<trkpt lat="49.50862496159971" lon="9.076615255326033">
<ele>279.2</ele>
<time>2024-05-10T14:45:00Z</time>
</trkpt>
<trkpt lat="49.50859830714762" lon="9.076664876192808">
<ele>279.4</ele>
<time>2024-05-10T14:45:01Z</time>
</trkpt>
<trkpt lat="49.508571568876505" lon="9.07671634107828">
<ele>279.6</ele>
<time>2024-05-10T14:45:02Z</time>
</trkpt>
<trkpt lat="49.50854868628085" lon="9.076767889782786">
<ele>279.6</ele>
<time>2024-05-10T14:45:03Z</time>
</trkpt>
<trkpt lat="49.5085181761533" lon="9.076821282505987">
<ele>279.6</ele>
<time>2024-05-10T14:45:04Z</time>
</trkpt>
<trkpt lat="49.50849529355765" lon="9.076869897544384">
<ele>279.8</ele>
<time>2024-05-10T14:45:05Z</time>
</trkpt>
<trkpt lat="49.50846855528653" lon="9.076923290267588">
<ele>279.8</ele>
<time>2024-05-10T14:45:06Z</time>
</trkpt>
<trkpt lat="49.50844190083444" lon="9.07697676680982">
<ele>279.6</ele>
<time>2024-05-10T14:45:07Z</time>
</trkpt>
<trkpt lat="49.50841516256333" lon="9.077032087370752">
<ele>279.8</ele>
<time>2024-05-10T14:45:08Z</time>
</trkpt>
<trkpt lat="49.508392279967666" lon="9.077088329941034">
<ele>279.6</ele>
<time>2024-05-10T14:45:09Z</time>
</trkpt>
<trkpt lat="49.50836562551558" lon="9.077146500349045">
<ele>279.6</ele>
<time>2024-05-10T14:45:10Z</time>
</trkpt>
<trkpt lat="49.50833888724446" lon="9.077203748747706">
<ele>279.6</ele>
<time>2024-05-10T14:45:11Z</time>
</trkpt>
<trkpt lat="49.508312148973346" lon="9.077261919155715">
<ele>279.8</ele>
<time>2024-05-10T14:45:12Z</time>
</trkpt>
<trkpt lat="49.50828549452126" lon="9.077320089563727">
<ele>280</ele>
<time>2024-05-10T14:45:13Z</time>
</trkpt>
<trkpt lat="49.50825875625014" lon="9.07737348228693">
<ele>280</ele>
<time>2024-05-10T14:45:14Z</time>
</trkpt>
<trkpt lat="49.5082282461226" lon="9.077420169487596">
<ele>280.2</ele>
<time>2024-05-10T14:45:15Z</time>
</trkpt>
<trkpt lat="49.508197735995054" lon="9.07747456803918">
<ele>280.4</ele>
<time>2024-05-10T14:45:16Z</time>
</trkpt>
<trkpt lat="49.50817485339939" lon="9.077531732618809">
<ele>280.4</ele>
<time>2024-05-10T14:45:17Z</time>
</trkpt>
<trkpt lat="49.50814811512828" lon="9.07758705317974">
<ele>280.6</ele>
<time>2024-05-10T14:45:18Z</time>
</trkpt>
<trkpt lat="49.50812146067619" lon="9.077639523893597">
<ele>280.6</ele>
<time>2024-05-10T14:45:19Z</time>
</trkpt>
<trkpt lat="49.50809095054865" lon="9.077698700129986">
<ele>280.6</ele>
<time>2024-05-10T14:45:20Z</time>
</trkpt>
<trkpt lat="49.508060440421104" lon="9.077758714556694">
<ele>280.8</ele>
<time>2024-05-10T14:45:21Z</time>
</trkpt>
<trkpt lat="49.50803370214999" lon="9.077815040946009">
<ele>280.8</ele>
<time>2024-05-10T14:45:22Z</time>
</trkpt>
<trkpt lat="49.50800319202244" lon="9.07786650583148">
<ele>280.8</ele>
<time>2024-05-10T14:45:23Z</time>
</trkpt>
<trkpt lat="49.50796882621944" lon="9.077919898554685">
<ele>280.6</ele>
<time>2024-05-10T14:45:24Z</time>
</trkpt>
<trkpt lat="49.507938316091895" lon="9.077971447259188">
<ele>280.6</ele>
<time>2024-05-10T14:45:25Z</time>
</trkpt>
<trkpt lat="49.507900178432465" lon="9.07802483998239">
<ele>280.6</ele>
<time>2024-05-10T14:45:26Z</time>
</trkpt>
<trkpt lat="49.50786589644849" lon="9.078076304867864">
<ele>280.6</ele>
<time>2024-05-10T14:45:27Z</time>
</trkpt>
<trkpt lat="49.50783153064549" lon="9.07812491990626">
<ele>280.4</ele>
<time>2024-05-10T14:45:28Z</time>
</trkpt>
<trkpt lat="49.507801020517945" lon="9.078169763088226">
<ele>280.4</ele>
<time>2024-05-10T14:45:29Z</time>
</trkpt>
<trkpt lat="49.50776665471494" lon="9.078209828585386">
<ele>280.4</ele>
<time>2024-05-10T14:45:30Z</time>
</trkpt>
<trkpt lat="49.50773237273097" lon="9.078247966244817">
<ele>280.2</ele>
<time>2024-05-10T14:45:31Z</time>
</trkpt>
<trkpt lat="49.507701862603426" lon="9.078285181894898">
<ele>280.2</ele>
<time>2024-05-10T14:45:32Z</time>
</trkpt>
<trkpt lat="49.50766749680042" lon="9.078316614031792">
<ele>280.2</ele>
<time>2024-05-10T14:45:33Z</time>
</trkpt>
<trkpt lat="49.50763313099742" lon="9.078350057825446">
<ele>280.2</ele>
<time>2024-05-10T14:45:34Z</time>
</trkpt>
<trkpt lat="49.50759884901345" lon="9.078383417800069">
<ele>280.2</ele>
<time>2024-05-10T14:45:35Z</time>
</trkpt>
<trkpt lat="49.507564483210444" lon="9.078414849936962">
<ele>280.4</ele>
<time>2024-05-10T14:45:36Z</time>
</trkpt>
<trkpt lat="49.50753020122647" lon="9.078445360064508">
<ele>280.4</ele>
<time>2024-05-10T14:45:37Z</time>
</trkpt>
<trkpt lat="49.50749583542347" lon="9.07847779802978">
<ele>280.4</ele>
<time>2024-05-10T14:45:38Z</time>
</trkpt>
<trkpt lat="49.507461469620466" lon="9.078511158004403">
<ele>280.4</ele>
<time>2024-05-10T14:45:39Z</time>
</trkpt>
<trkpt lat="49.50743095949292" lon="9.078543595969675">
<ele>280.6</ele>
<time>2024-05-10T14:45:40Z</time>
</trkpt>
<trkpt lat="49.50740044936538" lon="9.078570334240794">
<ele>280.6</ele>
<time>2024-05-10T14:45:41Z</time>
</trkpt>
<trkpt lat="49.50736993923783" lon="9.07859992235899">
<ele>280.8</ele>
<time>2024-05-10T14:45:42Z</time>
</trkpt>
<trkpt lat="49.50734328478575" lon="9.078626576811075">
<ele>280.8</ele>
<time>2024-05-10T14:45:43Z</time>
</trkpt>
<trkpt lat="49.5073127746582" lon="9.078653315082192">
<ele>281</ele>
<time>2024-05-10T14:45:44Z</time>
</trkpt>
<trkpt lat="49.507286036387086" lon="9.078684747219086">
<ele>281.2</ele>
<time>2024-05-10T14:45:45Z</time>
</trkpt>
<trkpt lat="49.50725929811597" lon="9.078713413327932">
<ele>281.4</ele>
<time>2024-05-10T14:45:46Z</time>
</trkpt>
<trkpt lat="49.50723641552031" lon="9.078738139942288">
<ele>281.6</ele>
<time>2024-05-10T14:45:47Z</time>
</trkpt>
<trkpt lat="49.507209761068225" lon="9.078764878213406">
<ele>281.6</ele>
<time>2024-05-10T14:45:48Z</time>
</trkpt>
<trkpt lat="49.50718302279711" lon="9.07879346050322">
<ele>281.8</ele>
<time>2024-05-10T14:45:49Z</time>
</trkpt>
<trkpt lat="49.50716014020145" lon="9.078820198774338">
<ele>282</ele>
<time>2024-05-10T14:45:50Z</time>
</trkpt>
<trkpt lat="49.50713340193033" lon="9.078847859054804">
<ele>282.2</ele>
<time>2024-05-10T14:45:51Z</time>
</trkpt>
<trkpt lat="49.50710674747825" lon="9.078878369182348">
<ele>282.2</ele>
<time>2024-05-10T14:45:52Z</time>
</trkpt>
<trkpt lat="49.50708000920713" lon="9.078905023634434">
<ele>282.6</ele>
<time>2024-05-10T14:45:53Z</time>
</trkpt>
<trkpt lat="49.50705712661147" lon="9.07893461175263">
<ele>282.8</ele>
<time>2024-05-10T14:45:54Z</time>
</trkpt>
<trkpt lat="49.507030472159386" lon="9.078965121880174">
<ele>283</ele>
<time>2024-05-10T14:45:55Z</time>
</trkpt>
<trkpt lat="49.50700373388827" lon="9.0789966378361">
<ele>283.2</ele>
<time>2024-05-10T14:45:56Z</time>
</trkpt>
<trkpt lat="49.50697707943618" lon="9.079023292288184">
<ele>283.4</ele>
<time>2024-05-10T14:45:57Z</time>
</trkpt>
<trkpt lat="49.50695796869695" lon="9.079046174883842">
<ele>283.6</ele>
<time>2024-05-10T14:45:58Z</time>
</trkpt>
<trkpt lat="49.506931230425835" lon="9.07907291315496">
<ele>283.8</ele>
<time>2024-05-10T14:45:59Z</time>
</trkpt>
<trkpt lat="49.50690457597375" lon="9.079096717759969">
<ele>284</ele>
<time>2024-05-10T14:46:00Z</time>
</trkpt>
<trkpt lat="49.50687783770263" lon="9.079123456031084">
<ele>284.2</ele>
<time>2024-05-10T14:46:01Z</time>
</trkpt>
<trkpt lat="49.506854955106974" lon="9.079154888167976">
<ele>284.4</ele>
<time>2024-05-10T14:46:02Z</time>
</trkpt>
<trkpt lat="49.50682830065489" lon="9.079183554276824">
<ele>284.6</ele>
<time>2024-05-10T14:46:03Z</time>
</trkpt>
<trkpt lat="49.50680156238377" lon="9.07921020872891">
<ele>284.6</ele>
<time>2024-05-10T14:46:04Z</time>
</trkpt>
<trkpt lat="49.50678245164454" lon="9.079236947000028">
<ele>284.8</ele>
<time>2024-05-10T14:46:05Z</time>
</trkpt>
<trkpt lat="49.50675956904888" lon="9.079263685271144">
<ele>285</ele>
<time>2024-05-10T14:46:06Z</time>
</trkpt>
<trkpt lat="49.50673668645322" lon="9.079291261732578">
<ele>285.2</ele>
<time>2024-05-10T14:46:07Z</time>
</trkpt>
<trkpt lat="49.506713803857565" lon="9.079321855679154">
<ele>285.6</ele>
<time>2024-05-10T14:46:08Z</time>
</trkpt>
<trkpt lat="49.506694776937366" lon="9.07934851013124">
<ele>285.8</ele>
<time>2024-05-10T14:46:09Z</time>
</trkpt>
<trkpt lat="49.506675666198134" lon="9.079373320564628">
<ele>286</ele>
<time>2024-05-10T14:46:10Z</time>
</trkpt>
<trkpt lat="49.506656639277935" lon="9.07940475270152">
<ele>286.2</ele>
<time>2024-05-10T14:46:11Z</time>
</trkpt>
<trkpt lat="49.506637528538704" lon="9.079436268657446">
<ele>286.4</ele>
<time>2024-05-10T14:46:12Z</time>
</trkpt>
<trkpt lat="49.506614645943046" lon="9.079471556469798">
<ele>286.6</ele>
<time>2024-05-10T14:46:13Z</time>
</trkpt>
<trkpt lat="49.50659176334739" lon="9.07950491644442">
<ele>287</ele>
<time>2024-05-10T14:46:14Z</time>
</trkpt>
<trkpt lat="49.50656888075173" lon="9.079534504562616">
<ele>287.2</ele>
<time>2024-05-10T14:46:15Z</time>
</trkpt>
<trkpt lat="49.50654599815607" lon="9.079563086852431">
<ele>287.4</ele>
<time>2024-05-10T14:46:16Z</time>
</trkpt>
<trkpt lat="49.50652311556041" lon="9.079596446827054">
<ele>287.6</ele>
<time>2024-05-10T14:46:17Z</time>
</trkpt>
<trkpt lat="49.506500232964754" lon="9.079629890620708">
<ele>287.8</ele>
<time>2024-05-10T14:46:18Z</time>
</trkpt>
<trkpt lat="49.506477350369096" lon="9.079661322757602">
<ele>288</ele>
<time>2024-05-10T14:46:19Z</time>
</trkpt>
<trkpt lat="49.506458239629865" lon="9.079693760722876">
<ele>288</ele>
<time>2024-05-10T14:46:20Z</time>
</trkpt>
<trkpt lat="49.506435357034206" lon="9.079725192859769">
<ele>288.2</ele>
<time>2024-05-10T14:46:21Z</time>
</trkpt>
<trkpt lat="49.50641247443855" lon="9.079758636653423">
<ele>288.4</ele>
<time>2024-05-10T14:46:22Z</time>
</trkpt>
<trkpt lat="49.50639336369932" lon="9.079788140952587">
<ele>288.6</ele>
<time>2024-05-10T14:46:23Z</time>
</trkpt>
<trkpt lat="49.50637048110366" lon="9.079821584746242">
<ele>288.8</ele>
<time>2024-05-10T14:46:24Z</time>
</trkpt>
<trkpt lat="49.50634382665157" lon="9.079848239198329">
<ele>289</ele>
<time>2024-05-10T14:46:25Z</time>
</trkpt>
<trkpt lat="49.506317088380456" lon="9.079874977469444">
<ele>289</ele>
<time>2024-05-10T14:46:26Z</time>
</trkpt>
<trkpt lat="49.50629043392837" lon="9.079906409606338">
<ele>289.2</ele>
<time>2024-05-10T14:46:27Z</time>
</trkpt>
<trkpt lat="49.50626746751368" lon="9.079934991896152">
<ele>289.4</ele>
<time>2024-05-10T14:46:28Z</time>
</trkpt>
<trkpt lat="49.506240813061595" lon="9.079964580014348">
<ele>289.6</ele>
<time>2024-05-10T14:46:29Z</time>
</trkpt>
<trkpt lat="49.50621407479048" lon="9.079995090141892">
<ele>289.8</ele>
<time>2024-05-10T14:46:30Z</time>
</trkpt>
<trkpt lat="49.50619504787028" lon="9.080026606097816">
<ele>290</ele>
<time>2024-05-10T14:46:31Z</time>
</trkpt>
<trkpt lat="49.50617216527462" lon="9.080053260549905">
<ele>290.2</ele>
<time>2024-05-10T14:46:32Z</time>
</trkpt>
<trkpt lat="49.50614928267896" lon="9.08007614314556">
<ele>290.2</ele>
<time>2024-05-10T14:46:33Z</time>
</trkpt>
<trkpt lat="49.5061264000833" lon="9.08010195940733">
<ele>290.4</ele>
<time>2024-05-10T14:46:34Z</time>
</trkpt>
<trkpt lat="49.50610343366861" lon="9.080129619687796">
<ele>290.6</ele>
<time>2024-05-10T14:46:35Z</time>
</trkpt>
<trkpt lat="49.506084406748414" lon="9.080153424292805">
<ele>290.8</ele>
<time>2024-05-10T14:46:36Z</time>
</trkpt>
<trkpt lat="49.50606915168464" lon="9.080186784267426">
<ele>291</ele>
<time>2024-05-10T14:46:37Z</time>
</trkpt>
<trkpt lat="49.50605389662087" lon="9.080222072079778">
<ele>291.2</ele>
<time>2024-05-10T14:46:38Z</time>
</trkpt>
<trkpt lat="49.50603478588164" lon="9.080249732360244">
<ele>291.4</ele>
<time>2024-05-10T14:46:39Z</time>
</trkpt>
<trkpt lat="49.50601575896144" lon="9.080281248316169">
<ele>291.6</ele>
<time>2024-05-10T14:46:40Z</time>
</trkpt>
<trkpt lat="49.50599664822221" lon="9.080309830605984">
<ele>291.8</ele>
<time>2024-05-10T14:46:41Z</time>
</trkpt>
<trkpt lat="49.505985248833895" lon="9.080345118418336">
<ele>291.8</ele>
<time>2024-05-10T14:46:42Z</time>
</trkpt>
<trkpt lat="49.50597376562655" lon="9.08037655055523">
<ele>292.2</ele>
<time>2024-05-10T14:46:43Z</time>
</trkpt>
<trkpt lat="49.50595851056278" lon="9.080405216664076">
<ele>292.4</ele>
<time>2024-05-10T14:46:44Z</time>
</trkpt>
<trkpt lat="49.50593948364258" lon="9.08043472096324">
<ele>292.6</ele>
<time>2024-05-10T14:46:45Z</time>
</trkpt>
<trkpt lat="49.50591651722789" lon="9.080465314909816">
<ele>292.6</ele>
<time>2024-05-10T14:46:46Z</time>
</trkpt>
<trkpt lat="49.50589749030769" lon="9.08049289137125">
<ele>292.8</ele>
<time>2024-05-10T14:46:47Z</time>
</trkpt>
<trkpt lat="49.50587837956846" lon="9.080525329336524">
<ele>292.8</ele>
<time>2024-05-10T14:46:48Z</time>
</trkpt>
<trkpt lat="49.505863124504685" lon="9.080558773130178">
<ele>293</ele>
<time>2024-05-10T14:46:49Z</time>
</trkpt>
<trkpt lat="49.505844097584486" lon="9.08059305511415">
<ele>293</ele>
<time>2024-05-10T14:46:50Z</time>
</trkpt>
<trkpt lat="49.505824986845255" lon="9.080630270764232">
<ele>293.2</ele>
<time>2024-05-10T14:46:51Z</time>
</trkpt>
<trkpt lat="49.50580973178148" lon="9.080659858882427">
<ele>293.4</ele>
<time>2024-05-10T14:46:52Z</time>
</trkpt>
<trkpt lat="49.50579070486128" lon="9.080688441172242">
<ele>293.4</ele>
<time>2024-05-10T14:46:53Z</time>
</trkpt>
<trkpt lat="49.50577159412205" lon="9.0807113237679">
<ele>293.6</ele>
<time>2024-05-10T14:46:54Z</time>
</trkpt>
<trkpt lat="49.50575248338282" lon="9.080735128372908">
<ele>293.6</ele>
<time>2024-05-10T14:46:55Z</time>
</trkpt>
<trkpt lat="49.50573722831905" lon="9.080762788653374">
<ele>293.8</ele>
<time>2024-05-10T14:46:56Z</time>
</trkpt>
<trkpt lat="49.50572197325528" lon="9.080789526924493">
<ele>293.8</ele>
<time>2024-05-10T14:46:57Z</time>
</trkpt>
<trkpt lat="49.505706718191504" lon="9.080820037052035">
<ele>294</ele>
<time>2024-05-10T14:46:58Z</time>
</trkpt>
<trkpt lat="49.50569146312773" lon="9.080855324864388">
<ele>294</ele>
<time>2024-05-10T14:46:59Z</time>
</trkpt>
<trkpt lat="49.50568006373942" lon="9.080891534686089">
<ele>294.2</ele>
<time>2024-05-10T14:47:00Z</time>
</trkpt>
<trkpt lat="49.50567243620753" lon="9.08092975616455">
<ele>294.4</ele>
<time>2024-05-10T14:47:01Z</time>
</trkpt>
<trkpt lat="49.5056533254683" lon="9.080964960157871">
<ele>294.4</ele>
<time>2024-05-10T14:47:02Z</time>
</trkpt>
<trkpt lat="49.5056342985481" lon="9.081000247970223">
<ele>294.6</ele>
<time>2024-05-10T14:47:03Z</time>
</trkpt>
<trkpt lat="49.50561141595245" lon="9.081041319295764">
<ele>294.8</ele>
<time>2024-05-10T14:47:04Z</time>
</trkpt>
<trkpt lat="49.505588449537754" lon="9.081078451126814">
<ele>295</ele>
<time>2024-05-10T14:47:05Z</time>
</trkpt>
<trkpt lat="49.505569422617555" lon="9.081118516623974">
<ele>295.2</ele>
<time>2024-05-10T14:47:06Z</time>
</trkpt>
<trkpt lat="49.50555031187832" lon="9.08114810474217">
<ele>295.4</ele>
<time>2024-05-10T14:47:07Z</time>
</trkpt>
<trkpt lat="49.50553128495813" lon="9.0811862424016">
<ele>295.4</ele>
<time>2024-05-10T14:47:08Z</time>
</trkpt>
<trkpt lat="49.505508402362466" lon="9.081225385889413">
<ele>295.6</ele>
<time>2024-05-10T14:47:09Z</time>
</trkpt>
<trkpt lat="49.505489291623235" lon="9.081258745864034">
<ele>295.8</ele>
<time>2024-05-10T14:47:10Z</time>
</trkpt>
<trkpt lat="49.505470264703035" lon="9.081291183829308">
<ele>296</ele>
<time>2024-05-10T14:47:11Z</time>
</trkpt>
<trkpt lat="49.50545115396381" lon="9.08132454380393">
<ele>296.2</ele>
<time>2024-05-10T14:47:12Z</time>
</trkpt>
<trkpt lat="49.505432127043605" lon="9.081361759454012">
<ele>296.4</ele>
<time>2024-05-10T14:47:13Z</time>
</trkpt>
<trkpt lat="49.505413016304374" lon="9.081397969275711">
<ele>296.6</ele>
<time>2024-05-10T14:47:14Z</time>
</trkpt>
<trkpt lat="49.50539390556514" lon="9.081433257088063">
<ele>296.8</ele>
<time>2024-05-10T14:47:15Z</time>
</trkpt>
<trkpt lat="49.50537487864494" lon="9.081469466909766">
<ele>297</ele>
<time>2024-05-10T14:47:16Z</time>
</trkpt>
<trkpt lat="49.50535576790571" lon="9.081504754722118">
<ele>297.2</ele>
<time>2024-05-10T14:47:17Z</time>
</trkpt>
<trkpt lat="49.50533674098551" lon="9.081533420830963">
<ele>297.4</ele>
<time>2024-05-10T14:47:18Z</time>
</trkpt>
<trkpt lat="49.505313858389854" lon="9.081562925130129">
<ele>297.6</ele>
<time>2024-05-10T14:47:19Z</time>
</trkpt>
<trkpt lat="49.50530237518251" lon="9.081596368923783">
<ele>297.8</ele>
<time>2024-05-10T14:47:20Z</time>
</trkpt>
<trkpt lat="49.50528334826231" lon="9.081626879051328">
<ele>298</ele>
<time>2024-05-10T14:47:21Z</time>
</trkpt>
<trkpt lat="49.50526423752308" lon="9.08165831118822">
<ele>298.2</ele>
<time>2024-05-10T14:47:22Z</time>
</trkpt>
<trkpt lat="49.50524898245931" lon="9.081691671162844">
<ele>298.4</ele>
<time>2024-05-10T14:47:23Z</time>
</trkpt>
<trkpt lat="49.505233727395535" lon="9.081726958975196">
<ele>298.6</ele>
<time>2024-05-10T14:47:24Z</time>
</trkpt>
<trkpt lat="49.50521847233176" lon="9.081763252615929">
<ele>298.6</ele>
<time>2024-05-10T14:47:25Z</time>
</trkpt>
<trkpt lat="49.50520698912442" lon="9.08179854042828">
<ele>298.8</ele>
<time>2024-05-10T14:47:26Z</time>
</trkpt>
<trkpt lat="49.505191734060645" lon="9.081834750249982">
<ele>298.8</ele>
<time>2024-05-10T14:47:27Z</time>
</trkpt>
<trkpt lat="49.50517647899687" lon="9.081870038062334">
<ele>299</ele>
<time>2024-05-10T14:47:28Z</time>
</trkpt>
<trkpt lat="49.5051612239331" lon="9.081908175721765">
<ele>299.4</ele>
<time>2024-05-10T14:47:29Z</time>
</trkpt>
<trkpt lat="49.5051421970129" lon="9.081943463534117">
<ele>299.4</ele>
<time>2024-05-10T14:47:30Z</time>
</trkpt>
<trkpt lat="49.50513071380555" lon="9.081978751346467">
<ele>299.6</ele>
<time>2024-05-10T14:47:31Z</time>
</trkpt>
<trkpt lat="49.50511168688536" lon="9.082010267302394">
<ele>299.8</ele>
<time>2024-05-10T14:47:32Z</time>
</trkpt>
<trkpt lat="49.50510020367801" lon="9.082050248980522">
<ele>300</ele>
<time>2024-05-10T14:47:33Z</time>
</trkpt>
<trkpt lat="49.505092576146126" lon="9.082090314477682">
<ele>300.2</ele>
<time>2024-05-10T14:47:34Z</time>
</trkpt>
<trkpt lat="49.50508494861424" lon="9.082131385803224">
<ele>300.4</ele>
<time>2024-05-10T14:47:35Z</time>
</trkpt>
<trkpt lat="49.50506969355047" lon="9.082166589796543">
<ele>300.6</ele>
<time>2024-05-10T14:47:36Z</time>
</trkpt>
<trkpt lat="49.50505821034312" lon="9.082204811275004">
<ele>300.6</ele>
<time>2024-05-10T14:47:37Z</time>
</trkpt>
<trkpt lat="49.50503918342292" lon="9.08223532140255">
<ele>300.6</ele>
<time>2024-05-10T14:47:38Z</time>
</trkpt>
<trkpt lat="49.50502007268369" lon="9.082266753539445">
<ele>300.8</ele>
<time>2024-05-10T14:47:39Z</time>
</trkpt>
<trkpt lat="49.50500481761992" lon="9.082300113514066">
<ele>300.8</ele>
<time>2024-05-10T14:47:40Z</time>
</trkpt>
<trkpt lat="49.50498956255615" lon="9.082335401326418">
<ele>301</ele>
<time>2024-05-10T14:47:41Z</time>
</trkpt>
<trkpt lat="49.50496667996049" lon="9.08236976712942">
<ele>301</ele>
<time>2024-05-10T14:47:42Z</time>
</trkpt>
<trkpt lat="49.5049400255084" lon="9.08241176046431">
<ele>301.2</ele>
<time>2024-05-10T14:47:43Z</time>
</trkpt>
<trkpt lat="49.50492091476917" lon="9.08245174214244">
<ele>301.4</ele>
<time>2024-05-10T14:47:44Z</time>
</trkpt>
<trkpt lat="49.504898032173514" lon="9.0824918076396">
<ele>301.6</ele>
<time>2024-05-10T14:47:45Z</time>
</trkpt>
<trkpt lat="49.504875149577856" lon="9.082536650821568">
<ele>301.8</ele>
<time>2024-05-10T14:47:46Z</time>
</trkpt>
<trkpt lat="49.5048522669822" lon="9.082581494003534">
<ele>302</ele>
<time>2024-05-10T14:47:47Z</time>
</trkpt>
<trkpt lat="49.504837011918426" lon="9.082632958889008">
<ele>302</ele>
<time>2024-05-10T14:47:48Z</time>
</trkpt>
<trkpt lat="49.50482175685465" lon="9.082691129297018">
<ele>302</ele>
<time>2024-05-10T14:47:49Z</time>
</trkpt>
<trkpt lat="49.50480264611542" lon="9.082739828154445">
<ele>302</ele>
<time>2024-05-10T14:47:50Z</time>
</trkpt>
<trkpt lat="49.50478361919522" lon="9.082783665508032">
<ele>302</ele>
<time>2024-05-10T14:47:51Z</time>
</trkpt>
<trkpt lat="49.50476450845599" lon="9.08282850869">
<ele>302</ele>
<time>2024-05-10T14:47:52Z</time>
</trkpt>
<trkpt lat="49.50474162586033" lon="9.082871424034238">
<ele>302</ele>
<time>2024-05-10T14:47:53Z</time>
</trkpt>
<trkpt lat="49.504718743264675" lon="9.082918111234903">
<ele>302.2</ele>
<time>2024-05-10T14:47:54Z</time>
</trkpt>
<trkpt lat="49.50469200499356" lon="9.082962032407522">
<ele>302.2</ele>
<time>2024-05-10T14:47:55Z</time>
</trkpt>
<trkpt lat="49.50467297807336" lon="9.083008719608188">
<ele>302.2</ele>
<time>2024-05-10T14:47:56Z</time>
</trkpt>
<trkpt lat="49.5046500954777" lon="9.083061190322042">
<ele>302.2</ele>
<time>2024-05-10T14:47:57Z</time>
</trkpt>
<trkpt lat="49.50462721288204" lon="9.083116510882974">
<ele>302.4</ele>
<time>2024-05-10T14:47:58Z</time>
</trkpt>
<trkpt lat="49.504604330286384" lon="9.083158420398831">
<ele>302.4</ele>
<time>2024-05-10T14:47:59Z</time>
</trkpt>
<trkpt lat="49.504577592015266" lon="9.083207119256258">
<ele>302.6</ele>
<time>2024-05-10T14:48:00Z</time>
</trkpt>
<trkpt lat="49.504558481276035" lon="9.08324332907796">
<ele>302.8</ele>
<time>2024-05-10T14:48:01Z</time>
</trkpt>
<trkpt lat="49.50453182682395" lon="9.08328146673739">
<ele>302.8</ele>
<time>2024-05-10T14:48:02Z</time>
</trkpt>
<trkpt lat="49.50450508855283" lon="9.083325304090977">
<ele>303</ele>
<time>2024-05-10T14:48:03Z</time>
</trkpt>
<trkpt lat="49.504482205957174" lon="9.083372997120025">
<ele>303.2</ele>
<time>2024-05-10T14:48:04Z</time>
</trkpt>
<trkpt lat="49.50445932336152" lon="9.083428317680957">
<ele>303.4</ele>
<time>2024-05-10T14:48:05Z</time>
</trkpt>
<trkpt lat="49.50443266890943" lon="9.08347986638546">
<ele>303.6</ele>
<time>2024-05-10T14:48:06Z</time>
</trkpt>
<trkpt lat="49.50440978631377" lon="9.083531331270931">
<ele>303.8</ele>
<time>2024-05-10T14:48:07Z</time>
</trkpt>
<trkpt lat="49.50438681989908" lon="9.083579946309328">
<ele>304</ele>
<time>2024-05-10T14:48:08Z</time>
</trkpt>
<trkpt lat="49.50436779297888" lon="9.08363526687026">
<ele>304.2</ele>
<time>2024-05-10T14:48:09Z</time>
</trkpt>
<trkpt lat="49.504344910383224" lon="9.083682959899306">
<ele>304.4</ele>
<time>2024-05-10T14:48:10Z</time>
</trkpt>
<trkpt lat="49.50431817211211" lon="9.083729730919003">
<ele>304.6</ele>
<time>2024-05-10T14:48:11Z</time>
</trkpt>
<trkpt lat="49.50429151766002" lon="9.083778345957398">
<ele>304.8</ele>
<time>2024-05-10T14:48:12Z</time>
</trkpt>
<trkpt lat="49.504264779388905" lon="9.083825033158064">
<ele>305</ele>
<time>2024-05-10T14:48:13Z</time>
</trkpt>
<trkpt lat="49.504241896793246" lon="9.083867026492952">
<ele>305</ele>
<time>2024-05-10T14:48:14Z</time>
</trkpt>
<trkpt lat="49.50421901419759" lon="9.083908013999462">
<ele>305.2</ele>
<time>2024-05-10T14:48:15Z</time>
</trkpt>
<trkpt lat="49.50419613160193" lon="9.083948079496622">
<ele>305.2</ele>
<time>2024-05-10T14:48:16Z</time>
</trkpt>
<trkpt lat="49.50417324900627" lon="9.083988144993782">
<ele>305.4</ele>
<time>2024-05-10T14:48:17Z</time>
</trkpt>
<trkpt lat="49.5041579939425" lon="9.08403198234737">
<ele>305.4</ele>
<time>2024-05-10T14:48:18Z</time>
</trkpt>
<trkpt lat="49.504146510735154" lon="9.084078753367066">
<ele>305.4</ele>
<time>2024-05-10T14:48:19Z</time>
</trkpt>
<trkpt lat="49.50413125567138" lon="9.084124518558385">
<ele>305.4</ele>
<time>2024-05-10T14:48:20Z</time>
</trkpt>
<trkpt lat="49.50410074554384" lon="9.08416835591197">
<ele>305.4</ele>
<time>2024-05-10T14:48:21Z</time>
</trkpt>
<trkpt lat="49.50407786294818" lon="9.08420842140913">
<ele>305.4</ele>
<time>2024-05-10T14:48:22Z</time>
</trkpt>
<trkpt lat="49.504043497145176" lon="9.084241865202785">
<ele>305.6</ele>
<time>2024-05-10T14:48:23Z</time>
</trkpt>
<trkpt lat="49.5040092151612" lon="9.084282852709292">
<ele>305.6</ele>
<time>2024-05-10T14:48:24Z</time>
</trkpt>
<trkpt lat="49.503971077501774" lon="9.084322918206452">
<ele>305.6</ele>
<time>2024-05-10T14:48:25Z</time>
</trkpt>
<trkpt lat="49.50393293984234" lon="9.084361977875233">
<ele>305.6</ele>
<time>2024-05-10T14:48:26Z</time>
</trkpt>
<trkpt lat="49.503890946507454" lon="9.084402043372393">
<ele>305.6</ele>
<time>2024-05-10T14:48:27Z</time>
</trkpt>
<trkpt lat="49.50385280884802" lon="9.0844430308789">
<ele>305.8</ele>
<time>2024-05-10T14:48:28Z</time>
</trkpt>
<trkpt lat="49.50381467118859" lon="9.08448309637606">
<ele>305.8</ele>
<time>2024-05-10T14:48:29Z</time>
</trkpt>
<trkpt lat="49.50377653352916" lon="9.084513606503606">
<ele>306</ele>
<time>2024-05-10T14:48:30Z</time>
</trkpt>
<trkpt lat="49.50374216772616" lon="9.084541266784072">
<ele>306.2</ele>
<time>2024-05-10T14:48:31Z</time>
</trkpt>
<trkpt lat="49.50370788574219" lon="9.084571776911616">
<ele>306.4</ele>
<time>2024-05-10T14:48:32Z</time>
</trkpt>
<trkpt lat="49.50367729179561" lon="9.08460513688624">
<ele>306.6</ele>
<time>2024-05-10T14:48:33Z</time>
</trkpt>
<trkpt lat="49.50364678166807" lon="9.084641430526972">
<ele>307</ele>
<time>2024-05-10T14:48:34Z</time>
</trkpt>
<trkpt lat="49.50361627154052" lon="9.084678646177052">
<ele>307.2</ele>
<time>2024-05-10T14:48:35Z</time>
</trkpt>
<trkpt lat="49.50358576141298" lon="9.084712006151676">
<ele>307.4</ele>
<time>2024-05-10T14:48:36Z</time>
</trkpt>
<trkpt lat="49.503555251285434" lon="9.084734888747334">
<ele>307.4</ele>
<time>2024-05-10T14:48:37Z</time>
</trkpt>
<trkpt lat="49.503517113626" lon="9.084759699180722">
<ele>307.6</ele>
<time>2024-05-10T14:48:38Z</time>
</trkpt>
<trkpt lat="49.503482747823" lon="9.08478543162346">
<ele>307.6</ele>
<time>2024-05-10T14:48:39Z</time>
</trkpt>
<trkpt lat="49.50344846583903" lon="9.084813091903923">
<ele>307.8</ele>
<time>2024-05-10T14:48:40Z</time>
</trkpt>
<trkpt lat="49.50341795571149" lon="9.08484360203147">
<ele>307.8</ele>
<time>2024-05-10T14:48:41Z</time>
</trkpt>
<trkpt lat="49.50338744558394" lon="9.084875034168364">
<ele>308</ele>
<time>2024-05-10T14:48:42Z</time>
</trkpt>
<trkpt lat="49.50335685163736" lon="9.08490177243948">
<ele>308</ele>
<time>2024-05-10T14:48:43Z</time>
</trkpt>
<trkpt lat="49.50332634150982" lon="9.084930354729297">
<ele>308</ele>
<time>2024-05-10T14:48:44Z</time>
</trkpt>
<trkpt lat="49.50329205952585" lon="9.08496379852295">
<ele>308</ele>
<time>2024-05-10T14:48:45Z</time>
</trkpt>
<trkpt lat="49.5032615493983" lon="9.084993302822111">
<ele>307.8</ele>
<time>2024-05-10T14:48:46Z</time>
</trkpt>
<trkpt lat="49.50322341173887" lon="9.085024818778038">
<ele>307.8</ele>
<time>2024-05-10T14:48:47Z</time>
</trkpt>
<trkpt lat="49.503196673467755" lon="9.085062956437469">
<ele>308</ele>
<time>2024-05-10T14:48:48Z</time>
</trkpt>
<trkpt lat="49.503158535808325" lon="9.085095394402742">
<ele>308</ele>
<time>2024-05-10T14:48:49Z</time>
</trkpt>
<trkpt lat="49.503120398148894" lon="9.085128754377363">
<ele>308</ele>
<time>2024-05-10T14:48:50Z</time>
</trkpt>
<trkpt lat="49.503082260489464" lon="9.08515834249556">
<ele>308</ele>
<time>2024-05-10T14:48:51Z</time>
</trkpt>
<trkpt lat="49.50304789468646" lon="9.085187846794724">
<ele>308</ele>
<time>2024-05-10T14:48:52Z</time>
</trkpt>
<trkpt lat="49.503021240234375" lon="9.085225062444806">
<ele>308</ele>
<time>2024-05-10T14:48:53Z</time>
</trkpt>
<trkpt lat="49.502998273819685" lon="9.085263200104237">
<ele>308.2</ele>
<time>2024-05-10T14:48:54Z</time>
</trkpt>
<trkpt lat="49.5029716193676" lon="9.085298487916589">
<ele>308.2</ele>
<time>2024-05-10T14:48:55Z</time>
</trkpt>
<trkpt lat="49.50293725356459" lon="9.085328076034784">
<ele>308.4</ele>
<time>2024-05-10T14:48:56Z</time>
</trkpt>
<trkpt lat="49.50290674343705" lon="9.0853566583246">
<ele>308.4</ele>
<time>2024-05-10T14:48:57Z</time>
</trkpt>
<trkpt lat="49.50287246145308" lon="9.08539479598403">
<ele>308.6</ele>
<time>2024-05-10T14:48:58Z</time>
</trkpt>
<trkpt lat="49.502841867506504" lon="9.085426311939957">
<ele>308.6</ele>
<time>2024-05-10T14:48:59Z</time>
</trkpt>
<trkpt lat="49.50281135737896" lon="9.085459671914576">
<ele>308.6</ele>
<time>2024-05-10T14:49:00Z</time>
</trkpt>
<trkpt lat="49.502784702926874" lon="9.085499737411736">
<ele>308.8</ele>
<time>2024-05-10T14:49:01Z</time>
</trkpt>
<trkpt lat="49.50275796465576" lon="9.08553116954863">
<ele>308.8</ele>
<time>2024-05-10T14:49:02Z</time>
</trkpt>
<trkpt lat="49.50273131020367" lon="9.085563607513905">
<ele>309</ele>
<time>2024-05-10T14:49:03Z</time>
</trkpt>
<trkpt lat="49.502704571932554" lon="9.08559512346983">
<ele>309.2</ele>
<time>2024-05-10T14:49:04Z</time>
</trkpt>
<trkpt lat="49.50267406180501" lon="9.085626555606725">
<ele>309.4</ele>
<time>2024-05-10T14:49:05Z</time>
</trkpt>
<trkpt lat="49.50263969600201" lon="9.085657065734267">
<ele>309.6</ele>
<time>2024-05-10T14:49:06Z</time>
</trkpt>
<trkpt lat="49.50260918587446" lon="9.085686653852465">
<ele>309.8</ele>
<time>2024-05-10T14:49:07Z</time>
</trkpt>
<trkpt lat="49.50257867574692" lon="9.085718085989356">
<ele>310</ele>
<time>2024-05-10T14:49:08Z</time>
</trkpt>
<trkpt lat="49.50255202129483" lon="9.085746752098204">
<ele>310.2</ele>
<time>2024-05-10T14:49:09Z</time>
</trkpt>
<trkpt lat="49.502525283023715" lon="9.085776256397368">
<ele>310.4</ele>
<time>2024-05-10T14:49:10Z</time>
</trkpt>
<trkpt lat="49.5024985447526" lon="9.08580970019102">
<ele>310.4</ele>
<time>2024-05-10T14:49:11Z</time>
</trkpt>
<trkpt lat="49.50247189030051" lon="9.085842054337265">
<ele>310.6</ele>
<time>2024-05-10T14:49:12Z</time>
</trkpt>
<trkpt lat="49.50244138017297" lon="9.085867870599031">
<ele>310.6</ele>
<time>2024-05-10T14:49:13Z</time>
</trkpt>
<trkpt lat="49.50241087004542" lon="9.08589167520404">
<ele>311</ele>
<time>2024-05-10T14:49:14Z</time>
</trkpt>
<trkpt lat="49.50237650424242" lon="9.085914557799695">
<ele>311.2</ele>
<time>2024-05-10T14:49:15Z</time>
</trkpt>
<trkpt lat="49.50234599411488" lon="9.085938446223736">
<ele>311.4</ele>
<time>2024-05-10T14:49:16Z</time>
</trkpt>
<trkpt lat="49.50231548398733" lon="9.08596510067582">
<ele>311.6</ele>
<time>2024-05-10T14:49:17Z</time>
</trkpt>
<trkpt lat="49.50228111818433" lon="9.0859851334244">
<ele>311.6</ele>
<time>2024-05-10T14:49:18Z</time>
</trkpt>
<trkpt lat="49.50224683620036" lon="9.08600516617298">
<ele>311.8</ele>
<time>2024-05-10T14:49:19Z</time>
</trkpt>
<trkpt lat="49.50221632607281" lon="9.086031904444098">
<ele>312</ele>
<time>2024-05-10T14:49:20Z</time>
</trkpt>
<trkpt lat="49.502189587801695" lon="9.086054787039757">
<ele>312.2</ele>
<time>2024-05-10T14:49:21Z</time>
</trkpt>
<trkpt lat="49.50216293334961" lon="9.086076663807034">
<ele>312.4</ele>
<time>2024-05-10T14:49:22Z</time>
</trkpt>
<trkpt lat="49.50213619507849" lon="9.086098624393344">
<ele>312.6</ele>
<time>2024-05-10T14:49:23Z</time>
</trkpt>
<trkpt lat="49.50210568495095" lon="9.086119579151273">
<ele>312.8</ele>
<time>2024-05-10T14:49:24Z</time>
</trkpt>
<trkpt lat="49.5020751748234" lon="9.086138689890504">
<ele>313</ele>
<time>2024-05-10T14:49:25Z</time>
</trkpt>
<trkpt lat="49.50204466469586" lon="9.086154866963623">
<ele>313</ele>
<time>2024-05-10T14:49:26Z</time>
</trkpt>
<trkpt lat="49.502014154568315" lon="9.086178755387664">
<ele>313.2</ele>
<time>2024-05-10T14:49:27Z</time>
</trkpt>
<trkpt lat="49.50197978876531" lon="9.086194932460783">
<ele>313.2</ele>
<time>2024-05-10T14:49:28Z</time>
</trkpt>
<trkpt lat="49.501953050494194" lon="9.086214965209363">
<ele>313.4</ele>
<time>2024-05-10T14:49:29Z</time>
</trkpt>
<trkpt lat="49.50192254036665" lon="9.086236925795674">
<ele>313.6</ele>
<time>2024-05-10T14:49:30Z</time>
</trkpt>
<trkpt lat="49.501892030239105" lon="9.086261736229062">
<ele>313.8</ele>
<time>2024-05-10T14:49:31Z</time>
</trkpt>
<trkpt lat="49.50186152011156" lon="9.086281768977642">
<ele>314</ele>
<time>2024-05-10T14:49:32Z</time>
</trkpt>
<trkpt lat="49.501834865659475" lon="9.086301801726222">
<ele>314.2</ele>
<time>2024-05-10T14:49:33Z</time>
</trkpt>
<trkpt lat="49.5018042717129" lon="9.086317978799345">
<ele>314.4</ele>
<time>2024-05-10T14:49:34Z</time>
</trkpt>
<trkpt lat="49.501773761585355" lon="9.086337089538574">
<ele>314.6</ele>
<time>2024-05-10T14:49:35Z</time>
</trkpt>
<trkpt lat="49.50174325145781" lon="9.086353266611695">
<ele>314.8</ele>
<time>2024-05-10T14:49:36Z</time>
</trkpt>
<trkpt lat="49.501712741330266" lon="9.086368521675467">
<ele>315</ele>
<time>2024-05-10T14:49:37Z</time>
</trkpt>
<trkpt lat="49.50168223120272" lon="9.086386626586318">
<ele>315</ele>
<time>2024-05-10T14:49:38Z</time>
</trkpt>
<trkpt lat="49.50165172107518" lon="9.086406659334898">
<ele>315.2</ele>
<time>2024-05-10T14:49:39Z</time>
</trkpt>
<trkpt lat="49.50162498280406" lon="9.08642292022705">
<ele>315.4</ele>
<time>2024-05-10T14:49:40Z</time>
</trkpt>
<trkpt lat="49.50159447267651" lon="9.08644001930952">
<ele>315.4</ele>
<time>2024-05-10T14:49:41Z</time>
</trkpt>
<trkpt lat="49.50156781822443" lon="9.0864600520581">
<ele>315.6</ele>
<time>2024-05-10T14:49:42Z</time>
</trkpt>
<trkpt lat="49.501537308096886" lon="9.086478156968951">
<ele>315.8</ele>
<time>2024-05-10T14:49:43Z</time>
</trkpt>
<trkpt lat="49.50150679796934" lon="9.086488718166947">
<ele>316</ele>
<time>2024-05-10T14:49:44Z</time>
</trkpt>
<trkpt lat="49.5014762878418" lon="9.086496345698832">
<ele>316.2</ele>
<time>2024-05-10T14:49:45Z</time>
</trkpt>
<trkpt lat="49.50144954957068" lon="9.086515372619033">
<ele>316.4</ele>
<time>2024-05-10T14:49:46Z</time>
</trkpt>
<trkpt lat="49.501419039443135" lon="9.086535405367613">
<ele>316.6</ele>
<time>2024-05-10T14:49:47Z</time>
</trkpt>
<trkpt lat="49.50139230117202" lon="9.08656113781035">
<ele>316.6</ele>
<time>2024-05-10T14:49:48Z</time>
</trkpt>
<trkpt lat="49.501361791044474" lon="9.086589803919196">
<ele>316.8</ele>
<time>2024-05-10T14:49:49Z</time>
</trkpt>
<trkpt lat="49.50133513659239" lon="9.086614530533552">
<ele>316.8</ele>
<time>2024-05-10T14:49:50Z</time>
</trkpt>
<trkpt lat="49.501300770789385" lon="9.086638418957593">
<ele>317</ele>
<time>2024-05-10T14:49:51Z</time>
</trkpt>
<trkpt lat="49.50127403251827" lon="9.08666322939098">
<ele>317</ele>
<time>2024-05-10T14:49:52Z</time>
</trkpt>
<trkpt lat="49.50124352239072" lon="9.086691811680794">
<ele>317.2</ele>
<time>2024-05-10T14:49:53Z</time>
</trkpt>
<trkpt lat="49.50121301226318" lon="9.086716622114182">
<ele>317.6</ele>
<time>2024-05-10T14:49:54Z</time>
</trkpt>
<trkpt lat="49.50118635781109" lon="9.086734727025032">
<ele>317.6</ele>
<time>2024-05-10T14:49:55Z</time>
</trkpt>
<trkpt lat="49.50115584768355" lon="9.08675953745842">
<ele>317.8</ele>
<time>2024-05-10T14:49:56Z</time>
</trkpt>
<trkpt lat="49.50112910941243" lon="9.086783342063429">
<ele>318</ele>
<time>2024-05-10T14:49:57Z</time>
</trkpt>
<trkpt lat="49.50110622681677" lon="9.086803374812009">
<ele>318.2</ele>
<time>2024-05-10T14:49:58Z</time>
</trkpt>
<trkpt lat="49.50107571668923" lon="9.086828185245396">
<ele>318.4</ele>
<time>2024-05-10T14:49:59Z</time>
</trkpt>
<trkpt lat="49.50104897841811" lon="9.086854923516512">
<ele>318.4</ele>
<time>2024-05-10T14:50:00Z</time>
</trkpt>
<trkpt lat="49.50101846829057" lon="9.086886355653403">
<ele>318.4</ele>
<time>2024-05-10T14:50:01Z</time>
</trkpt>
<trkpt lat="49.50099181383848" lon="9.086913093924522">
<ele>318.6</ele>
<time>2024-05-10T14:50:02Z</time>
</trkpt>
<trkpt lat="49.500965075567365" lon="9.086939748376608">
<ele>318.6</ele>
<time>2024-05-10T14:50:03Z</time>
</trkpt>
<trkpt lat="49.50093456543982" lon="9.086963636800649">
<ele>318.8</ele>
<time>2024-05-10T14:50:04Z</time>
</trkpt>
<trkpt lat="49.50090019963682" lon="9.086983669549229">
<ele>318.8</ele>
<time>2024-05-10T14:50:05Z</time>
</trkpt>
<trkpt lat="49.50087354518473" lon="9.087003702297809">
<ele>319</ele>
<time>2024-05-10T14:50:06Z</time>
</trkpt>
<trkpt lat="49.500846806913614" lon="9.087023735046388">
<ele>319.2</ele>
<time>2024-05-10T14:50:07Z</time>
</trkpt>
<trkpt lat="49.50082015246153" lon="9.087050389498472">
<ele>319.4</ele>
<time>2024-05-10T14:50:08Z</time>
</trkpt>
<trkpt lat="49.50079341419041" lon="9.087076121941209">
<ele>319.6</ele>
<time>2024-05-10T14:50:09Z</time>
</trkpt>
<trkpt lat="49.500766675919294" lon="9.087104788050056">
<ele>319.6</ele>
<time>2024-05-10T14:50:10Z</time>
</trkpt>
<trkpt lat="49.50074002146721" lon="9.087129514664412">
<ele>319.8</ele>
<time>2024-05-10T14:50:11Z</time>
</trkpt>
<trkpt lat="49.50071328319609" lon="9.08715533092618">
<ele>320</ele>
<time>2024-05-10T14:50:12Z</time>
</trkpt>
<trkpt lat="49.500686628744006" lon="9.087184835225344">
<ele>320</ele>
<time>2024-05-10T14:50:13Z</time>
</trkpt>
<trkpt lat="49.50065989047289" lon="9.08721157349646">
<ele>320</ele>
<time>2024-05-10T14:50:14Z</time>
</trkpt>
<trkpt lat="49.5006332360208" lon="9.087240155786276">
<ele>320.2</ele>
<time>2024-05-10T14:50:15Z</time>
</trkpt>
<trkpt lat="49.500606497749686" lon="9.087266894057391">
<ele>320.4</ele>
<time>2024-05-10T14:50:16Z</time>
</trkpt>
<trkpt lat="49.50057975947857" lon="9.08729455433786">
<ele>320.6</ele>
<time>2024-05-10T14:50:17Z</time>
</trkpt>
<trkpt lat="49.50055310502648" lon="9.087323136627674">
<ele>320.8</ele>
<time>2024-05-10T14:50:18Z</time>
</trkpt>
<trkpt lat="49.500530222430825" lon="9.087347947061062">
<ele>321</ele>
<time>2024-05-10T14:50:19Z</time>
</trkpt>
<trkpt lat="49.50050348415971" lon="9.087369907647371">
<ele>321</ele>
<time>2024-05-10T14:50:20Z</time>
</trkpt>
<trkpt lat="49.50048060156405" lon="9.087391784414647">
<ele>321.2</ele>
<time>2024-05-10T14:50:21Z</time>
</trkpt>
<trkpt lat="49.500450091436505" lon="9.087411817163227">
<ele>321.4</ele>
<time>2024-05-10T14:50:22Z</time>
</trkpt>
<trkpt lat="49.50042335316539" lon="9.08743285574019">
<ele>321.6</ele>
<time>2024-05-10T14:50:23Z</time>
</trkpt>
<trkpt lat="49.5003966987133" lon="9.087456660345197">
<ele>321.8</ele>
<time>2024-05-10T14:50:24Z</time>
</trkpt>
<trkpt lat="49.500369960442185" lon="9.087479542940857">
<ele>322</ele>
<time>2024-05-10T14:50:25Z</time>
</trkpt>
<trkpt lat="49.5003433059901" lon="9.087501503527164">
<ele>322.2</ele>
<time>2024-05-10T14:50:26Z</time>
</trkpt>
<trkpt lat="49.50031279586256" lon="9.087519608438017">
<ele>322.2</ele>
<time>2024-05-10T14:50:27Z</time>
</trkpt>
<trkpt lat="49.50027843005955" lon="9.087536791339517">
<ele>322.2</ele>
<time>2024-05-10T14:50:28Z</time>
</trkpt>
<trkpt lat="49.500251691788435" lon="9.087552968412638">
<ele>322.4</ele>
<time>2024-05-10T14:50:29Z</time>
</trkpt>
<trkpt lat="49.50021740980446" lon="9.08757015131414">
<ele>322.4</ele>
<time>2024-05-10T14:50:30Z</time>
</trkpt>
<trkpt lat="49.500190671533346" lon="9.08759018406272">
<ele>322.4</ele>
<time>2024-05-10T14:50:31Z</time>
</trkpt>
<trkpt lat="49.5001601614058" lon="9.087611138820648">
<ele>322.6</ele>
<time>2024-05-10T14:50:32Z</time>
</trkpt>
<trkpt lat="49.50013350695371" lon="9.08763024955988">
<ele>322.6</ele>
<time>2024-05-10T14:50:33Z</time>
</trkpt>
<trkpt lat="49.50010299682617" lon="9.087641648948193">
<ele>322.8</ele>
<time>2024-05-10T14:50:34Z</time>
</trkpt>
<trkpt lat="49.5000724028796" lon="9.087651204317808">
<ele>323</ele>
<time>2024-05-10T14:50:35Z</time>
</trkpt>
<trkpt lat="49.500038120895624" lon="9.087664531543853">
<ele>323.2</ele>
<time>2024-05-10T14:50:36Z</time>
</trkpt>
<trkpt lat="49.50000375509262" lon="9.087676936760545">
<ele>323.2</ele>
<time>2024-05-10T14:50:37Z</time>
</trkpt>
<trkpt lat="49.49997324496507" lon="9.08768841996789">
<ele>323.4</ele>
<time>2024-05-10T14:50:38Z</time>
</trkpt>
<trkpt lat="49.49994659051299" lon="9.087696969509125">
<ele>323.4</ele>
<time>2024-05-10T14:50:39Z</time>
</trkpt>
<trkpt lat="49.49991222470999" lon="9.087703675031662">
<ele>323.4</ele>
<time>2024-05-10T14:50:40Z</time>
</trkpt>
<trkpt lat="49.499877858906984" lon="9.087719852104785">
<ele>323.4</ele>
<time>2024-05-10T14:50:41Z</time>
</trkpt>
<trkpt lat="49.499839721247554" lon="9.087731335312128">
<ele>323.4</ele>
<time>2024-05-10T14:50:42Z</time>
</trkpt>
<trkpt lat="49.49980158358812" lon="9.087741812691092">
<ele>323.4</ele>
<time>2024-05-10T14:50:43Z</time>
</trkpt>
<trkpt lat="49.49976730160415" lon="9.087753295898438">
<ele>323.6</ele>
<time>2024-05-10T14:50:44Z</time>
</trkpt>
<trkpt lat="49.499736707657576" lon="9.087763773277402">
<ele>323.6</ele>
<time>2024-05-10T14:50:45Z</time>
</trkpt>
<trkpt lat="49.4997024256736" lon="9.087773244827986">
<ele>323.6</ele>
<time>2024-05-10T14:50:46Z</time>
</trkpt>
<trkpt lat="49.4996680598706" lon="9.087783806025982">
<ele>323.8</ele>
<time>2024-05-10T14:50:47Z</time>
</trkpt>
<trkpt lat="49.49962992221117" lon="9.087795205414295">
<ele>324</ele>
<time>2024-05-10T14:50:48Z</time>
</trkpt>
<trkpt lat="49.49959178455174" lon="9.08780953846872">
<ele>324</ele>
<time>2024-05-10T14:50:49Z</time>
</trkpt>
<trkpt lat="49.49955364689231" lon="9.08782286569476">
<ele>324.2</ele>
<time>2024-05-10T14:50:50Z</time>
</trkpt>
<trkpt lat="49.49951165355742" lon="9.087835270911455">
<ele>324.2</ele>
<time>2024-05-10T14:50:51Z</time>
</trkpt>
<trkpt lat="49.49947351589799" lon="9.08784482628107">
<ele>324.2</ele>
<time>2024-05-10T14:50:52Z</time>
</trkpt>
<trkpt lat="49.49943923391402" lon="9.087856225669384">
<ele>324.2</ele>
<time>2024-05-10T14:50:53Z</time>
</trkpt>
<trkpt lat="49.499401012435555" lon="9.08786485902965">
<ele>324.2</ele>
<time>2024-05-10T14:50:54Z</time>
</trkpt>
<trkpt lat="49.499366730451584" lon="9.087875336408615">
<ele>324.2</ele>
<time>2024-05-10T14:50:55Z</time>
</trkpt>
<trkpt lat="49.49932859279215" lon="9.08788489177823">
<ele>324</ele>
<time>2024-05-10T14:50:56Z</time>
</trkpt>
<trkpt lat="49.49929808266461" lon="9.087896291166544">
<ele>324</ele>
<time>2024-05-10T14:50:57Z</time>
</trkpt>
<trkpt lat="49.499263716861606" lon="9.087915401905777">
<ele>324</ele>
<time>2024-05-10T14:50:58Z</time>
</trkpt>
<trkpt lat="49.49923320673406" lon="9.087935434654357">
<ele>324</ele>
<time>2024-05-10T14:50:59Z</time>
</trkpt>
<trkpt lat="49.49919884093106" lon="9.087958317250012">
<ele>324.2</ele>
<time>2024-05-10T14:51:00Z</time>
</trkpt>
<trkpt lat="49.499164558947086" lon="9.0879849717021">
<ele>324.4</ele>
<time>2024-05-10T14:51:01Z</time>
</trkpt>
<trkpt lat="49.49913019314408" lon="9.088013637810946">
<ele>324.4</ele>
<time>2024-05-10T14:51:02Z</time>
</trkpt>
<trkpt lat="49.49909205548465" lon="9.088041298091412">
<ele>324.4</ele>
<time>2024-05-10T14:51:03Z</time>
</trkpt>
<trkpt lat="49.49906154535711" lon="9.088078429922462">
<ele>324.4</ele>
<time>2024-05-10T14:51:04Z</time>
</trkpt>
<trkpt lat="49.49903103522957" lon="9.088116567581892">
<ele>324.4</ele>
<time>2024-05-10T14:51:05Z</time>
</trkpt>
<trkpt lat="49.49899666942656" lon="9.088156633079052">
<ele>324.4</ele>
<time>2024-05-10T14:51:06Z</time>
</trkpt>
<trkpt lat="49.49896238744259" lon="9.08819954842329">
<ele>324.4</ele>
<time>2024-05-10T14:51:07Z</time>
</trkpt>
<trkpt lat="49.49893187731504" lon="9.08824154175818">
<ele>324.4</ele>
<time>2024-05-10T14:51:08Z</time>
</trkpt>
<trkpt lat="49.4989013671875" lon="9.088286384940147">
<ele>324.2</ele>
<time>2024-05-10T14:51:09Z</time>
</trkpt>
<trkpt lat="49.49887077324093" lon="9.088330222293736">
<ele>324.2</ele>
<time>2024-05-10T14:51:10Z</time>
</trkpt>
<trkpt lat="49.498847890645266" lon="9.088373137637973">
<ele>324.2</ele>
<time>2024-05-10T14:51:11Z</time>
</trkpt>
<trkpt lat="49.49882500804961" lon="9.08841798081994">
<ele>324</ele>
<time>2024-05-10T14:51:12Z</time>
</trkpt>
<trkpt lat="49.49879835359752" lon="9.088463746011255">
<ele>324</ele>
<time>2024-05-10T14:51:13Z</time>
</trkpt>
<trkpt lat="49.49876784346998" lon="9.088499955832958">
<ele>323.8</ele>
<time>2024-05-10T14:51:14Z</time>
</trkpt>
<trkpt lat="49.49874496087432" lon="9.088546726852655">
<ele>323.8</ele>
<time>2024-05-10T14:51:15Z</time>
</trkpt>
<trkpt lat="49.4987182226032" lon="9.088602969422936">
<ele>323.6</ele>
<time>2024-05-10T14:51:16Z</time>
</trkpt>
<trkpt lat="49.498695340007544" lon="9.08865544013679">
<ele>323.4</ele>
<time>2024-05-10T14:51:17Z</time>
</trkpt>
<trkpt lat="49.498668601736426" lon="9.088700283318758">
<ele>323.2</ele>
<time>2024-05-10T14:51:18Z</time>
</trkpt>
<trkpt lat="49.49864194728434" lon="9.088745042681694">
<ele>323.2</ele>
<time>2024-05-10T14:51:19Z</time>
</trkpt>
<trkpt lat="49.498615209013224" lon="9.088785108178854">
<ele>323.2</ele>
<time>2024-05-10T14:51:20Z</time>
</trkpt>
<trkpt lat="49.498596182093024" lon="9.088829951360822">
<ele>323.4</ele>
<time>2024-05-10T14:51:21Z</time>
</trkpt>
<trkpt lat="49.49858092702925" lon="9.088883344084024">
<ele>323.4</ele>
<time>2024-05-10T14:51:22Z</time>
</trkpt>
<trkpt lat="49.49856181629002" lon="9.088943442329764">
<ele>323.6</ele>
<time>2024-05-10T14:51:23Z</time>
</trkpt>
<trkpt lat="49.49853893369436" lon="9.089006390422584">
<ele>323.6</ele>
<time>2024-05-10T14:51:24Z</time>
</trkpt>
<trkpt lat="49.49852745048702" lon="9.08907126635313">
<ele>323.8</ele>
<time>2024-05-10T14:51:25Z</time>
</trkpt>
<trkpt lat="49.49851982295513" lon="9.089139914140103">
<ele>323.8</ele>
<time>2024-05-10T14:51:26Z</time>
</trkpt>
<trkpt lat="49.49850456789136" lon="9.089201856404545">
<ele>324</ele>
<time>2024-05-10T14:51:27Z</time>
</trkpt>
<trkpt lat="49.49848554097116" lon="9.089261954650285">
<ele>324</ele>
<time>2024-05-10T14:51:28Z</time>
</trkpt>
<trkpt lat="49.49847028590739" lon="9.089322052896025">
<ele>324</ele>
<time>2024-05-10T14:51:29Z</time>
</trkpt>
<trkpt lat="49.49845117516816" lon="9.089378295466304">
<ele>324</ele>
<time>2024-05-10T14:51:30Z</time>
</trkpt>
<trkpt lat="49.498435920104384" lon="9.089441243559122">
<ele>324</ele>
<time>2024-05-10T14:51:31Z</time>
</trkpt>
<trkpt lat="49.49842452071607" lon="9.08950511366129">
<ele>324</ele>
<time>2024-05-10T14:51:32Z</time>
</trkpt>
<trkpt lat="49.4984092656523" lon="9.08956521190703">
<ele>323.8</ele>
<time>2024-05-10T14:51:33Z</time>
</trkpt>
<trkpt lat="49.49840540997684" lon="9.089626232162118">
<ele>323.6</ele>
<time>2024-05-10T14:51:34Z</time>
</trkpt>
<trkpt lat="49.49839401058853" lon="9.089688258245587">
<ele>323.4</ele>
<time>2024-05-10T14:51:35Z</time>
</trkpt>
<trkpt lat="49.49838252738118" lon="9.089754978194833">
<ele>323.2</ele>
<time>2024-05-10T14:51:36Z</time>
</trkpt>
<trkpt lat="49.49837104417384" lon="9.089817926287653">
<ele>323.2</ele>
<time>2024-05-10T14:51:37Z</time>
</trkpt>
<trkpt lat="49.49836341664195" lon="9.089891351759434">
<ele>323.4</ele>
<time>2024-05-10T14:51:38Z</time>
</trkpt>
<trkpt lat="49.49834816157818" lon="9.089958155527713">
<ele>323.2</ele>
<time>2024-05-10T14:51:39Z</time>
</trkpt>
<trkpt lat="49.49832913465798" lon="9.090022025629878">
<ele>323</ele>
<time>2024-05-10T14:51:40Z</time>
</trkpt>
<trkpt lat="49.49831387959421" lon="9.090080196037889">
<ele>323</ele>
<time>2024-05-10T14:51:41Z</time>
</trkpt>
<trkpt lat="49.49830239638686" lon="9.090141216292976">
<ele>323</ele>
<time>2024-05-10T14:51:42Z</time>
</trkpt>
<trkpt lat="49.498294768854976" lon="9.090203242376449">
<ele>323</ele>
<time>2024-05-10T14:51:43Z</time>
</trkpt>
<trkpt lat="49.4982795137912" lon="9.090263340622188">
<ele>322.8</ele>
<time>2024-05-10T14:51:44Z</time>
</trkpt>
<trkpt lat="49.49826425872743" lon="9.090321511030195">
<ele>323</ele>
<time>2024-05-10T14:51:45Z</time>
</trkpt>
<trkpt lat="49.49825285933912" lon="9.090383453294637">
<ele>323</ele>
<time>2024-05-10T14:51:46Z</time>
</trkpt>
<trkpt lat="49.49824137613177" lon="9.090446401387451">
<ele>323.2</ele>
<time>2024-05-10T14:51:47Z</time>
</trkpt>
<trkpt lat="49.49823374859989" lon="9.090504571795464">
<ele>323.4</ele>
<time>2024-05-10T14:51:48Z</time>
</trkpt>
<trkpt lat="49.498226121068" lon="9.090564670041203">
<ele>323.6</ele>
<time>2024-05-10T14:51:49Z</time>
</trkpt>
<trkpt lat="49.49821086600423" lon="9.090641951188443">
<ele>323.8</ele>
<time>2024-05-10T14:51:50Z</time>
</trkpt>
<trkpt lat="49.49819938279688" lon="9.090702049434183">
<ele>323.8</ele>
<time>2024-05-10T14:51:51Z</time>
</trkpt>
<trkpt lat="49.49818412773311" lon="9.090762063860891">
<ele>324</ele>
<time>2024-05-10T14:51:52Z</time>
</trkpt>
<trkpt lat="49.49816510081291" lon="9.090825011953712">
<ele>324</ele>
<time>2024-05-10T14:51:53Z</time>
</trkpt>
<trkpt lat="49.49814984574914" lon="9.09088988788426">
<ele>324.2</ele>
<time>2024-05-10T14:51:54Z</time>
</trkpt>
<trkpt lat="49.49813073500991" lon="9.090951913967729">
<ele>324.2</ele>
<time>2024-05-10T14:51:55Z</time>
</trkpt>
<trkpt lat="49.49811547994614" lon="9.091016706079245">
<ele>324.2</ele>
<time>2024-05-10T14:51:56Z</time>
</trkpt>
<trkpt lat="49.49809645302594" lon="9.091076804324985">
<ele>324.4</ele>
<time>2024-05-10T14:51:57Z</time>
</trkpt>
<trkpt lat="49.498081197962165" lon="9.091136902570724">
<ele>324.4</ele>
<time>2024-05-10T14:51:58Z</time>
</trkpt>
<trkpt lat="49.49805831536651" lon="9.091193145141006">
<ele>324.4</ele>
<time>2024-05-10T14:51:59Z</time>
</trkpt>
<trkpt lat="49.498043060302734" lon="9.091248465701938">
<ele>324.6</ele>
<time>2024-05-10T14:52:00Z</time>
</trkpt>
<trkpt lat="49.49802772141993" lon="9.09130470827222">
<ele>324.6</ele>
<time>2024-05-10T14:52:01Z</time>
</trkpt>
<trkpt lat="49.49801246635616" lon="9.09136002883315">
<ele>324.8</ele>
<time>2024-05-10T14:52:02Z</time>
</trkpt>
<trkpt lat="49.49799343943596" lon="9.09141819924116">
<ele>324.8</ele>
<time>2024-05-10T14:52:03Z</time>
</trkpt>
<trkpt lat="49.4979705568403" lon="9.0914782974869">
<ele>324.8</ele>
<time>2024-05-10T14:52:04Z</time>
</trkpt>
<trkpt lat="49.49795144610107" lon="9.09154032357037">
<ele>324.8</ele>
<time>2024-05-10T14:52:05Z</time>
</trkpt>
<trkpt lat="49.49792856350541" lon="9.091603271663187">
<ele>324.8</ele>
<time>2024-05-10T14:52:06Z</time>
</trkpt>
<trkpt lat="49.49790568090975" lon="9.091663286089895">
<ele>324.8</ele>
<time>2024-05-10T14:52:07Z</time>
</trkpt>
<trkpt lat="49.497882798314095" lon="9.091721456497908">
<ele>324.8</ele>
<time>2024-05-10T14:52:08Z</time>
</trkpt>
<trkpt lat="49.49785991571843" lon="9.09177870489657">
<ele>324.6</ele>
<time>2024-05-10T14:52:09Z</time>
</trkpt>
<trkpt lat="49.49783703312278" lon="9.09183494746685">
<ele>324.6</ele>
<time>2024-05-10T14:52:10Z</time>
</trkpt>
<trkpt lat="49.49781415052712" lon="9.091888424009085">
<ele>324.6</ele>
<time>2024-05-10T14:52:11Z</time>
</trkpt>
<trkpt lat="49.49779503978789" lon="9.091941816732287">
<ele>324.6</ele>
<time>2024-05-10T14:52:12Z</time>
</trkpt>
<trkpt lat="49.49777215719223" lon="9.09199520945549">
<ele>324.6</ele>
<time>2024-05-10T14:52:13Z</time>
</trkpt>
<trkpt lat="49.49774927459657" lon="9.092046674340963">
<ele>324.6</ele>
<time>2024-05-10T14:52:14Z</time>
</trkpt>
<trkpt lat="49.497726392000914" lon="9.09209629520774">
<ele>324.6</ele>
<time>2024-05-10T14:52:15Z</time>
</trkpt>
<trkpt lat="49.497707365080714" lon="9.092142982408404">
<ele>324.6</ele>
<time>2024-05-10T14:52:16Z</time>
</trkpt>
<trkpt lat="49.49768825434148" lon="9.092187825590372">
<ele>324.8</ele>
<time>2024-05-10T14:52:17Z</time>
</trkpt>
<trkpt lat="49.49766914360225" lon="9.092231746762993">
<ele>324.8</ele>
<time>2024-05-10T14:52:18Z</time>
</trkpt>
<trkpt lat="49.49765011668205" lon="9.09227466210723">
<ele>324.8</ele>
<time>2024-05-10T14:52:19Z</time>
</trkpt>
<trkpt lat="49.49763100594282" lon="9.092316571623089">
<ele>325</ele>
<time>2024-05-10T14:52:20Z</time>
</trkpt>
<trkpt lat="49.49760812334716" lon="9.092354709282516">
<ele>325</ele>
<time>2024-05-10T14:52:21Z</time>
</trkpt>
<trkpt lat="49.49758909642696" lon="9.092394774779676">
<ele>325.2</ele>
<time>2024-05-10T14:52:22Z</time>
</trkpt>
<trkpt lat="49.49756998568773" lon="9.09243006259203">
<ele>325.4</ele>
<time>2024-05-10T14:52:23Z</time>
</trkpt>
<trkpt lat="49.497547103092074" lon="9.092461578547956">
<ele>325.4</ele>
<time>2024-05-10T14:52:24Z</time>
</trkpt>
<trkpt lat="49.497528076171875" lon="9.0924920886755">
<ele>325.6</ele>
<time>2024-05-10T14:52:25Z</time>
</trkpt>
<trkpt lat="49.497505109757185" lon="9.092523520812392">
<ele>325.8</ele>
<time>2024-05-10T14:52:26Z</time>
</trkpt>
<trkpt lat="49.49748985469341" lon="9.092557886615396">
<ele>325.8</ele>
<time>2024-05-10T14:52:27Z</time>
</trkpt>
<trkpt lat="49.49747459962964" lon="9.092593174427748">
<ele>326</ele>
<time>2024-05-10T14:52:28Z</time>
</trkpt>
<trkpt lat="49.49745934456587" lon="9.09262653440237">
<ele>326</ele>
<time>2024-05-10T14:52:29Z</time>
</trkpt>
<trkpt lat="49.497444089502096" lon="9.092657966539264">
<ele>326</ele>
<time>2024-05-10T14:52:30Z</time>
</trkpt>
<trkpt lat="49.4974250625819" lon="9.092691410332918">
<ele>326.2</ele>
<time>2024-05-10T14:52:31Z</time>
</trkpt>
<trkpt lat="49.497409807518125" lon="9.09272477030754">
<ele>326.2</ele>
<time>2024-05-10T14:52:32Z</time>
</trkpt>
<trkpt lat="49.49739455245435" lon="9.092758130282164">
<ele>326.4</ele>
<time>2024-05-10T14:52:33Z</time>
</trkpt>
<trkpt lat="49.49737929739058" lon="9.092788640409708">
<ele>326.6</ele>
<time>2024-05-10T14:52:34Z</time>
</trkpt>
<trkpt lat="49.49736018665135" lon="9.092820156365631">
<ele>326.8</ele>
<time>2024-05-10T14:52:35Z</time>
</trkpt>
<trkpt lat="49.49734493158758" lon="9.092849660664797">
<ele>327</ele>
<time>2024-05-10T14:52:36Z</time>
</trkpt>
<trkpt lat="49.497325820848346" lon="9.092883104458451">
<ele>327.2</ele>
<time>2024-05-10T14:52:37Z</time>
</trkpt>
<trkpt lat="49.497306793928146" lon="9.092918392270803">
<ele>327.4</ele>
<time>2024-05-10T14:52:38Z</time>
</trkpt>
<trkpt lat="49.497291538864374" lon="9.092951752245426">
<ele>327.6</ele>
<time>2024-05-10T14:52:39Z</time>
</trkpt>
<trkpt lat="49.49728005565703" lon="9.092985112220047">
<ele>327.8</ele>
<time>2024-05-10T14:52:40Z</time>
</trkpt>
<trkpt lat="49.49726480059326" lon="9.093018472194672">
<ele>327.8</ele>
<time>2024-05-10T14:52:41Z</time>
</trkpt>
<trkpt lat="49.49724577367306" lon="9.093051832169294">
<ele>327.8</ele>
<time>2024-05-10T14:52:42Z</time>
</trkpt>
<trkpt lat="49.497226662933826" lon="9.09308334812522">
<ele>328</ele>
<time>2024-05-10T14:52:43Z</time>
</trkpt>
<trkpt lat="49.497211407870054" lon="9.093114780262113">
<ele>328</ele>
<time>2024-05-10T14:52:44Z</time>
</trkpt>
<trkpt lat="49.49720000848174" lon="9.093148224055769">
<ele>328.2</ele>
<time>2024-05-10T14:52:45Z</time>
</trkpt>
<trkpt lat="49.49718475341797" lon="9.09317965619266">
<ele>328.4</ele>
<time>2024-05-10T14:52:46Z</time>
</trkpt>
<trkpt lat="49.49716564267874" lon="9.093213016167285">
<ele>328.6</ele>
<time>2024-05-10T14:52:47Z</time>
</trkpt>
<trkpt lat="49.49714653193951" lon="9.093244532123208">
<ele>328.6</ele>
<time>2024-05-10T14:52:48Z</time>
</trkpt>
<trkpt lat="49.49713513255119" lon="9.093283591791987">
<ele>328.8</ele>
<time>2024-05-10T14:52:49Z</time>
</trkpt>
<trkpt lat="49.49711987748742" lon="9.093324579298496">
<ele>328.8</ele>
<time>2024-05-10T14:52:50Z</time>
</trkpt>
<trkpt lat="49.49710839428008" lon="9.093363722786307">
<ele>329</ele>
<time>2024-05-10T14:52:51Z</time>
</trkpt>
<trkpt lat="49.497093139216304" lon="9.09339708276093">
<ele>329.2</ele>
<time>2024-05-10T14:52:52Z</time>
</trkpt>
<trkpt lat="49.49707788415253" lon="9.093428598716857">
<ele>329.4</ele>
<time>2024-05-10T14:52:53Z</time>
</trkpt>
<trkpt lat="49.49705885723233" lon="9.09345810301602">
<ele>329.6</ele>
<time>2024-05-10T14:52:54Z</time>
</trkpt>
<trkpt lat="49.49704360216856" lon="9.093488613143563">
<ele>329.6</ele>
<time>2024-05-10T14:52:55Z</time>
</trkpt>
<trkpt lat="49.49702834710479" lon="9.093524906784296">
<ele>329.8</ele>
<time>2024-05-10T14:52:56Z</time>
</trkpt>
<trkpt lat="49.49700923636556" lon="9.093563044443728">
<ele>329.8</ele>
<time>2024-05-10T14:52:57Z</time>
</trkpt>
<trkpt lat="49.496990125626326" lon="9.093605037778616">
<ele>330</ele>
<time>2024-05-10T14:52:58Z</time>
</trkpt>
<trkpt lat="49.49697487056255" lon="9.093641247600315">
<ele>330.2</ele>
<time>2024-05-10T14:52:59Z</time>
</trkpt>
<trkpt lat="49.49695961549878" lon="9.0936784632504">
<ele>330.2</ele>
<time>2024-05-10T14:53:00Z</time>
</trkpt>
<trkpt lat="49.49694436043501" lon="9.09371660090983">
<ele>330.4</ele>
<time>2024-05-10T14:53:01Z</time>
</trkpt>
<trkpt lat="49.49692910537124" lon="9.09375281073153">
<ele>330.6</ele>
<time>2024-05-10T14:53:02Z</time>
</trkpt>
<trkpt lat="49.496913850307465" lon="9.093790026381612">
<ele>330.6</ele>
<time>2024-05-10T14:53:03Z</time>
</trkpt>
<trkpt lat="49.496894823387265" lon="9.093826236203313">
<ele>330.8</ele>
<time>2024-05-10T14:53:04Z</time>
</trkpt>
<trkpt lat="49.496875712648034" lon="9.093859596177936">
<ele>330.8</ele>
<time>2024-05-10T14:53:05Z</time>
</trkpt>
<trkpt lat="49.49686045758426" lon="9.09389303997159">
<ele>331</ele>
<time>2024-05-10T14:53:06Z</time>
</trkpt>
<trkpt lat="49.49684143066406" lon="9.093926399946213">
<ele>331</ele>
<time>2024-05-10T14:53:07Z</time>
</trkpt>
<trkpt lat="49.49681846424937" lon="9.093961687758563">
<ele>331.2</ele>
<time>2024-05-10T14:53:08Z</time>
</trkpt>
<trkpt lat="49.496795581653714" lon="9.093995047733188">
<ele>331.2</ele>
<time>2024-05-10T14:53:09Z</time>
</trkpt>
<trkpt lat="49.496772699058056" lon="9.09402840770781">
<ele>331.4</ele>
<time>2024-05-10T14:53:10Z</time>
</trkpt>
<trkpt lat="49.49675744399429" lon="9.094059923663735">
<ele>331.6</ele>
<time>2024-05-10T14:53:11Z</time>
</trkpt>
<trkpt lat="49.49673841707408" lon="9.094093283638358">
<ele>331.8</ele>
<time>2024-05-10T14:53:12Z</time>
</trkpt>
<trkpt lat="49.49672316201031" lon="9.09412857145071">
<ele>332.2</ele>
<time>2024-05-10T14:53:13Z</time>
</trkpt>
<trkpt lat="49.49670790694654" lon="9.094164781272411">
<ele>332.4</ele>
<time>2024-05-10T14:53:14Z</time>
</trkpt>
<trkpt lat="49.49669265188277" lon="9.094201996922491">
<ele>332.6</ele>
<time>2024-05-10T14:53:15Z</time>
</trkpt>
<trkpt lat="49.496677396818995" lon="9.094240134581923">
<ele>332.8</ele>
<time>2024-05-10T14:53:16Z</time>
</trkpt>
<trkpt lat="49.49665828607976" lon="9.094298304989934">
<ele>333</ele>
<time>2024-05-10T14:53:17Z</time>
</trkpt>
<trkpt lat="49.49663917534053" lon="9.09432982094586">
<ele>333.2</ele>
<time>2024-05-10T14:53:18Z</time>
</trkpt>
<trkpt lat="49.496620148420334" lon="9.094361253082752">
<ele>333.6</ele>
<time>2024-05-10T14:53:19Z</time>
</trkpt>
<trkpt lat="49.49660489335656" lon="9.094396540895104">
<ele>333.8</ele>
<time>2024-05-10T14:53:20Z</time>
</trkpt>
<trkpt lat="49.49659726582467" lon="9.094429900869727">
<ele>334</ele>
<time>2024-05-10T14:53:21Z</time>
</trkpt>
<trkpt lat="49.49658963829279" lon="9.094468038529158">
<ele>334.2</ele>
<time>2024-05-10T14:53:22Z</time>
</trkpt>
<trkpt lat="49.49657815508544" lon="9.09450332634151">
<ele>334.4</ele>
<time>2024-05-10T14:53:23Z</time>
</trkpt>
<trkpt lat="49.49656290002167" lon="9.094541547819972">
<ele>334.6</ele>
<time>2024-05-10T14:53:24Z</time>
</trkpt>
<trkpt lat="49.49655150063336" lon="9.094576835632324">
<ele>335</ele>
<time>2024-05-10T14:53:25Z</time>
</trkpt>
<trkpt lat="49.49653624556959" lon="9.094613045454023">
<ele>335.2</ele>
<time>2024-05-10T14:53:26Z</time>
</trkpt>
<trkpt lat="49.49652476236224" lon="9.094648333266376">
<ele>335.4</ele>
<time>2024-05-10T14:53:27Z</time>
</trkpt>
<trkpt lat="49.49650950729847" lon="9.09468362107873">
<ele>335.4</ele>
<time>2024-05-10T14:53:28Z</time>
</trkpt>
<trkpt lat="49.49650187976658" lon="9.09472368657589">
<ele>335.6</ele>
<time>2024-05-10T14:53:29Z</time>
</trkpt>
<trkpt lat="49.4964942522347" lon="9.09476375207305">
<ele>336</ele>
<time>2024-05-10T14:53:30Z</time>
</trkpt>
<trkpt lat="49.49649039655924" lon="9.094804739579558">
<ele>336.2</ele>
<time>2024-05-10T14:53:31Z</time>
</trkpt>
<trkpt lat="49.49649039655924" lon="9.094848576933146">
<ele>336.4</ele>
<time>2024-05-10T14:53:32Z</time>
</trkpt>
<trkpt lat="49.4964942522347" lon="9.094895347952844">
<ele>336.6</ele>
<time>2024-05-10T14:53:33Z</time>
</trkpt>
<trkpt lat="49.49650573544204" lon="9.094935413450004">
<ele>337</ele>
<time>2024-05-10T14:53:34Z</time>
</trkpt>
<trkpt lat="49.49650950729847" lon="9.09498017281294">
<ele>337.2</ele>
<time>2024-05-10T14:53:35Z</time>
</trkpt>
<trkpt lat="49.49651713483035" lon="9.095025015994906">
<ele>337.6</ele>
<time>2024-05-10T14:53:36Z</time>
</trkpt>
<trkpt lat="49.496520990505815" lon="9.095065081492066">
<ele>337.6</ele>
<time>2024-05-10T14:53:37Z</time>
</trkpt>
<trkpt lat="49.4965286180377" lon="9.095103219151497">
<ele>337.8</ele>
<time>2024-05-10T14:53:38Z</time>
</trkpt>
<trkpt lat="49.49653624556959" lon="9.095141356810927">
<ele>338</ele>
<time>2024-05-10T14:53:39Z</time>
</trkpt>
<trkpt lat="49.4965476449579" lon="9.095181422308087">
<ele>338</ele>
<time>2024-05-10T14:53:40Z</time>
</trkpt>
<trkpt lat="49.496555272489786" lon="9.095221487805247">
<ele>338.2</ele>
<time>2024-05-10T14:53:41Z</time>
</trkpt>
<trkpt lat="49.49656675569713" lon="9.095263481140137">
<ele>338.4</ele>
<time>2024-05-10T14:53:42Z</time>
</trkpt>
<trkpt lat="49.49657815508544" lon="9.095299690961838">
<ele>338.8</ele>
<time>2024-05-10T14:53:43Z</time>
</trkpt>
<trkpt lat="49.49659341014922" lon="9.09533497877419">
<ele>339</ele>
<time>2024-05-10T14:53:44Z</time>
</trkpt>
<trkpt lat="49.49661252088845" lon="9.095371188595893">
<ele>339.2</ele>
<time>2024-05-10T14:53:45Z</time>
</trkpt>
<trkpt lat="49.49663154780865" lon="9.095406476408243">
<ele>339.2</ele>
<time>2024-05-10T14:53:46Z</time>
</trkpt>
<trkpt lat="49.49665065854788" lon="9.095443692058325">
<ele>339.4</ele>
<time>2024-05-10T14:53:47Z</time>
</trkpt>
<trkpt lat="49.49666591361165" lon="9.095481829717755">
<ele>339.6</ele>
<time>2024-05-10T14:53:48Z</time>
</trkpt>
<trkpt lat="49.49668502435088" lon="9.09551619552076">
<ele>339.8</ele>
<time>2024-05-10T14:53:49Z</time>
</trkpt>
<trkpt lat="49.49670790694654" lon="9.095548549667">
<ele>339.8</ele>
<time>2024-05-10T14:53:50Z</time>
</trkpt>
<trkpt lat="49.4967307895422" lon="9.095576209947469">
<ele>340</ele>
<time>2024-05-10T14:53:51Z</time>
</trkpt>
<trkpt lat="49.4967498164624" lon="9.095604876056314">
<ele>340.2</ele>
<time>2024-05-10T14:53:52Z</time>
</trkpt>
<trkpt lat="49.49676892720163" lon="9.095633458346128">
<ele>340.4</ele>
<time>2024-05-10T14:53:53Z</time>
</trkpt>
<trkpt lat="49.49679180979729" lon="9.095658268779516">
<ele>340.4</ele>
<time>2024-05-10T14:53:54Z</time>
</trkpt>
<trkpt lat="49.49680706486106" lon="9.095682073384523">
<ele>340.6</ele>
<time>2024-05-10T14:53:55Z</time>
</trkpt>
<trkpt lat="49.49682994745672" lon="9.095703111961484">
<ele>340.8</ele>
<time>2024-05-10T14:53:56Z</time>
</trkpt>
<trkpt lat="49.49684520252049" lon="9.095726916566491">
<ele>341</ele>
<time>2024-05-10T14:53:57Z</time>
</trkpt>
<trkpt lat="49.49686808511615" lon="9.09574979916215">
<ele>341.2</ele>
<time>2024-05-10T14:53:58Z</time>
</trkpt>
<trkpt lat="49.496890967711806" lon="9.09577175974846">
<ele>341.2</ele>
<time>2024-05-10T14:53:59Z</time>
</trkpt>
<trkpt lat="49.496913850307465" lon="9.09578986465931">
<ele>341.4</ele>
<time>2024-05-10T14:54:00Z</time>
</trkpt>
<trkpt lat="49.49693673290312" lon="9.09580796957016">
<ele>341.4</ele>
<time>2024-05-10T14:54:01Z</time>
</trkpt>
<trkpt lat="49.496971098706126" lon="9.095820374786854">
<ele>341.6</ele>
<time>2024-05-10T14:54:02Z</time>
</trkpt>
<trkpt lat="49.49700160883367" lon="9.09582993015647">
<ele>341.6</ele>
<time>2024-05-10T14:54:03Z</time>
</trkpt>
<trkpt lat="49.49702834710479" lon="9.095840407535434">
<ele>341.6</ele>
<time>2024-05-10T14:54:04Z</time>
</trkpt>
<trkpt lat="49.49705500155687" lon="9.09585189074278">
<ele>341.6</ele>
<time>2024-05-10T14:54:05Z</time>
</trkpt>
<trkpt lat="49.49708551168442" lon="9.095859518274665">
<ele>341.6</ele>
<time>2024-05-10T14:54:06Z</time>
</trkpt>
<trkpt lat="49.49711987748742" lon="9.0958680678159">
<ele>341.6</ele>
<time>2024-05-10T14:54:07Z</time>
</trkpt>
<trkpt lat="49.49714653193951" lon="9.095878545194864">
<ele>341.8</ele>
<time>2024-05-10T14:54:08Z</time>
</trkpt>
<trkpt lat="49.497173270210624" lon="9.09588617272675">
<ele>341.8</ele>
<time>2024-05-10T14:54:09Z</time>
</trkpt>
<trkpt lat="49.497211407870054" lon="9.09588810056448">
<ele>342</ele>
<time>2024-05-10T14:54:10Z</time>
</trkpt>
<trkpt lat="49.49723814614117" lon="9.095892878249288">
<ele>342.2</ele>
<time>2024-05-10T14:54:11Z</time>
</trkpt>
<trkpt lat="49.49727242812514" lon="9.095894806087015">
<ele>342.4</ele>
<time>2024-05-10T14:54:12Z</time>
</trkpt>
<trkpt lat="49.497310565784574" lon="9.09588617272675">
<ele>342.4</ele>
<time>2024-05-10T14:54:13Z</time>
</trkpt>
<trkpt lat="49.49733730405569" lon="9.09588617272675">
<ele>342.6</ele>
<time>2024-05-10T14:54:14Z</time>
</trkpt>
<trkpt lat="49.49736404232681" lon="9.095883322879672">
<ele>342.8</ele>
<time>2024-05-10T14:54:15Z</time>
</trkpt>
<trkpt lat="49.49739455245435" lon="9.095878545194864">
<ele>343</ele>
<time>2024-05-10T14:54:16Z</time>
</trkpt>
<trkpt lat="49.49742120690644" lon="9.09587192349136">
<ele>343.2</ele>
<time>2024-05-10T14:54:17Z</time>
</trkpt>
<trkpt lat="49.497447945177555" lon="9.095863290131092">
<ele>343.4</ele>
<time>2024-05-10T14:54:18Z</time>
</trkpt>
<trkpt lat="49.49747459962964" lon="9.095854740589855">
<ele>343.6</ele>
<time>2024-05-10T14:54:19Z</time>
</trkpt>
<trkpt lat="49.49750133790076" lon="9.095845185220242">
<ele>344</ele>
<time>2024-05-10T14:54:20Z</time>
</trkpt>
<trkpt lat="49.497528076171875" lon="9.0958318579942">
<ele>344.2</ele>
<time>2024-05-10T14:54:21Z</time>
</trkpt>
<trkpt lat="49.49755473062396" lon="9.095820374786854">
<ele>344.4</ele>
<time>2024-05-10T14:54:22Z</time>
</trkpt>
<trkpt lat="49.49758146889508" lon="9.095805119723082">
<ele>344.6</ele>
<time>2024-05-10T14:54:23Z</time>
</trkpt>
<trkpt lat="49.49760812334716" lon="9.09579179249704">
<ele>344.8</ele>
<time>2024-05-10T14:54:24Z</time>
</trkpt>
<trkpt lat="49.49763486161828" lon="9.095778465270996">
<ele>344.8</ele>
<time>2024-05-10T14:54:25Z</time>
</trkpt>
<trkpt lat="49.497661516070366" lon="9.095761282369494">
<ele>345</ele>
<time>2024-05-10T14:54:26Z</time>
</trkpt>
<trkpt lat="49.49768825434148" lon="9.095745021477342">
<ele>345.4</ele>
<time>2024-05-10T14:54:27Z</time>
</trkpt>
<trkpt lat="49.4977149926126" lon="9.095726916566491">
<ele>345.6</ele>
<time>2024-05-10T14:54:28Z</time>
</trkpt>
<trkpt lat="49.497741647064686" lon="9.09570973366499">
<ele>345.8</ele>
<time>2024-05-10T14:54:29Z</time>
</trkpt>
<trkpt lat="49.4977683853358" lon="9.095693556591868">
<ele>346</ele>
<time>2024-05-10T14:54:30Z</time>
</trkpt>
<trkpt lat="49.49779126793146" lon="9.095680229365826">
<ele>346.4</ele>
<time>2024-05-10T14:54:31Z</time>
</trkpt>
<trkpt lat="49.49781415052712" lon="9.095663046464324">
<ele>346.6</ele>
<time>2024-05-10T14:54:32Z</time>
</trkpt>
<trkpt lat="49.49783703312278" lon="9.09565156325698">
<ele>346.8</ele>
<time>2024-05-10T14:54:33Z</time>
</trkpt>
<trkpt lat="49.49786368757486" lon="9.095638236030936">
<ele>347</ele>
<time>2024-05-10T14:54:34Z</time>
</trkpt>
<trkpt lat="49.49789428152144" lon="9.095624908804892">
<ele>347.2</ele>
<time>2024-05-10T14:54:35Z</time>
</trkpt>
<trkpt lat="49.497920935973525" lon="9.09560864791274">
<ele>347.4</ele>
<time>2024-05-10T14:54:36Z</time>
</trkpt>
<trkpt lat="49.49794767424464" lon="9.09558962099254">
<ele>347.6</ele>
<time>2024-05-10T14:54:37Z</time>
</trkpt>
<trkpt lat="49.49797432869673" lon="9.095575287938118">
<ele>347.8</ele>
<time>2024-05-10T14:54:38Z</time>
</trkpt>
<trkpt lat="49.497997211292386" lon="9.095558105036616">
<ele>348</ele>
<time>2024-05-10T14:54:39Z</time>
</trkpt>
<trkpt lat="49.49802009388805" lon="9.095538072288036">
<ele>348.2</ele>
<time>2024-05-10T14:54:40Z</time>
</trkpt>
<trkpt lat="49.498043060302734" lon="9.095519967377186">
<ele>348.4</ele>
<time>2024-05-10T14:54:41Z</time>
</trkpt>
<trkpt lat="49.49806594289839" lon="9.095502784475684">
<ele>348.6</ele>
<time>2024-05-10T14:54:42Z</time>
</trkpt>
<trkpt lat="49.49808882549405" lon="9.095488535240293">
<ele>348.8</ele>
<time>2024-05-10T14:54:43Z</time>
</trkpt>
<trkpt lat="49.49811170808971" lon="9.09547328017652">
<ele>349</ele>
<time>2024-05-10T14:54:44Z</time>
</trkpt>
<trkpt lat="49.498138362541795" lon="9.095458025112748">
<ele>349.2</ele>
<time>2024-05-10T14:54:45Z</time>
</trkpt>
<trkpt lat="49.49816124513745" lon="9.095443692058325">
<ele>349.2</ele>
<time>2024-05-10T14:54:46Z</time>
</trkpt>
<trkpt lat="49.49818412773311" lon="9.095426509156823">
<ele>349.2</ele>
<time>2024-05-10T14:54:47Z</time>
</trkpt>
<trkpt lat="49.49821086600423" lon="9.09541318193078">
<ele>349.4</ele>
<time>2024-05-10T14:54:48Z</time>
</trkpt>
<trkpt lat="49.498237604275346" lon="9.095404548570514">
<ele>349.6</ele>
<time>2024-05-10T14:54:49Z</time>
</trkpt>
<trkpt lat="49.49826048687101" lon="9.0953931491822">
<ele>349.6</ele>
<time>2024-05-10T14:54:50Z</time>
</trkpt>
<trkpt lat="49.49828714132309" lon="9.095384515821934">
<ele>349.8</ele>
<time>2024-05-10T14:54:51Z</time>
</trkpt>
<trkpt lat="49.49831387959421" lon="9.095376888290048">
<ele>350</ele>
<time>2024-05-10T14:54:52Z</time>
</trkpt>
<trkpt lat="49.49834053404629" lon="9.095368338748813">
<ele>350.2</ele>
<time>2024-05-10T14:54:53Z</time>
</trkpt>
<trkpt lat="49.49836727231741" lon="9.095359789207578">
<ele>350.4</ele>
<time>2024-05-10T14:54:54Z</time>
</trkpt>
<trkpt lat="49.49839401058853" lon="9.095350233837962">
<ele>350.4</ele>
<time>2024-05-10T14:54:55Z</time>
</trkpt>
<trkpt lat="49.498416893184185" lon="9.095341600477695">
<ele>350.6</ele>
<time>2024-05-10T14:54:56Z</time>
</trkpt>
<trkpt lat="49.49843977577984" lon="9.09533497877419">
<ele>350.8</ele>
<time>2024-05-10T14:54:57Z</time>
</trkpt>
<trkpt lat="49.49846643023193" lon="9.095325423404574">
<ele>350.8</ele>
<time>2024-05-10T14:54:58Z</time>
</trkpt>
<trkpt lat="49.498493168503046" lon="9.09531301818788">
<ele>351</ele>
<time>2024-05-10T14:54:59Z</time>
</trkpt>
<trkpt lat="49.498512195423245" lon="9.095298685133455">
<ele>351</ele>
<time>2024-05-10T14:55:00Z</time>
</trkpt>
<trkpt lat="49.498535078018904" lon="9.095292063429952">
<ele>351.2</ele>
<time>2024-05-10T14:55:01Z</time>
</trkpt>
<trkpt lat="49.498558044433594" lon="9.095278736203907">
<ele>351.4</ele>
<time>2024-05-10T14:55:02Z</time>
</trkpt>
<trkpt lat="49.49858092702925" lon="9.095278736203907">
<ele>351.6</ele>
<time>2024-05-10T14:55:03Z</time>
</trkpt>
<trkpt lat="49.49860758148134" lon="9.095283430069683">
<ele>351.8</ele>
<time>2024-05-10T14:55:04Z</time>
</trkpt>
<trkpt lat="49.49863809160888" lon="9.09529684111476">
<ele>352</ele>
<time>2024-05-10T14:55:05Z</time>
</trkpt>
<trkpt lat="49.49866097420454" lon="9.09531301818788">
<ele>352.4</ele>
<time>2024-05-10T14:55:06Z</time>
</trkpt>
<trkpt lat="49.4986838568002" lon="9.09533305093646">
<ele>352.4</ele>
<time>2024-05-10T14:55:07Z</time>
</trkpt>
<trkpt lat="49.49870673939586" lon="9.095359789207578">
<ele>352.6</ele>
<time>2024-05-10T14:55:08Z</time>
</trkpt>
<trkpt lat="49.49872585013509" lon="9.095390299335122">
<ele>352.8</ele>
<time>2024-05-10T14:55:09Z</time>
</trkpt>
<trkpt lat="49.49874496087432" lon="9.095424581319094">
<ele>353</ele>
<time>2024-05-10T14:55:10Z</time>
</trkpt>
<trkpt lat="49.498752588406205" lon="9.095486607402565">
<ele>353.2</ele>
<time>2024-05-10T14:55:11Z</time>
</trkpt>
<trkpt lat="49.49876398779452" lon="9.095540000125766">
<ele>353.4</ele>
<time>2024-05-10T14:55:12Z</time>
</trkpt>
<trkpt lat="49.498771615326405" lon="9.095584843307734">
<ele>353.6</ele>
<time>2024-05-10T14:55:13Z</time>
</trkpt>
<trkpt lat="49.49877547100186" lon="9.095638236030936">
<ele>353.8</ele>
<time>2024-05-10T14:55:14Z</time>
</trkpt>
<trkpt lat="49.49877547100186" lon="9.095686851069331">
<ele>354</ele>
<time>2024-05-10T14:55:15Z</time>
</trkpt>
<trkpt lat="49.49876784346998" lon="9.095733622089028">
<ele>354</ele>
<time>2024-05-10T14:55:16Z</time>
</trkpt>
<trkpt lat="49.49875636026263" lon="9.095778465270996">
<ele>354.2</ele>
<time>2024-05-10T14:55:17Z</time>
</trkpt>
<trkpt lat="49.49874110519886" lon="9.095820374786854">
<ele>354.2</ele>
<time>2024-05-10T14:55:18Z</time>
</trkpt>
<trkpt lat="49.4987182226032" lon="9.09584996290505">
<ele>354.4</ele>
<time>2024-05-10T14:55:19Z</time>
</trkpt>
<trkpt lat="49.498695340007544" lon="9.095876617357137">
<ele>354.6</ele>
<time>2024-05-10T14:55:20Z</time>
</trkpt>
<trkpt lat="49.498668601736426" lon="9.095896650105717">
<ele>354.8</ele>
<time>2024-05-10T14:55:21Z</time>
</trkpt>
<trkpt lat="49.49863809160888" lon="9.095914838835595">
<ele>354.8</ele>
<time>2024-05-10T14:55:22Z</time>
</trkpt>
<trkpt lat="49.4986114371568" lon="9.09592816606164">
<ele>355</ele>
<time>2024-05-10T14:55:23Z</time>
</trkpt>
<trkpt lat="49.49858092702925" lon="9.095936715602877">
<ele>355.2</ele>
<time>2024-05-10T14:55:24Z</time>
</trkpt>
<trkpt lat="49.49855033308267" lon="9.095941493287684">
<ele>355.4</ele>
<time>2024-05-10T14:55:25Z</time>
</trkpt>
<trkpt lat="49.49851982295513" lon="9.09594627097249">
<ele>355.6</ele>
<time>2024-05-10T14:55:26Z</time>
</trkpt>
<trkpt lat="49.498493168503046" lon="9.095952976495028">
<ele>355.8</ele>
<time>2024-05-10T14:55:27Z</time>
</trkpt>
<trkpt lat="49.49846643023193" lon="9.095961526036264">
<ele>355.8</ele>
<time>2024-05-10T14:55:28Z</time>
</trkpt>
<trkpt lat="49.49843977577984" lon="9.0959682315588">
<ele>356</ele>
<time>2024-05-10T14:55:29Z</time>
</trkpt>
<trkpt lat="49.498413037508726" lon="9.095978708937764">
<ele>356.2</ele>
<time>2024-05-10T14:55:30Z</time>
</trkpt>
<trkpt lat="49.49838638305664" lon="9.095990108326076">
<ele>356.4</ele>
<time>2024-05-10T14:55:31Z</time>
</trkpt>
<trkpt lat="49.49835964478552" lon="9.096010141074656">
<ele>356.6</ele>
<time>2024-05-10T14:55:32Z</time>
</trkpt>
<trkpt lat="49.49832913465798" lon="9.09602640196681">
<ele>356.8</ele>
<time>2024-05-10T14:55:33Z</time>
</trkpt>
<trkpt lat="49.49830239638686" lon="9.09604450687766">
<ele>357</ele>
<time>2024-05-10T14:55:34Z</time>
</trkpt>
<trkpt lat="49.498275741934776" lon="9.09606453962624">
<ele>357.2</ele>
<time>2024-05-10T14:55:35Z</time>
</trkpt>
<trkpt lat="49.49824900366366" lon="9.09608457237482">
<ele>357.4</ele>
<time>2024-05-10T14:55:36Z</time>
</trkpt>
<trkpt lat="49.498222349211574" lon="9.0961046051234">
<ele>357.8</ele>
<time>2024-05-10T14:55:37Z</time>
</trkpt>
<trkpt lat="49.49819938279688" lon="9.096121788024902">
<ele>358</ele>
<time>2024-05-10T14:55:38Z</time>
</trkpt>
<trkpt lat="49.498176500201225" lon="9.09614467062056">
<ele>358.4</ele>
<time>2024-05-10T14:55:39Z</time>
</trkpt>
<trkpt lat="49.498157473281026" lon="9.096168475225568">
<ele>358.6</ele>
<time>2024-05-10T14:55:40Z</time>
</trkpt>
<trkpt lat="49.49813459068537" lon="9.096190435811875">
<ele>358.8</ele>
<time>2024-05-10T14:55:41Z</time>
</trkpt>
<trkpt lat="49.49811547994614" lon="9.09620183520019">
<ele>359</ele>
<time>2024-05-10T14:55:42Z</time>
</trkpt>
<trkpt lat="49.49809259735048" lon="9.096222873777153">
<ele>359.2</ele>
<time>2024-05-10T14:55:43Z</time>
</trkpt>
<trkpt lat="49.49807357043028" lon="9.096236201003194">
<ele>359.2</ele>
<time>2024-05-10T14:55:44Z</time>
</trkpt>
<trkpt lat="49.498062087222934" lon="9.096251456066966">
<ele>359.4</ele>
<time>2024-05-10T14:55:45Z</time>
</trkpt>
<trkpt lat="49.49803157709539" lon="9.09628288820386">
<ele>359.6</ele>
<time>2024-05-10T14:55:46Z</time>
</trkpt>
<trkpt lat="49.49800483882427" lon="9.096309626474977">
<ele>359.8</ele>
<time>2024-05-10T14:55:47Z</time>
</trkpt>
<trkpt lat="49.49797432869673" lon="9.096329659223557">
<ele>359.8</ele>
<time>2024-05-10T14:55:48Z</time>
</trkpt>
<trkpt lat="49.49795144610107" lon="9.096346842125058">
<ele>360</ele>
<time>2024-05-10T14:55:49Z</time>
</trkpt>
<trkpt lat="49.49792856350541" lon="9.09636301919818">
<ele>360.4</ele>
<time>2024-05-10T14:55:50Z</time>
</trkpt>
<trkpt lat="49.49790953658521" lon="9.09638212993741">
<ele>360.6</ele>
<time>2024-05-10T14:55:51Z</time>
</trkpt>
<trkpt lat="49.49789428152144" lon="9.096405012533069">
<ele>360.8</ele>
<time>2024-05-10T14:55:52Z</time>
</trkpt>
<trkpt lat="49.49787517078221" lon="9.096425045281649">
<ele>361</ele>
<time>2024-05-10T14:55:53Z</time>
</trkpt>
<trkpt lat="49.49785228818655" lon="9.0964431501925">
<ele>361.2</ele>
<time>2024-05-10T14:55:54Z</time>
</trkpt>
<trkpt lat="49.49783317744732" lon="9.096466954797506">
<ele>361.4</ele>
<time>2024-05-10T14:55:55Z</time>
</trkpt>
<trkpt lat="49.49781415052712" lon="9.096493693068624">
<ele>361.8</ele>
<time>2024-05-10T14:55:56Z</time>
</trkpt>
<trkpt lat="49.49779126793146" lon="9.096520347520707">
<ele>362</ele>
<time>2024-05-10T14:55:57Z</time>
</trkpt>
<trkpt lat="49.4977683853358" lon="9.096543230116367">
<ele>362.2</ele>
<time>2024-05-10T14:55:58Z</time>
</trkpt>
<trkpt lat="49.49775313027203" lon="9.096566196531056">
<ele>362.4</ele>
<time>2024-05-10T14:55:59Z</time>
</trkpt>
<trkpt lat="49.49773787520826" lon="9.096611961722374">
<ele>362.6</ele>
<time>2024-05-10T14:56:00Z</time>
</trkpt>
<trkpt lat="49.4977149926126" lon="9.09663962200284">
<ele>362.8</ele>
<time>2024-05-10T14:56:01Z</time>
</trkpt>
<trkpt lat="49.497703509405255" lon="9.096665354445577">
<ele>363</ele>
<time>2024-05-10T14:56:02Z</time>
</trkpt>
<trkpt lat="49.497684398666024" lon="9.096683459356427">
<ele>363.2</ele>
<time>2024-05-10T14:56:03Z</time>
</trkpt>
<trkpt lat="49.497661516070366" lon="9.096699636429548">
<ele>363.2</ele>
<time>2024-05-10T14:56:04Z</time>
</trkpt>
<trkpt lat="49.497646261006594" lon="9.096744479611516">
<ele>363.4</ele>
<time>2024-05-10T14:56:05Z</time>
</trkpt>
<trkpt lat="49.49763100594282" lon="9.096764512360096">
<ele>363.6</ele>
<time>2024-05-10T14:56:06Z</time>
</trkpt>
<trkpt lat="49.497623378410935" lon="9.09681698307395">
<ele>363.8</ele>
<time>2024-05-10T14:56:07Z</time>
</trkpt>
<trkpt lat="49.49761197902262" lon="9.096839865669608">
<ele>364</ele>
<time>2024-05-10T14:56:08Z</time>
</trkpt>
<trkpt lat="49.49760049581528" lon="9.09685797058046">
<ele>364.2</ele>
<time>2024-05-10T14:56:09Z</time>
</trkpt>
<trkpt lat="49.49758909642696" lon="9.09687800332904">
<ele>364.6</ele>
<time>2024-05-10T14:56:10Z</time>
</trkpt>
<trkpt lat="49.49757761321962" lon="9.096903735771775">
<ele>364.8</ele>
<time>2024-05-10T14:56:11Z</time>
</trkpt>
<trkpt lat="49.49756235815585" lon="9.096924774348736">
<ele>365</ele>
<time>2024-05-10T14:56:12Z</time>
</trkpt>
<trkpt lat="49.49753570370376" lon="9.096964756026864">
<ele>365.2</ele>
<time>2024-05-10T14:56:13Z</time>
</trkpt>
<trkpt lat="49.49750896543264" lon="9.096982944756746">
<ele>365.4</ele>
<time>2024-05-10T14:56:14Z</time>
</trkpt>
<trkpt lat="49.49748222716153" lon="9.096998199820518">
<ele>365.6</ele>
<time>2024-05-10T14:56:15Z</time>
</trkpt>
<trkpt lat="49.49745557270944" lon="9.097018232569098">
<ele>366</ele>
<time>2024-05-10T14:56:16Z</time>
</trkpt>
<trkpt lat="49.49743646197021" lon="9.097040109336376">
<ele>366.2</ele>
<time>2024-05-10T14:56:17Z</time>
</trkpt>
<trkpt lat="49.497409807518125" lon="9.097075397148728">
<ele>366.4</ele>
<time>2024-05-10T14:56:18Z</time>
</trkpt>
<trkpt lat="49.49738306924701" lon="9.097123090177774">
<ele>366.8</ele>
<time>2024-05-10T14:56:19Z</time>
</trkpt>
<trkpt lat="49.49736018665135" lon="9.097138345241548">
<ele>367</ele>
<time>2024-05-10T14:56:20Z</time>
</trkpt>
<trkpt lat="49.49733730405569" lon="9.097158377990128">
<ele>367.2</ele>
<time>2024-05-10T14:56:21Z</time>
</trkpt>
<trkpt lat="49.49731819331646" lon="9.097176482900975">
<ele>367.2</ele>
<time>2024-05-10T14:56:22Z</time>
</trkpt>
<trkpt lat="49.4972953107208" lon="9.097187966108322">
<ele>367.4</ele>
<time>2024-05-10T14:56:23Z</time>
</trkpt>
<trkpt lat="49.49727242812514" lon="9.097187966108322">
<ele>367.6</ele>
<time>2024-05-10T14:56:24Z</time>
</trkpt>
<trkpt lat="49.4972228910774" lon="9.09723373129964">
<ele>367.8</ele>
<time>2024-05-10T14:56:25Z</time>
</trkpt>
<trkpt lat="49.49720000848174" lon="9.09725183621049">
<ele>368</ele>
<time>2024-05-10T14:56:26Z</time>
</trkpt>
<trkpt lat="49.497173270210624" lon="9.097258541733028">
<ele>368.2</ele>
<time>2024-05-10T14:56:27Z</time>
</trkpt>
<trkpt lat="49.497150387614965" lon="9.097268097102642">
<ele>368.4</ele>
<time>2024-05-10T14:56:28Z</time>
</trkpt>
<trkpt lat="49.49710839428008" lon="9.097298607230186">
<ele>368.6</ele>
<time>2024-05-10T14:56:29Z</time>
</trkpt>
<trkpt lat="49.49707788415253" lon="9.09732811152935">
<ele>368.8</ele>
<time>2024-05-10T14:56:30Z</time>
</trkpt>
<trkpt lat="49.49705885723233" lon="9.097338672727346">
<ele>368.8</ele>
<time>2024-05-10T14:56:31Z</time>
</trkpt>
<trkpt lat="49.4970397464931" lon="9.097345294430852">
<ele>369</ele>
<time>2024-05-10T14:56:32Z</time>
</trkpt>
<trkpt lat="49.4970053806901" lon="9.097366333007813">
<ele>369.4</ele>
<time>2024-05-10T14:56:33Z</time>
</trkpt>
<trkpt lat="49.4969863537699" lon="9.097378654405476">
<ele>369.6</ele>
<time>2024-05-10T14:56:34Z</time>
</trkpt>
<trkpt lat="49.49694821611047" lon="9.097401537001131">
<ele>369.8</ele>
<time>2024-05-10T14:56:35Z</time>
</trkpt>
<trkpt lat="49.49692147783935" lon="9.097414948046207">
<ele>370</ele>
<time>2024-05-10T14:56:36Z</time>
</trkpt>
<trkpt lat="49.496894823387265" lon="9.097421569749711">
<ele>370.4</ele>
<time>2024-05-10T14:56:37Z</time>
</trkpt>
<trkpt lat="49.49687194079161" lon="9.09742634743452">
<ele>370.6</ele>
<time>2024-05-10T14:56:38Z</time>
</trkpt>
<trkpt lat="49.49684520252049" lon="9.097434980794787">
<ele>370.8</ele>
<time>2024-05-10T14:56:39Z</time>
</trkpt>
<trkpt lat="49.49681846424937" lon="9.0974463801831">
<ele>370.8</ele>
<time>2024-05-10T14:56:40Z</time>
</trkpt>
<trkpt lat="49.49679180979729" lon="9.097451157867908">
<ele>371</ele>
<time>2024-05-10T14:56:41Z</time>
</trkpt>
<trkpt lat="49.49676507152617" lon="9.097456857562063">
<ele>371.4</ele>
<time>2024-05-10T14:56:42Z</time>
</trkpt>
<trkpt lat="49.496734561398625" lon="9.097461635246871">
<ele>371.6</ele>
<time>2024-05-10T14:56:43Z</time>
</trkpt>
<trkpt lat="49.49671167880297" lon="9.097473118454218">
<ele>371.8</ele>
<time>2024-05-10T14:56:44Z</time>
</trkpt>
<trkpt lat="49.49668502435088" lon="9.097479740157723">
<ele>372</ele>
<time>2024-05-10T14:56:45Z</time>
</trkpt>
<trkpt lat="49.49665828607976" lon="9.097481667995453">
<ele>372.4</ele>
<time>2024-05-10T14:56:46Z</time>
</trkpt>
<trkpt lat="49.49663154780865" lon="9.097475046291947">
<ele>372.6</ele>
<time>2024-05-10T14:56:47Z</time>
</trkpt>
<trkpt lat="49.49660866521299" lon="9.09746834076941">
<ele>372.8</ele>
<time>2024-05-10T14:56:48Z</time>
</trkpt>
<trkpt lat="49.49658963829279" lon="9.097459791228175">
<ele>373</ele>
<time>2024-05-10T14:56:49Z</time>
</trkpt>
<trkpt lat="49.49656290002167" lon="9.097459791228175">
<ele>373.2</ele>
<time>2024-05-10T14:56:50Z</time>
</trkpt>
<trkpt lat="49.49652476236224" lon="9.097503628581762">
<ele>373.4</ele>
<time>2024-05-10T14:56:51Z</time>
</trkpt>
<trkpt lat="49.49650187976658" lon="9.0975103341043">
<ele>373.6</ele>
<time>2024-05-10T14:56:52Z</time>
</trkpt>
<trkpt lat="49.496475141495466" lon="9.097511256113648">
<ele>373.8</ele>
<time>2024-05-10T14:56:53Z</time>
</trkpt>
<trkpt lat="49.49644848704338" lon="9.097516955807803">
<ele>374</ele>
<time>2024-05-10T14:56:54Z</time>
</trkpt>
<trkpt lat="49.49642174877226" lon="9.097543694078922">
<ele>374.2</ele>
<time>2024-05-10T14:56:55Z</time>
</trkpt>
<trkpt lat="49.496398866176605" lon="9.097543694078922">
<ele>374.2</ele>
<time>2024-05-10T14:56:56Z</time>
</trkpt>
<trkpt lat="49.496364584192634" lon="9.097561798989773">
<ele>374.4</ele>
<time>2024-05-10T14:56:57Z</time>
</trkpt>
<trkpt lat="49.49633407406509" lon="9.097564648836851">
<ele>374.6</ele>
<time>2024-05-10T14:56:58Z</time>
</trkpt>
<trkpt lat="49.49630733579397" lon="9.09756850451231">
<ele>374.8</ele>
<time>2024-05-10T14:56:59Z</time>
</trkpt>
<trkpt lat="49.49627682566643" lon="9.09756657667458">
<ele>375</ele>
<time>2024-05-10T14:57:00Z</time>
</trkpt>
<trkpt lat="49.49625008739531" lon="9.097570348531008">
<ele>375</ele>
<time>2024-05-10T14:57:01Z</time>
</trkpt>
<trkpt lat="49.496219577267766" lon="9.097571354359388">
<ele>375.2</ele>
<time>2024-05-10T14:57:02Z</time>
</trkpt>
<trkpt lat="49.49619292281568" lon="9.097575126215816">
<ele>375.4</ele>
<time>2024-05-10T14:57:03Z</time>
</trkpt>
<trkpt lat="49.49617004022002" lon="9.097577976062894">
<ele>375.6</ele>
<time>2024-05-10T14:57:04Z</time>
</trkpt>
<trkpt lat="49.49613567441702" lon="9.097581831738353">
<ele>376</ele>
<time>2024-05-10T14:57:05Z</time>
</trkpt>
<trkpt lat="49.496105164289474" lon="9.09758853726089">
<ele>376.2</ele>
<time>2024-05-10T14:57:06Z</time>
</trkpt>
<trkpt lat="49.49604028835893" lon="9.097610414028168">
<ele>376.4</ele>
<time>2024-05-10T14:57:07Z</time>
</trkpt>
<trkpt lat="49.496002150699496" lon="9.0976295247674">
<ele>376.6</ele>
<time>2024-05-10T14:57:08Z</time>
</trkpt>
<trkpt lat="49.495964013040066" lon="9.097644779831173">
<ele>376.8</ele>
<time>2024-05-10T14:57:09Z</time>
</trkpt>
<trkpt lat="49.49593350291252" lon="9.097653329372406">
<ele>377</ele>
<time>2024-05-10T14:57:10Z</time>
</trkpt>
<trkpt lat="49.49590299278498" lon="9.097661962732673">
<ele>377.4</ele>
<time>2024-05-10T14:57:11Z</time>
</trkpt>
<trkpt lat="49.49587625451386" lon="9.097673362120986">
<ele>377.6</ele>
<time>2024-05-10T14:57:12Z</time>
</trkpt>
<trkpt lat="49.495849600061774" lon="9.097688617184758">
<ele>377.8</ele>
<time>2024-05-10T14:57:13Z</time>
</trkpt>
<trkpt lat="49.49582286179066" lon="9.0977019444108">
<ele>378</ele>
<time>2024-05-10T14:57:14Z</time>
</trkpt>
<trkpt lat="49.49579235166311" lon="9.097716277465224">
<ele>378.2</ele>
<time>2024-05-10T14:57:15Z</time>
</trkpt>
<trkpt lat="49.495765613391995" lon="9.097735388204455">
<ele>378.4</ele>
<time>2024-05-10T14:57:16Z</time>
</trkpt>
<trkpt lat="49.49573895893991" lon="9.097753493115306">
<ele>378.6</ele>
<time>2024-05-10T14:57:17Z</time>
</trkpt>
<trkpt lat="49.49571222066879" lon="9.09776204265654">
<ele>378.8</ele>
<time>2024-05-10T14:57:18Z</time>
</trkpt>
<trkpt lat="49.49568171054125" lon="9.097776375710964">
<ele>379</ele>
<time>2024-05-10T14:57:19Z</time>
</trkpt>
<trkpt lat="49.49565505608916" lon="9.097796408459544">
<ele>379.2</ele>
<time>2024-05-10T14:57:20Z</time>
</trkpt>
<trkpt lat="49.495628317818046" lon="9.097809735685589">
<ele>379.4</ele>
<time>2024-05-10T14:57:21Z</time>
</trkpt>
<trkpt lat="49.49559395201504" lon="9.097821218892932">
<ele>379.6</ele>
<time>2024-05-10T14:57:22Z</time>
</trkpt>
<trkpt lat="49.49556729756296" lon="9.097836473956704">
<ele>380</ele>
<time>2024-05-10T14:57:23Z</time>
</trkpt>
<trkpt lat="49.49554055929184" lon="9.097849801182749">
<ele>380.2</ele>
<time>2024-05-10T14:57:24Z</time>
</trkpt>
<trkpt lat="49.49551767669618" lon="9.09786505624652">
<ele>380.4</ele>
<time>2024-05-10T14:57:25Z</time>
</trkpt>
<trkpt lat="49.495491022244096" lon="9.097896572202444">
<ele>380.4</ele>
<time>2024-05-10T14:57:26Z</time>
</trkpt>
<trkpt lat="49.49546813964844" lon="9.0979212988168">
<ele>380.6</ele>
<time>2024-05-10T14:57:27Z</time>
</trkpt>
<trkpt lat="49.49544517323375" lon="9.097947115078568">
<ele>380.8</ele>
<time>2024-05-10T14:57:28Z</time>
</trkpt>
<trkpt lat="49.495429918169975" lon="9.09797946922481">
<ele>380.8</ele>
<time>2024-05-10T14:57:29Z</time>
</trkpt>
<trkpt lat="49.495410891249776" lon="9.098008135333655">
<ele>381</ele>
<time>2024-05-10T14:57:30Z</time>
</trkpt>
<trkpt lat="49.49538800865412" lon="9.098036717623472">
<ele>381.2</ele>
<time>2024-05-10T14:57:31Z</time>
</trkpt>
<trkpt lat="49.495372753590345" lon="9.09806152805686">
<ele>381.4</ele>
<time>2024-05-10T14:57:32Z</time>
</trkpt>
<trkpt lat="49.49534987099469" lon="9.09808156080544">
<ele>381.6</ele>
<time>2024-05-10T14:57:33Z</time>
</trkpt>
<trkpt lat="49.49532698839903" lon="9.09810159355402">
<ele>381.8</ele>
<time>2024-05-10T14:57:34Z</time>
</trkpt>
<trkpt lat="49.49530025012791" lon="9.098128248006104">
<ele>382</ele>
<time>2024-05-10T14:57:35Z</time>
</trkpt>
<trkpt lat="49.49528113938868" lon="9.098138809204102">
<ele>382.4</ele>
<time>2024-05-10T14:57:36Z</time>
</trkpt>
<trkpt lat="49.495250629261136" lon="9.098171163350344">
<ele>382.6</ele>
<time>2024-05-10T14:57:37Z</time>
</trkpt>
<trkpt lat="49.49522774666548" lon="9.098188346251844">
<ele>382.8</ele>
<time>2024-05-10T14:57:38Z</time>
</trkpt>
<trkpt lat="49.49520486406982" lon="9.09821986220777">
<ele>383</ele>
<time>2024-05-10T14:57:39Z</time>
</trkpt>
<trkpt lat="49.49518583714962" lon="9.098248444497584">
<ele>383.2</ele>
<time>2024-05-10T14:57:40Z</time>
</trkpt>
<trkpt lat="49.49516295455396" lon="9.098281804472208">
<ele>383.2</ele>
<time>2024-05-10T14:57:41Z</time>
</trkpt>
<trkpt lat="49.4951400719583" lon="9.098321869969368">
<ele>383.4</ele>
<time>2024-05-10T14:57:42Z</time>
</trkpt>
<trkpt lat="49.495113333687186" lon="9.09835522994399">
<ele>383.4</ele>
<time>2024-05-10T14:57:43Z</time>
</trkpt>
<trkpt lat="49.495094222947955" lon="9.098376268520951">
<ele>383.6</ele>
<time>2024-05-10T14:57:44Z</time>
</trkpt>
<trkpt lat="49.49507519602776" lon="9.098386745899916">
<ele>383.8</ele>
<time>2024-05-10T14:57:45Z</time>
</trkpt>
<trkpt lat="49.49505994096398" lon="9.098408622667192">
<ele>384</ele>
<time>2024-05-10T14:57:46Z</time>
</trkpt>
<trkpt lat="49.49504468590021" lon="9.09843536093831">
<ele>384</ele>
<time>2024-05-10T14:57:47Z</time>
</trkpt>
<trkpt lat="49.49502943083644" lon="9.098463021218777">
<ele>384.2</ele>
<time>2024-05-10T14:57:48Z</time>
</trkpt>
<trkpt lat="49.49501417577267" lon="9.098484981805086">
<ele>384.4</ele>
<time>2024-05-10T14:57:49Z</time>
</trkpt>
<trkpt lat="49.49499506503344" lon="9.09851448610425">
<ele>384.6</ele>
<time>2024-05-10T14:57:50Z</time>
</trkpt>
<trkpt lat="49.49496455490589" lon="9.098549773916602">
<ele>384.8</ele>
<time>2024-05-10T14:57:51Z</time>
</trkpt>
<trkpt lat="49.494937816634774" lon="9.098581289872527">
<ele>384.8</ele>
<time>2024-05-10T14:57:52Z</time>
</trkpt>
<trkpt lat="49.494918789714575" lon="9.0986137278378">
<ele>385</ele>
<time>2024-05-10T14:57:53Z</time>
</trkpt>
<trkpt lat="49.4949035346508" lon="9.098649937659502">
<ele>385.2</ele>
<time>2024-05-10T14:57:54Z</time>
</trkpt>
<trkpt lat="49.494876796379685" lon="9.098683297634125">
<ele>385.4</ele>
<time>2024-05-10T14:57:55Z</time>
</trkpt>
<trkpt lat="49.49485391378403" lon="9.09871481359005">
<ele>385.6</ele>
<time>2024-05-10T14:57:56Z</time>
</trkpt>
<trkpt lat="49.49483103118837" lon="9.098745323717594">
<ele>385.8</ele>
<time>2024-05-10T14:57:57Z</time>
</trkpt>
<trkpt lat="49.49480814859271" lon="9.098776755854487">
<ele>386</ele>
<time>2024-05-10T14:57:58Z</time>
</trkpt>
<trkpt lat="49.49479289352894" lon="9.098803494125605">
<ele>386</ele>
<time>2024-05-10T14:57:59Z</time>
</trkpt>
<trkpt lat="49.494777638465166" lon="9.098828304558992">
<ele>386.2</ele>
<time>2024-05-10T14:58:00Z</time>
</trkpt>
<trkpt lat="49.494758527725935" lon="9.098859736695886">
<ele>386.4</ele>
<time>2024-05-10T14:58:01Z</time>
</trkpt>
<trkpt lat="49.49474712833762" lon="9.098883625119925">
<ele>386.6</ele>
<time>2024-05-10T14:58:02Z</time>
</trkpt>
<trkpt lat="49.49473187327385" lon="9.09891128540039">
<ele>386.8</ele>
<time>2024-05-10T14:58:03Z</time>
</trkpt>
<trkpt lat="49.49471661821008" lon="9.098953194916248">
<ele>387</ele>
<time>2024-05-10T14:58:04Z</time>
</trkpt>
<trkpt lat="49.494701363146305" lon="9.098979933187366">
<ele>387.2</ele>
<time>2024-05-10T14:58:05Z</time>
</trkpt>
<trkpt lat="49.49468610808253" lon="9.099006587639453">
<ele>387.4</ele>
<time>2024-05-10T14:58:06Z</time>
</trkpt>
<trkpt lat="49.49467462487519" lon="9.09903139807284">
<ele>387.6</ele>
<time>2024-05-10T14:58:07Z</time>
</trkpt>
<trkpt lat="49.494659369811416" lon="9.099076241254808">
<ele>387.8</ele>
<time>2024-05-10T14:58:08Z</time>
</trkpt>
<trkpt lat="49.494640342891216" lon="9.099106751382353">
<ele>388</ele>
<time>2024-05-10T14:58:09Z</time>
</trkpt>
<trkpt lat="49.494621232151985" lon="9.09912871196866">
<ele>388.2</ele>
<time>2024-05-10T14:58:10Z</time>
</trkpt>
<trkpt lat="49.49460597708821" lon="9.09914681687951">
<ele>388.4</ele>
<time>2024-05-10T14:58:11Z</time>
</trkpt>
<trkpt lat="49.49458686634898" lon="9.09916684962809">
<ele>388.6</ele>
<time>2024-05-10T14:58:12Z</time>
</trkpt>
<trkpt lat="49.49456783942878" lon="9.09918973222375">
<ele>388.6</ele>
<time>2024-05-10T14:58:13Z</time>
</trkpt>
<trkpt lat="49.49454872868955" lon="9.0992078371346">
<ele>389</ele>
<time>2024-05-10T14:58:14Z</time>
</trkpt>
<trkpt lat="49.49453347362578" lon="9.099261229857802">
<ele>389.2</ele>
<time>2024-05-10T14:58:15Z</time>
</trkpt>
<trkpt lat="49.494522074237466" lon="9.0993080008775">
<ele>389.4</ele>
<time>2024-05-10T14:58:16Z</time>
</trkpt>
<trkpt lat="49.49451059103012" lon="9.099329877644776">
<ele>389.6</ele>
<time>2024-05-10T14:58:17Z</time>
</trkpt>
<trkpt lat="49.49449919164181" lon="9.099376648664474">
<ele>389.8</ele>
<time>2024-05-10T14:58:18Z</time>
</trkpt>
<trkpt lat="49.49448770843446" lon="9.099401459097862">
<ele>390</ele>
<time>2024-05-10T14:58:19Z</time>
</trkpt>
<trkpt lat="49.49446868151426" lon="9.099421491846442">
<ele>390.2</ele>
<time>2024-05-10T14:58:20Z</time>
</trkpt>
<trkpt lat="49.49444957077503" lon="9.099446218460798">
<ele>390.2</ele>
<time>2024-05-10T14:58:21Z</time>
</trkpt>
<trkpt lat="49.4944304600358" lon="9.099472034722568">
<ele>390.4</ele>
<time>2024-05-10T14:58:22Z</time>
</trkpt>
<trkpt lat="49.49440757744014" lon="9.099488211795688">
<ele>390.6</ele>
<time>2024-05-10T14:58:23Z</time>
</trkpt>
<trkpt lat="49.49438469484448" lon="9.099508244544268">
<ele>390.8</ele>
<time>2024-05-10T14:58:24Z</time>
</trkpt>
<trkpt lat="49.494365667924285" lon="9.099530205130575">
<ele>391</ele>
<time>2024-05-10T14:58:25Z</time>
</trkpt>
<trkpt lat="49.49431604705751" lon="9.099586447700858">
<ele>391.2</ele>
<time>2024-05-10T14:58:26Z</time>
</trkpt>
<trkpt lat="49.494289392605424" lon="9.099635062739251">
<ele>391.4</ele>
<time>2024-05-10T14:58:27Z</time>
</trkpt>
<trkpt lat="49.49427028186619" lon="9.099664650857449">
<ele>391.4</ele>
<time>2024-05-10T14:58:28Z</time>
</trkpt>
<trkpt lat="49.49424354359507" lon="9.099708488211036">
<ele>391.6</ele>
<time>2024-05-10T14:58:29Z</time>
</trkpt>
<trkpt lat="49.49422451667488" lon="9.099735226482151">
<ele>391.8</ele>
<time>2024-05-10T14:58:30Z</time>
</trkpt>
<trkpt lat="49.494209261611104" lon="9.09976003691554">
<ele>391.8</ele>
<time>2024-05-10T14:58:31Z</time>
</trkpt>
<trkpt lat="49.49419015087187" lon="9.099788619205356">
<ele>392</ele>
<time>2024-05-10T14:58:32Z</time>
</trkpt>
<trkpt lat="49.49417112395167" lon="9.099808651953936">
<ele>392.2</ele>
<time>2024-05-10T14:58:33Z</time>
</trkpt>
<trkpt lat="49.49413675814867" lon="9.099866822361946">
<ele>392.4</ele>
<time>2024-05-10T14:58:34Z</time>
</trkpt>
<trkpt lat="49.49411773122847" lon="9.099882999435067">
<ele>392.6</ele>
<time>2024-05-10T14:58:35Z</time>
</trkpt>
<trkpt lat="49.49409484863281" lon="9.099898338317873">
<ele>392.8</ele>
<time>2024-05-10T14:58:36Z</time>
</trkpt>
<trkpt lat="49.49407188221812" lon="9.099913593381643">
<ele>393</ele>
<time>2024-05-10T14:58:37Z</time>
</trkpt>
<trkpt lat="49.49405285529792" lon="9.099943097680807">
<ele>393.2</ele>
<time>2024-05-10T14:58:38Z</time>
</trkpt>
<trkpt lat="49.49401848949492" lon="9.099980313330889">
<ele>393.4</ele>
<time>2024-05-10T14:58:39Z</time>
</trkpt>
<trkpt lat="49.49398420751095" lon="9.100003195926549">
<ele>393.6</ele>
<time>2024-05-10T14:58:40Z</time>
</trkpt>
<trkpt lat="49.493949841707945" lon="9.1000384837389">
<ele>393.6</ele>
<time>2024-05-10T14:58:41Z</time>
</trkpt>
<trkpt lat="49.493911704048514" lon="9.100081399083138">
<ele>393.8</ele>
<time>2024-05-10T14:58:42Z</time>
</trkpt>
<trkpt lat="49.4938659388572" lon="9.100130014121532">
<ele>394</ele>
<time>2024-05-10T14:58:43Z</time>
</trkpt>
<trkpt lat="49.49382394552231" lon="9.100172007456422">
<ele>394</ele>
<time>2024-05-10T14:58:44Z</time>
</trkpt>
<trkpt lat="49.49376678094268" lon="9.100232105702162">
<ele>394</ele>
<time>2024-05-10T14:58:45Z</time>
</trkpt>
<trkpt lat="49.49372478760779" lon="9.100290276110172">
<ele>394</ele>
<time>2024-05-10T14:58:46Z</time>
</trkpt>
<trkpt lat="49.49367902241647" lon="9.100356996059418">
<ele>393.8</ele>
<time>2024-05-10T14:58:47Z</time>
</trkpt>
<trkpt lat="49.49363325722515" lon="9.100408544763924">
<ele>393.8</ele>
<time>2024-05-10T14:58:48Z</time>
</trkpt>
<trkpt lat="49.49357986450195" lon="9.100462859496474">
<ele>393.4</ele>
<time>2024-05-10T14:58:49Z</time>
</trkpt>
<trkpt lat="49.49352638795972" lon="9.100516252219675">
<ele>393.2</ele>
<time>2024-05-10T14:58:50Z</time>
</trkpt>
<trkpt lat="49.49346922338009" lon="9.1005667950958">
<ele>393</ele>
<time>2024-05-10T14:58:51Z</time>
</trkpt>
<trkpt lat="49.49341197498143" lon="9.10060971044004">
<ele>392.8</ele>
<time>2024-05-10T14:58:52Z</time>
</trkpt>
<trkpt lat="49.49334709905088" lon="9.10066980868578">
<ele>392.6</ele>
<time>2024-05-10T14:58:53Z</time>
</trkpt>
<trkpt lat="49.49328230693936" lon="9.100763266906142">
<ele>392.4</ele>
<time>2024-05-10T14:58:54Z</time>
</trkpt>
<trkpt lat="49.49320980347693" lon="9.100852953270078">
<ele>392.2</ele>
<time>2024-05-10T14:58:55Z</time>
</trkpt>
<trkpt lat="49.493141155689955" lon="9.100921601057053">
<ele>392</ele>
<time>2024-05-10T14:58:56Z</time>
</trkpt>
<trkpt lat="49.49307250790298" lon="9.100990248844028">
<ele>391.6</ele>
<time>2024-05-10T14:58:57Z</time>
</trkpt>
<trkpt lat="49.49300377629697" lon="9.101050347089767">
<ele>391.2</ele>
<time>2024-05-10T14:58:58Z</time>
</trkpt>
<trkpt lat="49.49293898418546" lon="9.101119916886091">
<ele>391</ele>
<time>2024-05-10T14:58:59Z</time>
</trkpt>
<trkpt lat="49.49287410825491" lon="9.101195270195603">
<ele>390.6</ele>
<time>2024-05-10T14:59:00Z</time>
</trkpt>
<trkpt lat="49.492805460467935" lon="9.101266851648688">
<ele>390.2</ele>
<time>2024-05-10T14:59:01Z</time>
</trkpt>
<trkpt lat="49.49273681268096" lon="9.101340277120473">
<ele>389.8</ele>
<time>2024-05-10T14:59:02Z</time>
</trkpt>
<trkpt lat="49.49266808107495" lon="9.10141848027706">
<ele>389.4</ele>
<time>2024-05-10T14:59:03Z</time>
</trkpt>
<trkpt lat="49.49260328896344" lon="9.101506154984236">
<ele>389</ele>
<time>2024-05-10T14:59:04Z</time>
</trkpt>
<trkpt lat="49.49253841303289" lon="9.101594919338822">
<ele>388.8</ele>
<time>2024-05-10T14:59:05Z</time>
</trkpt>
<trkpt lat="49.49247353710234" lon="9.101691227406263">
<ele>388.4</ele>
<time>2024-05-10T14:59:06Z</time>
</trkpt>
<trkpt lat="49.492408744990826" lon="9.10179323516786">
<ele>387.8</ele>
<time>2024-05-10T14:59:07Z</time>
</trkpt>
<trkpt lat="49.49234386906028" lon="9.101901948451996">
<ele>387.4</ele>
<time>2024-05-10T14:59:08Z</time>
</trkpt>
<trkpt lat="49.49228284880519" lon="9.102018289268017">
<ele>387</ele>
<time>2024-05-10T14:59:09Z</time>
</trkpt>
<trkpt lat="49.4922218285501" lon="9.102143263444304">
<ele>386.6</ele>
<time>2024-05-10T14:59:10Z</time>
</trkpt>
<trkpt lat="49.492168352007866" lon="9.10227200947702">
<ele>386.2</ele>
<time>2024-05-10T14:59:11Z</time>
</trkpt>
<trkpt lat="49.49211118742824" lon="9.102401677519085">
<ele>385.8</ele>
<time>2024-05-10T14:59:12Z</time>
</trkpt>
<trkpt lat="49.49205779470503" lon="9.102533273398876">
<ele>385.4</ele>
<time>2024-05-10T14:59:13Z</time>
</trkpt>
<trkpt lat="49.49200817383826" lon="9.102663025259972">
<ele>384.8</ele>
<time>2024-05-10T14:59:14Z</time>
</trkpt>
<trkpt lat="49.491954781115055" lon="9.102791771292686">
<ele>384.2</ele>
<time>2024-05-10T14:59:15Z</time>
</trkpt>
<trkpt lat="49.49190901592374" lon="9.10292336717248">
<ele>383.6</ele>
<time>2024-05-10T14:59:16Z</time>
</trkpt>
<trkpt lat="49.49186325073242" lon="9.103052113205194">
<ele>383</ele>
<time>2024-05-10T14:59:17Z</time>
</trkpt>
<trkpt lat="49.49182502925396" lon="9.10317700356245">
<ele>382.6</ele>
<time>2024-05-10T14:59:18Z</time>
</trkpt>
<trkpt lat="49.4917831197381" lon="9.10329627804458">
<ele>382.4</ele>
<time>2024-05-10T14:59:19Z</time>
</trkpt>
<trkpt lat="49.4917487539351" lon="9.103409685194492">
<ele>382</ele>
<time>2024-05-10T14:59:20Z</time>
</trkpt>
<trkpt lat="49.49172209948301" lon="9.103521332144735">
<ele>381.6</ele>
<time>2024-05-10T14:59:21Z</time>
</trkpt>
<trkpt lat="49.491695361211896" lon="9.103630045428872">
<ele>381.2</ele>
<time>2024-05-10T14:59:22Z</time>
</trkpt>
<trkpt lat="49.49167247861624" lon="9.103739680722356">
<ele>381</ele>
<time>2024-05-10T14:59:23Z</time>
</trkpt>
<trkpt lat="49.49165336787701" lon="9.103851243853567">
<ele>380.6</ele>
<time>2024-05-10T14:59:24Z</time>
</trkpt>
<trkpt lat="49.49163434095681" lon="9.103958113119006">
<ele>380.2</ele>
<time>2024-05-10T14:59:25Z</time>
</trkpt>
<trkpt lat="49.491615230217576" lon="9.10406682640314">
<ele>380</ele>
<time>2024-05-10T14:59:26Z</time>
</trkpt>
<trkpt lat="49.49159620329738" lon="9.10418693907559">
<ele>379.6</ele>
<time>2024-05-10T14:59:27Z</time>
</trkpt>
<trkpt lat="49.4915809482336" lon="9.104292802512646">
<ele>379.4</ele>
<time>2024-05-10T14:59:28Z</time>
</trkpt>
<trkpt lat="49.49157332070172" lon="9.104398665949702">
<ele>379.2</ele>
<time>2024-05-10T14:59:29Z</time>
</trkpt>
<trkpt lat="49.49156569316983" lon="9.10450360737741">
<ele>379</ele>
<time>2024-05-10T14:59:30Z</time>
</trkpt>
<trkpt lat="49.49156183749437" lon="9.104603687301278">
<ele>378.6</ele>
<time>2024-05-10T14:59:31Z</time>
</trkpt>
<trkpt lat="49.491558065637946" lon="9.10470292903483">
<ele>378.4</ele>
<time>2024-05-10T14:59:32Z</time>
</trkpt>
<trkpt lat="49.49155043810606" lon="9.104803008958696">
<ele>378.4</ele>
<time>2024-05-10T14:59:33Z</time>
</trkpt>
<trkpt lat="49.49155043810606" lon="9.10489839501679">
<ele>378.2</ele>
<time>2024-05-10T14:59:34Z</time>
</trkpt>
<trkpt lat="49.4915465824306" lon="9.104992859065533">
<ele>378</ele>
<time>2024-05-10T14:59:35Z</time>
</trkpt>
<trkpt lat="49.491542810574174" lon="9.105128226801751">
<ele>378</ele>
<time>2024-05-10T14:59:36Z</time>
</trkpt>
<trkpt lat="49.4915465824306" lon="9.105219841003418">
<ele>378</ele>
<time>2024-05-10T14:59:37Z</time>
</trkpt>
<trkpt lat="49.4915465824306" lon="9.105311371386051">
<ele>378</ele>
<time>2024-05-10T14:59:38Z</time>
</trkpt>
<trkpt lat="49.49155043810606" lon="9.105404829606414">
<ele>377.8</ele>
<time>2024-05-10T14:59:39Z</time>
</trkpt>
<trkpt lat="49.49155043810606" lon="9.105498287826777">
<ele>377.8</ele>
<time>2024-05-10T14:59:40Z</time>
</trkpt>
<trkpt lat="49.49155043810606" lon="9.10558981820941">
<ele>377.8</ele>
<time>2024-05-10T14:59:41Z</time>
</trkpt>
<trkpt lat="49.49155043810606" lon="9.105683276429772">
<ele>377.8</ele>
<time>2024-05-10T14:59:42Z</time>
</trkpt>
<trkpt lat="49.4915465824306" lon="9.105778662487864">
<ele>377.8</ele>
<time>2024-05-10T14:59:43Z</time>
</trkpt>
<trkpt lat="49.4915465824306" lon="9.105871198698878">
<ele>377.8</ele>
<time>2024-05-10T14:59:44Z</time>
</trkpt>
<trkpt lat="49.4915465824306" lon="9.105968428775668">
<ele>377.6</ele>
<time>2024-05-10T14:59:45Z</time>
</trkpt>
<trkpt lat="49.49155043810606" lon="9.10606280900538">
<ele>377.6</ele>
<time>2024-05-10T14:59:46Z</time>
</trkpt>
<trkpt lat="49.49155043810606" lon="9.106153417378664">
<ele>377.6</ele>
<time>2024-05-10T14:59:47Z</time>
</trkpt>
<trkpt lat="49.49155420996249" lon="9.106234470382333">
<ele>377.4</ele>
<time>2024-05-10T14:59:48Z</time>
</trkpt>
<trkpt lat="49.49156183749437" lon="9.106311751529574">
<ele>377.2</ele>
<time>2024-05-10T14:59:49Z</time>
</trkpt>
<trkpt lat="49.49156183749437" lon="9.106388026848435">
<ele>377</ele>
<time>2024-05-10T14:59:50Z</time>
</trkpt>
<trkpt lat="49.49155420996249" lon="9.106466230005026">
<ele>376.8</ele>
<time>2024-05-10T14:59:51Z</time>
</trkpt>
<trkpt lat="49.49155420996249" lon="9.106545438989995">
<ele>376.6</ele>
<time>2024-05-10T14:59:52Z</time>
</trkpt>
<trkpt lat="49.49155043810606" lon="9.106623642146587">
<ele>376.2</ele>
<time>2024-05-10T14:59:53Z</time>
</trkpt>
<trkpt lat="49.49155043810606" lon="9.106703689321876">
<ele>376</ele>
<time>2024-05-10T14:59:54Z</time>
</trkpt>
<trkpt lat="49.49155043810606" lon="9.106784742325544">
<ele>375.6</ele>
<time>2024-05-10T14:59:55Z</time>
</trkpt>
<trkpt lat="49.49155420996249" lon="9.106864873319864">
<ele>375.4</ele>
<time>2024-05-10T14:59:56Z</time>
</trkpt>
<trkpt lat="49.49156183749437" lon="9.106945004314184">
<ele>375.2</ele>
<time>2024-05-10T14:59:57Z</time>
</trkpt>
<trkpt lat="49.49156569316983" lon="9.107026979327202">
<ele>375</ele>
<time>2024-05-10T14:59:58Z</time>
</trkpt>
<trkpt lat="49.49157332070172" lon="9.107106188312171">
<ele>374.8</ele>
<time>2024-05-10T14:59:59Z</time>
</trkpt>
<trkpt lat="49.49158472009003" lon="9.10718623548746">
<ele>374.6</ele>
<time>2024-05-10T15:00:00Z</time>
</trkpt>
<trkpt lat="49.49158857576549" lon="9.107265444472432">
<ele>374.6</ele>
<time>2024-05-10T15:00:01Z</time>
</trkpt>
<trkpt lat="49.49159234762192" lon="9.107343647629024">
<ele>374.4</ele>
<time>2024-05-10T15:00:02Z</time>
</trkpt>
<trkpt lat="49.49159620329738" lon="9.107417995110154">
<ele>374.2</ele>
<time>2024-05-10T15:00:03Z</time>
</trkpt>
<trkpt lat="49.49159620329738" lon="9.107493348419666">
<ele>374.2</ele>
<time>2024-05-10T15:00:04Z</time>
</trkpt>
<trkpt lat="49.49159620329738" lon="9.107566773891447">
<ele>374</ele>
<time>2024-05-10T15:00:05Z</time>
</trkpt>
<trkpt lat="49.49159234762192" lon="9.107640199363232">
<ele>374</ele>
<time>2024-05-10T15:00:06Z</time>
</trkpt>
<trkpt lat="49.49158857576549" lon="9.107714630663397">
<ele>373.8</ele>
<time>2024-05-10T15:00:07Z</time>
</trkpt>
<trkpt lat="49.49158472009003" lon="9.107794761657717">
<ele>373.8</ele>
<time>2024-05-10T15:00:08Z</time>
</trkpt>
<trkpt lat="49.49157332070172" lon="9.107876736670732">
<ele>373.6</ele>
<time>2024-05-10T15:00:09Z</time>
</trkpt>
<trkpt lat="49.49156183749437" lon="9.10796164534986">
<ele>373.6</ele>
<time>2024-05-10T15:00:10Z</time>
</trkpt>
<trkpt lat="49.4915465824306" lon="9.108048398047686">
<ele>373.2</ele>
<time>2024-05-10T15:00:11Z</time>
</trkpt>
<trkpt lat="49.49153132736683" lon="9.10813707858324">
<ele>373</ele>
<time>2024-05-10T15:00:12Z</time>
</trkpt>
<trkpt lat="49.4915122166276" lon="9.108226764947176">
<ele>372.8</ele>
<time>2024-05-10T15:00:13Z</time>
</trkpt>
<trkpt lat="49.4914931897074" lon="9.108322067186236">
<ele>372.6</ele>
<time>2024-05-10T15:00:14Z</time>
</trkpt>
<trkpt lat="49.491477934643626" lon="9.108420303091409">
<ele>372.2</ele>
<time>2024-05-10T15:00:15Z</time>
</trkpt>
<trkpt lat="49.491462679579854" lon="9.108516611158848">
<ele>371.8</ele>
<time>2024-05-10T15:00:16Z</time>
</trkpt>
<trkpt lat="49.49144356884062" lon="9.108610153198242">
<ele>371.4</ele>
<time>2024-05-10T15:00:17Z</time>
</trkpt>
<trkpt lat="49.49142454192042" lon="9.108701683580875">
<ele>370.8</ele>
<time>2024-05-10T15:00:18Z</time>
</trkpt>
<trkpt lat="49.49140543118119" lon="9.10879128612578">
<ele>370.4</ele>
<time>2024-05-10T15:00:19Z</time>
</trkpt>
<trkpt lat="49.49138640426099" lon="9.108875272795558">
<ele>370</ele>
<time>2024-05-10T15:00:20Z</time>
</trkpt>
<trkpt lat="49.49137114919722" lon="9.10894962027669">
<ele>369.4</ele>
<time>2024-05-10T15:00:21Z</time>
</trkpt>
<trkpt lat="49.49135203845799" lon="9.109022123739123">
<ele>368.8</ele>
<time>2024-05-10T15:00:22Z</time>
</trkpt>
<trkpt lat="49.49133678339422" lon="9.109085071831942">
<ele>368.2</ele>
<time>2024-05-10T15:00:23Z</time>
</trkpt>
<trkpt lat="49.491321528330445" lon="9.109138464555144">
<ele>367.6</ele>
<time>2024-05-10T15:00:24Z</time>
</trkpt>
<trkpt lat="49.49131390079856" lon="9.109181379899384">
<ele>367.2</ele>
<time>2024-05-10T15:00:25Z</time>
</trkpt>
<trkpt lat="49.49130627326667" lon="9.109221445396544">
<ele>366.6</ele>
<time>2024-05-10T15:00:26Z</time>
</trkpt>
<trkpt lat="49.49129479005933" lon="9.109251955524089">
<ele>366.2</ele>
<time>2024-05-10T15:00:27Z</time>
</trkpt>
<trkpt lat="49.491283390671015" lon="9.109276765957476">
<ele>365.8</ele>
<time>2024-05-10T15:00:28Z</time>
</trkpt>
<trkpt lat="49.49126813560724" lon="9.10928145982325">
<ele>365.2</ele>
<time>2024-05-10T15:00:29Z</time>
</trkpt>
<trkpt lat="49.49126813560724" lon="9.109279615804551">
<ele>364.8</ele>
<time>2024-05-10T15:00:30Z</time>
</trkpt>
<trkpt lat="49.49126813560724" lon="9.109278609976172">
<ele>364.4</ele>
<time>2024-05-10T15:00:31Z</time>
</trkpt>
<trkpt lat="49.49126813560724" lon="9.10928338766098">
<ele>364</ele>
<time>2024-05-10T15:00:32Z</time>
</trkpt>
<trkpt lat="49.491264279931784" lon="9.10928623750806">
<ele>363.6</ele>
<time>2024-05-10T15:00:33Z</time>
</trkpt>
<trkpt lat="49.49126813560724" lon="9.10928531549871">
<ele>363.4</ele>
<time>2024-05-10T15:00:34Z</time>
</trkpt>
<trkpt lat="49.491264279931784" lon="9.10928338766098">
<ele>363</ele>
<time>2024-05-10T15:00:35Z</time>
</trkpt>
<trkpt lat="49.491264279931784" lon="9.10928531549871">
<ele>362.6</ele>
<time>2024-05-10T15:00:36Z</time>
</trkpt>
<trkpt lat="49.49126050807536" lon="9.10928531549871">
<ele>362.4</ele>
<time>2024-05-10T15:00:38Z</time>
</trkpt>
<trkpt lat="49.49126050807536" lon="9.10928623750806">
<ele>362.2</ele>
<time>2024-05-10T15:00:42Z</time>
</trkpt>
<trkpt lat="49.491264279931784" lon="9.10928623750806">
<ele>362</ele>
<time>2024-05-10T15:00:45Z</time>
</trkpt>
<trkpt lat="49.49126050807536" lon="9.10928623750806">
<ele>361.8</ele>
<time>2024-05-10T15:00:47Z</time>
</trkpt>
<trkpt lat="49.49126050807536" lon="9.109288165345788">
<ele>361.6</ele>
<time>2024-05-10T15:00:50Z</time>
</trkpt>
<trkpt lat="49.49126050807536" lon="9.109290093183516">
<ele>361.4</ele>
<time>2024-05-10T15:00:53Z</time>
</trkpt>
<trkpt lat="49.49126050807536" lon="9.109288165345788">
<ele>361.2</ele>
<time>2024-05-10T15:00:59Z</time>
</trkpt>
<trkpt lat="49.49126050807536" lon="9.10928623750806">
<ele>361.2</ele>
<time>2024-05-10T15:01:02Z</time>
</trkpt>
<trkpt lat="49.49126050807536" lon="9.109288165345788">
<ele>361</ele>
<time>2024-05-10T15:01:03Z</time>
</trkpt>
<trkpt lat="49.49126050807536" lon="9.10928623750806">
<ele>361</ele>
<time>2024-05-10T15:01:05Z</time>
</trkpt>
<trkpt lat="49.4912566523999" lon="9.10928623750806">
<ele>361</ele>
<time>2024-05-10T15:01:09Z</time>
</trkpt>
<trkpt lat="49.4912566523999" lon="9.109288165345788">
<ele>360.8</ele>
<time>2024-05-10T15:01:13Z</time>
</trkpt>
<trkpt lat="49.4912566523999" lon="9.109290093183516">
<ele>360.8</ele>
<time>2024-05-10T15:01:25Z</time>
</trkpt>
<trkpt lat="49.4912566523999" lon="9.109292021021249">
<ele>360.8</ele>
<time>2024-05-10T15:01:33Z</time>
</trkpt>
<trkpt lat="49.49125288054347" lon="9.109292021021249">
<ele>360.8</ele>
<time>2024-05-10T15:01:36Z</time>
</trkpt>
<trkpt lat="49.49125288054347" lon="9.109292943030596">
<ele>360.6</ele>
<time>2024-05-10T15:01:40Z</time>
</trkpt>
<trkpt lat="49.49125288054347" lon="9.109292021021249">
<ele>360.6</ele>
<time>2024-05-10T15:01:41Z</time>
</trkpt>
<trkpt lat="49.49125288054347" lon="9.109292943030596">
<ele>360.8</ele>
<time>2024-05-10T15:01:42Z</time>
</trkpt>
<trkpt lat="49.49125288054347" lon="9.109294870868323">
<ele>360.6</ele>
<time>2024-05-10T15:01:46Z</time>
</trkpt>
<trkpt lat="49.49125288054347" lon="9.109296798706056">
<ele>360.6</ele>
<time>2024-05-10T15:01:49Z</time>
</trkpt>
<trkpt lat="49.49124902486801" lon="9.109316747635605">
<ele>367</ele>
<time>2024-05-10T15:01:49Z</time>
</trkpt>
<trkpt lat="49.49124902486801" lon="9.109314903616903">
<ele>367</ele>
<time>2024-05-10T15:01:51Z</time>
</trkpt>
<trkpt lat="49.49124902486801" lon="9.109312975779176">
<ele>367</ele>
<time>2024-05-10T15:01:52Z</time>
</trkpt>
<trkpt lat="49.491245253011584" lon="9.109314903616903">
<ele>367</ele>
<time>2024-05-10T15:02:02Z</time>
</trkpt>
<trkpt lat="49.491241397336125" lon="9.109314903616903">
<ele>367</ele>
<time>2024-05-10T15:02:10Z</time>
</trkpt>
<trkpt lat="49.491241397336125" lon="9.109312975779176">
<ele>367</ele>
<time>2024-05-10T15:02:20Z</time>
</trkpt>
<trkpt lat="49.491241397336125" lon="9.109314903616903">
<ele>367</ele>
<time>2024-05-10T15:02:21Z</time>
</trkpt>
<trkpt lat="49.491241397336125" lon="9.109312975779176">
<ele>367</ele>
<time>2024-05-10T15:02:22Z</time>
</trkpt>
<trkpt lat="49.491241397336125" lon="9.109314903616903">
<ele>367</ele>
<time>2024-05-10T15:02:27Z</time>
</trkpt>
<trkpt lat="49.491241397336125" lon="9.109316747635605">
<ele>367</ele>
<time>2024-05-10T15:02:43Z</time>
</trkpt>
<trkpt lat="49.491241397336125" lon="9.109314903616903">
<ele>367</ele>
<time>2024-05-10T15:02:44Z</time>
</trkpt>
<trkpt lat="49.491241397336125" lon="9.109316747635605">
<ele>367</ele>
<time>2024-05-10T15:02:47Z</time>
</trkpt>
<trkpt lat="49.491241397336125" lon="9.109314903616903">
<ele>367</ele>
<time>2024-05-10T15:02:53Z</time>
</trkpt>
<trkpt lat="49.491241397336125" lon="9.109316747635605">
<ele>367</ele>
<time>2024-05-10T15:02:58Z</time>
</trkpt>
<trkpt lat="49.491241397336125" lon="9.109318675473332">
<ele>367</ele>
<time>2024-05-10T15:03:03Z</time>
</trkpt>
<trkpt lat="49.491241397336125" lon="9.109316747635605">
<ele>367</ele>
<time>2024-05-10T15:03:19Z</time>
</trkpt>
<trkpt lat="49.491245253011584" lon="9.109314903616903">
<ele>367</ele>
<time>2024-05-10T15:03:37Z</time>
</trkpt>
<trkpt lat="49.491245253011584" lon="9.109312975779176">
<ele>367</ele>
<time>2024-05-10T15:03:43Z</time>
</trkpt>
<trkpt lat="49.491245253011584" lon="9.109312053769829">
<ele>367</ele>
<time>2024-05-10T15:03:46Z</time>
</trkpt>
<trkpt lat="49.49124902486801" lon="9.109312053769829">
<ele>367</ele>
<time>2024-05-10T15:03:55Z</time>
</trkpt>
<trkpt lat="49.49124902486801" lon="9.109312975779176">
<ele>367</ele>
<time>2024-05-10T15:03:56Z</time>
</trkpt>
<trkpt lat="49.49124902486801" lon="9.109314903616903">
<ele>367</ele>
<time>2024-05-10T15:04:16Z</time>
</trkpt>
<trkpt lat="49.491245253011584" lon="9.109316747635605">
<ele>367</ele>
<time>2024-05-10T15:04:21Z</time>
</trkpt>
<trkpt lat="49.491245253011584" lon="9.109318675473332">
<ele>367</ele>
<time>2024-05-10T15:04:26Z</time>
</trkpt>
<trkpt lat="49.491241397336125" lon="9.109318675473332">
<ele>367</ele>
<time>2024-05-10T15:04:34Z</time>
</trkpt>
<trkpt lat="49.491241397336125" lon="9.109319681301711">
<ele>367</ele>
<time>2024-05-10T15:04:41Z</time>
</trkpt>
<trkpt lat="49.491241397336125" lon="9.10932152532041">
<ele>367</ele>
<time>2024-05-10T15:04:49Z</time>
</trkpt>
<trkpt lat="49.4912376254797" lon="9.10932152532041">
<ele>367</ele>
<time>2024-05-10T15:04:55Z</time>
</trkpt>
<trkpt lat="49.4912376254797" lon="9.109319681301711">
<ele>367</ele>
<time>2024-05-10T15:05:08Z</time>
</trkpt>
<trkpt lat="49.4912376254797" lon="9.109316747635605">
<ele>367</ele>
<time>2024-05-10T15:05:12Z</time>
</trkpt>
<trkpt lat="49.4912376254797" lon="9.109312053769829">
<ele>367</ele>
<time>2024-05-10T15:05:13Z</time>
</trkpt>
<trkpt lat="49.491241397336125" lon="9.109310125932096">
<ele>367</ele>
<time>2024-05-10T15:05:14Z</time>
</trkpt>
<trkpt lat="49.491241397336125" lon="9.109308198094368">
<ele>367</ele>
<time>2024-05-10T15:05:15Z</time>
</trkpt>
<trkpt lat="49.491241397336125" lon="9.10930149257183">
<ele>367</ele>
<time>2024-05-10T15:05:16Z</time>
</trkpt>
<trkpt lat="49.491245253011584" lon="9.109296798706056">
<ele>367</ele>
<time>2024-05-10T15:05:17Z</time>
</trkpt>
<trkpt lat="49.49124902486801" lon="9.109292943030596">
<ele>367</ele>
<time>2024-05-10T15:05:18Z</time>
</trkpt>
<trkpt lat="49.49125288054347" lon="9.109288165345788">
<ele>367</ele>
<time>2024-05-10T15:05:19Z</time>
</trkpt>
<trkpt lat="49.4912566523999" lon="9.109292021021249">
<ele>367</ele>
<time>2024-05-10T15:05:20Z</time>
</trkpt>
<trkpt lat="49.49126050807536" lon="9.109294870868323">
<ele>367</ele>
<time>2024-05-10T15:05:21Z</time>
</trkpt>
<trkpt lat="49.491264279931784" lon="9.109296798706056">
<ele>367</ele>
<time>2024-05-10T15:05:22Z</time>
</trkpt>
<trkpt lat="49.49126813560724" lon="9.109298642724752">
<ele>367</ele>
<time>2024-05-10T15:05:23Z</time>
</trkpt>
<trkpt lat="49.49126813560724" lon="9.109299648553131">
<ele>367</ele>
<time>2024-05-10T15:05:24Z</time>
</trkpt>
<trkpt lat="49.49126813560724" lon="9.10930149257183">
<ele>367</ele>
<time>2024-05-10T15:05:25Z</time>
</trkpt>
<trkpt lat="49.49126813560724" lon="9.10930342040956">
<ele>367</ele>
<time>2024-05-10T15:05:26Z</time>
</trkpt>
<trkpt lat="49.49126813560724" lon="9.10930534824729">
<ele>367</ele>
<time>2024-05-10T15:05:28Z</time>
</trkpt>
<trkpt lat="49.49126813560724" lon="9.10930627025664">
<ele>367</ele>
<time>2024-05-10T15:05:31Z</time>
</trkpt>
<trkpt lat="49.49126813560724" lon="9.109308198094368">
<ele>367</ele>
<time>2024-05-10T15:05:33Z</time>
</trkpt>
<trkpt lat="49.49126813560724" lon="9.10930627025664">
<ele>367</ele>
<time>2024-05-10T15:05:35Z</time>
</trkpt>
<trkpt lat="49.491264279931784" lon="9.109308198094368">
<ele>367</ele>
<time>2024-05-10T15:05:37Z</time>
</trkpt>
<trkpt lat="49.491264279931784" lon="9.10930627025664">
<ele>367</ele>
<time>2024-05-10T15:05:40Z</time>
</trkpt>
<trkpt lat="49.491264279931784" lon="9.109308198094368">
<ele>367</ele>
<time>2024-05-10T15:05:41Z</time>
</trkpt>
<trkpt lat="49.491264279931784" lon="9.10930627025664">
<ele>367</ele>
<time>2024-05-10T15:05:46Z</time>
</trkpt>
<trkpt lat="49.491264279931784" lon="9.10930534824729">
<ele>367</ele>
<time>2024-05-10T15:05:47Z</time>
</trkpt>
<trkpt lat="49.49126050807536" lon="9.10930627025664">
<ele>367</ele>
<time>2024-05-10T15:05:48Z</time>
</trkpt>
<trkpt lat="49.491264279931784" lon="9.10930534824729">
<ele>367</ele>
<time>2024-05-10T15:05:50Z</time>
</trkpt>
<trkpt lat="49.49126050807536" lon="9.10930534824729">
<ele>367</ele>
<time>2024-05-10T15:05:53Z</time>
</trkpt>
<trkpt lat="49.491264279931784" lon="9.10930534824729">
<ele>367</ele>
<time>2024-05-10T15:05:54Z</time>
</trkpt>
<trkpt lat="49.49126050807536" lon="9.10930534824729">
<ele>367</ele>
<time>2024-05-10T15:05:55Z</time>
</trkpt>
<trkpt lat="49.491264279931784" lon="9.10930534824729">
<ele>367</ele>
<time>2024-05-10T15:05:57Z</time>
</trkpt>
<trkpt lat="49.491264279931784" lon="9.10930342040956">
<ele>367</ele>
<time>2024-05-10T15:05:59Z</time>
</trkpt>
<trkpt lat="49.491264279931784" lon="9.10930149257183">
<ele>367</ele>
<time>2024-05-10T15:06:01Z</time>
</trkpt>
<trkpt lat="49.49126050807536" lon="9.10930149257183">
<ele>367</ele>
<time>2024-05-10T15:06:03Z</time>
</trkpt>
<trkpt lat="49.49126050807536" lon="9.109299648553131">
<ele>367</ele>
<time>2024-05-10T15:06:08Z</time>
</trkpt>
<trkpt lat="49.49126050807536" lon="9.10930149257183">
<ele>367</ele>
<time>2024-05-10T15:06:11Z</time>
</trkpt>
<trkpt lat="49.49126050807536" lon="9.109299648553131">
<ele>367</ele>
<time>2024-05-10T15:06:12Z</time>
</trkpt>
<trkpt lat="49.49126050807536" lon="9.109298642724752">
<ele>367</ele>
<time>2024-05-10T15:06:13Z</time>
</trkpt>
<trkpt lat="49.49126050807536" lon="9.109299648553131">
<ele>367</ele>
<time>2024-05-10T15:06:14Z</time>
</trkpt>
<trkpt lat="49.49126050807536" lon="9.109298642724752">
<ele>367</ele>
<time>2024-05-10T15:06:20Z</time>
</trkpt>
<trkpt lat="49.49126050807536" lon="9.109299648553131">
<ele>367</ele>
<time>2024-05-10T15:06:22Z</time>
</trkpt>
<trkpt lat="49.491264279931784" lon="9.109299648553131">
<ele>367</ele>
<time>2024-05-10T15:06:23Z</time>
</trkpt>
<trkpt lat="49.491264279931784" lon="9.10930149257183">
<ele>367</ele>
<time>2024-05-10T15:06:27Z</time>
</trkpt>
<trkpt lat="49.491264279931784" lon="9.10930342040956">
<ele>367</ele>
<time>2024-05-10T15:06:30Z</time>
</trkpt>
<trkpt lat="49.49126813560724" lon="9.10930342040956">
<ele>367</ele>
<time>2024-05-10T15:06:38Z</time>
</trkpt>
<trkpt lat="49.49126813560724" lon="9.10930149257183">
<ele>367</ele>
<time>2024-05-10T15:06:39Z</time>
</trkpt>
<trkpt lat="49.49126813560724" lon="9.109299648553131">
<ele>367</ele>
<time>2024-05-10T15:06:46Z</time>
</trkpt>
<trkpt lat="49.49126813560724" lon="9.10930149257183">
<ele>367</ele>
<time>2024-05-10T15:06:51Z</time>
</trkpt>
<trkpt lat="49.49126813560724" lon="9.10930342040956">
<ele>367</ele>
<time>2024-05-10T15:06:54Z</time>
</trkpt>
<trkpt lat="49.49126813560724" lon="9.10930534824729">
<ele>367</ele>
<time>2024-05-10T15:06:58Z</time>
</trkpt>
<trkpt lat="49.49127190746367" lon="9.10930627025664">
<ele>367</ele>
<time>2024-05-10T15:07:03Z</time>
</trkpt>
<trkpt lat="49.49127190746367" lon="9.10930534824729">
<ele>367</ele>
<time>2024-05-10T15:07:06Z</time>
</trkpt>
<trkpt lat="49.49127190746367" lon="9.10930627025664">
<ele>367</ele>
<time>2024-05-10T15:07:12Z</time>
</trkpt>
<trkpt lat="49.49127190746367" lon="9.109308198094368">
<ele>367</ele>
<time>2024-05-10T15:07:16Z</time>
</trkpt>
<trkpt lat="49.49127190746367" lon="9.10930627025664">
<ele>367</ele>
<time>2024-05-10T15:07:21Z</time>
</trkpt>
<trkpt lat="49.49127190746367" lon="9.109308198094368">
<ele>367</ele>
<time>2024-05-10T15:07:23Z</time>
</trkpt>
<trkpt lat="49.49127190746367" lon="9.109310125932096">
<ele>367</ele>
<time>2024-05-10T15:07:27Z</time>
</trkpt>
<trkpt lat="49.49126813560724" lon="9.109310125932096">
<ele>367</ele>
<time>2024-05-10T15:07:28Z</time>
</trkpt>
<trkpt lat="49.49126813560724" lon="9.109312053769829">
<ele>367</ele>
<time>2024-05-10T15:07:29Z</time>
</trkpt>
<trkpt lat="49.49126813560724" lon="9.109312975779176">
<ele>367</ele>
<time>2024-05-10T15:07:36Z</time>
</trkpt>
<trkpt lat="49.49126813560724" lon="9.109312053769829">
<ele>367</ele>
<time>2024-05-10T15:07:37Z</time>
</trkpt>
<trkpt lat="49.49126813560724" lon="9.109312975779176">
<ele>367</ele>
<time>2024-05-10T15:07:38Z</time>
</trkpt>
<trkpt lat="49.49126813560724" lon="9.109312053769829">
<ele>367</ele>
<time>2024-05-10T15:07:40Z</time>
</trkpt>
<trkpt lat="49.49126813560724" lon="9.109310125932096">
<ele>367</ele>
<time>2024-05-10T15:07:43Z</time>
</trkpt>
<trkpt lat="49.49126813560724" lon="9.109308198094368">
<ele>367</ele>
<time>2024-05-10T15:07:45Z</time>
</trkpt>
<trkpt lat="49.49126813560724" lon="9.109310125932096">
<ele>367</ele>
<time>2024-05-10T15:07:46Z</time>
</trkpt>
<trkpt lat="49.49126813560724" lon="9.109308198094368">
<ele>367</ele>
<time>2024-05-10T15:07:47Z</time>
</trkpt>
<trkpt lat="49.491264279931784" lon="9.109308198094368">
<ele>367</ele>
<time>2024-05-10T15:07:48Z</time>
</trkpt>
<trkpt lat="49.49126813560724" lon="9.109310125932096">
<ele>367</ele>
<time>2024-05-10T15:07:49Z</time>
</trkpt>
<trkpt lat="49.49126813560724" lon="9.109308198094368">
<ele>367</ele>
<time>2024-05-10T15:07:50Z</time>
</trkpt>
<trkpt lat="49.49126813560724" lon="9.109312053769829">
<ele>367</ele>
<time>2024-05-10T15:07:51Z</time>
</trkpt>
<trkpt lat="49.49126813560724" lon="9.109312975779176">
<ele>367</ele>
<time>2024-05-10T15:07:52Z</time>
</trkpt>
<trkpt lat="49.49126813560724" lon="9.109314903616903">
<ele>367</ele>
<time>2024-05-10T15:07:53Z</time>
</trkpt>
<trkpt lat="49.49126813560724" lon="9.109318675473332">
<ele>367</ele>
<time>2024-05-10T15:07:54Z</time>
</trkpt>
<trkpt lat="49.49126813560724" lon="9.109319681301711">
<ele>367</ele>
<time>2024-05-10T15:08:03Z</time>
</trkpt>
<trkpt lat="49.49126813560724" lon="9.109318675473332">
<ele>367</ele>
<time>2024-05-10T15:08:09Z</time>
</trkpt>
<trkpt lat="49.49127190746367" lon="9.109318675473332">
<ele>367</ele>
<time>2024-05-10T15:08:10Z</time>
</trkpt>
<trkpt lat="49.49127190746367" lon="9.109319681301711">
<ele>367</ele>
<time>2024-05-10T15:08:11Z</time>
</trkpt>
<trkpt lat="49.49127190746367" lon="9.10932152532041">
<ele>367</ele>
<time>2024-05-10T15:08:15Z</time>
</trkpt>
<trkpt lat="49.49127190746367" lon="9.109319681301711">
<ele>367</ele>
<time>2024-05-10T15:08:20Z</time>
</trkpt>
<trkpt lat="49.49127190746367" lon="9.109318675473332">
<ele>367</ele>
<time>2024-05-10T15:08:24Z</time>
</trkpt>
<trkpt lat="49.49126813560724" lon="9.109318675473332">
<ele>367</ele>
<time>2024-05-10T15:08:27Z</time>
</trkpt>
<trkpt lat="49.49127190746367" lon="9.109318675473332">
<ele>367</ele>
<time>2024-05-10T15:08:28Z</time>
</trkpt>
<trkpt lat="49.49127190746367" lon="9.109316747635605">
<ele>367</ele>
<time>2024-05-10T15:08:32Z</time>
</trkpt>
<trkpt lat="49.49126813560724" lon="9.109316747635605">
<ele>367</ele>
<time>2024-05-10T15:08:33Z</time>
</trkpt>
<trkpt lat="49.49127190746367" lon="9.109316747635605">
<ele>367</ele>
<time>2024-05-10T15:08:34Z</time>
</trkpt>
<trkpt lat="49.49127190746367" lon="9.109314903616903">
<ele>367</ele>
<time>2024-05-10T15:08:38Z</time>
</trkpt>
<trkpt lat="49.49127190746367" lon="9.109312975779176">
<ele>367</ele>
<time>2024-05-10T15:08:45Z</time>
</trkpt>
<trkpt lat="49.49127190746367" lon="9.109312053769829">
<ele>367</ele>
<time>2024-05-10T15:08:47Z</time>
</trkpt>
<trkpt lat="49.49127576313913" lon="9.109312053769829">
<ele>367</ele>
<time>2024-05-10T15:08:48Z</time>
</trkpt>
<trkpt lat="49.491283390671015" lon="9.109292943030596">
<ele>367</ele>
<time>2024-05-10T15:08:52Z</time>
</trkpt>
<trkpt lat="49.49129479005933" lon="9.109274838119743">
<ele>367</ele>
<time>2024-05-10T15:08:53Z</time>
</trkpt>
<trkpt lat="49.49130627326667" lon="9.109252877533436">
<ele>367</ele>
<time>2024-05-10T15:08:54Z</time>
</trkpt>
<trkpt lat="49.4913100451231" lon="9.109228067100048">
<ele>367</ele>
<time>2024-05-10T15:08:55Z</time>
</trkpt>
<trkpt lat="49.491321528330445" lon="9.10920325666666">
<ele>367</ele>
<time>2024-05-10T15:08:56Z</time>
</trkpt>
<trkpt lat="49.49132915586233" lon="9.109176602214577">
<ele>367</ele>
<time>2024-05-10T15:08:57Z</time>
</trkpt>
<trkpt lat="49.49132915586233" lon="9.109138464555144">
<ele>367</ele>
<time>2024-05-10T15:08:58Z</time>
</trkpt>
<trkpt lat="49.49133292771876" lon="9.109096471220257">
<ele>367</ele>
<time>2024-05-10T15:08:59Z</time>
</trkpt>
<trkpt lat="49.49133678339422" lon="9.109054561704395">
<ele>367</ele>
<time>2024-05-10T15:09:00Z</time>
</trkpt>
<trkpt lat="49.49133678339422" lon="9.109013490378857">
<ele>367</ele>
<time>2024-05-10T15:09:01Z</time>
</trkpt>
<trkpt lat="49.491344410926104" lon="9.108976358547809">
<ele>367</ele>
<time>2024-05-10T15:09:02Z</time>
</trkpt>
<trkpt lat="49.49135589413345" lon="9.108944842591882">
<ele>367</ele>
<time>2024-05-10T15:09:03Z</time>
</trkpt>
<trkpt lat="49.491363521665335" lon="9.10891148261726">
<ele>367</ele>
<time>2024-05-10T15:09:04Z</time>
</trkpt>
<trkpt lat="49.49137114919722" lon="9.108879966661334">
<ele>367</ele>
<time>2024-05-10T15:09:05Z</time>
</trkpt>
<trkpt lat="49.49137877672911" lon="9.108843756839631">
<ele>367</ele>
<time>2024-05-10T15:09:06Z</time>
</trkpt>
<trkpt lat="49.491382548585534" lon="9.108804697170854">
<ele>367</ele>
<time>2024-05-10T15:09:07Z</time>
</trkpt>
<trkpt lat="49.49139017611742" lon="9.1087712533772">
<ele>367</ele>
<time>2024-05-10T15:09:08Z</time>
</trkpt>
<trkpt lat="49.491401659324765" lon="9.108737893402576">
<ele>367</ele>
<time>2024-05-10T15:09:09Z</time>
</trkpt>
<trkpt lat="49.49141305871308" lon="9.108703611418605">
<ele>367</ele>
<time>2024-05-10T15:09:10Z</time>
</trkpt>
<trkpt lat="49.491420686244965" lon="9.108671173453333">
<ele>367</ele>
<time>2024-05-10T15:09:11Z</time>
</trkpt>
<trkpt lat="49.49142831377685" lon="9.108638735488055">
<ele>367</ele>
<time>2024-05-10T15:09:12Z</time>
</trkpt>
<trkpt lat="49.49143594130874" lon="9.108608225360513">
<ele>367</ele>
<time>2024-05-10T15:09:13Z</time>
</trkpt>
<trkpt lat="49.49143979698419" lon="9.108578637242315">
<ele>367</ele>
<time>2024-05-10T15:09:14Z</time>
</trkpt>
<trkpt lat="49.49145119637251" lon="9.108550054952502">
<ele>367</ele>
<time>2024-05-10T15:09:15Z</time>
</trkpt>
<trkpt lat="49.491458823904395" lon="9.108516611158848">
<ele>367</ele>
<time>2024-05-10T15:09:16Z</time>
</trkpt>
<trkpt lat="49.49146645143628" lon="9.108485179021956">
<ele>367</ele>
<time>2024-05-10T15:09:17Z</time>
</trkpt>
<trkpt lat="49.49147407896817" lon="9.10845374688506">
<ele>367</ele>
<time>2024-05-10T15:09:18Z</time>
</trkpt>
<trkpt lat="49.49148170650005" lon="9.108421308919787">
<ele>367</ele>
<time>2024-05-10T15:09:19Z</time>
</trkpt>
<trkpt lat="49.49148933403194" lon="9.108385015279056">
<ele>367</ele>
<time>2024-05-10T15:09:20Z</time>
</trkpt>
<trkpt lat="49.4914931897074" lon="9.108347883448005">
<ele>367</ele>
<time>2024-05-10T15:09:21Z</time>
</trkpt>
<trkpt lat="49.491496961563826" lon="9.108309745788574">
<ele>367</ele>
<time>2024-05-10T15:09:22Z</time>
</trkpt>
<trkpt lat="49.491500817239285" lon="9.10827822983265">
<ele>367</ele>
<time>2024-05-10T15:09:23Z</time>
</trkpt>
<trkpt lat="49.49150458909571" lon="9.108242942020295">
<ele>367</ele>
<time>2024-05-10T15:09:24Z</time>
</trkpt>
<trkpt lat="49.49150844477117" lon="9.108208576217294">
<ele>367</ele>
<time>2024-05-10T15:09:25Z</time>
</trkpt>
<trkpt lat="49.4915122166276" lon="9.108173288404942">
<ele>367</ele>
<time>2024-05-10T15:09:26Z</time>
</trkpt>
<trkpt lat="49.49151992797851" lon="9.10813808441162">
<ele>367</ele>
<time>2024-05-10T15:09:27Z</time>
</trkpt>
<trkpt lat="49.49152369983494" lon="9.108101790770888">
<ele>367</ele>
<time>2024-05-10T15:09:28Z</time>
</trkpt>
<trkpt lat="49.49153132736683" lon="9.108064575120808">
<ele>367</ele>
<time>2024-05-10T15:09:29Z</time>
</trkpt>
<trkpt lat="49.49153518304229" lon="9.108030293136837">
<ele>367.2</ele>
<time>2024-05-10T15:09:30Z</time>
</trkpt>
<trkpt lat="49.491542810574174" lon="9.107991149649024">
<ele>367.4</ele>
<time>2024-05-10T15:09:31Z</time>
</trkpt>
<trkpt lat="49.49155043810606" lon="9.107954939827325">
<ele>367.4</ele>
<time>2024-05-10T15:09:32Z</time>
</trkpt>
<trkpt lat="49.491558065637946" lon="9.10792350769043">
<ele>367.6</ele>
<time>2024-05-10T15:09:33Z</time>
</trkpt>
<trkpt lat="49.49156569316983" lon="9.107891991734505">
<ele>367.8</ele>
<time>2024-05-10T15:09:34Z</time>
</trkpt>
<trkpt lat="49.49157332070172" lon="9.107856703922153">
<ele>367.8</ele>
<time>2024-05-10T15:09:35Z</time>
</trkpt>
<trkpt lat="49.49157332070172" lon="9.10781948827207">
<ele>368</ele>
<time>2024-05-10T15:09:36Z</time>
</trkpt>
<trkpt lat="49.4915809482336" lon="9.10778135061264">
<ele>368.2</ele>
<time>2024-05-10T15:09:37Z</time>
</trkpt>
<trkpt lat="49.49158472009003" lon="9.107749918475749">
<ele>368.6</ele>
<time>2024-05-10T15:09:38Z</time>
</trkpt>
<trkpt lat="49.49158857576549" lon="9.107714630663397">
<ele>368.8</ele>
<time>2024-05-10T15:09:39Z</time>
</trkpt>
<trkpt lat="49.49158857576549" lon="9.107676493003964">
<ele>369</ele>
<time>2024-05-10T15:09:40Z</time>
</trkpt>
<trkpt lat="49.49158857576549" lon="9.107636427506804">
<ele>369.4</ele>
<time>2024-05-10T15:09:41Z</time>
</trkpt>
<trkpt lat="49.49158857576549" lon="9.107600133866072">
<ele>369.6</ele>
<time>2024-05-10T15:09:42Z</time>
</trkpt>
<trkpt lat="49.49159234762192" lon="9.10756199620664">
<ele>369.8</ele>
<time>2024-05-10T15:09:43Z</time>
</trkpt>
<trkpt lat="49.49159234762192" lon="9.107522936537862">
<ele>370</ele>
<time>2024-05-10T15:09:44Z</time>
</trkpt>
<trkpt lat="49.49158857576549" lon="9.107482871040702">
<ele>370.2</ele>
<time>2024-05-10T15:09:45Z</time>
</trkpt>
<trkpt lat="49.49159234762192" lon="9.107442805543542">
<ele>370.4</ele>
<time>2024-05-10T15:09:46Z</time>
</trkpt>
<trkpt lat="49.49159234762192" lon="9.107404667884111">
<ele>370.6</ele>
<time>2024-05-10T15:09:47Z</time>
</trkpt>
<trkpt lat="49.49159234762192" lon="9.107363680377604">
<ele>370.8</ele>
<time>2024-05-10T15:09:48Z</time>
</trkpt>
<trkpt lat="49.49158857576549" lon="9.107324536889791">
<ele>371</ele>
<time>2024-05-10T15:09:49Z</time>
</trkpt>
<trkpt lat="49.49158472009003" lon="9.107284471392632">
<ele>371.2</ele>
<time>2024-05-10T15:09:50Z</time>
</trkpt>
<trkpt lat="49.4915809482336" lon="9.107245411723852">
<ele>371.6</ele>
<time>2024-05-10T15:09:51Z</time>
</trkpt>
<trkpt lat="49.49157332070172" lon="9.107203418388965">
<ele>371.8</ele>
<time>2024-05-10T15:09:52Z</time>
</trkpt>
<trkpt lat="49.49156569316983" lon="9.107161508873103">
<ele>372</ele>
<time>2024-05-10T15:09:53Z</time>
</trkpt>
<trkpt lat="49.49156183749437" lon="9.107118593528869">
<ele>372</ele>
<time>2024-05-10T15:09:54Z</time>
</trkpt>
<trkpt lat="49.491558065637946" lon="9.10707182250917">
<ele>372.2</ele>
<time>2024-05-10T15:09:55Z</time>
</trkpt>
<trkpt lat="49.491558065637946" lon="9.107023207470776">
<ele>372.4</ele>
<time>2024-05-10T15:09:56Z</time>
</trkpt>
<trkpt lat="49.49155420996249" lon="9.10697459243238">
<ele>372.6</ele>
<time>2024-05-10T15:09:57Z</time>
</trkpt>
<trkpt lat="49.49155043810606" lon="9.106926899403334">
<ele>372.6</ele>
<time>2024-05-10T15:09:58Z</time>
</trkpt>
<trkpt lat="49.49155043810606" lon="9.106878200545909">
<ele>372.6</ele>
<time>2024-05-10T15:09:59Z</time>
</trkpt>
<trkpt lat="49.4915465824306" lon="9.106828663498163">
<ele>372.6</ele>
<time>2024-05-10T15:10:00Z</time>
</trkpt>
<trkpt lat="49.491542810574174" lon="9.10677527077496">
<ele>372.8</ele>
<time>2024-05-10T15:10:01Z</time>
</trkpt>
<trkpt lat="49.491538954898715" lon="9.106721878051758">
<ele>373</ele>
<time>2024-05-10T15:10:02Z</time>
</trkpt>
<trkpt lat="49.491538954898715" lon="9.106666557490826">
<ele>373.2</ele>
<time>2024-05-10T15:10:03Z</time>
</trkpt>
<trkpt lat="49.491538954898715" lon="9.106608387082815">
<ele>373.4</ele>
<time>2024-05-10T15:10:04Z</time>
</trkpt>
<trkpt lat="49.491538954898715" lon="9.106550216674805">
<ele>373.6</ele>
<time>2024-05-10T15:10:05Z</time>
</trkpt>
<trkpt lat="49.49153518304229" lon="9.106490118429065">
<ele>373.8</ele>
<time>2024-05-10T15:10:06Z</time>
</trkpt>
<trkpt lat="49.49153518304229" lon="9.106426164507866">
<ele>374</ele>
<time>2024-05-10T15:10:07Z</time>
</trkpt>
<trkpt lat="49.49153518304229" lon="9.106367072090508">
<ele>374.2</ele>
<time>2024-05-10T15:10:08Z</time>
</trkpt>
<trkpt lat="49.49153518304229" lon="9.10630320198834">
<ele>374.4</ele>
<time>2024-05-10T15:10:09Z</time>
</trkpt>
<trkpt lat="49.49153132736683" lon="9.10624025389552">
<ele>374.6</ele>
<time>2024-05-10T15:10:10Z</time>
</trkpt>
<trkpt lat="49.49153132736683" lon="9.106178227812052">
<ele>375</ele>
<time>2024-05-10T15:10:11Z</time>
</trkpt>
<trkpt lat="49.4915275555104" lon="9.106118129566312">
<ele>375.2</ele>
<time>2024-05-10T15:10:12Z</time>
</trkpt>
<trkpt lat="49.49152369983494" lon="9.106058115139604">
<ele>375.6</ele>
<time>2024-05-10T15:10:13Z</time>
</trkpt>
<trkpt lat="49.49151992797851" lon="9.105998016893864">
<ele>375.8</ele>
<time>2024-05-10T15:10:14Z</time>
</trkpt>
<trkpt lat="49.49151607230306" lon="9.105939846485851">
<ele>376.2</ele>
<time>2024-05-10T15:10:15Z</time>
</trkpt>
<trkpt lat="49.4915122166276" lon="9.105877820402384">
<ele>376.4</ele>
<time>2024-05-10T15:10:16Z</time>
</trkpt>
<trkpt lat="49.4915122166276" lon="9.105816800147297">
<ele>376.6</ele>
<time>2024-05-10T15:10:17Z</time>
</trkpt>
<trkpt lat="49.49150844477117" lon="9.105751924216747">
<ele>376.8</ele>
<time>2024-05-10T15:10:18Z</time>
</trkpt>
<trkpt lat="49.49150844477117" lon="9.10568998195231">
<ele>377</ele>
<time>2024-05-10T15:10:19Z</time>
</trkpt>
<trkpt lat="49.49150844477117" lon="9.10562795586884">
<ele>377</ele>
<time>2024-05-10T15:10:20Z</time>
</trkpt>
<trkpt lat="49.49151607230306" lon="9.1055678576231">
<ele>377.2</ele>
<time>2024-05-10T15:10:21Z</time>
</trkpt>
<trkpt lat="49.49151992797851" lon="9.10550876520574">
<ele>377.4</ele>
<time>2024-05-10T15:10:22Z</time>
</trkpt>
<trkpt lat="49.49151607230306" lon="9.105444895103574">
<ele>377.6</ele>
<time>2024-05-10T15:10:23Z</time>
</trkpt>
<trkpt lat="49.49151607230306" lon="9.105384796857834">
<ele>377.8</ele>
<time>2024-05-10T15:10:24Z</time>
</trkpt>
<trkpt lat="49.49151607230306" lon="9.105324698612094">
<ele>377.8</ele>
<time>2024-05-10T15:10:25Z</time>
</trkpt>
<trkpt lat="49.49151992797851" lon="9.105266528204083">
<ele>378</ele>
<time>2024-05-10T15:10:26Z</time>
</trkpt>
<trkpt lat="49.49151992797851" lon="9.105204502120614">
<ele>378.2</ele>
<time>2024-05-10T15:10:27Z</time>
</trkpt>
<trkpt lat="49.49152369983494" lon="9.105146331712604">
<ele>378.4</ele>
<time>2024-05-10T15:10:28Z</time>
</trkpt>
<trkpt lat="49.49152369983494" lon="9.105090089142324">
<ele>378.6</ele>
<time>2024-05-10T15:10:29Z</time>
</trkpt>
<trkpt lat="49.49153132736683" lon="9.105031918734312">
<ele>378.8</ele>
<time>2024-05-10T15:10:30Z</time>
</trkpt>
<trkpt lat="49.49153132736683" lon="9.10497467033565">
<ele>379</ele>
<time>2024-05-10T15:10:31Z</time>
</trkpt>
<trkpt lat="49.49152369983494" lon="9.104914655908942">
<ele>379.2</ele>
<time>2024-05-10T15:10:32Z</time>
</trkpt>
<trkpt lat="49.49151992797851" lon="9.104856485500932">
<ele>379.2</ele>
<time>2024-05-10T15:10:33Z</time>
</trkpt>
<trkpt lat="49.49152369983494" lon="9.10480015911162">
<ele>379.4</ele>
<time>2024-05-10T15:10:34Z</time>
</trkpt>
<trkpt lat="49.4915275555104" lon="9.104744838550689">
<ele>379.4</ele>
<time>2024-05-10T15:10:35Z</time>
</trkpt>
<trkpt lat="49.49153132736683" lon="9.104688595980406">
<ele>379.6</ele>
<time>2024-05-10T15:10:36Z</time>
</trkpt>
<trkpt lat="49.49153518304229" lon="9.104633275419474">
<ele>379.6</ele>
<time>2024-05-10T15:10:37Z</time>
</trkpt>
<trkpt lat="49.49153518304229" lon="9.104577032849193">
<ele>379.8</ele>
<time>2024-05-10T15:10:38Z</time>
</trkpt>
<trkpt lat="49.491542810574174" lon="9.10452456213534">
<ele>379.6</ele>
<time>2024-05-10T15:10:39Z</time>
</trkpt>
<trkpt lat="49.49155043810606" lon="9.104468319565058">
<ele>379.6</ele>
<time>2024-05-10T15:10:40Z</time>
</trkpt>
<trkpt lat="49.491558065637946" lon="9.104410149157047">
<ele>379.6</ele>
<time>2024-05-10T15:10:41Z</time>
</trkpt>
<trkpt lat="49.49156569316983" lon="9.104351978749037">
<ele>379.6</ele>
<time>2024-05-10T15:10:42Z</time>
</trkpt>
<trkpt lat="49.49157332070172" lon="9.104288024827838">
<ele>379.6</ele>
<time>2024-05-10T15:10:43Z</time>
</trkpt>
<trkpt lat="49.491577092558146" lon="9.104223232716322">
<ele>379.6</ele>
<time>2024-05-10T15:10:44Z</time>
</trkpt>
<trkpt lat="49.49158472009003" lon="9.104163134470582">
<ele>379.4</ele>
<time>2024-05-10T15:10:45Z</time>
</trkpt>
<trkpt lat="49.49159234762192" lon="9.104100186377764">
<ele>379.4</ele>
<time>2024-05-10T15:10:46Z</time>
</trkpt>
<trkpt lat="49.49159997515381" lon="9.104038160294294">
<ele>379.4</ele>
<time>2024-05-10T15:10:47Z</time>
</trkpt>
<trkpt lat="49.49161145836115" lon="9.103978145867586">
<ele>379.4</ele>
<time>2024-05-10T15:10:48Z</time>
</trkpt>
<trkpt lat="49.491619085893035" lon="9.103921819478272">
<ele>379.4</ele>
<time>2024-05-10T15:10:49Z</time>
</trkpt>
<trkpt lat="49.49163048528135" lon="9.103863649070265">
<ele>379.4</ele>
<time>2024-05-10T15:10:50Z</time>
</trkpt>
<trkpt lat="49.49164196848869" lon="9.10380832850933">
<ele>379.4</ele>
<time>2024-05-10T15:10:51Z</time>
</trkpt>
<trkpt lat="49.491657223552465" lon="9.10375208593905">
<ele>379.4</ele>
<time>2024-05-10T15:10:52Z</time>
</trkpt>
<trkpt lat="49.49167247861624" lon="9.103698693215849">
<ele>379.4</ele>
<time>2024-05-10T15:10:53Z</time>
</trkpt>
<trkpt lat="49.49168773368001" lon="9.103643372654917">
<ele>379.4</ele>
<time>2024-05-10T15:10:54Z</time>
</trkpt>
<trkpt lat="49.49170298874378" lon="9.103585202246904">
<ele>379.4</ele>
<time>2024-05-10T15:10:55Z</time>
</trkpt>
<trkpt lat="49.49171447195113" lon="9.103527953848245">
<ele>379.4</ele>
<time>2024-05-10T15:10:56Z</time>
</trkpt>
<trkpt lat="49.4917297270149" lon="9.103471711277962">
<ele>379.4</ele>
<time>2024-05-10T15:10:57Z</time>
</trkpt>
<trkpt lat="49.49174498207867" lon="9.1034144628793">
<ele>379.4</ele>
<time>2024-05-10T15:10:58Z</time>
</trkpt>
<trkpt lat="49.49176400899887" lon="9.10335822030902">
<ele>379.4</ele>
<time>2024-05-10T15:10:59Z</time>
</trkpt>
<trkpt lat="49.4917831197381" lon="9.103302899748089">
<ele>379.6</ele>
<time>2024-05-10T15:11:00Z</time>
</trkpt>
<trkpt lat="49.491798374801874" lon="9.103248585015535">
<ele>379.6</ele>
<time>2024-05-10T15:11:01Z</time>
</trkpt>
<trkpt lat="49.49182125739753" lon="9.103193264454603">
<ele>379.8</ele>
<time>2024-05-10T15:11:02Z</time>
</trkpt>
<trkpt lat="49.49184413999319" lon="9.103141715750098">
<ele>379.8</ele>
<time>2024-05-10T15:11:03Z</time>
</trkpt>
<trkpt lat="49.49187087826431" lon="9.103093100711703">
<ele>380</ele>
<time>2024-05-10T15:11:04Z</time>
</trkpt>
<trkpt lat="49.491893760859966" lon="9.1030397079885">
<ele>380</ele>
<time>2024-05-10T15:11:05Z</time>
</trkpt>
<trkpt lat="49.491912787780166" lon="9.102988243103027">
<ele>380</ele>
<time>2024-05-10T15:11:06Z</time>
</trkpt>
<trkpt lat="49.4919318985194" lon="9.102936694398522">
<ele>380.2</ele>
<time>2024-05-10T15:11:07Z</time>
</trkpt>
<trkpt lat="49.4919509254396" lon="9.102886151522398">
<ele>380.2</ele>
<time>2024-05-10T15:11:08Z</time>
</trkpt>
<trkpt lat="49.49197003617883" lon="9.102831836789846">
<ele>380.2</ele>
<time>2024-05-10T15:11:09Z</time>
</trkpt>
<trkpt lat="49.49199669063091" lon="9.102781293913722">
<ele>380.2</ele>
<time>2024-05-10T15:11:10Z</time>
</trkpt>
<trkpt lat="49.49201957322657" lon="9.102727817371488">
<ele>380.2</ele>
<time>2024-05-10T15:11:11Z</time>
</trkpt>
<trkpt lat="49.49204253964126" lon="9.102678280323744">
<ele>380.2</ele>
<time>2024-05-10T15:11:12Z</time>
</trkpt>
<trkpt lat="49.49206156656146" lon="9.102628659456968">
<ele>380.2</ele>
<time>2024-05-10T15:11:13Z</time>
</trkpt>
<trkpt lat="49.49207682162523" lon="9.102580044418572">
<ele>380.2</ele>
<time>2024-05-10T15:11:14Z</time>
</trkpt>
<trkpt lat="49.49209970422089" lon="9.102533273398876">
<ele>380.4</ele>
<time>2024-05-10T15:11:15Z</time>
</trkpt>
<trkpt lat="49.49212258681655" lon="9.102490358054638">
<ele>380.6</ele>
<time>2024-05-10T15:11:16Z</time>
</trkpt>
<trkpt lat="49.492153096944094" lon="9.10245129838586">
<ele>380.8</ele>
<time>2024-05-10T15:11:17Z</time>
</trkpt>
<trkpt lat="49.49217597953975" lon="9.102413160726428">
<ele>380.8</ele>
<time>2024-05-10T15:11:18Z</time>
</trkpt>
<trkpt lat="49.4921874627471" lon="9.102377872914076">
<ele>381</ele>
<time>2024-05-10T15:11:19Z</time>
</trkpt>
<trkpt lat="49.49219886213541" lon="9.102339735254644">
<ele>381.2</ele>
<time>2024-05-10T15:11:20Z</time>
</trkpt>
<trkpt lat="49.492214201018214" lon="9.102305369451642">
<ele>381.2</ele>
<time>2024-05-10T15:11:21Z</time>
</trkpt>
<trkpt lat="49.492229456081986" lon="9.102276787161829">
<ele>381.4</ele>
<time>2024-05-10T15:11:22Z</time>
</trkpt>
<trkpt lat="49.4922408554703" lon="9.102245271205902">
<ele>381.6</ele>
<time>2024-05-10T15:11:23Z</time>
</trkpt>
<trkpt lat="49.49225611053407" lon="9.10220998339355">
<ele>381.6</ele>
<time>2024-05-10T15:11:24Z</time>
</trkpt>
<trkpt lat="49.49227136559784" lon="9.10216991789639">
<ele>381.8</ele>
<time>2024-05-10T15:11:25Z</time>
</trkpt>
<trkpt lat="49.492290476337075" lon="9.102136557921767">
<ele>381.8</ele>
<time>2024-05-10T15:11:26Z</time>
</trkpt>
<trkpt lat="49.492309503257275" lon="9.102096492424607">
<ele>381.8</ele>
<time>2024-05-10T15:11:27Z</time>
</trkpt>
<trkpt lat="49.49233238585293" lon="9.102061204612257">
<ele>382</ele>
<time>2024-05-10T15:11:28Z</time>
</trkpt>
<trkpt lat="49.49235912412405" lon="9.102031700313091">
<ele>382</ele>
<time>2024-05-10T15:11:29Z</time>
</trkpt>
<trkpt lat="49.49238200671971" lon="9.101991634815931">
<ele>382.2</ele>
<time>2024-05-10T15:11:30Z</time>
</trkpt>
<trkpt lat="49.492408744990826" lon="9.1019553411752">
<ele>382.4</ele>
<time>2024-05-10T15:11:31Z</time>
</trkpt>
<trkpt lat="49.492427771911025" lon="9.101921981200576">
<ele>382.6</ele>
<time>2024-05-10T15:11:32Z</time>
</trkpt>
<trkpt lat="49.49245828203857" lon="9.101888621225951">
<ele>382.8</ele>
<time>2024-05-10T15:11:33Z</time>
</trkpt>
<trkpt lat="49.49248116463423" lon="9.101858111098409">
<ele>383</ele>
<time>2024-05-10T15:11:34Z</time>
</trkpt>
<trkpt lat="49.492507902905345" lon="9.101823745295404">
<ele>383.2</ele>
<time>2024-05-10T15:11:35Z</time>
</trkpt>
<trkpt lat="49.49253455735743" lon="9.101784685626626">
<ele>383.4</ele>
<time>2024-05-10T15:11:36Z</time>
</trkpt>
<trkpt lat="49.49255752377212" lon="9.10173699259758">
<ele>383.6</ele>
<time>2024-05-10T15:11:37Z</time>
</trkpt>
<trkpt lat="49.49258040636778" lon="9.101690221577885">
<ele>383.8</ele>
<time>2024-05-10T15:11:38Z</time>
</trkpt>
<trkpt lat="49.49260328896344" lon="9.101650156080725">
<ele>384</ele>
<time>2024-05-10T15:11:39Z</time>
</trkpt>
<trkpt lat="49.49262994341552" lon="9.1016167961061">
<ele>384.2</ele>
<time>2024-05-10T15:11:40Z</time>
</trkpt>
<trkpt lat="49.49265668168664" lon="9.10157966427505">
<ele>384.4</ele>
<time>2024-05-10T15:11:41Z</time>
</trkpt>
<trkpt lat="49.492683336138725" lon="9.101548148319123">
<ele>384.6</ele>
<time>2024-05-10T15:11:42Z</time>
</trkpt>
<trkpt lat="49.49271007440984" lon="9.101511938497424">
<ele>384.8</ele>
<time>2024-05-10T15:11:43Z</time>
</trkpt>
<trkpt lat="49.492729185149074" lon="9.101471873000264">
<ele>385</ele>
<time>2024-05-10T15:11:44Z</time>
</trkpt>
<trkpt lat="49.49274821206927" lon="9.10143851302564">
<ele>385.2</ele>
<time>2024-05-10T15:11:45Z</time>
</trkpt>
<trkpt lat="49.49277495034039" lon="9.101406997069716">
<ele>385.4</ele>
<time>2024-05-10T15:11:46Z</time>
</trkpt>
<trkpt lat="49.492805460467935" lon="9.101376486942172">
<ele>385.6</ele>
<time>2024-05-10T15:11:47Z</time>
</trkpt>
<trkpt lat="49.49282834306359" lon="9.10134312696755">
<ele>385.8</ele>
<time>2024-05-10T15:11:48Z</time>
</trkpt>
<trkpt lat="49.49285499751568" lon="9.101316388696432">
<ele>385.8</ele>
<time>2024-05-10T15:11:49Z</time>
</trkpt>
<trkpt lat="49.49287788011134" lon="9.101286884397268">
<ele>386</ele>
<time>2024-05-10T15:11:50Z</time>
</trkpt>
<trkpt lat="49.49289699085057" lon="9.101268695667386">
<ele>386.4</ele>
<time>2024-05-10T15:11:51Z</time>
</trkpt>
<trkpt lat="49.492919873446226" lon="9.101236341521144">
<ele>386.6</ele>
<time>2024-05-10T15:11:52Z</time>
</trkpt>
<trkpt lat="49.49294275604189" lon="9.101213375106454">
<ele>386.8</ele>
<time>2024-05-10T15:11:53Z</time>
</trkpt>
<trkpt lat="49.492969494313" lon="9.101189570501449">
<ele>387</ele>
<time>2024-05-10T15:11:54Z</time>
</trkpt>
<trkpt lat="49.492984749376774" lon="9.101159982383251">
<ele>387.2</ele>
<time>2024-05-10T15:11:55Z</time>
</trkpt>
<trkpt lat="49.49300763197243" lon="9.101131400093436">
<ele>387.4</ele>
<time>2024-05-10T15:11:56Z</time>
</trkpt>
<trkpt lat="49.49303428642452" lon="9.101108517497778">
<ele>387.6</ele>
<time>2024-05-10T15:11:57Z</time>
</trkpt>
<trkpt lat="49.493061024695635" lon="9.101077001541851">
<ele>387.8</ele>
<time>2024-05-10T15:11:58Z</time>
</trkpt>
<trkpt lat="49.49308776296675" lon="9.101048419252038">
<ele>388</ele>
<time>2024-05-10T15:11:59Z</time>
</trkpt>
<trkpt lat="49.49310678988695" lon="9.101015059277415">
<ele>388.2</ele>
<time>2024-05-10T15:12:00Z</time>
</trkpt>
<trkpt lat="49.49312967248261" lon="9.10098354332149">
<ele>388.6</ele>
<time>2024-05-10T15:12:01Z</time>
</trkpt>
<trkpt lat="49.49315255507827" lon="9.100954961031675">
<ele>388.8</ele>
<time>2024-05-10T15:12:02Z</time>
</trkpt>
<trkpt lat="49.4931716658175" lon="9.100916823372245">
<ele>389</ele>
<time>2024-05-10T15:12:03Z</time>
</trkpt>
<trkpt lat="49.49319454841316" lon="9.100890085101128">
<ele>389.2</ele>
<time>2024-05-10T15:12:04Z</time>
</trkpt>
<trkpt lat="49.493217431008816" lon="9.100865358486772">
<ele>389.4</ele>
<time>2024-05-10T15:12:05Z</time>
</trkpt>
<trkpt lat="49.49324416927993" lon="9.100845325738192">
<ele>389.6</ele>
<time>2024-05-10T15:12:06Z</time>
</trkpt>
<trkpt lat="49.49326705187559" lon="9.100823365151882">
<ele>389.8</ele>
<time>2024-05-10T15:12:07Z</time>
</trkpt>
<trkpt lat="49.49329370632768" lon="9.100799560546877">
<ele>389.8</ele>
<time>2024-05-10T15:12:08Z</time>
</trkpt>
<trkpt lat="49.49332421645522" lon="9.100776594132183">
<ele>390</ele>
<time>2024-05-10T15:12:09Z</time>
</trkpt>
<trkpt lat="49.49334709905088" lon="9.10074708983302">
<ele>390.2</ele>
<time>2024-05-10T15:12:10Z</time>
</trkpt>
<trkpt lat="49.49336235411465" lon="9.100716579705477">
<ele>390.4</ele>
<time>2024-05-10T15:12:11Z</time>
</trkpt>
<trkpt lat="49.49338146485388" lon="9.100694619119167">
<ele>390.4</ele>
<time>2024-05-10T15:12:12Z</time>
</trkpt>
<trkpt lat="49.49340049177408" lon="9.10066788084805">
<ele>390.6</ele>
<time>2024-05-10T15:12:13Z</time>
</trkpt>
<trkpt lat="49.49342345818877" lon="9.100638376548886">
<ele>390.8</ele>
<time>2024-05-10T15:12:14Z</time>
</trkpt>
<trkpt lat="49.49344634078443" lon="9.100611638277767">
<ele>390.8</ele>
<time>2024-05-10T15:12:15Z</time>
</trkpt>
<trkpt lat="49.49346922338009" lon="9.10059353336692">
<ele>391</ele>
<time>2024-05-10T15:12:16Z</time>
</trkpt>
<trkpt lat="49.49349210597575" lon="9.1005667950958">
<ele>391</ele>
<time>2024-05-10T15:12:17Z</time>
</trkpt>
<trkpt lat="49.49351876042783" lon="9.100540140643716">
<ele>391.2</ele>
<time>2024-05-10T15:12:18Z</time>
</trkpt>
<trkpt lat="49.49354164302349" lon="9.100524885579944">
<ele>391.2</ele>
<time>2024-05-10T15:12:19Z</time>
</trkpt>
<trkpt lat="49.49356452561915" lon="9.100515330210328">
<ele>391.4</ele>
<time>2024-05-10T15:12:20Z</time>
</trkpt>
<trkpt lat="49.49357986450195" lon="9.100486747920511">
<ele>391.6</ele>
<time>2024-05-10T15:12:21Z</time>
</trkpt>
<trkpt lat="49.493595119565725" lon="9.100460009649396">
<ele>391.8</ele>
<time>2024-05-10T15:12:22Z</time>
</trkpt>
<trkpt lat="49.493618002161384" lon="9.10043327137828">
<ele>392</ele>
<time>2024-05-10T15:12:23Z</time>
</trkpt>
<trkpt lat="49.49364088475704" lon="9.10041332244873">
<ele>392.2</ele>
<time>2024-05-10T15:12:24Z</time>
</trkpt>
<trkpt lat="49.4936637673527" lon="9.10039136186242">
<ele>392.2</ele>
<time>2024-05-10T15:12:25Z</time>
</trkpt>
<trkpt lat="49.49368664994836" lon="9.100370407104492">
<ele>392.4</ele>
<time>2024-05-10T15:12:26Z</time>
</trkpt>
<trkpt lat="49.49370953254402" lon="9.100346518680452">
<ele>392.6</ele>
<time>2024-05-10T15:12:27Z</time>
</trkpt>
<trkpt lat="49.493732415139675" lon="9.100326485931872">
<ele>392.8</ele>
<time>2024-05-10T15:12:28Z</time>
</trkpt>
<trkpt lat="49.49375915341079" lon="9.100301675498486">
<ele>393</ele>
<time>2024-05-10T15:12:29Z</time>
</trkpt>
<trkpt lat="49.49378203600645" lon="9.1002750210464">
<ele>393.2</ele>
<time>2024-05-10T15:12:30Z</time>
</trkpt>
<trkpt lat="49.49380491860211" lon="9.100248282775285">
<ele>393.2</ele>
<time>2024-05-10T15:12:31Z</time>
</trkpt>
<trkpt lat="49.493831573054194" lon="9.100221628323196">
<ele>393.4</ele>
<time>2024-05-10T15:12:32Z</time>
</trkpt>
<trkpt lat="49.49384682811797" lon="9.100192040205002">
<ele>393.6</ele>
<time>2024-05-10T15:12:33Z</time>
</trkpt>
<trkpt lat="49.4938659388572" lon="9.10015868023038">
<ele>393.8</ele>
<time>2024-05-10T15:12:34Z</time>
</trkpt>
<trkpt lat="49.493888821452856" lon="9.100128170102836">
<ele>394</ele>
<time>2024-05-10T15:12:35Z</time>
</trkpt>
<trkpt lat="49.493911704048514" lon="9.100101431831716">
<ele>394.2</ele>
<time>2024-05-10T15:12:36Z</time>
</trkpt>
<trkpt lat="49.49393458664417" lon="9.100085254758596">
<ele>394.4</ele>
<time>2024-05-10T15:12:37Z</time>
</trkpt>
<trkpt lat="49.49396132491529" lon="9.100068071857097">
<ele>394.6</ele>
<time>2024-05-10T15:12:38Z</time>
</trkpt>
<trkpt lat="49.493991835042834" lon="9.100060444325209">
<ele>394.8</ele>
<time>2024-05-10T15:12:39Z</time>
</trkpt>
<trkpt lat="49.49401471763849" lon="9.100065222010016">
<ele>395</ele>
<time>2024-05-10T15:12:40Z</time>
</trkpt>
<trkpt lat="49.49402234517038" lon="9.100083326920869">
<ele>395.2</ele>
<time>2024-05-10T15:12:41Z</time>
</trkpt>
<trkpt lat="49.49401848949492" lon="9.100111909210682">
<ele>395.2</ele>
<time>2024-05-10T15:12:42Z</time>
</trkpt>
<trkpt lat="49.49400709010661" lon="9.100141497328876">
<ele>395.4</ele>
<time>2024-05-10T15:12:43Z</time>
</trkpt>
<trkpt lat="49.49399946257472" lon="9.10017678514123">
<ele>395.4</ele>
<time>2024-05-10T15:12:44Z</time>
</trkpt>
<trkpt lat="49.49398420751095" lon="9.10019874572754">
<ele>395.6</ele>
<time>2024-05-10T15:12:45Z</time>
</trkpt>
<trkpt lat="49.493968952447176" lon="9.100219700485468">
<ele>395.6</ele>
<time>2024-05-10T15:12:46Z</time>
</trkpt>
<trkpt lat="49.49395369738341" lon="9.100246354937552">
<ele>395.8</ele>
<time>2024-05-10T15:12:47Z</time>
</trkpt>
<trkpt lat="49.49394606985152" lon="9.1002750210464">
<ele>396</ele>
<time>2024-05-10T15:12:48Z</time>
</trkpt>
<trkpt lat="49.49393844231963" lon="9.100306453183292">
<ele>396.2</ele>
<time>2024-05-10T15:12:49Z</time>
</trkpt>
<trkpt lat="49.493930814787745" lon="9.100355068221688">
<ele>396.2</ele>
<time>2024-05-10T15:12:50Z</time>
</trkpt>
<trkpt lat="49.49392318725586" lon="9.10039035603404">
<ele>396.6</ele>
<time>2024-05-10T15:12:51Z</time>
</trkpt>
<trkpt lat="49.493911704048514" lon="9.100423799827697">
<ele>396.6</ele>
<time>2024-05-10T15:12:52Z</time>
</trkpt>
<trkpt lat="49.49389644898474" lon="9.10045146010816">
<ele>396.8</ele>
<time>2024-05-10T15:12:53Z</time>
</trkpt>
<trkpt lat="49.49387733824551" lon="9.100484820082784">
<ele>397</ele>
<time>2024-05-10T15:12:54Z</time>
</trkpt>
<trkpt lat="49.49386208318174" lon="9.100518180057406">
<ele>397.4</ele>
<time>2024-05-10T15:12:55Z</time>
</trkpt>
<trkpt lat="49.49384682811797" lon="9.100555395707488">
<ele>397.8</ele>
<time>2024-05-10T15:12:56Z</time>
</trkpt>
<trkpt lat="49.493831573054194" lon="9.100584983825684">
<ele>398</ele>
<time>2024-05-10T15:12:57Z</time>
</trkpt>
<trkpt lat="49.49381631799042" lon="9.1006135661155">
<ele>398.4</ele>
<time>2024-05-10T15:12:58Z</time>
</trkpt>
<trkpt lat="49.49380106292665" lon="9.100641226395965">
<ele>398.6</ele>
<time>2024-05-10T15:12:59Z</time>
</trkpt>
<trkpt lat="49.49378966353834" lon="9.100665031000972">
<ele>398.8</ele>
<time>2024-05-10T15:13:00Z</time>
</trkpt>
<trkpt lat="49.49377818033099" lon="9.10068791359663">
<ele>399</ele>
<time>2024-05-10T15:13:01Z</time>
</trkpt>
<trkpt lat="49.493770552799106" lon="9.100714651867747">
<ele>399</ele>
<time>2024-05-10T15:13:02Z</time>
</trkpt>
<trkpt lat="49.49376292526722" lon="9.100743234157562">
<ele>399.2</ele>
<time>2024-05-10T15:13:03Z</time>
</trkpt>
<trkpt lat="49.493751525878906" lon="9.100774750113487">
<ele>399.2</ele>
<time>2024-05-10T15:13:04Z</time>
</trkpt>
<trkpt lat="49.49374004267156" lon="9.10080811008811">
<ele>399.4</ele>
<time>2024-05-10T15:13:05Z</time>
</trkpt>
<trkpt lat="49.49372093193233" lon="9.10084624774754">
<ele>399.6</ele>
<time>2024-05-10T15:13:06Z</time>
</trkpt>
<trkpt lat="49.493694277480245" lon="9.100883463397622">
<ele>399.8</ele>
<time>2024-05-10T15:13:07Z</time>
</trkpt>
<trkpt lat="49.49366753920913" lon="9.100914895534515">
<ele>399.8</ele>
<time>2024-05-10T15:13:08Z</time>
</trkpt>
<trkpt lat="49.49364465661347" lon="9.10094641149044">
<ele>400</ele>
<time>2024-05-10T15:13:09Z</time>
</trkpt>
<trkpt lat="49.49362562969327" lon="9.100981699302793">
<ele>400.2</ele>
<time>2024-05-10T15:13:10Z</time>
</trkpt>
<trkpt lat="49.49360651895404" lon="9.101015059277415">
<ele>400.4</ele>
<time>2024-05-10T15:13:11Z</time>
</trkpt>
<trkpt lat="49.49358363635838" lon="9.10104464739561">
<ele>400.6</ele>
<time>2024-05-10T15:13:12Z</time>
</trkpt>
<trkpt lat="49.49356075376272" lon="9.101075157523155">
<ele>401</ele>
<time>2024-05-10T15:13:13Z</time>
</trkpt>
<trkpt lat="49.49354164302349" lon="9.101106589660048">
<ele>401.2</ele>
<time>2024-05-10T15:13:14Z</time>
</trkpt>
<trkpt lat="49.49352638795972" lon="9.101135171949863">
<ele>401.4</ele>
<time>2024-05-10T15:13:15Z</time>
</trkpt>
<trkpt lat="49.49351113289595" lon="9.101169537752869">
<ele>401.6</ele>
<time>2024-05-10T15:13:16Z</time>
</trkpt>
<trkpt lat="49.49349210597575" lon="9.101208681240678">
<ele>401.8</ele>
<time>2024-05-10T15:13:17Z</time>
</trkpt>
<trkpt lat="49.493476850911975" lon="9.101248662918806">
<ele>402</ele>
<time>2024-05-10T15:13:18Z</time>
</trkpt>
<trkpt lat="49.4934615958482" lon="9.101286884397268">
<ele>402.2</ele>
<time>2024-05-10T15:13:19Z</time>
</trkpt>
<trkpt lat="49.49345011264086" lon="9.10132309421897">
<ele>402.4</ele>
<time>2024-05-10T15:13:20Z</time>
</trkpt>
<trkpt lat="49.49343108572066" lon="9.101360309869053">
<ele>402.4</ele>
<time>2024-05-10T15:13:21Z</time>
</trkpt>
<trkpt lat="49.49341960251331" lon="9.101396519690752">
<ele>402.6</ele>
<time>2024-05-10T15:13:22Z</time>
</trkpt>
<trkpt lat="49.493396719917655" lon="9.101427951827644">
<ele>402.6</ele>
<time>2024-05-10T15:13:23Z</time>
</trkpt>
<trkpt lat="49.49338146485388" lon="9.10146038979292">
<ele>402.8</ele>
<time>2024-05-10T15:13:24Z</time>
</trkpt>
<trkpt lat="49.49336235411465" lon="9.101492827758191">
<ele>403</ele>
<time>2024-05-10T15:13:25Z</time>
</trkpt>
<trkpt lat="49.49334332719445" lon="9.101526187732816">
<ele>403.2</ele>
<time>2024-05-10T15:13:26Z</time>
</trkpt>
<trkpt lat="49.49333184398711" lon="9.101565331220629">
<ele>403.4</ele>
<time>2024-05-10T15:13:27Z</time>
</trkpt>
<trkpt lat="49.493316588923335" lon="9.101601541042328">
<ele>403.6</ele>
<time>2024-05-10T15:13:28Z</time>
</trkpt>
<trkpt lat="49.49330518953502" lon="9.10163875669241">
<ele>403.8</ele>
<time>2024-05-10T15:13:29Z</time>
</trkpt>
<trkpt lat="49.49328993447125" lon="9.10167496651411">
<ele>404</ele>
<time>2024-05-10T15:13:30Z</time>
</trkpt>
<trkpt lat="49.49327082373202" lon="9.101708410307763">
<ele>404.2</ele>
<time>2024-05-10T15:13:31Z</time>
</trkpt>
<trkpt lat="49.49325179681182" lon="9.101746547967196">
<ele>404.4</ele>
<time>2024-05-10T15:13:32Z</time>
</trkpt>
<trkpt lat="49.493240313604474" lon="9.101790385320784">
<ele>404.4</ele>
<time>2024-05-10T15:13:33Z</time>
</trkpt>
<trkpt lat="49.49322883039713" lon="9.101824751123786">
<ele>404.6</ele>
<time>2024-05-10T15:13:34Z</time>
</trkpt>
<trkpt lat="49.49322120286524" lon="9.10185618326068">
<ele>404.8</ele>
<time>2024-05-10T15:13:35Z</time>
</trkpt>
<trkpt lat="49.49320980347693" lon="9.101889543235302">
<ele>405</ele>
<time>2024-05-10T15:13:36Z</time>
</trkpt>
<trkpt lat="49.49319454841316" lon="9.101921981200576">
<ele>405.2</ele>
<time>2024-05-10T15:13:37Z</time>
</trkpt>
<trkpt lat="49.49318306520581" lon="9.10195634700358">
<ele>405.4</ele>
<time>2024-05-10T15:13:38Z</time>
</trkpt>
<trkpt lat="49.4931716658175" lon="9.101989706978202">
<ele>405.6</ele>
<time>2024-05-10T15:13:39Z</time>
</trkpt>
<trkpt lat="49.49315641075373" lon="9.102024994790554">
<ele>405.6</ele>
<time>2024-05-10T15:13:40Z</time>
</trkpt>
<trkpt lat="49.49314492754638" lon="9.102067910134792">
<ele>405.8</ele>
<time>2024-05-10T15:13:41Z</time>
</trkpt>
<trkpt lat="49.493141155689955" lon="9.102107975631952">
<ele>406</ele>
<time>2024-05-10T15:13:42Z</time>
</trkpt>
<trkpt lat="49.49312967248261" lon="9.102148041129112">
<ele>406</ele>
<time>2024-05-10T15:13:43Z</time>
</trkpt>
<trkpt lat="49.4931182730943" lon="9.102183328941464">
<ele>406.2</ele>
<time>2024-05-10T15:13:44Z</time>
</trkpt>
<trkpt lat="49.49310678988695" lon="9.102216688916087">
<ele>406.2</ele>
<time>2024-05-10T15:13:45Z</time>
</trkpt>
<trkpt lat="49.49309153482318" lon="9.102252898737788">
<ele>406.4</ele>
<time>2024-05-10T15:13:46Z</time>
</trkpt>
<trkpt lat="49.493080135434866" lon="9.102294892072678">
<ele>406.4</ele>
<time>2024-05-10T15:13:47Z</time>
</trkpt>
<trkpt lat="49.493061024695635" lon="9.102333029732108">
<ele>406.4</ele>
<time>2024-05-10T15:13:48Z</time>
</trkpt>
<trkpt lat="49.49305339716375" lon="9.102375023066998">
<ele>406.6</ele>
<time>2024-05-10T15:13:49Z</time>
</trkpt>
<trkpt lat="49.49303814209998" lon="9.102415004745126">
<ele>406.8</ele>
<time>2024-05-10T15:13:50Z</time>
</trkpt>
<trkpt lat="49.49302665889263" lon="9.102450292557478">
<ele>406.8</ele>
<time>2024-05-10T15:13:51Z</time>
</trkpt>
<trkpt lat="49.49301140382886" lon="9.102490358054638">
<ele>407</ele>
<time>2024-05-10T15:13:52Z</time>
</trkpt>
<trkpt lat="49.49299614876509" lon="9.10252472385764">
<ele>407.2</ele>
<time>2024-05-10T15:13:53Z</time>
</trkpt>
<trkpt lat="49.492984749376774" lon="9.102561939507725">
<ele>407.2</ele>
<time>2024-05-10T15:13:54Z</time>
</trkpt>
<trkpt lat="49.49297326616943" lon="9.102600077167152">
<ele>407.4</ele>
<time>2024-05-10T15:13:55Z</time>
</trkpt>
<trkpt lat="49.49296186678112" lon="9.102640142664312">
<ele>407.6</ele>
<time>2024-05-10T15:13:56Z</time>
</trkpt>
<trkpt lat="49.49295801110566" lon="9.10268490202725">
<ele>407.8</ele>
<time>2024-05-10T15:13:57Z</time>
</trkpt>
<trkpt lat="49.49295038357377" lon="9.102727817371488">
<ele>408</ele>
<time>2024-05-10T15:13:58Z</time>
</trkpt>
<trkpt lat="49.49294275604189" lon="9.102769810706375">
<ele>408.2</ele>
<time>2024-05-10T15:13:59Z</time>
</trkpt>
<trkpt lat="49.49293135665357" lon="9.102809876203535">
<ele>408.4</ele>
<time>2024-05-10T15:14:00Z</time>
</trkpt>
<trkpt lat="49.492919873446226" lon="9.10284709185362">
<ele>408.8</ele>
<time>2024-05-10T15:14:01Z</time>
</trkpt>
<trkpt lat="49.49290847405791" lon="9.10288330167532">
<ele>409</ele>
<time>2024-05-10T15:14:02Z</time>
</trkpt>
<trkpt lat="49.49290084652603" lon="9.102918589487672">
<ele>409.2</ele>
<time>2024-05-10T15:14:03Z</time>
</trkpt>
<trkpt lat="49.49288936331868" lon="9.102951949462296">
<ele>409.4</ele>
<time>2024-05-10T15:14:04Z</time>
</trkpt>
<trkpt lat="49.49287788011134" lon="9.102990087121723">
<ele>409.6</ele>
<time>2024-05-10T15:14:05Z</time>
</trkpt>
<trkpt lat="49.49286648072302" lon="9.103025374934075">
<ele>409.8</ele>
<time>2024-05-10T15:14:06Z</time>
</trkpt>
<trkpt lat="49.49285885319114" lon="9.10305974073708">
<ele>410</ele>
<time>2024-05-10T15:14:07Z</time>
</trkpt>
<trkpt lat="49.49285122565925" lon="9.103101650252938">
<ele>410.2</ele>
<time>2024-05-10T15:14:08Z</time>
</trkpt>
<trkpt lat="49.49284736998379" lon="9.103144565597177">
<ele>410.4</ele>
<time>2024-05-10T15:14:09Z</time>
</trkpt>
<trkpt lat="49.492839742451906" lon="9.103181781247258">
<ele>410.6</ele>
<time>2024-05-10T15:14:10Z</time>
</trkpt>
<trkpt lat="49.49283211492002" lon="9.103211369365454">
<ele>410.8</ele>
<time>2024-05-10T15:14:11Z</time>
</trkpt>
<trkpt lat="49.49282834306359" lon="9.103246657177806">
<ele>411</ele>
<time>2024-05-10T15:14:12Z</time>
</trkpt>
<trkpt lat="49.49282834306359" lon="9.103288650512695">
<ele>411.2</ele>
<time>2024-05-10T15:14:13Z</time>
</trkpt>
<trkpt lat="49.492839742451906" lon="9.10333625972271">
<ele>411.6</ele>
<time>2024-05-10T15:14:14Z</time>
</trkpt>
<trkpt lat="49.49283211492002" lon="9.10337540321052">
<ele>411.8</ele>
<time>2024-05-10T15:14:15Z</time>
</trkpt>
<trkpt lat="49.49283211492002" lon="9.103413540869951">
<ele>412</ele>
<time>2024-05-10T15:14:16Z</time>
</trkpt>
<trkpt lat="49.49282834306359" lon="9.103451678529382">
<ele>412.4</ele>
<time>2024-05-10T15:14:17Z</time>
</trkpt>
<trkpt lat="49.49282071553171" lon="9.103493671864271">
<ele>412.6</ele>
<time>2024-05-10T15:14:18Z</time>
</trkpt>
<trkpt lat="49.49280923232436" lon="9.103533737361431">
<ele>412.8</ele>
<time>2024-05-10T15:14:19Z</time>
</trkpt>
<trkpt lat="49.49280160479248" lon="9.10357665270567">
<ele>413</ele>
<time>2024-05-10T15:14:20Z</time>
</trkpt>
<trkpt lat="49.49280160479248" lon="9.103621412068604">
<ele>413.2</ele>
<time>2024-05-10T15:14:21Z</time>
</trkpt>
<trkpt lat="49.49279783293605" lon="9.103665333241224">
<ele>413.4</ele>
<time>2024-05-10T15:14:22Z</time>
</trkpt>
<trkpt lat="49.49279397726059" lon="9.103703470900657">
<ele>413.4</ele>
<time>2024-05-10T15:14:23Z</time>
</trkpt>
<trkpt lat="49.49277872219682" lon="9.103736830875278">
<ele>413.6</ele>
<time>2024-05-10T15:14:24Z</time>
</trkpt>
<trkpt lat="49.49277109466493" lon="9.10377304069698">
<ele>413.8</ele>
<time>2024-05-10T15:14:25Z</time>
</trkpt>
<trkpt lat="49.492763467133045" lon="9.10380832850933">
<ele>413.8</ele>
<time>2024-05-10T15:14:26Z</time>
</trkpt>
<trkpt lat="49.49275969527662" lon="9.10384839400649">
<ele>414</ele>
<time>2024-05-10T15:14:27Z</time>
</trkpt>
<trkpt lat="49.49275583960116" lon="9.10389038734138">
<ele>414</ele>
<time>2024-05-10T15:14:28Z</time>
</trkpt>
<trkpt lat="49.49275969527662" lon="9.10392944701016">
<ele>414.2</ele>
<time>2024-05-10T15:14:29Z</time>
</trkpt>
<trkpt lat="49.49275206774473" lon="9.10396859049797">
<ele>414.4</ele>
<time>2024-05-10T15:14:30Z</time>
</trkpt>
<trkpt lat="49.49274821206927" lon="9.104002872481942">
<ele>414.6</ele>
<time>2024-05-10T15:14:31Z</time>
</trkpt>
<trkpt lat="49.49274058453739" lon="9.104038160294294">
<ele>414.8</ele>
<time>2024-05-10T15:14:32Z</time>
</trkpt>
<trkpt lat="49.492729185149074" lon="9.104076381772757">
<ele>414.8</ele>
<time>2024-05-10T15:14:33Z</time>
</trkpt>
<trkpt lat="49.49272155761719" lon="9.104116363450885">
<ele>415</ele>
<time>2024-05-10T15:14:34Z</time>
</trkpt>
<trkpt lat="49.49272155761719" lon="9.104160284623504">
<ele>415</ele>
<time>2024-05-10T15:14:35Z</time>
</trkpt>
<trkpt lat="49.49271770194173" lon="9.104203199967742">
<ele>415.2</ele>
<time>2024-05-10T15:14:36Z</time>
</trkpt>
<trkpt lat="49.49271007440984" lon="9.104240415617824">
<ele>415.2</ele>
<time>2024-05-10T15:14:37Z</time>
</trkpt>
<trkpt lat="49.49271007440984" lon="9.104278553277254">
<ele>415.2</ele>
<time>2024-05-10T15:14:38Z</time>
</trkpt>
<trkpt lat="49.49271007440984" lon="9.104321468621492">
<ele>415.2</ele>
<time>2024-05-10T15:14:39Z</time>
</trkpt>
<trkpt lat="49.49271007440984" lon="9.10436530597508">
<ele>415.4</ele>
<time>2024-05-10T15:14:40Z</time>
</trkpt>
<trkpt lat="49.492706218734384" lon="9.10440151579678">
<ele>415.6</ele>
<time>2024-05-10T15:14:41Z</time>
</trkpt>
<trkpt lat="49.49269481934607" lon="9.104436803609133">
<ele>415.8</ele>
<time>2024-05-10T15:14:42Z</time>
</trkpt>
<trkpt lat="49.49269096367061" lon="9.104476869106293">
<ele>416</ele>
<time>2024-05-10T15:14:43Z</time>
</trkpt>
<trkpt lat="49.492687191814184" lon="9.104515006765723">
<ele>416.2</ele>
<time>2024-05-10T15:14:44Z</time>
</trkpt>
<trkpt lat="49.4926795642823" lon="9.104551300406456">
<ele>416.6</ele>
<time>2024-05-10T15:14:45Z</time>
</trkpt>
<trkpt lat="49.492664309218526" lon="9.10458466038108">
<ele>416.8</ele>
<time>2024-05-10T15:14:46Z</time>
</trkpt>
<trkpt lat="49.49265282601118" lon="9.1046180203557">
<ele>416.8</ele>
<time>2024-05-10T15:14:47Z</time>
</trkpt>
<trkpt lat="49.49264142662287" lon="9.104649536311626">
<ele>417</ele>
<time>2024-05-10T15:14:48Z</time>
</trkpt>
<trkpt lat="49.49262994341552" lon="9.10468289628625">
<ele>417.2</ele>
<time>2024-05-10T15:14:49Z</time>
</trkpt>
<trkpt lat="49.49262231588364" lon="9.10472011193633">
<ele>417.4</ele>
<time>2024-05-10T15:14:50Z</time>
</trkpt>
<trkpt lat="49.49262231588364" lon="9.104756321758032">
<ele>417.6</ele>
<time>2024-05-10T15:14:51Z</time>
</trkpt>
<trkpt lat="49.49261854402721" lon="9.10479831509292">
<ele>417.8</ele>
<time>2024-05-10T15:14:52Z</time>
</trkpt>
<trkpt lat="49.49261468835175" lon="9.10483829677105">
<ele>417.8</ele>
<time>2024-05-10T15:14:53Z</time>
</trkpt>
<trkpt lat="49.49261091649532" lon="9.104876518249512">
<ele>418</ele>
<time>2024-05-10T15:14:54Z</time>
</trkpt>
<trkpt lat="49.492607060819864" lon="9.104913650080562">
<ele>418</ele>
<time>2024-05-10T15:14:55Z</time>
</trkpt>
<trkpt lat="49.492607060819864" lon="9.104951787739992">
<ele>418.2</ele>
<time>2024-05-10T15:14:56Z</time>
</trkpt>
<trkpt lat="49.49261091649532" lon="9.104989925399424">
<ele>418.2</ele>
<time>2024-05-10T15:14:57Z</time>
</trkpt>
<trkpt lat="49.49261091649532" lon="9.105028146877885">
<ele>418.4</ele>
<time>2024-05-10T15:14:58Z</time>
</trkpt>
<trkpt lat="49.492607060819864" lon="9.10507290624082">
<ele>418.4</ele>
<time>2024-05-10T15:14:59Z</time>
</trkpt>
<trkpt lat="49.49260328896344" lon="9.10511489957571">
<ele>418.6</ele>
<time>2024-05-10T15:15:00Z</time>
</trkpt>
<trkpt lat="49.49260328896344" lon="9.10515303723514">
<ele>418.6</ele>
<time>2024-05-10T15:15:01Z</time>
</trkpt>
<trkpt lat="49.49260328896344" lon="9.105191174894571">
<ele>418.8</ele>
<time>2024-05-10T15:15:02Z</time>
</trkpt>
<trkpt lat="49.49259943328798" lon="9.10523509606719">
<ele>419</ele>
<time>2024-05-10T15:15:03Z</time>
</trkpt>
<trkpt lat="49.49259943328798" lon="9.105275077745318">
<ele>419.2</ele>
<time>2024-05-10T15:15:04Z</time>
</trkpt>
<trkpt lat="49.49259943328798" lon="9.105311371386051">
<ele>419.4</ele>
<time>2024-05-10T15:15:05Z</time>
</trkpt>
<trkpt lat="49.49260328896344" lon="9.105351436883211">
<ele>419.6</ele>
<time>2024-05-10T15:15:06Z</time>
</trkpt>
<trkpt lat="49.492607060819864" lon="9.105395274236798">
<ele>419.8</ele>
<time>2024-05-10T15:15:07Z</time>
</trkpt>
<trkpt lat="49.49260328896344" lon="9.105429640039802">
<ele>420</ele>
<time>2024-05-10T15:15:08Z</time>
</trkpt>
<trkpt lat="49.49260328896344" lon="9.105466771870852">
<ele>420.2</ele>
<time>2024-05-10T15:15:09Z</time>
</trkpt>
<trkpt lat="49.49260328896344" lon="9.105498287826777">
<ele>420.4</ele>
<time>2024-05-10T15:15:10Z</time>
</trkpt>
<trkpt lat="49.492607060819864" lon="9.105533575639129">
<ele>420.6</ele>
<time>2024-05-10T15:15:11Z</time>
</trkpt>
<trkpt lat="49.49261468835175" lon="9.105566935613751">
<ele>420.6</ele>
<time>2024-05-10T15:15:12Z</time>
</trkpt>
<trkpt lat="49.49262231588364" lon="9.105603145435452">
<ele>420.8</ele>
<time>2024-05-10T15:15:13Z</time>
</trkpt>
<trkpt lat="49.49262994341552" lon="9.105636589229109">
<ele>421.2</ele>
<time>2024-05-10T15:15:14Z</time>
</trkpt>
<trkpt lat="49.49263757094741" lon="9.105665171518922">
<ele>421.4</ele>
<time>2024-05-10T15:15:15Z</time>
</trkpt>
<trkpt lat="49.492645198479295" lon="9.105696603655815">
<ele>421.4</ele>
<time>2024-05-10T15:15:16Z</time>
</trkpt>
<trkpt lat="49.49265282601118" lon="9.105736669152977">
<ele>421.6</ele>
<time>2024-05-10T15:15:17Z</time>
</trkpt>
<trkpt lat="49.49265668168664" lon="9.105772962793708">
<ele>421.8</ele>
<time>2024-05-10T15:15:18Z</time>
</trkpt>
<trkpt lat="49.492664309218526" lon="9.105814872309566">
<ele>421.8</ele>
<time>2024-05-10T15:15:19Z</time>
</trkpt>
<trkpt lat="49.49266808107495" lon="9.105856865644457">
<ele>422</ele>
<time>2024-05-10T15:15:20Z</time>
</trkpt>
<trkpt lat="49.49267193675041" lon="9.105895003303884">
<ele>422.2</ele>
<time>2024-05-10T15:15:21Z</time>
</trkpt>
<trkpt lat="49.492683336138725" lon="9.105935068801044">
<ele>422.4</ele>
<time>2024-05-10T15:15:22Z</time>
</trkpt>
<trkpt lat="49.49269096367061" lon="9.105973206460476">
<ele>422.6</ele>
<time>2024-05-10T15:15:23Z</time>
</trkpt>
<trkpt lat="49.49269481934607" lon="9.106010422110558">
<ele>422.8</ele>
<time>2024-05-10T15:15:24Z</time>
</trkpt>
<trkpt lat="49.4926985912025" lon="9.106042860075831">
<ele>423</ele>
<time>2024-05-10T15:15:25Z</time>
</trkpt>
<trkpt lat="49.49270244687795" lon="9.106075214222074">
<ele>423.2</ele>
<time>2024-05-10T15:15:26Z</time>
</trkpt>
<trkpt lat="49.49271007440984" lon="9.10610287450254">
<ele>423.4</ele>
<time>2024-05-10T15:15:27Z</time>
</trkpt>
<trkpt lat="49.49271384626627" lon="9.106131540611386">
<ele>423.6</ele>
<time>2024-05-10T15:15:28Z</time>
</trkpt>
<trkpt lat="49.49271770194173" lon="9.1061601229012">
<ele>424</ele>
<time>2024-05-10T15:15:29Z</time>
</trkpt>
<trkpt lat="49.492725329473615" lon="9.106193482875824">
<ele>424.2</ele>
<time>2024-05-10T15:15:30Z</time>
</trkpt>
<trkpt lat="49.49273681268096" lon="9.106238326057792">
<ele>424.4</ele>
<time>2024-05-10T15:15:31Z</time>
</trkpt>
<trkpt lat="49.49275206774473" lon="9.106285013258455">
<ele>424.6</ele>
<time>2024-05-10T15:15:32Z</time>
</trkpt>
<trkpt lat="49.492767322808504" lon="9.106327006593348">
<ele>424.8</ele>
<time>2024-05-10T15:15:33Z</time>
</trkpt>
<trkpt lat="49.49277495034039" lon="9.10636137239635">
<ele>425</ele>
<time>2024-05-10T15:15:34Z</time>
</trkpt>
<trkpt lat="49.49278257787227" lon="9.106408059597015">
<ele>425.2</ele>
<time>2024-05-10T15:15:35Z</time>
</trkpt>
<trkpt lat="49.49279020540416" lon="9.106451980769634">
<ele>425.4</ele>
<time>2024-05-10T15:15:36Z</time>
</trkpt>
<trkpt lat="49.49280160479248" lon="9.106491962447762">
<ele>425.6</ele>
<time>2024-05-10T15:15:37Z</time>
</trkpt>
<trkpt lat="49.49280923232436" lon="9.106526328250766">
<ele>425.8</ele>
<time>2024-05-10T15:15:38Z</time>
</trkpt>
<trkpt lat="49.49281685985625" lon="9.106566393747926">
<ele>425.8</ele>
<time>2024-05-10T15:15:39Z</time>
</trkpt>
<trkpt lat="49.49282834306359" lon="9.106604531407356">
<ele>426</ele>
<time>2024-05-10T15:15:40Z</time>
</trkpt>
<trkpt lat="49.492839742451906" lon="9.106644596904516">
<ele>426</ele>
<time>2024-05-10T15:15:41Z</time>
</trkpt>
<trkpt lat="49.49285122565925" lon="9.106679884716868">
<ele>426.2</ele>
<time>2024-05-10T15:15:42Z</time>
</trkpt>
<trkpt lat="49.49285885319114" lon="9.106713244691491">
<ele>426.2</ele>
<time>2024-05-10T15:15:43Z</time>
</trkpt>
<trkpt lat="49.49286648072302" lon="9.106749454513192">
<ele>426.4</ele>
<time>2024-05-10T15:15:44Z</time>
</trkpt>
<trkpt lat="49.49287025257945" lon="9.106784742325544">
<ele>426.6</ele>
<time>2024-05-10T15:15:45Z</time>
</trkpt>
<trkpt lat="49.49287788011134" lon="9.1068181861192">
<ele>426.8</ele>
<time>2024-05-10T15:15:46Z</time>
</trkpt>
<trkpt lat="49.4928817357868" lon="9.106853473931553">
<ele>426.8</ele>
<time>2024-05-10T15:15:47Z</time>
</trkpt>
<trkpt lat="49.49289321899414" lon="9.106888761743903">
<ele>427</ele>
<time>2024-05-10T15:15:48Z</time>
</trkpt>
<trkpt lat="49.49290084652603" lon="9.106926899403334">
<ele>427.2</ele>
<time>2024-05-10T15:15:49Z</time>
</trkpt>
<trkpt lat="49.49290847405791" lon="9.106963109225036">
<ele>427.2</ele>
<time>2024-05-10T15:15:50Z</time>
</trkpt>
<trkpt lat="49.49291224591434" lon="9.10699462518096">
<ele>427.4</ele>
<time>2024-05-10T15:15:51Z</time>
</trkpt>
<trkpt lat="49.492919873446226" lon="9.107027985155582">
<ele>427.6</ele>
<time>2024-05-10T15:15:52Z</time>
</trkpt>
<trkpt lat="49.492919873446226" lon="9.107058495283129">
<ele>427.8</ele>
<time>2024-05-10T15:15:53Z</time>
</trkpt>
<trkpt lat="49.492919873446226" lon="9.107088083401322">
<ele>428</ele>
<time>2024-05-10T15:15:54Z</time>
</trkpt>
<trkpt lat="49.492923729121685" lon="9.107121443375943">
<ele>428.4</ele>
<time>2024-05-10T15:15:55Z</time>
</trkpt>
<trkpt lat="49.49293512851" lon="9.107159581035376">
<ele>428.6</ele>
<time>2024-05-10T15:15:56Z</time>
</trkpt>
<trkpt lat="49.49294275604189" lon="9.10718816332519">
<ele>428.8</ele>
<time>2024-05-10T15:15:57Z</time>
</trkpt>
<trkpt lat="49.49294661171734" lon="9.107218673452737">
<ele>429</ele>
<time>2024-05-10T15:15:58Z</time>
</trkpt>
<trkpt lat="49.49296186678112" lon="9.107258738949897">
<ele>429</ele>
<time>2024-05-10T15:15:59Z</time>
</trkpt>
<trkpt lat="49.49297326616943" lon="9.107301654294131">
<ele>429.2</ele>
<time>2024-05-10T15:16:00Z</time>
</trkpt>
<trkpt lat="49.492984749376774" lon="9.107335014268756">
<ele>429.4</ele>
<time>2024-05-10T15:16:01Z</time>
</trkpt>
<trkpt lat="49.4929885212332" lon="9.107359824702144">
<ele>429.4</ele>
<time>2024-05-10T15:16:02Z</time>
</trkpt>
<trkpt lat="49.49299237690866" lon="9.107391340658069">
<ele>429.6</ele>
<time>2024-05-10T15:16:03Z</time>
</trkpt>
<trkpt lat="49.49300377629697" lon="9.107435178011656">
<ele>429.6</ele>
<time>2024-05-10T15:16:04Z</time>
</trkpt>
<trkpt lat="49.49301140382886" lon="9.107473315671086">
<ele>429.8</ele>
<time>2024-05-10T15:16:05Z</time>
</trkpt>
<trkpt lat="49.49301140382886" lon="9.107520086690784">
<ele>430</ele>
<time>2024-05-10T15:16:06Z</time>
</trkpt>
<trkpt lat="49.49302288703621" lon="9.107563002035022">
<ele>430</ele>
<time>2024-05-10T15:16:07Z</time>
</trkpt>
<trkpt lat="49.49303051456809" lon="9.1076020617038">
<ele>430.2</ele>
<time>2024-05-10T15:16:08Z</time>
</trkpt>
<trkpt lat="49.49303814209998" lon="9.107640199363232">
<ele>430.4</ele>
<time>2024-05-10T15:16:09Z</time>
</trkpt>
<trkpt lat="49.49304576963186" lon="9.107680264860392">
<ele>430.4</ele>
<time>2024-05-10T15:16:10Z</time>
</trkpt>
<trkpt lat="49.49305339716375" lon="9.107709852978587">
<ele>430.6</ele>
<time>2024-05-10T15:16:11Z</time>
</trkpt>
<trkpt lat="49.49304954148829" lon="9.10774128511548">
<ele>430.8</ele>
<time>2024-05-10T15:16:12Z</time>
</trkpt>
<trkpt lat="49.49304954148829" lon="9.10778327845037">
<ele>431.2</ele>
<time>2024-05-10T15:16:13Z</time>
</trkpt>
<trkpt lat="49.493057169020176" lon="9.10781948827207">
<ele>431.4</ele>
<time>2024-05-10T15:16:14Z</time>
</trkpt>
<trkpt lat="49.493061024695635" lon="9.107865253463387">
<ele>431.6</ele>
<time>2024-05-10T15:16:15Z</time>
</trkpt>
<trkpt lat="49.49306865222752" lon="9.107912024483085">
<ele>432</ele>
<time>2024-05-10T15:16:16Z</time>
</trkpt>
<trkpt lat="49.49307250790298" lon="9.107948234304786">
<ele>432.2</ele>
<time>2024-05-10T15:16:17Z</time>
</trkpt>
<trkpt lat="49.49307627975941" lon="9.10798167809844">
<ele>432.4</ele>
<time>2024-05-10T15:16:18Z</time>
</trkpt>
<trkpt lat="49.493080135434866" lon="9.10801981575787">
<ele>432.6</ele>
<time>2024-05-10T15:16:19Z</time>
</trkpt>
<trkpt lat="49.49308776296675" lon="9.108064575120808">
<ele>432.6</ele>
<time>2024-05-10T15:16:20Z</time>
</trkpt>
<trkpt lat="49.49309153482318" lon="9.108110424131157">
<ele>432.8</ele>
<time>2024-05-10T15:16:21Z</time>
</trkpt>
<trkpt lat="49.49308776296675" lon="9.108149483799934">
<ele>433</ele>
<time>2024-05-10T15:16:22Z</time>
</trkpt>
<trkpt lat="49.49309153482318" lon="9.108196254819632">
<ele>433.4</ele>
<time>2024-05-10T15:16:23Z</time>
</trkpt>
<trkpt lat="49.49309539049864" lon="9.108235314488413">
<ele>433.6</ele>
<time>2024-05-10T15:16:24Z</time>
</trkpt>
<trkpt lat="49.49310678988695" lon="9.10827630199492">
<ele>433.8</ele>
<time>2024-05-10T15:16:25Z</time>
</trkpt>
<trkpt lat="49.49310301803053" lon="9.108311589807272">
<ele>434</ele>
<time>2024-05-10T15:16:26Z</time>
</trkpt>
<trkpt lat="49.49311064556241" lon="9.108349727466702">
<ele>434.2</ele>
<time>2024-05-10T15:16:27Z</time>
</trkpt>
<trkpt lat="49.4931182730943" lon="9.108386943116784">
<ele>434.4</ele>
<time>2024-05-10T15:16:28Z</time>
</trkpt>
<trkpt lat="49.4931182730943" lon="9.108425080776216">
<ele>434.6</ele>
<time>2024-05-10T15:16:29Z</time>
</trkpt>
<trkpt lat="49.49312204495072" lon="9.108469923958182">
<ele>434.8</ele>
<time>2024-05-10T15:16:30Z</time>
</trkpt>
<trkpt lat="49.49312967248261" lon="9.108509989455342">
<ele>435</ele>
<time>2024-05-10T15:16:31Z</time>
</trkpt>
<trkpt lat="49.49313352815807" lon="9.10855483263731">
<ele>435</ele>
<time>2024-05-10T15:16:32Z</time>
</trkpt>
<trkpt lat="49.493137300014496" lon="9.10859196446836">
<ele>435.2</ele>
<time>2024-05-10T15:16:33Z</time>
</trkpt>
<trkpt lat="49.49314492754638" lon="9.108626330271363">
<ele>435.2</ele>
<time>2024-05-10T15:16:34Z</time>
</trkpt>
<trkpt lat="49.49314492754638" lon="9.108665389940144">
<ele>435.2</ele>
<time>2024-05-10T15:16:35Z</time>
</trkpt>
<trkpt lat="49.49314878322184" lon="9.108697827905416">
<ele>435.4</ele>
<time>2024-05-10T15:16:36Z</time>
</trkpt>
<trkpt lat="49.49315641075373" lon="9.108737893402576">
<ele>435.4</ele>
<time>2024-05-10T15:16:37Z</time>
</trkpt>
<trkpt lat="49.49315641075373" lon="9.108777958899736">
<ele>435.4</ele>
<time>2024-05-10T15:16:38Z</time>
</trkpt>
<trkpt lat="49.49316403828561" lon="9.108819952234626">
<ele>435.6</ele>
<time>2024-05-10T15:16:39Z</time>
</trkpt>
<trkpt lat="49.49316781014204" lon="9.108859933912754">
<ele>435.6</ele>
<time>2024-05-10T15:16:40Z</time>
</trkpt>
<trkpt lat="49.49316781014204" lon="9.108899999409914">
<ele>435.8</ele>
<time>2024-05-10T15:16:41Z</time>
</trkpt>
<trkpt lat="49.4931716658175" lon="9.108941992744803">
<ele>436</ele>
<time>2024-05-10T15:16:42Z</time>
</trkpt>
<trkpt lat="49.4931716658175" lon="9.108982058241963">
<ele>436.2</ele>
<time>2024-05-10T15:16:43Z</time>
</trkpt>
<trkpt lat="49.493175437673926" lon="9.109022123739123">
<ele>436.4</ele>
<time>2024-05-10T15:16:44Z</time>
</trkpt>
<trkpt lat="49.493175437673926" lon="9.109058333560824">
<ele>436.4</ele>
<time>2024-05-10T15:16:45Z</time>
</trkpt>
<trkpt lat="49.493179293349385" lon="9.109094543382524">
<ele>436.6</ele>
<time>2024-05-10T15:16:46Z</time>
</trkpt>
<trkpt lat="49.493175437673926" lon="9.10912798717618">
<ele>436.8</ele>
<time>2024-05-10T15:16:47Z</time>
</trkpt>
<trkpt lat="49.493175437673926" lon="9.10916704684496">
<ele>436.8</ele>
<time>2024-05-10T15:16:48Z</time>
</trkpt>
<trkpt lat="49.493175437673926" lon="9.10920325666666">
<ele>437</ele>
<time>2024-05-10T15:16:49Z</time>
</trkpt>
<trkpt lat="49.493179293349385" lon="9.10924525000155">
<ele>437</ele>
<time>2024-05-10T15:16:50Z</time>
</trkpt>
<trkpt lat="49.49318306520581" lon="9.10928338766098">
<ele>437.2</ele>
<time>2024-05-10T15:16:51Z</time>
</trkpt>
<trkpt lat="49.4931906927377" lon="9.10932538099587">
<ele>437.4</ele>
<time>2024-05-10T15:16:52Z</time>
</trkpt>
<trkpt lat="49.493198320269585" lon="9.109374918043612">
<ele>437.6</ele>
<time>2024-05-10T15:16:53Z</time>
</trkpt>
<trkpt lat="49.493198320269585" lon="9.109413139522076">
<ele>437.8</ele>
<time>2024-05-10T15:16:54Z</time>
</trkpt>
<trkpt lat="49.49319454841316" lon="9.109455049037932">
<ele>438.2</ele>
<time>2024-05-10T15:16:55Z</time>
</trkpt>
<trkpt lat="49.49319454841316" lon="9.109497964382172">
<ele>438.4</ele>
<time>2024-05-10T15:16:56Z</time>
</trkpt>
<trkpt lat="49.493198320269585" lon="9.109546579420568">
<ele>438.6</ele>
<time>2024-05-10T15:16:57Z</time>
</trkpt>
<trkpt lat="49.493198320269585" lon="9.109589494764805">
<ele>438.8</ele>
<time>2024-05-10T15:16:58Z</time>
</trkpt>
<trkpt lat="49.49320217594504" lon="9.109635343775151">
<ele>439</ele>
<time>2024-05-10T15:16:59Z</time>
</trkpt>
<trkpt lat="49.49320594780147" lon="9.109676331281662">
<ele>439.2</ele>
<time>2024-05-10T15:17:00Z</time>
</trkpt>
<trkpt lat="49.49320217594504" lon="9.109716396778822">
<ele>439.4</ele>
<time>2024-05-10T15:17:01Z</time>
</trkpt>
<trkpt lat="49.493198320269585" lon="9.109756462275982">
<ele>439.6</ele>
<time>2024-05-10T15:17:02Z</time>
</trkpt>
<trkpt lat="49.49320217594504" lon="9.109800299629567">
<ele>439.8</ele>
<time>2024-05-10T15:17:03Z</time>
</trkpt>
<trkpt lat="49.49320594780147" lon="9.109838437289">
<ele>440</ele>
<time>2024-05-10T15:17:04Z</time>
</trkpt>
<trkpt lat="49.49320980347693" lon="9.109881352633238">
<ele>440.4</ele>
<time>2024-05-10T15:17:05Z</time>
</trkpt>
<trkpt lat="49.49321357533336" lon="9.109923345968127">
<ele>440.6</ele>
<time>2024-05-10T15:17:06Z</time>
</trkpt>
<trkpt lat="49.49321357533336" lon="9.109968105331063">
<ele>440.8</ele>
<time>2024-05-10T15:17:07Z</time>
</trkpt>
<trkpt lat="49.493217431008816" lon="9.110012026503682">
<ele>440.8</ele>
<time>2024-05-10T15:17:08Z</time>
</trkpt>
<trkpt lat="49.49322120286524" lon="9.110053014010193">
<ele>441</ele>
<time>2024-05-10T15:17:09Z</time>
</trkpt>
<trkpt lat="49.49322120286524" lon="9.110090229660273">
<ele>441.2</ele>
<time>2024-05-10T15:17:10Z</time>
</trkpt>
<trkpt lat="49.493217431008816" lon="9.110126439481974">
<ele>441.4</ele>
<time>2024-05-10T15:17:11Z</time>
</trkpt>
<trkpt lat="49.49320980347693" lon="9.110164577141404">
<ele>441.6</ele>
<time>2024-05-10T15:17:12Z</time>
</trkpt>
<trkpt lat="49.49320980347693" lon="9.110203720629215">
<ele>441.8</ele>
<time>2024-05-10T15:17:13Z</time>
</trkpt>
<trkpt lat="49.49320980347693" lon="9.110243786126375">
<ele>442</ele>
<time>2024-05-10T15:17:14Z</time>
</trkpt>
<trkpt lat="49.49320980347693" lon="9.110279995948076">
<ele>442</ele>
<time>2024-05-10T15:17:15Z</time>
</trkpt>
<trkpt lat="49.49320980347693" lon="9.110318133607509">
<ele>442.2</ele>
<time>2024-05-10T15:17:16Z</time>
</trkpt>
<trkpt lat="49.49320980347693" lon="9.11035342141986">
<ele>442.2</ele>
<time>2024-05-10T15:17:17Z</time>
</trkpt>
<trkpt lat="49.49321357533336" lon="9.110386781394482">
<ele>442.4</ele>
<time>2024-05-10T15:17:18Z</time>
</trkpt>
<trkpt lat="49.49320980347693" lon="9.110422069206834">
<ele>442.6</ele>
<time>2024-05-10T15:17:19Z</time>
</trkpt>
<trkpt lat="49.49320594780147" lon="9.110458362847568">
<ele>442.6</ele>
<time>2024-05-10T15:17:20Z</time>
</trkpt>
<trkpt lat="49.49320217594504" lon="9.11049172282219">
<ele>442.8</ele>
<time>2024-05-10T15:17:21Z</time>
</trkpt>
<trkpt lat="49.49320217594504" lon="9.110527010634542">
<ele>443</ele>
<time>2024-05-10T15:17:22Z</time>
</trkpt>
<trkpt lat="49.49320217594504" lon="9.110560370609164">
<ele>443.2</ele>
<time>2024-05-10T15:17:23Z</time>
</trkpt>
<trkpt lat="49.493198320269585" lon="9.110594736412168">
<ele>443.6</ele>
<time>2024-05-10T15:17:24Z</time>
</trkpt>
<trkpt lat="49.4931906927377" lon="9.110634801909328">
<ele>443.6</ele>
<time>2024-05-10T15:17:25Z</time>
</trkpt>
<trkpt lat="49.49318692088127" lon="9.110671933740376">
<ele>444</ele>
<time>2024-05-10T15:17:26Z</time>
</trkpt>
<trkpt lat="49.49319454841316" lon="9.110713005065918">
<ele>444.2</ele>
<time>2024-05-10T15:17:27Z</time>
</trkpt>
<trkpt lat="49.49319454841316" lon="9.110752064734696">
<ele>444.4</ele>
<time>2024-05-10T15:17:28Z</time>
</trkpt>
<trkpt lat="49.49319454841316" lon="9.110794980078936">
<ele>444.6</ele>
<time>2024-05-10T15:17:29Z</time>
</trkpt>
<trkpt lat="49.493198320269585" lon="9.110835045576096">
<ele>444.8</ele>
<time>2024-05-10T15:17:30Z</time>
</trkpt>
<trkpt lat="49.49320594780147" lon="9.110879888758063">
<ele>445</ele>
<time>2024-05-10T15:17:31Z</time>
</trkpt>
<trkpt lat="49.49320594780147" lon="9.11092179827392">
<ele>445.2</ele>
<time>2024-05-10T15:17:32Z</time>
</trkpt>
<trkpt lat="49.49320594780147" lon="9.11096278578043">
<ele>445.4</ele>
<time>2024-05-10T15:17:33Z</time>
</trkpt>
<trkpt lat="49.49320594780147" lon="9.11100192926824">
<ele>445.6</ele>
<time>2024-05-10T15:17:34Z</time>
</trkpt>
<trkpt lat="49.49320217594504" lon="9.111036295071244">
<ele>445.8</ele>
<time>2024-05-10T15:17:35Z</time>
</trkpt>
<trkpt lat="49.49320217594504" lon="9.111076276749372">
<ele>445.8</ele>
<time>2024-05-10T15:17:36Z</time>
</trkpt>
<trkpt lat="49.49320217594504" lon="9.111115420237184">
<ele>446</ele>
<time>2024-05-10T15:17:37Z</time>
</trkpt>
<trkpt lat="49.49320217594504" lon="9.111151630058885">
<ele>446</ele>
<time>2024-05-10T15:17:38Z</time>
</trkpt>
<trkpt lat="49.49320217594504" lon="9.111189767718315">
<ele>446.2</ele>
<time>2024-05-10T15:17:39Z</time>
</trkpt>
<trkpt lat="49.493198320269585" lon="9.11122321151197">
<ele>446.2</ele>
<time>2024-05-10T15:17:40Z</time>
</trkpt>
<trkpt lat="49.49320594780147" lon="9.1112613491714">
<ele>446.4</ele>
<time>2024-05-10T15:17:41Z</time>
</trkpt>
<trkpt lat="49.49320980347693" lon="9.111307114362717">
<ele>446.4</ele>
<time>2024-05-10T15:17:42Z</time>
</trkpt>
<trkpt lat="49.49321357533336" lon="9.111350029706957">
<ele>446.6</ele>
<time>2024-05-10T15:17:43Z</time>
</trkpt>
<trkpt lat="49.493217431008816" lon="9.11139864474535">
<ele>446.8</ele>
<time>2024-05-10T15:17:44Z</time>
</trkpt>
<trkpt lat="49.49322120286524" lon="9.111441560089588">
<ele>446.8</ele>
<time>2024-05-10T15:17:45Z</time>
</trkpt>
<trkpt lat="49.49322120286524" lon="9.11147877573967">
<ele>447</ele>
<time>2024-05-10T15:17:46Z</time>
</trkpt>
<trkpt lat="49.49322120286524" lon="9.11151498556137">
<ele>447.2</ele>
<time>2024-05-10T15:17:47Z</time>
</trkpt>
<trkpt lat="49.4932250585407" lon="9.111551279202104">
<ele>447.2</ele>
<time>2024-05-10T15:17:48Z</time>
</trkpt>
<trkpt lat="49.49323268607259" lon="9.11159704439342">
<ele>447.4</ele>
<time>2024-05-10T15:17:49Z</time>
</trkpt>
<trkpt lat="49.49323654174805" lon="9.11163995973766">
<ele>447.6</ele>
<time>2024-05-10T15:17:50Z</time>
</trkpt>
<trkpt lat="49.493240313604474" lon="9.111681869253516">
<ele>447.8</ele>
<time>2024-05-10T15:17:51Z</time>
</trkpt>
<trkpt lat="49.49324416927993" lon="9.111720006912948">
<ele>448</ele>
<time>2024-05-10T15:17:52Z</time>
</trkpt>
<trkpt lat="49.49324416927993" lon="9.1117534507066">
<ele>448.2</ele>
<time>2024-05-10T15:17:53Z</time>
</trkpt>
<trkpt lat="49.49324416927993" lon="9.111788738518952">
<ele>448.6</ele>
<time>2024-05-10T15:17:54Z</time>
</trkpt>
<trkpt lat="49.49324794113636" lon="9.111824948340654">
<ele>448.8</ele>
<time>2024-05-10T15:17:55Z</time>
</trkpt>
<trkpt lat="49.493255568668246" lon="9.111871719360352">
<ele>449</ele>
<time>2024-05-10T15:17:56Z</time>
</trkpt>
<trkpt lat="49.493259424343705" lon="9.11191362887621">
<ele>449.2</ele>
<time>2024-05-10T15:17:57Z</time>
</trkpt>
<trkpt lat="49.49326705187559" lon="9.111956544220448">
<ele>449.4</ele>
<time>2024-05-10T15:17:58Z</time>
</trkpt>
<trkpt lat="49.49326705187559" lon="9.111994681879878">
<ele>449.4</ele>
<time>2024-05-10T15:17:59Z</time>
</trkpt>
<trkpt lat="49.49326705187559" lon="9.11203189752996">
<ele>449.6</ele>
<time>2024-05-10T15:18:00Z</time>
</trkpt>
<trkpt lat="49.49327082373202" lon="9.11207003518939">
<ele>449.8</ele>
<time>2024-05-10T15:18:01Z</time>
</trkpt>
<trkpt lat="49.493278451263905" lon="9.11211202852428">
<ele>449.8</ele>
<time>2024-05-10T15:18:02Z</time>
</trkpt>
<trkpt lat="49.49328607879579" lon="9.11215209402144">
<ele>450</ele>
<time>2024-05-10T15:18:03Z</time>
</trkpt>
<trkpt lat="49.49328993447125" lon="9.112195009365678">
<ele>450.2</ele>
<time>2024-05-10T15:18:04Z</time>
</trkpt>
<trkpt lat="49.49328993447125" lon="9.112226441502573">
<ele>450.4</ele>
<time>2024-05-10T15:18:05Z</time>
</trkpt>
<trkpt lat="49.49328993447125" lon="9.112259801477194">
<ele>450.6</ele>
<time>2024-05-10T15:18:06Z</time>
</trkpt>
<trkpt lat="49.49329370632768" lon="9.112297017127275">
<ele>450.8</ele>
<time>2024-05-10T15:18:07Z</time>
</trkpt>
<trkpt lat="49.493297562003136" lon="9.112341860309243">
<ele>451</ele>
<time>2024-05-10T15:18:08Z</time>
</trkpt>
<trkpt lat="49.49330518953502" lon="9.112386703491213">
<ele>451.2</ele>
<time>2024-05-10T15:18:09Z</time>
</trkpt>
<trkpt lat="49.49331281706691" lon="9.112431462854149">
<ele>451.4</ele>
<time>2024-05-10T15:18:10Z</time>
</trkpt>
<trkpt lat="49.493316588923335" lon="9.1124667506665">
<ele>451.8</ele>
<time>2024-05-10T15:18:11Z</time>
</trkpt>
<trkpt lat="49.493316588923335" lon="9.11250488832593">
<ele>452</ele>
<time>2024-05-10T15:18:12Z</time>
</trkpt>
<trkpt lat="49.493320444598794" lon="9.112540176138282">
<ele>452.2</ele>
<time>2024-05-10T15:18:13Z</time>
</trkpt>
<trkpt lat="49.49332807213068" lon="9.112574541941283">
<ele>452.4</ele>
<time>2024-05-10T15:18:14Z</time>
</trkpt>
<trkpt lat="49.493335699662566" lon="9.112616535276176">
<ele>452.6</ele>
<time>2024-05-10T15:18:15Z</time>
</trkpt>
<trkpt lat="49.49334332719445" lon="9.112651823088529">
<ele>452.8</ele>
<time>2024-05-10T15:18:16Z</time>
</trkpt>
<trkpt lat="49.49335095472634" lon="9.112694738432763">
<ele>453</ele>
<time>2024-05-10T15:18:17Z</time>
</trkpt>
<trkpt lat="49.493354726582766" lon="9.112734720110891">
<ele>453.2</ele>
<time>2024-05-10T15:18:18Z</time>
</trkpt>
<trkpt lat="49.493358582258224" lon="9.112770007923244">
<ele>453.4</ele>
<time>2024-05-10T15:18:19Z</time>
</trkpt>
<trkpt lat="49.49336235411465" lon="9.112806301563978">
<ele>453.6</ele>
<time>2024-05-10T15:18:20Z</time>
</trkpt>
<trkpt lat="49.49336998164654" lon="9.112852066755297">
<ele>453.8</ele>
<time>2024-05-10T15:18:21Z</time>
</trkpt>
<trkpt lat="49.49336998164654" lon="9.112891126424074">
<ele>454</ele>
<time>2024-05-10T15:18:22Z</time>
</trkpt>
<trkpt lat="49.493373837322" lon="9.112926414236426">
<ele>454</ele>
<time>2024-05-10T15:18:23Z</time>
</trkpt>
<trkpt lat="49.493377609178424" lon="9.11295692436397">
<ele>454.2</ele>
<time>2024-05-10T15:18:24Z</time>
</trkpt>
<trkpt lat="49.49338523671031" lon="9.112991290166974">
<ele>454.4</ele>
<time>2024-05-10T15:18:25Z</time>
</trkpt>
<trkpt lat="49.49340049177408" lon="9.113031355664134">
<ele>454.6</ele>
<time>2024-05-10T15:18:26Z</time>
</trkpt>
<trkpt lat="49.493415830656886" lon="9.113076198846102">
<ele>454.8</ele>
<time>2024-05-10T15:18:27Z</time>
</trkpt>
<trkpt lat="49.493434857577085" lon="9.113122886046767">
<ele>454.8</ele>
<time>2024-05-10T15:18:28Z</time>
</trkpt>
<trkpt lat="49.49344634078443" lon="9.113169657066464">
<ele>455</ele>
<time>2024-05-10T15:18:29Z</time>
</trkpt>
<trkpt lat="49.49345396831632" lon="9.113206788897514">
<ele>455.2</ele>
<time>2024-05-10T15:18:30Z</time>
</trkpt>
<trkpt lat="49.4934615958482" lon="9.113249704241753">
<ele>455.4</ele>
<time>2024-05-10T15:18:31Z</time>
</trkpt>
<trkpt lat="49.4934806227684" lon="9.113289769738913">
<ele>455.6</ele>
<time>2024-05-10T15:18:32Z</time>
</trkpt>
<trkpt lat="49.493495877832174" lon="9.11333654075861">
<ele>455.8</ele>
<time>2024-05-10T15:18:33Z</time>
</trkpt>
<trkpt lat="49.49350350536406" lon="9.113380378112195">
<ele>456</ele>
<time>2024-05-10T15:18:34Z</time>
</trkpt>
<trkpt lat="49.493514988571405" lon="9.113426143303514">
<ele>456.2</ele>
<time>2024-05-10T15:18:35Z</time>
</trkpt>
<trkpt lat="49.49352638795972" lon="9.11347291432321">
<ele>456.4</ele>
<time>2024-05-10T15:18:36Z</time>
</trkpt>
<trkpt lat="49.49354164302349" lon="9.113516751676798">
<ele>456.6</ele>
<time>2024-05-10T15:18:37Z</time>
</trkpt>
<trkpt lat="49.49356075376272" lon="9.113561594858766">
<ele>456.8</ele>
<time>2024-05-10T15:18:38Z</time>
</trkpt>
<trkpt lat="49.493576008826494" lon="9.113603588193657">
<ele>457</ele>
<time>2024-05-10T15:18:39Z</time>
</trkpt>
<trkpt lat="49.493591263890266" lon="9.113639798015356">
<ele>457.2</ele>
<time>2024-05-10T15:18:40Z</time>
</trkpt>
<trkpt lat="49.49360651895404" lon="9.113675085827708">
<ele>457.4</ele>
<time>2024-05-10T15:18:41Z</time>
</trkpt>
<trkpt lat="49.49362177401781" lon="9.11371129564941">
<ele>457.6</ele>
<time>2024-05-10T15:18:42Z</time>
</trkpt>
<trkpt lat="49.49363702908158" lon="9.113748511299493">
<ele>458</ele>
<time>2024-05-10T15:18:43Z</time>
</trkpt>
<trkpt lat="49.493652284145355" lon="9.113782877102494">
<ele>458.2</ele>
<time>2024-05-10T15:18:44Z</time>
</trkpt>
<trkpt lat="49.493671394884586" lon="9.11381338723004">
<ele>458.4</ele>
<time>2024-05-10T15:18:45Z</time>
</trkpt>
<trkpt lat="49.493694277480245" lon="9.113835263997316">
<ele>458.8</ele>
<time>2024-05-10T15:18:46Z</time>
</trkpt>
<trkpt lat="49.49371330440045" lon="9.113858146592976">
<ele>459</ele>
<time>2024-05-10T15:18:47Z</time>
</trkpt>
<trkpt lat="49.4937361869961" lon="9.113882957026362">
<ele>459.2</ele>
<time>2024-05-10T15:18:48Z</time>
</trkpt>
<trkpt lat="49.493751525878906" lon="9.113916317000983">
<ele>459.4</ele>
<time>2024-05-10T15:18:49Z</time>
</trkpt>
<trkpt lat="49.49376678094268" lon="9.113956382498143">
<ele>459.6</ele>
<time>2024-05-10T15:18:50Z</time>
</trkpt>
<trkpt lat="49.49378966353834" lon="9.113985048606992">
<ele>459.8</ele>
<time>2024-05-10T15:18:51Z</time>
</trkpt>
<trkpt lat="49.49380491860211" lon="9.114011703059075">
<ele>459.8</ele>
<time>2024-05-10T15:18:52Z</time>
</trkpt>
<trkpt lat="49.49382017366588" lon="9.114041291177273">
<ele>460</ele>
<time>2024-05-10T15:18:53Z</time>
</trkpt>
<trkpt lat="49.49383920058608" lon="9.114081356674433">
<ele>460.2</ele>
<time>2024-05-10T15:18:54Z</time>
</trkpt>
<trkpt lat="49.49385831132531" lon="9.114114716649055">
<ele>460.2</ele>
<time>2024-05-10T15:18:55Z</time>
</trkpt>
<trkpt lat="49.493869710713625" lon="9.11414329893887">
<ele>460.4</ele>
<time>2024-05-10T15:18:56Z</time>
</trkpt>
<trkpt lat="49.4938849657774" lon="9.11416333168745">
<ele>460.4</ele>
<time>2024-05-10T15:18:57Z</time>
</trkpt>
<trkpt lat="49.49389644898474" lon="9.11418529227376">
<ele>460.6</ele>
<time>2024-05-10T15:18:58Z</time>
</trkpt>
<trkpt lat="49.493911704048514" lon="9.114210102707148">
<ele>460.6</ele>
<time>2024-05-10T15:18:59Z</time>
</trkpt>
<trkpt lat="49.49393458664417" lon="9.114238684996964">
<ele>460.8</ele>
<time>2024-05-10T15:19:00Z</time>
</trkpt>
<trkpt lat="49.493949841707945" lon="9.114259639754891">
<ele>460.8</ele>
<time>2024-05-10T15:19:01Z</time>
</trkpt>
<trkpt lat="49.49396509677172" lon="9.1142816003412">
<ele>461</ele>
<time>2024-05-10T15:19:02Z</time>
</trkpt>
<trkpt lat="49.493991835042834" lon="9.114314960315824">
<ele>461.2</ele>
<time>2024-05-10T15:19:03Z</time>
</trkpt>
<trkpt lat="49.494026117026806" lon="9.11434362642467">
<ele>461.2</ele>
<time>2024-05-10T15:19:04Z</time>
</trkpt>
<trkpt lat="49.49405285529792" lon="9.11436173133552">
<ele>461.4</ele>
<time>2024-05-10T15:19:05Z</time>
</trkpt>
<trkpt lat="49.49407573789358" lon="9.11438369192183">
<ele>461.4</ele>
<time>2024-05-10T15:19:06Z</time>
</trkpt>
<trkpt lat="49.49409484863281" lon="9.114399868994951">
<ele>461.6</ele>
<time>2024-05-10T15:19:07Z</time>
</trkpt>
<trkpt lat="49.49412535876036" lon="9.114417051896451">
<ele>461.8</ele>
<time>2024-05-10T15:19:08Z</time>
</trkpt>
<trkpt lat="49.494148241356015" lon="9.114443706348538">
<ele>462</ele>
<time>2024-05-10T15:19:09Z</time>
</trkpt>
<trkpt lat="49.4941748958081" lon="9.114475222304463">
<ele>462.2</ele>
<time>2024-05-10T15:19:10Z</time>
</trkpt>
<trkpt lat="49.49419777840376" lon="9.114506654441357">
<ele>462.4</ele>
<time>2024-05-10T15:19:11Z</time>
</trkpt>
<trkpt lat="49.4942282885313" lon="9.114529537037017">
<ele>462.6</ele>
<time>2024-05-10T15:19:12Z</time>
</trkpt>
<trkpt lat="49.49425502680242" lon="9.114556275308132">
<ele>462.6</ele>
<time>2024-05-10T15:19:13Z</time>
</trkpt>
<trkpt lat="49.494285536929965" lon="9.114586785435677">
<ele>462.8</ele>
<time>2024-05-10T15:19:14Z</time>
</trkpt>
<trkpt lat="49.49431227520108" lon="9.114615367725492">
<ele>463</ele>
<time>2024-05-10T15:19:15Z</time>
</trkpt>
<trkpt lat="49.49433515779674" lon="9.114644955843689">
<ele>463.2</ele>
<time>2024-05-10T15:19:16Z</time>
</trkpt>
<trkpt lat="49.49435041286051" lon="9.114673538133502">
<ele>463.2</ele>
<time>2024-05-10T15:19:17Z</time>
</trkpt>
<trkpt lat="49.49437329545617" lon="9.114701198413968">
<ele>463.4</ele>
<time>2024-05-10T15:19:18Z</time>
</trkpt>
<trkpt lat="49.49438855051994" lon="9.11473648622632">
<ele>463.6</ele>
<time>2024-05-10T15:19:19Z</time>
</trkpt>
<trkpt lat="49.494403805583715" lon="9.114768002182243">
<ele>464</ele>
<time>2024-05-10T15:19:20Z</time>
</trkpt>
<trkpt lat="49.494426688179374" lon="9.114789962768556">
<ele>464.4</ele>
<time>2024-05-10T15:19:21Z</time>
</trkpt>
<trkpt lat="49.494445798918605" lon="9.114803289994596">
<ele>464.6</ele>
<time>2024-05-10T15:19:22Z</time>
</trkpt>
<trkpt lat="49.49445719830692" lon="9.114813767373562">
<ele>464.8</ele>
<time>2024-05-10T15:19:23Z</time>
</trkpt>
<trkpt lat="49.49447245337069" lon="9.114832878112791">
<ele>465</ele>
<time>2024-05-10T15:19:24Z</time>
</trkpt>
<trkpt lat="49.49449156410992" lon="9.11485475488007">
<ele>465</ele>
<time>2024-05-10T15:19:25Z</time>
</trkpt>
<trkpt lat="49.49451821856201" lon="9.11487671546638">
<ele>465.2</ele>
<time>2024-05-10T15:19:26Z</time>
</trkpt>
<trkpt lat="49.49452584609389" lon="9.114903369918466">
<ele>465.4</ele>
<time>2024-05-10T15:19:27Z</time>
</trkpt>
<trkpt lat="49.49453347362578" lon="9.114925330504777">
<ele>465.6</ele>
<time>2024-05-10T15:19:28Z</time>
</trkpt>
<trkpt lat="49.494560211896896" lon="9.114943435415626">
<ele>465.6</ele>
<time>2024-05-10T15:19:29Z</time>
</trkpt>
<trkpt lat="49.494583094492555" lon="9.114961624145508">
<ele>465.8</ele>
<time>2024-05-10T15:19:30Z</time>
</trkpt>
<trkpt lat="49.49459834955633" lon="9.114983500912786">
<ele>465.8</ele>
<time>2024-05-10T15:19:31Z</time>
</trkpt>
<trkpt lat="49.49460983276367" lon="9.11501501686871">
<ele>466</ele>
<time>2024-05-10T15:19:32Z</time>
</trkpt>
<trkpt lat="49.49462885968387" lon="9.115041671320796">
<ele>466.2</ele>
<time>2024-05-10T15:19:33Z</time>
</trkpt>
<trkpt lat="49.49465559795499" lon="9.11507318727672">
<ele>466.4</ele>
<time>2024-05-10T15:19:34Z</time>
</trkpt>
<trkpt lat="49.49468610808253" lon="9.115099841728806">
<ele>466.4</ele>
<time>2024-05-10T15:19:35Z</time>
</trkpt>
<trkpt lat="49.49471276253462" lon="9.115123730152844">
<ele>466.6</ele>
<time>2024-05-10T15:19:36Z</time>
</trkpt>
<trkpt lat="49.49473564513028" lon="9.115146612748504">
<ele>466.8</ele>
<time>2024-05-10T15:19:37Z</time>
</trkpt>
<trkpt lat="49.494758527725935" lon="9.115171423181891">
<ele>467</ele>
<time>2024-05-10T15:19:38Z</time>
</trkpt>
<trkpt lat="49.494777638465166" lon="9.115196149796247">
<ele>467.2</ele>
<time>2024-05-10T15:19:39Z</time>
</trkpt>
<trkpt lat="49.4947967492044" lon="9.11523336544633">
<ele>467.4</ele>
<time>2024-05-10T15:19:40Z</time>
</trkpt>
<trkpt lat="49.4948157761246" lon="9.115262953564525">
<ele>467.4</ele>
<time>2024-05-10T15:19:41Z</time>
</trkpt>
<trkpt lat="49.494838658720255" lon="9.115296313539147">
<ele>467.6</ele>
<time>2024-05-10T15:19:42Z</time>
</trkpt>
<trkpt lat="49.4948691688478" lon="9.115335457026958">
<ele>467.8</ele>
<time>2024-05-10T15:19:43Z</time>
</trkpt>
<trkpt lat="49.494899678975344" lon="9.1153678111732">
<ele>468</ele>
<time>2024-05-10T15:19:44Z</time>
</trkpt>
<trkpt lat="49.49492641724646" lon="9.115401254966857">
<ele>468</ele>
<time>2024-05-10T15:19:45Z</time>
</trkpt>
<trkpt lat="49.49495315551758" lon="9.115433692932127">
<ele>468.2</ele>
<time>2024-05-10T15:19:46Z</time>
</trkpt>
<trkpt lat="49.49497603811323" lon="9.115463197231293">
<ele>468.4</ele>
<time>2024-05-10T15:19:47Z</time>
</trkpt>
<trkpt lat="49.494998920708895" lon="9.115487085655332">
<ele>468.6</ele>
<time>2024-05-10T15:19:48Z</time>
</trkpt>
<trkpt lat="49.49502180330455" lon="9.11550804041326">
<ele>468.8</ele>
<time>2024-05-10T15:19:49Z</time>
</trkpt>
<trkpt lat="49.495037058368325" lon="9.115534778684378">
<ele>469</ele>
<time>2024-05-10T15:19:50Z</time>
</trkpt>
<trkpt lat="49.495056085288525" lon="9.115561433136463">
<ele>469.2</ele>
<time>2024-05-10T15:19:51Z</time>
</trkpt>
<trkpt lat="49.4950713403523" lon="9.115590015426278">
<ele>469.4</ele>
<time>2024-05-10T15:19:52Z</time>
</trkpt>
<trkpt lat="49.495094222947955" lon="9.115614825859666">
<ele>469.6</ele>
<time>2024-05-10T15:19:53Z</time>
</trkpt>
<trkpt lat="49.4951057061553" lon="9.11564826965332">
<ele>469.8</ele>
<time>2024-05-10T15:19:54Z</time>
</trkpt>
<trkpt lat="49.49512481689453" lon="9.115672996267676">
<ele>470</ele>
<time>2024-05-10T15:19:55Z</time>
</trkpt>
<trkpt lat="49.49514384381473" lon="9.1157045122236">
<ele>470.2</ele>
<time>2024-05-10T15:19:56Z</time>
</trkpt>
<trkpt lat="49.49516295455396" lon="9.115741727873685">
<ele>470.4</ele>
<time>2024-05-10T15:19:57Z</time>
</trkpt>
<trkpt lat="49.495178209617734" lon="9.115781709551811">
<ele>470.6</ele>
<time>2024-05-10T15:19:58Z</time>
</trkpt>
<trkpt lat="49.495193464681506" lon="9.115818003192544">
<ele>470.8</ele>
<time>2024-05-10T15:19:59Z</time>
</trkpt>
<trkpt lat="49.495216347277164" lon="9.115853291004896">
<ele>471</ele>
<time>2024-05-10T15:20:00Z</time>
</trkpt>
<trkpt lat="49.49523160234094" lon="9.11588665097952">
<ele>471</ele>
<time>2024-05-10T15:20:01Z</time>
</trkpt>
<trkpt lat="49.495250629261136" lon="9.115920010954142">
<ele>471.2</ele>
<time>2024-05-10T15:20:02Z</time>
</trkpt>
<trkpt lat="49.495273511856794" lon="9.11594482138753">
<ele>471.2</ele>
<time>2024-05-10T15:20:03Z</time>
</trkpt>
<trkpt lat="49.49529647827149" lon="9.11596678197384">
<ele>471.4</ele>
<time>2024-05-10T15:20:04Z</time>
</trkpt>
<trkpt lat="49.49531173333526" lon="9.115993436425924">
<ele>471.6</ele>
<time>2024-05-10T15:20:05Z</time>
</trkpt>
<trkpt lat="49.49532313272357" lon="9.116020174697042">
<ele>471.6</ele>
<time>2024-05-10T15:20:06Z</time>
</trkpt>
<trkpt lat="49.49534601531923" lon="9.116046829149129">
<ele>471.8</ele>
<time>2024-05-10T15:20:07Z</time>
</trkpt>
<trkpt lat="49.495361270383" lon="9.11608119495213">
<ele>472</ele>
<time>2024-05-10T15:20:08Z</time>
</trkpt>
<trkpt lat="49.495372753590345" lon="9.116106927394869">
<ele>472.2</ele>
<time>2024-05-10T15:20:09Z</time>
</trkpt>
<trkpt lat="49.495391780510545" lon="9.116134587675331">
<ele>472.4</ele>
<time>2024-05-10T15:20:10Z</time>
</trkpt>
<trkpt lat="49.49540703557432" lon="9.11616325378418">
<ele>472.6</ele>
<time>2024-05-10T15:20:11Z</time>
</trkpt>
<trkpt lat="49.49542614631355" lon="9.116187980398536">
<ele>472.8</ele>
<time>2024-05-10T15:20:12Z</time>
</trkpt>
<trkpt lat="49.49544140137732" lon="9.11621849052608">
<ele>473</ele>
<time>2024-05-10T15:20:13Z</time>
</trkpt>
<trkpt lat="49.495452800765634" lon="9.116246150806546">
<ele>473.2</ele>
<time>2024-05-10T15:20:14Z</time>
</trkpt>
<trkpt lat="49.49546813964844" lon="9.116274816915393">
<ele>473.4</ele>
<time>2024-05-10T15:20:15Z</time>
</trkpt>
<trkpt lat="49.49548339471221" lon="9.116306249052286">
<ele>473.6</ele>
<time>2024-05-10T15:20:16Z</time>
</trkpt>
<trkpt lat="49.49549479410052" lon="9.11633675917983">
<ele>474</ele>
<time>2024-05-10T15:20:17Z</time>
</trkpt>
<trkpt lat="49.49551767669618" lon="9.116363497450948">
<ele>474.2</ele>
<time>2024-05-10T15:20:18Z</time>
</trkpt>
<trkpt lat="49.49553293175995" lon="9.11639777943492">
<ele>474.4</ele>
<time>2024-05-10T15:20:19Z</time>
</trkpt>
<trkpt lat="49.495548186823726" lon="9.116428373381495">
<ele>474.6</ele>
<time>2024-05-10T15:20:20Z</time>
</trkpt>
<trkpt lat="49.49558255262673" lon="9.116491237655282">
<ele>474.6</ele>
<time>2024-05-10T15:20:22Z</time>
</trkpt>
<trkpt lat="49.49560157954693" lon="9.116524681448936">
<ele>474.8</ele>
<time>2024-05-10T15:20:23Z</time>
</trkpt>
<trkpt lat="49.49562069028616" lon="9.116561813279986">
<ele>475</ele>
<time>2024-05-10T15:20:24Z</time>
</trkpt>
<trkpt lat="49.49563208967447" lon="9.116593329235911">
<ele>475</ele>
<time>2024-05-10T15:20:25Z</time>
</trkpt>
<trkpt lat="49.495651200413704" lon="9.116626689210534">
<ele>475</ele>
<time>2024-05-10T15:20:26Z</time>
</trkpt>
<trkpt lat="49.49566268362105" lon="9.116660049185157">
<ele>475</ele>
<time>2024-05-10T15:20:27Z</time>
</trkpt>
<trkpt lat="49.49568171054125" lon="9.116695336997507">
<ele>475.2</ele>
<time>2024-05-10T15:20:28Z</time>
</trkpt>
<trkpt lat="49.49570082128048" lon="9.116722997277977">
<ele>475.2</ele>
<time>2024-05-10T15:20:29Z</time>
</trkpt>
<trkpt lat="49.49571984820068" lon="9.1167545132339">
<ele>475.4</ele>
<time>2024-05-10T15:20:30Z</time>
</trkpt>
<trkpt lat="49.49573510326445" lon="9.116781167685986">
<ele>475.6</ele>
<time>2024-05-10T15:20:31Z</time>
</trkpt>
<trkpt lat="49.49575035832822" lon="9.116809833794832">
<ele>476</ele>
<time>2024-05-10T15:20:32Z</time>
</trkpt>
<trkpt lat="49.495769469067454" lon="9.116838416084647">
<ele>476.2</ele>
<time>2024-05-10T15:20:33Z</time>
</trkpt>
<trkpt lat="49.49578472413123" lon="9.116865154355764">
<ele>476.6</ele>
<time>2024-05-10T15:20:34Z</time>
</trkpt>
<trkpt lat="49.495799979195" lon="9.116901364177464">
<ele>476.8</ele>
<time>2024-05-10T15:20:35Z</time>
</trkpt>
<trkpt lat="49.49581908993423" lon="9.116938579827549">
<ele>477</ele>
<time>2024-05-10T15:20:36Z</time>
</trkpt>
<trkpt lat="49.49584197252989" lon="9.116983339190485">
<ele>477.4</ele>
<time>2024-05-10T15:20:37Z</time>
</trkpt>
<trkpt lat="49.49586099945009" lon="9.11702625453472">
<ele>477.6</ele>
<time>2024-05-10T15:20:38Z</time>
</trkpt>
<trkpt lat="49.49588011018932" lon="9.11706632003188">
<ele>477.6</ele>
<time>2024-05-10T15:20:39Z</time>
</trkpt>
<trkpt lat="49.49589536525309" lon="9.117104457691312">
<ele>477.8</ele>
<time>2024-05-10T15:20:40Z</time>
</trkpt>
<trkpt lat="49.49591439217329" lon="9.11714837886393">
<ele>478</ele>
<time>2024-05-10T15:20:41Z</time>
</trkpt>
<trkpt lat="49.49592964723706" lon="9.117183666676285">
<ele>478.2</ele>
<time>2024-05-10T15:20:42Z</time>
</trkpt>
<trkpt lat="49.49594113044441" lon="9.117219876497984">
<ele>478.4</ele>
<time>2024-05-10T15:20:43Z</time>
</trkpt>
<trkpt lat="49.49595638550818" lon="9.117257092148066">
<ele>478.8</ele>
<time>2024-05-10T15:20:44Z</time>
</trkpt>
<trkpt lat="49.49596778489649" lon="9.117284752428532">
<ele>479</ele>
<time>2024-05-10T15:20:45Z</time>
</trkpt>
<trkpt lat="49.49597926810384" lon="9.117311406880615">
<ele>479.2</ele>
<time>2024-05-10T15:20:46Z</time>
</trkpt>
<trkpt lat="49.49598689563573" lon="9.117340072989464">
<ele>479.4</ele>
<time>2024-05-10T15:20:47Z</time>
</trkpt>
<trkpt lat="49.49599837884307" lon="9.117373432964088">
<ele>479.6</ele>
<time>2024-05-10T15:20:48Z</time>
</trkpt>
<trkpt lat="49.496006006374955" lon="9.11740872077644">
<ele>479.8</ele>
<time>2024-05-10T15:20:49Z</time>
</trkpt>
<trkpt lat="49.49602126143873" lon="9.117435375228524">
<ele>480</ele>
<time>2024-05-10T15:20:50Z</time>
</trkpt>
<trkpt lat="49.49603266082704" lon="9.117461191490293">
<ele>480.2</ele>
<time>2024-05-10T15:20:51Z</time>
</trkpt>
<trkpt lat="49.49604028835893" lon="9.117489773780107">
<ele>480.2</ele>
<time>2024-05-10T15:20:52Z</time>
</trkpt>
<trkpt lat="49.49605177156627" lon="9.11752313375473">
<ele>480.4</ele>
<time>2024-05-10T15:20:53Z</time>
</trkpt>
<trkpt lat="49.496063170954585" lon="9.117553643882276">
<ele>480.6</ele>
<time>2024-05-10T15:20:54Z</time>
</trkpt>
<trkpt lat="49.49607842601836" lon="9.117580382153392">
<ele>480.8</ele>
<time>2024-05-10T15:20:55Z</time>
</trkpt>
<trkpt lat="49.4960899092257" lon="9.117614664137363">
<ele>480.8</ele>
<time>2024-05-10T15:20:56Z</time>
</trkpt>
<trkpt lat="49.496105164289474" lon="9.117651879787443">
<ele>481</ele>
<time>2024-05-10T15:20:57Z</time>
</trkpt>
<trkpt lat="49.49611656367779" lon="9.117690017446876">
<ele>481.2</ele>
<time>2024-05-10T15:20:58Z</time>
</trkpt>
<trkpt lat="49.496124191209674" lon="9.11772346124053">
<ele>481.4</ele>
<time>2024-05-10T15:20:59Z</time>
</trkpt>
<trkpt lat="49.49613181874156" lon="9.117745338007808">
<ele>481.4</ele>
<time>2024-05-10T15:21:00Z</time>
</trkpt>
<trkpt lat="49.496143301948905" lon="9.117774926126003">
<ele>481.6</ele>
<time>2024-05-10T15:21:01Z</time>
</trkpt>
<trkpt lat="49.49615478515625" lon="9.11780166439712">
<ele>481.8</ele>
<time>2024-05-10T15:21:02Z</time>
</trkpt>
<trkpt lat="49.496162412688136" lon="9.117853129282594">
<ele>482</ele>
<time>2024-05-10T15:21:03Z</time>
</trkpt>
<trkpt lat="49.49617766775191" lon="9.117883639410138">
<ele>482.2</ele>
<time>2024-05-10T15:21:04Z</time>
</trkpt>
<trkpt lat="49.49620055034757" lon="9.117915071547031">
<ele>482.4</ele>
<time>2024-05-10T15:21:05Z</time>
</trkpt>
<trkpt lat="49.49621580541134" lon="9.117951365187764">
<ele>482.6</ele>
<time>2024-05-10T15:21:06Z</time>
</trkpt>
<trkpt lat="49.49622720479965" lon="9.117986653000116">
<ele>482.6</ele>
<time>2024-05-10T15:21:07Z</time>
</trkpt>
<trkpt lat="49.496242459863424" lon="9.11801808513701">
<ele>482.8</ele>
<time>2024-05-10T15:21:08Z</time>
</trkpt>
<trkpt lat="49.49625394307077" lon="9.118051528930664">
<ele>483</ele>
<time>2024-05-10T15:21:09Z</time>
</trkpt>
<trkpt lat="49.49627682566643" lon="9.11807818338275">
<ele>483.2</ele>
<time>2024-05-10T15:21:10Z</time>
</trkpt>
<trkpt lat="49.496299708262086" lon="9.11809821613133">
<ele>483.4</ele>
<time>2024-05-10T15:21:11Z</time>
</trkpt>
<trkpt lat="49.4963111076504" lon="9.118124954402449">
<ele>483.6</ele>
<time>2024-05-10T15:21:12Z</time>
</trkpt>
<trkpt lat="49.4963264465332" lon="9.11815445870161">
<ele>483.8</ele>
<time>2024-05-10T15:21:13Z</time>
</trkpt>
<trkpt lat="49.496341701596975" lon="9.118189746513965">
<ele>484</ele>
<time>2024-05-10T15:21:14Z</time>
</trkpt>
<trkpt lat="49.496360728517175" lon="9.118226962164044">
<ele>484.2</ele>
<time>2024-05-10T15:21:15Z</time>
</trkpt>
<trkpt lat="49.496379839256406" lon="9.118265099823477">
<ele>484.4</ele>
<time>2024-05-10T15:21:16Z</time>
</trkpt>
<trkpt lat="49.496398866176605" lon="9.118301309645176">
<ele>484.6</ele>
<time>2024-05-10T15:21:17Z</time>
</trkpt>
<trkpt lat="49.49641797691584" lon="9.118345230817797">
<ele>484.8</ele>
<time>2024-05-10T15:21:18Z</time>
</trkpt>
<trkpt lat="49.49643323197961" lon="9.118379512801766">
<ele>485</ele>
<time>2024-05-10T15:21:19Z</time>
</trkpt>
<trkpt lat="49.49644848704338" lon="9.118419578298926">
<ele>485</ele>
<time>2024-05-10T15:21:20Z</time>
</trkpt>
<trkpt lat="49.49646751396358" lon="9.11845486611128">
<ele>485.2</ele>
<time>2024-05-10T15:21:21Z</time>
</trkpt>
<trkpt lat="49.496478997170925" lon="9.118486382067204">
<ele>485.4</ele>
<time>2024-05-10T15:21:22Z</time>
</trkpt>
<trkpt lat="49.49649810791016" lon="9.118517814204097">
<ele>485.6</ele>
<time>2024-05-10T15:21:23Z</time>
</trkpt>
<trkpt lat="49.49651336297393" lon="9.118555029854178">
<ele>485.8</ele>
<time>2024-05-10T15:21:24Z</time>
</trkpt>
<trkpt lat="49.4965286180377" lon="9.11859123967588">
<ele>485.8</ele>
<time>2024-05-10T15:21:25Z</time>
</trkpt>
<trkpt lat="49.496540017426014" lon="9.11862845532596">
<ele>486</ele>
<time>2024-05-10T15:21:26Z</time>
</trkpt>
<trkpt lat="49.496555272489786" lon="9.118658043444157">
<ele>486.2</ele>
<time>2024-05-10T15:21:27Z</time>
</trkpt>
<trkpt lat="49.49657052755356" lon="9.118693331256509">
<ele>486.2</ele>
<time>2024-05-10T15:21:28Z</time>
</trkpt>
<trkpt lat="49.49658578261733" lon="9.118726691231132">
<ele>486.2</ele>
<time>2024-05-10T15:21:29Z</time>
</trkpt>
<trkpt lat="49.4966010376811" lon="9.118758123368025">
<ele>486.4</ele>
<time>2024-05-10T15:21:30Z</time>
</trkpt>
<trkpt lat="49.49661252088845" lon="9.118786789476871">
<ele>486.4</ele>
<time>2024-05-10T15:21:31Z</time>
</trkpt>
<trkpt lat="49.49663154780865" lon="9.118818221613765">
<ele>486.6</ele>
<time>2024-05-10T15:21:32Z</time>
</trkpt>
<trkpt lat="49.49664680287242" lon="9.11884973756969">
<ele>486.8</ele>
<time>2024-05-10T15:21:33Z</time>
</trkpt>
<trkpt lat="49.49666205793619" lon="9.118876392021775">
<ele>487.2</ele>
<time>2024-05-10T15:21:34Z</time>
</trkpt>
<trkpt lat="49.496677396818995" lon="9.118905058130622">
<ele>487.4</ele>
<time>2024-05-10T15:21:35Z</time>
</trkpt>
<trkpt lat="49.49668879620731" lon="9.118929784744978">
<ele>487.6</ele>
<time>2024-05-10T15:21:36Z</time>
</trkpt>
<trkpt lat="49.49670405127108" lon="9.11894696764648">
<ele>487.8</ele>
<time>2024-05-10T15:21:37Z</time>
</trkpt>
<trkpt lat="49.49671930633485" lon="9.118976555764675">
<ele>488</ele>
<time>2024-05-10T15:21:38Z</time>
</trkpt>
<trkpt lat="49.49672693386674" lon="9.119007987901568">
<ele>488.2</ele>
<time>2024-05-10T15:21:39Z</time>
</trkpt>
<trkpt lat="49.49674218893051" lon="9.119034726172686">
<ele>488.2</ele>
<time>2024-05-10T15:21:40Z</time>
</trkpt>
<trkpt lat="49.49675744399429" lon="9.119070013985038">
<ele>488.4</ele>
<time>2024-05-10T15:21:41Z</time>
</trkpt>
<trkpt lat="49.496772699058056" lon="9.119112929329276">
<ele>488.4</ele>
<time>2024-05-10T15:21:42Z</time>
</trkpt>
<trkpt lat="49.49679180979729" lon="9.11914536729455">
<ele>488.6</ele>
<time>2024-05-10T15:21:43Z</time>
</trkpt>
<trkpt lat="49.49680706486106" lon="9.119174955412744">
<ele>488.8</ele>
<time>2024-05-10T15:21:44Z</time>
</trkpt>
<trkpt lat="49.49682609178126" lon="9.11920546554029">
<ele>488.8</ele>
<time>2024-05-10T15:21:45Z</time>
</trkpt>
<trkpt lat="49.49684143066406" lon="9.119231197983028">
<ele>489</ele>
<time>2024-05-10T15:21:46Z</time>
</trkpt>
<trkpt lat="49.496852830052376" lon="9.11925978027284">
<ele>489.2</ele>
<time>2024-05-10T15:21:47Z</time>
</trkpt>
<trkpt lat="49.49686808511615" lon="9.119295068085194">
<ele>489.4</ele>
<time>2024-05-10T15:21:48Z</time>
</trkpt>
<trkpt lat="49.49688334017992" lon="9.11932180635631">
<ele>489.6</ele>
<time>2024-05-10T15:21:49Z</time>
</trkpt>
<trkpt lat="49.49691007845104" lon="9.119353238493204">
<ele>489.6</ele>
<time>2024-05-10T15:21:50Z</time>
</trkpt>
<trkpt lat="49.49692910537124" lon="9.1193828266114">
<ele>489.8</ele>
<time>2024-05-10T15:21:51Z</time>
</trkpt>
<trkpt lat="49.49694821611047" lon="9.119408559054136">
<ele>490</ele>
<time>2024-05-10T15:21:52Z</time>
</trkpt>
<trkpt lat="49.496971098706126" lon="9.119435297325252">
<ele>490.2</ele>
<time>2024-05-10T15:21:53Z</time>
</trkpt>
<trkpt lat="49.496990125626326" lon="9.119464801624416">
<ele>490.2</ele>
<time>2024-05-10T15:21:54Z</time>
</trkpt>
<trkpt lat="49.49700923636556" lon="9.11950008943677">
<ele>490.4</ele>
<time>2024-05-10T15:21:55Z</time>
</trkpt>
<trkpt lat="49.49702834710479" lon="9.1195382270962">
<ele>490.4</ele>
<time>2024-05-10T15:21:56Z</time>
</trkpt>
<trkpt lat="49.49704360216856" lon="9.119573514908552">
<ele>490.6</ele>
<time>2024-05-10T15:21:57Z</time>
</trkpt>
<trkpt lat="49.49706648476422" lon="9.119603103026748">
<ele>490.6</ele>
<time>2024-05-10T15:21:58Z</time>
</trkpt>
<trkpt lat="49.49708551168442" lon="9.119633613154292">
<ele>490.8</ele>
<time>2024-05-10T15:21:59Z</time>
</trkpt>
<trkpt lat="49.49710076674819" lon="9.119665129110215">
<ele>491</ele>
<time>2024-05-10T15:22:00Z</time>
</trkpt>
<trkpt lat="49.49711602181196" lon="9.11969463340938">
<ele>491.2</ele>
<time>2024-05-10T15:22:01Z</time>
</trkpt>
<trkpt lat="49.49713513255119" lon="9.119728077203035">
<ele>491.4</ele>
<time>2024-05-10T15:22:02Z</time>
</trkpt>
<trkpt lat="49.49715801514685" lon="9.119761437177658">
<ele>491.6</ele>
<time>2024-05-10T15:22:03Z</time>
</trkpt>
<trkpt lat="49.497173270210624" lon="9.119788091629744">
<ele>491.8</ele>
<time>2024-05-10T15:22:04Z</time>
</trkpt>
<trkpt lat="49.4971885252744" lon="9.11981868557632">
<ele>492</ele>
<time>2024-05-10T15:22:05Z</time>
</trkpt>
<trkpt lat="49.49720763601363" lon="9.119848189875484">
<ele>492</ele>
<time>2024-05-10T15:22:06Z</time>
</trkpt>
<trkpt lat="49.497226662933826" lon="9.119883477687836">
<ele>492.2</ele>
<time>2024-05-10T15:22:07Z</time>
</trkpt>
<trkpt lat="49.49723814614117" lon="9.119911137968302">
<ele>492.4</ele>
<time>2024-05-10T15:22:08Z</time>
</trkpt>
<trkpt lat="49.49725717306137" lon="9.119941648095846">
<ele>492.6</ele>
<time>2024-05-10T15:22:09Z</time>
</trkpt>
<trkpt lat="49.49727242812514" lon="9.119968386366963">
<ele>492.8</ele>
<time>2024-05-10T15:22:10Z</time>
</trkpt>
<trkpt lat="49.497287683188915" lon="9.11999797448516">
<ele>493</ele>
<time>2024-05-10T15:22:11Z</time>
</trkpt>
<trkpt lat="49.497306793928146" lon="9.120026556774974">
<ele>493.2</ele>
<time>2024-05-10T15:22:12Z</time>
</trkpt>
<trkpt lat="49.49732204899192" lon="9.120057066902518">
<ele>493.4</ele>
<time>2024-05-10T15:22:13Z</time>
</trkpt>
<trkpt lat="49.49733730405569" lon="9.120088499039412">
<ele>493.6</ele>
<time>2024-05-10T15:22:14Z</time>
</trkpt>
<trkpt lat="49.49735255911946" lon="9.120120014995337">
<ele>493.8</ele>
<time>2024-05-10T15:22:15Z</time>
</trkpt>
<trkpt lat="49.49737544171512" lon="9.120149603113532">
<ele>494</ele>
<time>2024-05-10T15:22:16Z</time>
</trkpt>
<trkpt lat="49.49739455245435" lon="9.120181957259774">
<ele>494.4</ele>
<time>2024-05-10T15:22:17Z</time>
</trkpt>
<trkpt lat="49.49741357937455" lon="9.1202134732157">
<ele>494.6</ele>
<time>2024-05-10T15:22:18Z</time>
</trkpt>
<trkpt lat="49.49743646197021" lon="9.120243061333897">
<ele>494.8</ele>
<time>2024-05-10T15:22:19Z</time>
</trkpt>
<trkpt lat="49.49745557270944" lon="9.12027164362371">
<ele>495</ele>
<time>2024-05-10T15:22:20Z</time>
</trkpt>
<trkpt lat="49.49747459962964" lon="9.120296454057096">
<ele>495</ele>
<time>2024-05-10T15:22:21Z</time>
</trkpt>
<trkpt lat="49.4974974822253" lon="9.12032788619399">
<ele>495.2</ele>
<time>2024-05-10T15:22:22Z</time>
</trkpt>
<trkpt lat="49.49751659296453" lon="9.120361246168612">
<ele>495.2</ele>
<time>2024-05-10T15:22:23Z</time>
</trkpt>
<trkpt lat="49.4975318480283" lon="9.120396533980966">
<ele>495.4</ele>
<time>2024-05-10T15:22:24Z</time>
</trkpt>
<trkpt lat="49.49755473062396" lon="9.120425200089812">
<ele>495.4</ele>
<time>2024-05-10T15:22:25Z</time>
</trkpt>
<trkpt lat="49.49756998568773" lon="9.120452860370278">
<ele>495.6</ele>
<time>2024-05-10T15:22:26Z</time>
</trkpt>
<trkpt lat="49.49759286828339" lon="9.120483370497825">
<ele>495.8</ele>
<time>2024-05-10T15:22:27Z</time>
</trkpt>
<trkpt lat="49.49761575087905" lon="9.120510024949908">
<ele>496</ele>
<time>2024-05-10T15:22:28Z</time>
</trkpt>
<trkpt lat="49.49763486161828" lon="9.120534835383296">
<ele>496.2</ele>
<time>2024-05-10T15:22:29Z</time>
</trkpt>
<trkpt lat="49.49765011668205" lon="9.120558723807337">
<ele>496.4</ele>
<time>2024-05-10T15:22:30Z</time>
</trkpt>
<trkpt lat="49.497661516070366" lon="9.120581606402991">
<ele>496.6</ele>
<time>2024-05-10T15:22:31Z</time>
</trkpt>
<trkpt lat="49.497684398666024" lon="9.12060641683638">
<ele>496.8</ele>
<time>2024-05-10T15:22:32Z</time>
</trkpt>
<trkpt lat="49.49769973754883" lon="9.120636926963924">
<ele>496.8</ele>
<time>2024-05-10T15:22:33Z</time>
</trkpt>
<trkpt lat="49.497722620144486" lon="9.120664587244391">
<ele>497</ele>
<time>2024-05-10T15:22:34Z</time>
</trkpt>
<trkpt lat="49.49774927459657" lon="9.120699875056744">
<ele>497.2</ele>
<time>2024-05-10T15:22:35Z</time>
</trkpt>
<trkpt lat="49.49777215719223" lon="9.120739856734872">
<ele>497.2</ele>
<time>2024-05-10T15:22:36Z</time>
</trkpt>
<trkpt lat="49.497802667319775" lon="9.120778078213334">
<ele>497.4</ele>
<time>2024-05-10T15:22:37Z</time>
</trkpt>
<trkpt lat="49.49782940559089" lon="9.120806660503147">
<ele>497.4</ele>
<time>2024-05-10T15:22:38Z</time>
</trkpt>
<trkpt lat="49.49785606004298" lon="9.120836248621345">
<ele>497.6</ele>
<time>2024-05-10T15:22:39Z</time>
</trkpt>
<trkpt lat="49.49788665398955" lon="9.120868602767588">
<ele>497.6</ele>
<time>2024-05-10T15:22:40Z</time>
</trkpt>
<trkpt lat="49.49791330844164" lon="9.120898190885782">
<ele>497.8</ele>
<time>2024-05-10T15:22:41Z</time>
</trkpt>
<trkpt lat="49.49794004671275" lon="9.120928701013328">
<ele>498</ele>
<time>2024-05-10T15:22:42Z</time>
</trkpt>
<trkpt lat="49.49795530177653" lon="9.12096499465406">
<ele>498.2</ele>
<time>2024-05-10T15:22:43Z</time>
</trkpt>
<trkpt lat="49.4979705568403" lon="9.120994498953223">
<ele>498.4</ele>
<time>2024-05-10T15:22:44Z</time>
</trkpt>
<trkpt lat="49.4979895837605" lon="9.121031714603305">
<ele>498.6</ele>
<time>2024-05-10T15:22:45Z</time>
</trkpt>
<trkpt lat="49.49801246635616" lon="9.121067002415655">
<ele>498.6</ele>
<time>2024-05-10T15:22:46Z</time>
</trkpt>
<trkpt lat="49.49803157709539" lon="9.12110036239028">
<ele>498.8</ele>
<time>2024-05-10T15:22:47Z</time>
</trkpt>
<trkpt lat="49.49805445969105" lon="9.121125172823668">
<ele>499</ele>
<time>2024-05-10T15:22:48Z</time>
</trkpt>
<trkpt lat="49.498077342286706" lon="9.121151911094785">
<ele>499.4</ele>
<time>2024-05-10T15:22:49Z</time>
</trkpt>
<trkpt lat="49.49810022488237" lon="9.121185271069407">
<ele>499.6</ele>
<time>2024-05-10T15:22:50Z</time>
</trkpt>
<trkpt lat="49.49812310747802" lon="9.1212167032063">
<ele>499.8</ele>
<time>2024-05-10T15:22:51Z</time>
</trkpt>
<trkpt lat="49.498142218217254" lon="9.121251991018651">
<ele>500</ele>
<time>2024-05-10T15:22:52Z</time>
</trkpt>
<trkpt lat="49.49816510081291" lon="9.121292056515813">
<ele>500.2</ele>
<time>2024-05-10T15:22:53Z</time>
</trkpt>
<trkpt lat="49.49818798340857" lon="9.121328350156546">
<ele>500.4</ele>
<time>2024-05-10T15:22:54Z</time>
</trkpt>
<trkpt lat="49.49821086600423" lon="9.121364559978248">
<ele>500.6</ele>
<time>2024-05-10T15:22:55Z</time>
</trkpt>
<trkpt lat="49.49823374859989" lon="9.12139791995287">
<ele>500.6</ele>
<time>2024-05-10T15:22:56Z</time>
</trkpt>
<trkpt lat="49.49825285933912" lon="9.121431279927492">
<ele>500.6</ele>
<time>2024-05-10T15:22:57Z</time>
</trkpt>
<trkpt lat="49.49826811440289" lon="9.121461790055037">
<ele>500.8</ele>
<time>2024-05-10T15:22:58Z</time>
</trkpt>
<trkpt lat="49.498294768854976" lon="9.121486600488424">
<ele>500.8</ele>
<time>2024-05-10T15:22:59Z</time>
</trkpt>
<trkpt lat="49.49832527898252" lon="9.121511410921812">
<ele>500.8</ele>
<time>2024-05-10T15:23:00Z</time>
</trkpt>
<trkpt lat="49.49834816157818" lon="9.121535299345853">
<ele>501</ele>
<time>2024-05-10T15:23:01Z</time>
</trkpt>
<trkpt lat="49.49837104417384" lon="9.1215552482754">
<ele>501</ele>
<time>2024-05-10T15:23:02Z</time>
</trkpt>
<trkpt lat="49.49839401058853" lon="9.12157628685236">
<ele>501.2</ele>
<time>2024-05-10T15:23:03Z</time>
</trkpt>
<trkpt lat="49.498416893184185" lon="9.121598163619636">
<ele>501.2</ele>
<time>2024-05-10T15:23:04Z</time>
</trkpt>
<trkpt lat="49.49843977577984" lon="9.12161635234952">
<ele>501.4</ele>
<time>2024-05-10T15:23:05Z</time>
</trkpt>
<trkpt lat="49.49846643023193" lon="9.12163345143199">
<ele>501.6</ele>
<time>2024-05-10T15:23:06Z</time>
</trkpt>
<trkpt lat="49.498493168503046" lon="9.121648706495762">
<ele>501.8</ele>
<time>2024-05-10T15:23:07Z</time>
</trkpt>
<trkpt lat="49.498516051098704" lon="9.121658261865376">
<ele>502</ele>
<time>2024-05-10T15:23:08Z</time>
</trkpt>
<trkpt lat="49.49853893369436" lon="9.121666895225644">
<ele>502</ele>
<time>2024-05-10T15:23:09Z</time>
</trkpt>
<trkpt lat="49.49856567196548" lon="9.12167452275753">
<ele>502.2</ele>
<time>2024-05-10T15:23:10Z</time>
</trkpt>
<trkpt lat="49.498592326417565" lon="9.121680222451689">
<ele>502.4</ele>
<time>2024-05-10T15:23:11Z</time>
</trkpt>
<trkpt lat="49.49861906468868" lon="9.121683072298763">
<ele>502.6</ele>
<time>2024-05-10T15:23:12Z</time>
</trkpt>
<trkpt lat="49.49864571914077" lon="9.121683072298763">
<ele>502.8</ele>
<time>2024-05-10T15:23:13Z</time>
</trkpt>
<trkpt lat="49.49868008494377" lon="9.121681144461036">
<ele>503</ele>
<time>2024-05-10T15:23:14Z</time>
</trkpt>
<trkpt lat="49.49870673939586" lon="9.121676366776228">
<ele>503.2</ele>
<time>2024-05-10T15:23:15Z</time>
</trkpt>
<trkpt lat="49.49872970581055" lon="9.121669745072722">
<ele>503.2</ele>
<time>2024-05-10T15:23:16Z</time>
</trkpt>
<trkpt lat="49.498752588406205" lon="9.1216554120183">
<ele>503.4</ele>
<time>2024-05-10T15:23:17Z</time>
</trkpt>
<trkpt lat="49.49877924285829" lon="9.121640156954529">
<ele>503.6</ele>
<time>2024-05-10T15:23:18Z</time>
</trkpt>
<trkpt lat="49.498809752985835" lon="9.121629679575562">
<ele>503.6</ele>
<time>2024-05-10T15:23:19Z</time>
</trkpt>
<trkpt lat="49.49883649125695" lon="9.121618196368216">
<ele>503.8</ele>
<time>2024-05-10T15:23:20Z</time>
</trkpt>
<trkpt lat="49.49885937385261" lon="9.121604869142176">
<ele>503.8</ele>
<time>2024-05-10T15:23:21Z</time>
</trkpt>
<trkpt lat="49.49888225644827" lon="9.12159346975386">
<ele>504</ele>
<time>2024-05-10T15:23:22Z</time>
</trkpt>
<trkpt lat="49.4989013671875" lon="9.121580058708789">
<ele>504.2</ele>
<time>2024-05-10T15:23:23Z</time>
</trkpt>
<trkpt lat="49.4989203941077" lon="9.121568659320474">
<ele>504.2</ele>
<time>2024-05-10T15:23:24Z</time>
</trkpt>
<trkpt lat="49.49893564917147" lon="9.12155818194151">
<ele>504.4</ele>
<time>2024-05-10T15:23:25Z</time>
</trkpt>
<trkpt lat="49.49895853176713" lon="9.121549548581244">
<ele>504.6</ele>
<time>2024-05-10T15:23:26Z</time>
</trkpt>
<trkpt lat="49.49898141436279" lon="9.121531443670392">
<ele>504.8</ele>
<time>2024-05-10T15:23:27Z</time>
</trkpt>
<trkpt lat="49.499008152633905" lon="9.121509483084084">
<ele>504.8</ele>
<time>2024-05-10T15:23:28Z</time>
</trkpt>
<trkpt lat="49.49903103522957" lon="9.121490456163883">
<ele>505</ele>
<time>2024-05-10T15:23:29Z</time>
</trkpt>
<trkpt lat="49.49905768968165" lon="9.121471345424652">
<ele>505</ele>
<time>2024-05-10T15:23:30Z</time>
</trkpt>
<trkpt lat="49.499084427952766" lon="9.121453240513802">
<ele>505.4</ele>
<time>2024-05-10T15:23:31Z</time>
</trkpt>
<trkpt lat="49.499107310548425" lon="9.121431279927492">
<ele>505.4</ele>
<time>2024-05-10T15:23:32Z</time>
</trkpt>
<trkpt lat="49.49913019314408" lon="9.121411247178912">
<ele>505.8</ele>
<time>2024-05-10T15:23:33Z</time>
</trkpt>
<trkpt lat="49.499149303883314" lon="9.121384592726828">
<ele>506</ele>
<time>2024-05-10T15:23:34Z</time>
</trkpt>
<trkpt lat="49.499164558947086" lon="9.12135785445571">
<ele>506.2</ele>
<time>2024-05-10T15:23:35Z</time>
</trkpt>
<trkpt lat="49.49917981401086" lon="9.121330194175243">
<ele>506.4</ele>
<time>2024-05-10T15:23:36Z</time>
</trkpt>
<trkpt lat="49.49919884093106" lon="9.121306389570236">
<ele>506.6</ele>
<time>2024-05-10T15:23:37Z</time>
</trkpt>
<trkpt lat="49.49922172352672" lon="9.121288284659386">
<ele>506.8</ele>
<time>2024-05-10T15:23:38Z</time>
</trkpt>
<trkpt lat="49.499244689941406" lon="9.121272023767231">
<ele>507</ele>
<time>2024-05-10T15:23:39Z</time>
</trkpt>
<trkpt lat="49.49927134439349" lon="9.121252996847034">
<ele>507.2</ele>
<time>2024-05-10T15:23:40Z</time>
</trkpt>
<trkpt lat="49.49929045513272" lon="9.121234891936185">
<ele>507.4</ele>
<time>2024-05-10T15:23:41Z</time>
</trkpt>
<trkpt lat="49.49931710958481" lon="9.121214859187605">
<ele>507.6</ele>
<time>2024-05-10T15:23:42Z</time>
</trkpt>
<trkpt lat="49.49935147538781" lon="9.121194826439025">
<ele>507.8</ele>
<time>2024-05-10T15:23:43Z</time>
</trkpt>
<trkpt lat="49.49938198551536" lon="9.121171943843365">
<ele>508.2</ele>
<time>2024-05-10T15:23:44Z</time>
</trkpt>
<trkpt lat="49.499404868111014" lon="9.121149983257055">
<ele>508.4</ele>
<time>2024-05-10T15:23:45Z</time>
</trkpt>
<trkpt lat="49.499423978850245" lon="9.121125172823668">
<ele>508.6</ele>
<time>2024-05-10T15:23:46Z</time>
</trkpt>
<trkpt lat="49.499446861445904" lon="9.121098518371582">
<ele>508.6</ele>
<time>2024-05-10T15:23:47Z</time>
</trkpt>
<trkpt lat="49.4994658883661" lon="9.121074629947543">
<ele>508.8</ele>
<time>2024-05-10T15:23:48Z</time>
</trkpt>
<trkpt lat="49.49949639849365" lon="9.121053675189614">
<ele>509</ele>
<time>2024-05-10T15:23:49Z</time>
</trkpt>
<trkpt lat="49.499519281089306" lon="9.121033642441034">
<ele>509.2</ele>
<time>2024-05-10T15:23:50Z</time>
</trkpt>
<trkpt lat="49.49954979121685" lon="9.121016459539533">
<ele>509.2</ele>
<time>2024-05-10T15:23:51Z</time>
</trkpt>
<trkpt lat="49.49957652948797" lon="9.121000282466412">
<ele>509.4</ele>
<time>2024-05-10T15:23:52Z</time>
</trkpt>
<trkpt lat="49.49961089529097" lon="9.120978321880102">
<ele>509.6</ele>
<time>2024-05-10T15:23:53Z</time>
</trkpt>
<trkpt lat="49.49964517727494" lon="9.12096499465406">
<ele>509.8</ele>
<time>2024-05-10T15:23:54Z</time>
</trkpt>
<trkpt lat="49.49968331493437" lon="9.120948733761908">
<ele>510</ele>
<time>2024-05-10T15:23:55Z</time>
</trkpt>
<trkpt lat="49.49971005320549" lon="9.120929706841707">
<ele>510.4</ele>
<time>2024-05-10T15:23:56Z</time>
</trkpt>
<trkpt lat="49.499736707657576" lon="9.120909674093127">
<ele>510.6</ele>
<time>2024-05-10T15:23:57Z</time>
</trkpt>
<trkpt lat="49.49976344592869" lon="9.120889641344547">
<ele>510.8</ele>
<time>2024-05-10T15:23:58Z</time>
</trkpt>
<trkpt lat="49.49979018419981" lon="9.120869608595967">
<ele>511</ele>
<time>2024-05-10T15:23:59Z</time>
</trkpt>
<trkpt lat="49.499816838651896" lon="9.120846726000307">
<ele>511.2</ele>
<time>2024-05-10T15:24:00Z</time>
</trkpt>
<trkpt lat="49.49984357692301" lon="9.12082191556692">
<ele>511.2</ele>
<time>2024-05-10T15:24:01Z</time>
</trkpt>
<trkpt lat="49.49987408705056" lon="9.12080280482769">
<ele>511.4</ele>
<time>2024-05-10T15:24:02Z</time>
</trkpt>
<trkpt lat="49.49990836903453" lon="9.1207885555923">
<ele>511.4</ele>
<time>2024-05-10T15:24:03Z</time>
</trkpt>
<trkpt lat="49.49994273483753" lon="9.120770450681448">
<ele>511.6</ele>
<time>2024-05-10T15:24:04Z</time>
</trkpt>
<trkpt lat="49.49997324496507" lon="9.120751339942217">
<ele>511.8</ele>
<time>2024-05-10T15:24:05Z</time>
</trkpt>
<trkpt lat="49.499999983236194" lon="9.120735162869096">
<ele>512</ele>
<time>2024-05-10T15:24:06Z</time>
</trkpt>
<trkpt lat="49.50003049336374" lon="9.120717979967594">
<ele>512.2</ele>
<time>2024-05-10T15:24:07Z</time>
</trkpt>
<trkpt lat="49.50006477534771" lon="9.120699875056744">
<ele>512.4</ele>
<time>2024-05-10T15:24:08Z</time>
</trkpt>
<trkpt lat="49.500095285475254" lon="9.12068168632686">
<ele>512.599</ele>
<time>2024-05-10T15:24:09Z</time>
</trkpt>
<trkpt lat="49.50012587942183" lon="9.120659809559584">
<ele>512.8</ele>
<time>2024-05-10T15:24:10Z</time>
</trkpt>
<trkpt lat="49.50015253387392" lon="9.120637848973274">
<ele>513</ele>
<time>2024-05-10T15:24:11Z</time>
</trkpt>
<trkpt lat="49.50018304400146" lon="9.120617816224694">
<ele>513.2</ele>
<time>2024-05-10T15:24:12Z</time>
</trkpt>
<trkpt lat="49.50020978227258" lon="9.120598789304497">
<ele>513.4</ele>
<time>2024-05-10T15:24:13Z</time>
</trkpt>
<trkpt lat="49.50024029240012" lon="9.120578756555917">
<ele>513.599</ele>
<time>2024-05-10T15:24:14Z</time>
</trkpt>
<trkpt lat="49.50026694685221" lon="9.120558723807337">
<ele>513.8</ele>
<time>2024-05-10T15:24:15Z</time>
</trkpt>
<trkpt lat="49.50029754079878" lon="9.120538691058757">
<ele>514</ele>
<time>2024-05-10T15:24:16Z</time>
</trkpt>
<trkpt lat="49.50032805092633" lon="9.120518658310177">
<ele>514.2</ele>
<time>2024-05-10T15:24:17Z</time>
</trkpt>
<trkpt lat="49.50035856105387" lon="9.120499547570944">
<ele>514.4</ele>
<time>2024-05-10T15:24:18Z</time>
</trkpt>
<trkpt lat="49.50038907118142" lon="9.120479514822364">
<ele>514.599</ele>
<time>2024-05-10T15:24:19Z</time>
</trkpt>
<trkpt lat="49.50041958130896" lon="9.120459482073784">
<ele>514.599</ele>
<time>2024-05-10T15:24:20Z</time>
</trkpt>
<trkpt lat="49.50044631958008" lon="9.120438527315857">
<ele>514.8</ele>
<time>2024-05-10T15:24:21Z</time>
</trkpt>
<trkpt lat="49.50047682970762" lon="9.120414722710848">
<ele>515</ele>
<time>2024-05-10T15:24:22Z</time>
</trkpt>
<trkpt lat="49.50050733983517" lon="9.12039184011519">
<ele>515.2</ele>
<time>2024-05-10T15:24:23Z</time>
</trkpt>
<trkpt lat="49.50053784996271" lon="9.12037180736661">
<ele>515.2</ele>
<time>2024-05-10T15:24:24Z</time>
</trkpt>
<trkpt lat="49.500568360090256" lon="9.1203498467803">
<ele>515.2</ele>
<time>2024-05-10T15:24:25Z</time>
</trkpt>
<trkpt lat="49.50059501454234" lon="9.12033174186945">
<ele>515.4</ele>
<time>2024-05-10T15:24:26Z</time>
</trkpt>
<trkpt lat="49.50062175281346" lon="9.1203136369586">
<ele>515.4</ele>
<time>2024-05-10T15:24:27Z</time>
</trkpt>
<trkpt lat="49.500652262941" lon="9.120294526219368">
<ele>515.4</ele>
<time>2024-05-10T15:24:28Z</time>
</trkpt>
<trkpt lat="49.50067900121212" lon="9.120274493470788">
<ele>515.599</ele>
<time>2024-05-10T15:24:29Z</time>
</trkpt>
<trkpt lat="49.50070188380778" lon="9.120255466550589">
<ele>515.599</ele>
<time>2024-05-10T15:24:30Z</time>
</trkpt>
<trkpt lat="49.500728538259864" lon="9.12023350596428">
<ele>515.8</ele>
<time>2024-05-10T15:24:31Z</time>
</trkpt>
<trkpt lat="49.50075527653098" lon="9.12021154537797">
<ele>515.8</ele>
<time>2024-05-10T15:24:32Z</time>
</trkpt>
<trkpt lat="49.50078193098307" lon="9.12019151262939">
<ele>515.8</ele>
<time>2024-05-10T15:24:33Z</time>
</trkpt>
<trkpt lat="49.500808669254184" lon="9.12017147988081">
<ele>516</ele>
<time>2024-05-10T15:24:34Z</time>
</trkpt>
<trkpt lat="49.50083155184984" lon="9.120149603113532">
<ele>516</ele>
<time>2024-05-10T15:24:35Z</time>
</trkpt>
<trkpt lat="49.50085829012096" lon="9.120128564536572">
<ele>516.2</ele>
<time>2024-05-10T15:24:36Z</time>
</trkpt>
<trkpt lat="49.500884944573045" lon="9.120104759931564">
<ele>516.2</ele>
<time>2024-05-10T15:24:37Z</time>
</trkpt>
<trkpt lat="49.50091545470059" lon="9.120082799345257">
<ele>516.4</ele>
<time>2024-05-10T15:24:38Z</time>
</trkpt>
<trkpt lat="49.500942192971706" lon="9.120061844587326">
<ele>516.599</ele>
<time>2024-05-10T15:24:39Z</time>
</trkpt>
<trkpt lat="49.50097270309925" lon="9.120043739676476">
<ele>516.599</ele>
<time>2024-05-10T15:24:40Z</time>
</trkpt>
<trkpt lat="49.501003213226795" lon="9.120024628937244">
<ele>516.8</ele>
<time>2024-05-10T15:24:41Z</time>
</trkpt>
<trkpt lat="49.50103372335434" lon="9.120008451864123">
<ele>516.8</ele>
<time>2024-05-10T15:24:42Z</time>
</trkpt>
<trkpt lat="49.50106423348189" lon="9.119990346953273">
<ele>516.8</ele>
<time>2024-05-10T15:24:43Z</time>
</trkpt>
<trkpt lat="49.50109474360943" lon="9.119970314204693">
<ele>517</ele>
<time>2024-05-10T15:24:44Z</time>
</trkpt>
<trkpt lat="49.50112525373697" lon="9.119951203465462">
<ele>517</ele>
<time>2024-05-10T15:24:45Z</time>
</trkpt>
<trkpt lat="49.50115584768355" lon="9.11993502639234">
<ele>517.2</ele>
<time>2024-05-10T15:24:46Z</time>
</trkpt>
<trkpt lat="49.50118635781109" lon="9.119916837662458">
<ele>517.2</ele>
<time>2024-05-10T15:24:47Z</time>
</trkpt>
<trkpt lat="49.50121686793864" lon="9.119901582598686">
<ele>517.4</ele>
<time>2024-05-10T15:24:48Z</time>
</trkpt>
<trkpt lat="49.50124737806618" lon="9.119888255372643">
<ele>517.599</ele>
<time>2024-05-10T15:24:49Z</time>
</trkpt>
<trkpt lat="49.50127403251827" lon="9.1198749281466">
<ele>517.599</ele>
<time>2024-05-10T15:24:50Z</time>
</trkpt>
<trkpt lat="49.501300770789385" lon="9.119863444939256">
<ele>517.8</ele>
<time>2024-05-10T15:24:51Z</time>
</trkpt>
<trkpt lat="49.50133128091693" lon="9.119850117713211">
<ele>518</ele>
<time>2024-05-10T15:24:52Z</time>
</trkpt>
<trkpt lat="49.501361791044474" lon="9.119841568171978">
<ele>518.2</ele>
<time>2024-05-10T15:24:53Z</time>
</trkpt>
<trkpt lat="49.50138852931559" lon="9.119832012802362">
<ele>518.4</ele>
<time>2024-05-10T15:24:54Z</time>
</trkpt>
<trkpt lat="49.50141141191125" lon="9.119821535423398">
<ele>518.8</ele>
<time>2024-05-10T15:24:55Z</time>
</trkpt>
<trkpt lat="49.501441922038794" lon="9.119811980053782">
<ele>519</ele>
<time>2024-05-10T15:24:56Z</time>
</trkpt>
<trkpt lat="49.50147243216634" lon="9.119803346693516">
<ele>519.2</ele>
<time>2024-05-10T15:24:57Z</time>
</trkpt>
<trkpt lat="49.501499170437455" lon="9.11979672499001">
<ele>519.4</ele>
<time>2024-05-10T15:24:58Z</time>
</trkpt>
<trkpt lat="49.501529680565" lon="9.119792869314551">
<ele>519.8</ele>
<time>2024-05-10T15:24:59Z</time>
</trkpt>
<trkpt lat="49.501556335017085" lon="9.119791947305202">
<ele>520</ele>
<time>2024-05-10T15:25:00Z</time>
</trkpt>
<trkpt lat="49.50159070082009" lon="9.119790019467471">
<ele>520.4</ele>
<time>2024-05-10T15:25:01Z</time>
</trkpt>
<trkpt lat="49.50162121094763" lon="9.119786247611046">
<ele>520.599</ele>
<time>2024-05-10T15:25:02Z</time>
</trkpt>
<trkpt lat="49.50165172107518" lon="9.119786247611046">
<ele>520.8</ele>
<time>2024-05-10T15:25:03Z</time>
</trkpt>
<trkpt lat="49.50168608687818" lon="9.119785241782663">
<ele>521.2</ele>
<time>2024-05-10T15:25:04Z</time>
</trkpt>
<trkpt lat="49.50172036886215" lon="9.119783397763968">
<ele>521.4</ele>
<time>2024-05-10T15:25:05Z</time>
</trkpt>
<trkpt lat="49.50175850652158" lon="9.119788091629744">
<ele>521.599</ele>
<time>2024-05-10T15:25:06Z</time>
</trkpt>
<trkpt lat="49.501792872324586" lon="9.119792869314551">
<ele>521.8</ele>
<time>2024-05-10T15:25:07Z</time>
</trkpt>
<trkpt lat="49.50182723812759" lon="9.11979672499001">
<ele>522</ele>
<time>2024-05-10T15:25:08Z</time>
</trkpt>
<trkpt lat="49.50186152011156" lon="9.119799574837089">
<ele>522.4</ele>
<time>2024-05-10T15:25:09Z</time>
</trkpt>
<trkpt lat="49.50189588591456" lon="9.119805274531243">
<ele>522.599</ele>
<time>2024-05-10T15:25:10Z</time>
</trkpt>
<trkpt lat="49.501930167898536" lon="9.119811980053782">
<ele>522.8</ele>
<time>2024-05-10T15:25:11Z</time>
</trkpt>
<trkpt lat="49.50196067802608" lon="9.119821535423398">
<ele>523.2</ele>
<time>2024-05-10T15:25:12Z</time>
</trkpt>
<trkpt lat="49.501991271972656" lon="9.119832012802362">
<ele>523.599</ele>
<time>2024-05-10T15:25:13Z</time>
</trkpt>
<trkpt lat="49.5020217821002" lon="9.119843412190676">
<ele>524</ele>
<time>2024-05-10T15:25:14Z</time>
</trkpt>
<trkpt lat="49.502052292227745" lon="9.11985682323575">
<ele>524.4</ele>
<time>2024-05-10T15:25:15Z</time>
</trkpt>
<trkpt lat="49.50208657421172" lon="9.119870150461791">
<ele>524.8</ele>
<time>2024-05-10T15:25:16Z</time>
</trkpt>
<trkpt lat="49.50211708433926" lon="9.119886327534914">
<ele>525.2</ele>
<time>2024-05-10T15:25:17Z</time>
</trkpt>
<trkpt lat="49.502147594466805" lon="9.119901582598686">
<ele>525.6</ele>
<time>2024-05-10T15:25:18Z</time>
</trkpt>
<trkpt lat="49.50218196026981" lon="9.119919771328568">
<ele>526</ele>
<time>2024-05-10T15:25:19Z</time>
</trkpt>
<trkpt lat="49.50221247039735" lon="9.119939804077148">
<ele>526.2</ele>
<time>2024-05-10T15:25:20Z</time>
</trkpt>
<trkpt lat="49.50224683620036" lon="9.119959753006697">
<ele>526.4</ele>
<time>2024-05-10T15:25:21Z</time>
</trkpt>
<trkpt lat="49.5022773463279" lon="9.119983641430736">
<ele>526.8</ele>
<time>2024-05-10T15:25:22Z</time>
</trkpt>
<trkpt lat="49.502304000779986" lon="9.120008451864123">
<ele>527</ele>
<time>2024-05-10T15:25:23Z</time>
</trkpt>
<trkpt lat="49.502330739051104" lon="9.120033262297513">
<ele>527.2</ele>
<time>2024-05-10T15:25:24Z</time>
</trkpt>
<trkpt lat="49.50236124917865" lon="9.120057988911867">
<ele>527.4</ele>
<time>2024-05-10T15:25:25Z</time>
</trkpt>
<trkpt lat="49.502384131774306" lon="9.120086655020714">
<ele>527.6</ele>
<time>2024-05-10T15:25:26Z</time>
</trkpt>
<trkpt lat="49.502407014369965" lon="9.120116159319878">
<ele>528</ele>
<time>2024-05-10T15:25:27Z</time>
</trkpt>
<trkpt lat="49.50243375264108" lon="9.120144825428724">
<ele>528</ele>
<time>2024-05-10T15:25:28Z</time>
</trkpt>
<trkpt lat="49.50246040709317" lon="9.120175335556269">
<ele>528.2</ele>
<time>2024-05-10T15:25:29Z</time>
</trkpt>
<trkpt lat="49.502483289688826" lon="9.120204923674464">
<ele>528.4</ele>
<time>2024-05-10T15:25:30Z</time>
</trkpt>
<trkpt lat="49.50250625610352" lon="9.120235433802009">
<ele>528.6</ele>
<time>2024-05-10T15:25:31Z</time>
</trkpt>
<trkpt lat="49.502529138699174" lon="9.12026778794825">
<ele>528.8</ele>
<time>2024-05-10T15:25:32Z</time>
</trkpt>
<trkpt lat="49.50254816561937" lon="9.120301231741903">
<ele>529</ele>
<time>2024-05-10T15:25:33Z</time>
</trkpt>
<trkpt lat="49.50257104821503" lon="9.120338363572955">
<ele>529.2</ele>
<time>2024-05-10T15:25:34Z</time>
</trkpt>
<trkpt lat="49.50259015895426" lon="9.120378429070117">
<ele>529.4</ele>
<time>2024-05-10T15:25:35Z</time>
</trkpt>
<trkpt lat="49.50260918587446" lon="9.120423272252085">
<ele>529.4</ele>
<time>2024-05-10T15:25:36Z</time>
</trkpt>
<trkpt lat="49.502624440938234" lon="9.12046811543405">
<ele>529.6</ele>
<time>2024-05-10T15:25:37Z</time>
</trkpt>
<trkpt lat="49.50263969600201" lon="9.120516730472444">
<ele>530</ele>
<time>2024-05-10T15:25:38Z</time>
</trkpt>
<trkpt lat="49.50265117920935" lon="9.120563501492144">
<ele>530.2</ele>
<time>2024-05-10T15:25:39Z</time>
</trkpt>
<trkpt lat="49.502662578597665" lon="9.120611110702155">
<ele>530.4</ele>
<time>2024-05-10T15:25:40Z</time>
</trkpt>
<trkpt lat="49.50267791748047" lon="9.120657881721854">
<ele>530.6</ele>
<time>2024-05-10T15:25:41Z</time>
</trkpt>
<trkpt lat="49.50268931686878" lon="9.12070456892252">
<ele>530.8</ele>
<time>2024-05-10T15:25:42Z</time>
</trkpt>
<trkpt lat="49.50270080007613" lon="9.120750417932868">
<ele>531</ele>
<time>2024-05-10T15:25:43Z</time>
</trkpt>
<trkpt lat="49.50271219946444" lon="9.120798110961914">
<ele>531.4</ele>
<time>2024-05-10T15:25:44Z</time>
</trkpt>
<trkpt lat="49.502719826996326" lon="9.12084479816258">
<ele>531.6</ele>
<time>2024-05-10T15:25:45Z</time>
</trkpt>
<trkpt lat="49.5027350820601" lon="9.120893413200974">
<ele>531.8</ele>
<time>2024-05-10T15:25:46Z</time>
</trkpt>
<trkpt lat="49.50274656526744" lon="9.120940184220672">
<ele>532</ele>
<time>2024-05-10T15:25:47Z</time>
</trkpt>
<trkpt lat="49.50275796465576" lon="9.120989721268415">
<ele>532.2</ele>
<time>2024-05-10T15:25:48Z</time>
</trkpt>
<trkpt lat="49.5027694478631" lon="9.121038420125842">
<ele>532.4</ele>
<time>2024-05-10T15:25:49Z</time>
</trkpt>
<trkpt lat="49.502780847251415" lon="9.121083179488778">
<ele>532.6</ele>
<time>2024-05-10T15:25:50Z</time>
</trkpt>
<trkpt lat="49.50279233045876" lon="9.121131878346205">
<ele>532.6</ele>
<time>2024-05-10T15:25:51Z</time>
</trkpt>
<trkpt lat="49.502799957990646" lon="9.121183343231678">
<ele>532.8</ele>
<time>2024-05-10T15:25:52Z</time>
</trkpt>
<trkpt lat="49.50280758552253" lon="9.121231958270071">
<ele>532.8</ele>
<time>2024-05-10T15:25:53Z</time>
</trkpt>
<trkpt lat="49.502818984910846" lon="9.121283506974578">
<ele>533</ele>
<time>2024-05-10T15:25:54Z</time>
</trkpt>
<trkpt lat="49.50282661244273" lon="9.121334971860051">
<ele>533.2</ele>
<time>2024-05-10T15:25:55Z</time>
</trkpt>
<trkpt lat="49.50283809565008" lon="9.121386520564556">
<ele>533.4</ele>
<time>2024-05-10T15:25:56Z</time>
</trkpt>
<trkpt lat="49.50285335071385" lon="9.12143991328776">
<ele>533.4</ele>
<time>2024-05-10T15:25:57Z</time>
</trkpt>
<trkpt lat="49.502860978245735" lon="9.121495233848693">
<ele>533.6</ele>
<time>2024-05-10T15:25:58Z</time>
</trkpt>
<trkpt lat="49.50287246145308" lon="9.121549548581244">
<ele>533.8</ele>
<time>2024-05-10T15:25:59Z</time>
</trkpt>
<trkpt lat="49.50288771651685" lon="9.121604869142176">
<ele>533.8</ele>
<time>2024-05-10T15:26:00Z</time>
</trkpt>
<trkpt lat="49.502902971580625" lon="9.121660189703109">
<ele>533.8</ele>
<time>2024-05-10T15:26:01Z</time>
</trkpt>
<trkpt lat="49.50291437096894" lon="9.12171358242631">
<ele>534</ele>
<time>2024-05-10T15:26:02Z</time>
</trkpt>
<trkpt lat="49.50292585417628" lon="9.121766975149512">
<ele>534</ele>
<time>2024-05-10T15:26:03Z</time>
</trkpt>
<trkpt lat="49.50293725356459" lon="9.121820367872717">
<ele>534</ele>
<time>2024-05-10T15:26:04Z</time>
</trkpt>
<trkpt lat="49.50294873677194" lon="9.121874766424298">
<ele>534.2</ele>
<time>2024-05-10T15:26:05Z</time>
</trkpt>
<trkpt lat="49.502960136160254" lon="9.12193201482296">
<ele>534.2</ele>
<time>2024-05-10T15:26:06Z</time>
</trkpt>
<trkpt lat="49.5029716193676" lon="9.121992029249668">
<ele>534.4</ele>
<time>2024-05-10T15:26:07Z</time>
</trkpt>
<trkpt lat="49.50298301875591" lon="9.12205028347671">
<ele>534.4</ele>
<time>2024-05-10T15:26:08Z</time>
</trkpt>
<trkpt lat="49.50299450196326" lon="9.1221113037318">
<ele>534.6</ele>
<time>2024-05-10T15:26:09Z</time>
</trkpt>
<trkpt lat="49.50300590135157" lon="9.122175173833966">
<ele>534.6</ele>
<time>2024-05-10T15:26:10Z</time>
</trkpt>
<trkpt lat="49.50300975702703" lon="9.122236194089057">
<ele>534.8</ele>
<time>2024-05-10T15:26:11Z</time>
</trkpt>
<trkpt lat="49.50300975702703" lon="9.122300148010254">
<ele>534.8</ele>
<time>2024-05-10T15:26:12Z</time>
</trkpt>
<trkpt lat="49.50301352888346" lon="9.12236494012177">
<ele>534.8</ele>
<time>2024-05-10T15:26:13Z</time>
</trkpt>
<trkpt lat="49.50300975702703" lon="9.122427888214588">
<ele>535</ele>
<time>2024-05-10T15:26:14Z</time>
</trkpt>
<trkpt lat="49.50300975702703" lon="9.122487986460328">
<ele>535</ele>
<time>2024-05-10T15:26:15Z</time>
</trkpt>
<trkpt lat="49.50301352888346" lon="9.122549928724766">
<ele>535</ele>
<time>2024-05-10T15:26:16Z</time>
</trkpt>
<trkpt lat="49.50301352888346" lon="9.122614804655312">
<ele>535.2</ele>
<time>2024-05-10T15:26:17Z</time>
</trkpt>
<trkpt lat="49.50300975702703" lon="9.12267867475748">
<ele>535.2</ele>
<time>2024-05-10T15:26:18Z</time>
</trkpt>
<trkpt lat="49.503002129495144" lon="9.1227416228503">
<ele>535.4</ele>
<time>2024-05-10T15:26:19Z</time>
</trkpt>
<trkpt lat="49.502998273819685" lon="9.122804570943115">
<ele>535.4</ele>
<time>2024-05-10T15:26:20Z</time>
</trkpt>
<trkpt lat="49.50299450196326" lon="9.122870368883014">
<ele>535.6</ele>
<time>2024-05-10T15:26:21Z</time>
</trkpt>
<trkpt lat="49.50299450196326" lon="9.12293616682291">
<ele>535.6</ele>
<time>2024-05-10T15:26:22Z</time>
</trkpt>
<trkpt lat="49.502998273819685" lon="9.12299819290638">
<ele>535.6</ele>
<time>2024-05-10T15:26:23Z</time>
</trkpt>
<trkpt lat="49.50300590135157" lon="9.123060218989847">
<ele>535.8</ele>
<time>2024-05-10T15:26:24Z</time>
</trkpt>
<trkpt lat="49.50300975702703" lon="9.123121239244938">
<ele>535.8</ele>
<time>2024-05-10T15:26:25Z</time>
</trkpt>
<trkpt lat="49.50301352888346" lon="9.123183181509376">
<ele>535.8</ele>
<time>2024-05-10T15:26:26Z</time>
</trkpt>
<trkpt lat="49.503021240234375" lon="9.123247135430574">
<ele>535.8</ele>
<time>2024-05-10T15:26:27Z</time>
</trkpt>
<trkpt lat="49.50302886776626" lon="9.123314777389169">
<ele>536</ele>
<time>2024-05-10T15:26:28Z</time>
</trkpt>
<trkpt lat="49.50303649529815" lon="9.123383508995175">
<ele>536</ele>
<time>2024-05-10T15:26:29Z</time>
</trkpt>
<trkpt lat="49.50305175036192" lon="9.1234530787915">
<ele>536</ele>
<time>2024-05-10T15:26:30Z</time>
</trkpt>
<trkpt lat="49.50306314975023" lon="9.123521726578474">
<ele>536</ele>
<time>2024-05-10T15:26:31Z</time>
</trkpt>
<trkpt lat="49.503078404814005" lon="9.12359045818448">
<ele>536</ele>
<time>2024-05-10T15:26:32Z</time>
</trkpt>
<trkpt lat="49.50309365987778" lon="9.123656256124375">
<ele>536.2</ele>
<time>2024-05-10T15:26:33Z</time>
</trkpt>
<trkpt lat="49.50312417000532" lon="9.123718198388817">
<ele>536.2</ele>
<time>2024-05-10T15:26:34Z</time>
</trkpt>
<trkpt lat="49.503154680132866" lon="9.123778296634557">
<ele>536.4</ele>
<time>2024-05-10T15:26:35Z</time>
</trkpt>
<trkpt lat="49.50318519026041" lon="9.123838394880297">
<ele>536.4</ele>
<time>2024-05-10T15:26:36Z</time>
</trkpt>
<trkpt lat="49.50322341173887" lon="9.123896565288304">
<ele>536.4</ele>
<time>2024-05-10T15:26:37Z</time>
</trkpt>
<trkpt lat="49.50325769372285" lon="9.123952807858586">
<ele>536.6</ele>
<time>2024-05-10T15:26:38Z</time>
</trkpt>
<trkpt lat="49.503295831382275" lon="9.124006200581787">
<ele>536.6</ele>
<time>2024-05-10T15:26:39Z</time>
</trkpt>
<trkpt lat="49.503333969041705" lon="9.124054899439216">
<ele>536.6</ele>
<time>2024-05-10T15:26:40Z</time>
</trkpt>
<trkpt lat="49.50337219052017" lon="9.124098736792805">
<ele>536.6</ele>
<time>2024-05-10T15:26:41Z</time>
</trkpt>
<trkpt lat="49.5034103281796" lon="9.124139724299312">
<ele>536.6</ele>
<time>2024-05-10T15:26:42Z</time>
</trkpt>
<trkpt lat="49.50344846583903" lon="9.12418456748128">
<ele>536.8</ele>
<time>2024-05-10T15:26:43Z</time>
</trkpt>
<trkpt lat="49.50348660349846" lon="9.12422362715006">
<ele>536.8</ele>
<time>2024-05-10T15:26:44Z</time>
</trkpt>
<trkpt lat="49.50352474115789" lon="9.124257070943711">
<ele>536.8</ele>
<time>2024-05-10T15:26:45Z</time>
</trkpt>
<trkpt lat="49.50356287881732" lon="9.1242837253958">
<ele>536.8</ele>
<time>2024-05-10T15:26:46Z</time>
</trkpt>
<trkpt lat="49.50360487215221" lon="9.124313313513994">
<ele>536.8</ele>
<time>2024-05-10T15:26:47Z</time>
</trkpt>
<trkpt lat="49.50364678166807" lon="9.124344745650887">
<ele>536.8</ele>
<time>2024-05-10T15:26:48Z</time>
</trkpt>
<trkpt lat="49.50368877500296" lon="9.124378189444542">
<ele>536.8</ele>
<time>2024-05-10T15:26:49Z</time>
</trkpt>
<trkpt lat="49.50373839586973" lon="9.124415321275592">
<ele>536.6</ele>
<time>2024-05-10T15:26:50Z</time>
</trkpt>
<trkpt lat="49.503791788592935" lon="9.124451614916325">
<ele>536.6</ele>
<time>2024-05-10T15:26:51Z</time>
</trkpt>
<trkpt lat="49.50383755378425" lon="9.124491680413485">
<ele>536.4</ele>
<time>2024-05-10T15:26:52Z</time>
</trkpt>
<trkpt lat="49.50388331897557" lon="9.12454029545188">
<ele>536.4</ele>
<time>2024-05-10T15:26:53Z</time>
</trkpt>
<trkpt lat="49.50392908416688" lon="9.124593688175082">
<ele>536.2</ele>
<time>2024-05-10T15:26:54Z</time>
</trkpt>
<trkpt lat="49.5039748493582" lon="9.124654708430173">
<ele>536</ele>
<time>2024-05-10T15:26:55Z</time>
</trkpt>
<trkpt lat="49.50401298701763" lon="9.124726289883256">
<ele>535.8</ele>
<time>2024-05-10T15:26:56Z</time>
</trkpt>
<trkpt lat="49.504047352820635" lon="9.12479493767023">
<ele>535.6</ele>
<time>2024-05-10T15:26:57Z</time>
</trkpt>
<trkpt lat="49.50408171862364" lon="9.124866435304284">
<ele>535.4</ele>
<time>2024-05-10T15:26:58Z</time>
</trkpt>
<trkpt lat="49.50411222875118" lon="9.124937010928988">
<ele>535.2</ele>
<time>2024-05-10T15:26:59Z</time>
</trkpt>
<trkpt lat="49.50415036641061" lon="9.125001886859536">
<ele>535</ele>
<time>2024-05-10T15:27:00Z</time>
</trkpt>
<trkpt lat="49.50419613160193" lon="9.125069612637162">
<ele>534.8</ele>
<time>2024-05-10T15:27:01Z</time>
</trkpt>
<trkpt lat="49.50423812493682" lon="9.125142032280564">
<ele>534.6</ele>
<time>2024-05-10T15:27:02Z</time>
</trkpt>
<trkpt lat="49.50428003445268" lon="9.12521361373365">
<ele>534.6</ele>
<time>2024-05-10T15:27:03Z</time>
</trkpt>
<trkpt lat="49.50431817211211" lon="9.125283183529971">
<ele>534.4</ele>
<time>2024-05-10T15:27:04Z</time>
</trkpt>
<trkpt lat="49.50435630977154" lon="9.125352837145329">
<ele>534.4</ele>
<time>2024-05-10T15:27:05Z</time>
</trkpt>
<trkpt lat="49.50438681989908" lon="9.12542525678873">
<ele>534.4</ele>
<time>2024-05-10T15:27:06Z</time>
</trkpt>
<trkpt lat="49.50440978631377" lon="9.125501615926623">
<ele>534.4</ele>
<time>2024-05-10T15:27:07Z</time>
</trkpt>
<trkpt lat="49.504425041377544" lon="9.125581663101912">
<ele>534.4</ele>
<time>2024-05-10T15:27:08Z</time>
</trkpt>
<trkpt lat="49.50443644076586" lon="9.12566464394331">
<ele>534.4</ele>
<time>2024-05-10T15:27:09Z</time>
</trkpt>
<trkpt lat="49.50444029644132" lon="9.125749552622436">
<ele>534.4</ele>
<time>2024-05-10T15:27:10Z</time>
</trkpt>
<trkpt lat="49.50443644076586" lon="9.125835383310914">
<ele>534.6</ele>
<time>2024-05-10T15:27:11Z</time>
</trkpt>
<trkpt lat="49.50443266890943" lon="9.125920291990042">
<ele>534.6</ele>
<time>2024-05-10T15:27:12Z</time>
</trkpt>
<trkpt lat="49.504425041377544" lon="9.126003189012408">
<ele>534.8</ele>
<time>2024-05-10T15:27:13Z</time>
</trkpt>
<trkpt lat="49.50441741384566" lon="9.126088097691536">
<ele>534.8</ele>
<time>2024-05-10T15:27:14Z</time>
</trkpt>
<trkpt lat="49.50440978631377" lon="9.126173006370664">
<ele>534.8</ele>
<time>2024-05-10T15:27:15Z</time>
</trkpt>
<trkpt lat="49.50439830310643" lon="9.126259759068487">
<ele>534.8</ele>
<time>2024-05-10T15:27:16Z</time>
</trkpt>
<trkpt lat="49.50438681989908" lon="9.126344667747617">
<ele>534.8</ele>
<time>2024-05-10T15:27:17Z</time>
</trkpt>
<trkpt lat="49.50437156483531" lon="9.126428570598364">
<ele>534.8</ele>
<time>2024-05-10T15:27:18Z</time>
</trkpt>
<trkpt lat="49.50434868223965" lon="9.126513479277492">
<ele>534.8</ele>
<time>2024-05-10T15:27:19Z</time>
</trkpt>
<trkpt lat="49.50432965531945" lon="9.126596376299858">
<ele>534.8</ele>
<time>2024-05-10T15:27:20Z</time>
</trkpt>
<trkpt lat="49.504306772723794" lon="9.126680362969635">
<ele>535</ele>
<time>2024-05-10T15:27:21Z</time>
</trkpt>
<trkpt lat="49.50427240692079" lon="9.126760410144923">
<ele>535</ele>
<time>2024-05-10T15:27:22Z</time>
</trkpt>
<trkpt lat="49.50423812493682" lon="9.126836769282818">
<ele>535</ele>
<time>2024-05-10T15:27:23Z</time>
</trkpt>
<trkpt lat="49.50419990345836" lon="9.126912038773298">
<ele>535.2</ele>
<time>2024-05-10T15:27:24Z</time>
</trkpt>
<trkpt lat="49.504165621474385" lon="9.126986470073462">
<ele>535.2</ele>
<time>2024-05-10T15:27:25Z</time>
</trkpt>
<trkpt lat="49.50413511134684" lon="9.127059895545244">
<ele>535.4</ele>
<time>2024-05-10T15:27:26Z</time>
</trkpt>
<trkpt lat="49.5041046012193" lon="9.127133321017029">
<ele>535.4</ele>
<time>2024-05-10T15:27:27Z</time>
</trkpt>
<trkpt lat="49.50407409109175" lon="9.12720867432654">
<ele>535.4</ele>
<time>2024-05-10T15:27:28Z</time>
</trkpt>
<trkpt lat="49.504051208496094" lon="9.127276400104163">
<ele>535.4</ele>
<time>2024-05-10T15:27:29Z</time>
</trkpt>
<trkpt lat="49.50402824208141" lon="9.12734312005341">
<ele>535.6</ele>
<time>2024-05-10T15:27:30Z</time>
</trkpt>
<trkpt lat="49.50400158762932" lon="9.127409923821688">
<ele>535.6</ele>
<time>2024-05-10T15:27:31Z</time>
</trkpt>
<trkpt lat="49.50398247689009" lon="9.127478571608664">
<ele>535.4</ele>
<time>2024-05-10T15:27:32Z</time>
</trkpt>
<trkpt lat="49.503967221826315" lon="9.127545291557908">
<ele>535.4</ele>
<time>2024-05-10T15:27:33Z</time>
</trkpt>
<trkpt lat="49.503948194906116" lon="9.127613017335534">
<ele>535.2</ele>
<time>2024-05-10T15:27:34Z</time>
</trkpt>
<trkpt lat="49.50393293984234" lon="9.127677893266082">
<ele>535.2</ele>
<time>2024-05-10T15:27:35Z</time>
</trkpt>
<trkpt lat="49.50391382910311" lon="9.127744613215327">
<ele>535.2</ele>
<time>2024-05-10T15:27:36Z</time>
</trkpt>
<trkpt lat="49.50389857403934" lon="9.127806639298797">
<ele>535.2</ele>
<time>2024-05-10T15:27:37Z</time>
</trkpt>
<trkpt lat="49.50388331897557" lon="9.127869587391617">
<ele>535.2</ele>
<time>2024-05-10T15:27:38Z</time>
</trkpt>
<trkpt lat="49.50386806391179" lon="9.127935385331511">
<ele>535.2</ele>
<time>2024-05-10T15:27:39Z</time>
</trkpt>
<trkpt lat="49.50385658070445" lon="9.12799447774887">
<ele>535.2</ele>
<time>2024-05-10T15:27:40Z</time>
</trkpt>
<trkpt lat="49.50384518131614" lon="9.12805650383234">
<ele>535.4</ele>
<time>2024-05-10T15:27:41Z</time>
</trkpt>
<trkpt lat="49.503829926252365" lon="9.12811660207808">
<ele>535.6</ele>
<time>2024-05-10T15:27:42Z</time>
</trkpt>
<trkpt lat="49.50381467118859" lon="9.128176616504788">
<ele>535.8</ele>
<time>2024-05-10T15:27:43Z</time>
</trkpt>
<trkpt lat="49.50379556044936" lon="9.1282329428941">
<ele>536</ele>
<time>2024-05-10T15:27:44Z</time>
</trkpt>
<trkpt lat="49.50378030538559" lon="9.12829203531146">
<ele>536.2</ele>
<time>2024-05-10T15:27:45Z</time>
</trkpt>
<trkpt lat="49.50376505032182" lon="9.128350205719473">
<ele>536.4</ele>
<time>2024-05-10T15:27:46Z</time>
</trkpt>
<trkpt lat="49.503749795258045" lon="9.12841122597456">
<ele>536.6</ele>
<time>2024-05-10T15:27:47Z</time>
</trkpt>
<trkpt lat="49.503730768337846" lon="9.1284713242203">
<ele>537</ele>
<time>2024-05-10T15:27:48Z</time>
</trkpt>
<trkpt lat="49.503711657598615" lon="9.12852949462831">
<ele>537.2</ele>
<time>2024-05-10T15:27:49Z</time>
</trkpt>
<trkpt lat="49.50369640253484" lon="9.12858959287405">
<ele>537.4</ele>
<time>2024-05-10T15:27:50Z</time>
</trkpt>
<trkpt lat="49.5036849193275" lon="9.12864868529141">
<ele>537.6</ele>
<time>2024-05-10T15:27:51Z</time>
</trkpt>
<trkpt lat="49.5036658924073" lon="9.128705011680722">
<ele>537.8</ele>
<time>2024-05-10T15:27:52Z</time>
</trkpt>
<trkpt lat="49.503650637343526" lon="9.128763182088733">
<ele>538</ele>
<time>2024-05-10T15:27:53Z</time>
</trkpt>
<trkpt lat="49.503635382279754" lon="9.12882512435317">
<ele>538.2</ele>
<time>2024-05-10T15:27:54Z</time>
</trkpt>
<trkpt lat="49.50362012721598" lon="9.12888522259891">
<ele>538.6</ele>
<time>2024-05-10T15:27:55Z</time>
</trkpt>
<trkpt lat="49.50360487215221" lon="9.128948170691729">
<ele>538.8</ele>
<time>2024-05-10T15:27:56Z</time>
</trkpt>
<trkpt lat="49.503593388944864" lon="9.129012040793896">
<ele>539</ele>
<time>2024-05-10T15:27:57Z</time>
</trkpt>
<trkpt lat="49.503574362024665" lon="9.129074988886714">
<ele>539.2</ele>
<time>2024-05-10T15:27:58Z</time>
</trkpt>
<trkpt lat="49.50355910696089" lon="9.129137936979532">
<ele>539.6</ele>
<time>2024-05-10T15:27:59Z</time>
</trkpt>
<trkpt lat="49.50354385189712" lon="9.129199963063002">
<ele>539.8</ele>
<time>2024-05-10T15:28:00Z</time>
</trkpt>
<trkpt lat="49.50352851301432" lon="9.12926190532744">
<ele>540</ele>
<time>2024-05-10T15:28:01Z</time>
</trkpt>
<trkpt lat="49.503517113626" lon="9.12932200357318">
<ele>540</ele>
<time>2024-05-10T15:28:02Z</time>
</trkpt>
<trkpt lat="49.50350563041866" lon="9.12938210181892">
<ele>540.2</ele>
<time>2024-05-10T15:28:03Z</time>
</trkpt>
<trkpt lat="49.503494231030345" lon="9.12944119423628">
<ele>540.4</ele>
<time>2024-05-10T15:28:04Z</time>
</trkpt>
<trkpt lat="49.50348660349846" lon="9.129501292482018">
<ele>540.6</ele>
<time>2024-05-10T15:28:05Z</time>
</trkpt>
<trkpt lat="49.50347897596657" lon="9.12956046871841">
<ele>540.8</ele>
<time>2024-05-10T15:28:06Z</time>
</trkpt>
<trkpt lat="49.50347134843469" lon="9.129619561135767">
<ele>541</ele>
<time>2024-05-10T15:28:07Z</time>
</trkpt>
<trkpt lat="49.50345986522734" lon="9.129681587219238">
<ele>541.2</ele>
<time>2024-05-10T15:28:08Z</time>
</trkpt>
<trkpt lat="49.50344846583903" lon="9.129746379330754">
<ele>541.2</ele>
<time>2024-05-10T15:28:09Z</time>
</trkpt>
<trkpt lat="49.50344083830714" lon="9.129813183099031">
<ele>541.4</ele>
<time>2024-05-10T15:28:10Z</time>
</trkpt>
<trkpt lat="49.5034293550998" lon="9.12987512536347">
<ele>541.6</ele>
<time>2024-05-10T15:28:11Z</time>
</trkpt>
<trkpt lat="49.50341795571149" lon="9.129938073456287">
<ele>541.8</ele>
<time>2024-05-10T15:28:12Z</time>
</trkpt>
<trkpt lat="49.50340647250414" lon="9.129998171702027">
<ele>542</ele>
<time>2024-05-10T15:28:13Z</time>
</trkpt>
<trkpt lat="49.50339884497225" lon="9.130062041804194">
<ele>542.2</ele>
<time>2024-05-10T15:28:14Z</time>
</trkpt>
<trkpt lat="49.50338744558394" lon="9.130121218040586">
<ele>542.4</ele>
<time>2024-05-10T15:28:15Z</time>
</trkpt>
<trkpt lat="49.50337981805205" lon="9.130183160305023">
<ele>542.8</ele>
<time>2024-05-10T15:28:16Z</time>
</trkpt>
<trkpt lat="49.50337219052017" lon="9.130243258550763">
<ele>543</ele>
<time>2024-05-10T15:28:17Z</time>
</trkpt>
<trkpt lat="49.50336456298828" lon="9.130303356796505">
<ele>543.4</ele>
<time>2024-05-10T15:28:18Z</time>
</trkpt>
<trkpt lat="49.50335685163736" lon="9.130361527204514">
<ele>543.6</ele>
<time>2024-05-10T15:28:19Z</time>
</trkpt>
<trkpt lat="49.50334922410548" lon="9.130423469468951">
<ele>544</ele>
<time>2024-05-10T15:28:20Z</time>
</trkpt>
<trkpt lat="49.50334159657359" lon="9.130479795858264">
<ele>544.4</ele>
<time>2024-05-10T15:28:21Z</time>
</trkpt>
<trkpt lat="49.503333969041705" lon="9.130536960437894">
<ele>544.6</ele>
<time>2024-05-10T15:28:22Z</time>
</trkpt>
<trkpt lat="49.50332634150982" lon="9.130595130845904">
<ele>544.8</ele>
<time>2024-05-10T15:28:23Z</time>
</trkpt>
<trkpt lat="49.50331871397793" lon="9.130656234920025">
<ele>545.2</ele>
<time>2024-05-10T15:28:24Z</time>
</trkpt>
<trkpt lat="49.50331108644605" lon="9.130716249346731">
<ele>545.4</ele>
<time>2024-05-10T15:28:25Z</time>
</trkpt>
<trkpt lat="49.50329968705773" lon="9.130778275430202">
<ele>545.6</ele>
<time>2024-05-10T15:28:26Z</time>
</trkpt>
<trkpt lat="49.50329205952585" lon="9.13084122352302">
<ele>546</ele>
<time>2024-05-10T15:28:27Z</time>
</trkpt>
<trkpt lat="49.50328443199396" lon="9.130903165787458">
<ele>546.2</ele>
<time>2024-05-10T15:28:28Z</time>
</trkpt>
<trkpt lat="49.503276804462075" lon="9.130966113880277">
<ele>546.6</ele>
<time>2024-05-10T15:28:29Z</time>
</trkpt>
<trkpt lat="49.50326917693019" lon="9.131030067801476">
<ele>546.8</ele>
<time>2024-05-10T15:28:30Z</time>
</trkpt>
<trkpt lat="49.5032615493983" lon="9.131092010065911">
<ele>547</ele>
<time>2024-05-10T15:28:31Z</time>
</trkpt>
<trkpt lat="49.50325392186642" lon="9.131154958158731">
<ele>547.2</ele>
<time>2024-05-10T15:28:32Z</time>
</trkpt>
<trkpt lat="49.50324629433453" lon="9.13121790625155">
<ele>547.4</ele>
<time>2024-05-10T15:28:33Z</time>
</trkpt>
<trkpt lat="49.503238666802645" lon="9.131281776353717">
<ele>547.6</ele>
<time>2024-05-10T15:28:34Z</time>
</trkpt>
<trkpt lat="49.503234811127186" lon="9.131346652284265">
<ele>547.8</ele>
<time>2024-05-10T15:28:35Z</time>
</trkpt>
<trkpt lat="49.5032271835953" lon="9.131409600377085">
<ele>548</ele>
<time>2024-05-10T15:28:36Z</time>
</trkpt>
<trkpt lat="49.50322341173887" lon="9.13147539831698">
<ele>548.2</ele>
<time>2024-05-10T15:28:37Z</time>
</trkpt>
<trkpt lat="49.503215784206986" lon="9.131538346409798">
<ele>548.4</ele>
<time>2024-05-10T15:28:38Z</time>
</trkpt>
<trkpt lat="49.50321192853153" lon="9.131601294502616">
<ele>548.4</ele>
<time>2024-05-10T15:28:39Z</time>
</trkpt>
<trkpt lat="49.5032081566751" lon="9.131665164604785">
<ele>548.6</ele>
<time>2024-05-10T15:28:40Z</time>
</trkpt>
<trkpt lat="49.503200529143214" lon="9.131725262850525">
<ele>548.6</ele>
<time>2024-05-10T15:28:41Z</time>
</trkpt>
<trkpt lat="49.503196673467755" lon="9.13178821094334">
<ele>548.6</ele>
<time>2024-05-10T15:28:42Z</time>
</trkpt>
<trkpt lat="49.50318904593587" lon="9.13184830918908">
<ele>548.8</ele>
<time>2024-05-10T15:28:43Z</time>
</trkpt>
<trkpt lat="49.50318141840398" lon="9.13190840743482">
<ele>548.8</ele>
<time>2024-05-10T15:28:44Z</time>
</trkpt>
<trkpt lat="49.5031737908721" lon="9.131966577842832">
<ele>549</ele>
<time>2024-05-10T15:28:45Z</time>
</trkpt>
<trkpt lat="49.50316616334021" lon="9.13202659226954">
<ele>549</ele>
<time>2024-05-10T15:28:46Z</time>
</trkpt>
<trkpt lat="49.503158535808325" lon="9.13208669051528">
<ele>549</ele>
<time>2024-05-10T15:28:47Z</time>
</trkpt>
<trkpt lat="49.50314328074455" lon="9.132211664691567">
<ele>549</ele>
<time>2024-05-10T15:28:49Z</time>
</trkpt>
<trkpt lat="49.50313565321267" lon="9.132274612784386">
<ele>549.2</ele>
<time>2024-05-10T15:28:50Z</time>
</trkpt>
<trkpt lat="49.50313179753721" lon="9.132341332733631">
<ele>549.2</ele>
<time>2024-05-10T15:28:51Z</time>
</trkpt>
<trkpt lat="49.50312417000532" lon="9.132411908358335">
<ele>549.4</ele>
<time>2024-05-10T15:28:52Z</time>
</trkpt>
<trkpt lat="49.503116542473435" lon="9.132483405992389">
<ele>549.4</ele>
<time>2024-05-10T15:28:53Z</time>
</trkpt>
<trkpt lat="49.50310891494155" lon="9.132557837292552">
<ele>549.6</ele>
<time>2024-05-10T15:28:54Z</time>
</trkpt>
<trkpt lat="49.50310514308512" lon="9.132633190602064">
<ele>549.6</ele>
<time>2024-05-10T15:28:55Z</time>
</trkpt>
<trkpt lat="49.50309751555323" lon="9.132706616073849">
<ele>549.6</ele>
<time>2024-05-10T15:28:56Z</time>
</trkpt>
<trkpt lat="49.50308988802135" lon="9.13278004154563">
<ele>549.8</ele>
<time>2024-05-10T15:28:57Z</time>
</trkpt>
<trkpt lat="49.503082260489464" lon="9.132853467017412">
<ele>549.8</ele>
<time>2024-05-10T15:28:58Z</time>
</trkpt>
<trkpt lat="49.50307463295758" lon="9.132927814498544">
<ele>549.8</ele>
<time>2024-05-10T15:28:59Z</time>
</trkpt>
<trkpt lat="49.50306700542569" lon="9.133003167808056">
<ele>550</ele>
<time>2024-05-10T15:29:00Z</time>
</trkpt>
<trkpt lat="49.50306314975023" lon="9.133078521117568">
<ele>550</ele>
<time>2024-05-10T15:29:01Z</time>
</trkpt>
<trkpt lat="49.50305175036192" lon="9.13315194658935">
<ele>550</ele>
<time>2024-05-10T15:29:02Z</time>
</trkpt>
<trkpt lat="49.50304789468646" lon="9.133225372061132">
<ele>550</ele>
<time>2024-05-10T15:29:03Z</time>
</trkpt>
<trkpt lat="49.503040267154574" lon="9.133297875523567">
<ele>550</ele>
<time>2024-05-10T15:29:04Z</time>
</trkpt>
<trkpt lat="49.50303263962269" lon="9.133375156670809">
<ele>550</ele>
<time>2024-05-10T15:29:05Z</time>
</trkpt>
<trkpt lat="49.5030250120908" lon="9.1334533598274">
<ele>550</ele>
<time>2024-05-10T15:29:06Z</time>
</trkpt>
<trkpt lat="49.50301738455891" lon="9.133535334840415">
<ele>550</ele>
<time>2024-05-10T15:29:07Z</time>
</trkpt>
<trkpt lat="49.50300975702703" lon="9.133618315681815">
<ele>549.8</ele>
<time>2024-05-10T15:29:08Z</time>
</trkpt>
<trkpt lat="49.50300590135157" lon="9.13370506837964">
<ele>549.8</ele>
<time>2024-05-10T15:29:09Z</time>
</trkpt>
<trkpt lat="49.502998273819685" lon="9.133792826905848">
<ele>549.6</ele>
<time>2024-05-10T15:29:10Z</time>
</trkpt>
<trkpt lat="49.5029906462878" lon="9.13388536311686">
<ele>549.4</ele>
<time>2024-05-10T15:29:11Z</time>
</trkpt>
<trkpt lat="49.50298301875591" lon="9.133979743346572">
<ele>549.2</ele>
<time>2024-05-10T15:29:12Z</time>
</trkpt>
<trkpt lat="49.502979246899486" lon="9.134077979251742">
<ele>549</ele>
<time>2024-05-10T15:29:13Z</time>
</trkpt>
<trkpt lat="49.5029716193676" lon="9.134178142994642">
<ele>548.8</ele>
<time>2024-05-10T15:29:14Z</time>
</trkpt>
<trkpt lat="49.50296776369214" lon="9.134286856278775">
<ele>548.6</ele>
<time>2024-05-10T15:29:15Z</time>
</trkpt>
<trkpt lat="49.50296776369214" lon="9.134394563734531">
<ele>548.4</ele>
<time>2024-05-10T15:29:16Z</time>
</trkpt>
<trkpt lat="49.50296399183571" lon="9.134506210684776">
<ele>548.2</ele>
<time>2024-05-10T15:29:17Z</time>
</trkpt>
<trkpt lat="49.50296399183571" lon="9.13461970165372">
<ele>548</ele>
<time>2024-05-10T15:29:18Z</time>
</trkpt>
<trkpt lat="49.50296399183571" lon="9.134736964479089">
<ele>548</ele>
<time>2024-05-10T15:29:19Z</time>
</trkpt>
<trkpt lat="49.5029716193676" lon="9.13485523313284">
<ele>547.8</ele>
<time>2024-05-10T15:29:20Z</time>
</trkpt>
<trkpt lat="49.50298301875591" lon="9.13497542962432">
<ele>547.4</ele>
<time>2024-05-10T15:29:21Z</time>
</trkpt>
<trkpt lat="49.502998273819685" lon="9.135093614459038">
<ele>547.2</ele>
<time>2024-05-10T15:29:22Z</time>
</trkpt>
<trkpt lat="49.503021240234375" lon="9.13520811125636">
<ele>546.8</ele>
<time>2024-05-10T15:29:23Z</time>
</trkpt>
<trkpt lat="49.50304412283003" lon="9.135319674387574">
<ele>546.6</ele>
<time>2024-05-10T15:29:24Z</time>
</trkpt>
<trkpt lat="49.503078404814005" lon="9.135428387671707">
<ele>546.2</ele>
<time>2024-05-10T15:29:25Z</time>
</trkpt>
<trkpt lat="49.50310128740966" lon="9.135536178946497">
<ele>546</ele>
<time>2024-05-10T15:29:26Z</time>
</trkpt>
<trkpt lat="49.50310891494155" lon="9.13564489223063">
<ele>545.6</ele>
<time>2024-05-10T15:29:27Z</time>
</trkpt>
<trkpt lat="49.50310128740966" lon="9.135758383199573">
<ele>545.2</ele>
<time>2024-05-10T15:29:28Z</time>
</trkpt>
<trkpt lat="49.50309365987778" lon="9.135876651853325">
<ele>544.8</ele>
<time>2024-05-10T15:29:29Z</time>
</trkpt>
<trkpt lat="49.50309751555323" lon="9.13600154221058">
<ele>544.4</ele>
<time>2024-05-10T15:29:30Z</time>
</trkpt>
<trkpt lat="49.50310891494155" lon="9.136128360405564">
<ele>544.2</ele>
<time>2024-05-10T15:29:31Z</time>
</trkpt>
<trkpt lat="49.503120398148894" lon="9.136249478906391">
<ele>543.8</ele>
<time>2024-05-10T15:29:32Z</time>
</trkpt>
<trkpt lat="49.50313565321267" lon="9.136366825550796">
<ele>543.6</ele>
<time>2024-05-10T15:29:33Z</time>
</trkpt>
<trkpt lat="49.50315090827644" lon="9.136469839140773">
<ele>543.4</ele>
<time>2024-05-10T15:29:34Z</time>
</trkpt>
<trkpt lat="49.50316616334021" lon="9.136574696749449">
<ele>543.4</ele>
<time>2024-05-10T15:29:35Z</time>
</trkpt>
<trkpt lat="49.50318519026041" lon="9.136676788330078">
<ele>543.2</ele>
<time>2024-05-10T15:29:36Z</time>
</trkpt>
<trkpt lat="49.5032081566751" lon="9.136777874082329">
<ele>543</ele>
<time>2024-05-10T15:29:37Z</time>
</trkpt>
<trkpt lat="49.50323103927076" lon="9.136879881843925">
<ele>543</ele>
<time>2024-05-10T15:29:38Z</time>
</trkpt>
<trkpt lat="49.50325392186642" lon="9.136980045586824">
<ele>542.8</ele>
<time>2024-05-10T15:29:39Z</time>
</trkpt>
<trkpt lat="49.503276804462075" lon="9.137082053348422">
<ele>542.6</ele>
<time>2024-05-10T15:29:40Z</time>
</trkpt>
<trkpt lat="49.50329205952585" lon="9.137180289253592">
<ele>542.2</ele>
<time>2024-05-10T15:29:41Z</time>
</trkpt>
<trkpt lat="49.50331108644605" lon="9.137280452996492">
<ele>542</ele>
<time>2024-05-10T15:29:42Z</time>
</trkpt>
<trkpt lat="49.50331871397793" lon="9.137372905388474">
<ele>541.8</ele>
<time>2024-05-10T15:29:43Z</time>
</trkpt>
<trkpt lat="49.50331871397793" lon="9.137466363608835">
<ele>541.4</ele>
<time>2024-05-10T15:29:44Z</time>
</trkpt>
<trkpt lat="49.503314942121506" lon="9.1375598218292">
<ele>541.2</ele>
<time>2024-05-10T15:29:45Z</time>
</trkpt>
<trkpt lat="49.50331108644605" lon="9.137655207887292">
<ele>541</ele>
<time>2024-05-10T15:29:46Z</time>
</trkpt>
<trkpt lat="49.50331108644605" lon="9.137753443792462">
<ele>540.8</ele>
<time>2024-05-10T15:29:47Z</time>
</trkpt>
<trkpt lat="49.50331108644605" lon="9.137847824022174">
<ele>540.4</ele>
<time>2024-05-10T15:29:48Z</time>
</trkpt>
<trkpt lat="49.503314942121506" lon="9.137947987765074">
<ele>540.2</ele>
<time>2024-05-10T15:29:49Z</time>
</trkpt>
<trkpt lat="49.50331871397793" lon="9.1380519233644">
<ele>540</ele>
<time>2024-05-10T15:29:50Z</time>
</trkpt>
<trkpt lat="49.50333019718528" lon="9.138150159269571">
<ele>539.8</ele>
<time>2024-05-10T15:29:51Z</time>
</trkpt>
<trkpt lat="49.50334159657359" lon="9.13825124502182">
<ele>539.4</ele>
<time>2024-05-10T15:29:52Z</time>
</trkpt>
<trkpt lat="49.50335685163736" lon="9.138355180621147">
<ele>539</ele>
<time>2024-05-10T15:29:53Z</time>
</trkpt>
<trkpt lat="49.50336833484471" lon="9.138458194211124">
<ele>538.8</ele>
<time>2024-05-10T15:29:54Z</time>
</trkpt>
<trkpt lat="49.50337219052017" lon="9.138561207801104">
<ele>538.4</ele>
<time>2024-05-10T15:29:55Z</time>
</trkpt>
<trkpt lat="49.50337219052017" lon="9.13866514340043">
<ele>538.2</ele>
<time>2024-05-10T15:29:56Z</time>
</trkpt>
<trkpt lat="49.50337219052017" lon="9.138768156990407">
<ele>538</ele>
<time>2024-05-10T15:29:57Z</time>
</trkpt>
<trkpt lat="49.50336456298828" lon="9.13886446505785">
<ele>537.6</ele>
<time>2024-05-10T15:29:58Z</time>
</trkpt>
<trkpt lat="49.50335685163736" lon="9.138961778953671">
<ele>537.6</ele>
<time>2024-05-10T15:29:59Z</time>
</trkpt>
<trkpt lat="49.50334159657359" lon="9.139056159183385">
<ele>537.4</ele>
<time>2024-05-10T15:30:00Z</time>
</trkpt>
<trkpt lat="49.503333969041705" lon="9.139155317097902">
<ele>537.2</ele>
<time>2024-05-10T15:30:01Z</time>
</trkpt>
<trkpt lat="49.50332256965339" lon="9.139254558831452">
<ele>536.8</ele>
<time>2024-05-10T15:30:02Z</time>
</trkpt>
<trkpt lat="49.503314942121506" lon="9.139353716745973">
<ele>536.6</ele>
<time>2024-05-10T15:30:03Z</time>
</trkpt>
<trkpt lat="49.50329968705773" lon="9.13945480249822">
<ele>536.6</ele>
<time>2024-05-10T15:30:04Z</time>
</trkpt>
<trkpt lat="49.50328820385039" lon="9.139563515782356">
<ele>536.2</ele>
<time>2024-05-10T15:30:05Z</time>
</trkpt>
<trkpt lat="49.50328443199396" lon="9.139671307057142">
<ele>535.8</ele>
<time>2024-05-10T15:30:06Z</time>
</trkpt>
<trkpt lat="49.503276804462075" lon="9.13977524265647">
<ele>535.6</ele>
<time>2024-05-10T15:30:07Z</time>
</trkpt>
<trkpt lat="49.50326917693019" lon="9.139868700876832">
<ele>535.2</ele>
<time>2024-05-10T15:30:08Z</time>
</trkpt>
<trkpt lat="49.5032615493983" lon="9.139956459403038">
<ele>534.8</ele>
<time>2024-05-10T15:30:09Z</time>
</trkpt>
<trkpt lat="49.50326532125473" lon="9.140047067776322">
<ele>534.4</ele>
<time>2024-05-10T15:30:10Z</time>
</trkpt>
<trkpt lat="49.50328443199396" lon="9.140131892636418">
<ele>534</ele>
<time>2024-05-10T15:30:11Z</time>
</trkpt>
<trkpt lat="49.503314942121506" lon="9.140206323936582">
<ele>533.6</ele>
<time>2024-05-10T15:30:12Z</time>
</trkpt>
<trkpt lat="49.50335685163736" lon="9.140276899561286">
<ele>533.4</ele>
<time>2024-05-10T15:30:13Z</time>
</trkpt>
<trkpt lat="49.50340270064771" lon="9.140331214293838">
<ele>533</ele>
<time>2024-05-10T15:30:14Z</time>
</trkpt>
<trkpt lat="49.50344846583903" lon="9.14038460701704">
<ele>532.6</ele>
<time>2024-05-10T15:30:15Z</time>
</trkpt>
<trkpt lat="49.50349800288677" lon="9.140431378036736">
<ele>532.4</ele>
<time>2024-05-10T15:30:16Z</time>
</trkpt>
<trkpt lat="49.50354385189712" lon="9.140475215390325">
<ele>532.2</ele>
<time>2024-05-10T15:30:17Z</time>
</trkpt>
<trkpt lat="49.503593388944864" lon="9.140513353049757">
<ele>532</ele>
<time>2024-05-10T15:30:18Z</time>
</trkpt>
<trkpt lat="49.50364300981164" lon="9.140548640862107">
<ele>531.8</ele>
<time>2024-05-10T15:30:19Z</time>
</trkpt>
<trkpt lat="49.503692546859384" lon="9.140580156818032">
<ele>531.8</ele>
<time>2024-05-10T15:30:20Z</time>
</trkpt>
<trkpt lat="49.50374602340162" lon="9.140611588954926">
<ele>531.6</ele>
<time>2024-05-10T15:30:21Z</time>
</trkpt>
<trkpt lat="49.50379941612482" lon="9.14064310491085">
<ele>531.6</ele>
<time>2024-05-10T15:30:22Z</time>
</trkpt>
<trkpt lat="49.503848953172565" lon="9.140671687200664">
<ele>531.4</ele>
<time>2024-05-10T15:30:23Z</time>
</trkpt>
<trkpt lat="49.50389857403934" lon="9.140696497634051">
<ele>531.4</ele>
<time>2024-05-10T15:30:24Z</time>
</trkpt>
<trkpt lat="49.50395196676254" lon="9.140718458220364">
<ele>531.4</ele>
<time>2024-05-10T15:30:25Z</time>
</trkpt>
<trkpt lat="49.504005359485745" lon="9.140738407149913">
<ele>531.4</ele>
<time>2024-05-10T15:30:26Z</time>
</trkpt>
<trkpt lat="49.50405883602798" lon="9.140758439898493">
<ele>531.4</ele>
<time>2024-05-10T15:30:27Z</time>
</trkpt>
<trkpt lat="49.50411222875118" lon="9.140776628628371">
<ele>531.4</ele>
<time>2024-05-10T15:30:28Z</time>
</trkpt>
<trkpt lat="49.504165621474385" lon="9.140791883692144">
<ele>531.6</ele>
<time>2024-05-10T15:30:29Z</time>
</trkpt>
<trkpt lat="49.50421901419759" lon="9.140805210918188">
<ele>531.6</ele>
<time>2024-05-10T15:30:30Z</time>
</trkpt>
<trkpt lat="49.50427240692079" lon="9.140814766287804">
<ele>531.8</ele>
<time>2024-05-10T15:30:31Z</time>
</trkpt>
<trkpt lat="49.50432579964399" lon="9.14082331582904">
<ele>531.8</ele>
<time>2024-05-10T15:30:32Z</time>
</trkpt>
<trkpt lat="49.50437542051077" lon="9.140830021351576">
<ele>531.8</ele>
<time>2024-05-10T15:30:33Z</time>
</trkpt>
<trkpt lat="49.504425041377544" lon="9.14083857089281">
<ele>531.8</ele>
<time>2024-05-10T15:30:34Z</time>
</trkpt>
<trkpt lat="49.50447080656886" lon="9.140845276415348">
<ele>531.8</ele>
<time>2024-05-10T15:30:35Z</time>
</trkpt>
<trkpt lat="49.50451657176018" lon="9.140852903947234">
<ele>531.8</ele>
<time>2024-05-10T15:30:36Z</time>
</trkpt>
<trkpt lat="49.504558481276035" lon="9.14086145348847">
<ele>531.8</ele>
<time>2024-05-10T15:30:37Z</time>
</trkpt>
<trkpt lat="49.504600474610925" lon="9.140872936695814">
<ele>532</ele>
<time>2024-05-10T15:30:38Z</time>
</trkpt>
<trkpt lat="49.504642467945814" lon="9.140891963616014">
<ele>532</ele>
<time>2024-05-10T15:30:39Z</time>
</trkpt>
<trkpt lat="49.50468437746167" lon="9.14091870188713">
<ele>532.2</ele>
<time>2024-05-10T15:30:40Z</time>
</trkpt>
<trkpt lat="49.50472637079656" lon="9.140950134024024">
<ele>532.2</ele>
<time>2024-05-10T15:30:41Z</time>
</trkpt>
<trkpt lat="49.50476836413145" lon="9.140984499827027">
<ele>532.2</ele>
<time>2024-05-10T15:30:42Z</time>
</trkpt>
<trkpt lat="49.50481027364731" lon="9.141024565324187">
<ele>532.4</ele>
<time>2024-05-10T15:30:43Z</time>
</trkpt>
<trkpt lat="49.5048522669822" lon="9.141064630821347">
<ele>532.4</ele>
<time>2024-05-10T15:30:44Z</time>
</trkpt>
<trkpt lat="49.50489040464163" lon="9.141101762652395">
<ele>532.4</ele>
<time>2024-05-10T15:30:45Z</time>
</trkpt>
<trkpt lat="49.50493239797652" lon="9.141148533672094">
<ele>532.4</ele>
<time>2024-05-10T15:30:46Z</time>
</trkpt>
<trkpt lat="49.50497053563595" lon="9.141191449016333">
<ele>532.4</ele>
<time>2024-05-10T15:30:47Z</time>
</trkpt>
<trkpt lat="49.505012445151806" lon="9.14123528636992">
<ele>532.6</ele>
<time>2024-05-10T15:30:48Z</time>
</trkpt>
<trkpt lat="49.505054438486695" lon="9.14127635769546">
<ele>532.6</ele>
<time>2024-05-10T15:30:49Z</time>
</trkpt>
<trkpt lat="49.505096431821585" lon="9.14131541736424">
<ele>532.6</ele>
<time>2024-05-10T15:30:50Z</time>
</trkpt>
<trkpt lat="49.50513834133744" lon="9.14135456085205">
<ele>532.6</ele>
<time>2024-05-10T15:30:51Z</time>
</trkpt>
<trkpt lat="49.50518410652876" lon="9.141396470367908">
<ele>532.6</ele>
<time>2024-05-10T15:30:52Z</time>
</trkpt>
<trkpt lat="49.50522609986365" lon="9.141436535865068">
<ele>532.6</ele>
<time>2024-05-10T15:30:53Z</time>
</trkpt>
<trkpt lat="49.505271865054965" lon="9.141476601362228">
<ele>532.6</ele>
<time>2024-05-10T15:30:54Z</time>
</trkpt>
<trkpt lat="49.505313858389854" lon="9.141519516706468">
<ele>532.4</ele>
<time>2024-05-10T15:30:55Z</time>
</trkpt>
<trkpt lat="49.50535576790571" lon="9.141563354060054">
<ele>532.4</ele>
<time>2024-05-10T15:30:56Z</time>
</trkpt>
<trkpt lat="49.50540153309703" lon="9.141605347394943">
<ele>532.2</ele>
<time>2024-05-10T15:30:57Z</time>
</trkpt>
<trkpt lat="49.50544352643192" lon="9.141646334901452">
<ele>532</ele>
<time>2024-05-10T15:30:58Z</time>
</trkpt>
<trkpt lat="49.505489291623235" lon="9.141684472560884">
<ele>531.8</ele>
<time>2024-05-10T15:30:59Z</time>
</trkpt>
<trkpt lat="49.50553505681455" lon="9.141721688210964">
<ele>531.6</ele>
<time>2024-05-10T15:31:00Z</time>
</trkpt>
<trkpt lat="49.50557705014944" lon="9.141757898032663">
<ele>531.2</ele>
<time>2024-05-10T15:31:01Z</time>
</trkpt>
<trkpt lat="49.50562281534076" lon="9.141797041520476">
<ele>531</ele>
<time>2024-05-10T15:31:02Z</time>
</trkpt>
<trkpt lat="49.505668580532074" lon="9.141835179179909">
<ele>530.6</ele>
<time>2024-05-10T15:31:03Z</time>
</trkpt>
<trkpt lat="49.50571434572339" lon="9.14186954498291">
<ele>530.4</ele>
<time>2024-05-10T15:31:04Z</time>
</trkpt>
<trkpt lat="49.50576011091471" lon="9.14190667681396">
<ele>530.2</ele>
<time>2024-05-10T15:31:05Z</time>
</trkpt>
<trkpt lat="49.505805959925056" lon="9.14194867014885">
<ele>530</ele>
<time>2024-05-10T15:31:06Z</time>
</trkpt>
<trkpt lat="49.5058554969728" lon="9.141993513330815">
<ele>529.8</ele>
<time>2024-05-10T15:31:07Z</time>
</trkpt>
<trkpt lat="49.50590126216411" lon="9.142041206359863">
<ele>529.6</ele>
<time>2024-05-10T15:31:08Z</time>
</trkpt>
<trkpt lat="49.50595088303089" lon="9.142093593254684">
<ele>529.4</ele>
<time>2024-05-10T15:31:09Z</time>
</trkpt>
<trkpt lat="49.50600050389767" lon="9.142153691500424">
<ele>529.2</ele>
<time>2024-05-10T15:31:10Z</time>
</trkpt>
<trkpt lat="49.50604626908898" lon="9.14222619496286">
<ele>528.8</ele>
<time>2024-05-10T15:31:11Z</time>
</trkpt>
<trkpt lat="49.506084406748414" lon="9.142310097813606">
<ele>528.6</ele>
<time>2024-05-10T15:31:12Z</time>
</trkpt>
<trkpt lat="49.50611114501953" lon="9.142403556033967">
<ele>528.4</ele>
<time>2024-05-10T15:31:13Z</time>
</trkpt>
<trkpt lat="49.50613779947162" lon="9.14249986410141">
<ele>528.2</ele>
<time>2024-05-10T15:31:14Z</time>
</trkpt>
<trkpt lat="49.506160682067275" lon="9.14259810000658">
<ele>527.8</ele>
<time>2024-05-10T15:31:15Z</time>
</trkpt>
<trkpt lat="49.506179792806506" lon="9.142695413902402">
<ele>527.6</ele>
<time>2024-05-10T15:31:16Z</time>
</trkpt>
<trkpt lat="49.506198819726706" lon="9.142789794132112">
<ele>527.2</ele>
<time>2024-05-10T15:31:17Z</time>
</trkpt>
<trkpt lat="49.50622170232237" lon="9.142880402505398">
<ele>527</ele>
<time>2024-05-10T15:31:18Z</time>
</trkpt>
<trkpt lat="49.50625221244991" lon="9.142968161031604">
<ele>526.6</ele>
<time>2024-05-10T15:31:19Z</time>
</trkpt>
<trkpt lat="49.50628657825291" lon="9.143052063882353">
<ele>526.4</ele>
<time>2024-05-10T15:31:20Z</time>
</trkpt>
<trkpt lat="49.506317088380456" lon="9.14313697256148">
<ele>526.2</ele>
<time>2024-05-10T15:31:21Z</time>
</trkpt>
<trkpt lat="49.506347598508" lon="9.143223725259304">
<ele>525.8</ele>
<time>2024-05-10T15:31:22Z</time>
</trkpt>
<trkpt lat="49.50638196431101" lon="9.14330955594778">
<ele>525.4</ele>
<time>2024-05-10T15:31:23Z</time>
</trkpt>
<trkpt lat="49.506420101970434" lon="9.143395386636255">
<ele>524.8</ele>
<time>2024-05-10T15:31:24Z</time>
</trkpt>
<trkpt lat="49.506458239629865" lon="9.143473589792848">
<ele>524.4</ele>
<time>2024-05-10T15:31:25Z</time>
</trkpt>
<trkpt lat="49.506496377289295" lon="9.14354701526463">
<ele>524</ele>
<time>2024-05-10T15:31:26Z</time>
</trkpt>
<trkpt lat="49.5065307430923" lon="9.143618512898684">
<ele>523.599</ele>
<time>2024-05-10T15:31:27Z</time>
</trkpt>
<trkpt lat="49.50656502507627" lon="9.14368531666696">
<ele>523.2</ele>
<time>2024-05-10T15:31:28Z</time>
</trkpt>
<trkpt lat="49.506595535203815" lon="9.143753042444589">
<ele>522.8</ele>
<time>2024-05-10T15:31:29Z</time>
</trkpt>
<trkpt lat="49.50662990100682" lon="9.143819762393832">
<ele>522.4</ele>
<time>2024-05-10T15:31:30Z</time>
</trkpt>
<trkpt lat="49.50666426680982" lon="9.14388656616211">
<ele>522</ele>
<time>2024-05-10T15:31:31Z</time>
</trkpt>
<trkpt lat="49.50670240446925" lon="9.143950436264277">
<ele>521.599</ele>
<time>2024-05-10T15:31:32Z</time>
</trkpt>
<trkpt lat="49.50673668645322" lon="9.144006678834558">
<ele>521.4</ele>
<time>2024-05-10T15:31:33Z</time>
</trkpt>
<trkpt lat="49.50677105225623" lon="9.144064849242568">
<ele>521</ele>
<time>2024-05-10T15:31:34Z</time>
</trkpt>
<trkpt lat="49.50680541805923" lon="9.144123019650578">
<ele>520.8</ele>
<time>2024-05-10T15:31:35Z</time>
</trkpt>
<trkpt lat="49.5068397000432" lon="9.144181190058587">
<ele>520.4</ele>
<time>2024-05-10T15:31:36Z</time>
</trkpt>
<trkpt lat="49.506874065846205" lon="9.144241288304327">
<ele>520</ele>
<time>2024-05-10T15:31:37Z</time>
</trkpt>
<trkpt lat="49.506908347830176" lon="9.144303314387798">
<ele>519.8</ele>
<time>2024-05-10T15:31:38Z</time>
</trkpt>
<trkpt lat="49.50694648548961" lon="9.144366262480617">
<ele>519.4</ele>
<time>2024-05-10T15:31:39Z</time>
</trkpt>
<trkpt lat="49.50698085129261" lon="9.144434910267591">
<ele>519.2</ele>
<time>2024-05-10T15:31:40Z</time>
</trkpt>
<trkpt lat="49.50701521709561" lon="9.144508335739374">
<ele>518.8</ele>
<time>2024-05-10T15:31:41Z</time>
</trkpt>
<trkpt lat="49.50705335475504" lon="9.144584611058235">
<ele>518.599</ele>
<time>2024-05-10T15:31:42Z</time>
</trkpt>
<trkpt lat="49.507091492414474" lon="9.144662814214826">
<ele>518.4</ele>
<time>2024-05-10T15:31:43Z</time>
</trkpt>
<trkpt lat="49.50713340193033" lon="9.144741939380763">
<ele>518</ele>
<time>2024-05-10T15:31:44Z</time>
</trkpt>
<trkpt lat="49.507171623408794" lon="9.144820142537355">
<ele>517.599</ele>
<time>2024-05-10T15:31:45Z</time>
</trkpt>
<trkpt lat="49.50721353292465" lon="9.144901195541024">
<ele>517.4</ele>
<time>2024-05-10T15:31:46Z</time>
</trkpt>
<trkpt lat="49.50725167058408" lon="9.144980404525995">
<ele>517</ele>
<time>2024-05-10T15:31:47Z</time>
</trkpt>
<trkpt lat="49.5072974357754" lon="9.145056679844856">
<ele>516.599</ele>
<time>2024-05-10T15:31:48Z</time>
</trkpt>
<trkpt lat="49.50733942911029" lon="9.145132955163715">
<ele>516.2</ele>
<time>2024-05-10T15:31:49Z</time>
</trkpt>
<trkpt lat="49.50738142244518" lon="9.1452063806355">
<ele>515.8</ele>
<time>2024-05-10T15:31:50Z</time>
</trkpt>
<trkpt lat="49.50741956010461" lon="9.145273184403775">
<ele>515.599</ele>
<time>2024-05-10T15:31:51Z</time>
</trkpt>
<trkpt lat="49.50745769776404" lon="9.145333282649515">
<ele>515.2</ele>
<time>2024-05-10T15:31:52Z</time>
</trkpt>
<trkpt lat="49.50749583542347" lon="9.145389525219798">
<ele>515</ele>
<time>2024-05-10T15:31:53Z</time>
</trkpt>
<trkpt lat="49.50753020122647" lon="9.14544484578073">
<ele>514.8</ele>
<time>2024-05-10T15:31:54Z</time>
</trkpt>
<trkpt lat="49.507564483210444" lon="9.14550201036036">
<ele>514.599</ele>
<time>2024-05-10T15:31:55Z</time>
</trkpt>
<trkpt lat="49.50759884901345" lon="9.145560264587402">
<ele>514.2</ele>
<time>2024-05-10T15:31:56Z</time>
</trkpt>
<trkpt lat="49.50763313099742" lon="9.145621284842491">
<ele>514</ele>
<time>2024-05-10T15:31:57Z</time>
</trkpt>
<trkpt lat="49.50766749680042" lon="9.145683227106929">
<ele>513.8</ele>
<time>2024-05-10T15:31:58Z</time>
</trkpt>
<trkpt lat="49.507701862603426" lon="9.145746175199749">
<ele>513.599</ele>
<time>2024-05-10T15:31:59Z</time>
</trkpt>
<trkpt lat="49.50774000026286" lon="9.145808201283216">
<ele>513.4</ele>
<time>2024-05-10T15:32:00Z</time>
</trkpt>
<trkpt lat="49.50777428224683" lon="9.145868299528956">
<ele>513.2</ele>
<time>2024-05-10T15:32:01Z</time>
</trkpt>
<trkpt lat="49.50780479237437" lon="9.145923536270857">
<ele>513</ele>
<time>2024-05-10T15:32:02Z</time>
</trkpt>
<trkpt lat="49.507839158177376" lon="9.14597793482244">
<ele>512.8</ele>
<time>2024-05-10T15:32:03Z</time>
</trkpt>
<trkpt lat="49.50786966830492" lon="9.146031327545645">
<ele>512.599</ele>
<time>2024-05-10T15:32:04Z</time>
</trkpt>
<trkpt lat="49.50788492336869" lon="9.14609620347619">
<ele>512.599</ele>
<time>2024-05-10T15:32:05Z</time>
</trkpt>
<trkpt lat="49.50788877904415" lon="9.146168706938624">
<ele>512.4</ele>
<time>2024-05-10T15:32:06Z</time>
</trkpt>
<trkpt lat="49.507881151512265" lon="9.146240204572678">
<ele>512.2</ele>
<time>2024-05-10T15:32:07Z</time>
</trkpt>
<trkpt lat="49.50786589644849" lon="9.14631363004446">
<ele>512.2</ele>
<time>2024-05-10T15:32:08Z</time>
</trkpt>
<trkpt lat="49.50784678570926" lon="9.146385127678514">
<ele>512</ele>
<time>2024-05-10T15:32:09Z</time>
</trkpt>
<trkpt lat="49.50783153064549" lon="9.146454781293867">
<ele>511.8</ele>
<time>2024-05-10T15:32:10Z</time>
</trkpt>
<trkpt lat="49.50780864804983" lon="9.146523429080844">
<ele>511.8</ele>
<time>2024-05-10T15:32:11Z</time>
</trkpt>
<trkpt lat="49.50779339298606" lon="9.146594926714895">
<ele>511.8</ele>
<time>2024-05-10T15:32:12Z</time>
</trkpt>
<trkpt lat="49.50777813792229" lon="9.146664580330253">
<ele>511.6</ele>
<time>2024-05-10T15:32:13Z</time>
</trkpt>
<trkpt lat="49.507762882858515" lon="9.146735155954955">
<ele>511.4</ele>
<time>2024-05-10T15:32:14Z</time>
</trkpt>
<trkpt lat="49.50775139965117" lon="9.146804809570313">
<ele>511.4</ele>
<time>2024-05-10T15:32:15Z</time>
</trkpt>
<trkpt lat="49.50774000026286" lon="9.146876307204366">
<ele>511.2</ele>
<time>2024-05-10T15:32:16Z</time>
</trkpt>
<trkpt lat="49.50772851705551" lon="9.14694780483842">
<ele>511</ele>
<time>2024-05-10T15:32:17Z</time>
</trkpt>
<trkpt lat="49.50771326199174" lon="9.147023158147933">
<ele>511</ele>
<time>2024-05-10T15:32:18Z</time>
</trkpt>
<trkpt lat="49.50770563445985" lon="9.147096583619714">
<ele>510.8</ele>
<time>2024-05-10T15:32:19Z</time>
</trkpt>
<trkpt lat="49.50769800692797" lon="9.147172858938577">
<ele>510.8</ele>
<time>2024-05-10T15:32:20Z</time>
</trkpt>
<trkpt lat="49.507686607539654" lon="9.147250140085816">
<ele>510.6</ele>
<time>2024-05-10T15:32:21Z</time>
</trkpt>
<trkpt lat="49.50767135247588" lon="9.147324487566948">
<ele>510.6</ele>
<time>2024-05-10T15:32:22Z</time>
</trkpt>
<trkpt lat="49.50765986926854" lon="9.14740176871419">
<ele>510.6</ele>
<time>2024-05-10T15:32:23Z</time>
</trkpt>
<trkpt lat="49.50764838606119" lon="9.14747804403305">
<ele>510.4</ele>
<time>2024-05-10T15:32:24Z</time>
</trkpt>
<trkpt lat="49.507640758529305" lon="9.147549625486135">
<ele>510.4</ele>
<time>2024-05-10T15:32:25Z</time>
</trkpt>
<trkpt lat="49.50762935914099" lon="9.147623050957918">
<ele>510.4</ele>
<time>2024-05-10T15:32:26Z</time>
</trkpt>
<trkpt lat="49.507621731609106" lon="9.147694548591971">
<ele>510.4</ele>
<time>2024-05-10T15:32:27Z</time>
</trkpt>
<trkpt lat="49.50761410407722" lon="9.147769901901484">
<ele>510.4</ele>
<time>2024-05-10T15:32:28Z</time>
</trkpt>
<trkpt lat="49.507606476545334" lon="9.147845255210996">
<ele>510.4</ele>
<time>2024-05-10T15:32:29Z</time>
</trkpt>
<trkpt lat="49.50759884901345" lon="9.147919602692127">
<ele>510.2</ele>
<time>2024-05-10T15:32:30Z</time>
</trkpt>
<trkpt lat="49.50759499333799" lon="9.147996883839369">
<ele>510.2</ele>
<time>2024-05-10T15:32:31Z</time>
</trkpt>
<trkpt lat="49.5075873658061" lon="9.148070309311152">
<ele>510.2</ele>
<time>2024-05-10T15:32:32Z</time>
</trkpt>
<trkpt lat="49.50757973827422" lon="9.148141806945205">
<ele>510</ele>
<time>2024-05-10T15:32:33Z</time>
</trkpt>
<trkpt lat="49.50756071135402" lon="9.148206682875752">
<ele>510</ele>
<time>2024-05-10T15:32:34Z</time>
</trkpt>
<trkpt lat="49.50753020122647" lon="9.148256219923496">
<ele>510</ele>
<time>2024-05-10T15:32:35Z</time>
</trkpt>
<trkpt lat="49.50749583542347" lon="9.148296285420656">
<ele>510</ele>
<time>2024-05-10T15:32:36Z</time>
</trkpt>
<trkpt lat="49.50745769776404" lon="9.148340206593277">
<ele>509.8</ele>
<time>2024-05-10T15:32:37Z</time>
</trkpt>
<trkpt lat="49.50741956010461" lon="9.148384965956213">
<ele>509.8</ele>
<time>2024-05-10T15:32:38Z</time>
</trkpt>
<trkpt lat="49.50738142244518" lon="9.148434586822988">
<ele>509.8</ele>
<time>2024-05-10T15:32:39Z</time>
</trkpt>
<trkpt lat="49.50734328478575" lon="9.14848705753684">
<ele>509.8</ele>
<time>2024-05-10T15:32:40Z</time>
</trkpt>
<trkpt lat="49.507305063307285" lon="9.148536678403616">
<ele>509.8</ele>
<time>2024-05-10T15:32:41Z</time>
</trkpt>
<trkpt lat="49.50726315379143" lon="9.14858336560428">
<ele>509.6</ele>
<time>2024-05-10T15:32:42Z</time>
</trkpt>
<trkpt lat="49.507225016132" lon="9.148639608174562">
<ele>509.6</ele>
<time>2024-05-10T15:32:43Z</time>
</trkpt>
<trkpt lat="49.50719450600445" lon="9.148701634258032">
<ele>509.4</ele>
<time>2024-05-10T15:32:44Z</time>
</trkpt>
<trkpt lat="49.50715251266956" lon="9.148756954818964">
<ele>509.4</ele>
<time>2024-05-10T15:32:45Z</time>
</trkpt>
<trkpt lat="49.507110519334674" lon="9.148817975074053">
<ele>509.2</ele>
<time>2024-05-10T15:32:46Z</time>
</trkpt>
<trkpt lat="49.50708000920713" lon="9.148886622861028">
<ele>509.2</ele>
<time>2024-05-10T15:32:47Z</time>
</trkpt>
<trkpt lat="49.50704572722316" lon="9.148955270648004">
<ele>509.2</ele>
<time>2024-05-10T15:32:48Z</time>
</trkpt>
<trkpt lat="49.507011361420155" lon="9.149026852101088">
<ele>509</ele>
<time>2024-05-10T15:32:49Z</time>
</trkpt>
<trkpt lat="49.50698085129261" lon="9.14910027757287">
<ele>509</ele>
<time>2024-05-10T15:32:50Z</time>
</trkpt>
<trkpt lat="49.50695796869695" lon="9.149176552891731">
<ele>508.8</ele>
<time>2024-05-10T15:32:51Z</time>
</trkpt>
<trkpt lat="49.506935086101294" lon="9.149251906201243">
<ele>508.8</ele>
<time>2024-05-10T15:32:52Z</time>
</trkpt>
<trkpt lat="49.506912203505635" lon="9.149325331673026">
<ele>508.6</ele>
<time>2024-05-10T15:32:53Z</time>
</trkpt>
<trkpt lat="49.50688932090998" lon="9.14939682930708">
<ele>508.4</ele>
<time>2024-05-10T15:32:54Z</time>
</trkpt>
<trkpt lat="49.50686258263886" lon="9.149464555084704">
<ele>508.4</ele>
<time>2024-05-10T15:32:55Z</time>
</trkpt>
<trkpt lat="49.5068397000432" lon="9.14953513070941">
<ele>508.2</ele>
<time>2024-05-10T15:32:56Z</time>
</trkpt>
<trkpt lat="49.50681681744754" lon="9.149604784324763">
<ele>508.2</ele>
<time>2024-05-10T15:32:57Z</time>
</trkpt>
<trkpt lat="49.50680156238377" lon="9.14967343211174">
<ele>508</ele>
<time>2024-05-10T15:32:58Z</time>
</trkpt>
<trkpt lat="49.50678245164454" lon="9.149736380204558">
<ele>508</ele>
<time>2024-05-10T15:32:59Z</time>
</trkpt>
<trkpt lat="49.50675956904888" lon="9.149803100153804">
<ele>508</ele>
<time>2024-05-10T15:33:00Z</time>
</trkpt>
<trkpt lat="49.50674054212868" lon="9.149867054075004">
<ele>507.8</ele>
<time>2024-05-10T15:33:01Z</time>
</trkpt>
<trkpt lat="49.50672528706491" lon="9.149928074330091">
<ele>507.8</ele>
<time>2024-05-10T15:33:02Z</time>
</trkpt>
<trkpt lat="49.506713803857565" lon="9.14999001659453">
<ele>507.8</ele>
<time>2024-05-10T15:33:03Z</time>
</trkpt>
<trkpt lat="49.50670617632568" lon="9.15004818700254">
<ele>507.8</ele>
<time>2024-05-10T15:33:04Z</time>
</trkpt>
<trkpt lat="49.506694776937366" lon="9.150103507563472">
<ele>507.8</ele>
<time>2024-05-10T15:33:05Z</time>
</trkpt>
<trkpt lat="49.50667952187359" lon="9.150150278583167">
<ele>507.8</ele>
<time>2024-05-10T15:33:06Z</time>
</trkpt>
<trkpt lat="49.50667189434171" lon="9.150195121765137">
<ele>507.8</ele>
<time>2024-05-10T15:33:07Z</time>
</trkpt>
<trkpt lat="49.50666426680982" lon="9.15022848173976">
<ele>508</ele>
<time>2024-05-10T15:33:08Z</time>
</trkpt>
<trkpt lat="49.50666426680982" lon="9.150255136191843">
<ele>508.2</ele>
<time>2024-05-10T15:33:09Z</time>
</trkpt>
<trkpt lat="49.50666426680982" lon="9.150278018787503">
<ele>508.2</ele>
<time>2024-05-10T15:33:10Z</time>
</trkpt>
<trkpt lat="49.50666426680982" lon="9.150301907211542">
<ele>508.4</ele>
<time>2024-05-10T15:33:11Z</time>
</trkpt>
<trkpt lat="49.50666803866625" lon="9.1503247898072">
<ele>508.4</ele>
<time>2024-05-10T15:33:12Z</time>
</trkpt>
<trkpt lat="49.50667189434171" lon="9.150349600240588">
<ele>508.6</ele>
<time>2024-05-10T15:33:13Z</time>
</trkpt>
<trkpt lat="49.50667952187359" lon="9.150369632989168">
<ele>508.6</ele>
<time>2024-05-10T15:33:14Z</time>
</trkpt>
<trkpt lat="49.50668714940548" lon="9.150388659909368">
<ele>508.8</ele>
<time>2024-05-10T15:33:15Z</time>
</trkpt>
<trkpt lat="49.506694776937366" lon="9.150406764820218">
<ele>508.8</ele>
<time>2024-05-10T15:33:16Z</time>
</trkpt>
<trkpt lat="49.50670240446925" lon="9.15042201988399">
<ele>508.8</ele>
<time>2024-05-10T15:33:17Z</time>
</trkpt>
<trkpt lat="49.50670617632568" lon="9.150436352938414">
<ele>508.8</ele>
<time>2024-05-10T15:33:18Z</time>
</trkpt>
<trkpt lat="49.50671003200114" lon="9.150449680164456">
<ele>509</ele>
<time>2024-05-10T15:33:19Z</time>
</trkpt>
<trkpt lat="49.506717659533024" lon="9.150466863065958">
<ele>509</ele>
<time>2024-05-10T15:33:20Z</time>
</trkpt>
<trkpt lat="49.50672905892134" lon="9.15048119612038">
<ele>509</ele>
<time>2024-05-10T15:33:21Z</time>
</trkpt>
<trkpt lat="49.50673668645322" lon="9.150498379021885">
<ele>509</ele>
<time>2024-05-10T15:33:22Z</time>
</trkpt>
<trkpt lat="49.50673668645322" lon="9.15052025578916">
<ele>509</ele>
<time>2024-05-10T15:33:23Z</time>
</trkpt>
<trkpt lat="49.50674816966057" lon="9.150551771745086">
<ele>509</ele>
<time>2024-05-10T15:33:24Z</time>
</trkpt>
<trkpt lat="49.50676342472434" lon="9.150576582178472">
<ele>509</ele>
<time>2024-05-10T15:33:25Z</time>
</trkpt>
<trkpt lat="49.50678245164454" lon="9.15060130879283">
<ele>509</ele>
<time>2024-05-10T15:33:26Z</time>
</trkpt>
<trkpt lat="49.50680918991566" lon="9.150625197216868">
<ele>509</ele>
<time>2024-05-10T15:33:27Z</time>
</trkpt>
<trkpt lat="49.506835928186774" lon="9.150646151974795">
<ele>509</ele>
<time>2024-05-10T15:33:28Z</time>
</trkpt>
<trkpt lat="49.50685881078243" lon="9.150676662102342">
<ele>509</ele>
<time>2024-05-10T15:33:29Z</time>
</trkpt>
<trkpt lat="49.50688169337809" lon="9.15070147253573">
<ele>509</ele>
<time>2024-05-10T15:33:30Z</time>
</trkpt>
<trkpt lat="49.506908347830176" lon="9.150726282969115">
<ele>509</ele>
<time>2024-05-10T15:33:31Z</time>
</trkpt>
<trkpt lat="49.506935086101294" lon="9.150752015411854">
<ele>509</ele>
<time>2024-05-10T15:33:32Z</time>
</trkpt>
<trkpt lat="49.5069694519043" lon="9.15077967569232">
<ele>509</ele>
<time>2024-05-10T15:33:33Z</time>
</trkpt>
<trkpt lat="49.50699996203184" lon="9.15080356411636">
<ele>509</ele>
<time>2024-05-10T15:33:34Z</time>
</trkpt>
<trkpt lat="49.507030472159386" lon="9.150826446712015">
<ele>509</ele>
<time>2024-05-10T15:33:35Z</time>
</trkpt>
<trkpt lat="49.50706098228693" lon="9.150853101164104">
<ele>509</ele>
<time>2024-05-10T15:33:36Z</time>
</trkpt>
<trkpt lat="49.507091492414474" lon="9.15088176727295">
<ele>509</ele>
<time>2024-05-10T15:33:37Z</time>
</trkpt>
<trkpt lat="49.50712200254202" lon="9.150910349562764">
<ele>509.2</ele>
<time>2024-05-10T15:33:38Z</time>
</trkpt>
<trkpt lat="49.50715251266956" lon="9.15093700401485">
<ele>509.2</ele>
<time>2024-05-10T15:33:39Z</time>
</trkpt>
<trkpt lat="49.50718302279711" lon="9.150970447808504">
<ele>509.4</ele>
<time>2024-05-10T15:33:40Z</time>
</trkpt>
<trkpt lat="49.50719827786088" lon="9.151013363152742">
<ele>509.6</ele>
<time>2024-05-10T15:33:41Z</time>
</trkpt>
<trkpt lat="49.507205905392766" lon="9.151064828038216">
<ele>509.6</ele>
<time>2024-05-10T15:33:42Z</time>
</trkpt>
<trkpt lat="49.50720213353634" lon="9.15111537091434">
<ele>509.8</ele>
<time>2024-05-10T15:33:43Z</time>
</trkpt>
<trkpt lat="49.507190650328994" lon="9.151164991781116">
<ele>509.8</ele>
<time>2024-05-10T15:33:44Z</time>
</trkpt>
<trkpt lat="49.50717925094068" lon="9.15121452882886">
<ele>509.8</ele>
<time>2024-05-10T15:33:45Z</time>
</trkpt>
<trkpt lat="49.50716399587691" lon="9.151266999542711">
<ele>509.8</ele>
<time>2024-05-10T15:33:46Z</time>
</trkpt>
<trkpt lat="49.507148740813136" lon="9.151320392265916">
<ele>510</ele>
<time>2024-05-10T15:33:47Z</time>
</trkpt>
<trkpt lat="49.50713340193033" lon="9.15137286297977">
<ele>510</ele>
<time>2024-05-10T15:33:48Z</time>
</trkpt>
<trkpt lat="49.50711437501013" lon="9.151430111378431">
<ele>510.4</ele>
<time>2024-05-10T15:33:49Z</time>
</trkpt>
<trkpt lat="49.5070952642709" lon="9.151486353948712">
<ele>510.6</ele>
<time>2024-05-10T15:33:50Z</time>
</trkpt>
<trkpt lat="49.50708000920713" lon="9.151546452194452">
<ele>510.8</ele>
<time>2024-05-10T15:33:51Z</time>
</trkpt>
<trkpt lat="49.50706098228693" lon="9.151606550440192">
<ele>511.2</ele>
<time>2024-05-10T15:33:52Z</time>
</trkpt>
<trkpt lat="49.50704572722316" lon="9.15167042054236">
<ele>511.4</ele>
<time>2024-05-10T15:33:53Z</time>
</trkpt>
<trkpt lat="49.507030472159386" lon="9.151731440797448">
<ele>511.6</ele>
<time>2024-05-10T15:33:54Z</time>
</trkpt>
<trkpt lat="49.5070228446275" lon="9.151795310899615">
<ele>511.8</ele>
<time>2024-05-10T15:33:55Z</time>
</trkpt>
<trkpt lat="49.50701521709561" lon="9.151856414973736">
<ele>512</ele>
<time>2024-05-10T15:33:56Z</time>
</trkpt>
<trkpt lat="49.507011361420155" lon="9.151921207085252">
<ele>512</ele>
<time>2024-05-10T15:33:57Z</time>
</trkpt>
<trkpt lat="49.50700758956373" lon="9.15198516100645">
<ele>512.4</ele>
<time>2024-05-10T15:33:58Z</time>
</trkpt>
<trkpt lat="49.50700373388827" lon="9.152048109099267">
<ele>512.599</ele>
<time>2024-05-10T15:33:59Z</time>
</trkpt>
<trkpt lat="49.50700373388827" lon="9.152110051363708">
<ele>512.8</ele>
<time>2024-05-10T15:34:00Z</time>
</trkpt>
<trkpt lat="49.50700373388827" lon="9.152172077447176">
<ele>513</ele>
<time>2024-05-10T15:34:01Z</time>
</trkpt>
<trkpt lat="49.50699996203184" lon="9.152233097702265">
<ele>513.4</ele>
<time>2024-05-10T15:34:02Z</time>
</trkpt>
<trkpt lat="49.50699996203184" lon="9.152295039966702">
<ele>513.599</ele>
<time>2024-05-10T15:34:03Z</time>
</trkpt>
<trkpt lat="49.50699996203184" lon="9.152357066050172">
<ele>513.8</ele>
<time>2024-05-10T15:34:04Z</time>
</trkpt>
<trkpt lat="49.50700373388827" lon="9.15241808630526">
<ele>514</ele>
<time>2024-05-10T15:34:05Z</time>
</trkpt>
<trkpt lat="49.50700758956373" lon="9.152476256713271">
<ele>514.2</ele>
<time>2024-05-10T15:34:06Z</time>
</trkpt>
<trkpt lat="49.507011361420155" lon="9.152536354959013">
<ele>514.4</ele>
<time>2024-05-10T15:34:07Z</time>
</trkpt>
<trkpt lat="49.507011361420155" lon="9.15259838104248">
<ele>514.599</ele>
<time>2024-05-10T15:34:08Z</time>
</trkpt>
<trkpt lat="49.507011361420155" lon="9.152658395469189">
<ele>514.8</ele>
<time>2024-05-10T15:34:09Z</time>
</trkpt>
<trkpt lat="49.507011361420155" lon="9.152718493714929">
<ele>515</ele>
<time>2024-05-10T15:34:10Z</time>
</trkpt>
<trkpt lat="49.50701521709561" lon="9.152779513970016">
<ele>515.2</ele>
<time>2024-05-10T15:34:11Z</time>
</trkpt>
<trkpt lat="49.50701898895204" lon="9.152843467891216">
<ele>515.4</ele>
<time>2024-05-10T15:34:12Z</time>
</trkpt>
<trkpt lat="49.5070228446275" lon="9.152906415984036">
<ele>515.8</ele>
<time>2024-05-10T15:34:13Z</time>
</trkpt>
<trkpt lat="49.50702661648393" lon="9.152970286086202">
<ele>516</ele>
<time>2024-05-10T15:34:14Z</time>
</trkpt>
<trkpt lat="49.50703424401581" lon="9.15303323417902">
<ele>516.2</ele>
<time>2024-05-10T15:34:15Z</time>
</trkpt>
<trkpt lat="49.5070418715477" lon="9.153098026290536">
<ele>516.4</ele>
<time>2024-05-10T15:34:16Z</time>
</trkpt>
<trkpt lat="49.5070418715477" lon="9.153161980211737">
<ele>516.599</ele>
<time>2024-05-10T15:34:17Z</time>
</trkpt>
<trkpt lat="49.507049499079585" lon="9.153224928304551">
<ele>516.8</ele>
<time>2024-05-10T15:34:18Z</time>
</trkpt>
<trkpt lat="49.50705335475504" lon="9.153291648253798">
<ele>517</ele>
<time>2024-05-10T15:34:19Z</time>
</trkpt>
<trkpt lat="49.50705335475504" lon="9.153358452022076">
<ele>517.2</ele>
<time>2024-05-10T15:34:20Z</time>
</trkpt>
<trkpt lat="49.50705335475504" lon="9.15342709980905">
<ele>517.4</ele>
<time>2024-05-10T15:34:21Z</time>
</trkpt>
<trkpt lat="49.50706098228693" lon="9.153498597443104">
<ele>517.599</ele>
<time>2024-05-10T15:34:22Z</time>
</trkpt>
<trkpt lat="49.50706475414336" lon="9.153573028743269">
<ele>517.599</ele>
<time>2024-05-10T15:34:23Z</time>
</trkpt>
<trkpt lat="49.507068609818816" lon="9.153650226071475">
<ele>517.599</ele>
<time>2024-05-10T15:34:24Z</time>
</trkpt>
<trkpt lat="49.50707238167524" lon="9.153730357065797">
<ele>517.599</ele>
<time>2024-05-10T15:34:25Z</time>
</trkpt>
<trkpt lat="49.50708000920713" lon="9.153811410069466">
<ele>517.8</ele>
<time>2024-05-10T15:34:26Z</time>
</trkpt>
<trkpt lat="49.507087636739016" lon="9.153971672058104">
<ele>517.8</ele>
<time>2024-05-10T15:34:28Z</time>
</trkpt>
<trkpt lat="49.507091492414474" lon="9.154051719233394">
<ele>517.8</ele>
<time>2024-05-10T15:34:29Z</time>
</trkpt>
<trkpt lat="49.507091492414474" lon="9.154129922389984">
<ele>517.599</ele>
<time>2024-05-10T15:34:30Z</time>
</trkpt>
<trkpt lat="49.5070952642709" lon="9.154211981222034">
<ele>517.599</ele>
<time>2024-05-10T15:34:31Z</time>
</trkpt>
<trkpt lat="49.5070952642709" lon="9.15429680608213">
<ele>517.599</ele>
<time>2024-05-10T15:34:32Z</time>
</trkpt>
<trkpt lat="49.507091492414474" lon="9.154383642598988">
<ele>517.4</ele>
<time>2024-05-10T15:34:33Z</time>
</trkpt>
<trkpt lat="49.507087636739016" lon="9.15447324514389">
<ele>517.4</ele>
<time>2024-05-10T15:34:34Z</time>
</trkpt>
<trkpt lat="49.50708000920713" lon="9.154564775526524">
<ele>517.4</ele>
<time>2024-05-10T15:34:35Z</time>
</trkpt>
<trkpt lat="49.50706475414336" lon="9.154656389728189">
<ele>517.2</ele>
<time>2024-05-10T15:34:36Z</time>
</trkpt>
<trkpt lat="49.50705335475504" lon="9.154745070263743">
<ele>517</ele>
<time>2024-05-10T15:34:37Z</time>
</trkpt>
<trkpt lat="49.50703424401581" lon="9.154831822961569">
<ele>516.8</ele>
<time>2024-05-10T15:34:38Z</time>
</trkpt>
<trkpt lat="49.50701521709561" lon="9.154914803802969">
<ele>516.8</ele>
<time>2024-05-10T15:34:39Z</time>
</trkpt>
<trkpt lat="49.50699996203184" lon="9.154998706653714">
<ele>516.4</ele>
<time>2024-05-10T15:34:40Z</time>
</trkpt>
<trkpt lat="49.50697707943618" lon="9.155077915638683">
<ele>516.2</ele>
<time>2024-05-10T15:34:41Z</time>
</trkpt>
<trkpt lat="49.50696174055338" lon="9.155159890651705">
<ele>516</ele>
<time>2024-05-10T15:34:42Z</time>
</trkpt>
<trkpt lat="49.50694271363318" lon="9.155241949483752">
<ele>515.599</ele>
<time>2024-05-10T15:34:43Z</time>
</trkpt>
<trkpt lat="49.50692360289395" lon="9.15532199665904">
<ele>515.4</ele>
<time>2024-05-10T15:34:44Z</time>
</trkpt>
<trkpt lat="49.506908347830176" lon="9.155401205644011">
<ele>515</ele>
<time>2024-05-10T15:34:45Z</time>
</trkpt>
<trkpt lat="49.50688932090998" lon="9.15548318065703">
<ele>514.8</ele>
<time>2024-05-10T15:34:46Z</time>
</trkpt>
<trkpt lat="49.506874065846205" lon="9.15556523948908">
<ele>514.599</ele>
<time>2024-05-10T15:34:47Z</time>
</trkpt>
<trkpt lat="49.50685881078243" lon="9.155646292492747">
<ele>514.4</ele>
<time>2024-05-10T15:34:48Z</time>
</trkpt>
<trkpt lat="49.50684355571866" lon="9.155728267505763">
<ele>514.4</ele>
<time>2024-05-10T15:34:49Z</time>
</trkpt>
<trkpt lat="49.50682830065489" lon="9.155811248347163">
<ele>514.2</ele>
<time>2024-05-10T15:34:50Z</time>
</trkpt>
<trkpt lat="49.50680918991566" lon="9.155893307179213">
<ele>514.2</ele>
<time>2024-05-10T15:34:51Z</time>
</trkpt>
<trkpt lat="49.506793934851885" lon="9.15597628802061">
<ele>514</ele>
<time>2024-05-10T15:34:52Z</time>
</trkpt>
<trkpt lat="49.506774824112654" lon="9.1560563351959">
<ele>514</ele>
<time>2024-05-10T15:34:53Z</time>
</trkpt>
<trkpt lat="49.50675956904888" lon="9.156129760667682">
<ele>513.8</ele>
<time>2024-05-10T15:34:54Z</time>
</trkpt>
<trkpt lat="49.50674431398511" lon="9.156205113977194">
<ele>513.599</ele>
<time>2024-05-10T15:34:55Z</time>
</trkpt>
<trkpt lat="49.50672905892134" lon="9.156278539448977">
<ele>513.4</ele>
<time>2024-05-10T15:34:56Z</time>
</trkpt>
<trkpt lat="49.506713803857565" lon="9.15635196492076">
<ele>513.2</ele>
<time>2024-05-10T15:34:57Z</time>
</trkpt>
<trkpt lat="49.50669854879379" lon="9.156423546373844">
<ele>513</ele>
<time>2024-05-10T15:34:58Z</time>
</trkpt>
<trkpt lat="49.50668329373002" lon="9.156495044007896">
<ele>513</ele>
<time>2024-05-10T15:34:59Z</time>
</trkpt>
<trkpt lat="49.50667189434171" lon="9.15656654164195">
<ele>512.8</ele>
<time>2024-05-10T15:35:00Z</time>
</trkpt>
<trkpt lat="49.506656639277935" lon="9.156640050932763">
<ele>512.8</ele>
<time>2024-05-10T15:35:01Z</time>
</trkpt>
<trkpt lat="49.50664515607059" lon="9.156711548566818">
<ele>512.599</ele>
<time>2024-05-10T15:35:02Z</time>
</trkpt>
<trkpt lat="49.50662990100682" lon="9.15678690187633">
<ele>512.599</ele>
<time>2024-05-10T15:35:03Z</time>
</trkpt>
<trkpt lat="49.50661841779947" lon="9.156861249357462">
<ele>512.4</ele>
<time>2024-05-10T15:35:04Z</time>
</trkpt>
<trkpt lat="49.5066031627357" lon="9.156940458342431">
<ele>512.4</ele>
<time>2024-05-10T15:35:05Z</time>
</trkpt>
<trkpt lat="49.50658790767193" lon="9.157018661499023">
<ele>512.2</ele>
<time>2024-05-10T15:35:06Z</time>
</trkpt>
<trkpt lat="49.506576508283615" lon="9.157098708674312">
<ele>512</ele>
<time>2024-05-10T15:35:07Z</time>
</trkpt>
<trkpt lat="49.50656125321984" lon="9.15717976167798">
<ele>512</ele>
<time>2024-05-10T15:35:08Z</time>
</trkpt>
<trkpt lat="49.5065497700125" lon="9.157266598194838">
<ele>511.6</ele>
<time>2024-05-10T15:35:09Z</time>
</trkpt>
<trkpt lat="49.506534514948726" lon="9.157355278730392">
<ele>511.4</ele>
<time>2024-05-10T15:35:10Z</time>
</trkpt>
<trkpt lat="49.50652311556041" lon="9.157446809113026">
<ele>511.2</ele>
<time>2024-05-10T15:35:11Z</time>
</trkpt>
<trkpt lat="49.50650786049664" lon="9.157541273161767">
<ele>511</ele>
<time>2024-05-10T15:35:12Z</time>
</trkpt>
<trkpt lat="49.506496377289295" lon="9.15763657540083">
<ele>510.6</ele>
<time>2024-05-10T15:35:13Z</time>
</trkpt>
<trkpt lat="49.50648497790098" lon="9.15773673914373">
<ele>510.4</ele>
<time>2024-05-10T15:35:14Z</time>
</trkpt>
<trkpt lat="49.50647349469364" lon="9.157839752733707">
<ele>510.2</ele>
<time>2024-05-10T15:35:15Z</time>
</trkpt>
<trkpt lat="49.50646209530533" lon="9.157946538180113">
<ele>510.2</ele>
<time>2024-05-10T15:35:16Z</time>
</trkpt>
<trkpt lat="49.50645061209798" lon="9.158055251464248">
<ele>510</ele>
<time>2024-05-10T15:35:17Z</time>
</trkpt>
<trkpt lat="49.50644298456609" lon="9.158162036910651">
<ele>510</ele>
<time>2024-05-10T15:35:18Z</time>
</trkpt>
<trkpt lat="49.506435357034206" lon="9.15826982818544">
<ele>509.8</ele>
<time>2024-05-10T15:35:19Z</time>
</trkpt>
<trkpt lat="49.50642772950232" lon="9.158372841775416">
<ele>509.8</ele>
<time>2024-05-10T15:35:20Z</time>
</trkpt>
<trkpt lat="49.50642387382686" lon="9.158474849537017">
<ele>509.6</ele>
<time>2024-05-10T15:35:21Z</time>
</trkpt>
<trkpt lat="49.50642387382686" lon="9.158571241423488">
<ele>509.6</ele>
<time>2024-05-10T15:35:22Z</time>
</trkpt>
<trkpt lat="49.50642387382686" lon="9.158668471500278">
<ele>509.4</ele>
<time>2024-05-10T15:35:23Z</time>
</trkpt>
<trkpt lat="49.506420101970434" lon="9.158762851729987">
<ele>509.2</ele>
<time>2024-05-10T15:35:24Z</time>
</trkpt>
<trkpt lat="49.506420101970434" lon="9.15885823778808">
<ele>509</ele>
<time>2024-05-10T15:35:25Z</time>
</trkpt>
<trkpt lat="49.506416246294975" lon="9.158953623846172">
<ele>508.8</ele>
<time>2024-05-10T15:35:26Z</time>
</trkpt>
<trkpt lat="49.50640861876309" lon="9.159045154228806">
<ele>508.6</ele>
<time>2024-05-10T15:35:27Z</time>
</trkpt>
<trkpt lat="49.50640484690666" lon="9.159141462296247">
<ele>508.4</ele>
<time>2024-05-10T15:35:28Z</time>
</trkpt>
<trkpt lat="49.506397219374776" lon="9.15923684835434">
<ele>508.2</ele>
<time>2024-05-10T15:35:29Z</time>
</trkpt>
<trkpt lat="49.50638573616743" lon="9.159331312403085">
<ele>508</ele>
<time>2024-05-10T15:35:30Z</time>
</trkpt>
<trkpt lat="49.50637048110366" lon="9.159422842785716">
<ele>507.8</ele>
<time>2024-05-10T15:35:31Z</time>
</trkpt>
<trkpt lat="49.506347598508" lon="9.159508673474193">
<ele>507.6</ele>
<time>2024-05-10T15:35:32Z</time>
</trkpt>
<trkpt lat="49.50632471591234" lon="9.15958972647786">
<ele>507.4</ele>
<time>2024-05-10T15:35:33Z</time>
</trkpt>
<trkpt lat="49.50629806146026" lon="9.159667929634452">
<ele>507.2</ele>
<time>2024-05-10T15:35:34Z</time>
</trkpt>
<trkpt lat="49.50627509504557" lon="9.159741355106236">
<ele>507</ele>
<time>2024-05-10T15:35:35Z</time>
</trkpt>
<trkpt lat="49.50624844059348" lon="9.159812852740288">
<ele>506.6</ele>
<time>2024-05-10T15:35:36Z</time>
</trkpt>
<trkpt lat="49.506236957386136" lon="9.159885356202722">
<ele>506.4</ele>
<time>2024-05-10T15:35:37Z</time>
</trkpt>
<trkpt lat="49.50623318552971" lon="9.159955009818075">
<ele>506</ele>
<time>2024-05-10T15:35:38Z</time>
</trkpt>
<trkpt lat="49.506236957386136" lon="9.1600245796144">
<ele>505.6</ele>
<time>2024-05-10T15:35:39Z</time>
</trkpt>
<trkpt lat="49.506236957386136" lon="9.160098005086184">
<ele>505.4</ele>
<time>2024-05-10T15:35:40Z</time>
</trkpt>
<trkpt lat="49.506240813061595" lon="9.160168580710888">
<ele>505.2</ele>
<time>2024-05-10T15:35:41Z</time>
</trkpt>
<trkpt lat="49.50624458491802" lon="9.16024200618267">
<ele>504.8</ele>
<time>2024-05-10T15:35:42Z</time>
</trkpt>
<trkpt lat="49.50624844059348" lon="9.160309731960297">
<ele>504.6</ele>
<time>2024-05-10T15:35:43Z</time>
</trkpt>
<trkpt lat="49.50624844059348" lon="9.160376535728574">
<ele>504.4</ele>
<time>2024-05-10T15:35:44Z</time>
</trkpt>
<trkpt lat="49.50625221244991" lon="9.16044325567782">
<ele>504.2</ele>
<time>2024-05-10T15:35:45Z</time>
</trkpt>
<trkpt lat="49.50625606812537" lon="9.160512909293177">
<ele>504</ele>
<time>2024-05-10T15:35:46Z</time>
</trkpt>
<trkpt lat="49.506259839981794" lon="9.160586334764956">
<ele>503.8</ele>
<time>2024-05-10T15:35:47Z</time>
</trkpt>
<trkpt lat="49.50626746751368" lon="9.16065976023674">
<ele>503.8</ele>
<time>2024-05-10T15:35:48Z</time>
</trkpt>
<trkpt lat="49.50627132318914" lon="9.16073695756495">
<ele>503.6</ele>
<time>2024-05-10T15:35:49Z</time>
</trkpt>
<trkpt lat="49.506278950721025" lon="9.16081516072154">
<ele>503.6</ele>
<time>2024-05-10T15:35:50Z</time>
</trkpt>
<trkpt lat="49.50628657825291" lon="9.160891519859431">
<ele>503.6</ele>
<time>2024-05-10T15:35:51Z</time>
</trkpt>
<trkpt lat="49.50629043392837" lon="9.160966873168944">
<ele>503.6</ele>
<time>2024-05-10T15:35:52Z</time>
</trkpt>
<trkpt lat="49.50630183331669" lon="9.161041220650077">
<ele>503.6</ele>
<time>2024-05-10T15:35:53Z</time>
</trkpt>
<trkpt lat="49.50630568899214" lon="9.16111464612186">
<ele>503.8</ele>
<time>2024-05-10T15:35:54Z</time>
</trkpt>
<trkpt lat="49.50631331652403" lon="9.161189999431372">
<ele>503.8</ele>
<time>2024-05-10T15:35:55Z</time>
</trkpt>
<trkpt lat="49.506320944055915" lon="9.161263424903154">
<ele>504</ele>
<time>2024-05-10T15:35:56Z</time>
</trkpt>
<trkpt lat="49.5063285715878" lon="9.161336850374935">
<ele>504</ele>
<time>2024-05-10T15:35:57Z</time>
</trkpt>
<trkpt lat="49.506339970976114" lon="9.16141027584672">
<ele>504.2</ele>
<time>2024-05-10T15:35:58Z</time>
</trkpt>
<trkpt lat="49.506347598508" lon="9.161484707146885">
<ele>504.4</ele>
<time>2024-05-10T15:35:59Z</time>
</trkpt>
<trkpt lat="49.50635145418346" lon="9.161558132618666">
<ele>504.4</ele>
<time>2024-05-10T15:36:00Z</time>
</trkpt>
<trkpt lat="49.506359081715345" lon="9.161633485928178">
<ele>504.6</ele>
<time>2024-05-10T15:36:01Z</time>
</trkpt>
<trkpt lat="49.50636285357177" lon="9.16170691139996">
<ele>504.6</ele>
<time>2024-05-10T15:36:02Z</time>
</trkpt>
<trkpt lat="49.50636670924723" lon="9.161780336871743">
<ele>504.6</ele>
<time>2024-05-10T15:36:03Z</time>
</trkpt>
<trkpt lat="49.50636670924723" lon="9.161853762343526">
<ele>504.6</ele>
<time>2024-05-10T15:36:04Z</time>
</trkpt>
<trkpt lat="49.50636670924723" lon="9.16192626580596">
<ele>504.6</ele>
<time>2024-05-10T15:36:05Z</time>
</trkpt>
<trkpt lat="49.50636670924723" lon="9.161999691277742">
<ele>504.4</ele>
<time>2024-05-10T15:36:06Z</time>
</trkpt>
<trkpt lat="49.50636670924723" lon="9.162074960768225">
<ele>504.4</ele>
<time>2024-05-10T15:36:07Z</time>
</trkpt>
<trkpt lat="49.50637048110366" lon="9.162150314077737">
<ele>504.4</ele>
<time>2024-05-10T15:36:08Z</time>
</trkpt>
<trkpt lat="49.50636670924723" lon="9.162226673215628">
<ele>504.2</ele>
<time>2024-05-10T15:36:09Z</time>
</trkpt>
<trkpt lat="49.50636670924723" lon="9.162304876372218">
<ele>504.2</ele>
<time>2024-05-10T15:36:10Z</time>
</trkpt>
<trkpt lat="49.50636285357177" lon="9.162382073700428">
<ele>504.2</ele>
<time>2024-05-10T15:36:11Z</time>
</trkpt>
<trkpt lat="49.506359081715345" lon="9.162458349019287">
<ele>504.2</ele>
<time>2024-05-10T15:36:12Z</time>
</trkpt>
<trkpt lat="49.50635522603989" lon="9.1625337023288">
<ele>504</ele>
<time>2024-05-10T15:36:13Z</time>
</trkpt>
<trkpt lat="49.50635145418346" lon="9.162608133628964">
<ele>504</ele>
<time>2024-05-10T15:36:14Z</time>
</trkpt>
<trkpt lat="49.50635145418346" lon="9.162685330957174">
<ele>504</ele>
<time>2024-05-10T15:36:15Z</time>
</trkpt>
<trkpt lat="49.50634382665157" lon="9.162761606276035">
<ele>503.8</ele>
<time>2024-05-10T15:36:16Z</time>
</trkpt>
<trkpt lat="49.506339970976114" lon="9.162836959585547">
<ele>503.6</ele>
<time>2024-05-10T15:36:17Z</time>
</trkpt>
<trkpt lat="49.50633619911969" lon="9.16291139088571">
<ele>503.6</ele>
<time>2024-05-10T15:36:18Z</time>
</trkpt>
<trkpt lat="49.50633234344423" lon="9.162986744195225">
<ele>503.2</ele>
<time>2024-05-10T15:36:19Z</time>
</trkpt>
<trkpt lat="49.5063285715878" lon="9.163058241829276">
<ele>502.8</ele>
<time>2024-05-10T15:36:20Z</time>
</trkpt>
<trkpt lat="49.5063285715878" lon="9.16312973946333">
<ele>502.8</ele>
<time>2024-05-10T15:36:21Z</time>
</trkpt>
<trkpt lat="49.5063285715878" lon="9.163201320916414">
<ele>502.6</ele>
<time>2024-05-10T15:36:22Z</time>
</trkpt>
<trkpt lat="49.50633234344423" lon="9.163272818550467">
<ele>502.6</ele>
<time>2024-05-10T15:36:23Z</time>
</trkpt>
<trkpt lat="49.50633234344423" lon="9.1633453220129">
<ele>502.6</ele>
<time>2024-05-10T15:36:24Z</time>
</trkpt>
<trkpt lat="49.50633619911969" lon="9.163413047790527">
<ele>502.6</ele>
<time>2024-05-10T15:36:25Z</time>
</trkpt>
<trkpt lat="49.50633619911969" lon="9.163481695577502">
<ele>502.6</ele>
<time>2024-05-10T15:36:26Z</time>
</trkpt>
<trkpt lat="49.506339970976114" lon="9.163551265373826">
<ele>502.6</ele>
<time>2024-05-10T15:36:27Z</time>
</trkpt>
<trkpt lat="49.50634382665157" lon="9.16362184099853">
<ele>502.6</ele>
<time>2024-05-10T15:36:28Z</time>
</trkpt>
<trkpt lat="49.506347598508" lon="9.163691494613886">
<ele>502.6</ele>
<time>2024-05-10T15:36:29Z</time>
</trkpt>
<trkpt lat="49.50635145418346" lon="9.16376299224794">
<ele>502.6</ele>
<time>2024-05-10T15:36:30Z</time>
</trkpt>
<trkpt lat="49.50635145418346" lon="9.163833567872643">
<ele>502.6</ele>
<time>2024-05-10T15:36:31Z</time>
</trkpt>
<trkpt lat="49.50635522603989" lon="9.163903221488">
<ele>502.4</ele>
<time>2024-05-10T15:36:32Z</time>
</trkpt>
<trkpt lat="49.50636285357177" lon="9.163972791284325">
<ele>502.4</ele>
<time>2024-05-10T15:36:33Z</time>
</trkpt>
<trkpt lat="49.50636670924723" lon="9.164043366909029">
<ele>502.2</ele>
<time>2024-05-10T15:36:34Z</time>
</trkpt>
<trkpt lat="49.506378108635545" lon="9.164114948362112">
<ele>502.2</ele>
<time>2024-05-10T15:36:35Z</time>
</trkpt>
<trkpt lat="49.50638573616743" lon="9.164184518158436">
<ele>502</ele>
<time>2024-05-10T15:36:36Z</time>
</trkpt>
<trkpt lat="49.50639336369932" lon="9.164250316098332">
<ele>502</ele>
<time>2024-05-10T15:36:37Z</time>
</trkpt>
<trkpt lat="49.5064009912312" lon="9.16431133635342">
<ele>502</ele>
<time>2024-05-10T15:36:38Z</time>
</trkpt>
<trkpt lat="49.50640484690666" lon="9.16437529027462">
<ele>501.8</ele>
<time>2024-05-10T15:36:39Z</time>
</trkpt>
<trkpt lat="49.50640861876309" lon="9.164436310529709">
<ele>501.8</ele>
<time>2024-05-10T15:36:40Z</time>
</trkpt>
<trkpt lat="49.50641247443855" lon="9.164498252794148">
<ele>501.6</ele>
<time>2024-05-10T15:36:41Z</time>
</trkpt>
<trkpt lat="49.506416246294975" lon="9.164561200886965">
<ele>501.6</ele>
<time>2024-05-10T15:36:42Z</time>
</trkpt>
<trkpt lat="49.506420101970434" lon="9.164625154808164">
<ele>501.4</ele>
<time>2024-05-10T15:36:43Z</time>
</trkpt>
<trkpt lat="49.50643150135875" lon="9.164691874757407">
<ele>501.2</ele>
<time>2024-05-10T15:36:44Z</time>
</trkpt>
<trkpt lat="49.50644298456609" lon="9.164754822850227">
<ele>501</ele>
<time>2024-05-10T15:36:45Z</time>
</trkpt>
<trkpt lat="49.50646972283721" lon="9.1648062877357">
<ele>500.8</ele>
<time>2024-05-10T15:36:46Z</time>
</trkpt>
<trkpt lat="49.50650400482118" lon="9.164843503385782">
<ele>500.6</ele>
<time>2024-05-10T15:36:47Z</time>
</trkpt>
<trkpt lat="49.5065497700125" lon="9.164853058755398">
<ele>500.4</ele>
<time>2024-05-10T15:36:48Z</time>
</trkpt>
<trkpt lat="49.506595535203815" lon="9.164845431223512">
<ele>500.2</ele>
<time>2024-05-10T15:36:49Z</time>
</trkpt>
<trkpt lat="49.50664901174605" lon="9.16482824832201">
<ele>499.8</ele>
<time>2024-05-10T15:36:50Z</time>
</trkpt>
<trkpt lat="49.50669854879379" lon="9.164812993258238">
<ele>499.4</ele>
<time>2024-05-10T15:36:51Z</time>
</trkpt>
<trkpt lat="49.506751941516995" lon="9.164798660203816">
<ele>499.2</ele>
<time>2024-05-10T15:36:52Z</time>
</trkpt>
<trkpt lat="49.50680541805923" lon="9.164786338806152">
<ele>498.8</ele>
<time>2024-05-10T15:36:53Z</time>
</trkpt>
<trkpt lat="49.50685881078243" lon="9.164772927761078">
<ele>498.4</ele>
<time>2024-05-10T15:36:54Z</time>
</trkpt>
<trkpt lat="49.506912203505635" lon="9.164763372391462">
<ele>498</ele>
<time>2024-05-10T15:36:55Z</time>
</trkpt>
<trkpt lat="49.50696559622884" lon="9.164752895012498">
<ele>497.6</ele>
<time>2024-05-10T15:36:56Z</time>
</trkpt>
<trkpt lat="49.50701898895204" lon="9.164741495624185">
<ele>497.2</ele>
<time>2024-05-10T15:36:57Z</time>
</trkpt>
<trkpt lat="49.5070762373507" lon="9.16473001241684">
<ele>496.8</ele>
<time>2024-05-10T15:36:58Z</time>
</trkpt>
<trkpt lat="49.50713340193033" lon="9.164716685190797">
<ele>496.4</ele>
<time>2024-05-10T15:36:59Z</time>
</trkpt>
<trkpt lat="49.50719827786088" lon="9.164706207811832">
<ele>496</ele>
<time>2024-05-10T15:37:00Z</time>
</trkpt>
<trkpt lat="49.50726315379143" lon="9.164701430127025">
<ele>495.8</ele>
<time>2024-05-10T15:37:01Z</time>
</trkpt>
<trkpt lat="49.507328029721975" lon="9.164705201983452">
<ele>495.4</ele>
<time>2024-05-10T15:37:02Z</time>
</trkpt>
<trkpt lat="49.50739667750895" lon="9.16473001241684">
<ele>495</ele>
<time>2024-05-10T15:37:03Z</time>
</trkpt>
<trkpt lat="49.50745769776404" lon="9.164766306057572">
<ele>494.8</ele>
<time>2024-05-10T15:37:04Z</time>
</trkpt>
<trkpt lat="49.50752257369459" lon="9.164812071248887">
<ele>494.4</ele>
<time>2024-05-10T15:37:05Z</time>
</trkpt>
<trkpt lat="49.50759122148156" lon="9.164864458143713">
<ele>494</ele>
<time>2024-05-10T15:37:06Z</time>
</trkpt>
<trkpt lat="49.50765986926854" lon="9.16492648422718">
<ele>493.8</ele>
<time>2024-05-10T15:37:07Z</time>
</trkpt>
<trkpt lat="49.50772851705551" lon="9.164993204176426">
<ele>493.4</ele>
<time>2024-05-10T15:37:08Z</time>
</trkpt>
<trkpt lat="49.507797164842486" lon="9.165068557485938">
<ele>493.2</ele>
<time>2024-05-10T15:37:09Z</time>
</trkpt>
<trkpt lat="49.50786966830492" lon="9.165146760642529">
<ele>492.8</ele>
<time>2024-05-10T15:37:10Z</time>
</trkpt>
<trkpt lat="49.507938316091895" lon="9.165236447006464">
<ele>492.6</ele>
<time>2024-05-10T15:37:11Z</time>
</trkpt>
<trkpt lat="49.50800319202244" lon="9.165338454768062">
<ele>492.2</ele>
<time>2024-05-10T15:37:12Z</time>
</trkpt>
<trkpt lat="49.50806806795299" lon="9.165430068969728">
<ele>491.6</ele>
<time>2024-05-10T15:37:13Z</time>
</trkpt>
<trkpt lat="49.508178709074855" lon="9.16554163210094">
<ele>491.2</ele>
<time>2024-05-10T15:37:14Z</time>
</trkpt>
<trkpt lat="49.5082282461226" lon="9.165616985410452">
<ele>490.6</ele>
<time>2024-05-10T15:37:15Z</time>
</trkpt>
<trkpt lat="49.508277866989374" lon="9.16569803841412">
<ele>490.2</ele>
<time>2024-05-10T15:37:16Z</time>
</trkpt>
<trkpt lat="49.508316004648805" lon="9.16579526849091">
<ele>489.6</ele>
<time>2024-05-10T15:37:17Z</time>
</trkpt>
<trkpt lat="49.50834651477635" lon="9.165900209918618">
<ele>489</ele>
<time>2024-05-10T15:37:18Z</time>
</trkpt>
<trkpt lat="49.50836562551558" lon="9.16601462289691">
<ele>488.4</ele>
<time>2024-05-10T15:37:19Z</time>
</trkpt>
<trkpt lat="49.50838088057935" lon="9.166126186028125">
<ele>487.6</ele>
<time>2024-05-10T15:37:20Z</time>
</trkpt>
<trkpt lat="49.50839990749955" lon="9.166238754987717">
<ele>487</ele>
<time>2024-05-10T15:37:21Z</time>
</trkpt>
<trkpt lat="49.50841516256333" lon="9.166346546262504">
<ele>486.4</ele>
<time>2024-05-10T15:37:22Z</time>
</trkpt>
<trkpt lat="49.50842664577067" lon="9.16645140387118">
<ele>485.8</ele>
<time>2024-05-10T15:37:23Z</time>
</trkpt>
<trkpt lat="49.50843804515898" lon="9.166555339470506">
<ele>485.4</ele>
<time>2024-05-10T15:37:24Z</time>
</trkpt>
<trkpt lat="49.508453300222754" lon="9.166658353060484">
<ele>485</ele>
<time>2024-05-10T15:37:25Z</time>
</trkpt>
<trkpt lat="49.5084647834301" lon="9.166761366650462">
<ele>484.6</ele>
<time>2024-05-10T15:37:26Z</time>
</trkpt>
<trkpt lat="49.508472410961986" lon="9.166859602555633">
<ele>484.2</ele>
<time>2024-05-10T15:37:27Z</time>
</trkpt>
<trkpt lat="49.508472410961986" lon="9.166954988613725">
<ele>483.8</ele>
<time>2024-05-10T15:37:28Z</time>
</trkpt>
<trkpt lat="49.508472410961986" lon="9.167046518996358">
<ele>483.6</ele>
<time>2024-05-10T15:37:29Z</time>
</trkpt>
<trkpt lat="49.5084647834301" lon="9.167135199531913">
<ele>483.2</ele>
<time>2024-05-10T15:37:30Z</time>
</trkpt>
<trkpt lat="49.50844567269087" lon="9.167221952229738">
<ele>483</ele>
<time>2024-05-10T15:37:31Z</time>
</trkpt>
<trkpt lat="49.50841901823878" lon="9.167303005233409">
<ele>482.6</ele>
<time>2024-05-10T15:37:32Z</time>
</trkpt>
<trkpt lat="49.508392279967666" lon="9.167387913912536">
<ele>482.4</ele>
<time>2024-05-10T15:37:33Z</time>
</trkpt>
<trkpt lat="49.50836562551558" lon="9.16747659444809">
<ele>482.2</ele>
<time>2024-05-10T15:37:34Z</time>
</trkpt>
<trkpt lat="49.50833888724446" lon="9.167563430964949">
<ele>482</ele>
<time>2024-05-10T15:37:35Z</time>
</trkpt>
<trkpt lat="49.508312148973346" lon="9.167652111500502">
<ele>481.6</ele>
<time>2024-05-10T15:37:36Z</time>
</trkpt>
<trkpt lat="49.50828549452126" lon="9.167741714045404">
<ele>481.2</ele>
<time>2024-05-10T15:37:37Z</time>
</trkpt>
<trkpt lat="49.50826638378203" lon="9.167826622724531">
<ele>481</ele>
<time>2024-05-10T15:37:38Z</time>
</trkpt>
<trkpt lat="49.50824350118637" lon="9.16790859773755">
<ele>480.6</ele>
<time>2024-05-10T15:37:39Z</time>
</trkpt>
<trkpt lat="49.5082282461226" lon="9.167980179190636">
<ele>480.2</ele>
<time>2024-05-10T15:37:40Z</time>
</trkpt>
<trkpt lat="49.508216846734285" lon="9.168043127283454">
<ele>479.8</ele>
<time>2024-05-10T15:37:41Z</time>
</trkpt>
<trkpt lat="49.508216846734285" lon="9.168105069547892">
<ele>479.6</ele>
<time>2024-05-10T15:37:42Z</time>
</trkpt>
<trkpt lat="49.50823210179806" lon="9.168163239955902">
<ele>479.2</ele>
<time>2024-05-10T15:37:43Z</time>
</trkpt>
<trkpt lat="49.5082626119256" lon="9.16820808313787">
<ele>478.6</ele>
<time>2024-05-10T15:37:44Z</time>
</trkpt>
<trkpt lat="49.50830452144146" lon="9.168234821408989">
<ele>478.2</ele>
<time>2024-05-10T15:37:45Z</time>
</trkpt>
<trkpt lat="49.50834651477635" lon="9.16825007647276">
<ele>477.8</ele>
<time>2024-05-10T15:37:46Z</time>
</trkpt>
<trkpt lat="49.508396135643125" lon="9.168263403698802">
<ele>477.4</ele>
<time>2024-05-10T15:37:47Z</time>
</trkpt>
<trkpt lat="49.50844190083444" lon="9.168283436447382">
<ele>477</ele>
<time>2024-05-10T15:37:48Z</time>
</trkpt>
<trkpt lat="49.50848766602576" lon="9.16830631904304">
<ele>476.8</ele>
<time>2024-05-10T15:37:49Z</time>
</trkpt>
<trkpt lat="49.508533431217074" lon="9.168341606855392">
<ele>476.4</ele>
<time>2024-05-10T15:37:50Z</time>
</trkpt>
<trkpt lat="49.50857542455197" lon="9.16838645003736">
<ele>476.2</ele>
<time>2024-05-10T15:37:51Z</time>
</trkpt>
<trkpt lat="49.50861733406782" lon="9.168435065075755">
<ele>476</ele>
<time>2024-05-10T15:37:52Z</time>
</trkpt>
<trkpt lat="49.50865932740271" lon="9.168488457798958">
<ele>475.8</ele>
<time>2024-05-10T15:37:53Z</time>
</trkpt>
<trkpt lat="49.50870509259403" lon="9.168546628206968">
<ele>475.6</ele>
<time>2024-05-10T15:37:54Z</time>
</trkpt>
<trkpt lat="49.50874323025346" lon="9.16860479861498">
<ele>475.6</ele>
<time>2024-05-10T15:37:55Z</time>
</trkpt>
<trkpt lat="49.508788995444775" lon="9.168669674545528">
<ele>475.4</ele>
<time>2024-05-10T15:37:56Z</time>
</trkpt>
<trkpt lat="49.508830988779664" lon="9.168733544647694">
<ele>475.2</ele>
<time>2024-05-10T15:37:57Z</time>
</trkpt>
<trkpt lat="49.50887675397098" lon="9.16880034841597">
<ele>475.2</ele>
<time>2024-05-10T15:37:58Z</time>
</trkpt>
<trkpt lat="49.50891489163041" lon="9.168867068365216">
<ele>475.2</ele>
<time>2024-05-10T15:37:59Z</time>
</trkpt>
<trkpt lat="49.5089568849653" lon="9.168931944295764">
<ele>475</ele>
<time>2024-05-10T15:38:00Z</time>
</trkpt>
<trkpt lat="49.50899502262473" lon="9.16899673640728">
<ele>475</ele>
<time>2024-05-10T15:38:01Z</time>
</trkpt>
<trkpt lat="49.50903316028416" lon="9.16905876249075">
<ele>475</ele>
<time>2024-05-10T15:38:02Z</time>
</trkpt>
<trkpt lat="49.509067526087165" lon="9.169119782745838">
<ele>475</ele>
<time>2024-05-10T15:38:03Z</time>
</trkpt>
<trkpt lat="49.50910180807114" lon="9.169184658676386">
<ele>475</ele>
<time>2024-05-10T15:38:04Z</time>
</trkpt>
<trkpt lat="49.50913231819868" lon="9.169251378625631">
<ele>475</ele>
<time>2024-05-10T15:38:05Z</time>
</trkpt>
<trkpt lat="49.50916668400168" lon="9.169321954250336">
<ele>475</ele>
<time>2024-05-10T15:38:06Z</time>
</trkpt>
<trkpt lat="49.50919719412923" lon="9.16939353570342">
<ele>475</ele>
<time>2024-05-10T15:38:07Z</time>
</trkpt>
<trkpt lat="49.50923533178866" lon="9.169466961175203">
<ele>475</ele>
<time>2024-05-10T15:38:08Z</time>
</trkpt>
<trkpt lat="49.50927346944809" lon="9.169540386646986">
<ele>475</ele>
<time>2024-05-10T15:38:09Z</time>
</trkpt>
<trkpt lat="49.509303979575634" lon="9.169612806290388">
<ele>475</ele>
<time>2024-05-10T15:38:10Z</time>
</trkpt>
<trkpt lat="49.50933834537864" lon="9.169686315581204">
<ele>475.2</ele>
<time>2024-05-10T15:38:11Z</time>
</trkpt>
<trkpt lat="49.50937648303807" lon="9.169758735224605">
<ele>475.2</ele>
<time>2024-05-10T15:38:12Z</time>
</trkpt>
<trkpt lat="49.5094146206975" lon="9.16983031667769">
<ele>475.2</ele>
<time>2024-05-10T15:38:13Z</time>
</trkpt>
<trkpt lat="49.5094489865005" lon="9.169903742149472">
<ele>475.2</ele>
<time>2024-05-10T15:38:14Z</time>
</trkpt>
<trkpt lat="49.50948712415993" lon="9.169975239783524">
<ele>475.2</ele>
<time>2024-05-10T15:38:15Z</time>
</trkpt>
<trkpt lat="49.50952526181936" lon="9.17004489339888">
<ele>475.2</ele>
<time>2024-05-10T15:38:16Z</time>
</trkpt>
<trkpt lat="49.50956339947879" lon="9.170111613348126">
<ele>475.2</ele>
<time>2024-05-10T15:38:17Z</time>
</trkpt>
<trkpt lat="49.50960539281368" lon="9.170176489278674">
<ele>475</ele>
<time>2024-05-10T15:38:18Z</time>
</trkpt>
<trkpt lat="49.50964353047311" lon="9.17024128139019">
<ele>475</ele>
<time>2024-05-10T15:38:19Z</time>
</trkpt>
<trkpt lat="49.509681668132544" lon="9.170305235311387">
<ele>475</ele>
<time>2024-05-10T15:38:20Z</time>
</trkpt>
<trkpt lat="49.509719805791974" lon="9.170368183404207">
<ele>474.8</ele>
<time>2024-05-10T15:38:21Z</time>
</trkpt>
<trkpt lat="49.509757943451405" lon="9.170432975515723">
<ele>474.8</ele>
<time>2024-05-10T15:38:22Z</time>
</trkpt>
<trkpt lat="49.509796081110835" lon="9.170497851446273">
<ele>474.8</ele>
<time>2024-05-10T15:38:23Z</time>
</trkpt>
<trkpt lat="49.509834218770266" lon="9.170561721548438">
<ele>474.8</ele>
<time>2024-05-10T15:38:24Z</time>
</trkpt>
<trkpt lat="49.509872356429696" lon="9.170626597478986">
<ele>474.8</ele>
<time>2024-05-10T15:38:25Z</time>
</trkpt>
<trkpt lat="49.50991057790816" lon="9.170689545571804">
<ele>474.8</ele>
<time>2024-05-10T15:38:26Z</time>
</trkpt>
<trkpt lat="49.50994871556759" lon="9.170753415673971">
<ele>474.8</ele>
<time>2024-05-10T15:38:27Z</time>
</trkpt>
<trkpt lat="49.50998685322702" lon="9.17081636376679">
<ele>474.8</ele>
<time>2024-05-10T15:38:28Z</time>
</trkpt>
<trkpt lat="49.51002499088645" lon="9.17087838985026">
<ele>474.8</ele>
<time>2024-05-10T15:38:29Z</time>
</trkpt>
<trkpt lat="49.51006312854588" lon="9.170940332114697">
<ele>474.6</ele>
<time>2024-05-10T15:38:30Z</time>
</trkpt>
<trkpt lat="49.51010512188077" lon="9.170998502522709">
<ele>474.6</ele>
<time>2024-05-10T15:38:31Z</time>
</trkpt>
<trkpt lat="49.5101432595402" lon="9.17105290107429">
<ele>474.6</ele>
<time>2024-05-10T15:38:32Z</time>
</trkpt>
<trkpt lat="49.51018139719963" lon="9.171106293797491">
<ele>474.6</ele>
<time>2024-05-10T15:38:33Z</time>
</trkpt>
<trkpt lat="49.51022330671549" lon="9.171159686520696">
<ele>474.6</ele>
<time>2024-05-10T15:38:34Z</time>
</trkpt>
<trkpt lat="49.51026152819395" lon="9.171215007081628">
<ele>474.4</ele>
<time>2024-05-10T15:38:35Z</time>
</trkpt>
<trkpt lat="49.51030343770981" lon="9.171271249651909">
<ele>474.4</ele>
<time>2024-05-10T15:38:36Z</time>
</trkpt>
<trkpt lat="49.5103454310447" lon="9.17132657021284">
<ele>474.2</ele>
<time>2024-05-10T15:38:37Z</time>
</trkpt>
<trkpt lat="49.510391196236014" lon="9.171379962936044">
<ele>474</ele>
<time>2024-05-10T15:38:38Z</time>
</trkpt>
<trkpt lat="49.51043696142733" lon="9.171431511640549">
<ele>474</ele>
<time>2024-05-10T15:38:39Z</time>
</trkpt>
<trkpt lat="49.51048272661865" lon="9.171484904363751">
<ele>474</ele>
<time>2024-05-10T15:38:40Z</time>
</trkpt>
<trkpt lat="49.51052849180997" lon="9.171536369249225">
<ele>473.8</ele>
<time>2024-05-10T15:38:41Z</time>
</trkpt>
<trkpt lat="49.51057811267674" lon="9.171583140268922">
<ele>473.8</ele>
<time>2024-05-10T15:38:42Z</time>
</trkpt>
<trkpt lat="49.510627733543515" lon="9.171629827469587">
<ele>473.8</ele>
<time>2024-05-10T15:38:43Z</time>
</trkpt>
<trkpt lat="49.51067727059126" lon="9.171671820804477">
<ele>473.8</ele>
<time>2024-05-10T15:38:44Z</time>
</trkpt>
<trkpt lat="49.510726891458035" lon="9.1717051807791">
<ele>473.6</ele>
<time>2024-05-10T15:38:45Z</time>
</trkpt>
<trkpt lat="49.51078028418124" lon="9.171734768897297">
<ele>473.6</ele>
<time>2024-05-10T15:38:46Z</time>
</trkpt>
<trkpt lat="49.51083367690444" lon="9.17176527902484">
<ele>473.4</ele>
<time>2024-05-10T15:38:47Z</time>
</trkpt>
<trkpt lat="49.5108909253031" lon="9.171792939305304">
<ele>473.2</ele>
<time>2024-05-10T15:38:48Z</time>
</trkpt>
<trkpt lat="49.51094817370176" lon="9.17182152159512">
<ele>473.2</ele>
<time>2024-05-10T15:38:49Z</time>
</trkpt>
<trkpt lat="49.511001566424966" lon="9.17184541001916">
<ele>473</ele>
<time>2024-05-10T15:38:50Z</time>
</trkpt>
<trkpt lat="49.51105873100459" lon="9.171870220452549">
<ele>473</ele>
<time>2024-05-10T15:38:51Z</time>
</trkpt>
<trkpt lat="49.51111597940326" lon="9.171896874904633">
<ele>473</ele>
<time>2024-05-10T15:38:52Z</time>
</trkpt>
<trkpt lat="49.51117322780192" lon="9.171926463022828">
<ele>473</ele>
<time>2024-05-10T15:38:53Z</time>
</trkpt>
<trkpt lat="49.51123039238155" lon="9.17195789515972">
<ele>472.8</ele>
<time>2024-05-10T15:38:54Z</time>
</trkpt>
<trkpt lat="49.51128764078021" lon="9.171997038647532">
<ele>472.8</ele>
<time>2024-05-10T15:38:55Z</time>
</trkpt>
<trkpt lat="49.51134488917887" lon="9.1720418818295">
<ele>472.8</ele>
<time>2024-05-10T15:38:56Z</time>
</trkpt>
<trkpt lat="49.511394426226616" lon="9.17209812439978">
<ele>472.6</ele>
<time>2024-05-10T15:38:57Z</time>
</trkpt>
<trkpt lat="49.51144027523696" lon="9.172163000330327">
<ele>472.4</ele>
<time>2024-05-10T15:38:58Z</time>
</trkpt>
<trkpt lat="49.51148218475282" lon="9.172231648117304">
<ele>472.4</ele>
<time>2024-05-10T15:38:59Z</time>
</trkpt>
<trkpt lat="49.51152032241225" lon="9.172303145751355">
<ele>472.2</ele>
<time>2024-05-10T15:39:00Z</time>
</trkpt>
<trkpt lat="49.51155846007168" lon="9.1723804268986">
<ele>472</ele>
<time>2024-05-10T15:39:01Z</time>
</trkpt>
<trkpt lat="49.511592825874686" lon="9.172459552064538">
<ele>471.8</ele>
<time>2024-05-10T15:39:02Z</time>
</trkpt>
<trkpt lat="49.51162719167769" lon="9.172538677230476">
<ele>471.6</ele>
<time>2024-05-10T15:39:03Z</time>
</trkpt>
<trkpt lat="49.51166147366166" lon="9.172616880387068">
<ele>471.4</ele>
<time>2024-05-10T15:39:04Z</time>
</trkpt>
<trkpt lat="49.511691983789206" lon="9.172698017209768">
<ele>471.2</ele>
<time>2024-05-10T15:39:05Z</time>
</trkpt>
<trkpt lat="49.51171872206032" lon="9.17277622036636">
<ele>471</ele>
<time>2024-05-10T15:39:06Z</time>
</trkpt>
<trkpt lat="49.51174537651241" lon="9.17285148985684">
<ele>471</ele>
<time>2024-05-10T15:39:07Z</time>
</trkpt>
<trkpt lat="49.51176825910807" lon="9.172924915328622">
<ele>471</ele>
<time>2024-05-10T15:39:08Z</time>
</trkpt>
<trkpt lat="49.51179122552276" lon="9.173000268638134">
<ele>470.8</ele>
<time>2024-05-10T15:39:09Z</time>
</trkpt>
<trkpt lat="49.51180648058653" lon="9.173080399632454">
<ele>470.8</ele>
<time>2024-05-10T15:39:10Z</time>
</trkpt>
<trkpt lat="49.5118217356503" lon="9.173161452636124">
<ele>470.6</ele>
<time>2024-05-10T15:39:11Z</time>
</trkpt>
<trkpt lat="49.511833135038614" lon="9.17324636131525">
<ele>470.6</ele>
<time>2024-05-10T15:39:12Z</time>
</trkpt>
<trkpt lat="49.51184461824596" lon="9.173330264165998">
<ele>470.6</ele>
<time>2024-05-10T15:39:13Z</time>
</trkpt>
<trkpt lat="49.511852245777845" lon="9.17342372238636">
<ele>470.6</ele>
<time>2024-05-10T15:39:14Z</time>
</trkpt>
<trkpt lat="49.51186364516616" lon="9.173513408750296">
<ele>470.6</ele>
<time>2024-05-10T15:39:15Z</time>
</trkpt>
<trkpt lat="49.511875128373504" lon="9.17360016144812">
<ele>470.6</ele>
<time>2024-05-10T15:39:16Z</time>
</trkpt>
<trkpt lat="49.51188275590539" lon="9.173687919974329">
<ele>470.6</ele>
<time>2024-05-10T15:39:17Z</time>
</trkpt>
<trkpt lat="49.51188652776182" lon="9.173776600509882">
<ele>470.4</ele>
<time>2024-05-10T15:39:18Z</time>
</trkpt>
<trkpt lat="49.5118941552937" lon="9.173863353207707">
<ele>470.4</ele>
<time>2024-05-10T15:39:19Z</time>
</trkpt>
<trkpt lat="49.51190178282559" lon="9.173950189724565">
<ele>470.6</ele>
<time>2024-05-10T15:39:20Z</time>
</trkpt>
<trkpt lat="49.511909410357475" lon="9.174031242728232">
<ele>470.4</ele>
<time>2024-05-10T15:39:21Z</time>
</trkpt>
<trkpt lat="49.51192089356482" lon="9.174111289903522">
<ele>470.4</ele>
<time>2024-05-10T15:39:22Z</time>
</trkpt>
<trkpt lat="49.511932292953134" lon="9.174189493060112">
<ele>470.2</ele>
<time>2024-05-10T15:39:23Z</time>
</trkpt>
<trkpt lat="49.51194377616048" lon="9.174268702045085">
<ele>470.2</ele>
<time>2024-05-10T15:39:24Z</time>
</trkpt>
<trkpt lat="49.51195903122425" lon="9.174344977363944">
<ele>470.2</ele>
<time>2024-05-10T15:39:25Z</time>
</trkpt>
<trkpt lat="49.51197428628802" lon="9.174423180520536">
<ele>470.2</ele>
<time>2024-05-10T15:39:26Z</time>
</trkpt>
<trkpt lat="49.511989541351795" lon="9.174503311514854">
<ele>470.4</ele>
<time>2024-05-10T15:39:27Z</time>
</trkpt>
<trkpt lat="49.512008652091026" lon="9.174579586833715">
<ele>470.4</ele>
<time>2024-05-10T15:39:28Z</time>
</trkpt>
<trkpt lat="49.512027679011226" lon="9.174656867980955">
<ele>470.6</ele>
<time>2024-05-10T15:39:29Z</time>
</trkpt>
<trkpt lat="49.51204678975046" lon="9.174733143299818">
<ele>470.6</ele>
<time>2024-05-10T15:39:30Z</time>
</trkpt>
<trkpt lat="49.512069672346115" lon="9.1748065687716">
<ele>470.6</ele>
<time>2024-05-10T15:39:31Z</time>
</trkpt>
<trkpt lat="49.51209255494177" lon="9.174878066405654">
<ele>470.6</ele>
<time>2024-05-10T15:39:32Z</time>
</trkpt>
<trkpt lat="49.51211543753743" lon="9.174948642030358">
<ele>470.6</ele>
<time>2024-05-10T15:39:33Z</time>
</trkpt>
<trkpt lat="49.51213832013309" lon="9.175011590123177">
<ele>470.8</ele>
<time>2024-05-10T15:39:34Z</time>
</trkpt>
<trkpt lat="49.51215743087232" lon="9.175074538215997">
<ele>470.8</ele>
<time>2024-05-10T15:39:35Z</time>
</trkpt>
<trkpt lat="49.51217645779252" lon="9.175140336155891">
<ele>471</ele>
<time>2024-05-10T15:39:36Z</time>
</trkpt>
<trkpt lat="49.51220319606364" lon="9.17520328424871">
<ele>471</ele>
<time>2024-05-10T15:39:37Z</time>
</trkpt>
<trkpt lat="49.512226078659296" lon="9.17526531033218">
<ele>471.2</ele>
<time>2024-05-10T15:39:38Z</time>
</trkpt>
<trkpt lat="49.512248961254954" lon="9.175325324758887">
<ele>471.2</ele>
<time>2024-05-10T15:39:39Z</time>
</trkpt>
<trkpt lat="49.51227184385061" lon="9.175384500995278">
<ele>471.2</ele>
<time>2024-05-10T15:39:40Z</time>
</trkpt>
<trkpt lat="49.51229858212173" lon="9.175443593412638">
<ele>471.2</ele>
<time>2024-05-10T15:39:41Z</time>
</trkpt>
<trkpt lat="49.51231760904193" lon="9.175501763820648">
<ele>471.2</ele>
<time>2024-05-10T15:39:42Z</time>
</trkpt>
<trkpt lat="49.51234049163759" lon="9.175556162372231">
<ele>471.2</ele>
<time>2024-05-10T15:39:43Z</time>
</trkpt>
<trkpt lat="49.512363374233246" lon="9.175609555095434">
<ele>471.4</ele>
<time>2024-05-10T15:39:44Z</time>
</trkpt>
<trkpt lat="49.51238248497248" lon="9.175664875656366">
<ele>471.4</ele>
<time>2024-05-10T15:39:45Z</time>
</trkpt>
<trkpt lat="49.512405367568135" lon="9.175722040235996">
<ele>471.6</ele>
<time>2024-05-10T15:39:46Z</time>
</trkpt>
<trkpt lat="49.512424394488335" lon="9.175778366625307">
<ele>471.6</ele>
<time>2024-05-10T15:39:47Z</time>
</trkpt>
<trkpt lat="49.512443505227566" lon="9.17583460919559">
<ele>471.6</ele>
<time>2024-05-10T15:39:48Z</time>
</trkpt>
<trkpt lat="49.5124626159668" lon="9.175889929756522">
<ele>471.8</ele>
<time>2024-05-10T15:39:49Z</time>
</trkpt>
<trkpt lat="49.51248164288699" lon="9.175945250317454">
<ele>471.8</ele>
<time>2024-05-10T15:39:50Z</time>
</trkpt>
<trkpt lat="49.51249689795077" lon="9.175999565050006">
<ele>471.8</ele>
<time>2024-05-10T15:39:51Z</time>
</trkpt>
<trkpt lat="49.51251600869" lon="9.176056813448668">
<ele>471.8</ele>
<time>2024-05-10T15:39:52Z</time>
</trkpt>
<trkpt lat="49.5125350356102" lon="9.176113056018949">
<ele>471.8</ele>
<time>2024-05-10T15:39:53Z</time>
</trkpt>
<trkpt lat="49.51255029067397" lon="9.17617122642696">
<ele>472</ele>
<time>2024-05-10T15:39:54Z</time>
</trkpt>
<trkpt lat="49.5125694014132" lon="9.1762313246727">
<ele>472</ele>
<time>2024-05-10T15:39:55Z</time>
</trkpt>
<trkpt lat="49.512584656476974" lon="9.17629142291844">
<ele>472</ele>
<time>2024-05-10T15:39:56Z</time>
</trkpt>
<trkpt lat="49.512603683397174" lon="9.176353449001908">
<ele>471.8</ele>
<time>2024-05-10T15:39:57Z</time>
</trkpt>
<trkpt lat="49.512622794136405" lon="9.176416397094728">
<ele>471.8</ele>
<time>2024-05-10T15:39:58Z</time>
</trkpt>
<trkpt lat="49.51264190487563" lon="9.176481189206244">
<ele>471.6</ele>
<time>2024-05-10T15:39:59Z</time>
</trkpt>
<trkpt lat="49.512660931795835" lon="9.17654799297452">
<ele>471.6</ele>
<time>2024-05-10T15:40:00Z</time>
</trkpt>
<trkpt lat="49.512683814391494" lon="9.176616640761496">
<ele>471.4</ele>
<time>2024-05-10T15:40:01Z</time>
</trkpt>
<trkpt lat="49.51270669698715" lon="9.17668528854847">
<ele>471.2</ele>
<time>2024-05-10T15:40:02Z</time>
</trkpt>
<trkpt lat="49.51273343525827" lon="9.176758714020252">
<ele>471.2</ele>
<time>2024-05-10T15:40:03Z</time>
</trkpt>
<trkpt lat="49.512760089710355" lon="9.176828367635608">
<ele>471</ele>
<time>2024-05-10T15:40:04Z</time>
</trkpt>
<trkpt lat="49.51279445551336" lon="9.17690179310739">
<ele>470.8</ele>
<time>2024-05-10T15:40:05Z</time>
</trkpt>
<trkpt lat="49.51282882131636" lon="9.176975218579171">
<ele>470.6</ele>
<time>2024-05-10T15:40:06Z</time>
</trkpt>
<trkpt lat="49.51286310330033" lon="9.177046716213226">
<ele>470.4</ele>
<time>2024-05-10T15:40:07Z</time>
</trkpt>
<trkpt lat="49.512897469103336" lon="9.177118297666311">
<ele>470.4</ele>
<time>2024-05-10T15:40:08Z</time>
</trkpt>
<trkpt lat="49.51293175108731" lon="9.177187867462637">
<ele>470.2</ele>
<time>2024-05-10T15:40:09Z</time>
</trkpt>
<trkpt lat="49.51296611689031" lon="9.177260370925069">
<ele>470</ele>
<time>2024-05-10T15:40:10Z</time>
</trkpt>
<trkpt lat="49.512996627017856" lon="9.1773347184062">
<ele>469.8</ele>
<time>2024-05-10T15:40:11Z</time>
</trkpt>
<trkpt lat="49.513034764677286" lon="9.177406299859284">
<ele>469.4</ele>
<time>2024-05-10T15:40:12Z</time>
</trkpt>
<trkpt lat="49.51306913048029" lon="9.177479725331068">
<ele>469.2</ele>
<time>2024-05-10T15:40:13Z</time>
</trkpt>
<trkpt lat="49.51310341246426" lon="9.17755315080285">
<ele>469</ele>
<time>2024-05-10T15:40:14Z</time>
</trkpt>
<trkpt lat="49.51314155012369" lon="9.177626576274632">
<ele>468.8</ele>
<time>2024-05-10T15:40:15Z</time>
</trkpt>
<trkpt lat="49.513175915926695" lon="9.177700001746416">
<ele>468.6</ele>
<time>2024-05-10T15:40:16Z</time>
</trkpt>
<trkpt lat="49.513217909261584" lon="9.177776277065275">
<ele>468.6</ele>
<time>2024-05-10T15:40:17Z</time>
</trkpt>
<trkpt lat="49.51325219124555" lon="9.177854480221868">
<ele>468.4</ele>
<time>2024-05-10T15:40:18Z</time>
</trkpt>
<trkpt lat="49.51328655704856" lon="9.17792983353138">
<ele>468.2</ele>
<time>2024-05-10T15:40:19Z</time>
</trkpt>
<trkpt lat="49.51332469470799" lon="9.17800711467862">
<ele>468</ele>
<time>2024-05-10T15:40:20Z</time>
</trkpt>
<trkpt lat="49.51336283236742" lon="9.178074756637216">
<ele>468</ele>
<time>2024-05-10T15:40:21Z</time>
</trkpt>
<trkpt lat="49.51340097002685" lon="9.178143488243222">
<ele>467.8</ele>
<time>2024-05-10T15:40:22Z</time>
</trkpt>
<trkpt lat="49.51343910768628" lon="9.178213058039546">
<ele>467.8</ele>
<time>2024-05-10T15:40:23Z</time>
</trkpt>
<trkpt lat="49.51348110102117" lon="9.178290339186788">
<ele>467.8</ele>
<time>2024-05-10T15:40:24Z</time>
</trkpt>
<trkpt lat="49.5135192386806" lon="9.178366614505649">
<ele>467.6</ele>
<time>2024-05-10T15:40:25Z</time>
</trkpt>
<trkpt lat="49.51356123201549" lon="9.17844196781516">
<ele>467.6</ele>
<time>2024-05-10T15:40:26Z</time>
</trkpt>
<trkpt lat="49.51360314153135" lon="9.178520170971751">
<ele>467.4</ele>
<time>2024-05-10T15:40:27Z</time>
</trkpt>
<trkpt lat="49.51364127919078" lon="9.178596446290612">
<ele>467.4</ele>
<time>2024-05-10T15:40:28Z</time>
</trkpt>
<trkpt lat="49.51367950066924" lon="9.178674649447204">
<ele>467.2</ele>
<time>2024-05-10T15:40:29Z</time>
</trkpt>
<trkpt lat="49.51371378265321" lon="9.178750002756717">
<ele>467.2</ele>
<time>2024-05-10T15:40:30Z</time>
</trkpt>
<trkpt lat="49.51375192031264" lon="9.178823428228498">
<ele>467</ele>
<time>2024-05-10T15:40:31Z</time>
</trkpt>
<trkpt lat="49.513786286115646" lon="9.178890148177745">
<ele>467</ele>
<time>2024-05-10T15:40:32Z</time>
</trkpt>
<trkpt lat="49.51382056809962" lon="9.178959801793098">
<ele>466.8</ele>
<time>2024-05-10T15:40:33Z</time>
</trkpt>
<trkpt lat="49.51385493390262" lon="9.179030377417805">
<ele>466.8</ele>
<time>2024-05-10T15:40:34Z</time>
</trkpt>
<trkpt lat="49.513889299705625" lon="9.179101875051856">
<ele>466.8</ele>
<time>2024-05-10T15:40:35Z</time>
</trkpt>
<trkpt lat="49.5139235816896" lon="9.17917345650494">
<ele>466.8</ele>
<time>2024-05-10T15:40:36Z</time>
</trkpt>
<trkpt lat="49.5139579474926" lon="9.179242104291916">
<ele>466.6</ele>
<time>2024-05-10T15:40:37Z</time>
</trkpt>
<trkpt lat="49.513988457620144" lon="9.179306980222464">
<ele>466.4</ele>
<time>2024-05-10T15:40:38Z</time>
</trkpt>
<trkpt lat="49.51402282342315" lon="9.179373700171707">
<ele>466.4</ele>
<time>2024-05-10T15:40:39Z</time>
</trkpt>
<trkpt lat="49.51405333355069" lon="9.179436648264527">
<ele>466.4</ele>
<time>2024-05-10T15:40:40Z</time>
</trkpt>
<trkpt lat="49.51407998800278" lon="9.179501524195077">
<ele>466.6</ele>
<time>2024-05-10T15:40:41Z</time>
</trkpt>
<trkpt lat="49.51411049813032" lon="9.17956824414432">
<ele>466.8</ele>
<time>2024-05-10T15:40:42Z</time>
</trkpt>
<trkpt lat="49.514141008257866" lon="9.179635047912598">
<ele>466.8</ele>
<time>2024-05-10T15:40:43Z</time>
</trkpt>
<trkpt lat="49.51417151838541" lon="9.179696990177035">
<ele>467</ele>
<time>2024-05-10T15:40:44Z</time>
</trkpt>
<trkpt lat="49.514205884188414" lon="9.179755160585046">
<ele>467</ele>
<time>2024-05-10T15:40:45Z</time>
</trkpt>
<trkpt lat="49.51423639431596" lon="9.179813330993056">
<ele>467</ele>
<time>2024-05-10T15:40:46Z</time>
</trkpt>
<trkpt lat="49.514263132587075" lon="9.179875357076526">
<ele>467.2</ele>
<time>2024-05-10T15:40:47Z</time>
</trkpt>
<trkpt lat="49.51429364271462" lon="9.179935455322266">
<ele>467.2</ele>
<time>2024-05-10T15:40:48Z</time>
</trkpt>
<trkpt lat="49.51432415284216" lon="9.179998319596052">
<ele>467.2</ele>
<time>2024-05-10T15:40:49Z</time>
</trkpt>
<trkpt lat="49.51435851864517" lon="9.1800631955266">
<ele>467.2</ele>
<time>2024-05-10T15:40:50Z</time>
</trkpt>
<trkpt lat="49.51438517309725" lon="9.180128071457148">
<ele>467.2</ele>
<time>2024-05-10T15:40:51Z</time>
</trkpt>
<trkpt lat="49.514419538900256" lon="9.180194791406391">
<ele>467.2</ele>
<time>2024-05-10T15:40:52Z</time>
</trkpt>
<trkpt lat="49.5144500490278" lon="9.18025966733694">
<ele>467.2</ele>
<time>2024-05-10T15:40:53Z</time>
</trkpt>
<trkpt lat="49.514480559155345" lon="9.180328315123916">
<ele>467.2</ele>
<time>2024-05-10T15:40:54Z</time>
</trkpt>
<trkpt lat="49.51451106928289" lon="9.18039696291089">
<ele>467.2</ele>
<time>2024-05-10T15:40:55Z</time>
</trkpt>
<trkpt lat="49.514541579410434" lon="9.180464688688517">
<ele>467.2</ele>
<time>2024-05-10T15:40:56Z</time>
</trkpt>
<trkpt lat="49.51457208953798" lon="9.18053526431322">
<ele>467.2</ele>
<time>2024-05-10T15:40:57Z</time>
</trkpt>
<trkpt lat="49.51460259966552" lon="9.180602990090849">
<ele>467.2</ele>
<time>2024-05-10T15:40:58Z</time>
</trkpt>
<trkpt lat="49.51463310979307" lon="9.180669710040092">
<ele>467.2</ele>
<time>2024-05-10T15:40:59Z</time>
</trkpt>
<trkpt lat="49.514659848064184" lon="9.18073651380837">
<ele>467.2</ele>
<time>2024-05-10T15:41:00Z</time>
</trkpt>
<trkpt lat="49.51469035819173" lon="9.180800383910537">
<ele>467.4</ele>
<time>2024-05-10T15:41:01Z</time>
</trkpt>
<trkpt lat="49.51472086831927" lon="9.180865259841084">
<ele>467.4</ele>
<time>2024-05-10T15:41:02Z</time>
</trkpt>
<trkpt lat="49.51475137844682" lon="9.180930135771632">
<ele>467.4</ele>
<time>2024-05-10T15:41:03Z</time>
</trkpt>
<trkpt lat="49.514778116717935" lon="9.18099300004542">
<ele>467.4</ele>
<time>2024-05-10T15:41:04Z</time>
</trkpt>
<trkpt lat="49.51480477117002" lon="9.181059803813696">
<ele>467.4</ele>
<time>2024-05-10T15:41:05Z</time>
</trkpt>
<trkpt lat="49.51482765376568" lon="9.18112652376294">
<ele>467.4</ele>
<time>2024-05-10T15:41:06Z</time>
</trkpt>
<trkpt lat="49.5148543920368" lon="9.181191399693487">
<ele>467.4</ele>
<time>2024-05-10T15:41:07Z</time>
</trkpt>
<trkpt lat="49.514877274632454" lon="9.181256275624037">
<ele>467.4</ele>
<time>2024-05-10T15:41:08Z</time>
</trkpt>
<trkpt lat="49.51490401290357" lon="9.181320145726204">
<ele>467.4</ele>
<time>2024-05-10T15:41:09Z</time>
</trkpt>
<trkpt lat="49.51493066735566" lon="9.181381165981293">
<ele>467.4</ele>
<time>2024-05-10T15:41:10Z</time>
</trkpt>
<trkpt lat="49.514957405626774" lon="9.181443192064762">
<ele>467.4</ele>
<time>2024-05-10T15:41:11Z</time>
</trkpt>
<trkpt lat="49.51498406007886" lon="9.1815051343292">
<ele>467.2</ele>
<time>2024-05-10T15:41:12Z</time>
</trkpt>
<trkpt lat="49.51501079834998" lon="9.18156623840332">
<ele>467.2</ele>
<time>2024-05-10T15:41:13Z</time>
</trkpt>
<trkpt lat="49.515033680945635" lon="9.181630108505487">
<ele>467.2</ele>
<time>2024-05-10T15:41:14Z</time>
</trkpt>
<trkpt lat="49.51506041921675" lon="9.181692050769923">
<ele>467.4</ele>
<time>2024-05-10T15:41:15Z</time>
</trkpt>
<trkpt lat="49.51508707366884" lon="9.181750221177936">
<ele>467.4</ele>
<time>2024-05-10T15:41:16Z</time>
</trkpt>
<trkpt lat="49.515113811939955" lon="9.18180461972952">
<ele>467.4</ele>
<time>2024-05-10T15:41:17Z</time>
</trkpt>
<trkpt lat="49.51514046639204" lon="9.181859940290453">
<ele>467.6</ele>
<time>2024-05-10T15:41:18Z</time>
</trkpt>
<trkpt lat="49.51517483219504" lon="9.181909561157228">
<ele>467.6</ele>
<time>2024-05-10T15:41:19Z</time>
</trkpt>
<trkpt lat="49.51520148664713" lon="9.181961948052049">
<ele>467.6</ele>
<time>2024-05-10T15:41:20Z</time>
</trkpt>
<trkpt lat="49.515228224918246" lon="9.182016346603632">
<ele>467.8</ele>
<time>2024-05-10T15:41:21Z</time>
</trkpt>
<trkpt lat="49.51525496318936" lon="9.182069739326836">
<ele>467.8</ele>
<time>2024-05-10T15:41:22Z</time>
</trkpt>
<trkpt lat="49.51528161764145" lon="9.18212028220296">
<ele>467.8</ele>
<time>2024-05-10T15:41:23Z</time>
</trkpt>
<trkpt lat="49.515308355912566" lon="9.182165125384929">
<ele>467.8</ele>
<time>2024-05-10T15:41:24Z</time>
</trkpt>
<trkpt lat="49.51533501036465" lon="9.182211812585592">
<ele>467.8</ele>
<time>2024-05-10T15:41:25Z</time>
</trkpt>
<trkpt lat="49.51536174863577" lon="9.18225858360529">
<ele>467.8</ele>
<time>2024-05-10T15:41:26Z</time>
</trkpt>
<trkpt lat="49.515388486906886" lon="9.182303426787255">
<ele>467.8</ele>
<time>2024-05-10T15:41:27Z</time>
</trkpt>
<trkpt lat="49.51541899703443" lon="9.182348186150191">
<ele>467.8</ele>
<time>2024-05-10T15:41:28Z</time>
</trkpt>
<trkpt lat="49.515449507161975" lon="9.182392107322812">
<ele>467.8</ele>
<time>2024-05-10T15:41:29Z</time>
</trkpt>
<trkpt lat="49.51547616161406" lon="9.18243502266705">
<ele>467.8</ele>
<time>2024-05-10T15:41:30Z</time>
</trkpt>
<trkpt lat="49.51550289988518" lon="9.182481709867716">
<ele>467.8</ele>
<time>2024-05-10T15:41:31Z</time>
</trkpt>
<trkpt lat="49.51552955433726" lon="9.182528480887411">
<ele>467.8</ele>
<time>2024-05-10T15:41:32Z</time>
</trkpt>
<trkpt lat="49.51556014828384" lon="9.18257039040327">
<ele>467.8</ele>
<time>2024-05-10T15:41:33Z</time>
</trkpt>
<trkpt lat="49.515586802735925" lon="9.182611461728811">
<ele>467.8</ele>
<time>2024-05-10T15:41:34Z</time>
</trkpt>
<trkpt lat="49.515624940395355" lon="9.182649599388242">
<ele>467.8</ele>
<time>2024-05-10T15:41:35Z</time>
</trkpt>
<trkpt lat="49.51565930619836" lon="9.182696286588907">
<ele>467.8</ele>
<time>2024-05-10T15:41:36Z</time>
</trkpt>
<trkpt lat="49.5156898163259" lon="9.182744901627302">
<ele>467.6</ele>
<time>2024-05-10T15:41:37Z</time>
</trkpt>
<trkpt lat="49.51573180966079" lon="9.182798378169537">
<ele>467.6</ele>
<time>2024-05-10T15:41:38Z</time>
</trkpt>
<trkpt lat="49.51576994732022" lon="9.18284984305501">
<ele>467.4</ele>
<time>2024-05-10T15:41:39Z</time>
</trkpt>
<trkpt lat="49.51580808497965" lon="9.182903235778213">
<ele>467.4</ele>
<time>2024-05-10T15:41:40Z</time>
</trkpt>
<trkpt lat="49.51584999449551" lon="9.182959478348494">
<ele>467</ele>
<time>2024-05-10T15:41:41Z</time>
</trkpt>
<trkpt lat="49.51588813215494" lon="9.183021504431965">
<ele>466.8</ele>
<time>2024-05-10T15:41:42Z</time>
</trkpt>
<trkpt lat="49.51593012548983" lon="9.18308537453413">
<ele>466.6</ele>
<time>2024-05-10T15:41:43Z</time>
</trkpt>
<trkpt lat="49.51597589068115" lon="9.183151172474028">
<ele>466.6</ele>
<time>2024-05-10T15:41:44Z</time>
</trkpt>
<trkpt lat="49.51602551154792" lon="9.183215126395226">
<ele>466.4</ele>
<time>2024-05-10T15:41:45Z</time>
</trkpt>
<trkpt lat="49.5160751324147" lon="9.183281846344473">
<ele>466.4</ele>
<time>2024-05-10T15:41:46Z</time>
</trkpt>
<trkpt lat="49.516120897606015" lon="9.183351499959826">
<ele>466.4</ele>
<time>2024-05-10T15:41:47Z</time>
</trkpt>
<trkpt lat="49.51617429032922" lon="9.18342207558453">
<ele>466.2</ele>
<time>2024-05-10T15:41:48Z</time>
</trkpt>
<trkpt lat="49.51623145490885" lon="9.18348116800189">
<ele>466</ele>
<time>2024-05-10T15:41:49Z</time>
</trkpt>
<trkpt lat="49.51628870330751" lon="9.183554593473673">
<ele>465.8</ele>
<time>2024-05-10T15:41:50Z</time>
</trkpt>
<trkpt lat="49.51634209603071" lon="9.18361846357584">
<ele>465.6</ele>
<time>2024-05-10T15:41:51Z</time>
</trkpt>
<trkpt lat="49.51639171689749" lon="9.183676717802882">
<ele>465.4</ele>
<time>2024-05-10T15:41:52Z</time>
</trkpt>
<trkpt lat="49.51644510962069" lon="9.183732960373163">
<ele>465</ele>
<time>2024-05-10T15:41:53Z</time>
</trkpt>
<trkpt lat="49.51649850234389" lon="9.183793058618903">
<ele>464.8</ele>
<time>2024-05-10T15:41:54Z</time>
</trkpt>
<trkpt lat="49.516551895067096" lon="9.183851229026914">
<ele>464.6</ele>
<time>2024-05-10T15:41:55Z</time>
</trkpt>
<trkpt lat="49.51660537160933" lon="9.18391702696681">
<ele>464.2</ele>
<time>2024-05-10T15:41:56Z</time>
</trkpt>
<trkpt lat="49.51665876433253" lon="9.183982824906709">
<ele>464</ele>
<time>2024-05-10T15:41:57Z</time>
</trkpt>
<trkpt lat="49.51672355644405" lon="9.184041917324066">
<ele>463.8</ele>
<time>2024-05-10T15:41:58Z</time>
</trkpt>
<trkpt lat="49.5167884323746" lon="9.184089610353112">
<ele>463.6</ele>
<time>2024-05-10T15:41:59Z</time>
</trkpt>
<trkpt lat="49.516853308305144" lon="9.184138225391507">
<ele>463.2</ele>
<time>2024-05-10T15:42:00Z</time>
</trkpt>
<trkpt lat="49.516910472884774" lon="9.184186924248934">
<ele>463.2</ele>
<time>2024-05-10T15:42:01Z</time>
</trkpt>
<trkpt lat="49.516971576958895" lon="9.184238389134409">
<ele>463</ele>
<time>2024-05-10T15:42:02Z</time>
</trkpt>
<trkpt lat="49.517028741538525" lon="9.184283232316377">
<ele>462.8</ele>
<time>2024-05-10T15:42:03Z</time>
</trkpt>
<trkpt lat="49.517085989937186" lon="9.18432991951704">
<ele>462.6</ele>
<time>2024-05-10T15:42:04Z</time>
</trkpt>
<trkpt lat="49.517147010192275" lon="9.184374762699008">
<ele>462.4</ele>
<time>2024-05-10T15:42:05Z</time>
</trkpt>
<trkpt lat="49.51720425859094" lon="9.184432933107018">
<ele>462.2</ele>
<time>2024-05-10T15:42:06Z</time>
</trkpt>
<trkpt lat="49.51726142317057" lon="9.18448632583022">
<ele>462</ele>
<time>2024-05-10T15:42:07Z</time>
</trkpt>
<trkpt lat="49.5173148997128" lon="9.184544496238232">
<ele>461.8</ele>
<time>2024-05-10T15:42:08Z</time>
</trkpt>
<trkpt lat="49.517368292436" lon="9.184596966952084">
<ele>461.8</ele>
<time>2024-05-10T15:42:09Z</time>
</trkpt>
<trkpt lat="49.517425457015634" lon="9.184650359675288">
<ele>461.6</ele>
<time>2024-05-10T15:42:10Z</time>
</trkpt>
<trkpt lat="49.517486561089754" lon="9.184695202857256">
<ele>461.6</ele>
<time>2024-05-10T15:42:11Z</time>
</trkpt>
<trkpt lat="49.51754758134484" lon="9.18474666774273">
<ele>461.4</ele>
<time>2024-05-10T15:42:12Z</time>
</trkpt>
<trkpt lat="49.517600974068046" lon="9.184796288609505">
<ele>461.4</ele>
<time>2024-05-10T15:42:13Z</time>
</trkpt>
<trkpt lat="49.51765059493482" lon="9.184843059629202">
<ele>461.2</ele>
<time>2024-05-10T15:42:14Z</time>
</trkpt>
<trkpt lat="49.51769636012614" lon="9.184878347441554">
<ele>461</ele>
<time>2024-05-10T15:42:15Z</time>
</trkpt>
<trkpt lat="49.517742125317454" lon="9.184936517849565">
<ele>460.8</ele>
<time>2024-05-10T15:42:16Z</time>
</trkpt>
<trkpt lat="49.51779174618423" lon="9.185000387951732">
<ele>460.6</ele>
<time>2024-05-10T15:42:17Z</time>
</trkpt>
<trkpt lat="49.517841283231974" lon="9.185071885585783">
<ele>460.4</ele>
<time>2024-05-10T15:42:18Z</time>
</trkpt>
<trkpt lat="49.51788327656686" lon="9.18514153920114">
<ele>460.2</ele>
<time>2024-05-10T15:42:19Z</time>
</trkpt>
<trkpt lat="49.517936669290066" lon="9.185213036835194">
<ele>460</ele>
<time>2024-05-10T15:42:20Z</time>
</trkpt>
<trkpt lat="49.51799391768873" lon="9.185293167829514">
<ele>460</ele>
<time>2024-05-10T15:42:21Z</time>
</trkpt>
<trkpt lat="49.51803968288005" lon="9.18537992052734">
<ele>460</ele>
<time>2024-05-10T15:42:22Z</time>
</trkpt>
<trkpt lat="49.5180815923959" lon="9.185464829206468">
<ele>459.8</ele>
<time>2024-05-10T15:42:23Z</time>
</trkpt>
<trkpt lat="49.518112102523446" lon="9.1855563595891">
<ele>459.8</ele>
<time>2024-05-10T15:42:24Z</time>
</trkpt>
<trkpt lat="49.51813121326268" lon="9.185651745647192">
<ele>459.8</ele>
<time>2024-05-10T15:42:25Z</time>
</trkpt>
<trkpt lat="49.51814646832645" lon="9.185748053714631">
<ele>459.8</ele>
<time>2024-05-10T15:42:26Z</time>
</trkpt>
<trkpt lat="49.51816172339022" lon="9.185839584097266">
<ele>460</ele>
<time>2024-05-10T15:42:27Z</time>
</trkpt>
<trkpt lat="49.51817320659757" lon="9.18592826463282">
<ele>460</ele>
<time>2024-05-10T15:42:28Z</time>
</trkpt>
<trkpt lat="49.51818460598588" lon="9.186019878834486">
<ele>460</ele>
<time>2024-05-10T15:42:29Z</time>
</trkpt>
<trkpt lat="49.518192233517766" lon="9.18610855937004">
<ele>460</ele>
<time>2024-05-10T15:42:30Z</time>
</trkpt>
<trkpt lat="49.51819986104965" lon="9.186196317896249">
<ele>460</ele>
<time>2024-05-10T15:42:31Z</time>
</trkpt>
<trkpt lat="49.51820748858154" lon="9.18628784827888">
<ele>460</ele>
<time>2024-05-10T15:42:32Z</time>
</trkpt>
<trkpt lat="49.518215116113424" lon="9.186376528814437">
<ele>459.8</ele>
<time>2024-05-10T15:42:33Z</time>
</trkpt>
<trkpt lat="49.51822274364531" lon="9.18646520934999">
<ele>459.8</ele>
<time>2024-05-10T15:42:34Z</time>
</trkpt>
<trkpt lat="49.51822659932077" lon="9.186552967876196">
<ele>459.8</ele>
<time>2024-05-10T15:42:35Z</time>
</trkpt>
<trkpt lat="49.51822659932077" lon="9.18664357624948">
<ele>460</ele>
<time>2024-05-10T15:42:36Z</time>
</trkpt>
<trkpt lat="49.51822659932077" lon="9.186731334775686">
<ele>460</ele>
<time>2024-05-10T15:42:37Z</time>
</trkpt>
<trkpt lat="49.51822274364531" lon="9.186818087473512">
<ele>460</ele>
<time>2024-05-10T15:42:38Z</time>
</trkpt>
<trkpt lat="49.518215116113424" lon="9.186904840171335">
<ele>460.2</ele>
<time>2024-05-10T15:42:39Z</time>
</trkpt>
<trkpt lat="49.51820371672511" lon="9.186989748850465">
<ele>460.2</ele>
<time>2024-05-10T15:42:40Z</time>
</trkpt>
<trkpt lat="49.51819986104965" lon="9.187074657529593">
<ele>460.4</ele>
<time>2024-05-10T15:42:41Z</time>
</trkpt>
<trkpt lat="49.518192233517766" lon="9.187163338065147">
<ele>460.4</ele>
<time>2024-05-10T15:42:42Z</time>
</trkpt>
<trkpt lat="49.51818460598588" lon="9.187250090762973">
<ele>460.4</ele>
<time>2024-05-10T15:42:43Z</time>
</trkpt>
<trkpt lat="49.51818083412945" lon="9.187341621145606">
<ele>460.6</ele>
<time>2024-05-10T15:42:44Z</time>
</trkpt>
<trkpt lat="49.51816935092211" lon="9.18743030168116">
<ele>460.6</ele>
<time>2024-05-10T15:42:45Z</time>
</trkpt>
<trkpt lat="49.518157951533794" lon="9.187516132369636">
<ele>460.6</ele>
<time>2024-05-10T15:42:46Z</time>
</trkpt>
<trkpt lat="49.51814646832645" lon="9.187598191201689">
<ele>460.8</ele>
<time>2024-05-10T15:42:47Z</time>
</trkpt>
<trkpt lat="49.51813884079456" lon="9.187683099880816">
<ele>460.8</ele>
<time>2024-05-10T15:42:48Z</time>
</trkpt>
<trkpt lat="49.51812744140625" lon="9.18776792474091">
<ele>461</ele>
<time>2024-05-10T15:42:49Z</time>
</trkpt>
<trkpt lat="49.51811973005533" lon="9.187856605276464">
<ele>461</ele>
<time>2024-05-10T15:42:50Z</time>
</trkpt>
<trkpt lat="49.518115958198905" lon="9.18794821947813">
<ele>461</ele>
<time>2024-05-10T15:42:51Z</time>
</trkpt>
<trkpt lat="49.51811973005533" lon="9.188041677698491">
<ele>461</ele>
<time>2024-05-10T15:42:52Z</time>
</trkpt>
<trkpt lat="49.51811973005533" lon="9.188130358234048">
<ele>460.8</ele>
<time>2024-05-10T15:42:53Z</time>
</trkpt>
<trkpt lat="49.51812358573079" lon="9.18822281062603">
<ele>460.8</ele>
<time>2024-05-10T15:42:54Z</time>
</trkpt>
<trkpt lat="49.51812744140625" lon="9.188315346837044">
<ele>460.8</ele>
<time>2024-05-10T15:42:55Z</time>
</trkpt>
<trkpt lat="49.518135068938136" lon="9.18840117752552">
<ele>460.8</ele>
<time>2024-05-10T15:42:56Z</time>
</trkpt>
<trkpt lat="49.51814269647002" lon="9.188485080376267">
<ele>460.8</ele>
<time>2024-05-10T15:42:57Z</time>
</trkpt>
<trkpt lat="49.51815032400191" lon="9.188568061217666">
<ele>460.8</ele>
<time>2024-05-10T15:42:58Z</time>
</trkpt>
<trkpt lat="49.51816172339022" lon="9.188648192211986">
<ele>460.8</ele>
<time>2024-05-10T15:42:59Z</time>
</trkpt>
<trkpt lat="49.51818083412945" lon="9.188724467530848">
<ele>460.8</ele>
<time>2024-05-10T15:43:00Z</time>
</trkpt>
<trkpt lat="49.518196089193225" lon="9.188801748678088">
<ele>460.8</ele>
<time>2024-05-10T15:43:01Z</time>
</trkpt>
<trkpt lat="49.518211344257" lon="9.18887995183468">
<ele>460.8</ele>
<time>2024-05-10T15:43:02Z</time>
</trkpt>
<trkpt lat="49.51822659932077" lon="9.188958154991267">
<ele>460.8</ele>
<time>2024-05-10T15:43:03Z</time>
</trkpt>
<trkpt lat="49.51824185438454" lon="9.189038202166556">
<ele>460.8</ele>
<time>2024-05-10T15:43:04Z</time>
</trkpt>
<trkpt lat="49.518257109448314" lon="9.189120260998608">
<ele>460.8</ele>
<time>2024-05-10T15:43:05Z</time>
</trkpt>
<trkpt lat="49.5182647369802" lon="9.189200391992928">
<ele>460.8</ele>
<time>2024-05-10T15:43:06Z</time>
</trkpt>
<trkpt lat="49.51827999204397" lon="9.189281444996595">
<ele>461</ele>
<time>2024-05-10T15:43:07Z</time>
</trkpt>
<trkpt lat="49.518291391432285" lon="9.189361492171884">
<ele>461.2</ele>
<time>2024-05-10T15:43:08Z</time>
</trkpt>
<trkpt lat="49.51830673031509" lon="9.189439695328474">
<ele>461.2</ele>
<time>2024-05-10T15:43:09Z</time>
</trkpt>
<trkpt lat="49.5183181297034" lon="9.189517898485065">
<ele>461.4</ele>
<time>2024-05-10T15:43:10Z</time>
</trkpt>
<trkpt lat="49.51832575723529" lon="9.189597107470036">
<ele>461.4</ele>
<time>2024-05-10T15:43:11Z</time>
</trkpt>
<trkpt lat="49.518333384767175" lon="9.189671454951169">
<ele>461.6</ele>
<time>2024-05-10T15:43:12Z</time>
</trkpt>
<trkpt lat="49.51834101229906" lon="9.18974488042295">
<ele>461.8</ele>
<time>2024-05-10T15:43:13Z</time>
</trkpt>
<trkpt lat="49.51834863983095" lon="9.189816461876037">
<ele>461.8</ele>
<time>2024-05-10T15:43:14Z</time>
</trkpt>
<trkpt lat="49.51836012303829" lon="9.189889887347816">
<ele>462</ele>
<time>2024-05-10T15:43:15Z</time>
</trkpt>
<trkpt lat="49.518371522426605" lon="9.18996138498187">
<ele>462</ele>
<time>2024-05-10T15:43:16Z</time>
</trkpt>
<trkpt lat="49.51837914995849" lon="9.190034810453652">
<ele>462</ele>
<time>2024-05-10T15:43:17Z</time>
</trkpt>
<trkpt lat="49.51839063316584" lon="9.190110163763164">
<ele>462.2</ele>
<time>2024-05-10T15:43:18Z</time>
</trkpt>
<trkpt lat="49.51840588822961" lon="9.190183589234948">
<ele>462.2</ele>
<time>2024-05-10T15:43:19Z</time>
</trkpt>
<trkpt lat="49.51842114329338" lon="9.190255086869">
<ele>462.2</ele>
<time>2024-05-10T15:43:20Z</time>
</trkpt>
<trkpt lat="49.51844017021358" lon="9.190326668322086">
<ele>462.2</ele>
<time>2024-05-10T15:43:21Z</time>
</trkpt>
<trkpt lat="49.51845928095281" lon="9.19039623811841">
<ele>462.2</ele>
<time>2024-05-10T15:43:22Z</time>
</trkpt>
<trkpt lat="49.51847839169204" lon="9.190464969724417">
<ele>462.4</ele>
<time>2024-05-10T15:43:23Z</time>
</trkpt>
<trkpt lat="49.518493646755815" lon="9.190529761835933">
<ele>462.4</ele>
<time>2024-05-10T15:43:24Z</time>
</trkpt>
<trkpt lat="49.518512673676014" lon="9.19059463776648">
<ele>462.4</ele>
<time>2024-05-10T15:43:25Z</time>
</trkpt>
<trkpt lat="49.518531784415245" lon="9.190661357715726">
<ele>462.4</ele>
<time>2024-05-10T15:43:26Z</time>
</trkpt>
<trkpt lat="49.51854318380356" lon="9.190730089321733">
<ele>462.4</ele>
<time>2024-05-10T15:43:27Z</time>
</trkpt>
<trkpt lat="49.51855843886733" lon="9.190798737108707">
<ele>462.4</ele>
<time>2024-05-10T15:43:28Z</time>
</trkpt>
<trkpt lat="49.51856992207467" lon="9.190863529220223">
<ele>462.4</ele>
<time>2024-05-10T15:43:29Z</time>
</trkpt>
<trkpt lat="49.51858517713845" lon="9.190928405150771">
<ele>462.4</ele>
<time>2024-05-10T15:43:30Z</time>
</trkpt>
<trkpt lat="49.51859657652676" lon="9.19099328108132">
<ele>462.6</ele>
<time>2024-05-10T15:43:31Z</time>
</trkpt>
<trkpt lat="49.518608059734106" lon="9.19105337932706">
<ele>462.6</ele>
<time>2024-05-10T15:43:32Z</time>
</trkpt>
<trkpt lat="49.51861945912242" lon="9.191116327419875">
<ele>462.8</ele>
<time>2024-05-10T15:43:33Z</time>
</trkpt>
<trkpt lat="49.51863094232976" lon="9.191183047369124">
<ele>462.8</ele>
<time>2024-05-10T15:43:34Z</time>
</trkpt>
<trkpt lat="49.51863856986165" lon="9.19124792329967">
<ele>463</ele>
<time>2024-05-10T15:43:35Z</time>
</trkpt>
<trkpt lat="49.51864619739354" lon="9.191316571086643">
<ele>463</ele>
<time>2024-05-10T15:43:36Z</time>
</trkpt>
<trkpt lat="49.51866145245731" lon="9.191388068720698">
<ele>463.2</ele>
<time>2024-05-10T15:43:37Z</time>
</trkpt>
<trkpt lat="49.518669079989195" lon="9.191458644345404">
<ele>463.2</ele>
<time>2024-05-10T15:43:38Z</time>
</trkpt>
<trkpt lat="49.51867670752108" lon="9.19152159243822">
<ele>463.2</ele>
<time>2024-05-10T15:43:39Z</time>
</trkpt>
<trkpt lat="49.51868056319654" lon="9.191586468368769">
<ele>463.2</ele>
<time>2024-05-10T15:43:40Z</time>
</trkpt>
<trkpt lat="49.518688190728426" lon="9.191655116155744">
<ele>463.4</ele>
<time>2024-05-10T15:43:41Z</time>
</trkpt>
<trkpt lat="49.51869196258485" lon="9.19172284193337">
<ele>463.6</ele>
<time>2024-05-10T15:43:42Z</time>
</trkpt>
<trkpt lat="49.51869959011674" lon="9.191789561882617">
<ele>463.6</ele>
<time>2024-05-10T15:43:43Z</time>
</trkpt>
<trkpt lat="49.5187034457922" lon="9.19185820966959">
<ele>463.8</ele>
<time>2024-05-10T15:43:44Z</time>
</trkpt>
<trkpt lat="49.5187034457922" lon="9.191926941275597">
<ele>463.8</ele>
<time>2024-05-10T15:43:45Z</time>
</trkpt>
<trkpt lat="49.51871107332408" lon="9.19199651107192">
<ele>463.8</ele>
<time>2024-05-10T15:43:46Z</time>
</trkpt>
<trkpt lat="49.51871107332408" lon="9.192066164687276">
<ele>463.8</ele>
<time>2024-05-10T15:43:47Z</time>
</trkpt>
<trkpt lat="49.51871484518051" lon="9.19213481247425">
<ele>463.8</ele>
<time>2024-05-10T15:43:48Z</time>
</trkpt>
<trkpt lat="49.51871484518051" lon="9.192201532423496">
<ele>463.8</ele>
<time>2024-05-10T15:43:49Z</time>
</trkpt>
<trkpt lat="49.51871870085597" lon="9.192270264029505">
<ele>463.8</ele>
<time>2024-05-10T15:43:50Z</time>
</trkpt>
<trkpt lat="49.51871870085597" lon="9.192336983978748">
<ele>463.6</ele>
<time>2024-05-10T15:43:51Z</time>
</trkpt>
<trkpt lat="49.51872632838786" lon="9.192406637594104">
<ele>463.6</ele>
<time>2024-05-10T15:43:52Z</time>
</trkpt>
<trkpt lat="49.51873010024429" lon="9.19247335754335">
<ele>463.6</ele>
<time>2024-05-10T15:43:53Z</time>
</trkpt>
<trkpt lat="49.51873010024429" lon="9.192542005330324">
<ele>463.4</ele>
<time>2024-05-10T15:43:54Z</time>
</trkpt>
<trkpt lat="49.51873010024429" lon="9.19260973110795">
<ele>463.4</ele>
<time>2024-05-10T15:43:55Z</time>
</trkpt>
<trkpt lat="49.51873772777617" lon="9.192680306732656">
<ele>463.4</ele>
<time>2024-05-10T15:43:56Z</time>
</trkpt>
<trkpt lat="49.51874158345163" lon="9.192751804366708">
<ele>463.4</ele>
<time>2024-05-10T15:43:57Z</time>
</trkpt>
<trkpt lat="49.518745355308056" lon="9.1928281635046">
<ele>463.2</ele>
<time>2024-05-10T15:43:58Z</time>
</trkpt>
<trkpt lat="49.518745355308056" lon="9.192906366661193">
<ele>463.2</ele>
<time>2024-05-10T15:43:59Z</time>
</trkpt>
<trkpt lat="49.518745355308056" lon="9.1929835639894">
<ele>463.2</ele>
<time>2024-05-10T15:44:00Z</time>
</trkpt>
<trkpt lat="49.51874158345163" lon="9.19306369498372">
<ele>463.2</ele>
<time>2024-05-10T15:44:01Z</time>
</trkpt>
<trkpt lat="49.51873772777617" lon="9.19314474798739">
<ele>463.2</ele>
<time>2024-05-10T15:44:02Z</time>
</trkpt>
<trkpt lat="49.51873010024429" lon="9.193228650838137">
<ele>463.2</ele>
<time>2024-05-10T15:44:03Z</time>
</trkpt>
<trkpt lat="49.5187224727124" lon="9.193309703841804">
<ele>463.2</ele>
<time>2024-05-10T15:44:04Z</time>
</trkpt>
<trkpt lat="49.51871484518051" lon="9.193389834836124">
<ele>463.2</ele>
<time>2024-05-10T15:44:05Z</time>
</trkpt>
<trkpt lat="49.5187034457922" lon="9.193469965830444">
<ele>463.2</ele>
<time>2024-05-10T15:44:06Z</time>
</trkpt>
<trkpt lat="49.51869581826031" lon="9.193548168987036">
<ele>463.2</ele>
<time>2024-05-10T15:44:07Z</time>
</trkpt>
<trkpt lat="49.51868433505297" lon="9.193630144000052">
<ele>463.2</ele>
<time>2024-05-10T15:44:08Z</time>
</trkpt>
<trkpt lat="49.51867670752108" lon="9.193711280822754">
<ele>463</ele>
<time>2024-05-10T15:44:09Z</time>
</trkpt>
<trkpt lat="49.518669079989195" lon="9.193791327998042">
<ele>463</ele>
<time>2024-05-10T15:44:10Z</time>
</trkpt>
<trkpt lat="49.51866530813277" lon="9.193873386830091">
<ele>462.8</ele>
<time>2024-05-10T15:44:11Z</time>
</trkpt>
<trkpt lat="49.51866145245731" lon="9.19395636767149">
<ele>462.6</ele>
<time>2024-05-10T15:44:12Z</time>
</trkpt>
<trkpt lat="49.51865768060088" lon="9.194040270522237">
<ele>462.6</ele>
<time>2024-05-10T15:44:13Z</time>
</trkpt>
<trkpt lat="49.51865382492542" lon="9.194121323525906">
<ele>462.4</ele>
<time>2024-05-10T15:44:14Z</time>
</trkpt>
<trkpt lat="49.51865382492542" lon="9.194203298538923">
<ele>462.2</ele>
<time>2024-05-10T15:44:15Z</time>
</trkpt>
<trkpt lat="49.518650053068995" lon="9.194285357370973">
<ele>462.2</ele>
<time>2024-05-10T15:44:16Z</time>
</trkpt>
<trkpt lat="49.518650053068995" lon="9.19436833821237">
<ele>462</ele>
<time>2024-05-10T15:44:17Z</time>
</trkpt>
<trkpt lat="49.51864619739354" lon="9.19444846920669">
<ele>462</ele>
<time>2024-05-10T15:44:18Z</time>
</trkpt>
<trkpt lat="49.51864619739354" lon="9.19452851638198">
<ele>462</ele>
<time>2024-05-10T15:44:19Z</time>
</trkpt>
<trkpt lat="49.51864619739354" lon="9.1946086473763">
<ele>461.8</ele>
<time>2024-05-10T15:44:20Z</time>
</trkpt>
<trkpt lat="49.51864619739354" lon="9.19468685053289">
<ele>461.8</ele>
<time>2024-05-10T15:44:21Z</time>
</trkpt>
<trkpt lat="49.518650053068995" lon="9.19476312585175">
<ele>461.8</ele>
<time>2024-05-10T15:44:22Z</time>
</trkpt>
<trkpt lat="49.518650053068995" lon="9.194840406998992">
<ele>461.8</ele>
<time>2024-05-10T15:44:23Z</time>
</trkpt>
<trkpt lat="49.518650053068995" lon="9.194914754480124">
<ele>461.8</ele>
<time>2024-05-10T15:44:24Z</time>
</trkpt>
<trkpt lat="49.518650053068995" lon="9.194990107789636">
<ele>461.8</ele>
<time>2024-05-10T15:44:25Z</time>
</trkpt>
<trkpt lat="49.51865382492542" lon="9.195063533261418">
<ele>461.6</ele>
<time>2024-05-10T15:44:26Z</time>
</trkpt>
<trkpt lat="49.51865768060088" lon="9.195135114714503">
<ele>461.6</ele>
<time>2024-05-10T15:44:27Z</time>
</trkpt>
<trkpt lat="49.51866145245731" lon="9.195204684510829">
<ele>461.8</ele>
<time>2024-05-10T15:44:28Z</time>
</trkpt>
<trkpt lat="49.51866145245731" lon="9.195275260135531">
<ele>461.8</ele>
<time>2024-05-10T15:44:29Z</time>
</trkpt>
<trkpt lat="49.51865768060088" lon="9.195342063903809">
<ele>461.8</ele>
<time>2024-05-10T15:44:30Z</time>
</trkpt>
<trkpt lat="49.51865768060088" lon="9.195406856015325">
<ele>461.8</ele>
<time>2024-05-10T15:44:31Z</time>
</trkpt>
<trkpt lat="49.51866145245731" lon="9.195471731945872">
<ele>461.8</ele>
<time>2024-05-10T15:44:32Z</time>
</trkpt>
<trkpt lat="49.51865768060088" lon="9.19553367421031">
<ele>462</ele>
<time>2024-05-10T15:44:33Z</time>
</trkpt>
<trkpt lat="49.51865768060088" lon="9.1955928504467">
<ele>462</ele>
<time>2024-05-10T15:44:34Z</time>
</trkpt>
<trkpt lat="49.51866145245731" lon="9.195661498233676">
<ele>461.8</ele>
<time>2024-05-10T15:44:35Z</time>
</trkpt>
<trkpt lat="49.51866145245731" lon="9.195736851543188">
<ele>461.8</ele>
<time>2024-05-10T15:44:36Z</time>
</trkpt>
<trkpt lat="49.51866530813277" lon="9.195806421339512">
<ele>462</ele>
<time>2024-05-10T15:44:37Z</time>
</trkpt>
<trkpt lat="49.518669079989195" lon="9.19587129727006">
<ele>462</ele>
<time>2024-05-10T15:44:38Z</time>
</trkpt>
<trkpt lat="49.51866530813277" lon="9.1959313955158">
<ele>462.2</ele>
<time>2024-05-10T15:44:39Z</time>
</trkpt>
<trkpt lat="49.51866530813277" lon="9.19598956592381">
<ele>462.2</ele>
<time>2024-05-10T15:44:40Z</time>
</trkpt>
<trkpt lat="49.51866145245731" lon="9.19604865834117">
<ele>462.4</ele>
<time>2024-05-10T15:44:41Z</time>
</trkpt>
<trkpt lat="49.51866145245731" lon="9.19610976241529">
<ele>462.4</ele>
<time>2024-05-10T15:44:42Z</time>
</trkpt>
<trkpt lat="49.51865382492542" lon="9.196173632517455">
<ele>462.6</ele>
<time>2024-05-10T15:44:43Z</time>
</trkpt>
<trkpt lat="49.51864619739354" lon="9.196238508448005">
<ele>462.8</ele>
<time>2024-05-10T15:44:44Z</time>
</trkpt>
<trkpt lat="49.51863471418619" lon="9.196299528703094">
<ele>462.8</ele>
<time>2024-05-10T15:44:45Z</time>
</trkpt>
<trkpt lat="49.51862331479788" lon="9.196361470967531">
<ele>463</ele>
<time>2024-05-10T15:44:46Z</time>
</trkpt>
<trkpt lat="49.51861568726599" lon="9.196421569213271">
<ele>463.2</ele>
<time>2024-05-10T15:44:47Z</time>
</trkpt>
<trkpt lat="49.51860420405865" lon="9.196477811783552">
<ele>463.4</ele>
<time>2024-05-10T15:44:48Z</time>
</trkpt>
<trkpt lat="49.518592804670334" lon="9.196535060182214">
<ele>463.6</ele>
<time>2024-05-10T15:44:49Z</time>
</trkpt>
<trkpt lat="49.51857754960656" lon="9.196591302752497">
<ele>463.6</ele>
<time>2024-05-10T15:44:50Z</time>
</trkpt>
<trkpt lat="49.51856229454279" lon="9.196651400998237">
<ele>463.8</ele>
<time>2024-05-10T15:44:51Z</time>
</trkpt>
<trkpt lat="49.51854703947902" lon="9.196713427081704">
<ele>464</ele>
<time>2024-05-10T15:44:52Z</time>
</trkpt>
<trkpt lat="49.518527928739786" lon="9.196776375174522">
<ele>463.8</ele>
<time>2024-05-10T15:44:53Z</time>
</trkpt>
<trkpt lat="49.51850890181959" lon="9.196841167286038">
<ele>463.6</ele>
<time>2024-05-10T15:44:54Z</time>
</trkpt>
<trkpt lat="49.51848601922393" lon="9.196909898892043">
<ele>463.4</ele>
<time>2024-05-10T15:44:55Z</time>
</trkpt>
<trkpt lat="49.5184669084847" lon="9.196981396526098">
<ele>463.2</ele>
<time>2024-05-10T15:44:56Z</time>
</trkpt>
<trkpt lat="49.518451653420925" lon="9.19705674983561">
<ele>463</ele>
<time>2024-05-10T15:44:57Z</time>
</trkpt>
<trkpt lat="49.518432542681694" lon="9.197133025154471">
<ele>462.6</ele>
<time>2024-05-10T15:44:58Z</time>
</trkpt>
<trkpt lat="49.51841728761792" lon="9.197206450626254">
<ele>462.4</ele>
<time>2024-05-10T15:44:59Z</time>
</trkpt>
<trkpt lat="49.51840203255415" lon="9.197279876098037">
<ele>462.2</ele>
<time>2024-05-10T15:45:00Z</time>
</trkpt>
<trkpt lat="49.51838677749038" lon="9.197356151416898">
<ele>462</ele>
<time>2024-05-10T15:45:01Z</time>
</trkpt>
<trkpt lat="49.518371522426605" lon="9.197438210248947">
<ele>461.8</ele>
<time>2024-05-10T15:45:02Z</time>
</trkpt>
<trkpt lat="49.518371522426605" lon="9.197523035109043">
<ele>461.6</ele>
<time>2024-05-10T15:45:03Z</time>
</trkpt>
<trkpt lat="49.51836389489472" lon="9.19760794378817">
<ele>461.2</ele>
<time>2024-05-10T15:45:04Z</time>
</trkpt>
<trkpt lat="49.51836012303829" lon="9.197694696485996">
<ele>461</ele>
<time>2024-05-10T15:45:05Z</time>
</trkpt>
<trkpt lat="49.518352495506406" lon="9.197779605165124">
<ele>460.6</ele>
<time>2024-05-10T15:45:06Z</time>
</trkpt>
<trkpt lat="49.51834863983095" lon="9.197864513844252">
<ele>460.4</ele>
<time>2024-05-10T15:45:07Z</time>
</trkpt>
<trkpt lat="49.51834863983095" lon="9.197950344532728">
<ele>460</ele>
<time>2024-05-10T15:45:08Z</time>
</trkpt>
<trkpt lat="49.51834486797452" lon="9.198036175221205">
<ele>459.8</ele>
<time>2024-05-10T15:45:09Z</time>
</trkpt>
<trkpt lat="49.51834486797452" lon="9.19812200590968">
<ele>459.8</ele>
<time>2024-05-10T15:45:10Z</time>
</trkpt>
<trkpt lat="49.51834486797452" lon="9.198206830769776">
<ele>459.6</ele>
<time>2024-05-10T15:45:11Z</time>
</trkpt>
<trkpt lat="49.51834101229906" lon="9.198289811611176">
<ele>459.6</ele>
<time>2024-05-10T15:45:12Z</time>
</trkpt>
<trkpt lat="49.518337240442634" lon="9.198373714461924">
<ele>459.4</ele>
<time>2024-05-10T15:45:13Z</time>
</trkpt>
<trkpt lat="49.518333384767175" lon="9.19845669530332">
<ele>459.4</ele>
<time>2024-05-10T15:45:14Z</time>
</trkpt>
<trkpt lat="49.51832961291075" lon="9.19853967614472">
<ele>459.2</ele>
<time>2024-05-10T15:45:15Z</time>
</trkpt>
<trkpt lat="49.51832575723529" lon="9.198623578995466">
<ele>459.2</ele>
<time>2024-05-10T15:45:16Z</time>
</trkpt>
<trkpt lat="49.51832575723529" lon="9.198706559836864">
<ele>459</ele>
<time>2024-05-10T15:45:17Z</time>
</trkpt>
<trkpt lat="49.51832575723529" lon="9.198786690831184">
<ele>459</ele>
<time>2024-05-10T15:45:18Z</time>
</trkpt>
<trkpt lat="49.51832961291075" lon="9.198864893987777">
<ele>458.8</ele>
<time>2024-05-10T15:45:19Z</time>
</trkpt>
<trkpt lat="49.518333384767175" lon="9.198941169306636">
<ele>458.6</ele>
<time>2024-05-10T15:45:20Z</time>
</trkpt>
<trkpt lat="49.51834101229906" lon="9.199020378291609">
<ele>458.4</ele>
<time>2024-05-10T15:45:21Z</time>
</trkpt>
<trkpt lat="49.51834863983095" lon="9.199096653610468">
<ele>458.2</ele>
<time>2024-05-10T15:45:22Z</time>
</trkpt>
<trkpt lat="49.51836012303829" lon="9.199172928929327">
<ele>458.2</ele>
<time>2024-05-10T15:45:23Z</time>
</trkpt>
<trkpt lat="49.518371522426605" lon="9.199252054095268">
<ele>458</ele>
<time>2024-05-10T15:45:24Z</time>
</trkpt>
<trkpt lat="49.51838300563395" lon="9.19933126308024">
<ele>457.8</ele>
<time>2024-05-10T15:45:25Z</time>
</trkpt>
<trkpt lat="49.51839826069772" lon="9.199411310255527">
<ele>457.8</ele>
<time>2024-05-10T15:45:26Z</time>
</trkpt>
<trkpt lat="49.518413515761495" lon="9.199496218934655">
<ele>457.6</ele>
<time>2024-05-10T15:45:27Z</time>
</trkpt>
<trkpt lat="49.518432542681694" lon="9.199580121785402">
<ele>457.4</ele>
<time>2024-05-10T15:45:28Z</time>
</trkpt>
<trkpt lat="49.51845928095281" lon="9.1996631026268">
<ele>457.2</ele>
<time>2024-05-10T15:45:29Z</time>
</trkpt>
<trkpt lat="49.51848216354847" lon="9.199747005477548">
<ele>457.2</ele>
<time>2024-05-10T15:45:30Z</time>
</trkpt>
<trkpt lat="49.518512673676014" lon="9.199828142300248">
<ele>457</ele>
<time>2024-05-10T15:45:31Z</time>
</trkpt>
<trkpt lat="49.51854318380356" lon="9.199910117313266">
<ele>457</ele>
<time>2024-05-10T15:45:32Z</time>
</trkpt>
<trkpt lat="49.51858132146299" lon="9.199988320469856">
<ele>456.8</ele>
<time>2024-05-10T15:45:33Z</time>
</trkpt>
<trkpt lat="49.51861568726599" lon="9.200066523626449">
<ele>456.8</ele>
<time>2024-05-10T15:45:34Z</time>
</trkpt>
<trkpt lat="49.51864619739354" lon="9.200146654620768">
<ele>456.8</ele>
<time>2024-05-10T15:45:35Z</time>
</trkpt>
<trkpt lat="49.51868056319654" lon="9.200224857777355">
<ele>456.6</ele>
<time>2024-05-10T15:45:36Z</time>
</trkpt>
<trkpt lat="49.51871107332408" lon="9.200303060933948">
<ele>456.4</ele>
<time>2024-05-10T15:45:37Z</time>
</trkpt>
<trkpt lat="49.51874158345163" lon="9.200381264090538">
<ele>456.2</ele>
<time>2024-05-10T15:45:38Z</time>
</trkpt>
<trkpt lat="49.51877972111106" lon="9.200461311265826">
<ele>456</ele>
<time>2024-05-10T15:45:39Z</time>
</trkpt>
<trkpt lat="49.51881023123861" lon="9.200541442260146">
<ele>455.8</ele>
<time>2024-05-10T15:45:40Z</time>
</trkpt>
<trkpt lat="49.51884459704161" lon="9.200623501092196">
<ele>455.6</ele>
<time>2024-05-10T15:45:41Z</time>
</trkpt>
<trkpt lat="49.51887510716915" lon="9.200703548267484">
<ele>455.4</ele>
<time>2024-05-10T15:45:42Z</time>
</trkpt>
<trkpt lat="49.51891324482858" lon="9.200781751424074">
<ele>455.2</ele>
<time>2024-05-10T15:45:43Z</time>
</trkpt>
<trkpt lat="49.51895138248801" lon="9.200856182724236">
<ele>455</ele>
<time>2024-05-10T15:45:44Z</time>
</trkpt>
<trkpt lat="49.51899714767933" lon="9.200924830511212">
<ele>454.8</ele>
<time>2024-05-10T15:45:45Z</time>
</trkpt>
<trkpt lat="49.519042912870646" lon="9.20098970644176">
<ele>454.8</ele>
<time>2024-05-10T15:45:46Z</time>
</trkpt>
<trkpt lat="49.51908867806196" lon="9.201051648706198">
<ele>454.6</ele>
<time>2024-05-10T15:45:47Z</time>
</trkpt>
<trkpt lat="49.51913829892874" lon="9.201109819114208">
<ele>454.4</ele>
<time>2024-05-10T15:45:48Z</time>
</trkpt>
<trkpt lat="49.51918791979551" lon="9.20116798952222">
<ele>454.2</ele>
<time>2024-05-10T15:45:49Z</time>
</trkpt>
<trkpt lat="49.51923745684326" lon="9.201221466064451">
<ele>454.2</ele>
<time>2024-05-10T15:45:50Z</time>
</trkpt>
<trkpt lat="49.519283222034574" lon="9.201272008940578">
<ele>454</ele>
<time>2024-05-10T15:45:51Z</time>
</trkpt>
<trkpt lat="49.51932521536946" lon="9.20132347382605">
<ele>453.8</ele>
<time>2024-05-10T15:45:52Z</time>
</trkpt>
<trkpt lat="49.51936720870435" lon="9.201379716396332">
<ele>453.8</ele>
<time>2024-05-10T15:45:53Z</time>
</trkpt>
<trkpt lat="49.51940534636378" lon="9.20144367031753">
<ele>453.6</ele>
<time>2024-05-10T15:45:54Z</time>
</trkpt>
<trkpt lat="49.519439628347754" lon="9.201511312276123">
<ele>453.4</ele>
<time>2024-05-10T15:45:55Z</time>
</trkpt>
<trkpt lat="49.51946251094341" lon="9.201596220955253">
<ele>453.2</ele>
<time>2024-05-10T15:45:56Z</time>
</trkpt>
<trkpt lat="49.51947399415076" lon="9.201686829328535">
<ele>452.8</ele>
<time>2024-05-10T15:45:57Z</time>
</trkpt>
<trkpt lat="49.519477766007185" lon="9.2017802875489">
<ele>452.6</ele>
<time>2024-05-10T15:45:58Z</time>
</trkpt>
<trkpt lat="49.5194701384753" lon="9.201874667778611">
<ele>452.4</ele>
<time>2024-05-10T15:45:59Z</time>
</trkpt>
<trkpt lat="49.51946251094341" lon="9.201970053836703">
<ele>452</ele>
<time>2024-05-10T15:46:00Z</time>
</trkpt>
<trkpt lat="49.51944725587964" lon="9.202065439894795">
<ele>451.8</ele>
<time>2024-05-10T15:46:01Z</time>
</trkpt>
<trkpt lat="49.51942822895944" lon="9.202161747962236">
<ele>451.6</ele>
<time>2024-05-10T15:46:02Z</time>
</trkpt>
<trkpt lat="49.51939386315644" lon="9.2022552061826">
<ele>451.2</ele>
<time>2024-05-10T15:46:03Z</time>
</trkpt>
<trkpt lat="49.51935572549701" lon="9.202342964708803">
<ele>451</ele>
<time>2024-05-10T15:46:04Z</time>
</trkpt>
<trkpt lat="49.51931373216212" lon="9.20242971740663">
<ele>450.8</ele>
<time>2024-05-10T15:46:05Z</time>
</trkpt>
<trkpt lat="49.51927182264626" lon="9.202514626085758">
<ele>450.4</ele>
<time>2024-05-10T15:46:06Z</time>
</trkpt>
<trkpt lat="49.51922982931137" lon="9.202601378783584">
<ele>450</ele>
<time>2024-05-10T15:46:07Z</time>
</trkpt>
<trkpt lat="49.51918791979551" lon="9.202691987156868">
<ele>449.8</ele>
<time>2024-05-10T15:46:08Z</time>
</trkpt>
<trkpt lat="49.51914969831705" lon="9.202790223062038">
<ele>449.4</ele>
<time>2024-05-10T15:46:09Z</time>
</trkpt>
<trkpt lat="49.51911918818951" lon="9.202893236652017">
<ele>449.2</ele>
<time>2024-05-10T15:46:10Z</time>
</trkpt>
<trkpt lat="49.519084906205535" lon="9.202996250241997">
<ele>448.8</ele>
<time>2024-05-10T15:46:11Z</time>
</trkpt>
<trkpt lat="49.51905816793442" lon="9.20310202986002">
<ele>448.6</ele>
<time>2024-05-10T15:46:12Z</time>
</trkpt>
<trkpt lat="49.51902765780687" lon="9.203209821134806">
<ele>448.2</ele>
<time>2024-05-10T15:46:13Z</time>
</trkpt>
<trkpt lat="49.51900100335479" lon="9.20331853441894">
<ele>447.8</ele>
<time>2024-05-10T15:46:14Z</time>
</trkpt>
<trkpt lat="49.51897040940821" lon="9.203425403684378">
<ele>447.6</ele>
<time>2024-05-10T15:46:15Z</time>
</trkpt>
<trkpt lat="49.518928499892354" lon="9.20352171175182">
<ele>447.4</ele>
<time>2024-05-10T15:46:16Z</time>
</trkpt>
<trkpt lat="49.51887887902558" lon="9.203603686764836">
<ele>447.2</ele>
<time>2024-05-10T15:46:17Z</time>
</trkpt>
<trkpt lat="49.51882171444595" lon="9.203666634857656">
<ele>447</ele>
<time>2024-05-10T15:46:18Z</time>
</trkpt>
<trkpt lat="49.51876061037183" lon="9.203704772517083">
<ele>446.8</ele>
<time>2024-05-10T15:46:19Z</time>
</trkpt>
<trkpt lat="49.51869959011674" lon="9.20373628847301">
<ele>446.6</ele>
<time>2024-05-10T15:46:20Z</time>
</trkpt>
<trkpt lat="49.51863856986165" lon="9.203764870762823">
<ele>446.4</ele>
<time>2024-05-10T15:46:21Z</time>
</trkpt>
<trkpt lat="49.51858517713845" lon="9.203788675367832">
<ele>446.4</ele>
<time>2024-05-10T15:46:22Z</time>
</trkpt>
<trkpt lat="49.51853555627167" lon="9.203811641782522">
<ele>446.2</ele>
<time>2024-05-10T15:46:23Z</time>
</trkpt>
<trkpt lat="49.51848601922393" lon="9.2038335185498">
<ele>446</ele>
<time>2024-05-10T15:46:24Z</time>
</trkpt>
<trkpt lat="49.51844017021358" lon="9.20385355129838">
<ele>445.8</ele>
<time>2024-05-10T15:46:25Z</time>
</trkpt>
<trkpt lat="49.51839440502226" lon="9.203861178830266">
<ele>445.6</ele>
<time>2024-05-10T15:46:26Z</time>
</trkpt>
<trkpt lat="49.51834863983095" lon="9.203869812190533">
<ele>445.4</ele>
<time>2024-05-10T15:46:27Z</time>
</trkpt>
<trkpt lat="49.51831050217152" lon="9.203878361731768">
<ele>445.2</ele>
<time>2024-05-10T15:46:28Z</time>
</trkpt>
<trkpt lat="49.51827613636851" lon="9.203887917101383">
<ele>445</ele>
<time>2024-05-10T15:46:29Z</time>
</trkpt>
<trkpt lat="49.51824185438454" lon="9.203901244327426">
<ele>444.8</ele>
<time>2024-05-10T15:46:30Z</time>
</trkpt>
<trkpt lat="49.51820748858154" lon="9.203920355066655">
<ele>444.8</ele>
<time>2024-05-10T15:46:31Z</time>
</trkpt>
<trkpt lat="49.51818460598588" lon="9.203945081681011">
<ele>444.6</ele>
<time>2024-05-10T15:46:32Z</time>
</trkpt>
<trkpt lat="49.51816557906568" lon="9.203976597636938">
<ele>444.4</ele>
<time>2024-05-10T15:46:33Z</time>
</trkpt>
<trkpt lat="49.51815032400191" lon="9.20401280745864">
<ele>444.4</ele>
<time>2024-05-10T15:46:34Z</time>
</trkpt>
<trkpt lat="49.51814269647002" lon="9.2040528729558">
<ele>444.2</ele>
<time>2024-05-10T15:46:35Z</time>
</trkpt>
<trkpt lat="49.518135068938136" lon="9.204094866290689">
<ele>444.2</ele>
<time>2024-05-10T15:46:36Z</time>
</trkpt>
<trkpt lat="49.51813121326268" lon="9.204139709472656">
<ele>444.2</ele>
<time>2024-05-10T15:46:37Z</time>
</trkpt>
<trkpt lat="49.51813121326268" lon="9.204184468835592">
<ele>444.2</ele>
<time>2024-05-10T15:46:38Z</time>
</trkpt>
<trkpt lat="49.51812358573079" lon="9.204230234026909">
<ele>444.4</ele>
<time>2024-05-10T15:46:39Z</time>
</trkpt>
<trkpt lat="49.51811973005533" lon="9.204277927055957">
<ele>444.4</ele>
<time>2024-05-10T15:46:40Z</time>
</trkpt>
<trkpt lat="49.51810070313513" lon="9.204321848228574">
<ele>444.6</ele>
<time>2024-05-10T15:46:41Z</time>
</trkpt>
<trkpt lat="49.51807019300759" lon="9.204357136040926">
<ele>444.6</ele>
<time>2024-05-10T15:46:42Z</time>
</trkpt>
<trkpt lat="49.518035827204585" lon="9.204382868483664">
<ele>444.8</ele>
<time>2024-05-10T15:46:43Z</time>
</trkpt>
<trkpt lat="49.51800154522061" lon="9.2044086009264">
<ele>444.8</ele>
<time>2024-05-10T15:46:44Z</time>
</trkpt>
<trkpt lat="49.51796340756118" lon="9.204431483522058">
<ele>445</ele>
<time>2024-05-10T15:46:45Z</time>
</trkpt>
<trkpt lat="49.51792904175818" lon="9.204456293955444">
<ele>445</ele>
<time>2024-05-10T15:46:46Z</time>
</trkpt>
<trkpt lat="49.51789090409875" lon="9.20448680408299">
<ele>445</ele>
<time>2024-05-10T15:46:47Z</time>
</trkpt>
<trkpt lat="49.51785276643932" lon="9.204518236219885">
<ele>445.2</ele>
<time>2024-05-10T15:46:48Z</time>
</trkpt>
<trkpt lat="49.51781077310443" lon="9.204547824338078">
<ele>445.2</ele>
<time>2024-05-10T15:46:49Z</time>
</trkpt>
<trkpt lat="49.517772635445" lon="9.204578334465625">
<ele>445.2</ele>
<time>2024-05-10T15:46:50Z</time>
</trkpt>
<trkpt lat="49.51773449778557" lon="9.204614628106356">
<ele>445.2</ele>
<time>2024-05-10T15:46:51Z</time>
</trkpt>
<trkpt lat="49.51769636012614" lon="9.204653687775137">
<ele>445.4</ele>
<time>2024-05-10T15:46:52Z</time>
</trkpt>
<trkpt lat="49.51765822246671" lon="9.204688053578138">
<ele>445.4</ele>
<time>2024-05-10T15:46:53Z</time>
</trkpt>
<trkpt lat="49.51761622913182" lon="9.204726191237569">
<ele>445.4</ele>
<time>2024-05-10T15:46:54Z</time>
</trkpt>
<trkpt lat="49.51757809147239" lon="9.204768100753428">
<ele>445.4</ele>
<time>2024-05-10T15:46:55Z</time>
</trkpt>
<trkpt lat="49.51753995381296" lon="9.204810094088316">
<ele>445.2</ele>
<time>2024-05-10T15:46:56Z</time>
</trkpt>
<trkpt lat="49.517501816153526" lon="9.204850159585476">
<ele>445.2</ele>
<time>2024-05-10T15:46:57Z</time>
</trkpt>
<trkpt lat="49.51746745035052" lon="9.204893074929714">
<ele>445.2</ele>
<time>2024-05-10T15:46:58Z</time>
</trkpt>
<trkpt lat="49.51742931269109" lon="9.204937918111682">
<ele>445</ele>
<time>2024-05-10T15:46:59Z</time>
</trkpt>
<trkpt lat="49.51739494688809" lon="9.204984605312347">
<ele>445</ele>
<time>2024-05-10T15:47:00Z</time>
</trkpt>
<trkpt lat="49.51735680922866" lon="9.205033220350742">
<ele>444.8</ele>
<time>2024-05-10T15:47:01Z</time>
</trkpt>
<trkpt lat="49.51731867156923" lon="9.20507806353271">
<ele>444.8</ele>
<time>2024-05-10T15:47:02Z</time>
</trkpt>
<trkpt lat="49.51728438958526" lon="9.205121984705327">
<ele>444.8</ele>
<time>2024-05-10T15:47:03Z</time>
</trkpt>
<trkpt lat="49.51725002378225" lon="9.205168671905994">
<ele>444.8</ele>
<time>2024-05-10T15:47:04Z</time>
</trkpt>
<trkpt lat="49.51721188612282" lon="9.205211587250233">
<ele>444.6</ele>
<time>2024-05-10T15:47:05Z</time>
</trkpt>
<trkpt lat="49.51717374846339" lon="9.205260202288628">
<ele>444.6</ele>
<time>2024-05-10T15:47:06Z</time>
</trkpt>
<trkpt lat="49.5171317551285" lon="9.205301273614168">
<ele>444.6</ele>
<time>2024-05-10T15:47:07Z</time>
</trkpt>
<trkpt lat="49.51709747314453" lon="9.205343183130026">
<ele>444.6</ele>
<time>2024-05-10T15:47:08Z</time>
</trkpt>
<trkpt lat="49.51706310734153" lon="9.205389954149725">
<ele>444.6</ele>
<time>2024-05-10T15:47:09Z</time>
</trkpt>
<trkpt lat="49.5170249696821" lon="9.205438569188118">
<ele>444.6</ele>
<time>2024-05-10T15:47:10Z</time>
</trkpt>
<trkpt lat="49.516990603879094" lon="9.205483412370086">
<ele>444.6</ele>
<time>2024-05-10T15:47:11Z</time>
</trkpt>
<trkpt lat="49.51695632189512" lon="9.205528255552052">
<ele>444.4</ele>
<time>2024-05-10T15:47:12Z</time>
</trkpt>
<trkpt lat="49.51692195609212" lon="9.205570165067911">
<ele>444.4</ele>
<time>2024-05-10T15:47:13Z</time>
</trkpt>
<trkpt lat="49.516895217821" lon="9.20561115257442">
<ele>444.2</ele>
<time>2024-05-10T15:47:14Z</time>
</trkpt>
<trkpt lat="49.51686856336892" lon="9.205650296062233">
<ele>444.2</ele>
<time>2024-05-10T15:47:15Z</time>
</trkpt>
<trkpt lat="49.51683805324137" lon="9.205686505883932">
<ele>444</ele>
<time>2024-05-10T15:47:16Z</time>
</trkpt>
<trkpt lat="49.516815170645714" lon="9.205730427056553">
<ele>443.8</ele>
<time>2024-05-10T15:47:17Z</time>
</trkpt>
<trkpt lat="49.51678466051817" lon="9.205782813951371">
<ele>443.8</ele>
<time>2024-05-10T15:47:18Z</time>
</trkpt>
<trkpt lat="49.516750294715166" lon="9.205841990187764">
<ele>443.6</ele>
<time>2024-05-10T15:47:19Z</time>
</trkpt>
<trkpt lat="49.51671978458762" lon="9.205903010442851">
<ele>443.4</ele>
<time>2024-05-10T15:47:20Z</time>
</trkpt>
<trkpt lat="49.51668927446008" lon="9.205965036526322">
<ele>443.2</ele>
<time>2024-05-10T15:47:21Z</time>
</trkpt>
<trkpt lat="49.51665876433253" lon="9.206034606322646">
<ele>443.2</ele>
<time>2024-05-10T15:47:22Z</time>
</trkpt>
<trkpt lat="49.51664350926876" lon="9.206109959632158">
<ele>443.2</ele>
<time>2024-05-10T15:47:23Z</time>
</trkpt>
<trkpt lat="49.5166396535933" lon="9.206188162788749">
<ele>443</ele>
<time>2024-05-10T15:47:24Z</time>
</trkpt>
<trkpt lat="49.516635881736875" lon="9.20626544393599">
<ele>443</ele>
<time>2024-05-10T15:47:25Z</time>
</trkpt>
<trkpt lat="49.516632026061416" lon="9.206333085894585">
<ele>443</ele>
<time>2024-05-10T15:47:26Z</time>
</trkpt>
<trkpt lat="49.51662825420499" lon="9.206388406455517">
<ele>443</ele>
<time>2024-05-10T15:47:27Z</time>
</trkpt>
<trkpt lat="49.5166206266731" lon="9.206438027322292">
<ele>443</ele>
<time>2024-05-10T15:47:28Z</time>
</trkpt>
<trkpt lat="49.51660914346576" lon="9.206489492207766">
<ele>443.2</ele>
<time>2024-05-10T15:47:29Z</time>
</trkpt>
<trkpt lat="49.51660151593387" lon="9.20654296875">
<ele>443.4</ele>
<time>2024-05-10T15:47:30Z</time>
</trkpt>
<trkpt lat="49.51659011654556" lon="9.2065982054919">
<ele>443.8</ele>
<time>2024-05-10T15:47:31Z</time>
</trkpt>
<trkpt lat="49.51657100580633" lon="9.206653526052833">
<ele>444</ele>
<time>2024-05-10T15:47:32Z</time>
</trkpt>
<trkpt lat="49.51656337827444" lon="9.206711696460845">
<ele>444.2</ele>
<time>2024-05-10T15:47:33Z</time>
</trkpt>
<trkpt lat="49.516555750742555" lon="9.206769866868854">
<ele>444.6</ele>
<time>2024-05-10T15:47:34Z</time>
</trkpt>
<trkpt lat="49.51654426753521" lon="9.206826193258166">
<ele>445</ele>
<time>2024-05-10T15:47:35Z</time>
</trkpt>
<trkpt lat="49.516532868146896" lon="9.206888135522604">
<ele>445.4</ele>
<time>2024-05-10T15:47:36Z</time>
</trkpt>
<trkpt lat="49.51651761308312" lon="9.206948233768344">
<ele>445.8</ele>
<time>2024-05-10T15:47:37Z</time>
</trkpt>
<trkpt lat="49.51650612987578" lon="9.207011181861162">
<ele>446.4</ele>
<time>2024-05-10T15:47:38Z</time>
</trkpt>
<trkpt lat="49.516494730487466" lon="9.20707505196333">
<ele>446.8</ele>
<time>2024-05-10T15:47:39Z</time>
</trkpt>
<trkpt lat="49.51648324728012" lon="9.207139927893875">
<ele>447.2</ele>
<time>2024-05-10T15:47:40Z</time>
</trkpt>
<trkpt lat="49.516475619748235" lon="9.207204803824425">
<ele>447.6</ele>
<time>2024-05-10T15:47:41Z</time>
</trkpt>
<trkpt lat="49.51647184789181" lon="9.207268673926592">
<ele>448</ele>
<time>2024-05-10T15:47:42Z</time>
</trkpt>
<trkpt lat="49.51647184789181" lon="9.20733354985714">
<ele>448.2</ele>
<time>2024-05-10T15:47:43Z</time>
</trkpt>
<trkpt lat="49.516475619748235" lon="9.207396497949958">
<ele>448.6</ele>
<time>2024-05-10T15:47:44Z</time>
</trkpt>
<trkpt lat="49.51648324728012" lon="9.207453662529588">
<ele>448.8</ele>
<time>2024-05-10T15:47:45Z</time>
</trkpt>
<trkpt lat="49.51648710295558" lon="9.2075099889189">
<ele>449.2</ele>
<time>2024-05-10T15:47:46Z</time>
</trkpt>
<trkpt lat="49.516494730487466" lon="9.2075652256608">
<ele>449.4</ele>
<time>2024-05-10T15:47:47Z</time>
</trkpt>
<trkpt lat="49.51650235801935" lon="9.207616774365306">
<ele>449.8</ele>
<time>2024-05-10T15:47:48Z</time>
</trkpt>
<trkpt lat="49.51650612987578" lon="9.207661617547274">
<ele>450</ele>
<time>2024-05-10T15:47:49Z</time>
</trkpt>
<trkpt lat="49.516513757407665" lon="9.207701683044434">
<ele>450.4</ele>
<time>2024-05-10T15:47:50Z</time>
</trkpt>
<trkpt lat="49.51651761308312" lon="9.20774644240737">
<ele>450.8</ele>
<time>2024-05-10T15:47:51Z</time>
</trkpt>
<trkpt lat="49.51652524061501" lon="9.207793213427069">
<ele>451.2</ele>
<time>2024-05-10T15:47:52Z</time>
</trkpt>
<trkpt lat="49.51652901247144" lon="9.207843756303191">
<ele>451.4</ele>
<time>2024-05-10T15:47:53Z</time>
</trkpt>
<trkpt lat="49.51652901247144" lon="9.207896227017043">
<ele>451.6</ele>
<time>2024-05-10T15:47:54Z</time>
</trkpt>
<trkpt lat="49.51652524061501" lon="9.207949619740248">
<ele>452</ele>
<time>2024-05-10T15:47:55Z</time>
</trkpt>
<trkpt lat="49.51652138493955" lon="9.20800301246345">
<ele>452.2</ele>
<time>2024-05-10T15:47:56Z</time>
</trkpt>
<trkpt lat="49.516513757407665" lon="9.208056405186651">
<ele>452.6</ele>
<time>2024-05-10T15:47:57Z</time>
</trkpt>
<trkpt lat="49.51650612987578" lon="9.208109797909856">
<ele>452.8</ele>
<time>2024-05-10T15:47:58Z</time>
</trkpt>
<trkpt lat="49.51649850234389" lon="9.20816319063306">
<ele>453</ele>
<time>2024-05-10T15:47:59Z</time>
</trkpt>
<trkpt lat="49.51649087481201" lon="9.208214739337564">
<ele>453.2</ele>
<time>2024-05-10T15:48:00Z</time>
</trkpt>
<trkpt lat="49.51648324728012" lon="9.208268132060766">
<ele>453.6</ele>
<time>2024-05-10T15:48:01Z</time>
</trkpt>
<trkpt lat="49.516475619748235" lon="9.208321524783967">
<ele>453.8</ele>
<time>2024-05-10T15:48:02Z</time>
</trkpt>
<trkpt lat="49.51647184789181" lon="9.208374917507172">
<ele>453.8</ele>
<time>2024-05-10T15:48:03Z</time>
</trkpt>
<trkpt lat="49.51646036468446" lon="9.208431243896484">
<ele>454</ele>
<time>2024-05-10T15:48:04Z</time>
</trkpt>
<trkpt lat="49.516452737152576" lon="9.208486480638385">
<ele>454.2</ele>
<time>2024-05-10T15:48:05Z</time>
</trkpt>
<trkpt lat="49.51644510962069" lon="9.20853995718062">
<ele>454.4</ele>
<time>2024-05-10T15:48:06Z</time>
</trkpt>
<trkpt lat="49.5164374820888" lon="9.2085961997509">
<ele>454.6</ele>
<time>2024-05-10T15:48:07Z</time>
</trkpt>
<trkpt lat="49.51642985455692" lon="9.208653448149562">
<ele>454.8</ele>
<time>2024-05-10T15:48:08Z</time>
</trkpt>
<trkpt lat="49.51642222702503" lon="9.208708684891462">
<ele>455</ele>
<time>2024-05-10T15:48:09Z</time>
</trkpt>
<trkpt lat="49.516418455168605" lon="9.208763083443046">
<ele>455.2</ele>
<time>2024-05-10T15:48:10Z</time>
</trkpt>
<trkpt lat="49.51641082763672" lon="9.20881454832852">
<ele>455.4</ele>
<time>2024-05-10T15:48:11Z</time>
</trkpt>
<trkpt lat="49.5164031162858" lon="9.208868024870752">
<ele>455.6</ele>
<time>2024-05-10T15:48:12Z</time>
</trkpt>
<trkpt lat="49.516399344429374" lon="9.208921417593956">
<ele>455.8</ele>
<time>2024-05-10T15:48:13Z</time>
</trkpt>
<trkpt lat="49.516395488753915" lon="9.20897288247943">
<ele>455.8</ele>
<time>2024-05-10T15:48:14Z</time>
</trkpt>
<trkpt lat="49.51639171689749" lon="9.209026275202632">
<ele>456</ele>
<time>2024-05-10T15:48:15Z</time>
</trkpt>
<trkpt lat="49.51638786122203" lon="9.209078745916486">
<ele>456</ele>
<time>2024-05-10T15:48:16Z</time>
</trkpt>
<trkpt lat="49.5163840893656" lon="9.20913021080196">
<ele>456.2</ele>
<time>2024-05-10T15:48:17Z</time>
</trkpt>
<trkpt lat="49.5163840893656" lon="9.209179831668736">
<ele>456.2</ele>
<time>2024-05-10T15:48:18Z</time>
</trkpt>
<trkpt lat="49.5163840893656" lon="9.209233224391935">
<ele>456.4</ele>
<time>2024-05-10T15:48:19Z</time>
</trkpt>
<trkpt lat="49.51638786122203" lon="9.20928661711514">
<ele>456.4</ele>
<time>2024-05-10T15:48:20Z</time>
</trkpt>
<trkpt lat="49.51639171689749" lon="9.209340093657374">
<ele>456.6</ele>
<time>2024-05-10T15:48:21Z</time>
</trkpt>
<trkpt lat="49.51639171689749" lon="9.20938870869577">
<ele>456.8</ele>
<time>2024-05-10T15:48:22Z</time>
</trkpt>
<trkpt lat="49.516395488753915" lon="9.209440173581244">
<ele>456.8</ele>
<time>2024-05-10T15:48:23Z</time>
</trkpt>
<trkpt lat="49.516399344429374" lon="9.209493566304443">
<ele>457</ele>
<time>2024-05-10T15:48:24Z</time>
</trkpt>
<trkpt lat="49.516399344429374" lon="9.20954704284668">
<ele>457</ele>
<time>2024-05-10T15:48:25Z</time>
</trkpt>
<trkpt lat="49.5164031162858" lon="9.20960328541696">
<ele>457</ele>
<time>2024-05-10T15:48:26Z</time>
</trkpt>
<trkpt lat="49.5164031162858" lon="9.209656678140163">
<ele>457.2</ele>
<time>2024-05-10T15:48:27Z</time>
</trkpt>
<trkpt lat="49.5164031162858" lon="9.209712920710444">
<ele>457.2</ele>
<time>2024-05-10T15:48:28Z</time>
</trkpt>
<trkpt lat="49.5164031162858" lon="9.209770169109106">
<ele>457.2</ele>
<time>2024-05-10T15:48:29Z</time>
</trkpt>
<trkpt lat="49.51640697196126" lon="9.209826411679389">
<ele>457.4</ele>
<time>2024-05-10T15:48:30Z</time>
</trkpt>
<trkpt lat="49.51640697196126" lon="9.20988173224032">
<ele>457.6</ele>
<time>2024-05-10T15:48:31Z</time>
</trkpt>
<trkpt lat="49.51641082763672" lon="9.209935124963522">
<ele>457.6</ele>
<time>2024-05-10T15:48:32Z</time>
</trkpt>
<trkpt lat="49.516414599493146" lon="9.209988517686725">
<ele>457.8</ele>
<time>2024-05-10T15:48:33Z</time>
</trkpt>
<trkpt lat="49.516418455168605" lon="9.210042916238308">
<ele>458</ele>
<time>2024-05-10T15:48:34Z</time>
</trkpt>
<trkpt lat="49.516418455168605" lon="9.21009630896151">
<ele>458.2</ele>
<time>2024-05-10T15:48:35Z</time>
</trkpt>
<trkpt lat="49.516418455168605" lon="9.210147857666016">
<ele>458.4</ele>
<time>2024-05-10T15:48:36Z</time>
</trkpt>
<trkpt lat="49.516414599493146" lon="9.210200244560838">
<ele>458.6</ele>
<time>2024-05-10T15:48:37Z</time>
</trkpt>
<trkpt lat="49.516414599493146" lon="9.210249865427611">
<ele>458.8</ele>
<time>2024-05-10T15:48:38Z</time>
</trkpt>
<trkpt lat="49.51641082763672" lon="9.210300408303738">
<ele>459.2</ele>
<time>2024-05-10T15:48:39Z</time>
</trkpt>
<trkpt lat="49.51640697196126" lon="9.210348101332784">
<ele>459.4</ele>
<time>2024-05-10T15:48:40Z</time>
</trkpt>
<trkpt lat="49.5164031162858" lon="9.210398644208908">
<ele>459.8</ele>
<time>2024-05-10T15:48:41Z</time>
</trkpt>
<trkpt lat="49.516395488753915" lon="9.21045010909438">
<ele>460</ele>
<time>2024-05-10T15:48:42Z</time>
</trkpt>
<trkpt lat="49.51638786122203" lon="9.210506435483694">
<ele>460.2</ele>
<time>2024-05-10T15:48:43Z</time>
</trkpt>
<trkpt lat="49.51638023369014" lon="9.210559828206897">
<ele>460.2</ele>
<time>2024-05-10T15:48:44Z</time>
</trkpt>
<trkpt lat="49.51637260615826" lon="9.210615148767827">
<ele>460.4</ele>
<time>2024-05-10T15:48:45Z</time>
</trkpt>
<trkpt lat="49.51636497862637" lon="9.21067139133811">
<ele>460.4</ele>
<time>2024-05-10T15:48:46Z</time>
</trkpt>
<trkpt lat="49.51635735109448" lon="9.21072956174612">
<ele>460.6</ele>
<time>2024-05-10T15:48:47Z</time>
</trkpt>
<trkpt lat="49.5163497235626" lon="9.21078865416348">
<ele>460.6</ele>
<time>2024-05-10T15:48:48Z</time>
</trkpt>
<trkpt lat="49.516338324174285" lon="9.21084783039987">
<ele>460.8</ele>
<time>2024-05-10T15:48:49Z</time>
</trkpt>
<trkpt lat="49.51632684096694" lon="9.210911700502038">
<ele>461</ele>
<time>2024-05-10T15:48:50Z</time>
</trkpt>
<trkpt lat="49.516319213435054" lon="9.210974648594856">
<ele>461</ele>
<time>2024-05-10T15:48:51Z</time>
</trkpt>
<trkpt lat="49.51631158590317" lon="9.211036674678326">
<ele>461.2</ele>
<time>2024-05-10T15:48:52Z</time>
</trkpt>
<trkpt lat="49.516300186514854" lon="9.211098616942763">
<ele>461.2</ele>
<time>2024-05-10T15:48:53Z</time>
</trkpt>
<trkpt lat="49.51628870330751" lon="9.211161565035582">
<ele>461.2</ele>
<time>2024-05-10T15:48:54Z</time>
</trkpt>
<trkpt lat="49.5162773039192" lon="9.21122644096613">
<ele>461.2</ele>
<time>2024-05-10T15:48:55Z</time>
</trkpt>
<trkpt lat="49.51626582071185" lon="9.211297016590834">
<ele>461</ele>
<time>2024-05-10T15:48:56Z</time>
</trkpt>
<trkpt lat="49.51625056564808" lon="9.211368514224889">
<ele>461</ele>
<time>2024-05-10T15:48:57Z</time>
</trkpt>
<trkpt lat="49.51623531058431" lon="9.21144001185894">
<ele>461</ele>
<time>2024-05-10T15:48:58Z</time>
</trkpt>
<trkpt lat="49.516220055520535" lon="9.211513437330725">
<ele>461</ele>
<time>2024-05-10T15:48:59Z</time>
</trkpt>
<trkpt lat="49.5162009447813" lon="9.211589796468616">
<ele>460.8</ele>
<time>2024-05-10T15:49:00Z</time>
</trkpt>
<trkpt lat="49.51618568971753" lon="9.211666993796824">
<ele>460.8</ele>
<time>2024-05-10T15:49:01Z</time>
</trkpt>
<trkpt lat="49.51617043465376" lon="9.21173949725926">
<ele>460.6</ele>
<time>2024-05-10T15:49:02Z</time>
</trkpt>
<trkpt lat="49.51615517958999" lon="9.211806217208505">
<ele>460.4</ele>
<time>2024-05-10T15:49:03Z</time>
</trkpt>
<trkpt lat="49.5161475520581" lon="9.21187972649932">
<ele>460.2</ele>
<time>2024-05-10T15:49:04Z</time>
</trkpt>
<trkpt lat="49.51614378020167" lon="9.2119549959898">
<ele>460.2</ele>
<time>2024-05-10T15:49:05Z</time>
</trkpt>
<trkpt lat="49.51613615266979" lon="9.212030349299312">
<ele>460</ele>
<time>2024-05-10T15:49:06Z</time>
</trkpt>
<trkpt lat="49.51613229699433" lon="9.212102852761744">
<ele>460</ele>
<time>2024-05-10T15:49:07Z</time>
</trkpt>
<trkpt lat="49.5161285251379" lon="9.21217342838645">
<ele>459.8</ele>
<time>2024-05-10T15:49:08Z</time>
</trkpt>
<trkpt lat="49.51612466946244" lon="9.212244926020505">
<ele>459.8</ele>
<time>2024-05-10T15:49:09Z</time>
</trkpt>
<trkpt lat="49.516120897606015" lon="9.212316507473588">
<ele>459.8</ele>
<time>2024-05-10T15:49:10Z</time>
</trkpt>
<trkpt lat="49.51611704193056" lon="9.21238800510764">
<ele>459.8</ele>
<time>2024-05-10T15:49:11Z</time>
</trkpt>
<trkpt lat="49.51611327007413" lon="9.212461430579424">
<ele>459.8</ele>
<time>2024-05-10T15:49:12Z</time>
</trkpt>
<trkpt lat="49.51611327007413" lon="9.212534856051208">
<ele>459.6</ele>
<time>2024-05-10T15:49:13Z</time>
</trkpt>
<trkpt lat="49.51610941439867" lon="9.21260828152299">
<ele>459.6</ele>
<time>2024-05-10T15:49:14Z</time>
</trkpt>
<trkpt lat="49.51610564254224" lon="9.212681706994772">
<ele>459.6</ele>
<time>2024-05-10T15:49:15Z</time>
</trkpt>
<trkpt lat="49.516101786866784" lon="9.212753288447855">
<ele>459.4</ele>
<time>2024-05-10T15:49:16Z</time>
</trkpt>
<trkpt lat="49.516101786866784" lon="9.21282671391964">
<ele>459.2</ele>
<time>2024-05-10T15:49:17Z</time>
</trkpt>
<trkpt lat="49.516101786866784" lon="9.212902067229152">
<ele>459</ele>
<time>2024-05-10T15:49:18Z</time>
</trkpt>
<trkpt lat="49.51610564254224" lon="9.212974486872554">
<ele>458.8</ele>
<time>2024-05-10T15:49:19Z</time>
</trkpt>
<trkpt lat="49.51610941439867" lon="9.213049840182066">
<ele>458.8</ele>
<time>2024-05-10T15:49:20Z</time>
</trkpt>
<trkpt lat="49.51611327007413" lon="9.213125193491578">
<ele>458.6</ele>
<time>2024-05-10T15:49:21Z</time>
</trkpt>
<trkpt lat="49.51611327007413" lon="9.21319954097271">
<ele>458.6</ele>
<time>2024-05-10T15:49:22Z</time>
</trkpt>
<trkpt lat="49.51611704193056" lon="9.213272966444492">
<ele>458.4</ele>
<time>2024-05-10T15:49:23Z</time>
</trkpt>
<trkpt lat="49.51612466946244" lon="9.213344547897576">
<ele>458.2</ele>
<time>2024-05-10T15:49:24Z</time>
</trkpt>
<trkpt lat="49.51613229699433" lon="9.213413195684552">
<ele>458.2</ele>
<time>2024-05-10T15:49:25Z</time>
</trkpt>
<trkpt lat="49.516139924526215" lon="9.213481843471529">
<ele>458</ele>
<time>2024-05-10T15:49:26Z</time>
</trkpt>
<trkpt lat="49.51615140773356" lon="9.213549569249151">
<ele>457.8</ele>
<time>2024-05-10T15:49:27Z</time>
</trkpt>
<trkpt lat="49.51615517958999" lon="9.213622072711589">
<ele>457.6</ele>
<time>2024-05-10T15:49:28Z</time>
</trkpt>
<trkpt lat="49.516159035265446" lon="9.21369164250791">
<ele>457.6</ele>
<time>2024-05-10T15:49:29Z</time>
</trkpt>
<trkpt lat="49.51615140773356" lon="9.213761296123266">
<ele>457.4</ele>
<time>2024-05-10T15:49:30Z</time>
</trkpt>
<trkpt lat="49.5161285251379" lon="9.21383279375732">
<ele>457.4</ele>
<time>2024-05-10T15:49:31Z</time>
</trkpt>
<trkpt lat="49.51609801501036" lon="9.213901441544294">
<ele>457.2</ele>
<time>2024-05-10T15:49:32Z</time>
</trkpt>
<trkpt lat="49.516063649207354" lon="9.213972017169">
<ele>457.2</ele>
<time>2024-05-10T15:49:33Z</time>
</trkpt>
<trkpt lat="49.51602551154792" lon="9.214044520631433">
<ele>457</ele>
<time>2024-05-10T15:49:34Z</time>
</trkpt>
<trkpt lat="49.51599114574492" lon="9.214117946103215">
<ele>457</ele>
<time>2024-05-10T15:49:35Z</time>
</trkpt>
<trkpt lat="49.51595300808549" lon="9.214195227250457">
<ele>456.8</ele>
<time>2024-05-10T15:49:36Z</time>
</trkpt>
<trkpt lat="49.51591487042606" lon="9.214273430407047">
<ele>456.6</ele>
<time>2024-05-10T15:49:37Z</time>
</trkpt>
<trkpt lat="49.51587673276663" lon="9.214349705725908">
<ele>456.6</ele>
<time>2024-05-10T15:49:38Z</time>
</trkpt>
<trkpt lat="49.515842366963625" lon="9.2144279088825">
<ele>456.4</ele>
<time>2024-05-10T15:49:39Z</time>
</trkpt>
<trkpt lat="49.51581185683608" lon="9.21450326219201">
<ele>456.2</ele>
<time>2024-05-10T15:49:40Z</time>
</trkpt>
<trkpt lat="49.51577757485211" lon="9.214578615501525">
<ele>456.2</ele>
<time>2024-05-10T15:49:41Z</time>
</trkpt>
<trkpt lat="49.515743209049106" lon="9.214656818658112">
<ele>456</ele>
<time>2024-05-10T15:49:42Z</time>
</trkpt>
<trkpt lat="49.51571269892156" lon="9.214735021814704">
<ele>455.8</ele>
<time>2024-05-10T15:49:43Z</time>
</trkpt>
<trkpt lat="49.51568596065045" lon="9.214813224971294">
<ele>455.6</ele>
<time>2024-05-10T15:49:44Z</time>
</trkpt>
<trkpt lat="49.5156554505229" lon="9.214893272146584">
<ele>455.6</ele>
<time>2024-05-10T15:49:45Z</time>
</trkpt>
<trkpt lat="49.515624940395355" lon="9.214975330978632">
<ele>455.2</ele>
<time>2024-05-10T15:49:46Z</time>
</trkpt>
<trkpt lat="49.51559828594327" lon="9.2150563839823">
<ele>455</ele>
<time>2024-05-10T15:49:47Z</time>
</trkpt>
<trkpt lat="49.515567775815725" lon="9.215134587138891">
<ele>454.6</ele>
<time>2024-05-10T15:49:48Z</time>
</trkpt>
<trkpt lat="49.51554103754461" lon="9.215214718133211">
<ele>454.4</ele>
<time>2024-05-10T15:49:49Z</time>
</trkpt>
<trkpt lat="49.51551429927349" lon="9.215298620983958">
<ele>454.4</ele>
<time>2024-05-10T15:49:50Z</time>
</trkpt>
<trkpt lat="49.515487644821405" lon="9.215376824140549">
<ele>454.4</ele>
<time>2024-05-10T15:49:51Z</time>
</trkpt>
<trkpt lat="49.51545713469386" lon="9.215456955134869">
<ele>454.4</ele>
<time>2024-05-10T15:49:52Z</time>
</trkpt>
<trkpt lat="49.5154342520982" lon="9.215537002310157">
<ele>454.4</ele>
<time>2024-05-10T15:49:53Z</time>
</trkpt>
<trkpt lat="49.515407513827085" lon="9.215615205466747">
<ele>454.4</ele>
<time>2024-05-10T15:49:54Z</time>
</trkpt>
<trkpt lat="49.51538463123143" lon="9.215693408623338">
<ele>454.4</ele>
<time>2024-05-10T15:49:55Z</time>
</trkpt>
<trkpt lat="49.51536174863577" lon="9.21576976776123">
<ele>454.4</ele>
<time>2024-05-10T15:49:56Z</time>
</trkpt>
<trkpt lat="49.51534263789654" lon="9.21584981493652">
<ele>454.4</ele>
<time>2024-05-10T15:49:57Z</time>
</trkpt>
<trkpt lat="49.515327382832766" lon="9.215933717787266">
<ele>454.4</ele>
<time>2024-05-10T15:49:58Z</time>
</trkpt>
<trkpt lat="49.51531598344445" lon="9.216018626466392">
<ele>454.6</ele>
<time>2024-05-10T15:49:59Z</time>
</trkpt>
<trkpt lat="49.51531212776899" lon="9.216098757460712">
<ele>454.6</ele>
<time>2024-05-10T15:50:00Z</time>
</trkpt>
<trkpt lat="49.51531598344445" lon="9.216176960617304">
<ele>454.8</ele>
<time>2024-05-10T15:50:01Z</time>
</trkpt>
<trkpt lat="49.51531975530088" lon="9.216251308098435">
<ele>454.8</ele>
<time>2024-05-10T15:50:02Z</time>
</trkpt>
<trkpt lat="49.515331238508224" lon="9.21632188372314">
<ele>455</ele>
<time>2024-05-10T15:50:03Z</time>
</trkpt>
<trkpt lat="49.51533886604011" lon="9.216386759653687">
<ele>455.2</ele>
<time>2024-05-10T15:50:04Z</time>
</trkpt>
<trkpt lat="49.51535412110388" lon="9.216448701918123">
<ele>455.4</ele>
<time>2024-05-10T15:50:05Z</time>
</trkpt>
<trkpt lat="49.51537314802408" lon="9.216503100469708">
<ele>455.6</ele>
<time>2024-05-10T15:50:06Z</time>
</trkpt>
<trkpt lat="49.5153998862952" lon="9.21656034886837">
<ele>456</ele>
<time>2024-05-10T15:50:07Z</time>
</trkpt>
<trkpt lat="49.51542662456632" lon="9.216614663600922">
<ele>456.2</ele>
<time>2024-05-10T15:50:08Z</time>
</trkpt>
<trkpt lat="49.5154532790184" lon="9.216668056324124">
<ele>456.4</ele>
<time>2024-05-10T15:50:09Z</time>
</trkpt>
<trkpt lat="49.51548001728952" lon="9.216723376885056">
<ele>456.8</ele>
<time>2024-05-10T15:50:10Z</time>
</trkpt>
<trkpt lat="49.515510527417064" lon="9.21677492558956">
<ele>457</ele>
<time>2024-05-10T15:50:11Z</time>
</trkpt>
<trkpt lat="49.51553718186915" lon="9.216826390475036">
<ele>457.2</ele>
<time>2024-05-10T15:50:12Z</time>
</trkpt>
<trkpt lat="49.51556014828384" lon="9.216877855360508">
<ele>457.4</ele>
<time>2024-05-10T15:50:13Z</time>
</trkpt>
<trkpt lat="49.515586802735925" lon="9.216931331902742">
<ele>457.8</ele>
<time>2024-05-10T15:50:14Z</time>
</trkpt>
<trkpt lat="49.51560968533158" lon="9.216989502310753">
<ele>458</ele>
<time>2024-05-10T15:50:15Z</time>
</trkpt>
<trkpt lat="49.515628796070814" lon="9.21704951673746">
<ele>458.2</ele>
<time>2024-05-10T15:50:16Z</time>
</trkpt>
<trkpt lat="49.51564782299101" lon="9.21711347065866">
<ele>458.4</ele>
<time>2024-05-10T15:50:17Z</time>
</trkpt>
<trkpt lat="49.515663078054786" lon="9.217180190607904">
<ele>458.6</ele>
<time>2024-05-10T15:50:18Z</time>
</trkpt>
<trkpt lat="49.51568596065045" lon="9.217246994376184">
<ele>458.8</ele>
<time>2024-05-10T15:50:19Z</time>
</trkpt>
<trkpt lat="49.51569744385779" lon="9.217308014631271">
<ele>458.8</ele>
<time>2024-05-10T15:50:20Z</time>
</trkpt>
<trkpt lat="49.51571647077799" lon="9.217371884733438">
<ele>459</ele>
<time>2024-05-10T15:50:21Z</time>
</trkpt>
<trkpt lat="49.51573180966079" lon="9.217432904988527">
<ele>459.2</ele>
<time>2024-05-10T15:50:22Z</time>
</trkpt>
<trkpt lat="49.515747064724565" lon="9.217494931071997">
<ele>459.2</ele>
<time>2024-05-10T15:50:23Z</time>
</trkpt>
<trkpt lat="49.51575846411288" lon="9.217555029317737">
<ele>459.4</ele>
<time>2024-05-10T15:50:24Z</time>
</trkpt>
<trkpt lat="49.51577371917665" lon="9.217615127563477">
<ele>459.6</ele>
<time>2024-05-10T15:50:25Z</time>
</trkpt>
<trkpt lat="49.515785202383995" lon="9.217677069827914">
<ele>459.8</ele>
<time>2024-05-10T15:50:26Z</time>
</trkpt>
<trkpt lat="49.51579660177231" lon="9.217736162245274">
<ele>459.8</ele>
<time>2024-05-10T15:50:27Z</time>
</trkpt>
<trkpt lat="49.51580808497965" lon="9.217796260491014">
<ele>460</ele>
<time>2024-05-10T15:50:28Z</time>
</trkpt>
<trkpt lat="49.51581948436797" lon="9.217856358736752">
<ele>460.2</ele>
<time>2024-05-10T15:50:29Z</time>
</trkpt>
<trkpt lat="49.51583096757531" lon="9.217918384820225">
<ele>460.4</ele>
<time>2024-05-10T15:50:30Z</time>
</trkpt>
<trkpt lat="49.5158385951072" lon="9.217973705381157">
<ele>460.6</ele>
<time>2024-05-10T15:50:31Z</time>
</trkpt>
<trkpt lat="49.51584999449551" lon="9.218029947951436">
<ele>460.8</ele>
<time>2024-05-10T15:50:32Z</time>
</trkpt>
<trkpt lat="49.515861477702856" lon="9.218078562989833">
<ele>461</ele>
<time>2024-05-10T15:50:33Z</time>
</trkpt>
<trkpt lat="49.51586910523474" lon="9.218118628486993">
<ele>461.2</ele>
<time>2024-05-10T15:50:34Z</time>
</trkpt>
<trkpt lat="49.51587287709117" lon="9.21813673339784">
<ele>461.4</ele>
<time>2024-05-10T15:50:35Z</time>
</trkpt>
<trkpt lat="49.51587673276663" lon="9.21814151108265">
<ele>461.6</ele>
<time>2024-05-10T15:50:36Z</time>
</trkpt>
<trkpt lat="49.51587287709117" lon="9.21814343892038">
<ele>461.8</ele>
<time>2024-05-10T15:50:39Z</time>
</trkpt>
<trkpt lat="49.51587673276663" lon="9.21814151108265">
<ele>461.8</ele>
<time>2024-05-10T15:50:42Z</time>
</trkpt>
<trkpt lat="49.51587673276663" lon="9.21813958324492">
<ele>461.8</ele>
<time>2024-05-10T15:50:43Z</time>
</trkpt>
<trkpt lat="49.51587673276663" lon="9.218138661235573">
<ele>461.8</ele>
<time>2024-05-10T15:50:44Z</time>
</trkpt>
<trkpt lat="49.51587287709117" lon="9.21813673339784">
<ele>461.8</ele>
<time>2024-05-10T15:50:45Z</time>
</trkpt>
<trkpt lat="49.51587287709117" lon="9.218134805560112">
<ele>461.8</ele>
<time>2024-05-10T15:50:46Z</time>
</trkpt>
<trkpt lat="49.51587287709117" lon="9.218132961541414">
<ele>461.6</ele>
<time>2024-05-10T15:50:48Z</time>
</trkpt>
<trkpt lat="49.51587287709117" lon="9.218131955713034">
<ele>461.6</ele>
<time>2024-05-10T15:50:49Z</time>
</trkpt>
<trkpt lat="49.51587287709117" lon="9.218130111694336">
<ele>461.6</ele>
<time>2024-05-10T15:50:53Z</time>
</trkpt>
<trkpt lat="49.51587287709117" lon="9.218128183856606">
<ele>461.6</ele>
<time>2024-05-10T15:50:56Z</time>
</trkpt>
<trkpt lat="49.51587287709117" lon="9.218126256018875">
<ele>461.6</ele>
<time>2024-05-10T15:50:59Z</time>
</trkpt>
<trkpt lat="49.51587673276663" lon="9.218125334009528">
<ele>461.6</ele>
<time>2024-05-10T15:51:02Z</time>
</trkpt>
<trkpt lat="49.51587673276663" lon="9.2181234061718">
<ele>461.6</ele>
<time>2024-05-10T15:51:05Z</time>
</trkpt>
<trkpt lat="49.51587673276663" lon="9.21812147833407">
<ele>461.4</ele>
<time>2024-05-10T15:51:07Z</time>
</trkpt>
<trkpt lat="49.51587673276663" lon="9.2181234061718">
<ele>461.4</ele>
<time>2024-05-10T15:51:08Z</time>
</trkpt>
<trkpt lat="49.51587673276663" lon="9.21812147833407">
<ele>461.2</ele>
<time>2024-05-10T15:51:09Z</time>
</trkpt>
<trkpt lat="49.51587673276663" lon="9.21811955049634">
<ele>461.2</ele>
<time>2024-05-10T15:51:11Z</time>
</trkpt>
<trkpt lat="49.51587673276663" lon="9.218118628486993">
<ele>461</ele>
<time>2024-05-10T15:51:12Z</time>
</trkpt>
<trkpt lat="49.51587673276663" lon="9.21811670064926">
<ele>461</ele>
<time>2024-05-10T15:51:13Z</time>
</trkpt>
<trkpt lat="49.51587673276663" lon="9.218118628486993">
<ele>460.8</ele>
<time>2024-05-10T15:51:16Z</time>
</trkpt>
<trkpt lat="49.51587287709117" lon="9.21811955049634">
<ele>460.8</ele>
<time>2024-05-10T15:51:17Z</time>
</trkpt>
<trkpt lat="49.51587287709117" lon="9.2181234061718">
<ele>460.8</ele>
<time>2024-05-10T15:51:18Z</time>
</trkpt>
<trkpt lat="49.51587287709117" lon="9.218128183856606">
<ele>460.6</ele>
<time>2024-05-10T15:51:19Z</time>
</trkpt>
<trkpt lat="49.51586910523474" lon="9.21813673339784">
<ele>460.6</ele>
<time>2024-05-10T15:51:20Z</time>
</trkpt>
<trkpt lat="49.51586524955928" lon="9.21814151108265">
<ele>460.6</ele>
<time>2024-05-10T15:51:21Z</time>
</trkpt>
<trkpt lat="49.515861477702856" lon="9.218148216605186">
<ele>460.6</ele>
<time>2024-05-10T15:51:25Z</time>
</trkpt>
<trkpt lat="49.515861477702856" lon="9.218152994289994">
<ele>460.4</ele>
<time>2024-05-10T15:51:26Z</time>
</trkpt>
<trkpt lat="49.515861477702856" lon="9.218154838308692">
<ele>460.4</ele>
<time>2024-05-10T15:51:27Z</time>
</trkpt>
<trkpt lat="49.515861477702856" lon="9.21815869398415">
<ele>460.4</ele>
<time>2024-05-10T15:51:28Z</time>
</trkpt>
<trkpt lat="49.515861477702856" lon="9.218168249353766">
<ele>460.4</ele>
<time>2024-05-10T15:51:29Z</time>
</trkpt>
<trkpt lat="49.5158576220274" lon="9.21817872673273">
<ele>460.4</ele>
<time>2024-05-10T15:51:30Z</time>
</trkpt>
<trkpt lat="49.5158576220274" lon="9.21819683164358">
<ele>460.4</ele>
<time>2024-05-10T15:51:31Z</time>
</trkpt>
<trkpt lat="49.5158576220274" lon="9.218214936554432">
<ele>460.4</ele>
<time>2024-05-10T15:51:32Z</time>
</trkpt>
<trkpt lat="49.51585385017097" lon="9.218255002051592">
<ele>460.4</ele>
<time>2024-05-10T15:51:33Z</time>
</trkpt>
<trkpt lat="49.51585385017097" lon="9.218291211873291">
<ele>460.4</ele>
<time>2024-05-10T15:51:34Z</time>
</trkpt>
<trkpt lat="49.51584999449551" lon="9.218331277370453">
<ele>460.4</ele>
<time>2024-05-10T15:51:35Z</time>
</trkpt>
<trkpt lat="49.51584999449551" lon="9.218375198543072">
<ele>460.4</ele>
<time>2024-05-10T15:51:36Z</time>
</trkpt>
<trkpt lat="49.515842366963625" lon="9.218421885743735">
<ele>460.4</ele>
<time>2024-05-10T15:51:37Z</time>
</trkpt>
<trkpt lat="49.51583473943174" lon="9.218469578772783">
<ele>460.6</ele>
<time>2024-05-10T15:51:38Z</time>
</trkpt>
<trkpt lat="49.515823340043426" lon="9.21851634979248">
<ele>460.8</ele>
<time>2024-05-10T15:51:39Z</time>
</trkpt>
<trkpt lat="49.51581185683608" lon="9.218564964830875">
<ele>460.8</ele>
<time>2024-05-10T15:51:40Z</time>
</trkpt>
<trkpt lat="49.51580045744777" lon="9.218618357554078">
<ele>461</ele>
<time>2024-05-10T15:51:41Z</time>
</trkpt>
<trkpt lat="49.515785202383995" lon="9.218667978420854">
<ele>461.2</ele>
<time>2024-05-10T15:51:42Z</time>
</trkpt>
<trkpt lat="49.51576994732022" lon="9.218718521296978">
<ele>461.2</ele>
<time>2024-05-10T15:51:43Z</time>
</trkpt>
<trkpt lat="49.51575083658099" lon="9.218766130506992">
<ele>461.4</ele>
<time>2024-05-10T15:51:44Z</time>
</trkpt>
<trkpt lat="49.51573180966079" lon="9.21881290152669">
<ele>461.4</ele>
<time>2024-05-10T15:51:45Z</time>
</trkpt>
<trkpt lat="49.5157088432461" lon="9.218859672546388">
<ele>461.6</ele>
<time>2024-05-10T15:51:46Z</time>
</trkpt>
<trkpt lat="49.51568596065045" lon="9.218906359747052">
<ele>461.6</ele>
<time>2024-05-10T15:51:47Z</time>
</trkpt>
<trkpt lat="49.515663078054786" lon="9.21895019710064">
<ele>461.8</ele>
<time>2024-05-10T15:51:48Z</time>
</trkpt>
<trkpt lat="49.515644051134586" lon="9.2189902625978">
<ele>461.8</ele>
<time>2024-05-10T15:51:49Z</time>
</trkpt>
<trkpt lat="49.515628796070814" lon="9.219024628400804">
<ele>462</ele>
<time>2024-05-10T15:51:50Z</time>
</trkpt>
<trkpt lat="49.51560968533158" lon="9.219059916213157">
<ele>462.2</ele>
<time>2024-05-10T15:51:51Z</time>
</trkpt>
<trkpt lat="49.515590658411384" lon="9.219097131863236">
<ele>462.4</ele>
<time>2024-05-10T15:51:52Z</time>
</trkpt>
<trkpt lat="49.51557540334761" lon="9.219135269522669">
<ele>462.4</ele>
<time>2024-05-10T15:51:53Z</time>
</trkpt>
<trkpt lat="49.51556014828384" lon="9.219175335019829">
<ele>462.6</ele>
<time>2024-05-10T15:51:54Z</time>
</trkpt>
<trkpt lat="49.515544809401035" lon="9.219213472679256">
<ele>462.8</ele>
<time>2024-05-10T15:51:55Z</time>
</trkpt>
<trkpt lat="49.51552192680538" lon="9.219253538176416">
<ele>462.8</ele>
<time>2024-05-10T15:51:56Z</time>
</trkpt>
<trkpt lat="49.51550289988518" lon="9.219294525682926">
<ele>463</ele>
<time>2024-05-10T15:51:57Z</time>
</trkpt>
<trkpt lat="49.515487644821405" lon="9.219338363036512">
<ele>463</ele>
<time>2024-05-10T15:51:58Z</time>
</trkpt>
<trkpt lat="49.51547238975763" lon="9.219381278380752">
<ele>463.2</ele>
<time>2024-05-10T15:51:59Z</time>
</trkpt>
<trkpt lat="49.51545713469386" lon="9.21942327171564">
<ele>463.2</ele>
<time>2024-05-10T15:52:00Z</time>
</trkpt>
<trkpt lat="49.51544187963009" lon="9.2194651812315">
<ele>463.2</ele>
<time>2024-05-10T15:52:01Z</time>
</trkpt>
<trkpt lat="49.51542276889086" lon="9.21950340270996">
<ele>463</ele>
<time>2024-05-10T15:52:02Z</time>
</trkpt>
<trkpt lat="49.5153998862952" lon="9.219541540369391">
<ele>463</ele>
<time>2024-05-10T15:52:03Z</time>
</trkpt>
<trkpt lat="49.515380859375" lon="9.21958152204752">
<ele>462.8</ele>
<time>2024-05-10T15:52:04Z</time>
</trkpt>
<trkpt lat="49.51536174863577" lon="9.219619743525982">
<ele>462.8</ele>
<time>2024-05-10T15:52:05Z</time>
</trkpt>
<trkpt lat="49.51534263789654" lon="9.219657881185412">
<ele>462.8</ele>
<time>2024-05-10T15:52:06Z</time>
</trkpt>
<trkpt lat="49.51532361097634" lon="9.21969979070127">
<ele>462.6</ele>
<time>2024-05-10T15:52:07Z</time>
</trkpt>
<trkpt lat="49.515308355912566" lon="9.21974178403616">
<ele>462.6</ele>
<time>2024-05-10T15:52:08Z</time>
</trkpt>
<trkpt lat="49.515289245173335" lon="9.21978184953332">
<ele>462.6</ele>
<time>2024-05-10T15:52:09Z</time>
</trkpt>
<trkpt lat="49.515270218253136" lon="9.21982191503048">
<ele>462.4</ele>
<time>2024-05-10T15:52:10Z</time>
</trkpt>
<trkpt lat="49.515251107513905" lon="9.21985812485218">
<ele>462.4</ele>
<time>2024-05-10T15:52:11Z</time>
</trkpt>
<trkpt lat="49.515232080593705" lon="9.219893412664533">
<ele>462.4</ele>
<time>2024-05-10T15:52:12Z</time>
</trkpt>
<trkpt lat="49.51521682552993" lon="9.219928700476885">
<ele>462.4</ele>
<time>2024-05-10T15:52:13Z</time>
</trkpt>
<trkpt lat="49.51520148664713" lon="9.219962060451508">
<ele>462.2</ele>
<time>2024-05-10T15:52:14Z</time>
</trkpt>
<trkpt lat="49.51518623158336" lon="9.219993576407433">
<ele>462.2</ele>
<time>2024-05-10T15:52:15Z</time>
</trkpt>
<trkpt lat="49.515170976519585" lon="9.220027858391404">
<ele>462.2</ele>
<time>2024-05-10T15:52:16Z</time>
</trkpt>
<trkpt lat="49.51515572145581" lon="9.220058368518949">
<ele>462.2</ele>
<time>2024-05-10T15:52:17Z</time>
</trkpt>
<trkpt lat="49.5151443220675" lon="9.220087034627795">
<ele>462.2</ele>
<time>2024-05-10T15:52:18Z</time>
</trkpt>
<trkpt lat="49.51512906700373" lon="9.220111845061185">
<ele>462.2</ele>
<time>2024-05-10T15:52:19Z</time>
</trkpt>
<trkpt lat="49.515113811939955" lon="9.22013372182846">
<ele>462.2</ele>
<time>2024-05-10T15:52:20Z</time>
</trkpt>
<trkpt lat="49.51510232873261" lon="9.22015660442412">
<ele>462.2</ele>
<time>2024-05-10T15:52:21Z</time>
</trkpt>
<trkpt lat="49.51509470120072" lon="9.220183342695236">
<ele>462.2</ele>
<time>2024-05-10T15:52:22Z</time>
</trkpt>
<trkpt lat="49.51508707366884" lon="9.220211924985051">
<ele>462.2</ele>
<time>2024-05-10T15:52:23Z</time>
</trkpt>
<trkpt lat="49.51507944613695" lon="9.220238663256168">
<ele>462.2</ele>
<time>2024-05-10T15:52:24Z</time>
</trkpt>
<trkpt lat="49.515071818605065" lon="9.220265317708254">
<ele>462.2</ele>
<time>2024-05-10T15:52:25Z</time>
</trkpt>
<trkpt lat="49.51506041921675" lon="9.22029297798872">
<ele>462</ele>
<time>2024-05-10T15:52:26Z</time>
</trkpt>
<trkpt lat="49.51504893600941" lon="9.220318794250488">
<ele>462</ele>
<time>2024-05-10T15:52:27Z</time>
</trkpt>
<trkpt lat="49.51504516415298" lon="9.220339749008415">
<ele>461.8</ele>
<time>2024-05-10T15:52:28Z</time>
</trkpt>
<trkpt lat="49.51504516415298" lon="9.220341676846148">
<ele>461.8</ele>
<time>2024-05-10T15:52:30Z</time>
</trkpt>
<trkpt lat="49.51504516415298" lon="9.220343520864844">
<ele>461.6</ele>
<time>2024-05-10T15:52:31Z</time>
</trkpt>
<trkpt lat="49.51504130847752" lon="9.220343520864844">
<ele>461.6</ele>
<time>2024-05-10T15:52:33Z</time>
</trkpt>
<trkpt lat="49.51504130847752" lon="9.220346370711924">
<ele>461.4</ele>
<time>2024-05-10T15:52:34Z</time>
</trkpt>
<trkpt lat="49.51504130847752" lon="9.220350226387382">
<ele>461.2</ele>
<time>2024-05-10T15:52:35Z</time>
</trkpt>
<trkpt lat="49.51504130847752" lon="9.22035114839673">
<ele>461.2</ele>
<time>2024-05-10T15:52:39Z</time>
</trkpt>
<trkpt lat="49.51504130847752" lon="9.22035693190992">
<ele>461</ele>
<time>2024-05-10T15:52:40Z</time>
</trkpt>
<trkpt lat="49.515037536621094" lon="9.220357853919268">
<ele>461</ele>
<time>2024-05-10T15:52:41Z</time>
</trkpt>
<trkpt lat="49.51504130847752" lon="9.22035693190992">
<ele>460.8</ele>
<time>2024-05-10T15:52:42Z</time>
</trkpt>
<trkpt lat="49.51504516415298" lon="9.22035500407219">
<ele>460.8</ele>
<time>2024-05-10T15:52:43Z</time>
</trkpt>
<trkpt lat="49.51504516415298" lon="9.22035307623446">
<ele>460.8</ele>
<time>2024-05-10T15:52:44Z</time>
</trkpt>
<trkpt lat="49.51504516415298" lon="9.22035114839673">
<ele>460.8</ele>
<time>2024-05-10T15:52:45Z</time>
</trkpt>
<trkpt lat="49.51504130847752" lon="9.22035114839673">
<ele>460.8</ele>
<time>2024-05-10T15:52:46Z</time>
</trkpt>
<trkpt lat="49.51504130847752" lon="9.22035307623446">
<ele>460.6</ele>
<time>2024-05-10T15:52:47Z</time>
</trkpt>
<trkpt lat="49.51504130847752" lon="9.22035114839673">
<ele>460.6</ele>
<time>2024-05-10T15:52:50Z</time>
</trkpt>
<trkpt lat="49.51504130847752" lon="9.220350226387382">
<ele>460.4</ele>
<time>2024-05-10T15:52:53Z</time>
</trkpt>
<trkpt lat="49.515037536621094" lon="9.220350226387382">
<ele>460.4</ele>
<time>2024-05-10T15:52:54Z</time>
</trkpt>
<trkpt lat="49.515037536621094" lon="9.22035114839673">
<ele>460.2</ele>
<time>2024-05-10T15:52:58Z</time>
</trkpt>
<trkpt lat="49.515033680945635" lon="9.22035114839673">
<ele>460</ele>
<time>2024-05-10T15:52:59Z</time>
</trkpt>
<trkpt lat="49.515033680945635" lon="9.22035307623446">
<ele>459.8</ele>
<time>2024-05-10T15:53:00Z</time>
</trkpt>
<trkpt lat="49.515033680945635" lon="9.22035500407219">
<ele>459.6</ele>
<time>2024-05-10T15:53:01Z</time>
</trkpt>
<trkpt lat="49.515033680945635" lon="9.220357853919268">
<ele>459.4</ele>
<time>2024-05-10T15:53:02Z</time>
</trkpt>
<trkpt lat="49.515033680945635" lon="9.220359781756995">
<ele>459.4</ele>
<time>2024-05-10T15:53:04Z</time>
</trkpt>
<trkpt lat="49.515037536621094" lon="9.220361709594728">
<ele>459.2</ele>
<time>2024-05-10T15:53:08Z</time>
</trkpt>
<trkpt lat="49.515037536621094" lon="9.220363553613424">
<ele>459</ele>
<time>2024-05-10T15:53:09Z</time>
</trkpt>
<trkpt lat="49.515037536621094" lon="9.220364559441805">
<ele>458.8</ele>
<time>2024-05-10T15:53:11Z</time>
</trkpt>
<trkpt lat="49.515033680945635" lon="9.220364559441805">
<ele>458.6</ele>
<time>2024-05-10T15:53:13Z</time>
</trkpt>
<trkpt lat="49.515033680945635" lon="9.220366403460504">
<ele>458.4</ele>
<time>2024-05-10T15:53:14Z</time>
</trkpt>
<trkpt lat="49.515033680945635" lon="9.220368331298232">
<ele>458.4</ele>
<time>2024-05-10T15:53:15Z</time>
</trkpt>
<trkpt lat="49.515033680945635" lon="9.220370259135962">
<ele>458.2</ele>
<time>2024-05-10T15:53:16Z</time>
</trkpt>
<trkpt lat="49.515033680945635" lon="9.22037118114531">
<ele>458.2</ele>
<time>2024-05-10T15:53:17Z</time>
</trkpt>
<trkpt lat="49.515033680945635" lon="9.22037310898304">
<ele>458.2</ele>
<time>2024-05-10T15:53:18Z</time>
</trkpt>
<trkpt lat="49.515033680945635" lon="9.22037503682077">
<ele>458.2</ele>
<time>2024-05-10T15:53:22Z</time>
</trkpt>
<trkpt lat="49.515029825270176" lon="9.22037503682077">
<ele>458.2</ele>
<time>2024-05-10T15:53:23Z</time>
</trkpt>
<trkpt lat="49.515029825270176" lon="9.22037310898304">
<ele>458.2</ele>
<time>2024-05-10T15:53:24Z</time>
</trkpt>
<trkpt lat="49.515029825270176" lon="9.22037118114531">
<ele>458.4</ele>
<time>2024-05-10T15:53:25Z</time>
</trkpt>
<trkpt lat="49.515029825270176" lon="9.22037310898304">
<ele>458.4</ele>
<time>2024-05-10T15:53:26Z</time>
</trkpt>
<trkpt lat="49.515029825270176" lon="9.22037503682077">
<ele>458.4</ele>
<time>2024-05-10T15:53:29Z</time>
</trkpt>
<trkpt lat="49.51502605341375" lon="9.22037503682077">
<ele>458.4</ele>
<time>2024-05-10T15:53:31Z</time>
</trkpt>
<trkpt lat="49.51502605341375" lon="9.2203769646585">
<ele>458.4</ele>
<time>2024-05-10T15:53:33Z</time>
</trkpt>
<trkpt lat="49.515029825270176" lon="9.220377886667848">
<ele>458.4</ele>
<time>2024-05-10T15:53:34Z</time>
</trkpt>
<trkpt lat="49.51502605341375" lon="9.22037503682077">
<ele>458.4</ele>
<time>2024-05-10T15:53:35Z</time>
</trkpt>
<trkpt lat="49.515029825270176" lon="9.2203769646585">
<ele>458.4</ele>
<time>2024-05-10T15:53:37Z</time>
</trkpt>
<trkpt lat="49.515029825270176" lon="9.220383586362004">
<ele>458.4</ele>
<time>2024-05-10T15:53:41Z</time>
</trkpt>
<trkpt lat="49.515029825270176" lon="9.220381658524277">
<ele>458.4</ele>
<time>2024-05-10T15:53:44Z</time>
</trkpt>
<trkpt lat="49.515029825270176" lon="9.220379814505575">
<ele>458.4</ele>
<time>2024-05-10T15:53:45Z</time>
</trkpt>
<trkpt lat="49.515029825270176" lon="9.220381658524277">
<ele>458.4</ele>
<time>2024-05-10T15:53:46Z</time>
</trkpt>
<trkpt lat="49.515029825270176" lon="9.220379814505575">
<ele>458.6</ele>
<time>2024-05-10T15:53:47Z</time>
</trkpt>
<trkpt lat="49.51502605341375" lon="9.220379814505575">
<ele>458.6</ele>
<time>2024-05-10T15:53:48Z</time>
</trkpt>
<trkpt lat="49.51502605341375" lon="9.220377886667848">
<ele>458.6</ele>
<time>2024-05-10T15:53:54Z</time>
</trkpt>
<trkpt lat="49.51502605341375" lon="9.220379814505575">
<ele>458.6</ele>
<time>2024-05-10T15:53:56Z</time>
</trkpt>
<trkpt lat="49.51502605341375" lon="9.220377886667848">
<ele>458.6</ele>
<time>2024-05-10T15:54:00Z</time>
</trkpt>
<trkpt lat="49.51502219773829" lon="9.220377886667848">
<ele>458.8</ele>
<time>2024-05-10T15:54:03Z</time>
</trkpt>
<trkpt lat="49.51502219773829" lon="9.2203769646585">
<ele>458.8</ele>
<time>2024-05-10T15:54:06Z</time>
</trkpt>
<trkpt lat="49.51502219773829" lon="9.220377886667848">
<ele>458.8</ele>
<time>2024-05-10T15:54:07Z</time>
</trkpt>
<trkpt lat="49.51502219773829" lon="9.2203769646585">
<ele>458.8</ele>
<time>2024-05-10T15:54:08Z</time>
</trkpt>
<trkpt lat="49.51502219773829" lon="9.22037503682077">
<ele>458.8</ele>
<time>2024-05-10T15:54:10Z</time>
</trkpt>
<trkpt lat="49.51502219773829" lon="9.22037310898304">
<ele>458.8</ele>
<time>2024-05-10T15:54:11Z</time>
</trkpt>
<trkpt lat="49.51502219773829" lon="9.22037118114531">
<ele>458.8</ele>
<time>2024-05-10T15:54:13Z</time>
</trkpt>
<trkpt lat="49.51502605341375" lon="9.22037503682077">
<ele>458.8</ele>
<time>2024-05-10T15:54:14Z</time>
</trkpt>
<trkpt lat="49.51502605341375" lon="9.2203769646585">
<ele>458.8</ele>
<time>2024-05-10T15:54:15Z</time>
</trkpt>
<trkpt lat="49.51502605341375" lon="9.220377886667848">
<ele>458.8</ele>
<time>2024-05-10T15:54:17Z</time>
</trkpt>
<trkpt lat="49.51501842588186" lon="9.220377886667848">
<ele>458.8</ele>
<time>2024-05-10T15:54:18Z</time>
</trkpt>
<trkpt lat="49.51500694267452" lon="9.220381658524277">
<ele>459</ele>
<time>2024-05-10T15:54:19Z</time>
</trkpt>
<trkpt lat="49.51499931514263" lon="9.220390291884542">
<ele>459</ele>
<time>2024-05-10T15:54:20Z</time>
</trkpt>
<trkpt lat="49.51498028822243" lon="9.220396913588049">
<ele>459.2</ele>
<time>2024-05-10T15:54:21Z</time>
</trkpt>
<trkpt lat="49.51494977809489" lon="9.220397919416428">
<ele>459.2</ele>
<time>2024-05-10T15:54:22Z</time>
</trkpt>
<trkpt lat="49.51492303982377" lon="9.22041510231793">
<ele>459.2</ele>
<time>2024-05-10T15:54:23Z</time>
</trkpt>
<trkpt lat="49.51490401290357" lon="9.22043127939105">
<ele>459.2</ele>
<time>2024-05-10T15:54:24Z</time>
</trkpt>
<trkpt lat="49.51488113030791" lon="9.22045131213963">
<ele>459.2</ele>
<time>2024-05-10T15:54:25Z</time>
</trkpt>
<trkpt lat="49.51484676450491" lon="9.220477044582369">
<ele>459.2</ele>
<time>2024-05-10T15:54:26Z</time>
</trkpt>
<trkpt lat="49.51480477117002" lon="9.220508560538292">
<ele>459.2</ele>
<time>2024-05-10T15:54:27Z</time>
</trkpt>
<trkpt lat="49.51476286165416" lon="9.22053337097168">
<ele>459.4</ele>
<time>2024-05-10T15:54:28Z</time>
</trkpt>
<trkpt lat="49.51472086831927" lon="9.220558097586036">
<ele>459.6</ele>
<time>2024-05-10T15:54:29Z</time>
</trkpt>
<trkpt lat="49.514678874984384" lon="9.22058860771358">
<ele>460</ele>
<time>2024-05-10T15:54:30Z</time>
</trkpt>
<trkpt lat="49.514636965468526" lon="9.220618195831776">
<ele>460.4</ele>
<time>2024-05-10T15:54:31Z</time>
</trkpt>
<trkpt lat="49.51459497213364" lon="9.220656333491206">
<ele>460.6</ele>
<time>2024-05-10T15:54:32Z</time>
</trkpt>
<trkpt lat="49.514541579410434" lon="9.220694471150637">
<ele>460.8</ele>
<time>2024-05-10T15:54:33Z</time>
</trkpt>
<trkpt lat="49.51448818668723" lon="9.22072690911591">
<ele>461</ele>
<time>2024-05-10T15:54:34Z</time>
</trkpt>
<trkpt lat="49.51443479396403" lon="9.220756497234106">
<ele>461.2</ele>
<time>2024-05-10T15:54:35Z</time>
</trkpt>
<trkpt lat="49.51438902877271" lon="9.22078700736165">
<ele>461.2</ele>
<time>2024-05-10T15:54:36Z</time>
</trkpt>
<trkpt lat="49.51434317976236" lon="9.22080796211958">
<ele>461.4</ele>
<time>2024-05-10T15:54:37Z</time>
</trkpt>
<trkpt lat="49.51429741457105" lon="9.220834700390697">
<ele>461.6</ele>
<time>2024-05-10T15:54:38Z</time>
</trkpt>
<trkpt lat="49.51424402184784" lon="9.220863282680511">
<ele>461.8</ele>
<time>2024-05-10T15:54:39Z</time>
</trkpt>
<trkpt lat="49.51419825665653" lon="9.220899576321244">
<ele>462</ele>
<time>2024-05-10T15:54:40Z</time>
</trkpt>
<trkpt lat="49.51415249146521" lon="9.220932936295869">
<ele>462</ele>
<time>2024-05-10T15:54:41Z</time>
</trkpt>
<trkpt lat="49.514102870598435" lon="9.220973001793029">
<ele>462</ele>
<time>2024-05-10T15:54:42Z</time>
</trkpt>
<trkpt lat="49.51405333355069" lon="9.221010133624077">
<ele>462.2</ele>
<time>2024-05-10T15:54:43Z</time>
</trkpt>
<trkpt lat="49.51400371268392" lon="9.22104835510254">
<ele>462.2</ele>
<time>2024-05-10T15:54:44Z</time>
</trkpt>
<trkpt lat="49.5139579474926" lon="9.221097892150285">
<ele>462</ele>
<time>2024-05-10T15:54:45Z</time>
</trkpt>
<trkpt lat="49.51391980983317" lon="9.221151284873486">
<ele>462.2</ele>
<time>2024-05-10T15:54:46Z</time>
</trkpt>
<trkpt lat="49.51388167217374" lon="9.22120283357799">
<ele>462.2</ele>
<time>2024-05-10T15:54:47Z</time>
</trkpt>
<trkpt lat="49.51384353451431" lon="9.221255220472813">
<ele>462.2</ele>
<time>2024-05-10T15:54:48Z</time>
</trkpt>
<trkpt lat="49.513809168711305" lon="9.221304841339588">
<ele>462.4</ele>
<time>2024-05-10T15:54:49Z</time>
</trkpt>
<trkpt lat="49.5137748029083" lon="9.221356390044091">
<ele>462.4</ele>
<time>2024-05-10T15:54:50Z</time>
</trkpt>
<trkpt lat="49.513748148456216" lon="9.221409782767296">
<ele>462.4</ele>
<time>2024-05-10T15:54:51Z</time>
</trkpt>
<trkpt lat="49.51371763832867" lon="9.2214631754905">
<ele>462.4</ele>
<time>2024-05-10T15:54:52Z</time>
</trkpt>
<trkpt lat="49.51368327252567" lon="9.221508018672466">
<ele>462.4</ele>
<time>2024-05-10T15:54:53Z</time>
</trkpt>
<trkpt lat="49.51366038993001" lon="9.221563339233398">
<ele>462.6</ele>
<time>2024-05-10T15:54:54Z</time>
</trkpt>
<trkpt lat="49.51363750733435" lon="9.221611954271792">
<ele>462.6</ele>
<time>2024-05-10T15:54:55Z</time>
</trkpt>
<trkpt lat="49.51360314153135" lon="9.22165864147246">
<ele>463.2</ele>
<time>2024-05-10T15:54:56Z</time>
</trkpt>
<trkpt lat="49.51356500387192" lon="9.221703484654428">
<ele>463.4</ele>
<time>2024-05-10T15:54:57Z</time>
</trkpt>
<trkpt lat="49.51354212127626" lon="9.221746399998665">
<ele>463.4</ele>
<time>2024-05-10T15:54:58Z</time>
</trkpt>
<trkpt lat="49.513515466824174" lon="9.221797864884138">
<ele>463.2</ele>
<time>2024-05-10T15:54:59Z</time>
</trkpt>
<trkpt lat="49.5134848728776" lon="9.221843713894486">
<ele>463.2</ele>
<time>2024-05-10T15:55:00Z</time>
</trkpt>
<trkpt lat="49.513450590893626" lon="9.22189517877996">
<ele>463</ele>
<time>2024-05-10T15:55:01Z</time>
</trkpt>
<trkpt lat="49.51341622509062" lon="9.221948571503162">
<ele>463</ele>
<time>2024-05-10T15:55:02Z</time>
</trkpt>
<trkpt lat="49.51337808743119" lon="9.222001964226363">
<ele>462.8</ele>
<time>2024-05-10T15:55:03Z</time>
</trkpt>
<trkpt lat="49.51333994977176" lon="9.222048735246062">
<ele>462.6</ele>
<time>2024-05-10T15:55:04Z</time>
</trkpt>
<trkpt lat="49.51330181211233" lon="9.222100200131536">
<ele>462.4</ele>
<time>2024-05-10T15:55:05Z</time>
</trkpt>
<trkpt lat="49.51326744630933" lon="9.222143115475774">
<ele>462.2</ele>
<time>2024-05-10T15:55:06Z</time>
</trkpt>
<trkpt lat="49.513236936181784" lon="9.222187036648393">
<ele>462</ele>
<time>2024-05-10T15:55:07Z</time>
</trkpt>
<trkpt lat="49.51320642605424" lon="9.222221318632364">
<ele>461.8</ele>
<time>2024-05-10T15:55:08Z</time>
</trkpt>
<trkpt lat="49.51316828839481" lon="9.222253756597638">
<ele>461.6</ele>
<time>2024-05-10T15:55:09Z</time>
</trkpt>
<trkpt lat="49.51313015073538" lon="9.222294744104149">
<ele>461.6</ele>
<time>2024-05-10T15:55:10Z</time>
</trkpt>
<trkpt lat="49.51308815740049" lon="9.222325254231691">
<ele>461.4</ele>
<time>2024-05-10T15:55:11Z</time>
</trkpt>
<trkpt lat="49.51304239220917" lon="9.222359620034696">
<ele>461.4</ele>
<time>2024-05-10T15:55:12Z</time>
</trkpt>
<trkpt lat="49.512996627017856" lon="9.222401613369584">
<ele>461.2</ele>
<time>2024-05-10T15:55:13Z</time>
</trkpt>
<trkpt lat="49.512958489358425" lon="9.222444528713822">
<ele>461.2</ele>
<time>2024-05-10T15:55:14Z</time>
</trkpt>
<trkpt lat="49.51287073083222" lon="9.22252457588911">
<ele>461</ele>
<time>2024-05-10T15:55:16Z</time>
</trkpt>
<trkpt lat="49.51281356625259" lon="9.222557013854384">
<ele>460.8</ele>
<time>2024-05-10T15:55:17Z</time>
</trkpt>
<trkpt lat="49.512760089710355" lon="9.22258852981031">
<ele>460.6</ele>
<time>2024-05-10T15:55:18Z</time>
</trkpt>
<trkpt lat="49.51271055266261" lon="9.222629517316818">
<ele>460.4</ele>
<time>2024-05-10T15:55:19Z</time>
</trkpt>
<trkpt lat="49.51267241500318" lon="9.222669582813978">
<ele>460.4</ele>
<time>2024-05-10T15:55:20Z</time>
</trkpt>
<trkpt lat="49.51263804920018" lon="9.222709648311138">
<ele>460.2</ele>
<time>2024-05-10T15:55:21Z</time>
</trkpt>
<trkpt lat="49.51259991154075" lon="9.222748707979918">
<ele>460.2</ele>
<time>2024-05-10T15:55:22Z</time>
</trkpt>
<trkpt lat="49.51255791820586" lon="9.222787851467729">
<ele>460</ele>
<time>2024-05-10T15:55:23Z</time>
</trkpt>
<trkpt lat="49.51251600869" lon="9.222826911136508">
<ele>459.8</ele>
<time>2024-05-10T15:55:24Z</time>
</trkpt>
<trkpt lat="49.51247787103057" lon="9.222861276939511">
<ele>459.8</ele>
<time>2024-05-10T15:55:25Z</time>
</trkpt>
<trkpt lat="49.512443505227566" lon="9.222893714904783">
<ele>459.8</ele>
<time>2024-05-10T15:55:26Z</time>
</trkpt>
<trkpt lat="49.51240913942456" lon="9.222929924726486">
<ele>459.6</ele>
<time>2024-05-10T15:55:27Z</time>
</trkpt>
<trkpt lat="49.512367229908705" lon="9.222967140376568">
<ele>459.4</ele>
<time>2024-05-10T15:55:28Z</time>
</trkpt>
<trkpt lat="49.51231760904193" lon="9.223011899739504">
<ele>459.4</ele>
<time>2024-05-10T15:55:29Z</time>
</trkpt>
<trkpt lat="49.512267988175154" lon="9.223056742921472">
<ele>459.2</ele>
<time>2024-05-10T15:55:30Z</time>
</trkpt>
<trkpt lat="49.51221845112741" lon="9.223092952743173">
<ele>459</ele>
<time>2024-05-10T15:55:31Z</time>
</trkpt>
<trkpt lat="49.51217645779252" lon="9.223123546689749">
<ele>459</ele>
<time>2024-05-10T15:55:32Z</time>
</trkpt>
<trkpt lat="49.51213454827666" lon="9.223151206970217">
<ele>458.8</ele>
<time>2024-05-10T15:55:33Z</time>
</trkpt>
<trkpt lat="49.512088699266315" lon="9.22317978926003">
<ele>458.8</ele>
<time>2024-05-10T15:55:34Z</time>
</trkpt>
<trkpt lat="49.51205818913877" lon="9.223204599693418">
<ele>458.6</ele>
<time>2024-05-10T15:55:35Z</time>
</trkpt>
<trkpt lat="49.51202005147934" lon="9.223231254145505">
<ele>458.6</ele>
<time>2024-05-10T15:55:36Z</time>
</trkpt>
<trkpt lat="49.51197814196348" lon="9.22325799241662">
<ele>458.4</ele>
<time>2024-05-10T15:55:37Z</time>
</trkpt>
<trkpt lat="49.51193992048502" lon="9.223288502544165">
<ele>458.4</ele>
<time>2024-05-10T15:55:38Z</time>
</trkpt>
<trkpt lat="49.51188652776182" lon="9.223328568041325">
<ele>458.2</ele>
<time>2024-05-10T15:55:39Z</time>
</trkpt>
<trkpt lat="49.511833135038614" lon="9.223371483385565">
<ele>458.2</ele>
<time>2024-05-10T15:55:40Z</time>
</trkpt>
<trkpt lat="49.51177974231541" lon="9.223402915522456">
<ele>458</ele>
<time>2024-05-10T15:55:41Z</time>
</trkpt>
<trkpt lat="49.51171872206032" lon="9.223446836695077">
<ele>458</ele>
<time>2024-05-10T15:55:42Z</time>
</trkpt>
<trkpt lat="49.51166147366166" lon="9.223480196669698">
<ele>457.8</ele>
<time>2024-05-10T15:55:43Z</time>
</trkpt>
<trkpt lat="49.511615708470345" lon="9.22351355664432">
<ele>457.6</ele>
<time>2024-05-10T15:55:44Z</time>
</trkpt>
<trkpt lat="49.51156994327903" lon="9.223545072600244">
<ele>457.6</ele>
<time>2024-05-10T15:55:45Z</time>
</trkpt>
<trkpt lat="49.51152032241225" lon="9.223569799214602">
<ele>457.6</ele>
<time>2024-05-10T15:55:46Z</time>
</trkpt>
<trkpt lat="49.51147078536451" lon="9.22359460964799">
<ele>457.4</ele>
<time>2024-05-10T15:55:47Z</time>
</trkpt>
<trkpt lat="49.511417308822274" lon="9.22362989746034">
<ele>457.4</ele>
<time>2024-05-10T15:55:48Z</time>
</trkpt>
<trkpt lat="49.51136777177453" lon="9.2236699629575">
<ele>457.4</ele>
<time>2024-05-10T15:55:49Z</time>
</trkpt>
<trkpt lat="49.511318150907755" lon="9.22371287830174">
<ele>457.4</ele>
<time>2024-05-10T15:55:50Z</time>
</trkpt>
<trkpt lat="49.51127238571644" lon="9.223745316267014">
<ele>457.4</ele>
<time>2024-05-10T15:55:51Z</time>
</trkpt>
<trkpt lat="49.51122662052512" lon="9.2237701267004">
<ele>457.2</ele>
<time>2024-05-10T15:55:52Z</time>
</trkpt>
<trkpt lat="49.511176999658346" lon="9.223806336522102">
<ele>457.2</ele>
<time>2024-05-10T15:55:53Z</time>
</trkpt>
<trkpt lat="49.5111274626106" lon="9.223838774487376">
<ele>457</ele>
<time>2024-05-10T15:55:54Z</time>
</trkpt>
<trkpt lat="49.51107784174383" lon="9.223873056471348">
<ele>457</ele>
<time>2024-05-10T15:55:55Z</time>
</trkpt>
<trkpt lat="49.51103207655251" lon="9.223901722580194">
<ele>456.8</ele>
<time>2024-05-10T15:55:56Z</time>
</trkpt>
<trkpt lat="49.51099008321762" lon="9.223933154717088">
<ele>456.8</ele>
<time>2024-05-10T15:55:57Z</time>
</trkpt>
<trkpt lat="49.51094817370176" lon="9.223964670673013">
<ele>456.6</ele>
<time>2024-05-10T15:55:58Z</time>
</trkpt>
<trkpt lat="49.5109099522233" lon="9.223991325125098">
<ele>456.4</ele>
<time>2024-05-10T15:55:59Z</time>
</trkpt>
<trkpt lat="49.51086804270744" lon="9.224019991233943">
<ele>456.4</ele>
<time>2024-05-10T15:56:00Z</time>
</trkpt>
<trkpt lat="49.51082990504801" lon="9.224049495533109">
<ele>456</ele>
<time>2024-05-10T15:56:01Z</time>
</trkpt>
<trkpt lat="49.51079939492047" lon="9.224089561030269">
<ele>455.8</ele>
<time>2024-05-10T15:56:02Z</time>
</trkpt>
<trkpt lat="49.51077265664935" lon="9.224131554365158">
<ele>455.6</ele>
<time>2024-05-10T15:56:03Z</time>
</trkpt>
<trkpt lat="49.51075740158558" lon="9.224176397547126">
<ele>455.4</ele>
<time>2024-05-10T15:56:04Z</time>
</trkpt>
<trkpt lat="49.51074977405369" lon="9.224221156910062">
<ele>455</ele>
<time>2024-05-10T15:56:05Z</time>
</trkpt>
<trkpt lat="49.51075362972915" lon="9.224271699786186">
<ele>454.8</ele>
<time>2024-05-10T15:56:06Z</time>
</trkpt>
<trkpt lat="49.510765029117465" lon="9.224321320652962">
<ele>454.6</ele>
<time>2024-05-10T15:56:07Z</time>
</trkpt>
<trkpt lat="49.51077265664935" lon="9.224374713376164">
<ele>454.4</ele>
<time>2024-05-10T15:56:08Z</time>
</trkpt>
<trkpt lat="49.510784139856696" lon="9.224431961774826">
<ele>454.2</ele>
<time>2024-05-10T15:56:09Z</time>
</trkpt>
<trkpt lat="49.51079176738858" lon="9.224494909867644">
<ele>454.2</ele>
<time>2024-05-10T15:56:10Z</time>
</trkpt>
<trkpt lat="49.51079939492047" lon="9.22455970197916">
<ele>454</ele>
<time>2024-05-10T15:56:11Z</time>
</trkpt>
<trkpt lat="49.510803166776896" lon="9.22462365590036">
<ele>453.8</ele>
<time>2024-05-10T15:56:12Z</time>
</trkpt>
<trkpt lat="49.510807022452354" lon="9.224684676155448">
<ele>453.8</ele>
<time>2024-05-10T15:56:13Z</time>
</trkpt>
<trkpt lat="49.51081464998424" lon="9.224753323942425">
<ele>453.8</ele>
<time>2024-05-10T15:56:14Z</time>
</trkpt>
<trkpt lat="49.51081842184067" lon="9.22481819987297">
<ele>453.8</ele>
<time>2024-05-10T15:56:15Z</time>
</trkpt>
<trkpt lat="49.51082990504801" lon="9.224886847659944">
<ele>453.8</ele>
<time>2024-05-10T15:56:16Z</time>
</trkpt>
<trkpt lat="49.5108375325799" lon="9.224953651428224">
<ele>454</ele>
<time>2024-05-10T15:56:17Z</time>
</trkpt>
<trkpt lat="49.51084893196821" lon="9.22501844353974">
<ele>454</ele>
<time>2024-05-10T15:56:18Z</time>
</trkpt>
<trkpt lat="49.5108565595001" lon="9.225092874839902">
<ele>454.2</ele>
<time>2024-05-10T15:56:19Z</time>
</trkpt>
<trkpt lat="49.51086804270744" lon="9.225168228149414">
<ele>454.2</ele>
<time>2024-05-10T15:56:20Z</time>
</trkpt>
<trkpt lat="49.51087944209576" lon="9.225241653621197">
<ele>454.4</ele>
<time>2024-05-10T15:56:21Z</time>
</trkpt>
<trkpt lat="49.51088706962764" lon="9.22531507909298">
<ele>454.4</ele>
<time>2024-05-10T15:56:22Z</time>
</trkpt>
<trkpt lat="49.51089855283499" lon="9.225386576727033">
<ele>454.6</ele>
<time>2024-05-10T15:56:23Z</time>
</trkpt>
<trkpt lat="49.5109099522233" lon="9.225464779883623">
<ele>454.6</ele>
<time>2024-05-10T15:56:24Z</time>
</trkpt>
<trkpt lat="49.51091766357422" lon="9.225540133193135">
<ele>454.6</ele>
<time>2024-05-10T15:56:25Z</time>
</trkpt>
<trkpt lat="49.510921435430646" lon="9.22560970298946">
<ele>454.4</ele>
<time>2024-05-10T15:56:26Z</time>
</trkpt>
<trkpt lat="49.510925291106105" lon="9.225674578920009">
<ele>454.4</ele>
<time>2024-05-10T15:56:27Z</time>
</trkpt>
<trkpt lat="49.51092906296253" lon="9.225745154544711">
<ele>454.4</ele>
<time>2024-05-10T15:56:28Z</time>
</trkpt>
<trkpt lat="49.51093669049442" lon="9.225825285539033">
<ele>454.6</ele>
<time>2024-05-10T15:56:29Z</time>
</trkpt>
<trkpt lat="49.51094817370176" lon="9.22590348869562">
<ele>454.6</ele>
<time>2024-05-10T15:56:30Z</time>
</trkpt>
<trkpt lat="49.510963428765535" lon="9.225988313555716">
<ele>454.6</ele>
<time>2024-05-10T15:56:31Z</time>
</trkpt>
<trkpt lat="49.510963428765535" lon="9.226071294397116">
<ele>454.6</ele>
<time>2024-05-10T15:56:32Z</time>
</trkpt>
<trkpt lat="49.51097482815385" lon="9.226155281066896">
<ele>454.6</ele>
<time>2024-05-10T15:56:33Z</time>
</trkpt>
<trkpt lat="49.510982455685735" lon="9.226231556385756">
<ele>454.6</ele>
<time>2024-05-10T15:56:34Z</time>
</trkpt>
<trkpt lat="49.51099008321762" lon="9.226307831704617">
<ele>454.6</ele>
<time>2024-05-10T15:56:35Z</time>
</trkpt>
<trkpt lat="49.51099771074951" lon="9.226387962698936">
<ele>454.6</ele>
<time>2024-05-10T15:56:36Z</time>
</trkpt>
<trkpt lat="49.51100533828139" lon="9.226467087864876">
<ele>454.6</ele>
<time>2024-05-10T15:56:37Z</time>
</trkpt>
<trkpt lat="49.51101682148874" lon="9.226548140868545">
<ele>454.6</ele>
<time>2024-05-10T15:56:38Z</time>
</trkpt>
<trkpt lat="49.511024449020624" lon="9.226632043719292">
<ele>454.6</ele>
<time>2024-05-10T15:56:39Z</time>
</trkpt>
<trkpt lat="49.51103207655251" lon="9.226711252704265">
<ele>454.6</ele>
<time>2024-05-10T15:56:40Z</time>
</trkpt>
<trkpt lat="49.511043475940824" lon="9.226788450032473">
<ele>454.6</ele>
<time>2024-05-10T15:56:41Z</time>
</trkpt>
<trkpt lat="49.51105110347271" lon="9.226864809170364">
<ele>454.6</ele>
<time>2024-05-10T15:56:42Z</time>
</trkpt>
<trkpt lat="49.51105873100459" lon="9.226944856345654">
<ele>454.4</ele>
<time>2024-05-10T15:56:43Z</time>
</trkpt>
<trkpt lat="49.51107398606837" lon="9.227026915177705">
<ele>454.4</ele>
<time>2024-05-10T15:56:44Z</time>
</trkpt>
<trkpt lat="49.511081613600254" lon="9.227100340649486">
<ele>454.2</ele>
<time>2024-05-10T15:56:45Z</time>
</trkpt>
<trkpt lat="49.51108932495117" lon="9.227174688130615">
<ele>454.2</ele>
<time>2024-05-10T15:56:46Z</time>
</trkpt>
<trkpt lat="49.5110930968076" lon="9.227245263755322">
<ele>454.2</ele>
<time>2024-05-10T15:56:47Z</time>
</trkpt>
<trkpt lat="49.5110930968076" lon="9.227299662306905">
<ele>454.2</ele>
<time>2024-05-10T15:56:48Z</time>
</trkpt>
<trkpt lat="49.5110930968076" lon="9.22735213302076">
<ele>454.4</ele>
<time>2024-05-10T15:56:49Z</time>
</trkpt>
<trkpt lat="49.51109695248306" lon="9.227393120527267">
<ele>454.4</ele>
<time>2024-05-10T15:56:50Z</time>
</trkpt>
<trkpt lat="49.51109695248306" lon="9.22744458541274">
<ele>454.4</ele>
<time>2024-05-10T15:56:51Z</time>
</trkpt>
<trkpt lat="49.5110930968076" lon="9.227493284270167">
<ele>454.4</ele>
<time>2024-05-10T15:56:52Z</time>
</trkpt>
<trkpt lat="49.5110930968076" lon="9.22754667699337">
<ele>454.4</ele>
<time>2024-05-10T15:56:53Z</time>
</trkpt>
<trkpt lat="49.5110930968076" lon="9.227608619257808">
<ele>454.2</ele>
<time>2024-05-10T15:56:54Z</time>
</trkpt>
<trkpt lat="49.511104580014944" lon="9.227675423026083">
<ele>454.2</ele>
<time>2024-05-10T15:56:55Z</time>
</trkpt>
<trkpt lat="49.51111597940326" lon="9.22774122096598">
<ele>454.2</ele>
<time>2024-05-10T15:56:56Z</time>
</trkpt>
<trkpt lat="49.51113123446703" lon="9.227809868752956">
<ele>454</ele>
<time>2024-05-10T15:56:57Z</time>
</trkpt>
<trkpt lat="49.5111464895308" lon="9.227886144071816">
<ele>454</ele>
<time>2024-05-10T15:56:58Z</time>
</trkpt>
<trkpt lat="49.511161744594574" lon="9.22796149738133">
<ele>453.8</ele>
<time>2024-05-10T15:56:59Z</time>
</trkpt>
<trkpt lat="49.51117322780192" lon="9.228032995015385">
<ele>453.8</ele>
<time>2024-05-10T15:57:00Z</time>
</trkpt>
<trkpt lat="49.51118462719023" lon="9.22810172662139">
<ele>453.8</ele>
<time>2024-05-10T15:57:01Z</time>
</trkpt>
<trkpt lat="49.51118848286569" lon="9.228166518732904">
<ele>454</ele>
<time>2024-05-10T15:57:02Z</time>
</trkpt>
<trkpt lat="49.51119611039758" lon="9.228224689140916">
<ele>454</ele>
<time>2024-05-10T15:57:03Z</time>
</trkpt>
<trkpt lat="49.51120750978589" lon="9.228282859548926">
<ele>454.2</ele>
<time>2024-05-10T15:57:04Z</time>
</trkpt>
<trkpt lat="49.51121513731778" lon="9.22833818010986">
<ele>454.4</ele>
<time>2024-05-10T15:57:05Z</time>
</trkpt>
<trkpt lat="49.51121899299323" lon="9.228404983878136">
<ele>454.6</ele>
<time>2024-05-10T15:57:06Z</time>
</trkpt>
<trkpt lat="49.51122662052512" lon="9.228467931970954">
<ele>454.6</ele>
<time>2024-05-10T15:57:07Z</time>
</trkpt>
<trkpt lat="49.511238019913435" lon="9.228527946397662">
<ele>454.6</ele>
<time>2024-05-10T15:57:08Z</time>
</trkpt>
<trkpt lat="49.51124950312078" lon="9.228581422939897">
<ele>454.6</ele>
<time>2024-05-10T15:57:09Z</time>
</trkpt>
<trkpt lat="49.51126475818455" lon="9.2286348156631">
<ele>454.6</ele>
<time>2024-05-10T15:57:10Z</time>
</trkpt>
<trkpt lat="49.51128001324832" lon="9.22869298607111">
<ele>454.6</ele>
<time>2024-05-10T15:57:11Z</time>
</trkpt>
<trkpt lat="49.511299123987556" lon="9.228756856173275">
<ele>454.4</ele>
<time>2024-05-10T15:57:12Z</time>
</trkpt>
<trkpt lat="49.51130675151944" lon="9.22883028164506">
<ele>454.4</ele>
<time>2024-05-10T15:57:13Z</time>
</trkpt>
<trkpt lat="49.511318150907755" lon="9.228899935260417">
<ele>454.4</ele>
<time>2024-05-10T15:57:14Z</time>
</trkpt>
<trkpt lat="49.5113296341151" lon="9.22896950505674">
<ele>454.2</ele>
<time>2024-05-10T15:57:15Z</time>
</trkpt>
<trkpt lat="49.51133340597153" lon="9.22904963605106">
<ele>454.2</ele>
<time>2024-05-10T15:57:16Z</time>
</trkpt>
<trkpt lat="49.51134103350341" lon="9.229124989360573">
<ele>454.4</ele>
<time>2024-05-10T15:57:17Z</time>
</trkpt>
<trkpt lat="49.51134488917887" lon="9.229201264679432">
<ele>454.6</ele>
<time>2024-05-10T15:57:18Z</time>
</trkpt>
<trkpt lat="49.51135251671076" lon="9.229276617988944">
<ele>454.6</ele>
<time>2024-05-10T15:57:19Z</time>
</trkpt>
<trkpt lat="49.51136014424264" lon="9.2293462716043">
<ele>454.8</ele>
<time>2024-05-10T15:57:20Z</time>
</trkpt>
<trkpt lat="49.51137154363096" lon="9.229419697076082">
<ele>454.8</ele>
<time>2024-05-10T15:57:21Z</time>
</trkpt>
<trkpt lat="49.5113830268383" lon="9.229491194710135">
<ele>454.8</ele>
<time>2024-05-10T15:57:22Z</time>
</trkpt>
<trkpt lat="49.51139065437019" lon="9.229568475857375">
<ele>454.8</ele>
<time>2024-05-10T15:57:23Z</time>
</trkpt>
<trkpt lat="49.511398281902075" lon="9.22963997349143">
<ele>454.8</ele>
<time>2024-05-10T15:57:24Z</time>
</trkpt>
<trkpt lat="49.51140590943396" lon="9.229715326800942">
<ele>454.6</ele>
<time>2024-05-10T15:57:25Z</time>
</trkpt>
<trkpt lat="49.51140968129039" lon="9.229786824434996">
<ele>454.6</ele>
<time>2024-05-10T15:57:26Z</time>
</trkpt>
<trkpt lat="49.511417308822274" lon="9.229858322069049">
<ele>454.6</ele>
<time>2024-05-10T15:57:27Z</time>
</trkpt>
<trkpt lat="49.51142879202962" lon="9.229931831359863">
<ele>454.6</ele>
<time>2024-05-10T15:57:28Z</time>
</trkpt>
<trkpt lat="49.511436419561505" lon="9.230006178840997">
<ele>454.8</ele>
<time>2024-05-10T15:57:29Z</time>
</trkpt>
<trkpt lat="49.51144404709339" lon="9.230079604312778">
<ele>454.8</ele>
<time>2024-05-10T15:57:30Z</time>
</trkpt>
<trkpt lat="49.51145167462528" lon="9.23015495762229">
<ele>454.8</ele>
<time>2024-05-10T15:57:31Z</time>
</trkpt>
<trkpt lat="49.51146315783262" lon="9.230226455256345">
<ele>454.8</ele>
<time>2024-05-10T15:57:32Z</time>
</trkpt>
<trkpt lat="49.511478412896395" lon="9.23029325902462">
<ele>454.8</ele>
<time>2024-05-10T15:57:33Z</time>
</trkpt>
<trkpt lat="49.51148981228471" lon="9.230361906811597">
<ele>454.8</ele>
<time>2024-05-10T15:57:34Z</time>
</trkpt>
<trkpt lat="49.511497439816594" lon="9.23042862676084">
<ele>454.8</ele>
<time>2024-05-10T15:57:35Z</time>
</trkpt>
<trkpt lat="49.51150892302394" lon="9.23049157485366">
<ele>454.6</ele>
<time>2024-05-10T15:57:36Z</time>
</trkpt>
<trkpt lat="49.51152032241225" lon="9.230558378621936">
<ele>454.4</ele>
<time>2024-05-10T15:57:37Z</time>
</trkpt>
<trkpt lat="49.5115318056196" lon="9.230623170733452">
<ele>454.4</ele>
<time>2024-05-10T15:57:38Z</time>
</trkpt>
<trkpt lat="49.51154320500791" lon="9.230694752186537">
<ele>454.6</ele>
<time>2024-05-10T15:57:39Z</time>
</trkpt>
<trkpt lat="49.51154706068337" lon="9.23076817765832">
<ele>454.6</ele>
<time>2024-05-10T15:57:40Z</time>
</trkpt>
<trkpt lat="49.511554688215256" lon="9.23084537498653">
<ele>454.6</ele>
<time>2024-05-10T15:57:41Z</time>
</trkpt>
<trkpt lat="49.51156231574714" lon="9.230919806286693">
<ele>454.4</ele>
<time>2024-05-10T15:57:42Z</time>
</trkpt>
<trkpt lat="49.51156994327903" lon="9.230986526235938">
<ele>454.4</ele>
<time>2024-05-10T15:57:43Z</time>
</trkpt>
<trkpt lat="49.51156994327903" lon="9.231055257841945">
<ele>454.6</ele>
<time>2024-05-10T15:57:44Z</time>
</trkpt>
<trkpt lat="49.511577570810914" lon="9.231128683313727">
<ele>454.6</ele>
<time>2024-05-10T15:57:45Z</time>
</trkpt>
<trkpt lat="49.5115851983428" lon="9.231208730489016">
<ele>454.6</ele>
<time>2024-05-10T15:57:46Z</time>
</trkpt>
<trkpt lat="49.51159659773111" lon="9.231285089626908">
<ele>454.6</ele>
<time>2024-05-10T15:57:47Z</time>
</trkpt>
<trkpt lat="49.51160430908203" lon="9.2313632927835">
<ele>454.4</ele>
<time>2024-05-10T15:57:48Z</time>
</trkpt>
<trkpt lat="49.51161193661392" lon="9.231434790417552">
<ele>454.2</ele>
<time>2024-05-10T15:57:49Z</time>
</trkpt>
<trkpt lat="49.5116195641458" lon="9.231503438204529">
<ele>454.2</ele>
<time>2024-05-10T15:57:50Z</time>
</trkpt>
<trkpt lat="49.51162719167769" lon="9.231568314135076">
<ele>454.4</ele>
<time>2024-05-10T15:57:51Z</time>
</trkpt>
<trkpt lat="49.51162719167769" lon="9.231631262227893">
<ele>454.4</ele>
<time>2024-05-10T15:57:52Z</time>
</trkpt>
<trkpt lat="49.51163096353412" lon="9.231699910014868">
<ele>454.6</ele>
<time>2024-05-10T15:57:53Z</time>
</trkpt>
<trkpt lat="49.511638591066" lon="9.231768557801844">
<ele>454.6</ele>
<time>2024-05-10T15:57:54Z</time>
</trkpt>
<trkpt lat="49.51164621859789" lon="9.231844833120704">
<ele>454.8</ele>
<time>2024-05-10T15:57:55Z</time>
</trkpt>
<trkpt lat="49.51164621859789" lon="9.231916414573789">
<ele>455</ele>
<time>2024-05-10T15:57:56Z</time>
</trkpt>
<trkpt lat="49.51165007427335" lon="9.231987912207842">
<ele>455</ele>
<time>2024-05-10T15:57:57Z</time>
</trkpt>
<trkpt lat="49.511653846129775" lon="9.232058487832546">
<ele>455</ele>
<time>2024-05-10T15:57:58Z</time>
</trkpt>
<trkpt lat="49.511653846129775" lon="9.232128141447902">
<ele>455</ele>
<time>2024-05-10T15:57:59Z</time>
</trkpt>
<trkpt lat="49.511653846129775" lon="9.232199639081957">
<ele>455</ele>
<time>2024-05-10T15:58:00Z</time>
</trkpt>
<trkpt lat="49.51165007427335" lon="9.23227021470666">
<ele>455</ele>
<time>2024-05-10T15:58:01Z</time>
</trkpt>
<trkpt lat="49.511653846129775" lon="9.232337940484284">
<ele>455.2</ele>
<time>2024-05-10T15:58:02Z</time>
</trkpt>
<trkpt lat="49.51166147366166" lon="9.232410360127687">
<ele>455.2</ele>
<time>2024-05-10T15:58:03Z</time>
</trkpt>
<trkpt lat="49.51166147366166" lon="9.232471464201808">
<ele>455.2</ele>
<time>2024-05-10T15:58:04Z</time>
</trkpt>
<trkpt lat="49.51166147366166" lon="9.23254488967359">
<ele>455.2</ele>
<time>2024-05-10T15:58:05Z</time>
</trkpt>
<trkpt lat="49.51166532933712" lon="9.232618315145372">
<ele>455.2</ele>
<time>2024-05-10T15:58:06Z</time>
</trkpt>
<trkpt lat="49.511672956869006" lon="9.232689812779428">
<ele>455.4</ele>
<time>2024-05-10T15:58:07Z</time>
</trkpt>
<trkpt lat="49.51167672872543" lon="9.23276323825121">
<ele>455.4</ele>
<time>2024-05-10T15:58:08Z</time>
</trkpt>
<trkpt lat="49.51167672872543" lon="9.23282526433468">
<ele>455.4</ele>
<time>2024-05-10T15:58:09Z</time>
</trkpt>
<trkpt lat="49.511672956869006" lon="9.232886284589767">
<ele>455.4</ele>
<time>2024-05-10T15:58:10Z</time>
</trkpt>
<trkpt lat="49.51166910119355" lon="9.232954932376742">
<ele>455.4</ele>
<time>2024-05-10T15:58:11Z</time>
</trkpt>
<trkpt lat="49.51166532933712" lon="9.233028357848523">
<ele>455.4</ele>
<time>2024-05-10T15:58:12Z</time>
</trkpt>
<trkpt lat="49.511672956869006" lon="9.233108488842843">
<ele>455.6</ele>
<time>2024-05-10T15:58:13Z</time>
</trkpt>
<trkpt lat="49.51167672872543" lon="9.233188619837165">
<ele>455.8</ele>
<time>2024-05-10T15:58:14Z</time>
</trkpt>
<trkpt lat="49.511691983789206" lon="9.23327629454434">
<ele>455.8</ele>
<time>2024-05-10T15:58:15Z</time>
</trkpt>
<trkpt lat="49.51169961132109" lon="9.233358353376389">
<ele>456</ele>
<time>2024-05-10T15:58:16Z</time>
</trkpt>
<trkpt lat="49.51170723885298" lon="9.23343655653298">
<ele>456.2</ele>
<time>2024-05-10T15:58:17Z</time>
</trkpt>
<trkpt lat="49.511714866384864" lon="9.23351283185184">
<ele>456.2</ele>
<time>2024-05-10T15:58:18Z</time>
</trkpt>
<trkpt lat="49.51172249391675" lon="9.233586257323624">
<ele>456.2</ele>
<time>2024-05-10T15:58:19Z</time>
</trkpt>
<trkpt lat="49.511733977124095" lon="9.233659682795404">
<ele>456.4</ele>
<time>2024-05-10T15:58:20Z</time>
</trkpt>
<trkpt lat="49.51174537651241" lon="9.23373126424849">
<ele>456.4</ele>
<time>2024-05-10T15:58:21Z</time>
</trkpt>
<trkpt lat="49.51175685971975" lon="9.23381038941443">
<ele>456.6</ele>
<time>2024-05-10T15:58:22Z</time>
</trkpt>
<trkpt lat="49.51176825910807" lon="9.233881887048485">
<ele>456.6</ele>
<time>2024-05-10T15:58:23Z</time>
</trkpt>
<trkpt lat="49.51177974231541" lon="9.233955312520266">
<ele>456.6</ele>
<time>2024-05-10T15:58:24Z</time>
</trkpt>
<trkpt lat="49.51179122552276" lon="9.23402496613562">
<ele>456.4</ele>
<time>2024-05-10T15:58:25Z</time>
</trkpt>
<trkpt lat="49.51180262491107" lon="9.234091686084868">
<ele>456.4</ele>
<time>2024-05-10T15:58:26Z</time>
</trkpt>
<trkpt lat="49.511814108118415" lon="9.234161339700222">
<ele>456.4</ele>
<time>2024-05-10T15:58:27Z</time>
</trkpt>
<trkpt lat="49.51182936318219" lon="9.234234765172005">
<ele>456.6</ele>
<time>2024-05-10T15:58:28Z</time>
</trkpt>
<trkpt lat="49.51183699071407" lon="9.234308190643787">
<ele>456.8</ele>
<time>2024-05-10T15:58:29Z</time>
</trkpt>
<trkpt lat="49.511852245777845" lon="9.234378766268492">
<ele>457</ele>
<time>2024-05-10T15:58:30Z</time>
</trkpt>
<trkpt lat="49.51186364516616" lon="9.23444364219904">
<ele>457</ele>
<time>2024-05-10T15:58:31Z</time>
</trkpt>
<trkpt lat="49.511875128373504" lon="9.234506590291858">
<ele>457</ele>
<time>2024-05-10T15:58:32Z</time>
</trkpt>
<trkpt lat="49.51188652776182" lon="9.234575238078833">
<ele>457</ele>
<time>2024-05-10T15:58:33Z</time>
</trkpt>
<trkpt lat="49.51190178282559" lon="9.23464011400938">
<ele>457</ele>
<time>2024-05-10T15:58:34Z</time>
</trkpt>
<trkpt lat="49.51192089356482" lon="9.234706833958626">
<ele>457</ele>
<time>2024-05-10T15:58:35Z</time>
</trkpt>
<trkpt lat="49.511932292953134" lon="9.234780259430408">
<ele>457</ele>
<time>2024-05-10T15:58:36Z</time>
</trkpt>
<trkpt lat="49.51194377616048" lon="9.23485653474927">
<ele>456.8</ele>
<time>2024-05-10T15:58:37Z</time>
</trkpt>
<trkpt lat="49.511955259367824" lon="9.234926188364623">
<ele>456.8</ele>
<time>2024-05-10T15:58:38Z</time>
</trkpt>
<trkpt lat="49.5119705144316" lon="9.2349948361516">
<ele>457</ele>
<time>2024-05-10T15:58:39Z</time>
</trkpt>
<trkpt lat="49.51198576949537" lon="9.235058706253769">
<ele>457</ele>
<time>2024-05-10T15:58:40Z</time>
</trkpt>
<trkpt lat="49.51200102455914" lon="9.235130287706852">
<ele>457</ele>
<time>2024-05-10T15:58:41Z</time>
</trkpt>
<trkpt lat="49.51202005147934" lon="9.235198013484478">
<ele>457</ele>
<time>2024-05-10T15:58:42Z</time>
</trkpt>
<trkpt lat="49.51203530654311" lon="9.235266661271451">
<ele>457</ele>
<time>2024-05-10T15:58:43Z</time>
</trkpt>
<trkpt lat="49.51205056160688" lon="9.235335309058428">
<ele>457</ele>
<time>2024-05-10T15:58:44Z</time>
</trkpt>
<trkpt lat="49.51207344420254" lon="9.235403034836054">
<ele>457</ele>
<time>2024-05-10T15:58:45Z</time>
</trkpt>
<trkpt lat="49.51209255494177" lon="9.235467910766602">
<ele>457.2</ele>
<time>2024-05-10T15:58:46Z</time>
</trkpt>
<trkpt lat="49.51211543753743" lon="9.235533708706498">
<ele>457.2</ele>
<time>2024-05-10T15:58:47Z</time>
</trkpt>
<trkpt lat="49.51213832013309" lon="9.235596656799316">
<ele>457.4</ele>
<time>2024-05-10T15:58:48Z</time>
</trkpt>
<trkpt lat="49.51216505840421" lon="9.235665304586291">
<ele>457.4</ele>
<time>2024-05-10T15:58:49Z</time>
</trkpt>
<trkpt lat="49.512187940999866" lon="9.235732024535537">
<ele>457.6</ele>
<time>2024-05-10T15:58:50Z</time>
</trkpt>
<trkpt lat="49.512206967920065" lon="9.235797822475432">
<ele>457.6</ele>
<time>2024-05-10T15:58:51Z</time>
</trkpt>
<trkpt lat="49.51222985051572" lon="9.235861776396632">
<ele>457.8</ele>
<time>2024-05-10T15:58:52Z</time>
</trkpt>
<trkpt lat="49.51225273311138" lon="9.235919946804644">
<ele>457.8</ele>
<time>2024-05-10T15:58:53Z</time>
</trkpt>
<trkpt lat="49.51227561570704" lon="9.235979961231353">
<ele>458</ele>
<time>2024-05-10T15:58:54Z</time>
</trkpt>
<trkpt lat="49.51229472644627" lon="9.23604005947709">
<ele>458</ele>
<time>2024-05-10T15:58:55Z</time>
</trkpt>
<trkpt lat="49.51231760904193" lon="9.2360982298851">
<ele>458</ele>
<time>2024-05-10T15:58:56Z</time>
</trkpt>
<trkpt lat="49.51233671978116" lon="9.23616025596857">
<ele>458</ele>
<time>2024-05-10T15:58:57Z</time>
</trkpt>
<trkpt lat="49.51235960237682" lon="9.23622035421431">
<ele>458.2</ele>
<time>2024-05-10T15:58:58Z</time>
</trkpt>
<trkpt lat="49.51238248497248" lon="9.236274668946862">
<ele>458.2</ele>
<time>2024-05-10T15:58:59Z</time>
</trkpt>
<trkpt lat="49.51240151189267" lon="9.236328061670063">
<ele>458.4</ele>
<time>2024-05-10T15:59:00Z</time>
</trkpt>
<trkpt lat="49.51242062263191" lon="9.236386232078075">
<ele>458.4</ele>
<time>2024-05-10T15:59:01Z</time>
</trkpt>
<trkpt lat="49.512443505227566" lon="9.236445408314466">
<ele>458.4</ele>
<time>2024-05-10T15:59:02Z</time>
</trkpt>
<trkpt lat="49.5124626159668" lon="9.236504500731826">
<ele>458.2</ele>
<time>2024-05-10T15:59:03Z</time>
</trkpt>
<trkpt lat="49.512485498562455" lon="9.236561749130487">
<ele>458.2</ele>
<time>2024-05-10T15:59:04Z</time>
</trkpt>
<trkpt lat="49.51250838115811" lon="9.236619919538498">
<ele>458.2</ele>
<time>2024-05-10T15:59:05Z</time>
</trkpt>
<trkpt lat="49.512523636221886" lon="9.236681861802936">
<ele>458.4</ele>
<time>2024-05-10T15:59:06Z</time>
</trkpt>
<trkpt lat="49.512542663142085" lon="9.236740032210946">
<ele>458.4</ele>
<time>2024-05-10T15:59:07Z</time>
</trkpt>
<trkpt lat="49.5125694014132" lon="9.236798286437988">
<ele>458.6</ele>
<time>2024-05-10T15:59:08Z</time>
</trkpt>
<trkpt lat="49.51259228400886" lon="9.23685452900827">
<ele>458.6</ele>
<time>2024-05-10T15:59:09Z</time>
</trkpt>
<trkpt lat="49.51261516660452" lon="9.2369116935879">
<ele>458.8</ele>
<time>2024-05-10T15:59:10Z</time>
</trkpt>
<trkpt lat="49.51264190487563" lon="9.236960392445326">
<ele>458.8</ele>
<time>2024-05-10T15:59:11Z</time>
</trkpt>
<trkpt lat="49.51266855932772" lon="9.237005151808262">
<ele>458.8</ele>
<time>2024-05-10T15:59:12Z</time>
</trkpt>
<trkpt lat="49.512699069455266" lon="9.2370480671525">
<ele>458.8</ele>
<time>2024-05-10T15:59:13Z</time>
</trkpt>
<trkpt lat="49.51273343525827" lon="9.23708813264966">
<ele>459</ele>
<time>2024-05-10T15:59:14Z</time>
</trkpt>
<trkpt lat="49.512763945385814" lon="9.23712819814682">
<ele>459.2</ele>
<time>2024-05-10T15:59:15Z</time>
</trkpt>
<trkpt lat="49.512798227369785" lon="9.237165413796902">
<ele>459.4</ele>
<time>2024-05-10T15:59:16Z</time>
</trkpt>
<trkpt lat="49.51283644884825" lon="9.237203551456332">
<ele>459.8</ele>
<time>2024-05-10T15:59:17Z</time>
</trkpt>
<trkpt lat="49.51286695897579" lon="9.237243616953492">
<ele>459.8</ele>
<time>2024-05-10T15:59:18Z</time>
</trkpt>
<trkpt lat="49.51290886849165" lon="9.237276976928117">
<ele>460</ele>
<time>2024-05-10T15:59:19Z</time>
</trkpt>
<trkpt lat="49.51294700615108" lon="9.23730849288404">
<ele>460</ele>
<time>2024-05-10T15:59:20Z</time>
</trkpt>
<trkpt lat="49.51298137195408" lon="9.237343780696392">
<ele>460</ele>
<time>2024-05-10T15:59:21Z</time>
</trkpt>
<trkpt lat="49.513019509613514" lon="9.237375212833284">
<ele>460.2</ele>
<time>2024-05-10T15:59:22Z</time>
</trkpt>
<trkpt lat="49.51305387541652" lon="9.237402873113751">
<ele>460.2</ele>
<time>2024-05-10T15:59:23Z</time>
</trkpt>
<trkpt lat="49.51308815740049" lon="9.237429611384869">
<ele>460.4</ele>
<time>2024-05-10T15:59:24Z</time>
</trkpt>
<trkpt lat="49.51312629505992" lon="9.23746196553111">
<ele>460.4</ele>
<time>2024-05-10T15:59:25Z</time>
</trkpt>
<trkpt lat="49.51316066086292" lon="9.237496331334114">
<ele>460.6</ele>
<time>2024-05-10T15:59:26Z</time>
</trkpt>
<trkpt lat="49.51319879852235" lon="9.237528769299388">
<ele>460.6</ele>
<time>2024-05-10T15:59:27Z</time>
</trkpt>
<trkpt lat="49.51323316432536" lon="9.23756020143628">
<ele>460.6</ele>
<time>2024-05-10T15:59:28Z</time>
</trkpt>
<trkpt lat="49.51327130198479" lon="9.237594567239285">
<ele>460.6</ele>
<time>2024-05-10T15:59:29Z</time>
</trkpt>
<trkpt lat="49.51330181211233" lon="9.237629855051637">
<ele>460.4</ele>
<time>2024-05-10T15:59:30Z</time>
</trkpt>
<trkpt lat="49.513336177915335" lon="9.237667070701718">
<ele>460.4</ele>
<time>2024-05-10T15:59:31Z</time>
</trkpt>
<trkpt lat="49.51336668804288" lon="9.23770328052342">
<ele>460.4</ele>
<time>2024-05-10T15:59:32Z</time>
</trkpt>
<trkpt lat="49.51340482570231" lon="9.23774141818285">
<ele>460.2</ele>
<time>2024-05-10T15:59:33Z</time>
</trkpt>
<trkpt lat="49.51344673521817" lon="9.237785339355469">
<ele>460.2</ele>
<time>2024-05-10T15:59:34Z</time>
</trkpt>
<trkpt lat="49.51348110102117" lon="9.237830098718405">
<ele>460.2</ele>
<time>2024-05-10T15:59:35Z</time>
</trkpt>
<trkpt lat="49.5135192386806" lon="9.237876869738102">
<ele>460</ele>
<time>2024-05-10T15:59:36Z</time>
</trkpt>
<trkpt lat="49.513549748808146" lon="9.237924562767148">
<ele>460</ele>
<time>2024-05-10T15:59:37Z</time>
</trkpt>
<trkpt lat="49.51358025893569" lon="9.237973177805545">
<ele>460</ele>
<time>2024-05-10T15:59:38Z</time>
</trkpt>
<trkpt lat="49.51360699720681" lon="9.23801802098751">
<ele>460.2</ele>
<time>2024-05-10T15:59:39Z</time>
</trkpt>
<trkpt lat="49.51363750733435" lon="9.238063786178827">
<ele>460.2</ele>
<time>2024-05-10T15:59:40Z</time>
</trkpt>
<trkpt lat="49.513668017461896" lon="9.238108629360797">
<ele>460.2</ele>
<time>2024-05-10T15:59:41Z</time>
</trkpt>
<trkpt lat="49.51369475573301" lon="9.238149616867304">
<ele>460.2</ele>
<time>2024-05-10T15:59:42Z</time>
</trkpt>
<trkpt lat="49.5137214101851" lon="9.238182976841928">
<ele>460.2</ele>
<time>2024-05-10T15:59:43Z</time>
</trkpt>
<trkpt lat="49.513748148456216" lon="9.238228742033243">
<ele>460.4</ele>
<time>2024-05-10T15:59:44Z</time>
</trkpt>
<trkpt lat="49.51378243044019" lon="9.238269729539752">
<ele>460.4</ele>
<time>2024-05-10T15:59:45Z</time>
</trkpt>
<trkpt lat="49.51381679624319" lon="9.238301245495675">
<ele>460.4</ele>
<time>2024-05-10T15:59:46Z</time>
</trkpt>
<trkpt lat="49.51385493390262" lon="9.2383346054703">
<ele>460.4</ele>
<time>2024-05-10T15:59:47Z</time>
</trkpt>
<trkpt lat="49.51389307156205" lon="9.238367965444922">
<ele>460.4</ele>
<time>2024-05-10T15:59:48Z</time>
</trkpt>
<trkpt lat="49.51393506489694" lon="9.238405181095004">
<ele>460.2</ele>
<time>2024-05-10T15:59:49Z</time>
</trkpt>
<trkpt lat="49.51397320255637" lon="9.238441390916703">
<ele>460.4</ele>
<time>2024-05-10T15:59:50Z</time>
</trkpt>
<trkpt lat="49.51401519589126" lon="9.238479612395167">
<ele>460.4</ele>
<time>2024-05-10T15:59:51Z</time>
</trkpt>
<trkpt lat="49.51404947787523" lon="9.238521521911023">
<ele>460.4</ele>
<time>2024-05-10T15:59:52Z</time>
</trkpt>
<trkpt lat="49.51408761553466" lon="9.238561587408183">
<ele>460.4</ele>
<time>2024-05-10T15:59:53Z</time>
</trkpt>
<trkpt lat="49.514125753194094" lon="9.238604502752423">
<ele>460.4</ele>
<time>2024-05-10T15:59:54Z</time>
</trkpt>
<trkpt lat="49.5141601189971" lon="9.238646496087313">
<ele>460.4</ele>
<time>2024-05-10T15:59:55Z</time>
</trkpt>
<trkpt lat="49.51419062912464" lon="9.238686561584473">
<ele>460.2</ele>
<time>2024-05-10T15:59:56Z</time>
</trkpt>
<trkpt lat="49.514224994927645" lon="9.2387265432626">
<ele>460.2</ele>
<time>2024-05-10T15:59:57Z</time>
</trkpt>
<trkpt lat="49.514263132587075" lon="9.23876945860684">
<ele>460.2</ele>
<time>2024-05-10T15:59:58Z</time>
</trkpt>
<trkpt lat="49.51429364271462" lon="9.238816229626536">
<ele>460.2</ele>
<time>2024-05-10T15:59:59Z</time>
</trkpt>
<trkpt lat="49.514320297166705" lon="9.23886870034039">
<ele>460.2</ele>
<time>2024-05-10T16:00:00Z</time>
</trkpt>
<trkpt lat="49.51434317976236" lon="9.238924942910671">
<ele>460.4</ele>
<time>2024-05-10T16:00:01Z</time>
</trkpt>
<trkpt lat="49.514362290501595" lon="9.23898789100349">
<ele>460.4</ele>
<time>2024-05-10T16:00:02Z</time>
</trkpt>
<trkpt lat="49.51437754556537" lon="9.239053688943386">
<ele>460.4</ele>
<time>2024-05-10T16:00:03Z</time>
</trkpt>
<trkpt lat="49.51438517309725" lon="9.239112781360744">
<ele>460.4</ele>
<time>2024-05-10T16:00:04Z</time>
</trkpt>
<trkpt lat="49.51438517309725" lon="9.23918335698545">
<ele>460.4</ele>
<time>2024-05-10T16:00:05Z</time>
</trkpt>
<trkpt lat="49.51438517309725" lon="9.239246305078268">
<ele>460.4</ele>
<time>2024-05-10T16:00:06Z</time>
</trkpt>
<trkpt lat="49.514381401240826" lon="9.239314952865245">
<ele>460.6</ele>
<time>2024-05-10T16:00:07Z</time>
</trkpt>
<trkpt lat="49.514381401240826" lon="9.23937982879579">
<ele>460.6</ele>
<time>2024-05-10T16:00:08Z</time>
</trkpt>
<trkpt lat="49.51436991803348" lon="9.239448476582766">
<ele>460.8</ele>
<time>2024-05-10T16:00:09Z</time>
</trkpt>
<trkpt lat="49.51436991803348" lon="9.239513352513312">
<ele>461</ele>
<time>2024-05-10T16:00:10Z</time>
</trkpt>
<trkpt lat="49.51435851864517" lon="9.239569595083594">
<ele>461</ele>
<time>2024-05-10T16:00:11Z</time>
</trkpt>
<trkpt lat="49.51435089111328" lon="9.239628771319984">
<ele>461.2</ele>
<time>2024-05-10T16:00:12Z</time>
</trkpt>
<trkpt lat="49.51434317976236" lon="9.239687863737345">
<ele>461.2</ele>
<time>2024-05-10T16:00:13Z</time>
</trkpt>
<trkpt lat="49.514339407905936" lon="9.23975651152432">
<ele>461.4</ele>
<time>2024-05-10T16:00:14Z</time>
</trkpt>
<trkpt lat="49.51433555223048" lon="9.239825243130326">
<ele>461.4</ele>
<time>2024-05-10T16:00:15Z</time>
</trkpt>
<trkpt lat="49.51433178037405" lon="9.23989481292665">
<ele>461.4</ele>
<time>2024-05-10T16:00:16Z</time>
</trkpt>
<trkpt lat="49.51433178037405" lon="9.239965388551354">
<ele>461.4</ele>
<time>2024-05-10T16:00:17Z</time>
</trkpt>
<trkpt lat="49.51432792469859" lon="9.24003504216671">
<ele>461.4</ele>
<time>2024-05-10T16:00:18Z</time>
</trkpt>
<trkpt lat="49.51432792469859" lon="9.240103689953685">
<ele>461.4</ele>
<time>2024-05-10T16:00:19Z</time>
</trkpt>
<trkpt lat="49.51432415284216" lon="9.240173259750009">
<ele>461.4</ele>
<time>2024-05-10T16:00:20Z</time>
</trkpt>
<trkpt lat="49.51432415284216" lon="9.240240063518286">
<ele>461.4</ele>
<time>2024-05-10T16:00:21Z</time>
</trkpt>
<trkpt lat="49.51431652531028" lon="9.240306783467531">
<ele>461.4</ele>
<time>2024-05-10T16:00:22Z</time>
</trkpt>
<trkpt lat="49.51431652531028" lon="9.240374509245155">
<ele>461.4</ele>
<time>2024-05-10T16:00:23Z</time>
</trkpt>
<trkpt lat="49.51430889777839" lon="9.240445084869862">
<ele>461.4</ele>
<time>2024-05-10T16:00:24Z</time>
</trkpt>
<trkpt lat="49.514301270246506" lon="9.24051188863814">
<ele>461.4</ele>
<time>2024-05-10T16:00:25Z</time>
</trkpt>
<trkpt lat="49.514301270246506" lon="9.240581458434464">
<ele>461.2</ele>
<time>2024-05-10T16:00:26Z</time>
</trkpt>
<trkpt lat="49.51429364271462" lon="9.240650106221436">
<ele>461.2</ele>
<time>2024-05-10T16:00:27Z</time>
</trkpt>
<trkpt lat="49.51428601518273" lon="9.240716909989716">
<ele>461</ele>
<time>2024-05-10T16:00:28Z</time>
</trkpt>
<trkpt lat="49.514282159507275" lon="9.240788407623768">
<ele>460.8</ele>
<time>2024-05-10T16:00:29Z</time>
</trkpt>
<trkpt lat="49.51427838765085" lon="9.24086183309555">
<ele>460.6</ele>
<time>2024-05-10T16:00:30Z</time>
</trkpt>
<trkpt lat="49.51427453197539" lon="9.240938108414412">
<ele>460.6</ele>
<time>2024-05-10T16:00:31Z</time>
</trkpt>
<trkpt lat="49.514263132587075" lon="9.241018239408731">
<ele>460.4</ele>
<time>2024-05-10T16:00:32Z</time>
</trkpt>
<trkpt lat="49.514259276911616" lon="9.241096442565322">
<ele>460.2</ele>
<time>2024-05-10T16:00:33Z</time>
</trkpt>
<trkpt lat="49.514263132587075" lon="9.241174645721912">
<ele>460</ele>
<time>2024-05-10T16:00:34Z</time>
</trkpt>
<trkpt lat="49.514259276911616" lon="9.24126148223877">
<ele>460</ele>
<time>2024-05-10T16:00:35Z</time>
</trkpt>
<trkpt lat="49.51425550505519" lon="9.241350162774324">
<ele>460</ele>
<time>2024-05-10T16:00:36Z</time>
</trkpt>
<trkpt lat="49.51425164937973" lon="9.2414378374815">
<ele>459.8</ele>
<time>2024-05-10T16:00:37Z</time>
</trkpt>
<trkpt lat="49.51424402184784" lon="9.24153129570186">
<ele>459.8</ele>
<time>2024-05-10T16:00:38Z</time>
</trkpt>
<trkpt lat="49.51424402184784" lon="9.241624753922224">
<ele>459.6</ele>
<time>2024-05-10T16:00:39Z</time>
</trkpt>
<trkpt lat="49.51424402184784" lon="9.241706812754272">
<ele>459.4</ele>
<time>2024-05-10T16:00:40Z</time>
</trkpt>
<trkpt lat="49.5142478775233" lon="9.2417917214334">
<ele>459.2</ele>
<time>2024-05-10T16:00:41Z</time>
</trkpt>
<trkpt lat="49.51424402184784" lon="9.241867996752262">
<ele>459.2</ele>
<time>2024-05-10T16:00:42Z</time>
</trkpt>
<trkpt lat="49.51424402184784" lon="9.241954749450088">
<ele>459.2</ele>
<time>2024-05-10T16:00:43Z</time>
</trkpt>
<trkpt lat="49.51424024999142" lon="9.242043429985642">
<ele>459</ele>
<time>2024-05-10T16:00:44Z</time>
</trkpt>
<trkpt lat="49.51423639431596" lon="9.242133116349578">
<ele>459</ele>
<time>2024-05-10T16:00:45Z</time>
</trkpt>
<trkpt lat="49.51423262245953" lon="9.242219869047403">
<ele>459</ele>
<time>2024-05-10T16:00:46Z</time>
</trkpt>
<trkpt lat="49.51422876678407" lon="9.24230955541134">
<ele>458.8</ele>
<time>2024-05-10T16:00:47Z</time>
</trkpt>
<trkpt lat="49.514224994927645" lon="9.242395386099815">
<ele>458.8</ele>
<time>2024-05-10T16:00:48Z</time>
</trkpt>
<trkpt lat="49.514224994927645" lon="9.242476439103484">
<ele>458.6</ele>
<time>2024-05-10T16:00:49Z</time>
</trkpt>
<trkpt lat="49.514221139252186" lon="9.242554642260076">
<ele>458.4</ele>
<time>2024-05-10T16:00:50Z</time>
</trkpt>
<trkpt lat="49.51421736739576" lon="9.242634773254396">
<ele>458.2</ele>
<time>2024-05-10T16:00:51Z</time>
</trkpt>
<trkpt lat="49.5142135117203" lon="9.242712892591952">
<ele>458.2</ele>
<time>2024-05-10T16:00:52Z</time>
</trkpt>
<trkpt lat="49.51420973986387" lon="9.242788245901464">
<ele>458</ele>
<time>2024-05-10T16:00:53Z</time>
</trkpt>
<trkpt lat="49.51420973986387" lon="9.242868376895784">
<ele>457.8</ele>
<time>2024-05-10T16:00:54Z</time>
</trkpt>
<trkpt lat="49.51420973986387" lon="9.242946580052376">
<ele>457.8</ele>
<time>2024-05-10T16:00:55Z</time>
</trkpt>
<trkpt lat="49.51420973986387" lon="9.243026711046696">
<ele>457.6</ele>
<time>2024-05-10T16:00:56Z</time>
</trkpt>
<trkpt lat="49.514205884188414" lon="9.243109691888094">
<ele>457.4</ele>
<time>2024-05-10T16:00:57Z</time>
</trkpt>
<trkpt lat="49.51419825665653" lon="9.24319359473884">
<ele>457.4</ele>
<time>2024-05-10T16:00:58Z</time>
</trkpt>
<trkpt lat="49.5142135117203" lon="9.243267020210624">
<ele>457.4</ele>
<time>2024-05-10T16:00:59Z</time>
</trkpt>
<trkpt lat="49.51420973986387" lon="9.243346145376565">
<ele>457.2</ele>
<time>2024-05-10T16:01:00Z</time>
</trkpt>
<trkpt lat="49.514202112331986" lon="9.243434825912118">
<ele>457</ele>
<time>2024-05-10T16:01:01Z</time>
</trkpt>
<trkpt lat="49.5141944848001" lon="9.243523590266705">
<ele>457</ele>
<time>2024-05-10T16:01:02Z</time>
</trkpt>
<trkpt lat="49.51419062912464" lon="9.243615120649338">
<ele>457</ele>
<time>2024-05-10T16:01:03Z</time>
</trkpt>
<trkpt lat="49.514186857268214" lon="9.24371142871678">
<ele>456.8</ele>
<time>2024-05-10T16:01:04Z</time>
</trkpt>
<trkpt lat="49.514183001592755" lon="9.2438087426126">
<ele>457</ele>
<time>2024-05-10T16:01:05Z</time>
</trkpt>
<trkpt lat="49.514186857268214" lon="9.243903122842312">
<ele>457</ele>
<time>2024-05-10T16:01:06Z</time>
</trkpt>
<trkpt lat="49.514186857268214" lon="9.244000352919102">
<ele>456.8</ele>
<time>2024-05-10T16:01:07Z</time>
</trkpt>
<trkpt lat="49.514186857268214" lon="9.244091967120768">
<ele>456.6</ele>
<time>2024-05-10T16:01:08Z</time>
</trkpt>
<trkpt lat="49.514186857268214" lon="9.24418156966567">
<ele>456.2</ele>
<time>2024-05-10T16:01:09Z</time>
</trkpt>
<trkpt lat="49.514186857268214" lon="9.244266478344798">
<ele>455.8</ele>
<time>2024-05-10T16:01:10Z</time>
</trkpt>
<trkpt lat="49.514186857268214" lon="9.244357086718082">
<ele>455.6</ele>
<time>2024-05-10T16:01:11Z</time>
</trkpt>
<trkpt lat="49.514186857268214" lon="9.244428584352136">
<ele>455.4</ele>
<time>2024-05-10T16:01:12Z</time>
</trkpt>
<trkpt lat="49.514186857268214" lon="9.244491532444954">
<ele>455.4</ele>
<time>2024-05-10T16:01:13Z</time>
</trkpt>
<trkpt lat="49.514186857268214" lon="9.244563030079007">
<ele>455.4</ele>
<time>2024-05-10T16:01:14Z</time>
</trkpt>
<trkpt lat="49.51419062912464" lon="9.24463838338852">
<ele>455.4</ele>
<time>2024-05-10T16:01:15Z</time>
</trkpt>
<trkpt lat="49.5141944848001" lon="9.24471658654511">
<ele>455.6</ele>
<time>2024-05-10T16:01:16Z</time>
</trkpt>
<trkpt lat="49.514205884188414" lon="9.244791939854622">
<ele>455.6</ele>
<time>2024-05-10T16:01:17Z</time>
</trkpt>
<trkpt lat="49.51420973986387" lon="9.24487299285829">
<ele>455.6</ele>
<time>2024-05-10T16:01:18Z</time>
</trkpt>
<trkpt lat="49.5142135117203" lon="9.244959829375148">
<ele>455.4</ele>
<time>2024-05-10T16:01:19Z</time>
</trkpt>
<trkpt lat="49.5142135117203" lon="9.245044654235244">
<ele>455.4</ele>
<time>2024-05-10T16:01:20Z</time>
</trkpt>
<trkpt lat="49.51420973986387" lon="9.245144817978144">
<ele>455.4</ele>
<time>2024-05-10T16:01:21Z</time>
</trkpt>
<trkpt lat="49.51420973986387" lon="9.245243053883314">
<ele>455.2</ele>
<time>2024-05-10T16:01:22Z</time>
</trkpt>
<trkpt lat="49.5142135117203" lon="9.245340283960104">
<ele>455</ele>
<time>2024-05-10T16:01:23Z</time>
</trkpt>
<trkpt lat="49.51420973986387" lon="9.245441369712353">
<ele>454.8</ele>
<time>2024-05-10T16:01:24Z</time>
</trkpt>
<trkpt lat="49.514205884188414" lon="9.24554530531168">
<ele>454.8</ele>
<time>2024-05-10T16:01:25Z</time>
</trkpt>
<trkpt lat="49.514205884188414" lon="9.245651168748736">
<ele>454.6</ele>
<time>2024-05-10T16:01:26Z</time>
</trkpt>
<trkpt lat="49.51420973986387" lon="9.245758038014174">
<ele>454.6</ele>
<time>2024-05-10T16:01:27Z</time>
</trkpt>
<trkpt lat="49.51421736739576" lon="9.245860045775771">
<ele>454.6</ele>
<time>2024-05-10T16:01:28Z</time>
</trkpt>
<trkpt lat="49.514224994927645" lon="9.245953503996134">
<ele>454.4</ele>
<time>2024-05-10T16:01:29Z</time>
</trkpt>
<trkpt lat="49.51422876678407" lon="9.246049812063577">
<ele>454.2</ele>
<time>2024-05-10T16:01:30Z</time>
</trkpt>
<trkpt lat="49.51423262245953" lon="9.246143270283936">
<ele>454</ele>
<time>2024-05-10T16:01:31Z</time>
</trkpt>
<trkpt lat="49.51423639431596" lon="9.246230106800796">
<ele>453.8</ele>
<time>2024-05-10T16:01:32Z</time>
</trkpt>
<trkpt lat="49.51424402184784" lon="9.246311159804463">
<ele>453.6</ele>
<time>2024-05-10T16:01:33Z</time>
</trkpt>
<trkpt lat="49.5142478775233" lon="9.246390284970404">
<ele>453.4</ele>
<time>2024-05-10T16:01:34Z</time>
</trkpt>
<trkpt lat="49.51425164937973" lon="9.246471337974072">
<ele>453.2</ele>
<time>2024-05-10T16:01:35Z</time>
</trkpt>
<trkpt lat="49.51425550505519" lon="9.246546691283584">
<ele>453.2</ele>
<time>2024-05-10T16:01:36Z</time>
</trkpt>
<trkpt lat="49.514259276911616" lon="9.24661634489894">
<ele>453</ele>
<time>2024-05-10T16:01:37Z</time>
</trkpt>
<trkpt lat="49.514263132587075" lon="9.24669454805553">
<ele>453</ele>
<time>2024-05-10T16:01:38Z</time>
</trkpt>
<trkpt lat="49.5142669044435" lon="9.246776523068547">
<ele>452.8</ele>
<time>2024-05-10T16:01:39Z</time>
</trkpt>
<trkpt lat="49.5142669044435" lon="9.246854726225138">
<ele>452.8</ele>
<time>2024-05-10T16:01:40Z</time>
</trkpt>
<trkpt lat="49.51427453197539" lon="9.246932929381728">
<ele>452.6</ele>
<time>2024-05-10T16:01:41Z</time>
</trkpt>
<trkpt lat="49.51427838765085" lon="9.24701021052897">
<ele>452.6</ele>
<time>2024-05-10T16:01:42Z</time>
</trkpt>
<trkpt lat="49.51428978703916" lon="9.24708841368556">
<ele>452.6</ele>
<time>2024-05-10T16:01:43Z</time>
</trkpt>
<trkpt lat="49.514301270246506" lon="9.24716661684215">
<ele>452.6</ele>
<time>2024-05-10T16:01:44Z</time>
</trkpt>
<trkpt lat="49.51430504210293" lon="9.247238114476204">
<ele>452.8</ele>
<time>2024-05-10T16:01:45Z</time>
</trkpt>
<trkpt lat="49.51430889777839" lon="9.247311539947988">
<ele>452.8</ele>
<time>2024-05-10T16:01:46Z</time>
</trkpt>
<trkpt lat="49.51431652531028" lon="9.24738303758204">
<ele>452.8</ele>
<time>2024-05-10T16:01:47Z</time>
</trkpt>
<trkpt lat="49.51433555223048" lon="9.24746124073863">
<ele>452.8</ele>
<time>2024-05-10T16:01:48Z</time>
</trkpt>
<trkpt lat="49.51435089111328" lon="9.247536594048142">
<ele>452.8</ele>
<time>2024-05-10T16:01:49Z</time>
</trkpt>
<trkpt lat="49.514362290501595" lon="9.247616725042462">
<ele>452.8</ele>
<time>2024-05-10T16:01:50Z</time>
</trkpt>
<trkpt lat="49.51436991803348" lon="9.247708255425096">
<ele>452.6</ele>
<time>2024-05-10T16:01:51Z</time>
</trkpt>
<trkpt lat="49.51437754556537" lon="9.24779986962676">
<ele>452.6</ele>
<time>2024-05-10T16:01:52Z</time>
</trkpt>
<trkpt lat="49.51438517309725" lon="9.247893327847123">
<ele>452.6</ele>
<time>2024-05-10T16:01:53Z</time>
</trkpt>
<trkpt lat="49.5143966563046" lon="9.247984858229756">
<ele>452.4</ele>
<time>2024-05-10T16:01:54Z</time>
</trkpt>
<trkpt lat="49.51440428383648" lon="9.248069683089852">
<ele>452.4</ele>
<time>2024-05-10T16:01:55Z</time>
</trkpt>
<trkpt lat="49.51440805569291" lon="9.24815459176898">
<ele>452.4</ele>
<time>2024-05-10T16:01:56Z</time>
</trkpt>
<trkpt lat="49.5144156832248" lon="9.2482347227633">
<ele>452.4</ele>
<time>2024-05-10T16:01:57Z</time>
</trkpt>
<trkpt lat="49.514419538900256" lon="9.248316697776318">
<ele>452.6</ele>
<time>2024-05-10T16:01:58Z</time>
</trkpt>
<trkpt lat="49.51442331075668" lon="9.248398756608369">
<ele>452.6</ele>
<time>2024-05-10T16:01:59Z</time>
</trkpt>
<trkpt lat="49.51442331075668" lon="9.24848835915327">
<ele>452.6</ele>
<time>2024-05-10T16:02:00Z</time>
</trkpt>
<trkpt lat="49.51442331075668" lon="9.248578045517206">
<ele>452.6</ele>
<time>2024-05-10T16:02:01Z</time>
</trkpt>
<trkpt lat="49.514419538900256" lon="9.24866672605276">
<ele>452.6</ele>
<time>2024-05-10T16:02:02Z</time>
</trkpt>
<trkpt lat="49.51440805569291" lon="9.248760184273124">
<ele>452.4</ele>
<time>2024-05-10T16:02:03Z</time>
</trkpt>
<trkpt lat="49.5143966563046" lon="9.248849786818027">
<ele>452.2</ele>
<time>2024-05-10T16:02:04Z</time>
</trkpt>
<trkpt lat="49.51439280062914" lon="9.248936623334885">
<ele>452</ele>
<time>2024-05-10T16:02:05Z</time>
</trkpt>
<trkpt lat="49.51438517309725" lon="9.249030081555247">
<ele>451.6</ele>
<time>2024-05-10T16:02:06Z</time>
</trkpt>
<trkpt lat="49.514381401240826" lon="9.24912353977561">
<ele>451.4</ele>
<time>2024-05-10T16:02:07Z</time>
</trkpt>
<trkpt lat="49.51436991803348" lon="9.249217920005322">
<ele>451.2</ele>
<time>2024-05-10T16:02:08Z</time>
</trkpt>
<trkpt lat="49.514362290501595" lon="9.249306600540876">
<ele>450.8</ele>
<time>2024-05-10T16:02:09Z</time>
</trkpt>
<trkpt lat="49.51435851864517" lon="9.249389581382276">
<ele>450.6</ele>
<time>2024-05-10T16:02:10Z</time>
</trkpt>
<trkpt lat="49.51435466296971" lon="9.249464934691789">
<ele>450.4</ele>
<time>2024-05-10T16:02:11Z</time>
</trkpt>
<trkpt lat="49.51435466296971" lon="9.249533582478762">
<ele>450.4</ele>
<time>2024-05-10T16:02:12Z</time>
</trkpt>
<trkpt lat="49.51434317976236" lon="9.249601308256388">
<ele>450.4</ele>
<time>2024-05-10T16:02:13Z</time>
</trkpt>
<trkpt lat="49.51434317976236" lon="9.24967473372817">
<ele>450.4</ele>
<time>2024-05-10T16:02:14Z</time>
</trkpt>
<trkpt lat="49.51434317976236" lon="9.24975679256022">
<ele>450.6</ele>
<time>2024-05-10T16:02:15Z</time>
</trkpt>
<trkpt lat="49.514339407905936" lon="9.249843545258043">
<ele>450.6</ele>
<time>2024-05-10T16:02:16Z</time>
</trkpt>
<trkpt lat="49.51433555223048" lon="9.24993323162198">
<ele>450.8</ele>
<time>2024-05-10T16:02:17Z</time>
</trkpt>
<trkpt lat="49.51433178037405" lon="9.250019984319806">
<ele>450.8</ele>
<time>2024-05-10T16:02:18Z</time>
</trkpt>
<trkpt lat="49.51432792469859" lon="9.250102965161204">
<ele>450.8</ele>
<time>2024-05-10T16:02:19Z</time>
</trkpt>
<trkpt lat="49.51432415284216" lon="9.25019164569676">
<ele>450.6</ele>
<time>2024-05-10T16:02:20Z</time>
</trkpt>
<trkpt lat="49.51432415284216" lon="9.25026984885335">
<ele>450.6</ele>
<time>2024-05-10T16:02:21Z</time>
</trkpt>
<trkpt lat="49.514320297166705" lon="9.250340424478054">
<ele>450.4</ele>
<time>2024-05-10T16:02:22Z</time>
</trkpt>
<trkpt lat="49.514320297166705" lon="9.25040622241795">
<ele>450.2</ele>
<time>2024-05-10T16:02:23Z</time>
</trkpt>
<trkpt lat="49.51432415284216" lon="9.250474870204926">
<ele>450.2</ele>
<time>2024-05-10T16:02:24Z</time>
</trkpt>
<trkpt lat="49.51432415284216" lon="9.250539746135471">
<ele>450.2</ele>
<time>2024-05-10T16:02:25Z</time>
</trkpt>
<trkpt lat="49.51431652531028" lon="9.250615099444984">
<ele>450.2</ele>
<time>2024-05-10T16:02:26Z</time>
</trkpt>
<trkpt lat="49.51430889777839" lon="9.25068374723196">
<ele>450.4</ele>
<time>2024-05-10T16:02:27Z</time>
</trkpt>
<trkpt lat="49.514301270246506" lon="9.250756250694394">
<ele>450.4</ele>
<time>2024-05-10T16:02:28Z</time>
</trkpt>
<trkpt lat="49.51429364271462" lon="9.250829676166177">
<ele>450.6</ele>
<time>2024-05-10T16:02:29Z</time>
</trkpt>
<trkpt lat="49.514282159507275" lon="9.250911651179194">
<ele>450.6</ele>
<time>2024-05-10T16:02:30Z</time>
</trkpt>
<trkpt lat="49.514282159507275" lon="9.250989854335783">
<ele>450.8</ele>
<time>2024-05-10T16:02:31Z</time>
</trkpt>
<trkpt lat="49.514282159507275" lon="9.251065207645295">
<ele>450.8</ele>
<time>2024-05-10T16:02:32Z</time>
</trkpt>
<trkpt lat="49.51428601518273" lon="9.251143410801888">
<ele>450.8</ele>
<time>2024-05-10T16:02:33Z</time>
</trkpt>
<trkpt lat="49.51429364271462" lon="9.25121683627367">
<ele>450.8</ele>
<time>2024-05-10T16:02:34Z</time>
</trkpt>
<trkpt lat="49.514301270246506" lon="9.251291267573832">
<ele>450.8</ele>
<time>2024-05-10T16:02:35Z</time>
</trkpt>
<trkpt lat="49.51430504210293" lon="9.251363687217236">
<ele>450.8</ele>
<time>2024-05-10T16:02:36Z</time>
</trkpt>
<trkpt lat="49.51430889777839" lon="9.25143526867032">
<ele>450.6</ele>
<time>2024-05-10T16:02:37Z</time>
</trkpt>
<trkpt lat="49.51431266963482" lon="9.251502910628917">
<ele>450.6</ele>
<time>2024-05-10T16:02:38Z</time>
</trkpt>
<trkpt lat="49.51431266963482" lon="9.251566864550114">
<ele>450.6</ele>
<time>2024-05-10T16:02:39Z</time>
</trkpt>
<trkpt lat="49.51431266963482" lon="9.25163165666163">
<ele>450.6</ele>
<time>2024-05-10T16:02:40Z</time>
</trkpt>
<trkpt lat="49.51431266963482" lon="9.251698460429909">
<ele>450.6</ele>
<time>2024-05-10T16:02:41Z</time>
</trkpt>
<trkpt lat="49.51431652531028" lon="9.251754703000188">
<ele>450.6</ele>
<time>2024-05-10T16:02:42Z</time>
</trkpt>
<trkpt lat="49.514320297166705" lon="9.251814801245928">
<ele>450.6</ele>
<time>2024-05-10T16:02:43Z</time>
</trkpt>
<trkpt lat="49.51432415284216" lon="9.251876827329395">
<ele>450.4</ele>
<time>2024-05-10T16:02:44Z</time>
</trkpt>
<trkpt lat="49.51432792469859" lon="9.251934997737408">
<ele>450.4</ele>
<time>2024-05-10T16:02:45Z</time>
</trkpt>
<trkpt lat="49.51433178037405" lon="9.251997945830226">
<ele>450.4</ele>
<time>2024-05-10T16:02:46Z</time>
</trkpt>
<trkpt lat="49.51433178037405" lon="9.252057038247584">
<ele>450.4</ele>
<time>2024-05-10T16:02:47Z</time>
</trkpt>
<trkpt lat="49.51433178037405" lon="9.252115208655596">
<ele>450.4</ele>
<time>2024-05-10T16:02:48Z</time>
</trkpt>
<trkpt lat="49.51433555223048" lon="9.252176228910685">
<ele>450.2</ele>
<time>2024-05-10T16:02:49Z</time>
</trkpt>
<trkpt lat="49.51434317976236" lon="9.252240099012852">
<ele>450.2</ele>
<time>2024-05-10T16:02:50Z</time>
</trkpt>
<trkpt lat="49.51434703543782" lon="9.252301203086972">
<ele>450.2</ele>
<time>2024-05-10T16:02:51Z</time>
</trkpt>
<trkpt lat="49.51435089111328" lon="9.25236121751368">
<ele>450.2</ele>
<time>2024-05-10T16:02:52Z</time>
</trkpt>
<trkpt lat="49.51435466296971" lon="9.25242131575942">
<ele>450.2</ele>
<time>2024-05-10T16:02:53Z</time>
</trkpt>
<trkpt lat="49.51435851864517" lon="9.252489963546395">
<ele>450.2</ele>
<time>2024-05-10T16:02:54Z</time>
</trkpt>
<trkpt lat="49.514362290501595" lon="9.25255961716175">
<ele>450.2</ele>
<time>2024-05-10T16:02:55Z</time>
</trkpt>
<trkpt lat="49.51436614617705" lon="9.252633042633532">
<ele>450.2</ele>
<time>2024-05-10T16:02:56Z</time>
</trkpt>
<trkpt lat="49.51436614617705" lon="9.252706468105316">
<ele>450</ele>
<time>2024-05-10T16:02:57Z</time>
</trkpt>
<trkpt lat="49.51436991803348" lon="9.252781821414828">
<ele>450</ele>
<time>2024-05-10T16:02:58Z</time>
</trkpt>
<trkpt lat="49.51437377370894" lon="9.25285809673369">
<ele>450</ele>
<time>2024-05-10T16:02:59Z</time>
</trkpt>
<trkpt lat="49.514381401240826" lon="9.252935377880933">
<ele>450</ele>
<time>2024-05-10T16:03:00Z</time>
</trkpt>
<trkpt lat="49.51438517309725" lon="9.25301358103752">
<ele>449.8</ele>
<time>2024-05-10T16:03:01Z</time>
</trkpt>
<trkpt lat="49.51438902877271" lon="9.253091784194112">
<ele>449.6</ele>
<time>2024-05-10T16:03:02Z</time>
</trkpt>
<trkpt lat="49.5143966563046" lon="9.25317283719778">
<ele>449.4</ele>
<time>2024-05-10T16:03:03Z</time>
</trkpt>
<trkpt lat="49.5143966563046" lon="9.253258667886255">
<ele>449.4</ele>
<time>2024-05-10T16:03:04Z</time>
</trkpt>
<trkpt lat="49.5143966563046" lon="9.253345420584084">
<ele>449.4</ele>
<time>2024-05-10T16:03:05Z</time>
</trkpt>
<trkpt lat="49.5143966563046" lon="9.253433179110289">
<ele>449.4</ele>
<time>2024-05-10T16:03:06Z</time>
</trkpt>
<trkpt lat="49.51438902877271" lon="9.253521859645844">
<ele>449.4</ele>
<time>2024-05-10T16:03:07Z</time>
</trkpt>
<trkpt lat="49.51438902877271" lon="9.253615317866206">
<ele>449.2</ele>
<time>2024-05-10T16:03:08Z</time>
</trkpt>
<trkpt lat="49.51438517309725" lon="9.253705004230142">
<ele>449.2</ele>
<time>2024-05-10T16:03:09Z</time>
</trkpt>
<trkpt lat="49.514381401240826" lon="9.253796534612777">
<ele>449</ele>
<time>2024-05-10T16:03:10Z</time>
</trkpt>
<trkpt lat="49.51436991803348" lon="9.253879515454171">
<ele>448.8</ele>
<time>2024-05-10T16:03:11Z</time>
</trkpt>
<trkpt lat="49.51436991803348" lon="9.253956712782385">
<ele>448.6</ele>
<time>2024-05-10T16:03:12Z</time>
</trkpt>
<trkpt lat="49.51436614617705" lon="9.254032066091897">
<ele>448.6</ele>
<time>2024-05-10T16:03:13Z</time>
</trkpt>
<trkpt lat="49.51435851864517" lon="9.254113119095564">
<ele>448.4</ele>
<time>2024-05-10T16:03:14Z</time>
</trkpt>
<trkpt lat="49.51434703543782" lon="9.254197105765344">
<ele>448.2</ele>
<time>2024-05-10T16:03:15Z</time>
</trkpt>
<trkpt lat="49.514339407905936" lon="9.25428293645382">
<ele>448</ele>
<time>2024-05-10T16:03:16Z</time>
</trkpt>
<trkpt lat="49.51432792469859" lon="9.254369689151645">
<ele>447.8</ele>
<time>2024-05-10T16:03:17Z</time>
</trkpt>
<trkpt lat="49.51431652531028" lon="9.2544583696872">
<ele>447.6</ele>
<time>2024-05-10T16:03:18Z</time>
</trkpt>
<trkpt lat="49.51430504210293" lon="9.254547050222754">
<ele>447.4</ele>
<time>2024-05-10T16:03:19Z</time>
</trkpt>
<trkpt lat="49.51429741457105" lon="9.25463866442442">
<ele>447.4</ele>
<time>2024-05-10T16:03:20Z</time>
</trkpt>
<trkpt lat="49.51428978703916" lon="9.254732122644782">
<ele>447.2</ele>
<time>2024-05-10T16:03:21Z</time>
</trkpt>
<trkpt lat="49.514282159507275" lon="9.25481795333326">
<ele>447</ele>
<time>2024-05-10T16:03:22Z</time>
</trkpt>
<trkpt lat="49.51427076011896" lon="9.254897078499198">
<ele>447</ele>
<time>2024-05-10T16:03:23Z</time>
</trkpt>
<trkpt lat="49.5142669044435" lon="9.25497335381806">
<ele>446.8</ele>
<time>2024-05-10T16:03:24Z</time>
</trkpt>
<trkpt lat="49.514259276911616" lon="9.25505348481238">
<ele>446.8</ele>
<time>2024-05-10T16:03:25Z</time>
</trkpt>
<trkpt lat="49.514263132587075" lon="9.255134537816048">
<ele>446.8</ele>
<time>2024-05-10T16:03:26Z</time>
</trkpt>
<trkpt lat="49.514263132587075" lon="9.255214668810368">
<ele>446.8</ele>
<time>2024-05-10T16:03:27Z</time>
</trkpt>
<trkpt lat="49.5142669044435" lon="9.255296643823383">
<ele>446.6</ele>
<time>2024-05-10T16:03:28Z</time>
</trkpt>
<trkpt lat="49.5142669044435" lon="9.255378702655436">
<ele>446.6</ele>
<time>2024-05-10T16:03:29Z</time>
</trkpt>
<trkpt lat="49.5142669044435" lon="9.255461683496833">
<ele>446.2</ele>
<time>2024-05-10T16:03:30Z</time>
</trkpt>
<trkpt lat="49.514263132587075" lon="9.255551286041737">
<ele>446</ele>
<time>2024-05-10T16:03:31Z</time>
</trkpt>
<trkpt lat="49.514263132587075" lon="9.25564189441502">
<ele>445.8</ele>
<time>2024-05-10T16:03:32Z</time>
</trkpt>
<trkpt lat="49.514263132587075" lon="9.255738202482462">
<ele>445.2</ele>
<time>2024-05-10T16:03:33Z</time>
</trkpt>
<trkpt lat="49.514263132587075" lon="9.255829732865095">
<ele>445</ele>
<time>2024-05-10T16:03:34Z</time>
</trkpt>
<trkpt lat="49.5142669044435" lon="9.25592134706676">
<ele>444.8</ele>
<time>2024-05-10T16:03:35Z</time>
</trkpt>
<trkpt lat="49.51427076011896" lon="9.256011955440044">
<ele>444.8</ele>
<time>2024-05-10T16:03:36Z</time>
</trkpt>
<trkpt lat="49.51427076011896" lon="9.256092002615333">
<ele>444.8</ele>
<time>2024-05-10T16:03:37Z</time>
</trkpt>
<trkpt lat="49.51427838765085" lon="9.256166433915496">
<ele>444.8</ele>
<time>2024-05-10T16:03:38Z</time>
</trkpt>
<trkpt lat="49.51428601518273" lon="9.256237931549547">
<ele>444.8</ele>
<time>2024-05-10T16:03:39Z</time>
</trkpt>
<trkpt lat="49.51428978703916" lon="9.256303729489446">
<ele>444.8</ele>
<time>2024-05-10T16:03:40Z</time>
</trkpt>
<trkpt lat="49.51428978703916" lon="9.256366677582264">
<ele>444.8</ele>
<time>2024-05-10T16:03:41Z</time>
</trkpt>
<trkpt lat="49.51429364271462" lon="9.25643348135054">
<ele>444.8</ele>
<time>2024-05-10T16:03:42Z</time>
</trkpt>
<trkpt lat="49.51429741457105" lon="9.256503051146863">
<ele>444.6</ele>
<time>2024-05-10T16:03:43Z</time>
</trkpt>
<trkpt lat="49.51429741457105" lon="9.256569854915142">
<ele>444.4</ele>
<time>2024-05-10T16:03:44Z</time>
</trkpt>
<trkpt lat="49.514301270246506" lon="9.256638502702115">
<ele>444.2</ele>
<time>2024-05-10T16:03:45Z</time>
</trkpt>
<trkpt lat="49.514301270246506" lon="9.256712850183249">
<ele>444</ele>
<time>2024-05-10T16:03:46Z</time>
</trkpt>
<trkpt lat="49.51429741457105" lon="9.256786275655031">
<ele>444</ele>
<time>2024-05-10T16:03:47Z</time>
</trkpt>
<trkpt lat="49.51429741457105" lon="9.256856851279736">
<ele>444</ele>
<time>2024-05-10T16:03:48Z</time>
</trkpt>
<trkpt lat="49.51429741457105" lon="9.256930276751518">
<ele>443.8</ele>
<time>2024-05-10T16:03:49Z</time>
</trkpt>
<trkpt lat="49.51429741457105" lon="9.257006635889413">
<ele>443.8</ele>
<time>2024-05-10T16:03:50Z</time>
</trkpt>
<trkpt lat="49.51429741457105" lon="9.257084839046">
<ele>443.8</ele>
<time>2024-05-10T16:03:51Z</time>
</trkpt>
<trkpt lat="49.51429741457105" lon="9.257168741896749">
<ele>443.6</ele>
<time>2024-05-10T16:03:52Z</time>
</trkpt>
<trkpt lat="49.514301270246506" lon="9.25724501721561">
<ele>443.6</ele>
<time>2024-05-10T16:03:53Z</time>
</trkpt>
<trkpt lat="49.51430504210293" lon="9.2573232203722">
<ele>443.4</ele>
<time>2024-05-10T16:03:54Z</time>
</trkpt>
<trkpt lat="49.51430504210293" lon="9.25740142352879">
<ele>443.2</ele>
<time>2024-05-10T16:03:55Z</time>
</trkpt>
<trkpt lat="49.51430504210293" lon="9.25748348236084">
<ele>443.2</ele>
<time>2024-05-10T16:03:56Z</time>
</trkpt>
<trkpt lat="49.51430889777839" lon="9.257570235058663">
<ele>443</ele>
<time>2024-05-10T16:03:57Z</time>
</trkpt>
<trkpt lat="49.51431266963482" lon="9.257655143737791">
<ele>443</ele>
<time>2024-05-10T16:03:58Z</time>
</trkpt>
<trkpt lat="49.51431652531028" lon="9.257748601958156">
<ele>443</ele>
<time>2024-05-10T16:03:59Z</time>
</trkpt>
<trkpt lat="49.514320297166705" lon="9.257846754044294">
<ele>442.8</ele>
<time>2024-05-10T16:04:00Z</time>
</trkpt>
<trkpt lat="49.514320297166705" lon="9.257951695472002">
<ele>443</ele>
<time>2024-05-10T16:04:01Z</time>
</trkpt>
<trkpt lat="49.51432415284216" lon="9.258045153692365">
<ele>443</ele>
<time>2024-05-10T16:04:02Z</time>
</trkpt>
<trkpt lat="49.51432792469859" lon="9.258136684074998">
<ele>443</ele>
<time>2024-05-10T16:04:03Z</time>
</trkpt>
<trkpt lat="49.51432792469859" lon="9.25823014229536">
<ele>442.8</ele>
<time>2024-05-10T16:04:04Z</time>
</trkpt>
<trkpt lat="49.51433555223048" lon="9.258326450362802">
<ele>442.6</ele>
<time>2024-05-10T16:04:05Z</time>
</trkpt>
<trkpt lat="49.51434317976236" lon="9.258422842249274">
<ele>442.6</ele>
<time>2024-05-10T16:04:06Z</time>
</trkpt>
<trkpt lat="49.514339407905936" lon="9.25851152278483">
<ele>442.6</ele>
<time>2024-05-10T16:04:07Z</time>
</trkpt>
<trkpt lat="49.51433555223048" lon="9.258596347644923">
<ele>442.6</ele>
<time>2024-05-10T16:04:08Z</time>
</trkpt>
<trkpt lat="49.51433555223048" lon="9.258676478639243">
<ele>442.6</ele>
<time>2024-05-10T16:04:09Z</time>
</trkpt>
<trkpt lat="49.51434317976236" lon="9.2587651591748">
<ele>442.6</ele>
<time>2024-05-10T16:04:10Z</time>
</trkpt>
<trkpt lat="49.51435466296971" lon="9.258846212178469">
<ele>442.6</ele>
<time>2024-05-10T16:04:11Z</time>
</trkpt>
<trkpt lat="49.51436991803348" lon="9.258928271010518">
<ele>442.6</ele>
<time>2024-05-10T16:04:12Z</time>
</trkpt>
<trkpt lat="49.51437377370894" lon="9.259013095870614">
<ele>442.4</ele>
<time>2024-05-10T16:04:13Z</time>
</trkpt>
<trkpt lat="49.51437754556537" lon="9.259095154702663">
<ele>442.4</ele>
<time>2024-05-10T16:04:14Z</time>
</trkpt>
<trkpt lat="49.514381401240826" lon="9.259169502183797">
<ele>442.4</ele>
<time>2024-05-10T16:04:15Z</time>
</trkpt>
<trkpt lat="49.514381401240826" lon="9.25924301147461">
<ele>442.4</ele>
<time>2024-05-10T16:04:16Z</time>
</trkpt>
<trkpt lat="49.514381401240826" lon="9.259307803586124">
<ele>442.4</ele>
<time>2024-05-10T16:04:17Z</time>
</trkpt>
<trkpt lat="49.51438902877271" lon="9.259374607354404">
<ele>442.4</ele>
<time>2024-05-10T16:04:18Z</time>
</trkpt>
<trkpt lat="49.5143966563046" lon="9.25945465452969">
<ele>442.4</ele>
<time>2024-05-10T16:04:19Z</time>
</trkpt>
<trkpt lat="49.514400428161025" lon="9.259531935676932">
<ele>442.6</ele>
<time>2024-05-10T16:04:20Z</time>
</trkpt>
<trkpt lat="49.51440805569291" lon="9.25959488376975">
<ele>442.8</ele>
<time>2024-05-10T16:04:21Z</time>
</trkpt>
<trkpt lat="49.51440428383648" lon="9.259661603718996">
<ele>443</ele>
<time>2024-05-10T16:04:22Z</time>
</trkpt>
<trkpt lat="49.514400428161025" lon="9.259744584560394">
<ele>443</ele>
<time>2024-05-10T16:04:23Z</time>
</trkpt>
<trkpt lat="49.51440805569291" lon="9.25983326509595">
<ele>443</ele>
<time>2024-05-10T16:04:24Z</time>
</trkpt>
<trkpt lat="49.5144156832248" lon="9.259922951459885">
<ele>443</ele>
<time>2024-05-10T16:04:25Z</time>
</trkpt>
<trkpt lat="49.5144156832248" lon="9.260018337517977">
<ele>443</ele>
<time>2024-05-10T16:04:26Z</time>
</trkpt>
<trkpt lat="49.514419538900256" lon="9.260107018053532">
<ele>443</ele>
<time>2024-05-10T16:04:27Z</time>
</trkpt>
<trkpt lat="49.514419538900256" lon="9.260198548436165">
<ele>443</ele>
<time>2024-05-10T16:04:28Z</time>
</trkpt>
<trkpt lat="49.51442331075668" lon="9.26028530113399">
<ele>443.2</ele>
<time>2024-05-10T16:04:29Z</time>
</trkpt>
<trkpt lat="49.51443093828857" lon="9.260370209813118">
<ele>443.2</ele>
<time>2024-05-10T16:04:30Z</time>
</trkpt>
<trkpt lat="49.51443479396403" lon="9.260451262816789">
<ele>443.2</ele>
<time>2024-05-10T16:04:31Z</time>
</trkpt>
<trkpt lat="49.514442421495914" lon="9.260535165667534">
<ele>443.4</ele>
<time>2024-05-10T16:04:32Z</time>
</trkpt>
<trkpt lat="49.51444619335234" lon="9.260622002184393">
<ele>443.6</ele>
<time>2024-05-10T16:04:33Z</time>
</trkpt>
<trkpt lat="49.5144500490278" lon="9.260702133178713">
<ele>443.6</ele>
<time>2024-05-10T16:04:34Z</time>
</trkpt>
<trkpt lat="49.5144500490278" lon="9.260786958038809">
<ele>443.8</ele>
<time>2024-05-10T16:04:35Z</time>
</trkpt>
<trkpt lat="49.51445382088423" lon="9.26086138933897">
<ele>444</ele>
<time>2024-05-10T16:04:36Z</time>
</trkpt>
<trkpt lat="49.51445767655969" lon="9.26093665882945">
<ele>444</ele>
<time>2024-05-10T16:04:37Z</time>
</trkpt>
<trkpt lat="49.514461448416114" lon="9.261010168120263">
<ele>444</ele>
<time>2024-05-10T16:04:38Z</time>
</trkpt>
<trkpt lat="49.51446530409157" lon="9.26107688806951">
<ele>444.2</ele>
<time>2024-05-10T16:04:39Z</time>
</trkpt>
<trkpt lat="49.514469075948" lon="9.261133130639791">
<ele>444.2</ele>
<time>2024-05-10T16:04:40Z</time>
</trkpt>
<trkpt lat="49.51447293162346" lon="9.261193228885531">
<ele>444.4</ele>
<time>2024-05-10T16:04:41Z</time>
</trkpt>
<trkpt lat="49.514480559155345" lon="9.261253327131271">
<ele>444.4</ele>
<time>2024-05-10T16:04:42Z</time>
</trkpt>
<trkpt lat="49.51448818668723" lon="9.261306719854474">
<ele>444.6</ele>
<time>2024-05-10T16:04:43Z</time>
</trkpt>
<trkpt lat="49.51448818668723" lon="9.261368745937943">
<ele>444.6</ele>
<time>2024-05-10T16:04:44Z</time>
</trkpt>
<trkpt lat="49.51448818668723" lon="9.26143353804946">
<ele>444.8</ele>
<time>2024-05-10T16:04:45Z</time>
</trkpt>
<trkpt lat="49.51448818668723" lon="9.261500341817737">
<ele>445</ele>
<time>2024-05-10T16:04:46Z</time>
</trkpt>
<trkpt lat="49.51449195854366" lon="9.261558512225749">
<ele>445</ele>
<time>2024-05-10T16:04:47Z</time>
</trkpt>
<trkpt lat="49.51449581421912" lon="9.261621460318564">
<ele>445</ele>
<time>2024-05-10T16:04:48Z</time>
</trkpt>
<trkpt lat="49.51449581421912" lon="9.26168818026781">
<ele>445.2</ele>
<time>2024-05-10T16:04:49Z</time>
</trkpt>
<trkpt lat="49.514503441751" lon="9.26175305619836">
<ele>445.2</ele>
<time>2024-05-10T16:04:50Z</time>
</trkpt>
<trkpt lat="49.51450721360743" lon="9.261821703985332">
<ele>445.4</ele>
<time>2024-05-10T16:04:51Z</time>
</trkpt>
<trkpt lat="49.51451484113932" lon="9.261883730068805">
<ele>445.4</ele>
<time>2024-05-10T16:04:52Z</time>
</trkpt>
<trkpt lat="49.51452632434666" lon="9.261941900476812">
<ele>445.6</ele>
<time>2024-05-10T16:04:53Z</time>
</trkpt>
<trkpt lat="49.514541579410434" lon="9.261993365362288">
<ele>445.8</ele>
<time>2024-05-10T16:04:54Z</time>
</trkpt>
<trkpt lat="49.514541579410434" lon="9.26204198040068">
<ele>445.8</ele>
<time>2024-05-10T16:04:55Z</time>
</trkpt>
<trkpt lat="49.51453780755401" lon="9.262100150808692">
<ele>446.2</ele>
<time>2024-05-10T16:04:56Z</time>
</trkpt>
<trkpt lat="49.51453395187855" lon="9.262147843837738">
<ele>446.4</ele>
<time>2024-05-10T16:04:57Z</time>
</trkpt>
<trkpt lat="49.51453780755401" lon="9.2622050922364">
<ele>446.6</ele>
<time>2024-05-10T16:04:58Z</time>
</trkpt>
<trkpt lat="49.51454920694232" lon="9.262269968166947">
<ele>446.8</ele>
<time>2024-05-10T16:04:59Z</time>
</trkpt>
<trkpt lat="49.514556834474206" lon="9.262336688116193">
<ele>446.8</ele>
<time>2024-05-10T16:05:00Z</time>
</trkpt>
<trkpt lat="49.51456831768155" lon="9.262414891272783">
<ele>447</ele>
<time>2024-05-10T16:05:01Z</time>
</trkpt>
<trkpt lat="49.51456446200609" lon="9.262483539059758">
<ele>447</ele>
<time>2024-05-10T16:05:02Z</time>
</trkpt>
<trkpt lat="49.51457208953798" lon="9.262535087764263">
<ele>447</ele>
<time>2024-05-10T16:05:03Z</time>
</trkpt>
<trkpt lat="49.51457594521344" lon="9.262581774964929">
<ele>447.2</ele>
<time>2024-05-10T16:05:04Z</time>
</trkpt>
<trkpt lat="49.514579717069864" lon="9.262630390003324">
<ele>447.2</ele>
<time>2024-05-10T16:05:05Z</time>
</trkpt>
<trkpt lat="49.514579717069864" lon="9.262676239013672">
<ele>447.2</ele>
<time>2024-05-10T16:05:06Z</time>
</trkpt>
<trkpt lat="49.51458734460175" lon="9.262726781889796">
<ele>447.2</ele>
<time>2024-05-10T16:05:07Z</time>
</trkpt>
<trkpt lat="49.51458734460175" lon="9.262782018631697">
<ele>447.2</ele>
<time>2024-05-10T16:05:08Z</time>
</trkpt>
<trkpt lat="49.51458734460175" lon="9.26283641718328">
<ele>447.2</ele>
<time>2024-05-10T16:05:09Z</time>
</trkpt>
<trkpt lat="49.51458357274532" lon="9.262901293113828">
<ele>447.4</ele>
<time>2024-05-10T16:05:10Z</time>
</trkpt>
<trkpt lat="49.51458357274532" lon="9.262960385531189">
<ele>447.4</ele>
<time>2024-05-10T16:05:11Z</time>
</trkpt>
<trkpt lat="49.51458734460175" lon="9.263018555939198">
<ele>447.4</ele>
<time>2024-05-10T16:05:12Z</time>
</trkpt>
<trkpt lat="49.51458734460175" lon="9.263076726347208">
<ele>447.4</ele>
<time>2024-05-10T16:05:13Z</time>
</trkpt>
<trkpt lat="49.51458357274532" lon="9.26313489675522">
<ele>447.6</ele>
<time>2024-05-10T16:05:14Z</time>
</trkpt>
<trkpt lat="49.514579717069864" lon="9.26319021731615">
<ele>447.6</ele>
<time>2024-05-10T16:05:15Z</time>
</trkpt>
<trkpt lat="49.514579717069864" lon="9.26324838772416">
<ele>447.8</ele>
<time>2024-05-10T16:05:16Z</time>
</trkpt>
<trkpt lat="49.51457208953798" lon="9.26331041380763">
<ele>448</ele>
<time>2024-05-10T16:05:17Z</time>
</trkpt>
<trkpt lat="49.51457594521344" lon="9.263375205919148">
<ele>448</ele>
<time>2024-05-10T16:05:18Z</time>
</trkpt>
<trkpt lat="49.51457208953798" lon="9.26342960447073">
<ele>448</ele>
<time>2024-05-10T16:05:19Z</time>
</trkpt>
<trkpt lat="49.51457208953798" lon="9.263496324419975">
<ele>448.2</ele>
<time>2024-05-10T16:05:20Z</time>
</trkpt>
<trkpt lat="49.51456831768155" lon="9.263561200350525">
<ele>448.2</ele>
<time>2024-05-10T16:05:21Z</time>
</trkpt>
<trkpt lat="49.51456831768155" lon="9.263623226433992">
<ele>448.2</ele>
<time>2024-05-10T16:05:22Z</time>
</trkpt>
<trkpt lat="49.51457208953798" lon="9.263678546994925">
<ele>448.4</ele>
<time>2024-05-10T16:05:23Z</time>
</trkpt>
<trkpt lat="49.51457208953798" lon="9.26374526694417">
<ele>448.4</ele>
<time>2024-05-10T16:05:24Z</time>
</trkpt>
<trkpt lat="49.51457594521344" lon="9.26380343735218">
<ele>448.4</ele>
<time>2024-05-10T16:05:25Z</time>
</trkpt>
<trkpt lat="49.51457594521344" lon="9.263858757913113">
<ele>448.4</ele>
<time>2024-05-10T16:05:26Z</time>
</trkpt>
<trkpt lat="49.514579717069864" lon="9.26390645094216">
<ele>448.4</ele>
<time>2024-05-10T16:05:27Z</time>
</trkpt>
<trkpt lat="49.514579717069864" lon="9.26395984366536">
<ele>448.4</ele>
<time>2024-05-10T16:05:28Z</time>
</trkpt>
<trkpt lat="49.514579717069864" lon="9.264013236388564">
<ele>448.4</ele>
<time>2024-05-10T16:05:29Z</time>
</trkpt>
<trkpt lat="49.514579717069864" lon="9.264064785093067">
<ele>448.2</ele>
<time>2024-05-10T16:05:30Z</time>
</trkpt>
<trkpt lat="49.51458357274532" lon="9.26412295550108">
<ele>448.2</ele>
<time>2024-05-10T16:05:31Z</time>
</trkpt>
<trkpt lat="49.51458734460175" lon="9.264169642701743">
<ele>448.2</ele>
<time>2024-05-10T16:05:32Z</time>
</trkpt>
<trkpt lat="49.51458734460175" lon="9.26422119140625">
<ele>448.2</ele>
<time>2024-05-10T16:05:33Z</time>
</trkpt>
<trkpt lat="49.51459497213364" lon="9.264274584129453">
<ele>448</ele>
<time>2024-05-10T16:05:34Z</time>
</trkpt>
<trkpt lat="49.51459497213364" lon="9.264325127005575">
<ele>448</ele>
<time>2024-05-10T16:05:35Z</time>
</trkpt>
<trkpt lat="49.51459497213364" lon="9.26437851972878">
<ele>448</ele>
<time>2024-05-10T16:05:36Z</time>
</trkpt>
<trkpt lat="49.51459120027721" lon="9.264432834461331">
<ele>448</ele>
<time>2024-05-10T16:05:37Z</time>
</trkpt>
<trkpt lat="49.51459497213364" lon="9.264483377337456">
<ele>448</ele>
<time>2024-05-10T16:05:38Z</time>
</trkpt>
<trkpt lat="49.514598827809095" lon="9.264528220519423">
<ele>448</ele>
<time>2024-05-10T16:05:39Z</time>
</trkpt>
<trkpt lat="49.514598827809095" lon="9.264576835557818">
<ele>447.8</ele>
<time>2024-05-10T16:05:40Z</time>
</trkpt>
<trkpt lat="49.51460645534098" lon="9.264619750902057">
<ele>447.8</ele>
<time>2024-05-10T16:05:41Z</time>
</trkpt>
<trkpt lat="49.51460645534098" lon="9.264666521921754">
<ele>447.6</ele>
<time>2024-05-10T16:05:42Z</time>
</trkpt>
<trkpt lat="49.51460259966552" lon="9.264717986807227">
<ele>447.4</ele>
<time>2024-05-10T16:05:43Z</time>
</trkpt>
<trkpt lat="49.51459497213364" lon="9.264776157215238">
<ele>447.2</ele>
<time>2024-05-10T16:05:44Z</time>
</trkpt>
<trkpt lat="49.51459497213364" lon="9.264838183298709">
<ele>447.2</ele>
<time>2024-05-10T16:05:45Z</time>
</trkpt>
<trkpt lat="49.51458734460175" lon="9.264908758923411">
<ele>447</ele>
<time>2024-05-10T16:05:46Z</time>
</trkpt>
<trkpt lat="49.51458357274532" lon="9.264978328719735">
<ele>446.8</ele>
<time>2024-05-10T16:05:47Z</time>
</trkpt>
<trkpt lat="49.514579717069864" lon="9.265045132488012">
<ele>446.8</ele>
<time>2024-05-10T16:05:48Z</time>
</trkpt>
<trkpt lat="49.514579717069864" lon="9.265119479969144">
<ele>446.6</ele>
<time>2024-05-10T16:05:49Z</time>
</trkpt>
<trkpt lat="49.51458357274532" lon="9.265203466638924">
<ele>446.4</ele>
<time>2024-05-10T16:05:50Z</time>
</trkpt>
<trkpt lat="49.51459497213364" lon="9.265279741957784">
<ele>446.2</ele>
<time>2024-05-10T16:05:51Z</time>
</trkpt>
<trkpt lat="49.51461022719741" lon="9.265353167429566">
<ele>446</ele>
<time>2024-05-10T16:05:52Z</time>
</trkpt>
<trkpt lat="49.51462548226118" lon="9.265430448576808">
<ele>445.8</ele>
<time>2024-05-10T16:05:53Z</time>
</trkpt>
<trkpt lat="49.51464073732495" lon="9.265511501580477">
<ele>445.4</ele>
<time>2024-05-10T16:05:54Z</time>
</trkpt>
<trkpt lat="49.514655992388725" lon="9.265591548755763">
<ele>445.2</ele>
<time>2024-05-10T16:05:55Z</time>
</trkpt>
<trkpt lat="49.51467510312795" lon="9.265674529597163">
<ele>444.8</ele>
<time>2024-05-10T16:05:56Z</time>
</trkpt>
<trkpt lat="49.51469035819173" lon="9.265747955068946">
<ele>444.6</ele>
<time>2024-05-10T16:05:57Z</time>
</trkpt>
<trkpt lat="49.51470946893096" lon="9.265814758837225">
<ele>444.2</ele>
<time>2024-05-10T16:05:58Z</time>
</trkpt>
<trkpt lat="49.51473235152662" lon="9.265890112146735">
<ele>443.6</ele>
<time>2024-05-10T16:05:59Z</time>
</trkpt>
<trkpt lat="49.5147590059787" lon="9.265968315303326">
<ele>443.2</ele>
<time>2024-05-10T16:06:00Z</time>
</trkpt>
<trkpt lat="49.51478951610625" lon="9.266048362478614">
<ele>442.6</ele>
<time>2024-05-10T16:06:01Z</time>
</trkpt>
<trkpt lat="49.51482002623379" lon="9.266130421310663">
<ele>442.2</ele>
<time>2024-05-10T16:06:02Z</time>
</trkpt>
<trkpt lat="49.5148543920368" lon="9.266208624467254">
<ele>441.6</ele>
<time>2024-05-10T16:06:03Z</time>
</trkpt>
<trkpt lat="49.51488490216434" lon="9.266284899786116">
<ele>441.2</ele>
<time>2024-05-10T16:06:04Z</time>
</trkpt>
<trkpt lat="49.51491926796734" lon="9.26637358032167">
<ele>440.6</ele>
<time>2024-05-10T16:06:05Z</time>
</trkpt>
<trkpt lat="49.514953549951315" lon="9.26646988838911">
<ele>440</ele>
<time>2024-05-10T16:06:06Z</time>
</trkpt>
<trkpt lat="49.51498406007886" lon="9.26657197996974">
<ele>439.4</ele>
<time>2024-05-10T16:06:07Z</time>
</trkpt>
<trkpt lat="49.5150145702064" lon="9.266679687425494">
<ele>438.8</ele>
<time>2024-05-10T16:06:08Z</time>
</trkpt>
<trkpt lat="49.51504516415298" lon="9.266788400709627">
<ele>438.2</ele>
<time>2024-05-10T16:06:09Z</time>
</trkpt>
<trkpt lat="49.51507567428053" lon="9.266893342137337">
<ele>437.6</ele>
<time>2024-05-10T16:06:10Z</time>
</trkpt>
<trkpt lat="49.515109956264496" lon="9.266993505880237">
<ele>436.8</ele>
<time>2024-05-10T16:06:11Z</time>
</trkpt>
<trkpt lat="49.51513669453561" lon="9.267091741785409">
<ele>436.2</ele>
<time>2024-05-10T16:06:12Z</time>
</trkpt>
<trkpt lat="49.51515957713127" lon="9.26718520000577">
<ele>435.6</ele>
<time>2024-05-10T16:06:13Z</time>
</trkpt>
<trkpt lat="49.51518245972693" lon="9.267278658226132">
<ele>435</ele>
<time>2024-05-10T16:06:14Z</time>
</trkpt>
<trkpt lat="49.51520148664713" lon="9.267373038455844">
<ele>434.4</ele>
<time>2024-05-10T16:06:15Z</time>
</trkpt>
<trkpt lat="49.51522445306182" lon="9.267470352351664">
<ele>433.8</ele>
<time>2024-05-10T16:06:16Z</time>
</trkpt>
<trkpt lat="49.51523970812559" lon="9.267573282122612">
<ele>433.2</ele>
<time>2024-05-10T16:06:17Z</time>
</trkpt>
<trkpt lat="49.515251107513905" lon="9.267683001235127">
<ele>432.8</ele>
<time>2024-05-10T16:06:18Z</time>
</trkpt>
<trkpt lat="49.51525873504579" lon="9.26779456436634">
<ele>432</ele>
<time>2024-05-10T16:06:19Z</time>
</trkpt>
<trkpt lat="49.51526636257768" lon="9.267909983173013">
<ele>431.4</ele>
<time>2024-05-10T16:06:20Z</time>
</trkpt>
<trkpt lat="49.51527784578502" lon="9.268021546304226">
<ele>430.8</ele>
<time>2024-05-10T16:06:21Z</time>
</trkpt>
<trkpt lat="49.51528161764145" lon="9.26813310943544">
<ele>430.2</ele>
<time>2024-05-10T16:06:22Z</time>
</trkpt>
<trkpt lat="49.51528161764145" lon="9.268244672566652">
<ele>429.6</ele>
<time>2024-05-10T16:06:23Z</time>
</trkpt>
<trkpt lat="49.51527784578502" lon="9.268353385850787">
<ele>429</ele>
<time>2024-05-10T16:06:24Z</time>
</trkpt>
<trkpt lat="49.515270218253136" lon="9.268454471603036">
<ele>428.2</ele>
<time>2024-05-10T16:06:25Z</time>
</trkpt>
<trkpt lat="49.51525873504579" lon="9.268554635345936">
<ele>427.6</ele>
<time>2024-05-10T16:06:26Z</time>
</trkpt>
<trkpt lat="49.51524733565748" lon="9.268654799088836">
<ele>427</ele>
<time>2024-05-10T16:06:27Z</time>
</trkpt>
<trkpt lat="49.515232080593705" lon="9.268758734688165">
<ele>426.4</ele>
<time>2024-05-10T16:06:28Z</time>
</trkpt>
<trkpt lat="49.515212969854474" lon="9.26886459812522">
<ele>425.8</ele>
<time>2024-05-10T16:06:29Z</time>
</trkpt>
<trkpt lat="49.5151977147907" lon="9.268970461562276">
<ele>425.2</ele>
<time>2024-05-10T16:06:30Z</time>
</trkpt>
<trkpt lat="49.51518245972693" lon="9.269078252837062">
<ele>424.8</ele>
<time>2024-05-10T16:06:31Z</time>
</trkpt>
<trkpt lat="49.51516720466316" lon="9.269187888130546">
<ele>424.2</ele>
<time>2024-05-10T16:06:32Z</time>
</trkpt>
<trkpt lat="49.51515572145581" lon="9.26929852925241">
<ele>423.6</ele>
<time>2024-05-10T16:06:33Z</time>
</trkpt>
<trkpt lat="49.515148093923926" lon="9.269410092383623">
<ele>422.8</ele>
<time>2024-05-10T16:06:34Z</time>
</trkpt>
<trkpt lat="49.5151443220675" lon="9.269519727677109">
<ele>422.2</ele>
<time>2024-05-10T16:06:35Z</time>
</trkpt>
<trkpt lat="49.51514046639204" lon="9.269624669104816">
<ele>421.8</ele>
<time>2024-05-10T16:06:36Z</time>
</trkpt>
<trkpt lat="49.51513669453561" lon="9.269724832847714">
<ele>421.2</ele>
<time>2024-05-10T16:06:37Z</time>
</trkpt>
<trkpt lat="49.515132838860154" lon="9.269822062924504">
<ele>420.8</ele>
<time>2024-05-10T16:06:38Z</time>
</trkpt>
<trkpt lat="49.51512906700373" lon="9.269920298829676">
<ele>420.2</ele>
<time>2024-05-10T16:06:39Z</time>
</trkpt>
<trkpt lat="49.51512521132827" lon="9.270013757050036">
<ele>419.6</ele>
<time>2024-05-10T16:06:40Z</time>
</trkpt>
<trkpt lat="49.51512521132827" lon="9.27010822109878">
<ele>419.2</ele>
<time>2024-05-10T16:06:41Z</time>
</trkpt>
<trkpt lat="49.51512143947184" lon="9.270204529166222">
<ele>418.6</ele>
<time>2024-05-10T16:06:42Z</time>
</trkpt>
<trkpt lat="49.515113811939955" lon="9.270296981558204">
<ele>417.8</ele>
<time>2024-05-10T16:06:43Z</time>
</trkpt>
<trkpt lat="49.51509855687618" lon="9.270389517769216">
<ele>417.2</ele>
<time>2024-05-10T16:06:44Z</time>
</trkpt>
<trkpt lat="49.51507944613695" lon="9.270482053980231">
<ele>416.6</ele>
<time>2024-05-10T16:06:45Z</time>
</trkpt>
<trkpt lat="49.51505656354129" lon="9.27058121189475">
<ele>416</ele>
<time>2024-05-10T16:06:46Z</time>
</trkpt>
<trkpt lat="49.51504516415298" lon="9.27066134288907">
<ele>415.6</ele>
<time>2024-05-10T16:06:47Z</time>
</trkpt>
<trkpt lat="49.5150145702064" lon="9.270763350650668">
<ele>415</ele>
<time>2024-05-10T16:06:48Z</time>
</trkpt>
<trkpt lat="49.51498028822243" lon="9.270863514393568">
<ele>414.6</ele>
<time>2024-05-10T16:06:49Z</time>
</trkpt>
<trkpt lat="49.51494977809489" lon="9.270966527983546">
<ele>414</ele>
<time>2024-05-10T16:06:50Z</time>
</trkpt>
<trkpt lat="49.51492303982377" lon="9.27107616327703">
<ele>413.6</ele>
<time>2024-05-10T16:06:51Z</time>
</trkpt>
<trkpt lat="49.51488490216434" lon="9.271188732236624">
<ele>413.2</ele>
<time>2024-05-10T16:06:52Z</time>
</trkpt>
<trkpt lat="49.51484676450491" lon="9.271301217377186">
<ele>412.8</ele>
<time>2024-05-10T16:06:53Z</time>
</trkpt>
<trkpt lat="49.51480862684548" lon="9.271408002823591">
<ele>412.4</ele>
<time>2024-05-10T16:06:54Z</time>
</trkpt>
<trkpt lat="49.514778116717935" lon="9.271521493792534">
<ele>412</ele>
<time>2024-05-10T16:06:55Z</time>
</trkpt>
<trkpt lat="49.51475137844682" lon="9.27163314074278">
<ele>411.6</ele>
<time>2024-05-10T16:06:56Z</time>
</trkpt>
<trkpt lat="49.51472086831927" lon="9.271743698045611">
<ele>411.2</ele>
<time>2024-05-10T16:06:57Z</time>
</trkpt>
<trkpt lat="49.514697985723615" lon="9.271853417158129">
<ele>410.6</ele>
<time>2024-05-10T16:06:58Z</time>
</trkpt>
<trkpt lat="49.51467510312795" lon="9.271960202604532">
<ele>410.2</ele>
<time>2024-05-10T16:06:59Z</time>
</trkpt>
<trkpt lat="49.514659848064184" lon="9.27206321619451">
<ele>409.6</ele>
<time>2024-05-10T16:07:00Z</time>
</trkpt>
<trkpt lat="49.51464459300041" lon="9.27216337993741">
<ele>409.2</ele>
<time>2024-05-10T16:07:01Z</time>
</trkpt>
<trkpt lat="49.51462933793664" lon="9.27225868217647">
<ele>408.6</ele>
<time>2024-05-10T16:07:02Z</time>
</trkpt>
<trkpt lat="49.514617854729295" lon="9.272348368540406">
<ele>408.2</ele>
<time>2024-05-10T16:07:03Z</time>
</trkpt>
<trkpt lat="49.51460645534098" lon="9.272435121238232">
<ele>407.8</ele>
<time>2024-05-10T16:07:04Z</time>
</trkpt>
<trkpt lat="49.51459497213364" lon="9.272522879764438">
<ele>407.6</ele>
<time>2024-05-10T16:07:05Z</time>
</trkpt>
<trkpt lat="49.51458357274532" lon="9.272608710452914">
<ele>407.2</ele>
<time>2024-05-10T16:07:06Z</time>
</trkpt>
<trkpt lat="49.51457208953798" lon="9.27269454114139">
<ele>406.6</ele>
<time>2024-05-10T16:07:07Z</time>
</trkpt>
<trkpt lat="49.51456446200609" lon="9.272785149514675">
<ele>406.2</ele>
<time>2024-05-10T16:07:08Z</time>
</trkpt>
<trkpt lat="49.514560690149665" lon="9.27287290804088">
<ele>406</ele>
<time>2024-05-10T16:07:09Z</time>
</trkpt>
<trkpt lat="49.514556834474206" lon="9.272959660738708">
<ele>405.6</ele>
<time>2024-05-10T16:07:10Z</time>
</trkpt>
<trkpt lat="49.51455306261778" lon="9.27304834127426">
<ele>405.4</ele>
<time>2024-05-10T16:07:11Z</time>
</trkpt>
<trkpt lat="49.51454543508589" lon="9.273139871656896">
<ele>405.2</ele>
<time>2024-05-10T16:07:12Z</time>
</trkpt>
<trkpt lat="49.51453780755401" lon="9.273233413696287">
<ele>405</ele>
<time>2024-05-10T16:07:13Z</time>
</trkpt>
<trkpt lat="49.51453018002212" lon="9.27332871593535">
<ele>404.8</ele>
<time>2024-05-10T16:07:14Z</time>
</trkpt>
<trkpt lat="49.51452632434666" lon="9.27342695184052">
<ele>404.8</ele>
<time>2024-05-10T16:07:15Z</time>
</trkpt>
<trkpt lat="49.514518696814775" lon="9.273518482223151">
<ele>404.6</ele>
<time>2024-05-10T16:07:16Z</time>
</trkpt>
<trkpt lat="49.51451106928289" lon="9.273612946271896">
<ele>404.6</ele>
<time>2024-05-10T16:07:17Z</time>
</trkpt>
<trkpt lat="49.514499586075544" lon="9.273710176348686">
<ele>404.6</ele>
<time>2024-05-10T16:07:18Z</time>
</trkpt>
<trkpt lat="49.51448433101177" lon="9.27380656823516">
<ele>404.6</ele>
<time>2024-05-10T16:07:19Z</time>
</trkpt>
<trkpt lat="49.51447293162346" lon="9.273900026455522">
<ele>404.4</ele>
<time>2024-05-10T16:07:20Z</time>
</trkpt>
<trkpt lat="49.51445382088423" lon="9.273988706991076">
<ele>404.4</ele>
<time>2024-05-10T16:07:21Z</time>
</trkpt>
<trkpt lat="49.514438565820456" lon="9.27407638169825">
<ele>404.2</ele>
<time>2024-05-10T16:07:22Z</time>
</trkpt>
<trkpt lat="49.514419538900256" lon="9.274165146052836">
<ele>404</ele>
<time>2024-05-10T16:07:23Z</time>
</trkpt>
<trkpt lat="49.5143966563046" lon="9.274248043075204">
<ele>403.8</ele>
<time>2024-05-10T16:07:24Z</time>
</trkpt>
<trkpt lat="49.51436991803348" lon="9.274328174069524">
<ele>403.4</ele>
<time>2024-05-10T16:07:25Z</time>
</trkpt>
<trkpt lat="49.51433555223048" lon="9.274404449388385">
<ele>403</ele>
<time>2024-05-10T16:07:26Z</time>
</trkpt>
<trkpt lat="49.514301270246506" lon="9.274479802697895">
<ele>402.6</ele>
<time>2024-05-10T16:07:27Z</time>
</trkpt>
<trkpt lat="49.514263132587075" lon="9.274551384150982">
<ele>402.2</ele>
<time>2024-05-10T16:07:28Z</time>
</trkpt>
<trkpt lat="49.51422876678407" lon="9.274622881785035">
<ele>401.8</ele>
<time>2024-05-10T16:07:29Z</time>
</trkpt>
<trkpt lat="49.51419825665653" lon="9.27468960173428">
<ele>401.2</ele>
<time>2024-05-10T16:07:30Z</time>
</trkpt>
<trkpt lat="49.51417537406087" lon="9.274756405502558">
<ele>400.8</ele>
<time>2024-05-10T16:07:31Z</time>
</trkpt>
<trkpt lat="49.5141601189971" lon="9.274823125451803">
<ele>400.2</ele>
<time>2024-05-10T16:07:32Z</time>
</trkpt>
<trkpt lat="49.51415249146521" lon="9.274887079373002">
<ele>399.6</ele>
<time>2024-05-10T16:07:33Z</time>
</trkpt>
<trkpt lat="49.51415626332164" lon="9.274945249781013">
<ele>399.2</ele>
<time>2024-05-10T16:07:34Z</time>
</trkpt>
<trkpt lat="49.5141601189971" lon="9.274998642504215">
<ele>398.6</ele>
<time>2024-05-10T16:07:35Z</time>
</trkpt>
<trkpt lat="49.51416389085352" lon="9.275054885074496">
<ele>398</ele>
<time>2024-05-10T16:07:36Z</time>
</trkpt>
<trkpt lat="49.51417151838541" lon="9.275101656094192">
<ele>397.4</ele>
<time>2024-05-10T16:07:37Z</time>
</trkpt>
<trkpt lat="49.51417537406087" lon="9.275153120979668">
<ele>396.8</ele>
<time>2024-05-10T16:07:38Z</time>
</trkpt>
<trkpt lat="49.51419062912464" lon="9.275210369378328">
<ele>396.2</ele>
<time>2024-05-10T16:07:39Z</time>
</trkpt>
<trkpt lat="49.51431652531028" lon="9.27536484785378">
<ele>394.2</ele>
<time>2024-05-10T16:07:39Z</time>
</trkpt>
<trkpt lat="49.51443479396403" lon="9.275466855615376">
<ele>393.8</ele>
<time>2024-05-10T16:07:41Z</time>
</trkpt>
<trkpt lat="49.51449581421912" lon="9.27552024833858">
<ele>393.2</ele>
<time>2024-05-10T16:07:42Z</time>
</trkpt>
<trkpt lat="49.514556834474206" lon="9.27557841874659">
<ele>392.6</ele>
<time>2024-05-10T16:07:43Z</time>
</trkpt>
<trkpt lat="49.51461408287287" lon="9.275634745135903">
<ele>391.8</ele>
<time>2024-05-10T16:07:44Z</time>
</trkpt>
<trkpt lat="49.514659848064184" lon="9.275691909715531">
<ele>391</ele>
<time>2024-05-10T16:07:45Z</time>
</trkpt>
<trkpt lat="49.514701841399074" lon="9.27573960274458">
<ele>390.2</ele>
<time>2024-05-10T16:07:46Z</time>
</trkpt>
<trkpt lat="49.514739979058504" lon="9.275785367935896">
<ele>389.4</ele>
<time>2024-05-10T16:07:47Z</time>
</trkpt>
<trkpt lat="49.51476663351059" lon="9.27583976648748">
<ele>388.6</ele>
<time>2024-05-10T16:07:48Z</time>
</trkpt>
<trkpt lat="49.51479337178171" lon="9.275903636589646">
<ele>388</ele>
<time>2024-05-10T16:07:49Z</time>
</trkpt>
<trkpt lat="49.51482388190925" lon="9.275975218042731">
<ele>387.2</ele>
<time>2024-05-10T16:07:50Z</time>
</trkpt>
<trkpt lat="49.51485816389322" lon="9.276048643514514">
<ele>386.6</ele>
<time>2024-05-10T16:07:51Z</time>
</trkpt>
<trkpt lat="49.514896385371685" lon="9.27613346837461">
<ele>386</ele>
<time>2024-05-10T16:07:52Z</time>
</trkpt>
<trkpt lat="49.51492689549923" lon="9.276207899674771">
<ele>385.4</ele>
<time>2024-05-10T16:07:53Z</time>
</trkpt>
<trkpt lat="49.514953549951315" lon="9.276301357895136">
<ele>385</ele>
<time>2024-05-10T16:07:54Z</time>
</trkpt>
<trkpt lat="49.51496880501509" lon="9.276405293494465">
<ele>384.4</ele>
<time>2024-05-10T16:07:55Z</time>
</trkpt>
<trkpt lat="49.514991687610745" lon="9.276486346498132">
<ele>383.8</ele>
<time>2024-05-10T16:07:56Z</time>
</trkpt>
<trkpt lat="49.5150145702064" lon="9.276601765304804">
<ele>383.4</ele>
<time>2024-05-10T16:07:57Z</time>
</trkpt>
<trkpt lat="49.515033680945635" lon="9.276711400598288">
<ele>382.8</ele>
<time>2024-05-10T16:07:58Z</time>
</trkpt>
<trkpt lat="49.51504893600941" lon="9.27682489156723">
<ele>382.2</ele>
<time>2024-05-10T16:07:59Z</time>
</trkpt>
<trkpt lat="49.51506419107318" lon="9.276934610679746">
<ele>381.6</ele>
<time>2024-05-10T16:08:00Z</time>
</trkpt>
<trkpt lat="49.51507567428053" lon="9.277038546279073">
<ele>380.8</ele>
<time>2024-05-10T16:08:01Z</time>
</trkpt>
<trkpt lat="49.51508707366884" lon="9.277125298976898">
<ele>380</ele>
<time>2024-05-10T16:08:02Z</time>
</trkpt>
<trkpt lat="49.51509470120072" lon="9.27720450796187">
<ele>379.2</ele>
<time>2024-05-10T16:08:03Z</time>
</trkpt>
<trkpt lat="49.5150909293443" lon="9.277290338650346">
<ele>378.4</ele>
<time>2024-05-10T16:08:04Z</time>
</trkpt>
<trkpt lat="49.51508330181241" lon="9.27738186903298">
<ele>377.8</ele>
<time>2024-05-10T16:08:05Z</time>
</trkpt>
<trkpt lat="49.51506804674864" lon="9.277468621730804">
<ele>376.8</ele>
<time>2024-05-10T16:08:06Z</time>
</trkpt>
<trkpt lat="49.51504516415298" lon="9.277551602572204">
<ele>376</ele>
<time>2024-05-10T16:08:07Z</time>
</trkpt>
<trkpt lat="49.51501842588186" lon="9.277633661404252">
<ele>375.2</ele>
<time>2024-05-10T16:08:08Z</time>
</trkpt>
<trkpt lat="49.51499554328621" lon="9.277705159038304">
<ele>374.6</ele>
<time>2024-05-10T16:08:09Z</time>
</trkpt>
<trkpt lat="49.514972660690546" lon="9.277770034968851">
<ele>373.8</ele>
<time>2024-05-10T16:08:10Z</time>
</trkpt>
<trkpt lat="49.514953549951315" lon="9.277821499854326">
<ele>373</ele>
<time>2024-05-10T16:08:11Z</time>
</trkpt>
<trkpt lat="49.51492303982377" lon="9.27789207547903">
<ele>372</ele>
<time>2024-05-10T16:08:12Z</time>
</trkpt>
<trkpt lat="49.514896385371685" lon="9.277961729094386">
<ele>371.2</ele>
<time>2024-05-10T16:08:13Z</time>
</trkpt>
<trkpt lat="49.51488490216434" lon="9.278039932250977">
<ele>370.6</ele>
<time>2024-05-10T16:08:14Z</time>
</trkpt>
<trkpt lat="49.514877274632454" lon="9.278119979426265">
<ele>369.8</ele>
<time>2024-05-10T16:08:15Z</time>
</trkpt>
<trkpt lat="49.51487350277603" lon="9.278198182582855">
<ele>369</ele>
<time>2024-05-10T16:08:16Z</time>
</trkpt>
<trkpt lat="49.51486964710057" lon="9.278273535892367">
<ele>368.4</ele>
<time>2024-05-10T16:08:17Z</time>
</trkpt>
<trkpt lat="49.51487350277603" lon="9.278349811211228">
<ele>367.6</ele>
<time>2024-05-10T16:08:18Z</time>
</trkpt>
<trkpt lat="49.51487350277603" lon="9.27842516452074">
<ele>367</ele>
<time>2024-05-10T16:08:19Z</time>
</trkpt>
<trkpt lat="49.51487350277603" lon="9.278492890298368">
<ele>366.4</ele>
<time>2024-05-10T16:08:20Z</time>
</trkpt>
<trkpt lat="49.514877274632454" lon="9.278556760400534">
<ele>365.8</ele>
<time>2024-05-10T16:08:21Z</time>
</trkpt>
<trkpt lat="49.51488490216434" lon="9.278616858646274">
<ele>365.4</ele>
<time>2024-05-10T16:08:22Z</time>
</trkpt>
<trkpt lat="49.514892529696226" lon="9.278671257197855">
<ele>364.8</ele>
<time>2024-05-10T16:08:23Z</time>
</trkpt>
<trkpt lat="49.51490015722811" lon="9.278730349615216">
<ele>364.4</ele>
<time>2024-05-10T16:08:24Z</time>
</trkpt>
<trkpt lat="49.51490015722811" lon="9.278791369870303">
<ele>364</ele>
<time>2024-05-10T16:08:25Z</time>
</trkpt>
<trkpt lat="49.51490015722811" lon="9.278853395953774">
<ele>363.4</ele>
<time>2024-05-10T16:08:26Z</time>
</trkpt>
<trkpt lat="49.51490778476" lon="9.27892011590302">
<ele>363</ele>
<time>2024-05-10T16:08:27Z</time>
</trkpt>
<trkpt lat="49.51491164043546" lon="9.278989769518375">
<ele>362.6</ele>
<time>2024-05-10T16:08:28Z</time>
</trkpt>
<trkpt lat="49.51491164043546" lon="9.27905841730535">
<ele>362.2</ele>
<time>2024-05-10T16:08:29Z</time>
</trkpt>
<trkpt lat="49.51491164043546" lon="9.279125137254596">
<ele>362</ele>
<time>2024-05-10T16:08:30Z</time>
</trkpt>
<trkpt lat="49.51491926796734" lon="9.279188085347414">
<ele>361.6</ele>
<time>2024-05-10T16:08:31Z</time>
</trkpt>
<trkpt lat="49.51492689549923" lon="9.279243405908346">
<ele>361.4</ele>
<time>2024-05-10T16:08:32Z</time>
</trkpt>
<trkpt lat="49.51493829488754" lon="9.279301576316357">
<ele>361</ele>
<time>2024-05-10T16:08:33Z</time>
</trkpt>
<trkpt lat="49.51494592241943" lon="9.279363602399826">
<ele>360.8</ele>
<time>2024-05-10T16:08:34Z</time>
</trkpt>
<trkpt lat="49.514957405626774" lon="9.279426550492644">
<ele>360.6</ele>
<time>2024-05-10T16:08:35Z</time>
</trkpt>
<trkpt lat="49.51496503315866" lon="9.279488492757082">
<ele>360.6</ele>
<time>2024-05-10T16:08:36Z</time>
</trkpt>
<trkpt lat="49.51497643254697" lon="9.27955529652536">
<ele>360.4</ele>
<time>2024-05-10T16:08:37Z</time>
</trkpt>
<trkpt lat="49.514991687610745" lon="9.279624866321685">
<ele>360.2</ele>
<time>2024-05-10T16:08:38Z</time>
</trkpt>
<trkpt lat="49.51500694267452" lon="9.279703069478272">
<ele>360</ele>
<time>2024-05-10T16:08:39Z</time>
</trkpt>
<trkpt lat="49.51502605341375" lon="9.279783200472592">
<ele>359.8</ele>
<time>2024-05-10T16:08:40Z</time>
</trkpt>
<trkpt lat="49.51504130847752" lon="9.279865259304644">
<ele>359.8</ele>
<time>2024-05-10T16:08:41Z</time>
</trkpt>
<trkpt lat="49.51504893600941" lon="9.27994815632701">
<ele>359.6</ele>
<time>2024-05-10T16:08:42Z</time>
</trkpt>
<trkpt lat="49.515052791684866" lon="9.28002350963652">
<ele>359.6</ele>
<time>2024-05-10T16:08:43Z</time>
</trkpt>
<trkpt lat="49.51506041921675" lon="9.280093163251877">
<ele>359.6</ele>
<time>2024-05-10T16:08:44Z</time>
</trkpt>
<trkpt lat="49.51507567428053" lon="9.280158039182425">
<ele>359.6</ele>
<time>2024-05-10T16:08:45Z</time>
</trkpt>
<trkpt lat="49.51508707366884" lon="9.280236242339017">
<ele>359.6</ele>
<time>2024-05-10T16:08:46Z</time>
</trkpt>
<trkpt lat="49.51509855687618" lon="9.280313439667225">
<ele>359.6</ele>
<time>2024-05-10T16:08:47Z</time>
</trkpt>
<trkpt lat="49.515109956264496" lon="9.280391642823815">
<ele>359.6</ele>
<time>2024-05-10T16:08:48Z</time>
</trkpt>
<trkpt lat="49.51512143947184" lon="9.280473701655865">
<ele>359.6</ele>
<time>2024-05-10T16:08:49Z</time>
</trkpt>
<trkpt lat="49.51513669453561" lon="9.280553748831151">
<ele>359.4</ele>
<time>2024-05-10T16:08:50Z</time>
</trkpt>
<trkpt lat="49.51515572145581" lon="9.28063957951963">
<ele>359.2</ele>
<time>2024-05-10T16:08:51Z</time>
</trkpt>
<trkpt lat="49.515170976519585" lon="9.280726416036488">
<ele>359.2</ele>
<time>2024-05-10T16:08:52Z</time>
</trkpt>
<trkpt lat="49.5151977147907" lon="9.280810318887234">
<ele>359</ele>
<time>2024-05-10T16:08:53Z</time>
</trkpt>
<trkpt lat="49.51522445306182" lon="9.280883744359016">
<ele>358.8</ele>
<time>2024-05-10T16:08:54Z</time>
</trkpt>
<trkpt lat="49.51525873504579" lon="9.280953397974372">
<ele>358.6</ele>
<time>2024-05-10T16:08:55Z</time>
</trkpt>
<trkpt lat="49.51528161764145" lon="9.281024895608423">
<ele>358.4</ele>
<time>2024-05-10T16:08:56Z</time>
</trkpt>
<trkpt lat="49.51531212776899" lon="9.28109161555767">
<ele>358.2</ele>
<time>2024-05-10T16:08:57Z</time>
</trkpt>
<trkpt lat="49.515346493572" lon="9.281160347163675">
<ele>358</ele>
<time>2024-05-10T16:08:58Z</time>
</trkpt>
<trkpt lat="49.515380859375" lon="9.281225139275191">
<ele>357.6</ele>
<time>2024-05-10T16:08:59Z</time>
</trkpt>
<trkpt lat="49.51541514135897" lon="9.28129194304347">
<ele>357.4</ele>
<time>2024-05-10T16:09:00Z</time>
</trkpt>
<trkpt lat="49.515449507161975" lon="9.281361512839794">
<ele>357</ele>
<time>2024-05-10T16:09:01Z</time>
</trkpt>
<trkpt lat="49.51549141667783" lon="9.281434938311577">
<ele>356.6</ele>
<time>2024-05-10T16:09:02Z</time>
</trkpt>
<trkpt lat="49.51552955433726" lon="9.28151129744947">
<ele>356.2</ele>
<time>2024-05-10T16:09:03Z</time>
</trkpt>
<trkpt lat="49.515563920140266" lon="9.281591344624758">
<ele>355.8</ele>
<time>2024-05-10T16:09:04Z</time>
</trkpt>
<trkpt lat="49.515586802735925" lon="9.281682958826424">
<ele>355.4</ele>
<time>2024-05-10T16:09:05Z</time>
</trkpt>
<trkpt lat="49.51560968533158" lon="9.2817878164351">
<ele>355</ele>
<time>2024-05-10T16:09:06Z</time>
</trkpt>
<trkpt lat="49.51562116853893" lon="9.281894601881504">
<ele>354.6</ele>
<time>2024-05-10T16:09:07Z</time>
</trkpt>
<trkpt lat="49.515624940395355" lon="9.28200339898467">
<ele>354</ele>
<time>2024-05-10T16:09:08Z</time>
</trkpt>
<trkpt lat="49.51562116853893" lon="9.282114962115884">
<ele>353.8</ele>
<time>2024-05-10T16:09:09Z</time>
</trkpt>
<trkpt lat="49.51560968533158" lon="9.282228453084826">
<ele>353.4</ele>
<time>2024-05-10T16:09:10Z</time>
</trkpt>
<trkpt lat="49.515590658411384" lon="9.282342866063118">
<ele>353</ele>
<time>2024-05-10T16:09:11Z</time>
</trkpt>
<trkpt lat="49.515563920140266" lon="9.282448729500176">
<ele>352.4</ele>
<time>2024-05-10T16:09:12Z</time>
</trkpt>
<trkpt lat="49.51552192680538" lon="9.282554592937233">
<ele>351.8</ele>
<time>2024-05-10T16:09:13Z</time>
</trkpt>
<trkpt lat="49.51547238975763" lon="9.28265375085175">
<ele>351.2</ele>
<time>2024-05-10T16:09:14Z</time>
</trkpt>
<trkpt lat="49.51542276889086" lon="9.282745281234384">
<ele>350.8</ele>
<time>2024-05-10T16:09:15Z</time>
</trkpt>
<trkpt lat="49.515369376167655" lon="9.282828262075782">
<ele>350.2</ele>
<time>2024-05-10T16:09:16Z</time>
</trkpt>
<trkpt lat="49.51531598344445" lon="9.28291317075491">
<ele>349.8</ele>
<time>2024-05-10T16:09:17Z</time>
</trkpt>
<trkpt lat="49.51526259072125" lon="9.282995145767927">
<ele>349.2</ele>
<time>2024-05-10T16:09:18Z</time>
</trkpt>
<trkpt lat="49.51520919799805" lon="9.283076282590628">
<ele>348.6</ele>
<time>2024-05-10T16:09:19Z</time>
</trkpt>
<trkpt lat="49.51516720466316" lon="9.283163035288451">
<ele>348.2</ele>
<time>2024-05-10T16:09:20Z</time>
</trkpt>
<trkpt lat="49.51513669453561" lon="9.283258421346543">
<ele>347.6</ele>
<time>2024-05-10T16:09:21Z</time>
</trkpt>
<trkpt lat="49.51511758379638" lon="9.283359507098794">
<ele>347.2</ele>
<time>2024-05-10T16:09:22Z</time>
</trkpt>
<trkpt lat="49.51511758379638" lon="9.283476769924164">
<ele>346.8</ele>
<time>2024-05-10T16:09:23Z</time>
</trkpt>
<trkpt lat="49.515132838860154" lon="9.283588333055375">
<ele>346.4</ele>
<time>2024-05-10T16:09:24Z</time>
</trkpt>
<trkpt lat="49.51515572145581" lon="9.283693274483085">
<ele>345.8</ele>
<time>2024-05-10T16:09:25Z</time>
</trkpt>
<trkpt lat="49.51517860405147" lon="9.283793438225985">
<ele>345.6</ele>
<time>2024-05-10T16:09:26Z</time>
</trkpt>
<trkpt lat="49.51520534232259" lon="9.283883040770888">
<ele>345.2</ele>
<time>2024-05-10T16:09:27Z</time>
</trkpt>
<trkpt lat="49.515232080593705" lon="9.283973649144173">
<ele>345</ele>
<time>2024-05-10T16:09:28Z</time>
</trkpt>
<trkpt lat="49.51525873504579" lon="9.28406140767038">
<ele>344.6</ele>
<time>2024-05-10T16:09:29Z</time>
</trkpt>
<trkpt lat="49.51528547331691" lon="9.284150088205934">
<ele>344.4</ele>
<time>2024-05-10T16:09:30Z</time>
</trkpt>
<trkpt lat="49.51531598344445" lon="9.28423684090376">
<ele>344.2</ele>
<time>2024-05-10T16:09:31Z</time>
</trkpt>
<trkpt lat="49.51534263789654" lon="9.284319821745155">
<ele>344.2</ele>
<time>2024-05-10T16:09:32Z</time>
</trkpt>
<trkpt lat="49.515369376167655" lon="9.284399952739475">
<ele>344.2</ele>
<time>2024-05-10T16:09:33Z</time>
</trkpt>
<trkpt lat="49.5153998862952" lon="9.284481927752497">
<ele>344</ele>
<time>2024-05-10T16:09:34Z</time>
</trkpt>
<trkpt lat="49.51542662456632" lon="9.284556359052658">
<ele>344</ele>
<time>2024-05-10T16:09:35Z</time>
</trkpt>
<trkpt lat="49.51546090655029" lon="9.284627856686711">
<ele>344</ele>
<time>2024-05-10T16:09:36Z</time>
</trkpt>
<trkpt lat="49.51549141667783" lon="9.284700360149143">
<ele>343.8</ele>
<time>2024-05-10T16:09:37Z</time>
</trkpt>
<trkpt lat="49.51552955433726" lon="9.284769929945467">
<ele>343.6</ele>
<time>2024-05-10T16:09:38Z</time>
</trkpt>
<trkpt lat="49.51556014828384" lon="9.284839583560824">
<ele>343.6</ele>
<time>2024-05-10T16:09:39Z</time>
</trkpt>
<trkpt lat="49.515586802735925" lon="9.284914936870337">
<ele>343.6</ele>
<time>2024-05-10T16:09:40Z</time>
</trkpt>
<trkpt lat="49.51561731286347" lon="9.284990290179849">
<ele>343.4</ele>
<time>2024-05-10T16:09:41Z</time>
</trkpt>
<trkpt lat="49.515644051134586" lon="9.28506849333644">
<ele>343.4</ele>
<time>2024-05-10T16:09:42Z</time>
</trkpt>
<trkpt lat="49.51567456126213" lon="9.285148540511727">
<ele>343.2</ele>
<time>2024-05-10T16:09:43Z</time>
</trkpt>
<trkpt lat="49.51569744385779" lon="9.285229677334428">
<ele>343.2</ele>
<time>2024-05-10T16:09:44Z</time>
</trkpt>
<trkpt lat="49.51572032645345" lon="9.285311652347444">
<ele>343</ele>
<time>2024-05-10T16:09:45Z</time>
</trkpt>
<trkpt lat="49.51573943719268" lon="9.285389855504036">
<ele>342.8</ele>
<time>2024-05-10T16:09:46Z</time>
</trkpt>
<trkpt lat="49.51575846411288" lon="9.285469986498356">
<ele>342.6</ele>
<time>2024-05-10T16:09:47Z</time>
</trkpt>
<trkpt lat="49.515781346708536" lon="9.285548189654946">
<ele>342.4</ele>
<time>2024-05-10T16:09:48Z</time>
</trkpt>
<trkpt lat="49.51580045744777" lon="9.285628236830236">
<ele>342.2</ele>
<time>2024-05-10T16:09:49Z</time>
</trkpt>
<trkpt lat="49.51581571251154" lon="9.285708367824554">
<ele>342</ele>
<time>2024-05-10T16:09:50Z</time>
</trkpt>
<trkpt lat="49.51583096757531" lon="9.285788498818874">
<ele>341.8</ele>
<time>2024-05-10T16:09:51Z</time>
</trkpt>
<trkpt lat="49.51584999449551" lon="9.285868629813194">
<ele>341.8</ele>
<time>2024-05-10T16:09:52Z</time>
</trkpt>
<trkpt lat="49.51586524955928" lon="9.285946832969785">
<ele>341.6</ele>
<time>2024-05-10T16:09:53Z</time>
</trkpt>
<trkpt lat="49.515884360298514" lon="9.286021180450916">
<ele>341.6</ele>
<time>2024-05-10T16:09:54Z</time>
</trkpt>
<trkpt lat="49.51589961536229" lon="9.286098461598158">
<ele>341.4</ele>
<time>2024-05-10T16:09:55Z</time>
</trkpt>
<trkpt lat="49.51591109856963" lon="9.28617280907929">
<ele>341.4</ele>
<time>2024-05-10T16:09:56Z</time>
</trkpt>
<trkpt lat="49.515922497957945" lon="9.286250090226533">
<ele>341.4</ele>
<time>2024-05-10T16:09:57Z</time>
</trkpt>
<trkpt lat="49.51593398116529" lon="9.286325443536043">
<ele>341.2</ele>
<time>2024-05-10T16:09:58Z</time>
</trkpt>
<trkpt lat="49.5159453805536" lon="9.286401718854904">
<ele>341.2</ele>
<time>2024-05-10T16:09:59Z</time>
</trkpt>
<trkpt lat="49.51595686376095" lon="9.286477994173763">
<ele>341.2</ele>
<time>2024-05-10T16:10:00Z</time>
</trkpt>
<trkpt lat="49.515964491292834" lon="9.286553347483276">
<ele>341.2</ele>
<time>2024-05-10T16:10:01Z</time>
</trkpt>
<trkpt lat="49.51597211882472" lon="9.28662870079279">
<ele>341.2</ele>
<time>2024-05-10T16:10:02Z</time>
</trkpt>
<trkpt lat="49.515983518213034" lon="9.286701120436192">
<ele>341.2</ele>
<time>2024-05-10T16:10:03Z</time>
</trkpt>
<trkpt lat="49.51599114574492" lon="9.286776473745704">
<ele>341.2</ele>
<time>2024-05-10T16:10:04Z</time>
</trkpt>
<trkpt lat="49.515998773276806" lon="9.286853754892944">
<ele>341.2</ele>
<time>2024-05-10T16:10:05Z</time>
</trkpt>
<trkpt lat="49.51600640080869" lon="9.286928102374077">
<ele>341.2</ele>
<time>2024-05-10T16:10:06Z</time>
</trkpt>
<trkpt lat="49.51601025648415" lon="9.287005383521318">
<ele>341.2</ele>
<time>2024-05-10T16:10:07Z</time>
</trkpt>
<trkpt lat="49.51601788401604" lon="9.28707973100245">
<ele>341.2</ele>
<time>2024-05-10T16:10:08Z</time>
</trkpt>
<trkpt lat="49.51602551154792" lon="9.287157012149692">
<ele>341</ele>
<time>2024-05-10T16:10:09Z</time>
</trkpt>
<trkpt lat="49.51603313907981" lon="9.287233287468553">
<ele>341</ele>
<time>2024-05-10T16:10:10Z</time>
</trkpt>
<trkpt lat="49.516040766611695" lon="9.287308640778065">
<ele>340.8</ele>
<time>2024-05-10T16:10:11Z</time>
</trkpt>
<trkpt lat="49.51604839414358" lon="9.287383072078228">
<ele>340.8</ele>
<time>2024-05-10T16:10:12Z</time>
</trkpt>
<trkpt lat="49.51605602167547" lon="9.287460269406438">
<ele>340.8</ele>
<time>2024-05-10T16:10:13Z</time>
</trkpt>
<trkpt lat="49.516063649207354" lon="9.2875365447253">
<ele>340.8</ele>
<time>2024-05-10T16:10:14Z</time>
</trkpt>
<trkpt lat="49.51607127673924" lon="9.28761474788189">
<ele>340.8</ele>
<time>2024-05-10T16:10:15Z</time>
</trkpt>
<trkpt lat="49.5160751324147" lon="9.28769295103848">
<ele>340.8</ele>
<time>2024-05-10T16:10:16Z</time>
</trkpt>
<trkpt lat="49.516078904271126" lon="9.28777115419507">
<ele>340.8</ele>
<time>2024-05-10T16:10:17Z</time>
</trkpt>
<trkpt lat="49.51608653180301" lon="9.28785036318004">
<ele>340.8</ele>
<time>2024-05-10T16:10:18Z</time>
</trkpt>
<trkpt lat="49.51609038747847" lon="9.287926638498902">
<ele>340.6</ele>
<time>2024-05-10T16:10:19Z</time>
</trkpt>
<trkpt lat="49.51609801501036" lon="9.288001991808414">
<ele>340.6</ele>
<time>2024-05-10T16:10:20Z</time>
</trkpt>
<trkpt lat="49.516101786866784" lon="9.288078267127275">
<ele>340.6</ele>
<time>2024-05-10T16:10:21Z</time>
</trkpt>
<trkpt lat="49.516101786866784" lon="9.288151692599058">
<ele>340.4</ele>
<time>2024-05-10T16:10:22Z</time>
</trkpt>
<trkpt lat="49.516101786866784" lon="9.288223190233111">
<ele>340.4</ele>
<time>2024-05-10T16:10:23Z</time>
</trkpt>
<trkpt lat="49.516101786866784" lon="9.288292843848469">
<ele>340.4</ele>
<time>2024-05-10T16:10:24Z</time>
</trkpt>
<trkpt lat="49.516101786866784" lon="9.2883653473109">
<ele>340.4</ele>
<time>2024-05-10T16:10:25Z</time>
</trkpt>
<trkpt lat="49.516101786866784" lon="9.288432067260146">
<ele>340.4</ele>
<time>2024-05-10T16:10:26Z</time>
</trkpt>
<trkpt lat="49.51609801501036" lon="9.288496943190694">
<ele>340.2</ele>
<time>2024-05-10T16:10:27Z</time>
</trkpt>
<trkpt lat="49.51609038747847" lon="9.28856366313994">
<ele>340.2</ele>
<time>2024-05-10T16:10:28Z</time>
</trkpt>
<trkpt lat="49.51608653180301" lon="9.288629461079836">
<ele>340.2</ele>
<time>2024-05-10T16:10:29Z</time>
</trkpt>
<trkpt lat="49.516082759946585" lon="9.288698192685844">
<ele>340.2</ele>
<time>2024-05-10T16:10:30Z</time>
</trkpt>
<trkpt lat="49.5160751324147" lon="9.288766840472816">
<ele>340.2</ele>
<time>2024-05-10T16:10:31Z</time>
</trkpt>
<trkpt lat="49.51606750488281" lon="9.288834566250443">
<ele>340.2</ele>
<time>2024-05-10T16:10:32Z</time>
</trkpt>
<trkpt lat="49.516059793531895" lon="9.288905141875148">
<ele>340.2</ele>
<time>2024-05-10T16:10:33Z</time>
</trkpt>
<trkpt lat="49.51604839414358" lon="9.288974711671472">
<ele>340.4</ele>
<time>2024-05-10T16:10:34Z</time>
</trkpt>
<trkpt lat="49.51603313907981" lon="9.289046209305525">
<ele>340.4</ele>
<time>2024-05-10T16:10:35Z</time>
</trkpt>
<trkpt lat="49.516021655872464" lon="9.289113013073802">
<ele>340.4</ele>
<time>2024-05-10T16:10:36Z</time>
</trkpt>
<trkpt lat="49.51600640080869" lon="9.28917688317597">
<ele>340.4</ele>
<time>2024-05-10T16:10:37Z</time>
</trkpt>
<trkpt lat="49.51599114574492" lon="9.289237903431058">
<ele>340.4</ele>
<time>2024-05-10T16:10:38Z</time>
</trkpt>
<trkpt lat="49.51597589068115" lon="9.289299929514527">
<ele>340.4</ele>
<time>2024-05-10T16:10:39Z</time>
</trkpt>
<trkpt lat="49.51595686376095" lon="9.289360027760267">
<ele>340.4</ele>
<time>2024-05-10T16:10:40Z</time>
</trkpt>
<trkpt lat="49.51593775302172" lon="9.289421970024703">
<ele>340.4</ele>
<time>2024-05-10T16:10:41Z</time>
</trkpt>
<trkpt lat="49.51591872610152" lon="9.289482990279794">
<ele>340.6</ele>
<time>2024-05-10T16:10:42Z</time>
</trkpt>
<trkpt lat="49.51589961536229" lon="9.289540238678455">
<ele>340.6</ele>
<time>2024-05-10T16:10:43Z</time>
</trkpt>
<trkpt lat="49.51587673276663" lon="9.289598409086466">
<ele>340.8</ele>
<time>2024-05-10T16:10:44Z</time>
</trkpt>
<trkpt lat="49.5158576220274" lon="9.289656579494476">
<ele>340.8</ele>
<time>2024-05-10T16:10:45Z</time>
</trkpt>
<trkpt lat="49.51583473943174" lon="9.289718605577946">
<ele>341</ele>
<time>2024-05-10T16:10:46Z</time>
</trkpt>
<trkpt lat="49.51581185683608" lon="9.289779625833036">
<ele>341</ele>
<time>2024-05-10T16:10:47Z</time>
</trkpt>
<trkpt lat="49.51579282991588" lon="9.289838718250394">
<ele>341</ele>
<time>2024-05-10T16:10:48Z</time>
</trkpt>
<trkpt lat="49.51576994732022" lon="9.289899822324514">
<ele>341.2</ele>
<time>2024-05-10T16:10:49Z</time>
</trkpt>
<trkpt lat="49.51575083658099" lon="9.289961764588952">
<ele>341.2</ele>
<time>2024-05-10T16:10:50Z</time>
</trkpt>
<trkpt lat="49.51573180966079" lon="9.29002471268177">
<ele>341.4</ele>
<time>2024-05-10T16:10:51Z</time>
</trkpt>
<trkpt lat="49.51571269892156" lon="9.290091432631016">
<ele>341.4</ele>
<time>2024-05-10T16:10:52Z</time>
</trkpt>
<trkpt lat="49.51569744385779" lon="9.290156308561563">
<ele>341.6</ele>
<time>2024-05-10T16:10:53Z</time>
</trkpt>
<trkpt lat="49.51567833311856" lon="9.290224956348538">
<ele>341.8</ele>
<time>2024-05-10T16:10:54Z</time>
</trkpt>
<trkpt lat="49.51565930619836" lon="9.290293687954543">
<ele>341.8</ele>
<time>2024-05-10T16:10:55Z</time>
</trkpt>
<trkpt lat="49.515644051134586" lon="9.290363257750869">
<ele>342</ele>
<time>2024-05-10T16:10:56Z</time>
</trkpt>
<trkpt lat="49.515628796070814" lon="9.290434755384922">
<ele>342</ele>
<time>2024-05-10T16:10:57Z</time>
</trkpt>
<trkpt lat="49.51562116853893" lon="9.290510108694434">
<ele>342</ele>
<time>2024-05-10T16:10:58Z</time>
</trkpt>
<trkpt lat="49.51561354100704" lon="9.290586467832329">
<ele>342.2</ele>
<time>2024-05-10T16:10:59Z</time>
</trkpt>
<trkpt lat="49.51560968533158" lon="9.29065989330411">
<ele>342.2</ele>
<time>2024-05-10T16:11:00Z</time>
</trkpt>
<trkpt lat="49.51560968533158" lon="9.290731390938165">
<ele>342.2</ele>
<time>2024-05-10T16:11:01Z</time>
</trkpt>
<trkpt lat="49.5156020577997" lon="9.290798110887408">
<ele>342.2</ele>
<time>2024-05-10T16:11:02Z</time>
</trkpt>
<trkpt lat="49.5156020577997" lon="9.290864914655684">
<ele>342.2</ele>
<time>2024-05-10T16:11:03Z</time>
</trkpt>
<trkpt lat="49.5156020577997" lon="9.290921157225966">
<ele>342.4</ele>
<time>2024-05-10T16:11:04Z</time>
</trkpt>
<trkpt lat="49.5156020577997" lon="9.290980333462358">
<ele>342.4</ele>
<time>2024-05-10T16:11:05Z</time>
</trkpt>
<trkpt lat="49.51560591347515" lon="9.291034648194907">
<ele>342.4</ele>
<time>2024-05-10T16:11:06Z</time>
</trkpt>
<trkpt lat="49.51560968533158" lon="9.29109281860292">
<ele>342.4</ele>
<time>2024-05-10T16:11:07Z</time>
</trkpt>
<trkpt lat="49.51561731286347" lon="9.29115199483931">
<ele>342.4</ele>
<time>2024-05-10T16:11:08Z</time>
</trkpt>
<trkpt lat="49.515624940395355" lon="9.291206309571862">
<ele>342.6</ele>
<time>2024-05-10T16:11:09Z</time>
</trkpt>
<trkpt lat="49.515624940395355" lon="9.291261630132794">
<ele>342.8</ele>
<time>2024-05-10T16:11:10Z</time>
</trkpt>
<trkpt lat="49.515628796070814" lon="9.291313095018268">
<ele>342.8</ele>
<time>2024-05-10T16:11:11Z</time>
</trkpt>
<trkpt lat="49.51563256792724" lon="9.291361793875694">
<ele>343.2</ele>
<time>2024-05-10T16:11:12Z</time>
</trkpt>
<trkpt lat="49.51563256792724" lon="9.291404709219933">
<ele>343.4</ele>
<time>2024-05-10T16:11:13Z</time>
</trkpt>
<trkpt lat="49.5156364236027" lon="9.291442846879365">
<ele>343.6</ele>
<time>2024-05-10T16:11:14Z</time>
</trkpt>
<trkpt lat="49.5156364236027" lon="9.29148475639522">
<ele>344</ele>
<time>2024-05-10T16:11:15Z</time>
</trkpt>
<trkpt lat="49.5156364236027" lon="9.29152482189238">
<ele>344.2</ele>
<time>2024-05-10T16:11:16Z</time>
</trkpt>
<trkpt lat="49.51564019545913" lon="9.291562959551811">
<ele>344.6</ele>
<time>2024-05-10T16:11:17Z</time>
</trkpt>
<trkpt lat="49.51564019545913" lon="9.291614508256316">
<ele>344.8</ele>
<time>2024-05-10T16:11:18Z</time>
</trkpt>
<trkpt lat="49.51564782299101" lon="9.29166697897017">
<ele>345.2</ele>
<time>2024-05-10T16:11:19Z</time>
</trkpt>
<trkpt lat="49.5156554505229" lon="9.291718443855643">
<ele>345.6</ele>
<time>2024-05-10T16:11:20Z</time>
</trkpt>
<trkpt lat="49.515663078054786" lon="9.291783319786193">
<ele>345.8</ele>
<time>2024-05-10T16:11:21Z</time>
</trkpt>
<trkpt lat="49.515663078054786" lon="9.291839562356472">
<ele>346.2</ele>
<time>2024-05-10T16:11:22Z</time>
</trkpt>
<trkpt lat="49.515666933730245" lon="9.291879627853632">
<ele>346.6</ele>
<time>2024-05-10T16:11:23Z</time>
</trkpt>
<trkpt lat="49.51565930619836" lon="9.291906282305716">
<ele>346.8</ele>
<time>2024-05-10T16:11:24Z</time>
</trkpt>
<trkpt lat="49.5156554505229" lon="9.29196353070438">
<ele>347.2</ele>
<time>2024-05-10T16:11:25Z</time>
</trkpt>
<trkpt lat="49.51565930619836" lon="9.292011223733423">
<ele>347.6</ele>
<time>2024-05-10T16:11:26Z</time>
</trkpt>
<trkpt lat="49.51565930619836" lon="9.29205983877182">
<ele>347.8</ele>
<time>2024-05-10T16:11:27Z</time>
</trkpt>
<trkpt lat="49.51565930619836" lon="9.292113231495025">
<ele>348</ele>
<time>2024-05-10T16:11:28Z</time>
</trkpt>
<trkpt lat="49.51565930619836" lon="9.292166708037255">
<ele>348.4</ele>
<time>2024-05-10T16:11:29Z</time>
</trkpt>
<trkpt lat="49.515663078054786" lon="9.292221944779158">
<ele>348.6</ele>
<time>2024-05-10T16:11:30Z</time>
</trkpt>
<trkpt lat="49.515666933730245" lon="9.292271565645931">
<ele>348.8</ele>
<time>2024-05-10T16:11:31Z</time>
</trkpt>
<trkpt lat="49.515666933730245" lon="9.2923164088279">
<ele>349.2</ele>
<time>2024-05-10T16:11:32Z</time>
</trkpt>
<trkpt lat="49.515663078054786" lon="9.292366951704023">
<ele>349.4</ele>
<time>2024-05-10T16:11:33Z</time>
</trkpt>
<trkpt lat="49.515663078054786" lon="9.29241363890469">
<ele>349.6</ele>
<time>2024-05-10T16:11:34Z</time>
</trkpt>
<trkpt lat="49.515663078054786" lon="9.29245177656412">
<ele>349.8</ele>
<time>2024-05-10T16:11:35Z</time>
</trkpt>
<trkpt lat="49.51565930619836" lon="9.292498547583818">
<ele>349.8</ele>
<time>2024-05-10T16:11:36Z</time>
</trkpt>
<trkpt lat="49.51565930619836" lon="9.292536685243247">
<ele>350</ele>
<time>2024-05-10T16:11:37Z</time>
</trkpt>
<trkpt lat="49.515663078054786" lon="9.292563423514366">
<ele>350.2</ele>
<time>2024-05-10T16:11:38Z</time>
</trkpt>
<trkpt lat="49.515666933730245" lon="9.292588233947754">
<ele>350.4</ele>
<time>2024-05-10T16:11:39Z</time>
</trkpt>
<trkpt lat="49.51567833311856" lon="9.29263492114842">
<ele>350.6</ele>
<time>2024-05-10T16:11:40Z</time>
</trkpt>
<trkpt lat="49.51568596065045" lon="9.29269309155643">
<ele>350.8</ele>
<time>2024-05-10T16:11:41Z</time>
</trkpt>
<trkpt lat="49.51569744385779" lon="9.292741706594825">
<ele>351</ele>
<time>2024-05-10T16:11:42Z</time>
</trkpt>
<trkpt lat="49.515705071389675" lon="9.29279325529933">
<ele>351.4</ele>
<time>2024-05-10T16:11:43Z</time>
</trkpt>
<trkpt lat="49.5157088432461" lon="9.292844720184805">
<ele>351.6</ele>
<time>2024-05-10T16:11:44Z</time>
</trkpt>
<trkpt lat="49.51571269892156" lon="9.292896268889308">
<ele>351.8</ele>
<time>2024-05-10T16:11:45Z</time>
</trkpt>
<trkpt lat="49.51571647077799" lon="9.29294966161251">
<ele>352</ele>
<time>2024-05-10T16:11:46Z</time>
</trkpt>
<trkpt lat="49.51572795398533" lon="9.293013531714678">
<ele>352.4</ele>
<time>2024-05-10T16:11:47Z</time>
</trkpt>
<trkpt lat="49.51573943719268" lon="9.29306977428496">
<ele>352.6</ele>
<time>2024-05-10T16:11:48Z</time>
</trkpt>
<trkpt lat="49.515747064724565" lon="9.293133728206158">
<ele>352.8</ele>
<time>2024-05-10T16:11:49Z</time>
</trkpt>
<trkpt lat="49.51575846411288" lon="9.29320329800248">
<ele>353</ele>
<time>2024-05-10T16:11:50Z</time>
</trkpt>
<trkpt lat="49.51576994732022" lon="9.29326817393303">
<ele>353.2</ele>
<time>2024-05-10T16:11:51Z</time>
</trkpt>
<trkpt lat="49.51577371917665" lon="9.293330116197469">
<ele>353.4</ele>
<time>2024-05-10T16:11:52Z</time>
</trkpt>
<trkpt lat="49.515781346708536" lon="9.29338451474905">
<ele>353.6</ele>
<time>2024-05-10T16:11:53Z</time>
</trkpt>
<trkpt lat="49.51578897424042" lon="9.293436985462904">
<ele>353.8</ele>
<time>2024-05-10T16:11:54Z</time>
</trkpt>
<trkpt lat="49.51579282991588" lon="9.29348367266357">
<ele>354</ele>
<time>2024-05-10T16:11:55Z</time>
</trkpt>
<trkpt lat="49.51578897424042" lon="9.293535221368074">
<ele>354.2</ele>
<time>2024-05-10T16:11:56Z</time>
</trkpt>
<trkpt lat="49.515785202383995" lon="9.29358291439712">
<ele>354.4</ele>
<time>2024-05-10T16:11:57Z</time>
</trkpt>
<trkpt lat="49.515785202383995" lon="9.29364200681448">
<ele>354.6</ele>
<time>2024-05-10T16:11:58Z</time>
</trkpt>
<trkpt lat="49.51579660177231" lon="9.29369824938476">
<ele>354.8</ele>
<time>2024-05-10T16:11:59Z</time>
</trkpt>
<trkpt lat="49.51580045744777" lon="9.293751642107964">
<ele>355</ele>
<time>2024-05-10T16:12:00Z</time>
</trkpt>
<trkpt lat="49.51580045744777" lon="9.293805118650198">
<ele>355.2</ele>
<time>2024-05-10T16:12:01Z</time>
</trkpt>
<trkpt lat="49.51580045744777" lon="9.293854655697942">
<ele>355.4</ele>
<time>2024-05-10T16:12:02Z</time>
</trkpt>
<trkpt lat="49.51579660177231" lon="9.293908048421144">
<ele>355.6</ele>
<time>2024-05-10T16:12:03Z</time>
</trkpt>
<trkpt lat="49.51579282991588" lon="9.29396152496338">
<ele>355.6</ele>
<time>2024-05-10T16:12:04Z</time>
</trkpt>
<trkpt lat="49.51578897424042" lon="9.294025395065546">
<ele>355.8</ele>
<time>2024-05-10T16:12:05Z</time>
</trkpt>
<trkpt lat="49.51579660177231" lon="9.294090270996094">
<ele>356</ele>
<time>2024-05-10T16:12:06Z</time>
</trkpt>
<trkpt lat="49.51579660177231" lon="9.294163696467876">
<ele>356.2</ele>
<time>2024-05-10T16:12:07Z</time>
</trkpt>
<trkpt lat="49.51579660177231" lon="9.2942332662642">
<ele>356.2</ele>
<time>2024-05-10T16:12:08Z</time>
</trkpt>
<trkpt lat="49.51578897424042" lon="9.294298142194748">
<ele>356.4</ele>
<time>2024-05-10T16:12:09Z</time>
</trkpt>
<trkpt lat="49.515781346708536" lon="9.294366789981725">
<ele>356.6</ele>
<time>2024-05-10T16:12:10Z</time>
</trkpt>
<trkpt lat="49.515781346708536" lon="9.294434515759349">
<ele>357</ele>
<time>2024-05-10T16:12:11Z</time>
</trkpt>
<trkpt lat="49.51576609164477" lon="9.294496458023788">
<ele>357.2</ele>
<time>2024-05-10T16:12:12Z</time>
</trkpt>
<trkpt lat="49.51575469225645" lon="9.294558484107256">
<ele>357.4</ele>
<time>2024-05-10T16:12:13Z</time>
</trkpt>
<trkpt lat="49.515743209049106" lon="9.294614726677535">
<ele>357.8</ele>
<time>2024-05-10T16:12:14Z</time>
</trkpt>
<trkpt lat="49.515724182128906" lon="9.294672897085547">
<ele>358</ele>
<time>2024-05-10T16:12:15Z</time>
</trkpt>
<trkpt lat="49.515705071389675" lon="9.294721595942974">
<ele>358.2</ele>
<time>2024-05-10T16:12:16Z</time>
</trkpt>
<trkpt lat="49.5156898163259" lon="9.294776916503906">
<ele>358.4</ele>
<time>2024-05-10T16:12:17Z</time>
</trkpt>
<trkpt lat="49.51567456126213" lon="9.29482838138938">
<ele>358.6</ele>
<time>2024-05-10T16:12:18Z</time>
</trkpt>
<trkpt lat="49.515663078054786" lon="9.294875068590043">
<ele>358.8</ele>
<time>2024-05-10T16:12:19Z</time>
</trkpt>
<trkpt lat="49.51564782299101" lon="9.29492854513228">
<ele>359</ele>
<time>2024-05-10T16:12:20Z</time>
</trkpt>
<trkpt lat="49.515624940395355" lon="9.294978082180023">
<ele>359.2</ele>
<time>2024-05-10T16:12:21Z</time>
</trkpt>
<trkpt lat="49.51560968533158" lon="9.295036252588034">
<ele>359.2</ele>
<time>2024-05-10T16:12:22Z</time>
</trkpt>
<trkpt lat="49.51559443026781" lon="9.295091573148966">
<ele>359.4</ele>
<time>2024-05-10T16:12:23Z</time>
</trkpt>
<trkpt lat="49.51557917520404" lon="9.295147815719249">
<ele>359.6</ele>
<time>2024-05-10T16:12:24Z</time>
</trkpt>
<trkpt lat="49.515567775815725" lon="9.295205064117908">
<ele>359.8</ele>
<time>2024-05-10T16:12:25Z</time>
</trkpt>
<trkpt lat="49.51555252075195" lon="9.295265162363648">
<ele>360</ele>
<time>2024-05-10T16:12:26Z</time>
</trkpt>
<trkpt lat="49.51553718186915" lon="9.295318555086851">
<ele>360.4</ele>
<time>2024-05-10T16:12:27Z</time>
</trkpt>
<trkpt lat="49.51551815494895" lon="9.295368175953628">
<ele>360.6</ele>
<time>2024-05-10T16:12:28Z</time>
</trkpt>
<trkpt lat="49.51550289988518" lon="9.295418718829753">
<ele>360.8</ele>
<time>2024-05-10T16:12:29Z</time>
</trkpt>
<trkpt lat="49.51549141667783" lon="9.295471189543605">
<ele>361</ele>
<time>2024-05-10T16:12:30Z</time>
</trkpt>
<trkpt lat="49.51548001728952" lon="9.295524582266808">
<ele>361.2</ele>
<time>2024-05-10T16:12:31Z</time>
</trkpt>
<trkpt lat="49.51546476222575" lon="9.295573197305202">
<ele>361.4</ele>
<time>2024-05-10T16:12:32Z</time>
</trkpt>
<trkpt lat="49.51544565148651" lon="9.295628517866136">
<ele>361.8</ele>
<time>2024-05-10T16:12:33Z</time>
</trkpt>
<trkpt lat="49.515430396422744" lon="9.295681910589336">
<ele>362</ele>
<time>2024-05-10T16:12:34Z</time>
</trkpt>
<trkpt lat="49.51541899703443" lon="9.295738153159618">
<ele>362</ele>
<time>2024-05-10T16:12:35Z</time>
</trkpt>
<trkpt lat="49.51540374197066" lon="9.295796323567629">
<ele>362.2</ele>
<time>2024-05-10T16:12:36Z</time>
</trkpt>
<trkpt lat="49.515388486906886" lon="9.295856421813369">
<ele>362.4</ele>
<time>2024-05-10T16:12:37Z</time>
</trkpt>
<trkpt lat="49.51537700369954" lon="9.29591459222138">
<ele>362.4</ele>
<time>2024-05-10T16:12:38Z</time>
</trkpt>
<trkpt lat="49.51537314802408" lon="9.29597184062004">
<ele>362.6</ele>
<time>2024-05-10T16:12:39Z</time>
</trkpt>
<trkpt lat="49.51535789296031" lon="9.296023305505514">
<ele>362.6</ele>
<time>2024-05-10T16:12:40Z</time>
</trkpt>
<trkpt lat="49.515346493572" lon="9.296081475913525">
<ele>362.8</ele>
<time>2024-05-10T16:12:41Z</time>
</trkpt>
<trkpt lat="49.51533501036465" lon="9.296132018789647">
<ele>362.8</ele>
<time>2024-05-10T16:12:42Z</time>
</trkpt>
<trkpt lat="49.515327382832766" lon="9.296184489503505">
<ele>363</ele>
<time>2024-05-10T16:12:43Z</time>
</trkpt>
<trkpt lat="49.515327382832766" lon="9.296241737902164">
<ele>363.2</ele>
<time>2024-05-10T16:12:44Z</time>
</trkpt>
<trkpt lat="49.51531975530088" lon="9.296304685994984">
<ele>363.2</ele>
<time>2024-05-10T16:12:45Z</time>
</trkpt>
<trkpt lat="49.51531598344445" lon="9.29636662825942">
<ele>363.4</ele>
<time>2024-05-10T16:12:46Z</time>
</trkpt>
<trkpt lat="49.51531598344445" lon="9.29642957635224">
<ele>363.6</ele>
<time>2024-05-10T16:12:47Z</time>
</trkpt>
<trkpt lat="49.51531598344445" lon="9.296495374292135">
<ele>363.8</ele>
<time>2024-05-10T16:12:48Z</time>
</trkpt>
<trkpt lat="49.51531212776899" lon="9.296558322384952">
<ele>364</ele>
<time>2024-05-10T16:12:49Z</time>
</trkpt>
<trkpt lat="49.51531212776899" lon="9.296626970171928">
<ele>364.2</ele>
<time>2024-05-10T16:12:50Z</time>
</trkpt>
<trkpt lat="49.51531212776899" lon="9.296689918264748">
<ele>364.4</ele>
<time>2024-05-10T16:12:51Z</time>
</trkpt>
<trkpt lat="49.51531212776899" lon="9.29674624465406">
<ele>364.6</ele>
<time>2024-05-10T16:12:52Z</time>
</trkpt>
<trkpt lat="49.51531598344445" lon="9.296806259080768">
<ele>364.8</ele>
<time>2024-05-10T16:12:53Z</time>
</trkpt>
<trkpt lat="49.51532361097634" lon="9.296876834705472">
<ele>364.8</ele>
<time>2024-05-10T16:12:54Z</time>
</trkpt>
<trkpt lat="49.51533886604011" lon="9.296944560483098">
<ele>365</ele>
<time>2024-05-10T16:12:55Z</time>
</trkpt>
<trkpt lat="49.51535789296031" lon="9.29701798595488">
<ele>365</ele>
<time>2024-05-10T16:12:56Z</time>
</trkpt>
<trkpt lat="49.51537314802408" lon="9.297096189111471">
<ele>365.2</ele>
<time>2024-05-10T16:12:57Z</time>
</trkpt>
<trkpt lat="49.51538463123143" lon="9.297169614583254">
<ele>365.2</ele>
<time>2024-05-10T16:12:58Z</time>
</trkpt>
<trkpt lat="49.5153998862952" lon="9.29724119603634">
<ele>365.2</ele>
<time>2024-05-10T16:12:59Z</time>
</trkpt>
<trkpt lat="49.51541899703443" lon="9.297309843823314">
<ele>365.2</ele>
<time>2024-05-10T16:13:00Z</time>
</trkpt>
<trkpt lat="49.51543802395463" lon="9.297380419448018">
<ele>365.2</ele>
<time>2024-05-10T16:13:01Z</time>
</trkpt>
<trkpt lat="49.51545713469386" lon="9.297448145225644">
<ele>365.2</ele>
<time>2024-05-10T16:13:02Z</time>
</trkpt>
<trkpt lat="49.51548001728952" lon="9.297508159652352">
<ele>365.2</ele>
<time>2024-05-10T16:13:03Z</time>
</trkpt>
<trkpt lat="49.515506671741605" lon="9.297566413879396">
<ele>365.2</ele>
<time>2024-05-10T16:13:04Z</time>
</trkpt>
<trkpt lat="49.51552578248083" lon="9.297621650621297">
<ele>365.4</ele>
<time>2024-05-10T16:13:05Z</time>
</trkpt>
<trkpt lat="49.515548665076494" lon="9.297677977010608">
<ele>365.4</ele>
<time>2024-05-10T16:13:06Z</time>
</trkpt>
<trkpt lat="49.51557154767215" lon="9.297738075256348">
<ele>365.6</ele>
<time>2024-05-10T16:13:07Z</time>
</trkpt>
<trkpt lat="49.51559443026781" lon="9.297796245664358">
<ele>365.6</ele>
<time>2024-05-10T16:13:08Z</time>
</trkpt>
<trkpt lat="49.51561731286347" lon="9.297855338081716">
<ele>365.6</ele>
<time>2024-05-10T16:13:09Z</time>
</trkpt>
<trkpt lat="49.5156364236027" lon="9.2979097366333">
<ele>365.8</ele>
<time>2024-05-10T16:13:10Z</time>
</trkpt>
<trkpt lat="49.51565930619836" lon="9.2979649733752">
<ele>365.8</ele>
<time>2024-05-10T16:13:11Z</time>
</trkpt>
<trkpt lat="49.51567833311856" lon="9.298018449917436">
<ele>365.8</ele>
<time>2024-05-10T16:13:12Z</time>
</trkpt>
<trkpt lat="49.51569744385779" lon="9.29806706495583">
<ele>366</ele>
<time>2024-05-10T16:13:13Z</time>
</trkpt>
<trkpt lat="49.51571647077799" lon="9.298119535669684">
<ele>366</ele>
<time>2024-05-10T16:13:14Z</time>
</trkpt>
<trkpt lat="49.51573558151722" lon="9.298171922564508">
<ele>366</ele>
<time>2024-05-10T16:13:15Z</time>
</trkpt>
<trkpt lat="49.51575846411288" lon="9.29822632111609">
<ele>366</ele>
<time>2024-05-10T16:13:16Z</time>
</trkpt>
<trkpt lat="49.51577757485211" lon="9.298283569514751">
<ele>366</ele>
<time>2024-05-10T16:13:17Z</time>
</trkpt>
<trkpt lat="49.51580045744777" lon="9.298336962237954">
<ele>366</ele>
<time>2024-05-10T16:13:18Z</time>
</trkpt>
<trkpt lat="49.515823340043426" lon="9.298391276970506">
<ele>366</ele>
<time>2024-05-10T16:13:19Z</time>
</trkpt>
<trkpt lat="49.515842366963625" lon="9.298444669693708">
<ele>366</ele>
<time>2024-05-10T16:13:20Z</time>
</trkpt>
<trkpt lat="49.51586524955928" lon="9.29849999025464">
<ele>366</ele>
<time>2024-05-10T16:13:21Z</time>
</trkpt>
<trkpt lat="49.515884360298514" lon="9.298555310815573">
<ele>366</ele>
<time>2024-05-10T16:13:22Z</time>
</trkpt>
<trkpt lat="49.51590724289417" lon="9.298606859520078">
<ele>366.2</ele>
<time>2024-05-10T16:13:23Z</time>
</trkpt>
<trkpt lat="49.51593012548983" lon="9.298658324405553">
<ele>366.2</ele>
<time>2024-05-10T16:13:24Z</time>
</trkpt>
<trkpt lat="49.51595300808549" lon="9.298711717128754">
<ele>366.4</ele>
<time>2024-05-10T16:13:25Z</time>
</trkpt>
<trkpt lat="49.51597211882472" lon="9.298767037689686">
<ele>366.4</ele>
<time>2024-05-10T16:13:26Z</time>
</trkpt>
<trkpt lat="49.51599114574492" lon="9.298823280259969">
<ele>366.4</ele>
<time>2024-05-10T16:13:27Z</time>
</trkpt>
<trkpt lat="49.51601025648415" lon="9.2988786008209">
<ele>366.6</ele>
<time>2024-05-10T16:13:28Z</time>
</trkpt>
<trkpt lat="49.51603313907981" lon="9.298932999372482">
<ele>366.6</ele>
<time>2024-05-10T16:13:29Z</time>
</trkpt>
<trkpt lat="49.51605602167547" lon="9.298986392095683">
<ele>366.6</ele>
<time>2024-05-10T16:13:30Z</time>
</trkpt>
<trkpt lat="49.516078904271126" lon="9.299041712656615">
<ele>366.8</ele>
<time>2024-05-10T16:13:31Z</time>
</trkpt>
<trkpt lat="49.51609801501036" lon="9.299097955226898">
<ele>366.8</ele>
<time>2024-05-10T16:13:32Z</time>
</trkpt>
<trkpt lat="49.51611704193056" lon="9.29915327578783">
<ele>366.8</ele>
<time>2024-05-10T16:13:33Z</time>
</trkpt>
<trkpt lat="49.51613615266979" lon="9.29921144619584">
<ele>366.8</ele>
<time>2024-05-10T16:13:34Z</time>
</trkpt>
<trkpt lat="49.51615517958999" lon="9.299269616603851">
<ele>366.8</ele>
<time>2024-05-10T16:13:35Z</time>
</trkpt>
<trkpt lat="49.51617429032922" lon="9.299329714849591">
<ele>366.8</ele>
<time>2024-05-10T16:13:36Z</time>
</trkpt>
<trkpt lat="49.51619331724942" lon="9.299389813095331">
<ele>366.8</ele>
<time>2024-05-10T16:13:37Z</time>
</trkpt>
<trkpt lat="49.51621619984507" lon="9.299447983503342">
<ele>366.8</ele>
<time>2024-05-10T16:13:38Z</time>
</trkpt>
<trkpt lat="49.516239166259766" lon="9.299508081749082">
<ele>366.8</ele>
<time>2024-05-10T16:13:39Z</time>
</trkpt>
<trkpt lat="49.516258193179965" lon="9.29956809617579">
<ele>367</ele>
<time>2024-05-10T16:13:40Z</time>
</trkpt>
<trkpt lat="49.51628107577562" lon="9.299626350402832">
<ele>367</ele>
<time>2024-05-10T16:13:41Z</time>
</trkpt>
<trkpt lat="49.516300186514854" lon="9.299684520810844">
<ele>367</ele>
<time>2024-05-10T16:13:42Z</time>
</trkpt>
<trkpt lat="49.516319213435054" lon="9.29974453523755">
<ele>367.2</ele>
<time>2024-05-10T16:13:43Z</time>
</trkpt>
<trkpt lat="49.516338324174285" lon="9.299803711473942">
<ele>367.4</ele>
<time>2024-05-10T16:13:44Z</time>
</trkpt>
<trkpt lat="49.51635735109448" lon="9.299861881881952">
<ele>367.4</ele>
<time>2024-05-10T16:13:45Z</time>
</trkpt>
<trkpt lat="49.516376461833715" lon="9.299921980127692">
<ele>367.6</ele>
<time>2024-05-10T16:13:46Z</time>
</trkpt>
<trkpt lat="49.516399344429374" lon="9.299978222697971">
<ele>367.8</ele>
<time>2024-05-10T16:13:47Z</time>
</trkpt>
<trkpt lat="49.516418455168605" lon="9.300038320943711">
<ele>368</ele>
<time>2024-05-10T16:13:48Z</time>
</trkpt>
<trkpt lat="49.51644133776426" lon="9.300096491351724">
<ele>368.2</ele>
<time>2024-05-10T16:13:49Z</time>
</trkpt>
<trkpt lat="49.51646036468446" lon="9.300153655931354">
<ele>368.4</ele>
<time>2024-05-10T16:13:50Z</time>
</trkpt>
<trkpt lat="49.51648324728012" lon="9.300212832167745">
<ele>368.6</ele>
<time>2024-05-10T16:13:51Z</time>
</trkpt>
<trkpt lat="49.51650235801935" lon="9.300272930413485">
<ele>368.6</ele>
<time>2024-05-10T16:13:52Z</time>
</trkpt>
<trkpt lat="49.51652138493955" lon="9.300334872677922">
<ele>368.8</ele>
<time>2024-05-10T16:13:53Z</time>
</trkpt>
<trkpt lat="49.51654426753521" lon="9.300396898761392">
<ele>369</ele>
<time>2024-05-10T16:13:54Z</time>
</trkpt>
<trkpt lat="49.51656337827444" lon="9.30045791901648">
<ele>369</ele>
<time>2024-05-10T16:13:55Z</time>
</trkpt>
<trkpt lat="49.5165862608701" lon="9.30051801726222">
<ele>369</ele>
<time>2024-05-10T16:13:56Z</time>
</trkpt>
<trkpt lat="49.51660151593387" lon="9.300579959526658">
<ele>369.2</ele>
<time>2024-05-10T16:13:57Z</time>
</trkpt>
<trkpt lat="49.51662439852953" lon="9.300638129934669">
<ele>369.4</ele>
<time>2024-05-10T16:13:58Z</time>
</trkpt>
<trkpt lat="49.51664728112519" lon="9.30069630034268">
<ele>369.4</ele>
<time>2024-05-10T16:13:59Z</time>
</trkpt>
<trkpt lat="49.51666639186442" lon="9.30075639858842">
<ele>369.6</ele>
<time>2024-05-10T16:14:00Z</time>
</trkpt>
<trkpt lat="49.51668927446008" lon="9.30081649683416">
<ele>369.8</ele>
<time>2024-05-10T16:14:01Z</time>
</trkpt>
<trkpt lat="49.51670830138028" lon="9.3008765950799">
<ele>369.8</ele>
<time>2024-05-10T16:14:02Z</time>
</trkpt>
<trkpt lat="49.516735039651394" lon="9.30093669332564">
<ele>370</ele>
<time>2024-05-10T16:14:03Z</time>
</trkpt>
<trkpt lat="49.516754150390625" lon="9.300999641418455">
<ele>370</ele>
<time>2024-05-10T16:14:04Z</time>
</trkpt>
<trkpt lat="49.51677703298628" lon="9.301059655845163">
<ele>370.2</ele>
<time>2024-05-10T16:14:05Z</time>
</trkpt>
<trkpt lat="49.51679991558194" lon="9.301121681928636">
<ele>370.4</ele>
<time>2024-05-10T16:14:06Z</time>
</trkpt>
<trkpt lat="49.51681894250214" lon="9.301181780174376">
<ele>370.6</ele>
<time>2024-05-10T16:14:07Z</time>
</trkpt>
<trkpt lat="49.5168418250978" lon="9.301243722438812">
<ele>370.6</ele>
<time>2024-05-10T16:14:08Z</time>
</trkpt>
<trkpt lat="49.51686470769346" lon="9.3013047426939">
<ele>370.8</ele>
<time>2024-05-10T16:14:09Z</time>
</trkpt>
<trkpt lat="49.51688381843269" lon="9.30136484093964">
<ele>370.8</ele>
<time>2024-05-10T16:14:10Z</time>
</trkpt>
<trkpt lat="49.51690670102835" lon="9.30142686702311">
<ele>370.8</ele>
<time>2024-05-10T16:14:11Z</time>
</trkpt>
<trkpt lat="49.516933439299464" lon="9.30148696526885">
<ele>371</ele>
<time>2024-05-10T16:14:12Z</time>
</trkpt>
<trkpt lat="49.51695632189512" lon="9.30154697969556">
<ele>371.2</ele>
<time>2024-05-10T16:14:13Z</time>
</trkpt>
<trkpt lat="49.51697534881532" lon="9.301607077941298">
<ele>371.2</ele>
<time>2024-05-10T16:14:14Z</time>
</trkpt>
<trkpt lat="49.51699823141098" lon="9.30166625417769">
<ele>371.4</ele>
<time>2024-05-10T16:14:15Z</time>
</trkpt>
<trkpt lat="49.51701734215021" lon="9.301726268604398">
<ele>371.6</ele>
<time>2024-05-10T16:14:16Z</time>
</trkpt>
<trkpt lat="49.51703636907041" lon="9.30178351700306">
<ele>371.8</ele>
<time>2024-05-10T16:14:17Z</time>
</trkpt>
<trkpt lat="49.51705547980964" lon="9.301837915554644">
<ele>372</ele>
<time>2024-05-10T16:14:18Z</time>
</trkpt>
<trkpt lat="49.51707450672984" lon="9.301893152296543">
<ele>372.2</ele>
<time>2024-05-10T16:14:19Z</time>
</trkpt>
<trkpt lat="49.51709361746907" lon="9.301946628838778">
<ele>372.4</ele>
<time>2024-05-10T16:14:20Z</time>
</trkpt>
<trkpt lat="49.5171127282083" lon="9.30199809372425">
<ele>372.6</ele>
<time>2024-05-10T16:14:21Z</time>
</trkpt>
<trkpt lat="49.5171317551285" lon="9.302051486447452">
<ele>372.6</ele>
<time>2024-05-10T16:14:22Z</time>
</trkpt>
<trkpt lat="49.517150865867734" lon="9.302104879170656">
<ele>372.8</ele>
<time>2024-05-10T16:14:23Z</time>
</trkpt>
<trkpt lat="49.51716989278793" lon="9.302160199731588">
<ele>373</ele>
<time>2024-05-10T16:14:24Z</time>
</trkpt>
<trkpt lat="49.517189003527164" lon="9.302211748436092">
<ele>373</ele>
<time>2024-05-10T16:14:25Z</time>
</trkpt>
<trkpt lat="49.51720803044736" lon="9.302265141159296">
<ele>373.2</ele>
<time>2024-05-10T16:14:26Z</time>
</trkpt>
<trkpt lat="49.517227141186595" lon="9.30231660604477">
<ele>373.2</ele>
<time>2024-05-10T16:14:27Z</time>
</trkpt>
<trkpt lat="49.517246168106794" lon="9.302368154749274">
<ele>373.2</ele>
<time>2024-05-10T16:14:28Z</time>
</trkpt>
<trkpt lat="49.51726142317057" lon="9.302419619634748">
<ele>373.2</ele>
<time>2024-05-10T16:14:29Z</time>
</trkpt>
<trkpt lat="49.51727676205337" lon="9.30247301235795">
<ele>373.2</ele>
<time>2024-05-10T16:14:30Z</time>
</trkpt>
<trkpt lat="49.51729578897357" lon="9.302530260756612">
<ele>373.4</ele>
<time>2024-05-10T16:14:31Z</time>
</trkpt>
<trkpt lat="49.51731104403734" lon="9.302588431164622">
<ele>373.4</ele>
<time>2024-05-10T16:14:32Z</time>
</trkpt>
<trkpt lat="49.517326299101114" lon="9.302646601572633">
<ele>373.6</ele>
<time>2024-05-10T16:14:33Z</time>
</trkpt>
<trkpt lat="49.51734155416489" lon="9.30270854383707">
<ele>373.8</ele>
<time>2024-05-10T16:14:34Z</time>
</trkpt>
<trkpt lat="49.51736066490412" lon="9.302769647911193">
<ele>374</ele>
<time>2024-05-10T16:14:35Z</time>
</trkpt>
<trkpt lat="49.51737591996789" lon="9.302835445851088">
<ele>374</ele>
<time>2024-05-10T16:14:36Z</time>
</trkpt>
<trkpt lat="49.51739117503166" lon="9.302898393943906">
<ele>374.2</ele>
<time>2024-05-10T16:14:37Z</time>
</trkpt>
<trkpt lat="49.517406430095434" lon="9.302961342036724">
<ele>374.4</ele>
<time>2024-05-10T16:14:38Z</time>
</trkpt>
<trkpt lat="49.517421685159206" lon="9.303025212138891">
<ele>374.4</ele>
<time>2024-05-10T16:14:39Z</time>
</trkpt>
<trkpt lat="49.51743308454752" lon="9.30308816023171">
<ele>374.6</ele>
<time>2024-05-10T16:14:40Z</time>
</trkpt>
<trkpt lat="49.517444567754865" lon="9.303150102496147">
<ele>374.6</ele>
<time>2024-05-10T16:14:41Z</time>
</trkpt>
<trkpt lat="49.51745605096221" lon="9.303213050588964">
<ele>374.6</ele>
<time>2024-05-10T16:14:42Z</time>
</trkpt>
<trkpt lat="49.517463678494096" lon="9.303277926519511">
<ele>374.6</ele>
<time>2024-05-10T16:14:43Z</time>
</trkpt>
<trkpt lat="49.51747507788241" lon="9.30334179662168">
<ele>374.8</ele>
<time>2024-05-10T16:14:44Z</time>
</trkpt>
<trkpt lat="49.517482705414295" lon="9.303406672552228">
<ele>374.8</ele>
<time>2024-05-10T16:14:45Z</time>
</trkpt>
<trkpt lat="49.51749418862164" lon="9.303471548482776">
<ele>374.8</ele>
<time>2024-05-10T16:14:46Z</time>
</trkpt>
<trkpt lat="49.517501816153526" lon="9.303536340594292">
<ele>374.8</ele>
<time>2024-05-10T16:14:47Z</time>
</trkpt>
<trkpt lat="49.51750558800995" lon="9.303603144362569">
<ele>374.8</ele>
<time>2024-05-10T16:14:48Z</time>
</trkpt>
<trkpt lat="49.51751321554184" lon="9.303668020293117">
<ele>374.8</ele>
<time>2024-05-10T16:14:49Z</time>
</trkpt>
<trkpt lat="49.5175170712173" lon="9.303734740242362">
<ele>374.8</ele>
<time>2024-05-10T16:14:50Z</time>
</trkpt>
<trkpt lat="49.517520843073726" lon="9.303803388029335">
<ele>374.8</ele>
<time>2024-05-10T16:14:51Z</time>
</trkpt>
<trkpt lat="49.517524698749185" lon="9.303872035816312">
<ele>374.8</ele>
<time>2024-05-10T16:14:52Z</time>
</trkpt>
<trkpt lat="49.51752847060561" lon="9.303941689431667">
<ele>374.8</ele>
<time>2024-05-10T16:14:53Z</time>
</trkpt>
<trkpt lat="49.51753232628107" lon="9.30401511490345">
<ele>374.8</ele>
<time>2024-05-10T16:14:54Z</time>
</trkpt>
<trkpt lat="49.51753232628107" lon="9.304088540375233">
<ele>374.6</ele>
<time>2024-05-10T16:14:55Z</time>
</trkpt>
<trkpt lat="49.51753232628107" lon="9.304161965847015">
<ele>374.6</ele>
<time>2024-05-10T16:14:56Z</time>
</trkpt>
<trkpt lat="49.51753232628107" lon="9.30423161946237">
<ele>374.6</ele>
<time>2024-05-10T16:14:57Z</time>
</trkpt>
<trkpt lat="49.51753232628107" lon="9.304301189258696">
<ele>374.8</ele>
<time>2024-05-10T16:14:58Z</time>
</trkpt>
<trkpt lat="49.51752847060561" lon="9.3043699208647">
<ele>374.8</ele>
<time>2024-05-10T16:14:59Z</time>
</trkpt>
<trkpt lat="49.51752847060561" lon="9.304439490661023">
<ele>374.8</ele>
<time>2024-05-10T16:15:00Z</time>
</trkpt>
<trkpt lat="49.51752847060561" lon="9.304508138448">
<ele>374.8</ele>
<time>2024-05-10T16:15:01Z</time>
</trkpt>
<trkpt lat="49.51752847060561" lon="9.304576870054008">
<ele>374.8</ele>
<time>2024-05-10T16:15:02Z</time>
</trkpt>
<trkpt lat="49.51752847060561" lon="9.30464836768806">
<ele>374.8</ele>
<time>2024-05-10T16:15:03Z</time>
</trkpt>
<trkpt lat="49.51752847060561" lon="9.304719865322111">
<ele>374.8</ele>
<time>2024-05-10T16:15:04Z</time>
</trkpt>
<trkpt lat="49.51752847060561" lon="9.304793290793896">
<ele>374.8</ele>
<time>2024-05-10T16:15:05Z</time>
</trkpt>
<trkpt lat="49.51752847060561" lon="9.304866716265678">
<ele>374.8</ele>
<time>2024-05-10T16:15:06Z</time>
</trkpt>
<trkpt lat="49.51752847060561" lon="9.304938297718763">
<ele>375</ele>
<time>2024-05-10T16:15:07Z</time>
</trkpt>
<trkpt lat="49.51753232628107" lon="9.305011723190546">
<ele>374.8</ele>
<time>2024-05-10T16:15:08Z</time>
</trkpt>
<trkpt lat="49.51753232628107" lon="9.305087076500058">
<ele>374.8</ele>
<time>2024-05-10T16:15:09Z</time>
</trkpt>
<trkpt lat="49.51753995381296" lon="9.30516142398119">
<ele>374.8</ele>
<time>2024-05-10T16:15:10Z</time>
</trkpt>
<trkpt lat="49.51754758134484" lon="9.305236777290702">
<ele>374.8</ele>
<time>2024-05-10T16:15:11Z</time>
</trkpt>
<trkpt lat="49.51755520887673" lon="9.305311124771832">
<ele>374.8</ele>
<time>2024-05-10T16:15:12Z</time>
</trkpt>
<trkpt lat="49.517562836408615" lon="9.305388405919077">
<ele>374.8</ele>
<time>2024-05-10T16:15:13Z</time>
</trkpt>
<trkpt lat="49.5175704639405" lon="9.305463759228587">
<ele>374.8</ele>
<time>2024-05-10T16:15:14Z</time>
</trkpt>
<trkpt lat="49.51757809147239" lon="9.305541962385178">
<ele>374.8</ele>
<time>2024-05-10T16:15:15Z</time>
</trkpt>
<trkpt lat="49.5175894908607" lon="9.30561630986631">
<ele>374.6</ele>
<time>2024-05-10T16:15:16Z</time>
</trkpt>
<trkpt lat="49.517600974068046" lon="9.30569166317582">
<ele>374.6</ele>
<time>2024-05-10T16:15:17Z</time>
</trkpt>
<trkpt lat="49.51761622913182" lon="9.305767938494682">
<ele>374.6</ele>
<time>2024-05-10T16:15:18Z</time>
</trkpt>
<trkpt lat="49.517623856663704" lon="9.305846141651273">
<ele>374.6</ele>
<time>2024-05-10T16:15:19Z</time>
</trkpt>
<trkpt lat="49.51763533987105" lon="9.305925350636244">
<ele>374.6</ele>
<time>2024-05-10T16:15:20Z</time>
</trkpt>
<trkpt lat="49.51764673925936" lon="9.306005397811532">
<ele>374.6</ele>
<time>2024-05-10T16:15:21Z</time>
</trkpt>
<trkpt lat="49.517661994323134" lon="9.306083600968122">
<ele>374.6</ele>
<time>2024-05-10T16:15:22Z</time>
</trkpt>
<trkpt lat="49.51767347753048" lon="9.306164737790825">
<ele>374.4</ele>
<time>2024-05-10T16:15:23Z</time>
</trkpt>
<trkpt lat="49.51768873259425" lon="9.30624671280384">
<ele>374.4</ele>
<time>2024-05-10T16:15:24Z</time>
</trkpt>
<trkpt lat="49.517703987658024" lon="9.30632877163589">
<ele>374.2</ele>
<time>2024-05-10T16:15:25Z</time>
</trkpt>
<trkpt lat="49.51772301457822" lon="9.306413596495986">
<ele>374</ele>
<time>2024-05-10T16:15:26Z</time>
</trkpt>
<trkpt lat="49.517738269641995" lon="9.306500433012843">
<ele>373.8</ele>
<time>2024-05-10T16:15:27Z</time>
</trkpt>
<trkpt lat="49.51775352470577" lon="9.30658626370132">
<ele>373.8</ele>
<time>2024-05-10T16:15:28Z</time>
</trkpt>
<trkpt lat="49.517772635445" lon="9.306673016399143">
<ele>373.6</ele>
<time>2024-05-10T16:15:29Z</time>
</trkpt>
<trkpt lat="49.51779174618423" lon="9.30675976909697">
<ele>373.4</ele>
<time>2024-05-10T16:15:30Z</time>
</trkpt>
<trkpt lat="49.51781077310443" lon="9.306846605613828">
<ele>373.2</ele>
<time>2024-05-10T16:15:31Z</time>
</trkpt>
<trkpt lat="49.51782988384366" lon="9.306935286149384">
<ele>373</ele>
<time>2024-05-10T16:15:32Z</time>
</trkpt>
<trkpt lat="49.51785276643932" lon="9.307024888694286">
<ele>373</ele>
<time>2024-05-10T16:15:33Z</time>
</trkpt>
<trkpt lat="49.51787179335952" lon="9.307114575058222">
<ele>372.8</ele>
<time>2024-05-10T16:15:34Z</time>
</trkpt>
<trkpt lat="49.517894675955176" lon="9.307203255593777">
<ele>372.6</ele>
<time>2024-05-10T16:15:35Z</time>
</trkpt>
<trkpt lat="49.51790993101895" lon="9.30729671381414">
<ele>372.4</ele>
<time>2024-05-10T16:15:36Z</time>
</trkpt>
<trkpt lat="49.51792904175818" lon="9.307390172034502">
<ele>372.4</ele>
<time>2024-05-10T16:15:37Z</time>
</trkpt>
<trkpt lat="49.51794806867838" lon="9.307483630254865">
<ele>372.2</ele>
<time>2024-05-10T16:15:38Z</time>
</trkpt>
<trkpt lat="49.51796717941761" lon="9.307575160637498">
<ele>372</ele>
<time>2024-05-10T16:15:39Z</time>
</trkpt>
<trkpt lat="49.51798629015684" lon="9.307666774839165">
<ele>371.8</ele>
<time>2024-05-10T16:15:40Z</time>
</trkpt>
<trkpt lat="49.51800531707704" lon="9.307756377384068">
<ele>371.6</ele>
<time>2024-05-10T16:15:41Z</time>
</trkpt>
<trkpt lat="49.51802442781627" lon="9.307846985757353">
<ele>371.4</ele>
<time>2024-05-10T16:15:42Z</time>
</trkpt>
<trkpt lat="49.51804731041193" lon="9.307933738455176">
<ele>371.2</ele>
<time>2024-05-10T16:15:43Z</time>
</trkpt>
<trkpt lat="49.51807019300759" lon="9.308023424819112">
<ele>371</ele>
<time>2024-05-10T16:15:44Z</time>
</trkpt>
<trkpt lat="49.518096847459674" lon="9.30810640566051">
<ele>370.8</ele>
<time>2024-05-10T16:15:45Z</time>
</trkpt>
<trkpt lat="49.51812358573079" lon="9.308186452835798">
<ele>370.6</ele>
<time>2024-05-10T16:15:46Z</time>
</trkpt>
<trkpt lat="49.51814646832645" lon="9.308268511667848">
<ele>370.2</ele>
<time>2024-05-10T16:15:47Z</time>
</trkpt>
<trkpt lat="49.51817320659757" lon="9.308349564671516">
<ele>370</ele>
<time>2024-05-10T16:15:48Z</time>
</trkpt>
<trkpt lat="49.518196089193225" lon="9.308431623503566">
<ele>369.8</ele>
<time>2024-05-10T16:15:49Z</time>
</trkpt>
<trkpt lat="49.51822659932077" lon="9.308507898822429">
<ele>369.6</ele>
<time>2024-05-10T16:15:50Z</time>
</trkpt>
<trkpt lat="49.518253253772855" lon="9.308585096150637">
<ele>369.2</ele>
<time>2024-05-10T16:15:51Z</time>
</trkpt>
<trkpt lat="49.5182837639004" lon="9.308663299307227">
<ele>369</ele>
<time>2024-05-10T16:15:52Z</time>
</trkpt>
<trkpt lat="49.51831050217152" lon="9.308741502463818">
<ele>368.8</ele>
<time>2024-05-10T16:15:53Z</time>
</trkpt>
<trkpt lat="49.51834101229906" lon="9.308821633458138">
<ele>368.6</ele>
<time>2024-05-10T16:15:54Z</time>
</trkpt>
<trkpt lat="49.518371522426605" lon="9.308903692290189">
<ele>368.2</ele>
<time>2024-05-10T16:15:55Z</time>
</trkpt>
<trkpt lat="49.51839826069772" lon="9.30899136699736">
<ele>368</ele>
<time>2024-05-10T16:15:56Z</time>
</trkpt>
<trkpt lat="49.51842491514981" lon="9.309078203514218">
<ele>367.6</ele>
<time>2024-05-10T16:15:57Z</time>
</trkpt>
<trkpt lat="49.518447797745466" lon="9.309167806059122">
<ele>367.4</ele>
<time>2024-05-10T16:15:58Z</time>
</trkpt>
<trkpt lat="49.51847076416016" lon="9.309258414432406">
<ele>367.2</ele>
<time>2024-05-10T16:15:59Z</time>
</trkpt>
<trkpt lat="49.51848979108035" lon="9.309345167130232">
<ele>367</ele>
<time>2024-05-10T16:16:00Z</time>
</trkpt>
<trkpt lat="49.518512673676014" lon="9.309432925656438">
<ele>366.6</ele>
<time>2024-05-10T16:16:01Z</time>
</trkpt>
<trkpt lat="49.518527928739786" lon="9.309521606191993">
<ele>366.4</ele>
<time>2024-05-10T16:16:02Z</time>
</trkpt>
<trkpt lat="49.51854318380356" lon="9.309611292555928">
<ele>366.2</ele>
<time>2024-05-10T16:16:03Z</time>
</trkpt>
<trkpt lat="49.51856229454279" lon="9.30970282293856">
<ele>366</ele>
<time>2024-05-10T16:16:04Z</time>
</trkpt>
<trkpt lat="49.51858132146299" lon="9.309795359149575">
<ele>365.8</ele>
<time>2024-05-10T16:16:05Z</time>
</trkpt>
<trkpt lat="49.51859657652676" lon="9.309881189838052">
<ele>365.8</ele>
<time>2024-05-10T16:16:06Z</time>
</trkpt>
<trkpt lat="49.518608059734106" lon="9.309967020526528">
<ele>365.6</ele>
<time>2024-05-10T16:16:07Z</time>
</trkpt>
<trkpt lat="49.51861945912242" lon="9.310050001367928">
<ele>365.6</ele>
<time>2024-05-10T16:16:08Z</time>
</trkpt>
<trkpt lat="49.51862331479788" lon="9.310134826228024">
<ele>365.6</ele>
<time>2024-05-10T16:16:09Z</time>
</trkpt>
<trkpt lat="49.51863471418619" lon="9.31021872907877">
<ele>365.6</ele>
<time>2024-05-10T16:16:10Z</time>
</trkpt>
<trkpt lat="49.51863856986165" lon="9.31029793806374">
<ele>365.4</ele>
<time>2024-05-10T16:16:11Z</time>
</trkpt>
<trkpt lat="49.51864619739354" lon="9.31037706322968">
<ele>365.4</ele>
<time>2024-05-10T16:16:12Z</time>
</trkpt>
<trkpt lat="49.51865382492542" lon="9.310448644682763">
<ele>365.2</ele>
<time>2024-05-10T16:16:13Z</time>
</trkpt>
<trkpt lat="49.51865768060088" lon="9.31051343679428">
<ele>365</ele>
<time>2024-05-10T16:16:14Z</time>
</trkpt>
<trkpt lat="49.51866145245731" lon="9.31057546287775">
<ele>365</ele>
<time>2024-05-10T16:16:15Z</time>
</trkpt>
<trkpt lat="49.51866530813277" lon="9.310641260817649">
<ele>364.8</ele>
<time>2024-05-10T16:16:16Z</time>
</trkpt>
<trkpt lat="49.518672935664654" lon="9.310709908604622">
<ele>364.8</ele>
<time>2024-05-10T16:16:17Z</time>
</trkpt>
<trkpt lat="49.51867670752108" lon="9.31077478453517">
<ele>364.6</ele>
<time>2024-05-10T16:16:18Z</time>
</trkpt>
<trkpt lat="49.51868433505297" lon="9.3108319491148">
<ele>364.4</ele>
<time>2024-05-10T16:16:19Z</time>
</trkpt>
<trkpt lat="49.518688190728426" lon="9.310883497819304">
<ele>364.2</ele>
<time>2024-05-10T16:16:20Z</time>
</trkpt>
<trkpt lat="49.51869196258485" lon="9.310928341001272">
<ele>364</ele>
<time>2024-05-10T16:16:21Z</time>
</trkpt>
<trkpt lat="49.51869581826031" lon="9.3109683226794">
<ele>363.8</ele>
<time>2024-05-10T16:16:22Z</time>
</trkpt>
<trkpt lat="49.51869959011674" lon="9.311004616320131">
<ele>363.4</ele>
<time>2024-05-10T16:16:23Z</time>
</trkpt>
<trkpt lat="49.5187034457922" lon="9.311035126447678">
<ele>363.2</ele>
<time>2024-05-10T16:16:24Z</time>
</trkpt>
<trkpt lat="49.5187034457922" lon="9.3110684864223">
<ele>363</ele>
<time>2024-05-10T16:16:25Z</time>
</trkpt>
<trkpt lat="49.518707217648625" lon="9.311104696244">
<ele>362.8</ele>
<time>2024-05-10T16:16:26Z</time>
</trkpt>
<trkpt lat="49.51871107332408" lon="9.311142917722464">
<ele>362.6</ele>
<time>2024-05-10T16:16:27Z</time>
</trkpt>
<trkpt lat="49.51871484518051" lon="9.311178205534816">
<ele>362.6</ele>
<time>2024-05-10T16:16:28Z</time>
</trkpt>
<trkpt lat="49.5187224727124" lon="9.311209637671707">
<ele>362.4</ele>
<time>2024-05-10T16:16:29Z</time>
</trkpt>
<trkpt lat="49.51872632838786" lon="9.311238219961524">
<ele>362.2</ele>
<time>2024-05-10T16:16:30Z</time>
</trkpt>
<trkpt lat="49.51872632838786" lon="9.31126495823264">
<ele>362</ele>
<time>2024-05-10T16:16:31Z</time>
</trkpt>
<trkpt lat="49.51872632838786" lon="9.311296390369534">
<ele>361.8</ele>
<time>2024-05-10T16:16:32Z</time>
</trkpt>
<trkpt lat="49.51873010024429" lon="9.31132505647838">
<ele>361.8</ele>
<time>2024-05-10T16:16:33Z</time>
</trkpt>
<trkpt lat="49.51873010024429" lon="9.311351710930468">
<ele>361.6</ele>
<time>2024-05-10T16:16:34Z</time>
</trkpt>
<trkpt lat="49.51873010024429" lon="9.311369815841315">
<ele>361.4</ele>
<time>2024-05-10T16:16:35Z</time>
</trkpt>
<trkpt lat="49.51873010024429" lon="9.311381299048662">
<ele>361.2</ele>
<time>2024-05-10T16:16:36Z</time>
</trkpt>
<trkpt lat="49.51873010024429" lon="9.311389848589895">
<ele>361.2</ele>
<time>2024-05-10T16:16:37Z</time>
</trkpt>
<trkpt lat="49.51873010024429" lon="9.3113880045712">
<ele>361</ele>
<time>2024-05-10T16:16:38Z</time>
</trkpt>
<trkpt lat="49.51873010024429" lon="9.31138699874282">
<ele>360.8</ele>
<time>2024-05-10T16:16:42Z</time>
</trkpt>
<trkpt lat="49.51873010024429" lon="9.3113880045712">
<ele>360.8</ele>
<time>2024-05-10T16:16:45Z</time>
</trkpt>
<trkpt lat="49.51873395591974" lon="9.311401331797242">
<ele>360.6</ele>
<time>2024-05-10T16:16:52Z</time>
</trkpt>
<trkpt lat="49.51873772777617" lon="9.311418514698744">
<ele>360.4</ele>
<time>2024-05-10T16:16:53Z</time>
</trkpt>
<trkpt lat="49.51874158345163" lon="9.311441397294402">
<ele>360.4</ele>
<time>2024-05-10T16:16:54Z</time>
</trkpt>
<trkpt lat="49.518745355308056" lon="9.311478612944484">
<ele>360.2</ele>
<time>2024-05-10T16:16:55Z</time>
</trkpt>
<trkpt lat="49.51875298283994" lon="9.311521528288722">
<ele>360.2</ele>
<time>2024-05-10T16:16:56Z</time>
</trkpt>
<trkpt lat="49.5187568385154" lon="9.311570143327115">
<ele>360</ele>
<time>2024-05-10T16:16:57Z</time>
</trkpt>
<trkpt lat="49.51876061037183" lon="9.311624458059669">
<ele>360</ele>
<time>2024-05-10T16:16:58Z</time>
</trkpt>
<trkpt lat="49.51877209357917" lon="9.311684556305408">
<ele>360</ele>
<time>2024-05-10T16:16:59Z</time>
</trkpt>
<trkpt lat="49.51877972111106" lon="9.311751360073686">
<ele>359.8</ele>
<time>2024-05-10T16:17:00Z</time>
</trkpt>
<trkpt lat="49.518783492967486" lon="9.311818080022933">
<ele>359.8</ele>
<time>2024-05-10T16:17:01Z</time>
</trkpt>
<trkpt lat="49.518787348642945" lon="9.311884799972177">
<ele>359.8</ele>
<time>2024-05-10T16:17:02Z</time>
</trkpt>
<trkpt lat="49.51879497617483" lon="9.311949675902724">
<ele>359.8</ele>
<time>2024-05-10T16:17:03Z</time>
</trkpt>
<trkpt lat="49.51879497617483" lon="9.312016479671">
<ele>359.6</ele>
<time>2024-05-10T16:17:04Z</time>
</trkpt>
<trkpt lat="49.51879874803126" lon="9.312087977305056">
<ele>359.6</ele>
<time>2024-05-10T16:17:05Z</time>
</trkpt>
<trkpt lat="49.51880260370672" lon="9.312159474939108">
<ele>359.6</ele>
<time>2024-05-10T16:17:06Z</time>
</trkpt>
<trkpt lat="49.518806375563145" lon="9.31223675608635">
<ele>359.4</ele>
<time>2024-05-10T16:17:07Z</time>
</trkpt>
<trkpt lat="49.51881023123861" lon="9.31231688708067">
<ele>359.4</ele>
<time>2024-05-10T16:17:08Z</time>
</trkpt>
<trkpt lat="49.51881785877049" lon="9.31239316239953">
<ele>359.2</ele>
<time>2024-05-10T16:17:09Z</time>
</trkpt>
<trkpt lat="49.51882171444595" lon="9.312464660033584">
<ele>359</ele>
<time>2024-05-10T16:17:10Z</time>
</trkpt>
<trkpt lat="49.518829341977835" lon="9.31253330782056">
<ele>358.8</ele>
<time>2024-05-10T16:17:11Z</time>
</trkpt>
<trkpt lat="49.51884074136615" lon="9.312602961435914">
<ele>358.6</ele>
<time>2024-05-10T16:17:12Z</time>
</trkpt>
<trkpt lat="49.518848368898034" lon="9.312675464898348">
<ele>358.4</ele>
<time>2024-05-10T16:17:13Z</time>
</trkpt>
<trkpt lat="49.51885222457349" lon="9.3127469625324">
<ele>358.2</ele>
<time>2024-05-10T16:17:14Z</time>
</trkpt>
<trkpt lat="49.51885599642992" lon="9.312816616147757">
<ele>358</ele>
<time>2024-05-10T16:17:15Z</time>
</trkpt>
<trkpt lat="49.51885985210538" lon="9.31288618594408">
<ele>358</ele>
<time>2024-05-10T16:17:16Z</time>
</trkpt>
<trkpt lat="49.518867479637265" lon="9.312956761568785">
<ele>357.8</ele>
<time>2024-05-10T16:17:17Z</time>
</trkpt>
<trkpt lat="49.51887125149369" lon="9.31302448734641">
<ele>357.6</ele>
<time>2024-05-10T16:17:18Z</time>
</trkpt>
<trkpt lat="49.51887887902558" lon="9.313095062971115">
<ele>357.4</ele>
<time>2024-05-10T16:17:19Z</time>
</trkpt>
<trkpt lat="49.51889413408935" lon="9.313166560605168">
<ele>357.2</ele>
<time>2024-05-10T16:17:20Z</time>
</trkpt>
<trkpt lat="49.51890938915312" lon="9.313238142058252">
<ele>357</ele>
<time>2024-05-10T16:17:21Z</time>
</trkpt>
<trkpt lat="49.518924644216895" lon="9.313309639692308">
<ele>356.8</ele>
<time>2024-05-10T16:17:22Z</time>
</trkpt>
<trkpt lat="49.51893612742424" lon="9.31338306516409">
<ele>356.6</ele>
<time>2024-05-10T16:17:23Z</time>
</trkpt>
<trkpt lat="49.51895138248801" lon="9.3134584184736">
<ele>356.4</ele>
<time>2024-05-10T16:17:24Z</time>
</trkpt>
<trkpt lat="49.51897426508367" lon="9.313533771783112">
<ele>356.2</ele>
<time>2024-05-10T16:17:25Z</time>
</trkpt>
<trkpt lat="49.5189933758229" lon="9.313610047101974">
<ele>356</ele>
<time>2024-05-10T16:17:26Z</time>
</trkpt>
<trkpt lat="49.5190124027431" lon="9.313690178096294">
<ele>356</ele>
<time>2024-05-10T16:17:27Z</time>
</trkpt>
<trkpt lat="49.51903151348233" lon="9.313770225271584">
<ele>355.8</ele>
<time>2024-05-10T16:17:28Z</time>
</trkpt>
<trkpt lat="49.51905054040253" lon="9.31385320611298">
<ele>355.8</ele>
<time>2024-05-10T16:17:29Z</time>
</trkpt>
<trkpt lat="49.519065795466304" lon="9.313938114792109">
<ele>355.8</ele>
<time>2024-05-10T16:17:30Z</time>
</trkpt>
<trkpt lat="49.51907727867365" lon="9.314022939652205">
<ele>355.8</ele>
<time>2024-05-10T16:17:31Z</time>
</trkpt>
<trkpt lat="49.51908867806196" lon="9.314107848331332">
<ele>355.8</ele>
<time>2024-05-10T16:17:32Z</time>
</trkpt>
<trkpt lat="49.519103933125734" lon="9.314189907163382">
<ele>355.8</ele>
<time>2024-05-10T16:17:33Z</time>
</trkpt>
<trkpt lat="49.519123043864965" lon="9.3142718821764">
<ele>355.6</ele>
<time>2024-05-10T16:17:34Z</time>
</trkpt>
<trkpt lat="49.51913444325328" lon="9.31435201317072">
<ele>355.6</ele>
<time>2024-05-10T16:17:35Z</time>
</trkpt>
<trkpt lat="49.51915355399251" lon="9.314434994012116">
<ele>355.4</ele>
<time>2024-05-10T16:17:36Z</time>
</trkpt>
<trkpt lat="49.51917266473174" lon="9.314513197168708">
<ele>355.2</ele>
<time>2024-05-10T16:17:37Z</time>
</trkpt>
<trkpt lat="49.51919169165194" lon="9.314590394496918">
<ele>355.2</ele>
<time>2024-05-10T16:17:38Z</time>
</trkpt>
<trkpt lat="49.51921080239117" lon="9.31466482579708">
<ele>355</ele>
<time>2024-05-10T16:17:39Z</time>
</trkpt>
<trkpt lat="49.51922982931137" lon="9.31474202312529">
<ele>354.8</ele>
<time>2024-05-10T16:17:40Z</time>
</trkpt>
<trkpt lat="49.51924508437514" lon="9.314811676740646">
<ele>354.8</ele>
<time>2024-05-10T16:17:41Z</time>
</trkpt>
<trkpt lat="49.519264195114374" lon="9.314889879897237">
<ele>354.6</ele>
<time>2024-05-10T16:17:42Z</time>
</trkpt>
<trkpt lat="49.519283222034574" lon="9.314966155216098">
<ele>354.4</ele>
<time>2024-05-10T16:17:43Z</time>
</trkpt>
<trkpt lat="49.519302332773805" lon="9.315038658678532">
<ele>354.2</ele>
<time>2024-05-10T16:17:44Z</time>
</trkpt>
<trkpt lat="49.51932521536946" lon="9.315112084150314">
<ele>354.2</ele>
<time>2024-05-10T16:17:45Z</time>
</trkpt>
<trkpt lat="49.519344326108694" lon="9.315186431631446">
<ele>354</ele>
<time>2024-05-10T16:17:46Z</time>
</trkpt>
<trkpt lat="49.51936335302889" lon="9.31525700725615">
<ele>354</ele>
<time>2024-05-10T16:17:47Z</time>
</trkpt>
<trkpt lat="49.519382463768125" lon="9.315324733033776">
<ele>354.2</ele>
<time>2024-05-10T16:17:48Z</time>
</trkpt>
<trkpt lat="49.51940149068832" lon="9.315393380820751">
<ele>354.2</ele>
<time>2024-05-10T16:17:49Z</time>
</trkpt>
<trkpt lat="49.519416745752096" lon="9.315462112426758">
<ele>354.4</ele>
<time>2024-05-10T16:17:50Z</time>
</trkpt>
<trkpt lat="49.51942822895944" lon="9.315531682223082">
<ele>354.4</ele>
<time>2024-05-10T16:17:51Z</time>
</trkpt>
<trkpt lat="49.51944725587964" lon="9.31559848599136">
<ele>354.6</ele>
<time>2024-05-10T16:17:52Z</time>
</trkpt>
<trkpt lat="49.51946636661887" lon="9.315663278102877">
<ele>354.8</ele>
<time>2024-05-10T16:17:53Z</time>
</trkpt>
<trkpt lat="49.51948162168264" lon="9.315728154033422">
<ele>354.8</ele>
<time>2024-05-10T16:17:54Z</time>
</trkpt>
<trkpt lat="49.519496876746416" lon="9.315794873982668">
<ele>355</ele>
<time>2024-05-10T16:17:55Z</time>
</trkpt>
<trkpt lat="49.51951213181019" lon="9.315863605588676">
<ele>355</ele>
<time>2024-05-10T16:17:56Z</time>
</trkpt>
<trkpt lat="49.51952738687396" lon="9.315933175384998">
<ele>355</ele>
<time>2024-05-10T16:17:57Z</time>
</trkpt>
<trkpt lat="49.51954649761319" lon="9.316003751009704">
<ele>355.2</ele>
<time>2024-05-10T16:17:58Z</time>
</trkpt>
<trkpt lat="49.51956175267696" lon="9.316071476787329">
<ele>355.2</ele>
<time>2024-05-10T16:17:59Z</time>
</trkpt>
<trkpt lat="49.51958077959716" lon="9.316138196736574">
<ele>355.2</ele>
<time>2024-05-10T16:18:01Z</time>
</trkpt>
<trkpt lat="49.51960366219282" lon="9.31626794859767">
<ele>355.2</ele>
<time>2024-05-10T16:18:02Z</time>
</trkpt>
<trkpt lat="49.51961514540017" lon="9.316331818699837">
<ele>355.4</ele>
<time>2024-05-10T16:18:03Z</time>
</trkpt>
<trkpt lat="49.51963040046394" lon="9.316394766792657">
<ele>355.4</ele>
<time>2024-05-10T16:18:04Z</time>
</trkpt>
<trkpt lat="49.51964565552771" lon="9.316456792876124">
<ele>355.4</ele>
<time>2024-05-10T16:18:05Z</time>
</trkpt>
<trkpt lat="49.519657054916024" lon="9.316519657149913">
<ele>355.2</ele>
<time>2024-05-10T16:18:06Z</time>
</trkpt>
<trkpt lat="49.51967239379883" lon="9.31658361107111">
<ele>355.2</ele>
<time>2024-05-10T16:18:07Z</time>
</trkpt>
<trkpt lat="49.51968379318714" lon="9.3166446313262">
<ele>355.2</ele>
<time>2024-05-10T16:18:08Z</time>
</trkpt>
<trkpt lat="49.519699048250914" lon="9.316709507256746">
<ele>355.2</ele>
<time>2024-05-10T16:18:09Z</time>
</trkpt>
<trkpt lat="49.519718158990145" lon="9.316775305196645">
<ele>355.2</ele>
<time>2024-05-10T16:18:10Z</time>
</trkpt>
<trkpt lat="49.51973341405392" lon="9.31683825328946">
<ele>355.2</ele>
<time>2024-05-10T16:18:11Z</time>
</trkpt>
<trkpt lat="49.51975244097411" lon="9.316903045400975">
<ele>355</ele>
<time>2024-05-10T16:18:12Z</time>
</trkpt>
<trkpt lat="49.51977155171335" lon="9.316967921331525">
<ele>354.8</ele>
<time>2024-05-10T16:18:13Z</time>
</trkpt>
<trkpt lat="49.51978680677712" lon="9.317031791433692">
<ele>354.4</ele>
<time>2024-05-10T16:18:14Z</time>
</trkpt>
<trkpt lat="49.51980206184089" lon="9.31709473952651">
<ele>354.2</ele>
<time>2024-05-10T16:18:15Z</time>
</trkpt>
<trkpt lat="49.51982494443655" lon="9.317163387313483">
<ele>354</ele>
<time>2024-05-10T16:18:16Z</time>
</trkpt>
<trkpt lat="49.51984782703221" lon="9.31723496876657">
<ele>353.8</ele>
<time>2024-05-10T16:18:17Z</time>
</trkpt>
<trkpt lat="49.51986693777144" lon="9.317304538562894">
<ele>353.4</ele>
<time>2024-05-10T16:18:18Z</time>
</trkpt>
<trkpt lat="49.51988596469164" lon="9.317375114187598">
<ele>353.2</ele>
<time>2024-05-10T16:18:19Z</time>
</trkpt>
<trkpt lat="49.51990507543087" lon="9.317442839965224">
<ele>353</ele>
<time>2024-05-10T16:18:20Z</time>
</trkpt>
<trkpt lat="49.51992033049464" lon="9.317518193274736">
<ele>352.6</ele>
<time>2024-05-10T16:18:21Z</time>
</trkpt>
<trkpt lat="49.51993935741484" lon="9.317594468593596">
<ele>352.4</ele>
<time>2024-05-10T16:18:22Z</time>
</trkpt>
<trkpt lat="49.51995846815407" lon="9.31767174974084">
<ele>352.2</ele>
<time>2024-05-10T16:18:23Z</time>
</trkpt>
<trkpt lat="49.51998512260616" lon="9.3177480250597">
<ele>352</ele>
<time>2024-05-10T16:18:24Z</time>
</trkpt>
<trkpt lat="49.52000423334539" lon="9.317825306206942">
<ele>352</ele>
<time>2024-05-10T16:18:25Z</time>
</trkpt>
<trkpt lat="49.52002334408462" lon="9.31790535338223">
<ele>351.8</ele>
<time>2024-05-10T16:18:26Z</time>
</trkpt>
<trkpt lat="49.52004237100482" lon="9.3179845623672">
<ele>351.6</ele>
<time>2024-05-10T16:18:27Z</time>
</trkpt>
<trkpt lat="49.52006148174405" lon="9.318059915676711">
<ele>351.4</ele>
<time>2024-05-10T16:18:28Z</time>
</trkpt>
<trkpt lat="49.52008050866425" lon="9.318133341148496">
<ele>351.2</ele>
<time>2024-05-10T16:18:29Z</time>
</trkpt>
<trkpt lat="49.52009576372802" lon="9.318204838782547">
<ele>351</ele>
<time>2024-05-10T16:18:30Z</time>
</trkpt>
<trkpt lat="49.52010724693537" lon="9.31828019209206">
<ele>350.8</ele>
<time>2024-05-10T16:18:31Z</time>
</trkpt>
<trkpt lat="49.52012250199914" lon="9.318347917869689">
<ele>350.6</ele>
<time>2024-05-10T16:18:32Z</time>
</trkpt>
<trkpt lat="49.52014152891934" lon="9.318409860134125">
<ele>350.4</ele>
<time>2024-05-10T16:18:33Z</time>
</trkpt>
<trkpt lat="49.52016063965857" lon="9.318471886217594">
<ele>350.2</ele>
<time>2024-05-10T16:18:34Z</time>
</trkpt>
<trkpt lat="49.52017589472234" lon="9.318532906472685">
<ele>349.8</ele>
<time>2024-05-10T16:18:35Z</time>
</trkpt>
<trkpt lat="49.520191149786115" lon="9.31859677657485">
<ele>349.6</ele>
<time>2024-05-10T16:18:36Z</time>
</trkpt>
<trkpt lat="49.52020640484989" lon="9.318664502352476">
<ele>349.2</ele>
<time>2024-05-10T16:18:37Z</time>
</trkpt>
<trkpt lat="49.520210260525346" lon="9.31873700581491">
<ele>349</ele>
<time>2024-05-10T16:18:38Z</time>
</trkpt>
<trkpt lat="49.52020640484989" lon="9.318806575611234">
<ele>348.8</ele>
<time>2024-05-10T16:18:39Z</time>
</trkpt>
<trkpt lat="49.520191149786115" lon="9.31887622922659">
<ele>348.4</ele>
<time>2024-05-10T16:18:40Z</time>
</trkpt>
<trkpt lat="49.52017589472234" lon="9.318949654698372">
<ele>348</ele>
<time>2024-05-10T16:18:41Z</time>
</trkpt>
<trkpt lat="49.520164411515" lon="9.31903355754912">
<ele>347.6</ele>
<time>2024-05-10T16:18:42Z</time>
</trkpt>
<trkpt lat="49.520149156451225" lon="9.319121316075323">
<ele>347.2</ele>
<time>2024-05-10T16:18:43Z</time>
</trkpt>
<trkpt lat="49.52013775706291" lon="9.319214774295688">
<ele>346.8</ele>
<time>2024-05-10T16:18:44Z</time>
</trkpt>
<trkpt lat="49.52012250199914" lon="9.31931016035378">
<ele>346.4</ele>
<time>2024-05-10T16:18:45Z</time>
</trkpt>
<trkpt lat="49.520111018791795" lon="9.319401690736411">
<ele>346.2</ele>
<time>2024-05-10T16:18:46Z</time>
</trkpt>
<trkpt lat="49.52009961940348" lon="9.31948659941554">
<ele>345.8</ele>
<time>2024-05-10T16:18:47Z</time>
</trkpt>
<trkpt lat="49.52008813619614" lon="9.319564802572131">
<ele>345.4</ele>
<time>2024-05-10T16:18:48Z</time>
</trkpt>
<trkpt lat="49.52007673680782" lon="9.319638228043914">
<ele>345</ele>
<time>2024-05-10T16:18:49Z</time>
</trkpt>
<trkpt lat="49.52006148174405" lon="9.319716431200504">
<ele>344.6</ele>
<time>2024-05-10T16:18:50Z</time>
</trkpt>
<trkpt lat="49.520053854212165" lon="9.319793628528714">
<ele>344.2</ele>
<time>2024-05-10T16:18:51Z</time>
</trkpt>
<trkpt lat="49.520049998536706" lon="9.319868059828876">
<ele>343.8</ele>
<time>2024-05-10T16:18:52Z</time>
</trkpt>
<trkpt lat="49.52003859914839" lon="9.319945257157087">
<ele>343.6</ele>
<time>2024-05-10T16:18:53Z</time>
</trkpt>
<trkpt lat="49.520034743472934" lon="9.32002161629498">
<ele>343.2</ele>
<time>2024-05-10T16:18:54Z</time>
</trkpt>
<trkpt lat="49.52002334408462" lon="9.320096969604492">
<ele>343</ele>
<time>2024-05-10T16:18:55Z</time>
</trkpt>
<trkpt lat="49.520015716552734" lon="9.320171317085624">
<ele>342.8</ele>
<time>2024-05-10T16:18:56Z</time>
</trkpt>
<trkpt lat="49.52000800520182" lon="9.320248598232864">
<ele>342.4</ele>
<time>2024-05-10T16:18:57Z</time>
</trkpt>
<trkpt lat="49.52000423334539" lon="9.320324873551726">
<ele>342.2</ele>
<time>2024-05-10T16:18:58Z</time>
</trkpt>
<trkpt lat="49.52000423334539" lon="9.32039444334805">
<ele>342</ele>
<time>2024-05-10T16:18:59Z</time>
</trkpt>
<trkpt lat="49.5199966058135" lon="9.320458397269247">
<ele>341.8</ele>
<time>2024-05-10T16:19:00Z</time>
</trkpt>
<trkpt lat="49.5199966058135" lon="9.32051656767726">
<ele>341.6</ele>
<time>2024-05-10T16:19:01Z</time>
</trkpt>
<trkpt lat="49.51999275013805" lon="9.32057473808527">
<ele>341.4</ele>
<time>2024-05-10T16:19:02Z</time>
</trkpt>
<trkpt lat="49.51999275013805" lon="9.3206319026649">
<ele>341.2</ele>
<time>2024-05-10T16:19:03Z</time>
</trkpt>
<trkpt lat="49.5199966058135" lon="9.32069200091064">
<ele>341</ele>
<time>2024-05-10T16:19:04Z</time>
</trkpt>
<trkpt lat="49.52000037766993" lon="9.32075017131865">
<ele>340.8</ele>
<time>2024-05-10T16:19:05Z</time>
</trkpt>
<trkpt lat="49.52000423334539" lon="9.32081026956439">
<ele>340.6</ele>
<time>2024-05-10T16:19:06Z</time>
</trkpt>
<trkpt lat="49.52000800520182" lon="9.32087128981948">
<ele>340.4</ele>
<time>2024-05-10T16:19:07Z</time>
</trkpt>
<trkpt lat="49.52000800520182" lon="9.320933315902948">
<ele>340.2</ele>
<time>2024-05-10T16:19:08Z</time>
</trkpt>
<trkpt lat="49.520011860877275" lon="9.320993414148688">
<ele>339.8</ele>
<time>2024-05-10T16:19:09Z</time>
</trkpt>
<trkpt lat="49.520011860877275" lon="9.321053428575397">
<ele>339.6</ele>
<time>2024-05-10T16:19:10Z</time>
</trkpt>
<trkpt lat="49.520015716552734" lon="9.321111598983409">
<ele>339.4</ele>
<time>2024-05-10T16:19:11Z</time>
</trkpt>
<trkpt lat="49.52001948840916" lon="9.32116985321045">
<ele>339.2</ele>
<time>2024-05-10T16:19:12Z</time>
</trkpt>
<trkpt lat="49.52002334408462" lon="9.32122508995235">
<ele>339</ele>
<time>2024-05-10T16:19:13Z</time>
</trkpt>
<trkpt lat="49.52002711594105" lon="9.321278566494584">
<ele>338.8</ele>
<time>2024-05-10T16:19:14Z</time>
</trkpt>
<trkpt lat="49.52002711594105" lon="9.321332881227136">
<ele>338.8</ele>
<time>2024-05-10T16:19:15Z</time>
</trkpt>
<trkpt lat="49.52002711594105" lon="9.321386273950338">
<ele>338.8</ele>
<time>2024-05-10T16:19:16Z</time>
</trkpt>
<trkpt lat="49.520034743472934" lon="9.32144545018673">
<ele>338.8</ele>
<time>2024-05-10T16:19:17Z</time>
</trkpt>
<trkpt lat="49.52003859914839" lon="9.321506470441818">
<ele>338.8</ele>
<time>2024-05-10T16:19:18Z</time>
</trkpt>
<trkpt lat="49.52004237100482" lon="9.321568412706256">
<ele>338.8</ele>
<time>2024-05-10T16:19:19Z</time>
</trkpt>
<trkpt lat="49.520049998536706" lon="9.321630438789724">
<ele>338.8</ele>
<time>2024-05-10T16:19:20Z</time>
</trkpt>
<trkpt lat="49.520049998536706" lon="9.321691459044814">
<ele>338.8</ele>
<time>2024-05-10T16:19:21Z</time>
</trkpt>
<trkpt lat="49.52005762606859" lon="9.321751557290554">
<ele>338.8</ele>
<time>2024-05-10T16:19:22Z</time>
</trkpt>
<trkpt lat="49.52006148174405" lon="9.321813583374023">
<ele>338.8</ele>
<time>2024-05-10T16:19:23Z</time>
</trkpt>
<trkpt lat="49.52006148174405" lon="9.321874603629112">
<ele>338.8</ele>
<time>2024-05-10T16:19:24Z</time>
</trkpt>
<trkpt lat="49.52006910927594" lon="9.32193654589355">
<ele>338.6</ele>
<time>2024-05-10T16:19:25Z</time>
</trkpt>
<trkpt lat="49.52006910927594" lon="9.32199857197702">
<ele>338.4</ele>
<time>2024-05-10T16:19:26Z</time>
</trkpt>
<trkpt lat="49.52007288113237" lon="9.322059592232108">
<ele>338.4</ele>
<time>2024-05-10T16:19:27Z</time>
</trkpt>
<trkpt lat="49.52007673680782" lon="9.322119690477848">
<ele>338.2</ele>
<time>2024-05-10T16:19:28Z</time>
</trkpt>
<trkpt lat="49.52008813619614" lon="9.322179788723588">
<ele>338</ele>
<time>2024-05-10T16:19:29Z</time>
</trkpt>
<trkpt lat="49.52009576372802" lon="9.322237959131598">
<ele>337.8</ele>
<time>2024-05-10T16:19:30Z</time>
</trkpt>
<trkpt lat="49.52009576372802" lon="9.322297973558308">
<ele>337.8</ele>
<time>2024-05-10T16:19:31Z</time>
</trkpt>
<trkpt lat="49.52010339125991" lon="9.322362849488854">
<ele>337.6</ele>
<time>2024-05-10T16:19:32Z</time>
</trkpt>
<trkpt lat="49.52011864632368" lon="9.322422947734594">
<ele>337.6</ele>
<time>2024-05-10T16:19:33Z</time>
</trkpt>
<trkpt lat="49.520149156451225" lon="9.322468712925913">
<ele>337.6</ele>
<time>2024-05-10T16:19:34Z</time>
</trkpt>
<trkpt lat="49.52018352225423" lon="9.322507856413722">
<ele>337.4</ele>
<time>2024-05-10T16:19:35Z</time>
</trkpt>
<trkpt lat="49.52021788805723" lon="9.3225469160825">
<ele>337.2</ele>
<time>2024-05-10T16:19:36Z</time>
</trkpt>
<trkpt lat="49.520248398184776" lon="9.322585053741932">
<ele>337.2</ele>
<time>2024-05-10T16:19:37Z</time>
</trkpt>
<trkpt lat="49.520290307700634" lon="9.322620341554284">
<ele>336.8</ele>
<time>2024-05-10T16:19:38Z</time>
</trkpt>
<trkpt lat="49.52033230103552" lon="9.322660407051444">
<ele>336.6</ele>
<time>2024-05-10T16:19:39Z</time>
</trkpt>
<trkpt lat="49.52037429437041" lon="9.322691839188336">
<ele>336.4</ele>
<time>2024-05-10T16:19:40Z</time>
</trkpt>
<trkpt lat="49.52042005956173" lon="9.322723355144262">
<ele>336</ele>
<time>2024-05-10T16:19:41Z</time>
</trkpt>
<trkpt lat="49.520465824753046" lon="9.322754787281156">
<ele>335.8</ele>
<time>2024-05-10T16:19:42Z</time>
</trkpt>
<trkpt lat="49.52051921747625" lon="9.32278630323708">
<ele>335.6</ele>
<time>2024-05-10T16:19:43Z</time>
</trkpt>
<trkpt lat="49.52057261019945" lon="9.322816813364623">
<ele>335.4</ele>
<time>2024-05-10T16:19:44Z</time>
</trkpt>
<trkpt lat="49.520626002922654" lon="9.322853023186326">
<ele>335.2</ele>
<time>2024-05-10T16:19:45Z</time>
</trkpt>
<trkpt lat="49.52067562378943" lon="9.32290356606245">
<ele>335</ele>
<time>2024-05-10T16:19:46Z</time>
</trkpt>
<trkpt lat="49.52072901651263" lon="9.322950337082148">
<ele>334.8</ele>
<time>2024-05-10T16:19:47Z</time>
</trkpt>
<trkpt lat="49.52077863737941" lon="9.322990402579308">
<ele>334.8</ele>
<time>2024-05-10T16:19:48Z</time>
</trkpt>
<trkpt lat="49.52082817442715" lon="9.323033317923546">
<ele>334.6</ele>
<time>2024-05-10T16:19:49Z</time>
</trkpt>
<trkpt lat="49.520881650969386" lon="9.323071455582976">
<ele>334.2</ele>
<time>2024-05-10T16:19:50Z</time>
</trkpt>
<trkpt lat="49.52093118801713" lon="9.323108671233058">
<ele>334</ele>
<time>2024-05-10T16:19:51Z</time>
</trkpt>
<trkpt lat="49.52097318135202" lon="9.32314488105476">
<ele>333.8</ele>
<time>2024-05-10T16:19:52Z</time>
</trkpt>
<trkpt lat="49.52101509086788" lon="9.323178241029382">
<ele>333.6</ele>
<time>2024-05-10T16:19:53Z</time>
</trkpt>
<trkpt lat="49.521060939878225" lon="9.323211601004004">
<ele>333.4</ele>
<time>2024-05-10T16:19:54Z</time>
</trkpt>
<trkpt lat="49.52110284939408" lon="9.323234483599665">
<ele>333.4</ele>
<time>2024-05-10T16:19:55Z</time>
</trkpt>
<trkpt lat="49.52114098705351" lon="9.323247894644735">
<ele>333.2</ele>
<time>2024-05-10T16:19:56Z</time>
</trkpt>
<trkpt lat="49.52122111804783" lon="9.323246888816357">
<ele>333</ele>
<time>2024-05-10T16:19:58Z</time>
</trkpt>
<trkpt lat="49.52126311138272" lon="9.3232411891222">
<ele>332.8</ele>
<time>2024-05-10T16:19:59Z</time>
</trkpt>
<trkpt lat="49.52130502089858" lon="9.323234483599665">
<ele>332.6</ele>
<time>2024-05-10T16:20:00Z</time>
</trkpt>
<trkpt lat="49.52134315855801" lon="9.323233561590314">
<ele>332.6</ele>
<time>2024-05-10T16:20:01Z</time>
</trkpt>
<trkpt lat="49.52138129621744" lon="9.323234483599665">
<ele>332.4</ele>
<time>2024-05-10T16:20:02Z</time>
</trkpt>
<trkpt lat="49.52141189016402" lon="9.323240267112851">
<ele>332.4</ele>
<time>2024-05-10T16:20:03Z</time>
</trkpt>
<trkpt lat="49.52145002782345" lon="9.32324504479766">
<ele>332.2</ele>
<time>2024-05-10T16:20:04Z</time>
</trkpt>
<trkpt lat="49.52148816548288" lon="9.323260299861431">
<ele>332</ele>
<time>2024-05-10T16:20:05Z</time>
</trkpt>
<trkpt lat="49.52152244746685" lon="9.323267927393315">
<ele>331.8</ele>
<time>2024-05-10T16:20:06Z</time>
</trkpt>
<trkpt lat="49.521556813269854" lon="9.323271699249744">
<ele>331.8</ele>
<time>2024-05-10T16:20:07Z</time>
</trkpt>
<trkpt lat="49.52159495092928" lon="9.323276476934552">
<ele>331.6</ele>
<time>2024-05-10T16:20:08Z</time>
</trkpt>
<trkpt lat="49.521633088588715" lon="9.323278404772282">
<ele>331.6</ele>
<time>2024-05-10T16:20:09Z</time>
</trkpt>
<trkpt lat="49.521671226248145" lon="9.323276476934552">
<ele>331.4</ele>
<time>2024-05-10T16:20:10Z</time>
</trkpt>
<trkpt lat="49.52170173637569" lon="9.323271699249744">
<ele>331.2</ele>
<time>2024-05-10T16:20:11Z</time>
</trkpt>
<trkpt lat="49.521732330322266" lon="9.323264993727207">
<ele>331</ele>
<time>2024-05-10T16:20:12Z</time>
</trkpt>
<trkpt lat="49.521751357242465" lon="9.32326122187078">
<ele>331</ele>
<time>2024-05-10T16:20:13Z</time>
</trkpt>
<trkpt lat="49.52177423983812" lon="9.32326122187078">
<ele>331</ele>
<time>2024-05-10T16:20:14Z</time>
</trkpt>
<trkpt lat="49.52180860564113" lon="9.323258372023702">
<ele>331</ele>
<time>2024-05-10T16:20:16Z</time>
</trkpt>
<trkpt lat="49.52181623317301" lon="9.323256444185972">
<ele>331</ele>
<time>2024-05-10T16:20:17Z</time>
</trkpt>
<trkpt lat="49.5218238607049" lon="9.323254516348245">
<ele>331</ele>
<time>2024-05-10T16:20:18Z</time>
</trkpt>
<trkpt lat="49.52183526009321" lon="9.323256444185972">
<ele>330.8</ele>
<time>2024-05-10T16:20:19Z</time>
</trkpt>
<trkpt lat="49.52184674330056" lon="9.323256444185972">
<ele>330.8</ele>
<time>2024-05-10T16:20:20Z</time>
</trkpt>
<trkpt lat="49.52186199836433" lon="9.32324311695993">
<ele>330.8</ele>
<time>2024-05-10T16:20:21Z</time>
</trkpt>
<trkpt lat="49.5218772534281" lon="9.323240267112851">
<ele>330.8</ele>
<time>2024-05-10T16:20:22Z</time>
</trkpt>
<trkpt lat="49.521888652816415" lon="9.323236411437392">
<ele>330.8</ele>
<time>2024-05-10T16:20:23Z</time>
</trkpt>
<trkpt lat="49.5218962803483" lon="9.323238339275122">
<ele>330.6</ele>
<time>2024-05-10T16:20:24Z</time>
</trkpt>
<trkpt lat="49.52190399169922" lon="9.32324311695993">
<ele>330.6</ele>
<time>2024-05-10T16:20:25Z</time>
</trkpt>
<trkpt lat="49.521911619231105" lon="9.32324311695993">
<ele>330.6</ele>
<time>2024-05-10T16:20:26Z</time>
</trkpt>
<trkpt lat="49.52191539108753" lon="9.32324504479766">
<ele>330.6</ele>
<time>2024-05-10T16:20:27Z</time>
</trkpt>
<trkpt lat="49.52191924676299" lon="9.32324504479766">
<ele>330.6</ele>
<time>2024-05-10T16:20:28Z</time>
</trkpt>
<trkpt lat="49.52192301861942" lon="9.323247894644735">
<ele>330.6</ele>
<time>2024-05-10T16:20:29Z</time>
</trkpt>
<trkpt lat="49.52192687429488" lon="9.323249738663437">
<ele>330.6</ele>
<time>2024-05-10T16:20:30Z</time>
</trkpt>
<trkpt lat="49.52194590121507" lon="9.323258372023702">
<ele>330.8</ele>
<time>2024-05-10T16:20:31Z</time>
</trkpt>
<trkpt lat="49.52195352874696" lon="9.323258372023702">
<ele>330.8</ele>
<time>2024-05-10T16:20:32Z</time>
</trkpt>
<trkpt lat="49.52196501195431" lon="9.323254516348245">
<ele>330.8</ele>
<time>2024-05-10T16:20:33Z</time>
</trkpt>
<trkpt lat="49.52197641134262" lon="9.323246888816357">
<ele>331</ele>
<time>2024-05-10T16:20:34Z</time>
</trkpt>
<trkpt lat="49.52198403887451" lon="9.323236411437392">
<ele>331</ele>
<time>2024-05-10T16:20:35Z</time>
</trkpt>
<trkpt lat="49.52199166640639" lon="9.323218306526542">
<ele>331</ele>
<time>2024-05-10T16:20:36Z</time>
</trkpt>
<trkpt lat="49.52200314961374" lon="9.323206823319197">
<ele>331.2</ele>
<time>2024-05-10T16:20:37Z</time>
</trkpt>
<trkpt lat="49.52201840467751" lon="9.323198273777962">
<ele>331.2</ele>
<time>2024-05-10T16:20:38Z</time>
</trkpt>
<trkpt lat="49.52202603220939" lon="9.32318494655192">
<ele>331.2</ele>
<time>2024-05-10T16:20:39Z</time>
</trkpt>
<trkpt lat="49.52203365974128" lon="9.32318209670484">
<ele>331.2</ele>
<time>2024-05-10T16:20:40Z</time>
</trkpt>
<trkpt lat="49.5220450591296" lon="9.323176313191652">
<ele>331.4</ele>
<time>2024-05-10T16:20:41Z</time>
</trkpt>
<trkpt lat="49.52205268666148" lon="9.323169691488149">
<ele>331.4</ele>
<time>2024-05-10T16:20:42Z</time>
</trkpt>
<trkpt lat="49.52206416986883" lon="9.32316298596561">
<ele>331.4</ele>
<time>2024-05-10T16:20:43Z</time>
</trkpt>
<trkpt lat="49.52207565307617" lon="9.32316298596561">
<ele>331.4</ele>
<time>2024-05-10T16:20:44Z</time>
</trkpt>
<trkpt lat="49.522090908139944" lon="9.323168685659766">
<ele>331.4</ele>
<time>2024-05-10T16:20:45Z</time>
</trkpt>
<trkpt lat="49.52210616320371" lon="9.323173463344574">
<ele>331.4</ele>
<time>2024-05-10T16:20:46Z</time>
</trkpt>
<trkpt lat="49.52212519012392" lon="9.323178241029382">
<ele>331.4</ele>
<time>2024-05-10T16:20:47Z</time>
</trkpt>
<trkpt lat="49.52214430086315" lon="9.323186874389648">
<ele>331.6</ele>
<time>2024-05-10T16:20:48Z</time>
</trkpt>
<trkpt lat="49.522163327783346" lon="9.323196345940232">
<ele>331.6</ele>
<time>2024-05-10T16:20:49Z</time>
</trkpt>
<trkpt lat="49.52217858284712" lon="9.323206823319197">
<ele>331.8</ele>
<time>2024-05-10T16:20:50Z</time>
</trkpt>
<trkpt lat="49.52220146544278" lon="9.323209756985309">
<ele>332</ele>
<time>2024-05-10T16:20:51Z</time>
</trkpt>
<trkpt lat="49.52222057618201" lon="9.323211601004004">
<ele>332.2</ele>
<time>2024-05-10T16:20:52Z</time>
</trkpt>
<trkpt lat="49.52223583124578" lon="9.323209756985309">
<ele>332.4</ele>
<time>2024-05-10T16:20:53Z</time>
</trkpt>
<trkpt lat="49.52225494198501" lon="9.3232049793005">
<ele>332.6</ele>
<time>2024-05-10T16:20:54Z</time>
</trkpt>
<trkpt lat="49.52227019704878" lon="9.323200201615691">
<ele>332.8</ele>
<time>2024-05-10T16:20:55Z</time>
</trkpt>
<trkpt lat="49.52229307964444" lon="9.323191568255424">
<ele>333.2</ele>
<time>2024-05-10T16:20:56Z</time>
</trkpt>
<trkpt lat="49.52234647236765" lon="9.32318301871419">
<ele>333.4</ele>
<time>2024-05-10T16:20:58Z</time>
</trkpt>
<trkpt lat="49.52237312681973" lon="9.323188718408346">
<ele>333.8</ele>
<time>2024-05-10T16:20:59Z</time>
</trkpt>
<trkpt lat="49.522403636947274" lon="9.323198273777962">
<ele>334.2</ele>
<time>2024-05-10T16:21:00Z</time>
</trkpt>
<trkpt lat="49.52243037521839" lon="9.323209756985309">
<ele>334.4</ele>
<time>2024-05-10T16:21:01Z</time>
</trkpt>
<trkpt lat="49.522464741021395" lon="9.323216378688812">
<ele>334.8</ele>
<time>2024-05-10T16:21:02Z</time>
</trkpt>
<trkpt lat="49.52249139547348" lon="9.323229789733888">
<ele>335</ele>
<time>2024-05-10T16:21:03Z</time>
</trkpt>
<trkpt lat="49.5225181337446" lon="9.3232411891222">
<ele>335.4</ele>
<time>2024-05-10T16:21:04Z</time>
</trkpt>
<trkpt lat="49.522560043260455" lon="9.323233561590314">
<ele>335.6</ele>
<time>2024-05-10T16:21:05Z</time>
</trkpt>
<trkpt lat="49.52258292585611" lon="9.323238339275122">
<ele>335.8</ele>
<time>2024-05-10T16:21:06Z</time>
</trkpt>
<trkpt lat="49.5226058922708" lon="9.323251666501164">
<ele>336</ele>
<time>2024-05-10T16:21:07Z</time>
</trkpt>
<trkpt lat="49.52262877486646" lon="9.323266921564937">
<ele>336.2</ele>
<time>2024-05-10T16:21:08Z</time>
</trkpt>
<trkpt lat="49.52265165746212" lon="9.32328125461936">
<ele>336.4</ele>
<time>2024-05-10T16:21:09Z</time>
</trkpt>
<trkpt lat="49.522678311914206" lon="9.323298437520862">
<ele>336.6</ele>
<time>2024-05-10T16:21:10Z</time>
</trkpt>
<trkpt lat="49.52270505018532" lon="9.323316542431712">
<ele>336.8</ele>
<time>2024-05-10T16:21:11Z</time>
</trkpt>
<trkpt lat="49.52273170463741" lon="9.323331797495484">
<ele>337.2</ele>
<time>2024-05-10T16:21:12Z</time>
</trkpt>
<trkpt lat="49.522762298583984" lon="9.323331797495484">
<ele>337.4</ele>
<time>2024-05-10T16:21:13Z</time>
</trkpt>
<trkpt lat="49.52278895303607" lon="9.323345124721529">
<ele>337.6</ele>
<time>2024-05-10T16:21:14Z</time>
</trkpt>
<trkpt lat="49.52281183563173" lon="9.323356607928872">
<ele>337.8</ele>
<time>2024-05-10T16:21:15Z</time>
</trkpt>
<trkpt lat="49.522838573902845" lon="9.323369935154917">
<ele>338</ele>
<time>2024-05-10T16:21:16Z</time>
</trkpt>
<trkpt lat="49.52286908403039" lon="9.32337949052453">
<ele>338.2</ele>
<time>2024-05-10T16:21:17Z</time>
</trkpt>
<trkpt lat="49.52289196662605" lon="9.323391895741224">
<ele>338.2</ele>
<time>2024-05-10T16:21:18Z</time>
</trkpt>
<trkpt lat="49.522914849221706" lon="9.32340145111084">
<ele>338.4</ele>
<time>2024-05-10T16:21:19Z</time>
</trkpt>
<trkpt lat="49.52293395996094" lon="9.323408072814344">
<ele>338.6</ele>
<time>2024-05-10T16:21:20Z</time>
</trkpt>
<trkpt lat="49.52295684255659" lon="9.323416706174612">
<ele>338.8</ele>
<time>2024-05-10T16:21:21Z</time>
</trkpt>
<trkpt lat="49.522979725152254" lon="9.323425255715849">
<ele>338.8</ele>
<time>2024-05-10T16:21:22Z</time>
</trkpt>
<trkpt lat="49.522994980216026" lon="9.323432883247731">
<ele>339</ele>
<time>2024-05-10T16:21:23Z</time>
</trkpt>
<trkpt lat="49.523017862811685" lon="9.323434811085464">
<ele>339</ele>
<time>2024-05-10T16:21:24Z</time>
</trkpt>
<trkpt lat="49.52303688973189" lon="9.323432883247731">
<ele>339.2</ele>
<time>2024-05-10T16:21:25Z</time>
</trkpt>
<trkpt lat="49.523056000471115" lon="9.323430033400657">
<ele>339.2</ele>
<time>2024-05-10T16:21:26Z</time>
</trkpt>
<trkpt lat="49.523075027391315" lon="9.323430033400657">
<ele>339.2</ele>
<time>2024-05-10T16:21:27Z</time>
</trkpt>
<trkpt lat="49.52309028245509" lon="9.323430033400657">
<ele>339.4</ele>
<time>2024-05-10T16:21:28Z</time>
</trkpt>
<trkpt lat="49.52310562133789" lon="9.323426177725196">
<ele>339.4</ele>
<time>2024-05-10T16:21:29Z</time>
</trkpt>
<trkpt lat="49.52312850393355" lon="9.323426177725196">
<ele>339.6</ele>
<time>2024-05-10T16:21:30Z</time>
</trkpt>
<trkpt lat="49.52315138652921" lon="9.32343858294189">
<ele>339.6</ele>
<time>2024-05-10T16:21:31Z</time>
</trkpt>
<trkpt lat="49.523174269124866" lon="9.323454843834044">
<ele>339.8</ele>
<time>2024-05-10T16:21:32Z</time>
</trkpt>
<trkpt lat="49.523193296045065" lon="9.32347672060132">
<ele>339.8</ele>
<time>2024-05-10T16:21:33Z</time>
</trkpt>
<trkpt lat="49.523212406784296" lon="9.323501531034708">
<ele>340</ele>
<time>2024-05-10T16:21:34Z</time>
</trkpt>
<trkpt lat="49.523231433704495" lon="9.323525419458749">
<ele>340</ele>
<time>2024-05-10T16:21:35Z</time>
</trkpt>
<trkpt lat="49.52324668876827" lon="9.323551151901484">
<ele>340</ele>
<time>2024-05-10T16:21:36Z</time>
</trkpt>
<trkpt lat="49.5232657995075" lon="9.32357688434422">
<ele>340.2</ele>
<time>2024-05-10T16:21:37Z</time>
</trkpt>
<trkpt lat="49.52327728271485" lon="9.323599766939878">
<ele>340.2</ele>
<time>2024-05-10T16:21:38Z</time>
</trkpt>
<trkpt lat="49.523292537778616" lon="9.323621727526188">
<ele>340.4</ele>
<time>2024-05-10T16:21:39Z</time>
</trkpt>
<trkpt lat="49.52330393716693" lon="9.323646537959576">
<ele>340.6</ele>
<time>2024-05-10T16:21:40Z</time>
</trkpt>
<trkpt lat="49.523315420374274" lon="9.32367704808712">
<ele>340.6</ele>
<time>2024-05-10T16:21:41Z</time>
</trkpt>
<trkpt lat="49.52332681976259" lon="9.323706552386284">
<ele>340.8</ele>
<time>2024-05-10T16:21:42Z</time>
</trkpt>
<trkpt lat="49.52333830296993" lon="9.323738068342209">
<ele>341</ele>
<time>2024-05-10T16:21:43Z</time>
</trkpt>
<trkpt lat="49.523353558033705" lon="9.323761872947216">
<ele>341.2</ele>
<time>2024-05-10T16:21:44Z</time>
</trkpt>
<trkpt lat="49.52336495742202" lon="9.32379338890314">
<ele>341.2</ele>
<time>2024-05-10T16:21:45Z</time>
</trkpt>
<trkpt lat="49.52337644062936" lon="9.323824821040034">
<ele>341.4</ele>
<time>2024-05-10T16:21:46Z</time>
</trkpt>
<trkpt lat="49.52338406816125" lon="9.323858181014655">
<ele>341.6</ele>
<time>2024-05-10T16:21:47Z</time>
</trkpt>
<trkpt lat="49.52339932322502" lon="9.323886847123504">
<ele>341.8</ele>
<time>2024-05-10T16:21:48Z</time>
</trkpt>
<trkpt lat="49.52340695075691" lon="9.32391542941332">
<ele>342</ele>
<time>2024-05-10T16:21:49Z</time>
</trkpt>
<trkpt lat="49.52341835014522" lon="9.32393353432417">
<ele>342.2</ele>
<time>2024-05-10T16:21:50Z</time>
</trkpt>
<trkpt lat="49.523429833352566" lon="9.323956416919827">
<ele>342.4</ele>
<time>2024-05-10T16:21:51Z</time>
</trkpt>
<trkpt lat="49.52344123274088" lon="9.323983155190945">
<ele>342.8</ele>
<time>2024-05-10T16:21:52Z</time>
</trkpt>
<trkpt lat="49.5234489440918" lon="9.324009893462062">
<ele>343</ele>
<time>2024-05-10T16:21:53Z</time>
</trkpt>
<trkpt lat="49.52345657162368" lon="9.324034620076418">
<ele>343.2</ele>
<time>2024-05-10T16:21:54Z</time>
</trkpt>
<trkpt lat="49.52345657162368" lon="9.324063286185265">
<ele>343.4</ele>
<time>2024-05-10T16:21:55Z</time>
</trkpt>
<trkpt lat="49.52346034348011" lon="9.324092790484428">
<ele>343.4</ele>
<time>2024-05-10T16:21:56Z</time>
</trkpt>
<trkpt lat="49.52346034348011" lon="9.32412807829678">
<ele>343.6</ele>
<time>2024-05-10T16:21:57Z</time>
</trkpt>
<trkpt lat="49.52346034348011" lon="9.324166215956213">
<ele>343.8</ele>
<time>2024-05-10T16:21:58Z</time>
</trkpt>
<trkpt lat="49.523467971012" lon="9.324199659749866">
<ele>344</ele>
<time>2024-05-10T16:21:59Z</time>
</trkpt>
<trkpt lat="49.523471826687455" lon="9.32423209771514">
<ele>344.2</ele>
<time>2024-05-10T16:22:00Z</time>
</trkpt>
<trkpt lat="49.52347559854388" lon="9.324264451861382">
<ele>344.4</ele>
<time>2024-05-10T16:22:01Z</time>
</trkpt>
<trkpt lat="49.52347945421934" lon="9.3242911901325">
<ele>344.4</ele>
<time>2024-05-10T16:22:02Z</time>
</trkpt>
<trkpt lat="49.52348322607577" lon="9.324313150718808">
<ele>344.6</ele>
<time>2024-05-10T16:22:03Z</time>
</trkpt>
<trkpt lat="49.52348322607577" lon="9.324333183467388">
<ele>344.6</ele>
<time>2024-05-10T16:22:04Z</time>
</trkpt>
<trkpt lat="49.52348322607577" lon="9.324357910081744">
<ele>344.8</ele>
<time>2024-05-10T16:22:05Z</time>
</trkpt>
<trkpt lat="49.523490853607655" lon="9.324377942830324">
<ele>344.8</ele>
<time>2024-05-10T16:22:06Z</time>
</trkpt>
<trkpt lat="49.523509964346886" lon="9.3243913538754">
<ele>345</ele>
<time>2024-05-10T16:22:07Z</time>
</trkpt>
<trkpt lat="49.523528991267085" lon="9.324397975578904">
<ele>345</ele>
<time>2024-05-10T16:22:08Z</time>
</trkpt>
<trkpt lat="49.52355187386274" lon="9.324397975578904">
<ele>345</ele>
<time>2024-05-10T16:22:09Z</time>
</trkpt>
<trkpt lat="49.52357861213386" lon="9.324395125731826">
<ele>345.2</ele>
<time>2024-05-10T16:22:10Z</time>
</trkpt>
<trkpt lat="49.523609122261405" lon="9.32438850402832">
<ele>345.2</ele>
<time>2024-05-10T16:22:11Z</time>
</trkpt>
<trkpt lat="49.52363586053252" lon="9.32438464835286">
<ele>345.2</ele>
<time>2024-05-10T16:22:12Z</time>
</trkpt>
<trkpt lat="49.52366637066007" lon="9.324379870668054">
<ele>345.2</ele>
<time>2024-05-10T16:22:13Z</time>
</trkpt>
<trkpt lat="49.52370065264404" lon="9.324379870668054">
<ele>345.4</ele>
<time>2024-05-10T16:22:14Z</time>
</trkpt>
<trkpt lat="49.52373116277158" lon="9.324383726343513">
<ele>345.4</ele>
<time>2024-05-10T16:22:15Z</time>
</trkpt>
<trkpt lat="49.523765528574586" lon="9.324383726343513">
<ele>345.4</ele>
<time>2024-05-10T16:22:16Z</time>
</trkpt>
<trkpt lat="49.5237922668457" lon="9.32438657619059">
<ele>345.4</ele>
<time>2024-05-10T16:22:17Z</time>
</trkpt>
<trkpt lat="49.52381892129779" lon="9.324393197894096">
<ele>345.2</ele>
<time>2024-05-10T16:22:18Z</time>
</trkpt>
<trkpt lat="49.52384180389345" lon="9.324395125731826">
<ele>345.2</ele>
<time>2024-05-10T16:22:19Z</time>
</trkpt>
<trkpt lat="49.52386091463268" lon="9.3243913538754">
<ele>345.2</ele>
<time>2024-05-10T16:22:20Z</time>
</trkpt>
<trkpt lat="49.52387616969645" lon="9.324390348047018">
<ele>345.4</ele>
<time>2024-05-10T16:22:21Z</time>
</trkpt>
<trkpt lat="49.52388756908476" lon="9.32438464835286">
<ele>345.4</ele>
<time>2024-05-10T16:22:22Z</time>
</trkpt>
<trkpt lat="49.52389519661665" lon="9.324379870668054">
<ele>345.4</ele>
<time>2024-05-10T16:22:23Z</time>
</trkpt>
<trkpt lat="49.523902824148536" lon="9.324377942830324">
<ele>345.4</ele>
<time>2024-05-10T16:22:24Z</time>
</trkpt>
<trkpt lat="49.523906679823995" lon="9.324377942830324">
<ele>345.6</ele>
<time>2024-05-10T16:22:25Z</time>
</trkpt>
<trkpt lat="49.52391430735588" lon="9.324379870668054">
<ele>345.6</ele>
<time>2024-05-10T16:22:26Z</time>
</trkpt>
<trkpt lat="49.52391807921231" lon="9.32438464835286">
<ele>345.4</ele>
<time>2024-05-10T16:22:27Z</time>
</trkpt>
<trkpt lat="49.523925706744194" lon="9.32438850402832">
<ele>345.4</ele>
<time>2024-05-10T16:22:28Z</time>
</trkpt>
<trkpt lat="49.523925706744194" lon="9.3243913538754">
<ele>345.4</ele>
<time>2024-05-10T16:22:29Z</time>
</trkpt>
<trkpt lat="49.523925706744194" lon="9.324393197894096">
<ele>345.4</ele>
<time>2024-05-10T16:22:30Z</time>
</trkpt>
<trkpt lat="49.523925706744194" lon="9.324395125731826">
<ele>345.4</ele>
<time>2024-05-10T16:22:32Z</time>
</trkpt>
<trkpt lat="49.523925706744194" lon="9.324393197894096">
<ele>345.4</ele>
<time>2024-05-10T16:22:33Z</time>
</trkpt>
<trkpt lat="49.523925706744194" lon="9.3243913538754">
<ele>345.2</ele>
<time>2024-05-10T16:22:34Z</time>
</trkpt>
<trkpt lat="49.523925706744194" lon="9.324390348047018">
<ele>345.2</ele>
<time>2024-05-10T16:22:37Z</time>
</trkpt>
<trkpt lat="49.52392956241965" lon="9.32438850402832">
<ele>345</ele>
<time>2024-05-10T16:22:38Z</time>
</trkpt>
<trkpt lat="49.52392956241965" lon="9.324390348047018">
<ele>344.8</ele>
<time>2024-05-10T16:22:39Z</time>
</trkpt>
<trkpt lat="49.523925706744194" lon="9.324390348047018">
<ele>344.8</ele>
<time>2024-05-10T16:22:40Z</time>
</trkpt>
<trkpt lat="49.523925706744194" lon="9.32438850402832">
<ele>344.6</ele>
<time>2024-05-10T16:22:41Z</time>
</trkpt>
<trkpt lat="49.523925706744194" lon="9.32438464835286">
<ele>344.6</ele>
<time>2024-05-10T16:22:44Z</time>
</trkpt>
<trkpt lat="49.52392956241965" lon="9.32438464835286">
<ele>344.4</ele>
<time>2024-05-10T16:22:45Z</time>
</trkpt>
<trkpt lat="49.52392956241965" lon="9.324383726343513">
<ele>344.4</ele>
<time>2024-05-10T16:22:48Z</time>
</trkpt>
<trkpt lat="49.52392956241965" lon="9.324381798505785">
<ele>344.4</ele>
<time>2024-05-10T16:22:49Z</time>
</trkpt>
<trkpt lat="49.52392956241965" lon="9.324379870668054">
<ele>344.4</ele>
<time>2024-05-10T16:22:50Z</time>
</trkpt>
<trkpt lat="49.52392956241965" lon="9.324375092983246">
<ele>344.2</ele>
<time>2024-05-10T16:22:51Z</time>
</trkpt>
<trkpt lat="49.523925706744194" lon="9.324370315298438">
<ele>344.2</ele>
<time>2024-05-10T16:22:52Z</time>
</trkpt>
<trkpt lat="49.523925706744194" lon="9.32436461560428">
<ele>344.2</ele>
<time>2024-05-10T16:22:53Z</time>
</trkpt>
<trkpt lat="49.523925706744194" lon="9.324363693594933">
<ele>344</ele>
<time>2024-05-10T16:22:54Z</time>
</trkpt>
<trkpt lat="49.52392193488777" lon="9.324337877333164">
<ele>343.8</ele>
<time>2024-05-10T16:22:55Z</time>
</trkpt>
<trkpt lat="49.52391045168042" lon="9.32431122288108">
<ele>343.8</ele>
<time>2024-05-10T16:22:56Z</time>
</trkpt>
<trkpt lat="49.523902824148536" lon="9.324283562600613">
<ele>343.8</ele>
<time>2024-05-10T16:22:57Z</time>
</trkpt>
<trkpt lat="49.52389142476022" lon="9.324253052473068">
<ele>343.6</ele>
<time>2024-05-10T16:22:58Z</time>
</trkpt>
<trkpt lat="49.52387994155288" lon="9.324219692498446">
<ele>343.6</ele>
<time>2024-05-10T16:22:59Z</time>
</trkpt>
<trkpt lat="49.52386854216456" lon="9.32419203221798">
<ele>343.4</ele>
<time>2024-05-10T16:23:00Z</time>
</trkpt>
<trkpt lat="49.52385705895722" lon="9.324165293946862">
<ele>343.4</ele>
<time>2024-05-10T16:23:01Z</time>
</trkpt>
<trkpt lat="49.52384180389345" lon="9.324139561504126">
<ele>343.2</ele>
<time>2024-05-10T16:23:02Z</time>
</trkpt>
<trkpt lat="49.523826548829675" lon="9.324116678908467">
<ele>343.2</ele>
<time>2024-05-10T16:23:03Z</time>
</trkpt>
<trkpt lat="49.52381514944136" lon="9.324083318933845">
<ele>343</ele>
<time>2024-05-10T16:23:04Z</time>
</trkpt>
<trkpt lat="49.5238112937659" lon="9.324045181274414">
<ele>343</ele>
<time>2024-05-10T16:23:05Z</time>
</trkpt>
<trkpt lat="49.5238112937659" lon="9.324000338092446">
<ele>343</ele>
<time>2024-05-10T16:23:06Z</time>
</trkpt>
<trkpt lat="49.52382277697325" lon="9.323949795216322">
<ele>343</ele>
<time>2024-05-10T16:23:07Z</time>
</trkpt>
<trkpt lat="49.52383417636156" lon="9.323907801881433">
<ele>342.8</ele>
<time>2024-05-10T16:23:08Z</time>
</trkpt>
<trkpt lat="49.523845659568906" lon="9.323868742212651">
<ele>342.8</ele>
<time>2024-05-10T16:23:09Z</time>
</trkpt>
<trkpt lat="49.52385328710079" lon="9.323826748877764">
<ele>342.8</ele>
<time>2024-05-10T16:23:10Z</time>
</trkpt>
<trkpt lat="49.52384943142533" lon="9.323782911524177">
<ele>342.8</ele>
<time>2024-05-10T16:23:11Z</time>
</trkpt>
<trkpt lat="49.52383417636156" lon="9.32375332340598">
<ele>342.6</ele>
<time>2024-05-10T16:23:12Z</time>
</trkpt>
<trkpt lat="49.52381514944136" lon="9.32373614050448">
<ele>342.4</ele>
<time>2024-05-10T16:23:13Z</time>
</trkpt>
<trkpt lat="49.5237922668457" lon="9.323724741116166">
<ele>342.4</ele>
<time>2024-05-10T16:23:14Z</time>
</trkpt>
<trkpt lat="49.52377315610647" lon="9.32371325790882">
<ele>342.4</ele>
<time>2024-05-10T16:23:15Z</time>
</trkpt>
<trkpt lat="49.52376167289913" lon="9.3236970808357">
<ele>342.2</ele>
<time>2024-05-10T16:23:16Z</time>
</trkpt>
<trkpt lat="49.523746417835355" lon="9.32367319241166">
<ele>342.2</ele>
<time>2024-05-10T16:23:17Z</time>
</trkpt>
<trkpt lat="49.52373501844704" lon="9.323644610121846">
<ele>342.2</ele>
<time>2024-05-10T16:23:18Z</time>
</trkpt>
<trkpt lat="49.523727390915155" lon="9.323611250147223">
<ele>342.2</ele>
<time>2024-05-10T16:23:19Z</time>
</trkpt>
<trkpt lat="49.52371976338327" lon="9.323583589866756">
<ele>342.2</ele>
<time>2024-05-10T16:23:20Z</time>
</trkpt>
<trkpt lat="49.52371213585138" lon="9.32355685159564">
<ele>342.4</ele>
<time>2024-05-10T16:23:21Z</time>
</trkpt>
<trkpt lat="49.5237045083195" lon="9.323532041162252">
<ele>342.4</ele>
<time>2024-05-10T16:23:22Z</time>
</trkpt>
<trkpt lat="49.52369688078761" lon="9.323505386710169">
<ele>342.4</ele>
<time>2024-05-10T16:23:23Z</time>
</trkpt>
<trkpt lat="49.52369302511215" lon="9.323471942916512">
<ele>342.4</ele>
<time>2024-05-10T16:23:24Z</time>
</trkpt>
<trkpt lat="49.523689253255725" lon="9.32343958877027">
<ele>342.4</ele>
<time>2024-05-10T16:23:25Z</time>
</trkpt>
<trkpt lat="49.52367777004838" lon="9.323411928489804">
<ele>342.4</ele>
<time>2024-05-10T16:23:26Z</time>
</trkpt>
<trkpt lat="49.523670142516494" lon="9.32337949052453">
<ele>342.2</ele>
<time>2024-05-10T16:23:27Z</time>
</trkpt>
<trkpt lat="49.52365488745272" lon="9.32334034703672">
<ele>342.2</ele>
<time>2024-05-10T16:23:28Z</time>
</trkpt>
<trkpt lat="49.52363963238895" lon="9.323298437520862">
<ele>342</ele>
<time>2024-05-10T16:23:29Z</time>
</trkpt>
<trkpt lat="49.52362437732518" lon="9.323253594338894">
<ele>342</ele>
<time>2024-05-10T16:23:30Z</time>
</trkpt>
<trkpt lat="49.523609122261405" lon="9.323215456679463">
<ele>341.8</ele>
<time>2024-05-10T16:23:31Z</time>
</trkpt>
<trkpt lat="49.52359386719763" lon="9.323180168867111">
<ele>341.6</ele>
<time>2024-05-10T16:23:32Z</time>
</trkpt>
<trkpt lat="49.52357861213386" lon="9.323146808892488">
<ele>341.4</ele>
<time>2024-05-10T16:23:33Z</time>
</trkpt>
<trkpt lat="49.52356712892651" lon="9.323113365098834">
<ele>341.2</ele>
<time>2024-05-10T16:23:34Z</time>
</trkpt>
<trkpt lat="49.52355187386274" lon="9.32308193296194">
<ele>341.2</ele>
<time>2024-05-10T16:23:35Z</time>
</trkpt>
<trkpt lat="49.52353661879897" lon="9.323046645149589">
<ele>341</ele>
<time>2024-05-10T16:23:36Z</time>
</trkpt>
<trkpt lat="49.52352521941066" lon="9.323011357337236">
<ele>341</ele>
<time>2024-05-10T16:23:37Z</time>
</trkpt>
<trkpt lat="49.523509964346886" lon="9.322977997362614">
<ele>340.8</ele>
<time>2024-05-10T16:23:38Z</time>
</trkpt>
<trkpt lat="49.52349848113954" lon="9.322946481406689">
<ele>340.6</ele>
<time>2024-05-10T16:23:39Z</time>
</trkpt>
<trkpt lat="49.52348708175123" lon="9.322915049269795">
<ele>340.6</ele>
<time>2024-05-10T16:23:40Z</time>
</trkpt>
<trkpt lat="49.52347559854388" lon="9.32288353331387">
<ele>340.4</ele>
<time>2024-05-10T16:23:41Z</time>
</trkpt>
<trkpt lat="49.52346419915557" lon="9.322850173339248">
<ele>340.2</ele>
<time>2024-05-10T16:23:42Z</time>
</trkpt>
<trkpt lat="49.52345657162368" lon="9.322816813364623">
<ele>340.2</ele>
<time>2024-05-10T16:23:43Z</time>
</trkpt>
<trkpt lat="49.52344508841634" lon="9.322783453390002">
<ele>340.2</ele>
<time>2024-05-10T16:23:44Z</time>
</trkpt>
<trkpt lat="49.52344123274088" lon="9.322752943262458">
<ele>340</ele>
<time>2024-05-10T16:23:45Z</time>
</trkpt>
<trkpt lat="49.52343360520899" lon="9.32272620499134">
<ele>340</ele>
<time>2024-05-10T16:23:46Z</time>
</trkpt>
<trkpt lat="49.523429833352566" lon="9.32270617224276">
<ele>339.8</ele>
<time>2024-05-10T16:23:47Z</time>
</trkpt>
<trkpt lat="49.52341835014522" lon="9.322691839188336">
<ele>339.8</ele>
<time>2024-05-10T16:23:48Z</time>
</trkpt>
<trkpt lat="49.523410722613335" lon="9.32266996242106">
<ele>339.8</ele>
<time>2024-05-10T16:23:49Z</time>
</trkpt>
<trkpt lat="49.52340309508145" lon="9.3226470798254">
<ele>339.8</ele>
<time>2024-05-10T16:23:50Z</time>
</trkpt>
<trkpt lat="49.52339546754956" lon="9.322621263563631">
<ele>339.8</ele>
<time>2024-05-10T16:23:51Z</time>
</trkpt>
<trkpt lat="49.52338406816125" lon="9.322596536949275">
<ele>339.6</ele>
<time>2024-05-10T16:23:52Z</time>
</trkpt>
<trkpt lat="49.52337644062936" lon="9.32257172651589">
<ele>339.6</ele>
<time>2024-05-10T16:23:53Z</time>
</trkpt>
<trkpt lat="49.52335732989013" lon="9.322554543614388">
<ele>339.6</ele>
<time>2024-05-10T16:23:54Z</time>
</trkpt>
<trkpt lat="49.523334447294474" lon="9.32253166101873">
<ele>339.6</ele>
<time>2024-05-10T16:23:55Z</time>
</trkpt>
<trkpt lat="49.523315420374274" lon="9.322502072900534">
<ele>339.4</ele>
<time>2024-05-10T16:23:56Z</time>
</trkpt>
<trkpt lat="49.5233001653105" lon="9.322464941069484">
<ele>339.4</ele>
<time>2024-05-10T16:23:57Z</time>
</trkpt>
<trkpt lat="49.52328491024673" lon="9.322422025725244">
<ele>339.2</ele>
<time>2024-05-10T16:23:58Z</time>
</trkpt>
<trkpt lat="49.5232657995075" lon="9.322375254705548">
<ele>339.2</ele>
<time>2024-05-10T16:23:59Z</time>
</trkpt>
<trkpt lat="49.52324668876827" lon="9.322328567504885">
<ele>339.2</ele>
<time>2024-05-10T16:24:00Z</time>
</trkpt>
<trkpt lat="49.52322380617261" lon="9.322283724322917">
<ele>339.2</ele>
<time>2024-05-10T16:24:01Z</time>
</trkpt>
<trkpt lat="49.52319715172053" lon="9.322239803150296">
<ele>339.2</ele>
<time>2024-05-10T16:24:02Z</time>
</trkpt>
<trkpt lat="49.52317804098129" lon="9.32219311594963">
<ele>339.2</ele>
<time>2024-05-10T16:24:03Z</time>
</trkpt>
<trkpt lat="49.523155158385634" lon="9.322145422920585">
<ele>339.2</ele>
<time>2024-05-10T16:24:04Z</time>
</trkpt>
<trkpt lat="49.52313990332186" lon="9.32209488004446">
<ele>339.2</ele>
<time>2024-05-10T16:24:05Z</time>
</trkpt>
<trkpt lat="49.52311324886978" lon="9.322045259177685">
<ele>339.2</ele>
<time>2024-05-10T16:24:06Z</time>
</trkpt>
<trkpt lat="49.52308651059866" lon="9.321999493986368">
<ele>339.2</ele>
<time>2024-05-10T16:24:07Z</time>
</trkpt>
<trkpt lat="49.523063628003" lon="9.321953728795052">
<ele>339</ele>
<time>2024-05-10T16:24:08Z</time>
</trkpt>
<trkpt lat="49.52304451726377" lon="9.321907963603737">
<ele>338.8</ele>
<time>2024-05-10T16:24:09Z</time>
</trkpt>
<trkpt lat="49.52302163466811" lon="9.321863120421767">
<ele>338.4</ele>
<time>2024-05-10T16:24:10Z</time>
</trkpt>
<trkpt lat="49.52299875207245" lon="9.3218182772398">
<ele>338.2</ele>
<time>2024-05-10T16:24:11Z</time>
</trkpt>
<trkpt lat="49.522975869476795" lon="9.32177536189556">
<ele>338</ele>
<time>2024-05-10T16:24:12Z</time>
</trkpt>
<trkpt lat="49.52295684255659" lon="9.321731524541974">
<ele>337.8</ele>
<time>2024-05-10T16:24:13Z</time>
</trkpt>
<trkpt lat="49.522941587492824" lon="9.321688609197736">
<ele>337.6</ele>
<time>2024-05-10T16:24:14Z</time>
</trkpt>
<trkpt lat="49.52292624861002" lon="9.32163999415934">
<ele>337.4</ele>
<time>2024-05-10T16:24:15Z</time>
</trkpt>
<trkpt lat="49.522914849221706" lon="9.321591295301914">
<ele>337.2</ele>
<time>2024-05-10T16:24:16Z</time>
</trkpt>
<trkpt lat="49.522914849221706" lon="9.32154175825417">
<ele>336.8</ele>
<time>2024-05-10T16:24:17Z</time>
</trkpt>
<trkpt lat="49.52293010428548" lon="9.321486437693238">
<ele>336.6</ele>
<time>2024-05-10T16:24:18Z</time>
</trkpt>
<trkpt lat="49.52295684255659" lon="9.321433044970036">
<ele>336.2</ele>
<time>2024-05-10T16:24:19Z</time>
</trkpt>
<trkpt lat="49.522994980216026" lon="9.321392979472876">
<ele>335.8</ele>
<time>2024-05-10T16:24:20Z</time>
</trkpt>
<trkpt lat="49.52303311787546" lon="9.32136146351695">
<ele>335.4</ele>
<time>2024-05-10T16:24:21Z</time>
</trkpt>
<trkpt lat="49.523063628003" lon="9.321326175704598">
<ele>335</ele>
<time>2024-05-10T16:24:22Z</time>
</trkpt>
<trkpt lat="49.52309790998697" lon="9.321298599243164">
<ele>334.8</ele>
<time>2024-05-10T16:24:23Z</time>
</trkpt>
<trkpt lat="49.52312850393355" lon="9.321271860972049">
<ele>334.4</ele>
<time>2024-05-10T16:24:24Z</time>
</trkpt>
<trkpt lat="49.52316278591752" lon="9.321256605908276">
<ele>334.2</ele>
<time>2024-05-10T16:24:25Z</time>
</trkpt>
<trkpt lat="49.52319715172053" lon="9.32124705053866">
<ele>334</ele>
<time>2024-05-10T16:24:26Z</time>
</trkpt>
<trkpt lat="49.52322380617261" lon="9.321249900385736">
<ele>333.8</ele>
<time>2024-05-10T16:24:27Z</time>
</trkpt>
<trkpt lat="49.52325817197561" lon="9.32126708328724">
<ele>333.6</ele>
<time>2024-05-10T16:24:28Z</time>
</trkpt>
<trkpt lat="49.52327728271485" lon="9.321291893720629">
<ele>333.6</ele>
<time>2024-05-10T16:24:29Z</time>
</trkpt>
<trkpt lat="49.523292537778616" lon="9.321319554001091">
<ele>333.4</ele>
<time>2024-05-10T16:24:30Z</time>
</trkpt>
<trkpt lat="49.52330393716693" lon="9.321350064128636">
<ele>333.4</ele>
<time>2024-05-10T16:24:31Z</time>
</trkpt>
<trkpt lat="49.52330779284239" lon="9.321379652246833">
<ele>333.4</ele>
<time>2024-05-10T16:24:32Z</time>
</trkpt>
<trkpt lat="49.523311564698815" lon="9.321408234536648">
<ele>333.4</ele>
<time>2024-05-10T16:24:33Z</time>
</trkpt>
<trkpt lat="49.523315420374274" lon="9.321426339447498">
<ele>333.2</ele>
<time>2024-05-10T16:24:34Z</time>
</trkpt>
<trkpt lat="49.523315420374274" lon="9.321434972807763">
<ele>333.2</ele>
<time>2024-05-10T16:24:35Z</time>
</trkpt>
<trkpt lat="49.523315420374274" lon="9.321436816826465">
<ele>333.2</ele>
<time>2024-05-10T16:24:36Z</time>
</trkpt>
<trkpt lat="49.523311564698815" lon="9.32143966667354">
<ele>333.4</ele>
<time>2024-05-10T16:24:37Z</time>
</trkpt>
<trkpt lat="49.523311564698815" lon="9.32144159451127">
<ele>333.4</ele>
<time>2024-05-10T16:24:38Z</time>
</trkpt>
<trkpt lat="49.523311564698815" lon="9.321443522349">
<ele>333.4</ele>
<time>2024-05-10T16:24:39Z</time>
</trkpt>
<trkpt lat="49.523311564698815" lon="9.321446372196078">
<ele>333.4</ele>
<time>2024-05-10T16:24:40Z</time>
</trkpt>
<trkpt lat="49.523311564698815" lon="9.321450227871535">
<ele>333.4</ele>
<time>2024-05-10T16:24:41Z</time>
</trkpt>
<trkpt lat="49.52330779284239" lon="9.321450227871535">
<ele>333.4</ele>
<time>2024-05-10T16:24:42Z</time>
</trkpt>
<trkpt lat="49.52330779284239" lon="9.321450227871535">
<ele>333.4</ele>
</trkpt>
</trkseg>
</trk>
</gpx>